<?xml version='1.0' encoding='UTF-8'?><gpx version="1.1" creator="JPX - https://github.com/jenetics/jpx" xmlns="http://www.topografix.com/GPX/1/1"><trk><trkseg><trkpt lat="42.642685078873825" lon="11.989109967415404"><ele>319.0</ele><time>2026-04-28T08:52:06Z</time></trkpt><trkpt lat="42.64275781264554" lon="11.989070920094237"><ele>319.0</ele><time>2026-04-28T08:52:09Z</time></trkpt><trkpt lat="42.642818207329626" lon="11.989038266822265"><ele>319.0</ele><time>2026-04-28T08:52:11Z</time></trkpt><trkpt lat="42.642924588246025" lon="11.988979757960514"><ele>319.0</ele><time>2026-04-28T08:52:13Z</time></trkpt><trkpt lat="42.6429892376774" lon="11.988949329097839"><ele>319.0</ele><time>2026-04-28T08:52:14Z</time></trkpt><trkpt lat="42.64310976361478" lon="11.988887404909805"><ele>320.0</ele><time>2026-04-28T08:52:16Z</time></trkpt><trkpt lat="42.64317096291788" lon="11.988851881246552"><ele>321.0</ele><time>2026-04-28T08:52:17Z</time></trkpt><trkpt lat="42.64327963384494" lon="11.988814599154807"><ele>322.0</ele><time>2026-04-28T08:52:19Z</time></trkpt><trkpt lat="42.64336204041486" lon="11.988800892670952"><ele>323.0</ele><time>2026-04-28T08:52:21Z</time></trkpt><trkpt lat="42.64344054127423" lon="11.988788704760719"><ele>324.0</ele><time>2026-04-28T08:52:23Z</time></trkpt><trkpt lat="42.64351112455203" lon="11.988801155869458"><ele>325.0</ele><time>2026-04-28T08:52:25Z</time></trkpt><trkpt lat="42.643577324603655" lon="11.988856941111356"><ele>325.0</ele><time>2026-04-28T08:52:28Z</time></trkpt><trkpt lat="42.64357940428944" lon="11.988946914828244"><ele>325.0</ele><time>2026-04-28T08:52:32Z</time></trkpt><trkpt lat="42.64364361088032" lon="11.98893747273686"><ele>325.0</ele><time>2026-04-28T08:52:35Z</time></trkpt><trkpt lat="42.64357759372279" lon="11.989204489479132"><ele>325.0</ele><time>2026-04-28T08:53:18Z</time></trkpt><trkpt lat="42.64353182171101" lon="11.989270413900993"><ele>325.0</ele><time>2026-04-28T08:53:26Z</time></trkpt><trkpt lat="42.64354449021263" lon="11.989174852063462"><ele>325.0</ele><time>2026-04-28T08:53:44Z</time></trkpt><trkpt lat="42.64356922743957" lon="11.989092039773459"><ele>325.0</ele><time>2026-04-28T08:53:53Z</time></trkpt><trkpt lat="42.64357881108123" lon="11.98900383915885"><ele>325.0</ele><time>2026-04-28T08:54:00Z</time></trkpt><trkpt lat="42.64360724696178" lon="11.98892747648625"><ele>325.0</ele><time>2026-04-28T08:55:08Z</time></trkpt><trkpt lat="42.64361790331066" lon="11.989042346123995"><ele>325.0</ele><time>2026-04-28T09:00:33Z</time></trkpt><trkpt lat="42.643582108928435" lon="11.988960191085797"><ele>325.0</ele><time>2026-04-28T09:00:35Z</time></trkpt><trkpt lat="42.64359497757139" lon="11.988848031242961"><ele>325.0</ele><time>2026-04-28T09:00:51Z</time></trkpt><trkpt lat="42.643543366114585" lon="11.988744724487036"><ele>325.0</ele><time>2026-04-28T09:00:54Z</time></trkpt><trkpt lat="42.643482097094655" lon="11.98872007892448"><ele>325.0</ele><time>2026-04-28T09:00:57Z</time></trkpt><trkpt lat="42.64341801485634" lon="11.988745816565554"><ele>325.0</ele><time>2026-04-28T09:01:19Z</time></trkpt><trkpt lat="42.64334122421966" lon="11.988780193495943"><ele>325.0</ele><time>2026-04-28T09:01:21Z</time></trkpt><trkpt lat="42.64323793922479" lon="11.988758312732369"><ele>325.0</ele><time>2026-04-28T09:01:23Z</time></trkpt><trkpt lat="42.64317414816363" lon="11.988801977338156"><ele>325.0</ele><time>2026-04-28T09:01:24Z</time></trkpt><trkpt lat="42.64310998850397" lon="11.988830551788057"><ele>325.0</ele><time>2026-04-28T09:01:25Z</time></trkpt><trkpt lat="42.64304721157819" lon="11.988862974030017"><ele>325.0</ele><time>2026-04-28T09:01:26Z</time></trkpt><trkpt lat="42.64298519850568" lon="11.988900705913677"><ele>325.0</ele><time>2026-04-28T09:01:27Z</time></trkpt><trkpt lat="42.64292674041648" lon="11.988942996360894"><ele>325.0</ele><time>2026-04-28T09:01:28Z</time></trkpt><trkpt lat="42.64279930740188" lon="11.989007475181163"><ele>325.0</ele><time>2026-04-28T09:01:30Z</time></trkpt><trkpt lat="42.64273359821096" lon="11.98905203591516"><ele>325.0</ele><time>2026-04-28T09:01:31Z</time></trkpt><trkpt lat="42.64266536571337" lon="11.989107805385325"><ele>324.66666666666663</ele><time>2026-04-28T09:01:32Z</time></trkpt><trkpt lat="42.64259696364082" lon="11.989162979449517"><ele>324.3333333333333</ele><time>2026-04-28T09:01:33Z</time></trkpt><trkpt lat="42.642529146000236" lon="11.98921647064542"><ele>324.0</ele><time>2026-04-28T09:01:34Z</time></trkpt><trkpt lat="42.64246396498209" lon="11.989268649759586"><ele>323.6666666666667</ele><time>2026-04-28T09:01:35Z</time></trkpt><trkpt lat="42.64239434848199" lon="11.989317052184408"><ele>323.33333333333337</ele><time>2026-04-28T09:01:36Z</time></trkpt><trkpt lat="42.64232893154206" lon="11.989369650860649"><ele>323.0</ele><time>2026-04-28T09:01:37Z</time></trkpt><trkpt lat="42.642268198924796" lon="11.989416843078354"><ele>323.0</ele><time>2026-04-28T09:01:38Z</time></trkpt><trkpt lat="42.64221763312038" lon="11.989470083572694"><ele>323.0</ele><time>2026-04-28T09:01:39Z</time></trkpt><trkpt lat="42.642109439549905" lon="11.989550295643866"><ele>323.0</ele><time>2026-04-28T09:01:41Z</time></trkpt><trkpt lat="42.64200968497552" lon="11.989634922373217"><ele>323.0</ele><time>2026-04-28T09:01:43Z</time></trkpt><trkpt lat="42.641924818907235" lon="11.9897015301374"><ele>323.0</ele><time>2026-04-28T09:01:45Z</time></trkpt><trkpt lat="42.64186137849207" lon="11.989749074477636"><ele>322.4</ele><time>2026-04-28T09:01:47Z</time></trkpt><trkpt lat="42.64179974812397" lon="11.989793800895546"><ele>321.79999999999995</ele><time>2026-04-28T09:01:49Z</time></trkpt><trkpt lat="42.641699328078374" lon="11.989685136113994"><ele>321.2</ele><time>2026-04-28T09:01:54Z</time></trkpt><trkpt lat="42.641700336856466" lon="11.989595338158914"><ele>320.6</ele><time>2026-04-28T09:01:57Z</time></trkpt><trkpt lat="42.64169611684539" lon="11.989496983035671"><ele>320.0</ele><time>2026-04-28T09:02:01Z</time></trkpt><trkpt lat="42.641566298791574" lon="11.989570722143657"><ele>320.0</ele><time>2026-04-28T09:02:06Z</time></trkpt><trkpt lat="42.641497987956306" lon="11.989706103538674"><ele>320.0</ele><time>2026-04-28T09:02:08Z</time></trkpt><trkpt lat="42.64144789688874" lon="11.98978675560826"><ele>320.0</ele><time>2026-04-28T09:02:09Z</time></trkpt><trkpt lat="42.6413938618595" lon="11.989869632785021"><ele>320.0</ele><time>2026-04-28T09:02:10Z</time></trkpt><trkpt lat="42.641336846845334" lon="11.989962422648754"><ele>320.0</ele><time>2026-04-28T09:02:11Z</time></trkpt><trkpt lat="42.64127634201287" lon="11.990058413424817"><ele>320.0</ele><time>2026-04-28T09:02:12Z</time></trkpt><trkpt lat="42.641210321549124" lon="11.99015710809298"><ele>320.0</ele><time>2026-04-28T09:02:13Z</time></trkpt><trkpt lat="42.641134217166766" lon="11.9902511732404"><ele>320.0</ele><time>2026-04-28T09:02:14Z</time></trkpt><trkpt lat="42.64105081093816" lon="11.99033983638544"><ele>320.0</ele><time>2026-04-28T09:02:15Z</time></trkpt><trkpt lat="42.64096492942912" lon="11.990424840834468"><ele>320.0</ele><time>2026-04-28T09:02:16Z</time></trkpt><trkpt lat="42.640878911780696" lon="11.990499205245955"><ele>320.0</ele><time>2026-04-28T09:02:17Z</time></trkpt><trkpt lat="42.6407904580642" lon="11.990569892534173"><ele>320.0</ele><time>2026-04-28T09:02:18Z</time></trkpt><trkpt lat="42.64070349413956" lon="11.990638816754522"><ele>320.0</ele><time>2026-04-28T09:02:19Z</time></trkpt><trkpt lat="42.6406116146023" lon="11.990712480258317"><ele>320.0</ele><time>2026-04-28T09:02:20Z</time></trkpt><trkpt lat="42.640515689321774" lon="11.990792290205187"><ele>320.0</ele><time>2026-04-28T09:02:21Z</time></trkpt><trkpt lat="42.64041972914852" lon="11.99086835446077"><ele>320.0</ele><time>2026-04-28T09:02:22Z</time></trkpt><trkpt lat="42.64032069948473" lon="11.990948033268735"><ele>320.0</ele><time>2026-04-28T09:02:23Z</time></trkpt><trkpt lat="42.64021862662678" lon="11.991029436478737"><ele>320.0</ele><time>2026-04-28T09:02:24Z</time></trkpt><trkpt lat="42.64011548822887" lon="11.991118551485789"><ele>320.0</ele><time>2026-04-28T09:02:25Z</time></trkpt><trkpt lat="42.64000711128493" lon="11.991205409951158"><ele>320.0</ele><time>2026-04-28T09:02:26Z</time></trkpt><trkpt lat="42.63989839168499" lon="11.991294819427742"><ele>320.0</ele><time>2026-04-28T09:02:27Z</time></trkpt><trkpt lat="42.63979106277381" lon="11.991392919002642"><ele>320.0</ele><time>2026-04-28T09:02:28Z</time></trkpt><trkpt lat="42.639685102748366" lon="11.99149512489657"><ele>320.0</ele><time>2026-04-28T09:02:29Z</time></trkpt><trkpt lat="42.6395777121142" lon="11.991600222858098"><ele>320.25</ele><time>2026-04-28T09:02:30Z</time></trkpt><trkpt lat="42.63947176868563" lon="11.991717599951002"><ele>320.5</ele><time>2026-04-28T09:02:31Z</time></trkpt><trkpt lat="42.63936822825467" lon="11.991845701562289"><ele>320.75</ele><time>2026-04-28T09:02:32Z</time></trkpt><trkpt lat="42.639263518773895" lon="11.991976549737453"><ele>321.0</ele><time>2026-04-28T09:02:33Z</time></trkpt><trkpt lat="42.63915364728111" lon="11.992105731330685"><ele>321.5</ele><time>2026-04-28T09:02:34Z</time></trkpt><trkpt lat="42.63904649479082" lon="11.992234128479431"><ele>322.0</ele><time>2026-04-28T09:02:35Z</time></trkpt><trkpt lat="42.63894463307964" lon="11.992365650919245"><ele>322.5</ele><time>2026-04-28T09:02:36Z</time></trkpt><trkpt lat="42.63884759737745" lon="11.99249547126548"><ele>323.0</ele><time>2026-04-28T09:02:37Z</time></trkpt><trkpt lat="42.638750497815124" lon="11.992619089134271"><ele>322.0</ele><time>2026-04-28T09:02:38Z</time></trkpt><trkpt lat="42.63865574762628" lon="11.992736317296181"><ele>321.0</ele><time>2026-04-28T09:02:39Z</time></trkpt><trkpt lat="42.6385579997447" lon="11.992840201294646"><ele>320.0</ele><time>2026-04-28T09:02:40Z</time></trkpt><trkpt lat="42.63845877034563" lon="11.992931138890643"><ele>319.0</ele><time>2026-04-28T09:02:41Z</time></trkpt><trkpt lat="42.63836001696307" lon="11.99301008007041"><ele>319.0</ele><time>2026-04-28T09:02:42Z</time></trkpt><trkpt lat="42.63826424885857" lon="11.993081214869125"><ele>319.0</ele><time>2026-04-28T09:02:43Z</time></trkpt><trkpt lat="42.63817333551678" lon="11.993145915697362"><ele>319.0</ele><time>2026-04-28T09:02:44Z</time></trkpt><trkpt lat="42.63808174880619" lon="11.993213166838634"><ele>319.0</ele><time>2026-04-28T09:02:45Z</time></trkpt><trkpt lat="42.63798764545408" lon="11.993292345017114"><ele>319.0</ele><time>2026-04-28T09:02:46Z</time></trkpt><trkpt lat="42.637895192528205" lon="11.99337954841903"><ele>318.5</ele><time>2026-04-28T09:02:47Z</time></trkpt><trkpt lat="42.63780198823128" lon="11.993467688831538"><ele>318.0</ele><time>2026-04-28T09:02:48Z</time></trkpt><trkpt lat="42.63770578256909" lon="11.993554953361668"><ele>317.5</ele><time>2026-04-28T09:02:49Z</time></trkpt><trkpt lat="42.637610729528625" lon="11.993643312995012"><ele>317.0</ele><time>2026-04-28T09:02:50Z</time></trkpt><trkpt lat="42.63751324842772" lon="11.993729839136428"><ele>317.0</ele><time>2026-04-28T09:02:51Z</time></trkpt><trkpt lat="42.637415064971" lon="11.993817329562937"><ele>317.0</ele><time>2026-04-28T09:02:52Z</time></trkpt><trkpt lat="42.63731648005987" lon="11.993905133139588"><ele>317.0</ele><time>2026-04-28T09:02:53Z</time></trkpt><trkpt lat="42.6372192863832" lon="11.993994722127319"><ele>317.0</ele><time>2026-04-28T09:02:54Z</time></trkpt><trkpt lat="42.637120968005036" lon="11.99408430497282"><ele>317.5</ele><time>2026-04-28T09:02:55Z</time></trkpt><trkpt lat="42.63702142236123" lon="11.994173785431393"><ele>318.0</ele><time>2026-04-28T09:02:56Z</time></trkpt><trkpt lat="42.63691795335356" lon="11.994257959796318"><ele>318.5</ele><time>2026-04-28T09:02:57Z</time></trkpt><trkpt lat="42.63681257373843" lon="11.994339741348082"><ele>319.0</ele><time>2026-04-28T09:02:58Z</time></trkpt><trkpt lat="42.63670695118469" lon="11.994419269224151"><ele>319.0</ele><time>2026-04-28T09:02:59Z</time></trkpt><trkpt lat="42.63659890555446" lon="11.994491590664428"><ele>319.0</ele><time>2026-04-28T09:03:00Z</time></trkpt><trkpt lat="42.636487425184434" lon="11.994550358272226"><ele>319.0</ele><time>2026-04-28T09:03:01Z</time></trkpt><trkpt lat="42.636373128474574" lon="11.994601479134632"><ele>319.0</ele><time>2026-04-28T09:03:02Z</time></trkpt><trkpt lat="42.63625842137663" lon="11.99464821028156"><ele>319.0</ele><time>2026-04-28T09:03:03Z</time></trkpt><trkpt lat="42.63614465422799" lon="11.994692152501477"><ele>319.0</ele><time>2026-04-28T09:03:04Z</time></trkpt><trkpt lat="42.63603046530064" lon="11.994734761277293"><ele>319.0</ele><time>2026-04-28T09:03:05Z</time></trkpt><trkpt lat="42.63592371857064" lon="11.99477261376262"><ele>319.0</ele><time>2026-04-28T09:03:06Z</time></trkpt><trkpt lat="42.63582540631909" lon="11.994800839339575"><ele>319.0</ele><time>2026-04-28T09:03:07Z</time></trkpt><trkpt lat="42.63574455584011" lon="11.994821563104043"><ele>318.3333333333333</ele><time>2026-04-28T09:03:08Z</time></trkpt><trkpt lat="42.63567592169397" lon="11.994836167250437"><ele>317.66666666666663</ele><time>2026-04-28T09:03:09Z</time></trkpt><trkpt lat="42.6355850782444" lon="11.994844798841513"><ele>317.0</ele><time>2026-04-28T09:03:11Z</time></trkpt><trkpt lat="42.63551232966445" lon="11.994870530302565"><ele>316.3333333333333</ele><time>2026-04-28T09:03:52Z</time></trkpt><trkpt lat="42.635410706753774" lon="11.994921668518982"><ele>315.6666666666667</ele><time>2026-04-28T09:03:54Z</time></trkpt><trkpt lat="42.63534836991435" lon="11.9949467031064"><ele>315.0</ele><time>2026-04-28T09:03:55Z</time></trkpt><trkpt lat="42.6352762620274" lon="11.994973839510395"><ele>316.2</ele><time>2026-04-28T09:03:56Z</time></trkpt><trkpt lat="42.63518236073868" lon="11.995008235816332"><ele>317.4</ele><time>2026-04-28T09:03:57Z</time></trkpt><trkpt lat="42.635077209479505" lon="11.995041567790992"><ele>318.6</ele><time>2026-04-28T09:03:58Z</time></trkpt><trkpt lat="42.634973605285616" lon="11.995074865741564"><ele>319.8</ele><time>2026-04-28T09:03:59Z</time></trkpt><trkpt lat="42.63485967476799" lon="11.995113416803429"><ele>321.0</ele><time>2026-04-28T09:04:00Z</time></trkpt><trkpt lat="42.63474386363417" lon="11.99516136416231"><ele>321.0</ele><time>2026-04-28T09:04:01Z</time></trkpt><trkpt lat="42.634624823286615" lon="11.995225030696352"><ele>321.0</ele><time>2026-04-28T09:04:02Z</time></trkpt><trkpt lat="42.63450668992106" lon="11.995289524196266"><ele>321.0</ele><time>2026-04-28T09:04:03Z</time></trkpt><trkpt lat="42.63439069808208" lon="11.995363942675601"><ele>321.0</ele><time>2026-04-28T09:04:04Z</time></trkpt><trkpt lat="42.63427450863412" lon="11.995446205091127"><ele>320.25</ele><time>2026-04-28T09:04:05Z</time></trkpt><trkpt lat="42.63416194031845" lon="11.995550376336569"><ele>319.5</ele><time>2026-04-28T09:04:06Z</time></trkpt><trkpt lat="42.63404186745546" lon="11.995655787926559"><ele>318.75</ele><time>2026-04-28T09:04:07Z</time></trkpt><trkpt lat="42.633918056427504" lon="11.99575791683595"><ele>318.0</ele><time>2026-04-28T09:04:08Z</time></trkpt><trkpt lat="42.63379236935338" lon="11.995867007395658"><ele>322.0</ele><time>2026-04-28T09:04:09Z</time></trkpt><trkpt lat="42.63366686348952" lon="11.995979996098512"><ele>326.0</ele><time>2026-04-28T09:04:10Z</time></trkpt><trkpt lat="42.633540745888006" lon="11.996097811510001"><ele>330.0</ele><time>2026-04-28T09:04:11Z</time></trkpt><trkpt lat="42.633411808864146" lon="11.996215684430933"><ele>330.0</ele><time>2026-04-28T09:04:12Z</time></trkpt><trkpt lat="42.633279666716824" lon="11.996333516163915"><ele>330.0</ele><time>2026-04-28T09:04:13Z</time></trkpt><trkpt lat="42.63315012220644" lon="11.996446721546342"><ele>330.0</ele><time>2026-04-28T09:04:14Z</time></trkpt><trkpt lat="42.63302244445266" lon="11.99655590152831"><ele>330.0</ele><time>2026-04-28T09:04:15Z</time></trkpt><trkpt lat="42.632890988658865" lon="11.996657805179803"><ele>330.0</ele><time>2026-04-28T09:04:16Z</time></trkpt><trkpt lat="42.63275873817371" lon="11.996754701479269"><ele>330.0</ele><time>2026-04-28T09:04:17Z</time></trkpt><trkpt lat="42.632626791914" lon="11.99684473490379"><ele>330.0</ele><time>2026-04-28T09:04:18Z</time></trkpt><trkpt lat="42.6325050796674" lon="11.996927725965607"><ele>332.5</ele><time>2026-04-28T09:04:19Z</time></trkpt><trkpt lat="42.63238827524168" lon="11.99699975002243"><ele>335.0</ele><time>2026-04-28T09:04:20Z</time></trkpt><trkpt lat="42.63226604850105" lon="11.99707714753726"><ele>337.5</ele><time>2026-04-28T09:04:21Z</time></trkpt><trkpt lat="42.63214053764745" lon="11.997149240045891"><ele>340.0</ele><time>2026-04-28T09:04:22Z</time></trkpt><trkpt lat="42.63201523584004" lon="11.997226542323272"><ele>335.66666666666663</ele><time>2026-04-28T09:04:23Z</time></trkpt><trkpt lat="42.63188228490421" lon="11.997310913575296"><ele>331.3333333333333</ele><time>2026-04-28T09:04:24Z</time></trkpt><trkpt lat="42.631743835266036" lon="11.997399564997343"><ele>327.0</ele><time>2026-04-28T09:04:25Z</time></trkpt><trkpt lat="42.63159686704159" lon="11.99749054899833"><ele>331.0</ele><time>2026-04-28T09:04:26Z</time></trkpt><trkpt lat="42.63143733788565" lon="11.997584409125086"><ele>335.0</ele><time>2026-04-28T09:04:27Z</time></trkpt><trkpt lat="42.63126984984223" lon="11.997679943506798"><ele>339.0</ele><time>2026-04-28T09:04:28Z</time></trkpt><trkpt lat="42.63109395504938" lon="11.997775716304506"><ele>339.0</ele><time>2026-04-28T09:04:29Z</time></trkpt><trkpt lat="42.63091419287342" lon="11.997866232545904"><ele>339.0</ele><time>2026-04-28T09:04:30Z</time></trkpt><trkpt lat="42.630729090840994" lon="11.997950853990202"><ele>339.0</ele><time>2026-04-28T09:04:31Z</time></trkpt><trkpt lat="42.6305390889618" lon="11.998027307041395"><ele>339.0</ele><time>2026-04-28T09:04:32Z</time></trkpt><trkpt lat="42.63034560438757" lon="11.99809381027788"><ele>339.0</ele><time>2026-04-28T09:04:33Z</time></trkpt><trkpt lat="42.630148456520374" lon="11.99815153631744"><ele>339.0</ele><time>2026-04-28T09:04:34Z</time></trkpt><trkpt lat="42.6299484065288" lon="11.998203826872667"><ele>334.6666666666667</ele><time>2026-04-28T09:04:35Z</time></trkpt><trkpt lat="42.62974442902686" lon="11.998245458459255"><ele>330.33333333333337</ele><time>2026-04-28T09:04:36Z</time></trkpt><trkpt lat="42.6295413178271" lon="11.998265421020758"><ele>326.0</ele><time>2026-04-28T09:04:37Z</time></trkpt><trkpt lat="42.62933963996368" lon="11.998274651755013"><ele>323.33333333333337</ele><time>2026-04-28T09:04:38Z</time></trkpt><trkpt lat="42.62913817583864" lon="11.998308475979846"><ele>320.6666666666667</ele><time>2026-04-28T09:04:39Z</time></trkpt><trkpt lat="42.62893676550568" lon="11.99835736877578"><ele>318.0</ele><time>2026-04-28T09:04:40Z</time></trkpt><trkpt lat="42.62873293523547" lon="11.998412108687862"><ele>323.0</ele><time>2026-04-28T09:04:41Z</time></trkpt><trkpt lat="42.62852539314093" lon="11.998476039249729"><ele>328.0</ele><time>2026-04-28T09:04:42Z</time></trkpt><trkpt lat="42.62832025442801" lon="11.998547627210371"><ele>333.0</ele><time>2026-04-28T09:04:43Z</time></trkpt><trkpt lat="42.62811634411163" lon="11.998634563316713"><ele>333.0</ele><time>2026-04-28T09:04:44Z</time></trkpt><trkpt lat="42.62791000419516" lon="11.998733089673939"><ele>333.0</ele><time>2026-04-28T09:04:45Z</time></trkpt><trkpt lat="42.62770594844076" lon="11.998829797450297"><ele>333.0</ele><time>2026-04-28T09:04:46Z</time></trkpt><trkpt lat="42.62750039830687" lon="11.998911569309053"><ele>331.0</ele><time>2026-04-28T09:04:47Z</time></trkpt><trkpt lat="42.62729565750066" lon="11.998988591150136"><ele>329.0</ele><time>2026-04-28T09:04:48Z</time></trkpt><trkpt lat="42.627094008782606" lon="11.999067581732017"><ele>327.0</ele><time>2026-04-28T09:04:49Z</time></trkpt><trkpt lat="42.62689553205943" lon="11.999141525192123"><ele>335.6666666666667</ele><time>2026-04-28T09:04:50Z</time></trkpt><trkpt lat="42.62670028816244" lon="11.999204536288124"><ele>344.33333333333337</ele><time>2026-04-28T09:04:51Z</time></trkpt><trkpt lat="42.626505231954425" lon="11.999247028077566"><ele>353.0</ele><time>2026-04-28T09:04:52Z</time></trkpt><trkpt lat="42.62631149356797" lon="11.999273093640834"><ele>349.6666666666667</ele><time>2026-04-28T09:04:53Z</time></trkpt><trkpt lat="42.62611867007518" lon="11.99928529230686"><ele>346.3333333333333</ele><time>2026-04-28T09:04:54Z</time></trkpt><trkpt lat="42.625925109075105" lon="11.99929274911066"><ele>343.0</ele><time>2026-04-28T09:04:55Z</time></trkpt><trkpt lat="42.62572778617095" lon="11.999302522352755"><ele>343.0</ele><time>2026-04-28T09:04:56Z</time></trkpt><trkpt lat="42.625526993431976" lon="11.999315941050249"><ele>343.0</ele><time>2026-04-28T09:04:57Z</time></trkpt><trkpt lat="42.62532324538184" lon="11.999326641284455"><ele>343.0</ele><time>2026-04-28T09:04:58Z</time></trkpt><trkpt lat="42.62511689138368" lon="11.999334290977593"><ele>339.0</ele><time>2026-04-28T09:04:59Z</time></trkpt><trkpt lat="42.62490881874085" lon="11.99934130224766"><ele>335.0</ele><time>2026-04-28T09:05:00Z</time></trkpt><trkpt lat="42.624700500949615" lon="11.999349059352603"><ele>331.0</ele><time>2026-04-28T09:05:01Z</time></trkpt><trkpt lat="42.624497130092784" lon="11.99935736920127"><ele>329.0</ele><time>2026-04-28T09:05:02Z</time></trkpt><trkpt lat="42.62430915931596" lon="11.999363853305537"><ele>327.0</ele><time>2026-04-28T09:05:03Z</time></trkpt><trkpt lat="42.624123230256224" lon="11.999368908148691"><ele>325.0</ele><time>2026-04-28T09:05:04Z</time></trkpt><trkpt lat="42.62393951182834" lon="11.999360734068652"><ele>325.0</ele><time>2026-04-28T09:05:05Z</time></trkpt><trkpt lat="42.62376262079718" lon="11.999333486114342"><ele>325.0</ele><time>2026-04-28T09:05:06Z</time></trkpt><trkpt lat="42.623592388313014" lon="11.999290384598543"><ele>325.0</ele><time>2026-04-28T09:05:07Z</time></trkpt><trkpt lat="42.623432410499596" lon="11.99922621395113"><ele>323.0</ele><time>2026-04-28T09:05:08Z</time></trkpt><trkpt lat="42.62328684327595" lon="11.99913298853057"><ele>321.0</ele><time>2026-04-28T09:05:09Z</time></trkpt><trkpt lat="42.623152486985965" lon="11.999015548605112"><ele>319.0</ele><time>2026-04-28T09:05:10Z</time></trkpt><trkpt lat="42.62302437928572" lon="11.998877369403235"><ele>319.0</ele><time>2026-04-28T09:05:11Z</time></trkpt><trkpt lat="42.622899359828764" lon="11.998721488883236"><ele>319.0</ele><time>2026-04-28T09:05:12Z</time></trkpt><trkpt lat="42.62278756949269" lon="11.998572073952873"><ele>319.0</ele><time>2026-04-28T09:05:13Z</time></trkpt><trkpt lat="42.622676228546354" lon="11.998436240345896"><ele>318.3333333333333</ele><time>2026-04-28T09:05:14Z</time></trkpt><trkpt lat="42.622551150047904" lon="11.998325209322399"><ele>317.6666666666667</ele><time>2026-04-28T09:05:15Z</time></trkpt><trkpt lat="42.62240710699725" lon="11.998249853448336"><ele>317.0</ele><time>2026-04-28T09:05:16Z</time></trkpt><trkpt lat="42.62224825244662" lon="11.998208354991686"><ele>317.0</ele><time>2026-04-28T09:05:17Z</time></trkpt><trkpt lat="42.62207892867797" lon="11.998184624284269"><ele>317.0</ele><time>2026-04-28T09:05:18Z</time></trkpt><trkpt lat="42.62190155771158" lon="11.998172628803474"><ele>317.0</ele><time>2026-04-28T09:05:19Z</time></trkpt><trkpt lat="42.62172194256469" lon="11.998156017862224"><ele>317.33333333333337</ele><time>2026-04-28T09:05:20Z</time></trkpt><trkpt lat="42.6215366643554" lon="11.99813734757394"><ele>317.6666666666667</ele><time>2026-04-28T09:05:21Z</time></trkpt><trkpt lat="42.62134162104736" lon="11.99811617570135"><ele>318.0</ele><time>2026-04-28T09:05:22Z</time></trkpt><trkpt lat="42.621136891807296" lon="11.998094523949645"><ele>318.3333333333333</ele><time>2026-04-28T09:05:23Z</time></trkpt><trkpt lat="42.62093512879081" lon="11.998074911863544"><ele>318.66666666666663</ele><time>2026-04-28T09:05:24Z</time></trkpt><trkpt lat="42.62072558007367" lon="11.998059033287726"><ele>319.0</ele><time>2026-04-28T09:05:25Z</time></trkpt><trkpt lat="42.62052920554555" lon="11.998045129710063"><ele>319.0</ele><time>2026-04-28T09:05:26Z</time></trkpt><trkpt lat="42.620347857621525" lon="11.998028648294497"><ele>319.0</ele><time>2026-04-28T09:05:27Z</time></trkpt><trkpt lat="42.62017259437764" lon="11.997998783637504"><ele>319.0</ele><time>2026-04-28T09:05:28Z</time></trkpt><trkpt lat="42.62000635264775" lon="11.99793818218355"><ele>320.3333333333333</ele><time>2026-04-28T09:05:29Z</time></trkpt><trkpt lat="42.619841463325756" lon="11.997849761912347"><ele>321.6666666666667</ele><time>2026-04-28T09:05:30Z</time></trkpt><trkpt lat="42.6196834947548" lon="11.997729941807021"><ele>323.0</ele><time>2026-04-28T09:05:31Z</time></trkpt><trkpt lat="42.61952725197976" lon="11.997588482519335"><ele>320.6666666666667</ele><time>2026-04-28T09:05:32Z</time></trkpt><trkpt lat="42.619359719043736" lon="11.997444884435303"><ele>318.3333333333333</ele><time>2026-04-28T09:05:33Z</time></trkpt><trkpt lat="42.61918646292358" lon="11.997321473940225"><ele>316.0</ele><time>2026-04-28T09:05:34Z</time></trkpt><trkpt lat="42.61901173107957" lon="11.99722169082629"><ele>316.0</ele><time>2026-04-28T09:05:35Z</time></trkpt><trkpt lat="42.61882514732311" lon="11.997147867748886"><ele>316.0</ele><time>2026-04-28T09:05:36Z</time></trkpt><trkpt lat="42.618642931869275" lon="11.997102849492132"><ele>316.0</ele><time>2026-04-28T09:05:37Z</time></trkpt><trkpt lat="42.6184631701388" lon="11.997067845882569"><ele>316.0</ele><time>2026-04-28T09:05:38Z</time></trkpt><trkpt lat="42.618274208389565" lon="11.997016157826124"><ele>316.0</ele><time>2026-04-28T09:05:39Z</time></trkpt><trkpt lat="42.6180817987501" lon="11.996950666669335"><ele>316.0</ele><time>2026-04-28T09:05:40Z</time></trkpt><trkpt lat="42.617883848184526" lon="11.996893170110846"><ele>316.3333333333333</ele><time>2026-04-28T09:05:41Z</time></trkpt><trkpt lat="42.61768301676126" lon="11.996837191216752"><ele>316.6666666666667</ele><time>2026-04-28T09:05:42Z</time></trkpt><trkpt lat="42.61748406695615" lon="11.996778848892983"><ele>317.0</ele><time>2026-04-28T09:05:43Z</time></trkpt><trkpt lat="42.617286132867946" lon="11.996723146352391"><ele>317.0</ele><time>2026-04-28T09:05:44Z</time></trkpt><trkpt lat="42.61709068863666" lon="11.996674038774877"><ele>317.0</ele><time>2026-04-28T09:05:45Z</time></trkpt><trkpt lat="42.61689687063327" lon="11.996617702205333"><ele>317.0</ele><time>2026-04-28T09:05:46Z</time></trkpt><trkpt lat="42.61670680852299" lon="11.996537658422515"><ele>315.6666666666667</ele><time>2026-04-28T09:05:47Z</time></trkpt><trkpt lat="42.61652733166045" lon="11.996431452719422"><ele>314.3333333333333</ele><time>2026-04-28T09:05:48Z</time></trkpt><trkpt lat="42.61635695625693" lon="11.996312117508243"><ele>313.0</ele><time>2026-04-28T09:05:49Z</time></trkpt><trkpt lat="42.616183707434125" lon="11.99618400355518"><ele>315.66666666666663</ele><time>2026-04-28T09:05:50Z</time></trkpt><trkpt lat="42.616023061736776" lon="11.996055736586202"><ele>318.3333333333333</ele><time>2026-04-28T09:05:51Z</time></trkpt><trkpt lat="42.615887970633075" lon="11.995932864049397"><ele>321.0</ele><time>2026-04-28T09:05:52Z</time></trkpt><trkpt lat="42.61576813163596" lon="11.995840568411666"><ele>321.0</ele><time>2026-04-28T09:05:53Z</time></trkpt><trkpt lat="42.61564747288244" lon="11.99580721278876"><ele>321.0</ele><time>2026-04-28T09:05:54Z</time></trkpt><trkpt lat="42.615524587260175" lon="11.995822013725833"><ele>321.0</ele><time>2026-04-28T09:05:55Z</time></trkpt><trkpt lat="42.61540729348346" lon="11.995887400910547"><ele>321.0</ele><time>2026-04-28T09:05:56Z</time></trkpt><trkpt lat="42.61529894980407" lon="11.995995839237395"><ele>319.5</ele><time>2026-04-28T09:05:57Z</time></trkpt><trkpt lat="42.61519795555013" lon="11.996126008327195"><ele>318.0</ele><time>2026-04-28T09:05:58Z</time></trkpt><trkpt lat="42.6150935036993" lon="11.996271790427175"><ele>316.5</ele><time>2026-04-28T09:05:59Z</time></trkpt><trkpt lat="42.614974259126555" lon="11.9964126280119"><ele>315.0</ele><time>2026-04-28T09:06:00Z</time></trkpt><trkpt lat="42.61484155120851" lon="11.996541156541989"><ele>315.0</ele><time>2026-04-28T09:06:01Z</time></trkpt><trkpt lat="42.6146942814965" lon="11.996665767600245"><ele>315.0</ele><time>2026-04-28T09:06:02Z</time></trkpt><trkpt lat="42.61453025493772" lon="11.996782094473849"><ele>315.0</ele><time>2026-04-28T09:06:03Z</time></trkpt><trkpt lat="42.61435434357262" lon="11.99689911337302"><ele>317.6666666666667</ele><time>2026-04-28T09:06:04Z</time></trkpt><trkpt lat="42.61417719306456" lon="11.997014666380393"><ele>320.33333333333337</ele><time>2026-04-28T09:06:05Z</time></trkpt><trkpt lat="42.61400151695572" lon="11.997124218811573"><ele>323.0</ele><time>2026-04-28T09:06:06Z</time></trkpt><trkpt lat="42.61381898062353" lon="11.99722449963024"><ele>320.0</ele><time>2026-04-28T09:06:07Z</time></trkpt><trkpt lat="42.61363269905913" lon="11.997312963071165"><ele>317.0</ele><time>2026-04-28T09:06:08Z</time></trkpt><trkpt lat="42.613442490040754" lon="11.997384915663394"><ele>314.0</ele><time>2026-04-28T09:06:09Z</time></trkpt><trkpt lat="42.61325613242873" lon="11.99744292041271"><ele>314.0</ele><time>2026-04-28T09:06:10Z</time></trkpt><trkpt lat="42.613083450951805" lon="11.997490190031773"><ele>314.0</ele><time>2026-04-28T09:06:11Z</time></trkpt><trkpt lat="42.61291772587026" lon="11.997522599257547"><ele>314.0</ele><time>2026-04-28T09:06:12Z</time></trkpt><trkpt lat="42.612749641052204" lon="11.99753213700231"><ele>314.0</ele><time>2026-04-28T09:06:13Z</time></trkpt><trkpt lat="42.612577179406784" lon="11.99751929655391"><ele>314.0</ele><time>2026-04-28T09:06:14Z</time></trkpt><trkpt lat="42.61240265264555" lon="11.997484082053042"><ele>314.0</ele><time>2026-04-28T09:06:15Z</time></trkpt><trkpt lat="42.61222810324465" lon="11.997426758196069"><ele>314.0</ele><time>2026-04-28T09:06:16Z</time></trkpt><trkpt lat="42.61205275621579" lon="11.997346499165221"><ele>314.0</ele><time>2026-04-28T09:06:17Z</time></trkpt><trkpt lat="42.6118766475482" lon="11.997255501576547"><ele>314.0</ele><time>2026-04-28T09:06:18Z</time></trkpt><trkpt lat="42.61169768819271" lon="11.99715921068353"><ele>317.0</ele><time>2026-04-28T09:06:19Z</time></trkpt><trkpt lat="42.611514997864504" lon="11.99706179356973"><ele>320.0</ele><time>2026-04-28T09:06:20Z</time></trkpt><trkpt lat="42.61132884001454" lon="11.996967463009035"><ele>323.0</ele><time>2026-04-28T09:06:21Z</time></trkpt><trkpt lat="42.61114492871125" lon="11.996874450863404"><ele>325.6666666666667</ele><time>2026-04-28T09:06:22Z</time></trkpt><trkpt lat="42.610971149636846" lon="11.996792861552374"><ele>328.3333333333333</ele><time>2026-04-28T09:06:23Z</time></trkpt><trkpt lat="42.610798442627825" lon="11.99673607877402"><ele>331.0</ele><time>2026-04-28T09:06:24Z</time></trkpt><trkpt lat="42.61062959299897" lon="11.996726587699762"><ele>331.0</ele><time>2026-04-28T09:06:25Z</time></trkpt><trkpt lat="42.610452851060415" lon="11.996737151005037"><ele>331.0</ele><time>2026-04-28T09:06:26Z</time></trkpt><trkpt lat="42.61027020197888" lon="11.996752045950824"><ele>331.0</ele><time>2026-04-28T09:06:27Z</time></trkpt><trkpt lat="42.610083230491576" lon="11.99675853822277"><ele>332.0</ele><time>2026-04-28T09:06:28Z</time></trkpt><trkpt lat="42.609892079948956" lon="11.996765793061087"><ele>333.0</ele><time>2026-04-28T09:06:29Z</time></trkpt><trkpt lat="42.609696739237336" lon="11.996776951621285"><ele>334.0</ele><time>2026-04-28T09:06:30Z</time></trkpt><trkpt lat="42.60949806336469" lon="11.996784887298153"><ele>329.66666666666663</ele><time>2026-04-28T09:06:31Z</time></trkpt><trkpt lat="42.6092967637553" lon="11.99678229792888"><ele>325.3333333333333</ele><time>2026-04-28T09:06:32Z</time></trkpt><trkpt lat="42.609094881354295" lon="11.996767465905052"><ele>321.0</ele><time>2026-04-28T09:06:33Z</time></trkpt><trkpt lat="42.60889148818286" lon="11.996743054553887"><ele>321.0</ele><time>2026-04-28T09:06:34Z</time></trkpt><trkpt lat="42.60868621030713" lon="11.996720996663678"><ele>321.0</ele><time>2026-04-28T09:06:35Z</time></trkpt><trkpt lat="42.60847840206952" lon="11.996697533744156"><ele>321.0</ele><time>2026-04-28T09:06:36Z</time></trkpt><trkpt lat="42.60827120917268" lon="11.996673296187645"><ele>318.0</ele><time>2026-04-28T09:06:37Z</time></trkpt><trkpt lat="42.60807283752201" lon="11.996652522069812"><ele>315.0</ele><time>2026-04-28T09:06:38Z</time></trkpt><trkpt lat="42.60787566686755" lon="11.996631780598669"><ele>312.0</ele><time>2026-04-28T09:06:39Z</time></trkpt><trkpt lat="42.60768051900909" lon="11.996614797772162"><ele>312.0</ele><time>2026-04-28T09:06:40Z</time></trkpt><trkpt lat="42.60748571802419" lon="11.996598684945877"><ele>312.0</ele><time>2026-04-28T09:06:41Z</time></trkpt><trkpt lat="42.607292303291736" lon="11.996584174338087"><ele>312.0</ele><time>2026-04-28T09:06:42Z</time></trkpt><trkpt lat="42.60709887260351" lon="11.996570398218429"><ele>312.0</ele><time>2026-04-28T09:06:43Z</time></trkpt><trkpt lat="42.60690576361134" lon="11.996555548571578"><ele>312.0</ele><time>2026-04-28T09:06:44Z</time></trkpt><trkpt lat="42.606714744040985" lon="11.996537519068442"><ele>312.0</ele><time>2026-04-28T09:06:45Z</time></trkpt><trkpt lat="42.6065238604107" lon="11.996522088605664"><ele>312.0</ele><time>2026-04-28T09:06:46Z</time></trkpt><trkpt lat="42.60633470393389" lon="11.996507567473541"><ele>312.0</ele><time>2026-04-28T09:06:47Z</time></trkpt><trkpt lat="42.606154835924585" lon="11.996488929546823"><ele>312.0</ele><time>2026-04-28T09:06:48Z</time></trkpt><trkpt lat="42.6059831367018" lon="11.996470590467874"><ele>312.3333333333333</ele><time>2026-04-28T09:06:49Z</time></trkpt><trkpt lat="42.605818721597984" lon="11.996454501443006"><ele>312.66666666666663</ele><time>2026-04-28T09:06:50Z</time></trkpt><trkpt lat="42.60566057236309" lon="11.996441010825214"><ele>313.0</ele><time>2026-04-28T09:06:51Z</time></trkpt><trkpt lat="42.605500640859916" lon="11.996426167992004"><ele>313.0</ele><time>2026-04-28T09:06:52Z</time></trkpt><trkpt lat="42.605340314354095" lon="11.996408467433616"><ele>313.0</ele><time>2026-04-28T09:06:53Z</time></trkpt><trkpt lat="42.60518088107211" lon="11.996393052964285"><ele>313.0</ele><time>2026-04-28T09:06:54Z</time></trkpt><trkpt lat="42.60502460268839" lon="11.996380123622405"><ele>313.25</ele><time>2026-04-28T09:06:55Z</time></trkpt><trkpt lat="42.60487798821797" lon="11.996375965000045"><ele>313.5</ele><time>2026-04-28T09:06:56Z</time></trkpt><trkpt lat="42.60474190837828" lon="11.99639059800483"><ele>313.75</ele><time>2026-04-28T09:06:57Z</time></trkpt><trkpt lat="42.60460952676455" lon="11.996430424549473"><ele>314.0</ele><time>2026-04-28T09:06:58Z</time></trkpt><trkpt lat="42.60448313750485" lon="11.996502440956293"><ele>314.0</ele><time>2026-04-28T09:06:59Z</time></trkpt><trkpt lat="42.60436481830347" lon="11.996597367915596"><ele>314.0</ele><time>2026-04-28T09:07:00Z</time></trkpt><trkpt lat="42.60424624720877" lon="11.996703493541807"><ele>314.0</ele><time>2026-04-28T09:07:01Z</time></trkpt><trkpt lat="42.60412697373702" lon="11.996816892329528"><ele>314.0</ele><time>2026-04-28T09:07:02Z</time></trkpt><trkpt lat="42.60400500174636" lon="11.996927701204145"><ele>315.33333333333337</ele><time>2026-04-28T09:07:03Z</time></trkpt><trkpt lat="42.603879492537565" lon="11.997041690514362"><ele>316.6666666666667</ele><time>2026-04-28T09:07:04Z</time></trkpt><trkpt lat="42.6037505428185" lon="11.997162165168643"><ele>318.0</ele><time>2026-04-28T09:07:05Z</time></trkpt><trkpt lat="42.60362044165883" lon="11.997279583340319"><ele>318.6666666666667</ele><time>2026-04-28T09:07:06Z</time></trkpt><trkpt lat="42.6034852291299" lon="11.99739895309174"><ele>319.33333333333337</ele><time>2026-04-28T09:07:07Z</time></trkpt><trkpt lat="42.60335059669107" lon="11.997519891468139"><ele>320.0</ele><time>2026-04-28T09:07:08Z</time></trkpt><trkpt lat="42.60321637110824" lon="11.997640308954432"><ele>322.0</ele><time>2026-04-28T09:07:09Z</time></trkpt><trkpt lat="42.603091011244715" lon="11.99774975540931"><ele>324.0</ele><time>2026-04-28T09:07:10Z</time></trkpt><trkpt lat="42.602967302875285" lon="11.997853793310286"><ele>326.0</ele><time>2026-04-28T09:07:11Z</time></trkpt><trkpt lat="42.60284197248429" lon="11.99793792211987"><ele>328.0</ele><time>2026-04-28T09:07:12Z</time></trkpt><trkpt lat="42.60270573009964" lon="11.99799558093525"><ele>328.0</ele><time>2026-04-28T09:07:13Z</time></trkpt><trkpt lat="42.602561998069966" lon="11.998036353369697"><ele>328.0</ele><time>2026-04-28T09:07:14Z</time></trkpt><trkpt lat="42.602405735489945" lon="11.998065777230359"><ele>328.0</ele><time>2026-04-28T09:07:15Z</time></trkpt><trkpt lat="42.6022397481074" lon="11.998096896878879"><ele>328.0</ele><time>2026-04-28T09:07:16Z</time></trkpt><trkpt lat="42.60206841492688" lon="11.998130850810323"><ele>328.0</ele><time>2026-04-28T09:07:17Z</time></trkpt><trkpt lat="42.60189309027338" lon="11.998163877182233"><ele>328.0</ele><time>2026-04-28T09:07:18Z</time></trkpt><trkpt lat="42.601712902547284" lon="11.998200474120447"><ele>328.3333333333333</ele><time>2026-04-28T09:07:19Z</time></trkpt><trkpt lat="42.60152710330654" lon="11.998238083054845"><ele>328.6666666666667</ele><time>2026-04-28T09:07:20Z</time></trkpt><trkpt lat="42.60133250443137" lon="11.998273560717823"><ele>329.0</ele><time>2026-04-28T09:07:21Z</time></trkpt><trkpt lat="42.601139343130704" lon="11.998308169307979"><ele>332.6666666666667</ele><time>2026-04-28T09:07:22Z</time></trkpt><trkpt lat="42.60094126824496" lon="11.998341235783544"><ele>336.3333333333333</ele><time>2026-04-28T09:07:23Z</time></trkpt><trkpt lat="42.600743147376214" lon="11.998376943915979"><ele>340.0</ele><time>2026-04-28T09:07:24Z</time></trkpt><trkpt lat="42.600543001719615" lon="11.99841721284932"><ele>340.0</ele><time>2026-04-28T09:07:25Z</time></trkpt><trkpt lat="42.60034766950736" lon="11.99845142960882"><ele>340.0</ele><time>2026-04-28T09:07:26Z</time></trkpt><trkpt lat="42.600160585583474" lon="11.998486524052488"><ele>340.0</ele><time>2026-04-28T09:07:27Z</time></trkpt><trkpt lat="42.59998458247282" lon="11.998521741918525"><ele>339.3333333333333</ele><time>2026-04-28T09:07:28Z</time></trkpt><trkpt lat="42.59981164650315" lon="11.998569627245484"><ele>338.6666666666667</ele><time>2026-04-28T09:07:29Z</time></trkpt><trkpt lat="42.59964421439809" lon="11.998644711426854"><ele>338.0</ele><time>2026-04-28T09:07:30Z</time></trkpt><trkpt lat="42.599474594259306" lon="11.998745352442768"><ele>337.6666666666667</ele><time>2026-04-28T09:07:31Z</time></trkpt><trkpt lat="42.599306708045205" lon="11.998856285610259"><ele>337.3333333333333</ele><time>2026-04-28T09:07:32Z</time></trkpt><trkpt lat="42.59913790361361" lon="11.998966636935728"><ele>337.0</ele><time>2026-04-28T09:07:33Z</time></trkpt><trkpt lat="42.59896652924934" lon="11.999075957072781"><ele>340.66666666666663</ele><time>2026-04-28T09:07:34Z</time></trkpt><trkpt lat="42.59880055718232" lon="11.999184229892656"><ele>344.3333333333333</ele><time>2026-04-28T09:07:35Z</time></trkpt><trkpt lat="42.598646374489974" lon="11.999284646177449"><ele>348.0</ele><time>2026-04-28T09:07:36Z</time></trkpt><trkpt lat="42.59850103263864" lon="11.99937587356379"><ele>348.0</ele><time>2026-04-28T09:07:37Z</time></trkpt><trkpt lat="42.59835598584985" lon="11.999438099634148"><ele>348.0</ele><time>2026-04-28T09:07:38Z</time></trkpt><trkpt lat="42.59820681453324" lon="11.999478077619417"><ele>348.0</ele><time>2026-04-28T09:07:39Z</time></trkpt><trkpt lat="42.598036984323066" lon="11.99949884742175"><ele>348.0</ele><time>2026-04-28T09:07:40Z</time></trkpt><trkpt lat="42.597862761758215" lon="11.999511094285255"><ele>348.0</ele><time>2026-04-28T09:07:41Z</time></trkpt><trkpt lat="42.59768607001169" lon="11.999505539529059"><ele>348.0</ele><time>2026-04-28T09:07:42Z</time></trkpt><trkpt lat="42.59750435556352" lon="11.999483148132388"><ele>348.3333333333333</ele><time>2026-04-28T09:07:43Z</time></trkpt><trkpt lat="42.59731613916191" lon="11.999453028330455"><ele>348.66666666666663</ele><time>2026-04-28T09:07:44Z</time></trkpt><trkpt lat="42.59712603026813" lon="11.999432369003202"><ele>349.0</ele><time>2026-04-28T09:07:45Z</time></trkpt><trkpt lat="42.596961035667995" lon="11.99941437970768"><ele>349.5</ele><time>2026-04-28T09:07:46Z</time></trkpt><trkpt lat="42.59681453174442" lon="11.99941038226727"><ele>350.0</ele><time>2026-04-28T09:07:47Z</time></trkpt><trkpt lat="42.59666757497184" lon="11.9994373811784"><ele>350.5</ele><time>2026-04-28T09:07:48Z</time></trkpt><trkpt lat="42.59651866470009" lon="11.999481583606405"><ele>351.0</ele><time>2026-04-28T09:07:49Z</time></trkpt><trkpt lat="42.596369375790516" lon="11.999536092234138"><ele>351.0</ele><time>2026-04-28T09:07:50Z</time></trkpt><trkpt lat="42.596223232153726" lon="11.999606803749568"><ele>351.0</ele><time>2026-04-28T09:07:51Z</time></trkpt><trkpt lat="42.59607842296671" lon="11.99969620734495"><ele>351.0</ele><time>2026-04-28T09:07:52Z</time></trkpt><trkpt lat="42.59593090571237" lon="11.999799556283916"><ele>351.0</ele><time>2026-04-28T09:07:53Z</time></trkpt><trkpt lat="42.595775314553904" lon="11.999903929196341"><ele>351.0</ele><time>2026-04-28T09:07:54Z</time></trkpt><trkpt lat="42.59561707814887" lon="12.000007073654722"><ele>351.0</ele><time>2026-04-28T09:07:55Z</time></trkpt><trkpt lat="42.59546011906123" lon="12.000113732630654"><ele>351.3333333333333</ele><time>2026-04-28T09:07:56Z</time></trkpt><trkpt lat="42.59530550355004" lon="12.00022102617447"><ele>351.66666666666663</ele><time>2026-04-28T09:07:57Z</time></trkpt><trkpt lat="42.595147626360045" lon="12.000311595468014"><ele>352.0</ele><time>2026-04-28T09:07:58Z</time></trkpt><trkpt lat="42.594981960772124" lon="12.000379690884023"><ele>352.0</ele><time>2026-04-28T09:07:59Z</time></trkpt><trkpt lat="42.59480491227147" lon="12.00042935128064"><ele>352.0</ele><time>2026-04-28T09:08:00Z</time></trkpt><trkpt lat="42.594619470601174" lon="12.00045353496074"><ele>352.0</ele><time>2026-04-28T09:08:01Z</time></trkpt><trkpt lat="42.59442643225583" lon="12.000476206546486"><ele>352.66666666666663</ele><time>2026-04-28T09:08:02Z</time></trkpt><trkpt lat="42.594228006047786" lon="12.00049861784257"><ele>353.3333333333333</ele><time>2026-04-28T09:08:03Z</time></trkpt><trkpt lat="42.594025610460754" lon="12.000512580016526"><ele>354.0</ele><time>2026-04-28T09:08:04Z</time></trkpt><trkpt lat="42.5938214901558" lon="12.000525357047195"><ele>354.6666666666667</ele><time>2026-04-28T09:08:05Z</time></trkpt><trkpt lat="42.59362212511903" lon="12.000539266958969"><ele>355.33333333333337</ele><time>2026-04-28T09:08:06Z</time></trkpt><trkpt lat="42.59343949550664" lon="12.00055680517449"><ele>356.0</ele><time>2026-04-28T09:08:07Z</time></trkpt><trkpt lat="42.59326492361016" lon="12.000577121995752"><ele>356.0</ele><time>2026-04-28T09:08:08Z</time></trkpt><trkpt lat="42.593092826055624" lon="12.000600762292715"><ele>356.0</ele><time>2026-04-28T09:08:09Z</time></trkpt><trkpt lat="42.5929214747364" lon="12.000630640417377"><ele>356.0</ele><time>2026-04-28T09:08:10Z</time></trkpt><trkpt lat="42.59274879494313" lon="12.000664881284957"><ele>357.0</ele><time>2026-04-28T09:08:11Z</time></trkpt><trkpt lat="42.59257789600696" lon="12.0006987778706"><ele>358.0</ele><time>2026-04-28T09:08:12Z</time></trkpt><trkpt lat="42.59241032813834" lon="12.000735027436788"><ele>359.0</ele><time>2026-04-28T09:08:13Z</time></trkpt><trkpt lat="42.592243391855476" lon="12.000768206440561"><ele>359.0</ele><time>2026-04-28T09:08:14Z</time></trkpt><trkpt lat="42.592075471630146" lon="12.000792671584716"><ele>359.0</ele><time>2026-04-28T09:08:15Z</time></trkpt><trkpt lat="42.591912622413105" lon="12.000795516860617"><ele>359.0</ele><time>2026-04-28T09:08:16Z</time></trkpt><trkpt lat="42.591746356877486" lon="12.000780313858167"><ele>361.6666666666667</ele><time>2026-04-28T09:08:17Z</time></trkpt><trkpt lat="42.591576900700915" lon="12.000759233793232"><ele>364.3333333333333</ele><time>2026-04-28T09:08:18Z</time></trkpt><trkpt lat="42.59140748700566" lon="12.000731592734788"><ele>367.0</ele><time>2026-04-28T09:08:19Z</time></trkpt><trkpt lat="42.59123360931138" lon="12.000698584523894"><ele>369.0</ele><time>2026-04-28T09:08:20Z</time></trkpt><trkpt lat="42.59105898553504" lon="12.000665302800135"><ele>371.0</ele><time>2026-04-28T09:08:21Z</time></trkpt><trkpt lat="42.59089383931912" lon="12.0006349241335"><ele>373.0</ele><time>2026-04-28T09:08:22Z</time></trkpt><trkpt lat="42.590738990980576" lon="12.000610790014152"><ele>373.0</ele><time>2026-04-28T09:08:23Z</time></trkpt><trkpt lat="42.59058476654738" lon="12.000598596922263"><ele>373.0</ele><time>2026-04-28T09:08:24Z</time></trkpt><trkpt lat="42.5904408638886" lon="12.000614752047179"><ele>373.0</ele><time>2026-04-28T09:08:25Z</time></trkpt><trkpt lat="42.59029980417923" lon="12.000653441960685"><ele>373.0</ele><time>2026-04-28T09:08:26Z</time></trkpt><trkpt lat="42.59016194338421" lon="12.000704028800564"><ele>373.0</ele><time>2026-04-28T09:08:27Z</time></trkpt><trkpt lat="42.59002900977019" lon="12.00076933525733"><ele>373.0</ele><time>2026-04-28T09:08:28Z</time></trkpt><trkpt lat="42.58990197779384" lon="12.000848007990797"><ele>373.0</ele><time>2026-04-28T09:08:29Z</time></trkpt><trkpt lat="42.58978220446443" lon="12.000939178574006"><ele>373.0</ele><time>2026-04-28T09:08:30Z</time></trkpt><trkpt lat="42.589667579893714" lon="12.001032521783983"><ele>374.25</ele><time>2026-04-28T09:08:31Z</time></trkpt><trkpt lat="42.589554044677996" lon="12.001114288890856"><ele>375.5</ele><time>2026-04-28T09:08:32Z</time></trkpt><trkpt lat="42.589438453035605" lon="12.001189339741254"><ele>376.75</ele><time>2026-04-28T09:08:33Z</time></trkpt><trkpt lat="42.58932132118065" lon="12.00125631279462"><ele>378.0</ele><time>2026-04-28T09:08:34Z</time></trkpt><trkpt lat="42.58920325645485" lon="12.001310411085946"><ele>378.0</ele><time>2026-04-28T09:08:35Z</time></trkpt><trkpt lat="42.58908457038739" lon="12.001353972410426"><ele>378.0</ele><time>2026-04-28T09:08:36Z</time></trkpt><trkpt lat="42.588968365829395" lon="12.001399027173674"><ele>378.0</ele><time>2026-04-28T09:08:37Z</time></trkpt><trkpt lat="42.58885177774026" lon="12.001440580392236"><ele>378.0</ele><time>2026-04-28T09:08:38Z</time></trkpt><trkpt lat="42.58873701908538" lon="12.00147920770553"><ele>378.0</ele><time>2026-04-28T09:08:39Z</time></trkpt><trkpt lat="42.58862404692767" lon="12.001518324212137"><ele>378.0</ele><time>2026-04-28T09:08:40.001Z</time></trkpt><trkpt lat="42.588511185205306" lon="12.001558156007507"><ele>378.0</ele><time>2026-04-28T09:08:41Z</time></trkpt><trkpt lat="42.58840024757763" lon="12.001597302010797"><ele>378.0</ele><time>2026-04-28T09:08:42Z</time></trkpt><trkpt lat="42.58828793473662" lon="12.001640601546498"><ele>380.0</ele><time>2026-04-28T09:08:43Z</time></trkpt><trkpt lat="42.588175217467644" lon="12.001682724996549"><ele>382.0</ele><time>2026-04-28T09:08:44Z</time></trkpt><trkpt lat="42.588060695589085" lon="12.0017250535816"><ele>384.0</ele><time>2026-04-28T09:08:45Z</time></trkpt><trkpt lat="42.587941801910866" lon="12.00176341026905"><ele>386.0</ele><time>2026-04-28T09:08:46Z</time></trkpt><trkpt lat="42.58781915800547" lon="12.001792503646987"><ele>386.0</ele><time>2026-04-28T09:08:47Z</time></trkpt><trkpt lat="42.58769231161458" lon="12.001810885652587"><ele>386.0</ele><time>2026-04-28T09:08:48Z</time></trkpt><trkpt lat="42.58756311913478" lon="12.001815396275402"><ele>386.0</ele><time>2026-04-28T09:08:49Z</time></trkpt><trkpt lat="42.587433690005845" lon="12.00180934663448"><ele>386.0</ele><time>2026-04-28T09:08:50Z</time></trkpt><trkpt lat="42.5873089632076" lon="12.00180082087758"><ele>386.0</ele><time>2026-04-28T09:08:51Z</time></trkpt><trkpt lat="42.58720074320704" lon="12.001794996758306"><ele>386.0</ele><time>2026-04-28T09:08:52Z</time></trkpt><trkpt lat="42.58711566032675" lon="12.001788812368673"><ele>386.0</ele><time>2026-04-28T09:08:53Z</time></trkpt><trkpt lat="42.58700921659074" lon="12.001774053753168"><ele>386.0</ele><time>2026-04-28T09:08:55Z</time></trkpt><trkpt lat="42.58692104235068" lon="12.001747514967361"><ele>386.0</ele><time>2026-04-28T09:09:27Z</time></trkpt><trkpt lat="42.58682585248724" lon="12.00175727943391"><ele>386.6</ele><time>2026-04-28T09:09:29Z</time></trkpt><trkpt lat="42.58674689897231" lon="12.001772988007762"><ele>387.20000000000005</ele><time>2026-04-28T09:09:30Z</time></trkpt><trkpt lat="42.58665508538528" lon="12.00179678992756"><ele>387.79999999999995</ele><time>2026-04-28T09:09:31Z</time></trkpt><trkpt lat="42.58656823246645" lon="12.001826567196956"><ele>388.4</ele><time>2026-04-28T09:09:32Z</time></trkpt><trkpt lat="42.5864975762292" lon="12.001859911010651"><ele>389.0</ele><time>2026-04-28T09:09:34Z</time></trkpt><trkpt lat="42.5863636991161" lon="12.001917615161949"><ele>389.0</ele><time>2026-04-28T09:09:39Z</time></trkpt><trkpt lat="42.58628374937137" lon="12.001928664729526"><ele>389.0</ele><time>2026-04-28T09:09:40Z</time></trkpt><trkpt lat="42.5861920238221" lon="12.001950496695372"><ele>389.0</ele><time>2026-04-28T09:09:41Z</time></trkpt><trkpt lat="42.58609186482901" lon="12.001979200831414"><ele>389.0</ele><time>2026-04-28T09:09:42Z</time></trkpt><trkpt lat="42.58599609211197" lon="12.002012288947482"><ele>389.0</ele><time>2026-04-28T09:09:43Z</time></trkpt><trkpt lat="42.58589359932266" lon="12.002049720634734"><ele>388.25</ele><time>2026-04-28T09:09:44Z</time></trkpt><trkpt lat="42.58578660192843" lon="12.002085663152643"><ele>387.5</ele><time>2026-04-28T09:09:45Z</time></trkpt><trkpt lat="42.585674793318574" lon="12.002123422211346"><ele>386.75</ele><time>2026-04-28T09:09:46Z</time></trkpt><trkpt lat="42.58555881792924" lon="12.002161760201943"><ele>386.0</ele><time>2026-04-28T09:09:47Z</time></trkpt><trkpt lat="42.5854399495973" lon="12.00220758241332"><ele>385.0</ele><time>2026-04-28T09:09:48Z</time></trkpt><trkpt lat="42.585327710239994" lon="12.002265086957912"><ele>384.0</ele><time>2026-04-28T09:09:49Z</time></trkpt><trkpt lat="42.58522412473502" lon="12.002346483606203"><ele>383.0</ele><time>2026-04-28T09:09:50Z</time></trkpt><trkpt lat="42.58514326808418" lon="12.002468620067527"><ele>382.0</ele><time>2026-04-28T09:09:51Z</time></trkpt><trkpt lat="42.5850920327215" lon="12.0026048388984"><ele>384.0</ele><time>2026-04-28T09:09:52Z</time></trkpt><trkpt lat="42.58507454539161" lon="12.002756886505303"><ele>386.0</ele><time>2026-04-28T09:09:53Z</time></trkpt><trkpt lat="42.585095459924034" lon="12.002910713935826"><ele>388.0</ele><time>2026-04-28T09:09:54Z</time></trkpt><trkpt lat="42.58514968114328" lon="12.003052790264944"><ele>390.0</ele><time>2026-04-28T09:09:55Z</time></trkpt><trkpt lat="42.585224813646505" lon="12.003187221521106"><ele>390.25</ele><time>2026-04-28T09:09:56Z</time></trkpt><trkpt lat="42.58530266638228" lon="12.003338551917672"><ele>390.5</ele><time>2026-04-28T09:09:57Z</time></trkpt><trkpt lat="42.585396805511515" lon="12.003487883432763"><ele>390.75</ele><time>2026-04-28T09:09:58Z</time></trkpt><trkpt lat="42.58548795408873" lon="12.00363278019502"><ele>391.0</ele><time>2026-04-28T09:09:59Z</time></trkpt><trkpt lat="42.58556668448634" lon="12.003770104642575"><ele>393.5</ele><time>2026-04-28T09:10:00Z</time></trkpt><trkpt lat="42.585639855306034" lon="12.00390538807779"><ele>396.0</ele><time>2026-04-28T09:10:01Z</time></trkpt><trkpt lat="42.58566746265432" lon="12.004065010072974"><ele>398.5</ele><time>2026-04-28T09:10:02Z</time></trkpt><trkpt lat="42.58566944294537" lon="12.00423875285363"><ele>401.0</ele><time>2026-04-28T09:10:03Z</time></trkpt><trkpt lat="42.585639798490504" lon="12.004410004502748"><ele>401.0</ele><time>2026-04-28T09:10:04Z</time></trkpt><trkpt lat="42.58557468314803" lon="12.004545420568334"><ele>401.0</ele><time>2026-04-28T09:10:05Z</time></trkpt><trkpt lat="42.58547533747573" lon="12.004660376429607"><ele>401.0</ele><time>2026-04-28T09:10:06Z</time></trkpt><trkpt lat="42.58535745439394" lon="12.004763947226673"><ele>401.0</ele><time>2026-04-28T09:10:07Z</time></trkpt><trkpt lat="42.58522773336985" lon="12.004863747770203"><ele>400.3333333333333</ele><time>2026-04-28T09:10:08Z</time></trkpt><trkpt lat="42.585082007473844" lon="12.004975375530556"><ele>399.66666666666663</ele><time>2026-04-28T09:10:09Z</time></trkpt><trkpt lat="42.584927098618884" lon="12.005093818569328"><ele>399.0</ele><time>2026-04-28T09:10:10Z</time></trkpt><trkpt lat="42.584763488256606" lon="12.005216770212654"><ele>399.0</ele><time>2026-04-28T09:10:11Z</time></trkpt><trkpt lat="42.584600509368194" lon="12.005337943193577"><ele>399.0</ele><time>2026-04-28T09:10:12Z</time></trkpt><trkpt lat="42.58444090850104" lon="12.00544895595215"><ele>399.0</ele><time>2026-04-28T09:10:13Z</time></trkpt><trkpt lat="42.5842860417059" lon="12.005562421539828"><ele>399.66666666666663</ele><time>2026-04-28T09:10:14Z</time></trkpt><trkpt lat="42.58413269601007" lon="12.005678379547824"><ele>400.3333333333333</ele><time>2026-04-28T09:10:15Z</time></trkpt><trkpt lat="42.5839907363946" lon="12.005786029707428"><ele>401.0</ele><time>2026-04-28T09:10:16Z</time></trkpt><trkpt lat="42.583866372201044" lon="12.005895451020232"><ele>401.0</ele><time>2026-04-28T09:10:17Z</time></trkpt><trkpt lat="42.583747293356005" lon="12.00602813675965"><ele>401.0</ele><time>2026-04-28T09:10:18Z</time></trkpt><trkpt lat="42.583646843239165" lon="12.006192685436277"><ele>401.0</ele><time>2026-04-28T09:10:19Z</time></trkpt><trkpt lat="42.58355863905457" lon="12.006382984505567"><ele>401.0</ele><time>2026-04-28T09:10:20Z</time></trkpt><trkpt lat="42.58344699256679" lon="12.006559692519438"><ele>401.0</ele><time>2026-04-28T09:10:21Z</time></trkpt><trkpt lat="42.58334721455664" lon="12.00675162956838"><ele>401.0</ele><time>2026-04-28T09:10:22Z</time></trkpt><trkpt lat="42.58321991859255" lon="12.00691430624772"><ele>401.0</ele><time>2026-04-28T09:10:23Z</time></trkpt><trkpt lat="42.58308018742059" lon="12.007063012945526"><ele>401.0</ele><time>2026-04-28T09:10:24Z</time></trkpt><trkpt lat="42.58293952185457" lon="12.007209636591295"><ele>401.0</ele><time>2026-04-28T09:10:25Z</time></trkpt><trkpt lat="42.58279732565642" lon="12.007359470593935"><ele>401.66666666666663</ele><time>2026-04-28T09:10:26Z</time></trkpt><trkpt lat="42.58265558400692" lon="12.00751143881979"><ele>402.33333333333337</ele><time>2026-04-28T09:10:27Z</time></trkpt><trkpt lat="42.58251445454764" lon="12.007666962007326"><ele>403.0</ele><time>2026-04-28T09:10:28Z</time></trkpt><trkpt lat="42.58237439028977" lon="12.00782156726941"><ele>403.0</ele><time>2026-04-28T09:10:29Z</time></trkpt><trkpt lat="42.58224344658036" lon="12.007960838314709"><ele>403.0</ele><time>2026-04-28T09:10:30Z</time></trkpt><trkpt lat="42.582119445533394" lon="12.008082498795064"><ele>403.0</ele><time>2026-04-28T09:10:31Z</time></trkpt><trkpt lat="42.58199115367573" lon="12.008174994999095"><ele>401.75</ele><time>2026-04-28T09:10:32Z</time></trkpt><trkpt lat="42.58186035277452" lon="12.008232782860574"><ele>400.5</ele><time>2026-04-28T09:10:33Z</time></trkpt><trkpt lat="42.5817221339196" lon="12.008254769871296"><ele>399.25</ele><time>2026-04-28T09:10:34Z</time></trkpt><trkpt lat="42.58157715019972" lon="12.008252765058414"><ele>398.0</ele><time>2026-04-28T09:10:35Z</time></trkpt><trkpt lat="42.581426591645084" lon="12.008244739918162"><ele>398.0</ele><time>2026-04-28T09:10:36Z</time></trkpt><trkpt lat="42.58127496871241" lon="12.00826371716867"><ele>398.0</ele><time>2026-04-28T09:10:37Z</time></trkpt><trkpt lat="42.58112147546308" lon="12.008322482224449"><ele>398.0</ele><time>2026-04-28T09:10:38Z</time></trkpt><trkpt lat="42.580974837672514" lon="12.008403294880978"><ele>401.3333333333333</ele><time>2026-04-28T09:10:39Z</time></trkpt><trkpt lat="42.580843833701664" lon="12.00851378715387"><ele>404.66666666666663</ele><time>2026-04-28T09:10:40Z</time></trkpt><trkpt lat="42.58072404053307" lon="12.008649522220013"><ele>408.0</ele><time>2026-04-28T09:10:41Z</time></trkpt><trkpt lat="42.58061398624547" lon="12.00880600295676"><ele>408.0</ele><time>2026-04-28T09:10:42Z</time></trkpt><trkpt lat="42.58050507495332" lon="12.008958311091964"><ele>408.0</ele><time>2026-04-28T09:10:43Z</time></trkpt><trkpt lat="42.58038730181023" lon="12.009120531577839"><ele>408.0</ele><time>2026-04-28T09:10:44.001Z</time></trkpt><trkpt lat="42.580267270864056" lon="12.009283933984102"><ele>409.0</ele><time>2026-04-28T09:10:45.001Z</time></trkpt><trkpt lat="42.58014715886428" lon="12.009450245194207"><ele>410.0</ele><time>2026-04-28T09:10:46.001Z</time></trkpt><trkpt lat="42.58003544954718" lon="12.009607856967735"><ele>411.0</ele><time>2026-04-28T09:10:47.001Z</time></trkpt><trkpt lat="42.5799324495644" lon="12.00975189063682"><ele>411.0</ele><time>2026-04-28T09:10:48.001Z</time></trkpt><trkpt lat="42.57983303135321" lon="12.009888312341738"><ele>411.0</ele><time>2026-04-28T09:10:49.001Z</time></trkpt><trkpt lat="42.57973260015585" lon="12.01002565707611"><ele>411.0</ele><time>2026-04-28T09:10:50.001Z</time></trkpt><trkpt lat="42.57963165511868" lon="12.010155489391272"><ele>411.0</ele><time>2026-04-28T09:10:51.001Z</time></trkpt><trkpt lat="42.57952663390996" lon="12.010261781170154"><ele>412.0</ele><time>2026-04-28T09:10:52.001Z</time></trkpt><trkpt lat="42.57940569397844" lon="12.010347879838683"><ele>413.0</ele><time>2026-04-28T09:10:53Z</time></trkpt><trkpt lat="42.57927170705633" lon="12.010396323516792"><ele>414.0</ele><time>2026-04-28T09:10:54Z</time></trkpt><trkpt lat="42.57913827364167" lon="12.010409095419911"><ele>415.0</ele><time>2026-04-28T09:10:55Z</time></trkpt><trkpt lat="42.57900139720668" lon="12.010391297068995"><ele>415.0</ele><time>2026-04-28T09:10:56Z</time></trkpt><trkpt lat="42.57885470233465" lon="12.01036745098166"><ele>415.0</ele><time>2026-04-28T09:10:57Z</time></trkpt><trkpt lat="42.57870371674607" lon="12.010347878850851"><ele>415.0</ele><time>2026-04-28T09:10:58Z</time></trkpt><trkpt lat="42.5785510027672" lon="12.01033365094076"><ele>418.0</ele><time>2026-04-28T09:10:59Z</time></trkpt><trkpt lat="42.57839797030233" lon="12.010320401153024"><ele>421.0</ele><time>2026-04-28T09:11:00Z</time></trkpt><trkpt lat="42.57824511324392" lon="12.010307009178131"><ele>424.0</ele><time>2026-04-28T09:11:01Z</time></trkpt><trkpt lat="42.57809957060554" lon="12.010293610330786"><ele>424.0</ele><time>2026-04-28T09:11:02Z</time></trkpt><trkpt lat="42.57796186546883" lon="12.010282762669426"><ele>424.0</ele><time>2026-04-28T09:11:03Z</time></trkpt><trkpt lat="42.57782997101646" lon="12.01027029369281"><ele>424.0</ele><time>2026-04-28T09:11:04Z</time></trkpt><trkpt lat="42.57770650461518" lon="12.010258860871765"><ele>424.0</ele><time>2026-04-28T09:11:05Z</time></trkpt><trkpt lat="42.57758857209298" lon="12.010245438978957"><ele>424.0</ele><time>2026-04-28T09:11:06Z</time></trkpt><trkpt lat="42.57747757469823" lon="12.010235892193633"><ele>424.0</ele><time>2026-04-28T09:11:07Z</time></trkpt><trkpt lat="42.57737110319507" lon="12.010225643300705"><ele>424.0</ele><time>2026-04-28T09:11:08Z</time></trkpt><trkpt lat="42.577268450715984" lon="12.010218546225916"><ele>424.0</ele><time>2026-04-28T09:11:09Z</time></trkpt><trkpt lat="42.577153588758684" lon="12.01020667828594"><ele>424.0</ele><time>2026-04-28T09:11:10Z</time></trkpt><trkpt lat="42.57702677393567" lon="12.010192055765566"><ele>423.5</ele><time>2026-04-28T09:11:11Z</time></trkpt><trkpt lat="42.576892334283215" lon="12.0101790937571"><ele>423.0</ele><time>2026-04-28T09:11:12Z</time></trkpt><trkpt lat="42.57674858061974" lon="12.01016951990842"><ele>422.5</ele><time>2026-04-28T09:11:13Z</time></trkpt><trkpt lat="42.57659692817722" lon="12.010161496083054"><ele>422.0</ele><time>2026-04-28T09:11:14Z</time></trkpt><trkpt lat="42.57645298170995" lon="12.010147399402854"><ele>422.0</ele><time>2026-04-28T09:11:15Z</time></trkpt><trkpt lat="42.576318271792815" lon="12.010135922923268"><ele>422.0</ele><time>2026-04-28T09:11:16Z</time></trkpt><trkpt lat="42.5761915467631" lon="12.010124538644245"><ele>422.0</ele><time>2026-04-28T09:11:17Z</time></trkpt><trkpt lat="42.576072717232606" lon="12.010110790900507"><ele>422.0</ele><time>2026-04-28T09:11:18Z</time></trkpt><trkpt lat="42.57595889810242" lon="12.01009969420438"><ele>422.20000000000005</ele><time>2026-04-28T09:11:19Z</time></trkpt><trkpt lat="42.57585219797602" lon="12.010092721115164"><ele>422.4</ele><time>2026-04-28T09:11:20Z</time></trkpt><trkpt lat="42.57574704127527" lon="12.01008384107534"><ele>422.6</ele><time>2026-04-28T09:11:21Z</time></trkpt><trkpt lat="42.5756395839488" lon="12.010071296204307"><ele>422.79999999999995</ele><time>2026-04-28T09:11:22Z</time></trkpt><trkpt lat="42.575531429743414" lon="12.01005623091708"><ele>423.0</ele><time>2026-04-28T09:11:23Z</time></trkpt><trkpt lat="42.575416481474186" lon="12.010046763970543"><ele>423.25</ele><time>2026-04-28T09:11:24Z</time></trkpt><trkpt lat="42.57529319535996" lon="12.010043672283945"><ele>423.5</ele><time>2026-04-28T09:11:25Z</time></trkpt><trkpt lat="42.57515776639378" lon="12.010027071211155"><ele>423.75</ele><time>2026-04-28T09:11:26Z</time></trkpt><trkpt lat="42.575013506816305" lon="12.01001008796097"><ele>424.0</ele><time>2026-04-28T09:11:27Z</time></trkpt><trkpt lat="42.5748617323786" lon="12.009997254353866"><ele>425.33333333333337</ele><time>2026-04-28T09:11:28Z</time></trkpt><trkpt lat="42.574705045434776" lon="12.009985724208168"><ele>426.66666666666663</ele><time>2026-04-28T09:11:29Z</time></trkpt><trkpt lat="42.574541024666345" lon="12.009972450239808"><ele>428.0</ele><time>2026-04-28T09:11:30Z</time></trkpt><trkpt lat="42.57437006442183" lon="12.009955472810464"><ele>428.0</ele><time>2026-04-28T09:11:31Z</time></trkpt><trkpt lat="42.574193544885524" lon="12.009935030884034"><ele>428.0</ele><time>2026-04-28T09:11:32Z</time></trkpt><trkpt lat="42.574012492147574" lon="12.009914615620332"><ele>428.0</ele><time>2026-04-28T09:11:33Z</time></trkpt><trkpt lat="42.57383375405541" lon="12.0098961054175"><ele>427.3333333333333</ele><time>2026-04-28T09:11:34Z</time></trkpt><trkpt lat="42.573650266248585" lon="12.0098765503901"><ele>426.66666666666663</ele><time>2026-04-28T09:11:35Z</time></trkpt><trkpt lat="42.573465801744796" lon="12.009852813696693"><ele>426.0</ele><time>2026-04-28T09:11:36Z</time></trkpt><trkpt lat="42.57328044141147" lon="12.00982481331663"><ele>426.0</ele><time>2026-04-28T09:11:37Z</time></trkpt><trkpt lat="42.57309079502256" lon="12.00979035304232"><ele>426.0</ele><time>2026-04-28T09:11:38Z</time></trkpt><trkpt lat="42.57289731294278" lon="12.009746473596413"><ele>426.0</ele><time>2026-04-28T09:11:39Z</time></trkpt><trkpt lat="42.5726984470847" lon="12.009694973237824"><ele>425.0</ele><time>2026-04-28T09:11:40Z</time></trkpt><trkpt lat="42.572496310632076" lon="12.009649316386733"><ele>424.0</ele><time>2026-04-28T09:11:41Z</time></trkpt><trkpt lat="42.57228924556004" lon="12.009603695274473"><ele>423.0</ele><time>2026-04-28T09:11:42Z</time></trkpt><trkpt lat="42.5720802324566" lon="12.009555524193107"><ele>423.0</ele><time>2026-04-28T09:11:43Z</time></trkpt><trkpt lat="42.57186690688711" lon="12.009508257638373"><ele>423.0</ele><time>2026-04-28T09:11:44Z</time></trkpt><trkpt lat="42.571651018121315" lon="12.00945981772423"><ele>423.0</ele><time>2026-04-28T09:11:45Z</time></trkpt><trkpt lat="42.57143257222829" lon="12.009407489494755"><ele>423.0</ele><time>2026-04-28T09:11:46Z</time></trkpt><trkpt lat="42.57121159219024" lon="12.00935464112516"><ele>423.0</ele><time>2026-04-28T09:11:47Z</time></trkpt><trkpt lat="42.57098895545046" lon="12.009304469185379"><ele>423.0</ele><time>2026-04-28T09:11:48Z</time></trkpt><trkpt lat="42.57076711077901" lon="12.009254912146169"><ele>423.0</ele><time>2026-04-28T09:11:49Z</time></trkpt><trkpt lat="42.5705511669475" lon="12.009205544686642"><ele>423.0</ele><time>2026-04-28T09:11:50Z</time></trkpt><trkpt lat="42.57034209992137" lon="12.009164919386063"><ele>422.66666666666663</ele><time>2026-04-28T09:11:51Z</time></trkpt><trkpt lat="42.5701335334778" lon="12.009154170931074"><ele>422.3333333333333</ele><time>2026-04-28T09:11:52Z</time></trkpt><trkpt lat="42.56992408499948" lon="12.009168703962287"><ele>422.0</ele><time>2026-04-28T09:11:53Z</time></trkpt><trkpt lat="42.56971160107834" lon="12.009200936990863"><ele>422.3333333333333</ele><time>2026-04-28T09:11:54Z</time></trkpt><trkpt lat="42.56949875597189" lon="12.009231332790465"><ele>422.66666666666663</ele><time>2026-04-28T09:11:55Z</time></trkpt><trkpt lat="42.56928763784737" lon="12.00925721710385"><ele>423.0</ele><time>2026-04-28T09:11:56Z</time></trkpt><trkpt lat="42.569080486133274" lon="12.0092807463727"><ele>423.0</ele><time>2026-04-28T09:11:57Z</time></trkpt><trkpt lat="42.5688786661952" lon="12.009305485886475"><ele>423.0</ele><time>2026-04-28T09:11:58Z</time></trkpt><trkpt lat="42.56868029033815" lon="12.00933192599563"><ele>423.0</ele><time>2026-04-28T09:11:59Z</time></trkpt><trkpt lat="42.56848486565705" lon="12.009361436062283"><ele>426.66666666666663</ele><time>2026-04-28T09:12:00Z</time></trkpt><trkpt lat="42.56829418577697" lon="12.00938949402461"><ele>430.3333333333333</ele><time>2026-04-28T09:12:01Z</time></trkpt><trkpt lat="42.56810786157263" lon="12.009413041853596"><ele>434.0</ele><time>2026-04-28T09:12:02Z</time></trkpt><trkpt lat="42.56792533190948" lon="12.009433817920781"><ele>435.0</ele><time>2026-04-28T09:12:03Z</time></trkpt><trkpt lat="42.56775074008003" lon="12.009453430450764"><ele>436.0</ele><time>2026-04-28T09:12:04Z</time></trkpt><trkpt lat="42.56758951398838" lon="12.009465545992171"><ele>437.0</ele><time>2026-04-28T09:12:05Z</time></trkpt><trkpt lat="42.56743711838462" lon="12.0094548874392"><ele>437.0</ele><time>2026-04-28T09:12:06Z</time></trkpt><trkpt lat="42.56729176421644" lon="12.00941498492213"><ele>437.0</ele><time>2026-04-28T09:12:07Z</time></trkpt><trkpt lat="42.567154929900646" lon="12.009341180385439"><ele>437.0</ele><time>2026-04-28T09:12:08Z</time></trkpt><trkpt lat="42.56702890103739" lon="12.00923833330349"><ele>437.0</ele><time>2026-04-28T09:12:09Z</time></trkpt><trkpt lat="42.56691087909179" lon="12.00911071567338"><ele>438.66666666666663</ele><time>2026-04-28T09:12:10Z</time></trkpt><trkpt lat="42.566804731515795" lon="12.00895839377703"><ele>440.33333333333337</ele><time>2026-04-28T09:12:11Z</time></trkpt><trkpt lat="42.566703610529984" lon="12.008798119005904"><ele>442.0</ele><time>2026-04-28T09:12:12Z</time></trkpt><trkpt lat="42.56660633431898" lon="12.008632826294452"><ele>442.0</ele><time>2026-04-28T09:12:13Z</time></trkpt><trkpt lat="42.566503281851205" lon="12.008469783716766"><ele>442.0</ele><time>2026-04-28T09:12:14Z</time></trkpt><trkpt lat="42.56639925179763" lon="12.008305375388312"><ele>442.0</ele><time>2026-04-28T09:12:15Z</time></trkpt><trkpt lat="42.566294638646625" lon="12.008140307792024"><ele>444.33333333333337</ele><time>2026-04-28T09:12:16Z</time></trkpt><trkpt lat="42.56618900250398" lon="12.007975979494486"><ele>446.66666666666663</ele><time>2026-04-28T09:12:17Z</time></trkpt><trkpt lat="42.56608076431742" lon="12.007813639846345"><ele>449.0</ele><time>2026-04-28T09:12:18Z</time></trkpt><trkpt lat="42.565966022304636" lon="12.0076628764614"><ele>449.0</ele><time>2026-04-28T09:12:19Z</time></trkpt><trkpt lat="42.56584007102207" lon="12.00753131595044"><ele>449.0</ele><time>2026-04-28T09:12:20Z</time></trkpt><trkpt lat="42.56570210214169" lon="12.007427686224892"><ele>449.0</ele><time>2026-04-28T09:12:21Z</time></trkpt><trkpt lat="42.565553169671496" lon="12.007356662398829"><ele>452.0</ele><time>2026-04-28T09:12:22Z</time></trkpt><trkpt lat="42.56540057607541" lon="12.00731312324795"><ele>455.0</ele><time>2026-04-28T09:12:23Z</time></trkpt><trkpt lat="42.56524374350746" lon="12.00728161558318"><ele>458.0</ele><time>2026-04-28T09:12:24Z</time></trkpt><trkpt lat="42.56508542010515" lon="12.007241556908312"><ele>458.0</ele><time>2026-04-28T09:12:25Z</time></trkpt><trkpt lat="42.564923414136246" lon="12.007200843210649"><ele>458.0</ele><time>2026-04-28T09:12:26Z</time></trkpt><trkpt lat="42.5647587321271" lon="12.007170788866436"><ele>458.0</ele><time>2026-04-28T09:12:27Z</time></trkpt><trkpt lat="42.56459154569838" lon="12.007128352651302"><ele>458.0</ele><time>2026-04-28T09:12:28Z</time></trkpt><trkpt lat="42.564423022543636" lon="12.007091979827681"><ele>458.0</ele><time>2026-04-28T09:12:29Z</time></trkpt><trkpt lat="42.5642567044439" lon="12.0070395314283"><ele>458.0</ele><time>2026-04-28T09:12:30Z</time></trkpt><trkpt lat="42.564092014065324" lon="12.006996678607882"><ele>458.0</ele><time>2026-04-28T09:12:31Z</time></trkpt><trkpt lat="42.56393596916916" lon="12.006972132692615"><ele>458.0</ele><time>2026-04-28T09:12:32Z</time></trkpt><trkpt lat="42.56378330027832" lon="12.006931600783945"><ele>458.0</ele><time>2026-04-28T09:12:33Z</time></trkpt><trkpt lat="42.56363542798792" lon="12.006879176051436"><ele>459.5</ele><time>2026-04-28T09:12:34Z</time></trkpt><trkpt lat="42.5634908863338" lon="12.006841267980963"><ele>461.0</ele><time>2026-04-28T09:12:35Z</time></trkpt><trkpt lat="42.563346026998936" lon="12.006811902461607"><ele>462.5</ele><time>2026-04-28T09:12:36Z</time></trkpt><trkpt lat="42.56320376655922" lon="12.006768719559656"><ele>464.0</ele><time>2026-04-28T09:12:37Z</time></trkpt><trkpt lat="42.56305971416806" lon="12.006739365215665"><ele>464.0</ele><time>2026-04-28T09:12:38Z</time></trkpt><trkpt lat="42.56291837722068" lon="12.006707971912277"><ele>464.0</ele><time>2026-04-28T09:12:39Z</time></trkpt><trkpt lat="42.562780585621525" lon="12.006666024207771"><ele>464.0</ele><time>2026-04-28T09:12:40Z</time></trkpt><trkpt lat="42.56264016790007" lon="12.00662558492575"><ele>464.0</ele><time>2026-04-28T09:12:41Z</time></trkpt><trkpt lat="42.5624987354047" lon="12.006593744719142"><ele>464.25</ele><time>2026-04-28T09:12:42Z</time></trkpt><trkpt lat="42.562354857463156" lon="12.006564497906643"><ele>464.5</ele><time>2026-04-28T09:12:43Z</time></trkpt><trkpt lat="42.56220992081833" lon="12.006528079249469"><ele>464.75</ele><time>2026-04-28T09:12:44Z</time></trkpt><trkpt lat="42.56206705707937" lon="12.006490931630083"><ele>465.0</ele><time>2026-04-28T09:12:45Z</time></trkpt><trkpt lat="42.56192161269896" lon="12.006457981536045"><ele>465.0</ele><time>2026-04-28T09:12:46Z</time></trkpt><trkpt lat="42.56177916690247" lon="12.006423648277611"><ele>465.0</ele><time>2026-04-28T09:12:47Z</time></trkpt><trkpt lat="42.56163603120443" lon="12.006387269150343"><ele>465.0</ele><time>2026-04-28T09:12:48Z</time></trkpt><trkpt lat="42.561493730950374" lon="12.006352967584405"><ele>465.0</ele><time>2026-04-28T09:12:49Z</time></trkpt><trkpt lat="42.56134955986617" lon="12.006319703661843"><ele>465.0</ele><time>2026-04-28T09:12:50Z</time></trkpt><trkpt lat="42.56120197831186" lon="12.00628746710727"><ele>465.0</ele><time>2026-04-28T09:12:51Z</time></trkpt><trkpt lat="42.56105089875327" lon="12.006251538635835"><ele>465.0</ele><time>2026-04-28T09:12:52Z</time></trkpt><trkpt lat="42.560898333169156" lon="12.006213791334222"><ele>466.25</ele><time>2026-04-28T09:12:53Z</time></trkpt><trkpt lat="42.5607517394134" lon="12.00617721829584"><ele>467.5</ele><time>2026-04-28T09:12:54Z</time></trkpt><trkpt lat="42.56061540677275" lon="12.006142813717316"><ele>468.75</ele><time>2026-04-28T09:12:55Z</time></trkpt><trkpt lat="42.56048766246278" lon="12.006111643703738"><ele>470.0</ele><time>2026-04-28T09:12:56Z</time></trkpt><trkpt lat="42.560359984204375" lon="12.006084330289216"><ele>470.5</ele><time>2026-04-28T09:12:57Z</time></trkpt><trkpt lat="42.56023417835686" lon="12.006065976392193"><ele>471.0</ele><time>2026-04-28T09:12:58Z</time></trkpt><trkpt lat="42.56011271946733" lon="12.006065852580981"><ele>471.5</ele><time>2026-04-28T09:12:59Z</time></trkpt><trkpt lat="42.5599929199556" lon="12.006102393350506"><ele>472.0</ele><time>2026-04-28T09:13:00Z</time></trkpt><trkpt lat="42.55987920731063" lon="12.00617031985949"><ele>472.0</ele><time>2026-04-28T09:13:01Z</time></trkpt><trkpt lat="42.55977323930235" lon="12.006262219744777"><ele>472.0</ele><time>2026-04-28T09:13:02Z</time></trkpt><trkpt lat="42.559672782953996" lon="12.00637579201101"><ele>472.0</ele><time>2026-04-28T09:13:03Z</time></trkpt><trkpt lat="42.55956829609488" lon="12.006487483314109"><ele>472.0</ele><time>2026-04-28T09:13:04Z</time></trkpt><trkpt lat="42.559453271366536" lon="12.006579108560711"><ele>473.5</ele><time>2026-04-28T09:13:05Z</time></trkpt><trkpt lat="42.559333728904214" lon="12.006632845523155"><ele>475.0</ele><time>2026-04-28T09:13:06Z</time></trkpt><trkpt lat="42.55921033630142" lon="12.006657664972606"><ele>476.5</ele><time>2026-04-28T09:13:07Z</time></trkpt><trkpt lat="42.55909478503054" lon="12.006635404369412"><ele>478.0</ele><time>2026-04-28T09:13:08Z</time></trkpt><trkpt lat="42.558995132503036" lon="12.0065721368848"><ele>478.0</ele><time>2026-04-28T09:13:09Z</time></trkpt><trkpt lat="42.55891331728069" lon="12.00647651208335"><ele>477.99999999999994</ele><time>2026-04-28T09:13:10Z</time></trkpt><trkpt lat="42.5588533192454" lon="12.006354464857951"><ele>477.99999999999994</ele><time>2026-04-28T09:13:11Z</time></trkpt><trkpt lat="42.558804684050436" lon="12.006221743641461"><ele>478.0</ele><time>2026-04-28T09:13:12Z</time></trkpt><trkpt lat="42.55876378716688" lon="12.006092404341079"><ele>478.0</ele><time>2026-04-28T09:13:13Z</time></trkpt><trkpt lat="42.55871423191613" lon="12.005959700694525"><ele>479.0</ele><time>2026-04-28T09:13:14Z</time></trkpt><trkpt lat="42.55865568147212" lon="12.00582444356827"><ele>480.0</ele><time>2026-04-28T09:13:15Z</time></trkpt><trkpt lat="42.55858162024787" lon="12.005694023458096"><ele>481.0</ele><time>2026-04-28T09:13:16Z</time></trkpt><trkpt lat="42.55848910057669" lon="12.005574057633854"><ele>482.0</ele><time>2026-04-28T09:13:17Z</time></trkpt><trkpt lat="42.558383413077536" lon="12.005460513451057"><ele>482.0</ele><time>2026-04-28T09:13:18Z</time></trkpt><trkpt lat="42.55826252039671" lon="12.00535857632707"><ele>482.0</ele><time>2026-04-28T09:13:19Z</time></trkpt><trkpt lat="42.55814041996784" lon="12.005261754545549"><ele>482.0</ele><time>2026-04-28T09:13:20Z</time></trkpt><trkpt lat="42.55802773672087" lon="12.005172367474099"><ele>482.0</ele><time>2026-04-28T09:13:21Z</time></trkpt><trkpt lat="42.55791685018157" lon="12.005077393986388"><ele>481.0</ele><time>2026-04-28T09:13:22Z</time></trkpt><trkpt lat="42.55780495118024" lon="12.004986980306867"><ele>480.0</ele><time>2026-04-28T09:13:23Z</time></trkpt><trkpt lat="42.55768746627314" lon="12.0049150137389"><ele>479.0</ele><time>2026-04-28T09:13:24Z</time></trkpt><trkpt lat="42.55756414393243" lon="12.004866268068103"><ele>478.0</ele><time>2026-04-28T09:13:25Z</time></trkpt><trkpt lat="42.55744553772742" lon="12.004824654985484"><ele>478.0</ele><time>2026-04-28T09:13:26Z</time></trkpt><trkpt lat="42.55733058222022" lon="12.004782972475983"><ele>478.0</ele><time>2026-04-28T09:13:27Z</time></trkpt><trkpt lat="42.55721607782953" lon="12.004753118243574"><ele>478.0</ele><time>2026-04-28T09:13:28Z</time></trkpt><trkpt lat="42.55710284218241" lon="12.004733741034917"><ele>478.0</ele><time>2026-04-28T09:13:29Z</time></trkpt><trkpt lat="42.55699026231104" lon="12.004719144633489"><ele>479.25</ele><time>2026-04-28T09:13:30Z</time></trkpt><trkpt lat="42.556879067188966" lon="12.004719803914027"><ele>480.5</ele><time>2026-04-28T09:13:31Z</time></trkpt><trkpt lat="42.55677084003703" lon="12.004746396312445"><ele>481.75</ele><time>2026-04-28T09:13:32Z</time></trkpt><trkpt lat="42.55666513531084" lon="12.004803511541361"><ele>483.0</ele><time>2026-04-28T09:13:33Z</time></trkpt><trkpt lat="42.556561540934375" lon="12.004882727334364"><ele>483.0</ele><time>2026-04-28T09:13:34Z</time></trkpt><trkpt lat="42.55644489532464" lon="12.004945239148917"><ele>483.0</ele><time>2026-04-28T09:13:35Z</time></trkpt><trkpt lat="42.55633251961727" lon="12.005036284170908"><ele>483.0</ele><time>2026-04-28T09:13:36Z</time></trkpt><trkpt lat="42.55622133731749" lon="12.005141847020312"><ele>483.0</ele><time>2026-04-28T09:13:37Z</time></trkpt><trkpt lat="42.556111171143264" lon="12.005221475865543"><ele>484.25</ele><time>2026-04-28T09:13:38Z</time></trkpt><trkpt lat="42.55600615274409" lon="12.005300502611476"><ele>485.5</ele><time>2026-04-28T09:13:39Z</time></trkpt><trkpt lat="42.555906606956995" lon="12.005384867800911"><ele>486.75</ele><time>2026-04-28T09:13:40Z</time></trkpt><trkpt lat="42.55580727163684" lon="12.005470022908566"><ele>488.0</ele><time>2026-04-28T09:13:41Z</time></trkpt><trkpt lat="42.555702829395386" lon="12.005545198773605"><ele>488.0</ele><time>2026-04-28T09:13:42Z</time></trkpt><trkpt lat="42.55559251225108" lon="12.005602596145582"><ele>488.0</ele><time>2026-04-28T09:13:43Z</time></trkpt><trkpt lat="42.555481003779526" lon="12.005647391201284"><ele>488.0</ele><time>2026-04-28T09:13:44Z</time></trkpt><trkpt lat="42.555365131152946" lon="12.005677225942742"><ele>488.0</ele><time>2026-04-28T09:13:45Z</time></trkpt><trkpt lat="42.555245335048724" lon="12.005692340104169"><ele>488.25</ele><time>2026-04-28T09:13:46Z</time></trkpt><trkpt lat="42.5551224013244" lon="12.005698703928623"><ele>488.5</ele><time>2026-04-28T09:13:47Z</time></trkpt><trkpt lat="42.55499765956341" lon="12.005694412882237"><ele>488.75</ele><time>2026-04-28T09:13:48Z</time></trkpt><trkpt lat="42.55487388610562" lon="12.005676494922922"><ele>489.0</ele><time>2026-04-28T09:13:49Z</time></trkpt><trkpt lat="42.5547530420461" lon="12.005642151299758"><ele>489.0</ele><time>2026-04-28T09:13:50Z</time></trkpt><trkpt lat="42.55464042361288" lon="12.005589812579009"><ele>489.0</ele><time>2026-04-28T09:13:51Z</time></trkpt><trkpt lat="42.55453301073537" lon="12.005527081891577"><ele>489.0</ele><time>2026-04-28T09:13:52Z</time></trkpt><trkpt lat="42.55443028047081" lon="12.005461291527467"><ele>489.0</ele><time>2026-04-28T09:13:53Z</time></trkpt><trkpt lat="42.55433238753973" lon="12.005393519428235"><ele>492.2</ele><time>2026-04-28T09:13:54Z</time></trkpt><trkpt lat="42.554235957426556" lon="12.005331719261527"><ele>495.4</ele><time>2026-04-28T09:13:55Z</time></trkpt><trkpt lat="42.554147367816" lon="12.005271084299775"><ele>498.6</ele><time>2026-04-28T09:13:56Z</time></trkpt><trkpt lat="42.55406552830839" lon="12.005214352033587"><ele>501.8</ele><time>2026-04-28T09:13:57Z</time></trkpt><trkpt lat="42.55398563272377" lon="12.005167537312394"><ele>505.0</ele><time>2026-04-28T09:13:58Z</time></trkpt><trkpt lat="42.55391009178779" lon="12.005134400951054"><ele>505.00000000000006</ele><time>2026-04-28T09:13:59Z</time></trkpt><trkpt lat="42.55383382685785" lon="12.005125179073291"><ele>505.0</ele><time>2026-04-28T09:14:00Z</time></trkpt><trkpt lat="42.55375350894557" lon="12.005151073609923"><ele>505.0</ele><time>2026-04-28T09:14:01Z</time></trkpt><trkpt lat="42.55367643314723" lon="12.005206887210239"><ele>505.0</ele><time>2026-04-28T09:14:02Z</time></trkpt><trkpt lat="42.55361177274532" lon="12.00529298748547"><ele>505.00000000000006</ele><time>2026-04-28T09:14:03Z</time></trkpt><trkpt lat="42.55354854026448" lon="12.00539043278709"><ele>505.0</ele><time>2026-04-28T09:14:04Z</time></trkpt><trkpt lat="42.55354497633702" lon="12.005519569759935"><ele>503.8</ele><time>2026-04-28T09:14:05Z</time></trkpt><trkpt lat="42.55355481449587" lon="12.005641975362876"><ele>502.6</ele><time>2026-04-28T09:14:06Z</time></trkpt><trkpt lat="42.553588758756376" lon="12.005765490690717"><ele>501.4</ele><time>2026-04-28T09:14:07Z</time></trkpt><trkpt lat="42.5536313153006" lon="12.005878783182341"><ele>500.2</ele><time>2026-04-28T09:14:08Z</time></trkpt><trkpt lat="42.55366452468354" lon="12.005986499164724"><ele>499.0</ele><time>2026-04-28T09:14:09Z</time></trkpt><trkpt lat="42.55370555949757" lon="12.006088989788417"><ele>503.0</ele><time>2026-04-28T09:14:10Z</time></trkpt><trkpt lat="42.55374561488989" lon="12.00619188106496"><ele>507.0</ele><time>2026-04-28T09:14:11Z</time></trkpt><trkpt lat="42.55379364529439" lon="12.006298562918877"><ele>511.0</ele><time>2026-04-28T09:14:12Z</time></trkpt><trkpt lat="42.55383635466082" lon="12.006407732114559"><ele>515.0</ele><time>2026-04-28T09:14:13Z</time></trkpt><trkpt lat="42.55387780877077" lon="12.006519412883277"><ele>519.0</ele><time>2026-04-28T09:14:14Z</time></trkpt><trkpt lat="42.55392025420989" lon="12.006635388626444"><ele>518.8</ele><time>2026-04-28T09:14:15Z</time></trkpt><trkpt lat="42.55396687812225" lon="12.006752896575065"><ele>518.5999999999999</ele><time>2026-04-28T09:14:16Z</time></trkpt><trkpt lat="42.55399849404751" lon="12.00687927501632"><ele>518.4</ele><time>2026-04-28T09:14:17Z</time></trkpt><trkpt lat="42.554044091870765" lon="12.006998289759109"><ele>518.1999999999999</ele><time>2026-04-28T09:14:18Z</time></trkpt><trkpt lat="42.55410534562153" lon="12.007112370701332"><ele>518.0</ele><time>2026-04-28T09:14:19Z</time></trkpt><trkpt lat="42.55415088018309" lon="12.007243155400673"><ele>518.0</ele><time>2026-04-28T09:14:20Z</time></trkpt><trkpt lat="42.55418948694871" lon="12.007371632088898"><ele>518.0</ele><time>2026-04-28T09:14:21Z</time></trkpt><trkpt lat="42.55422051902445" lon="12.007499806274492"><ele>518.0</ele><time>2026-04-28T09:14:22Z</time></trkpt><trkpt lat="42.55422558960609" lon="12.007645012927641"><ele>518.0</ele><time>2026-04-28T09:14:23Z</time></trkpt><trkpt lat="42.55423339663279" lon="12.007795281509669"><ele>518.0</ele><time>2026-04-28T09:14:24Z</time></trkpt><trkpt lat="42.55423768978455" lon="12.007950050189585"><ele>517.5</ele><time>2026-04-28T09:14:25Z</time></trkpt><trkpt lat="42.55425195816315" lon="12.008108917797715"><ele>517.0</ele><time>2026-04-28T09:14:26Z</time></trkpt><trkpt lat="42.55424973607973" lon="12.008270509106648"><ele>516.5</ele><time>2026-04-28T09:14:27Z</time></trkpt><trkpt lat="42.55425215555814" lon="12.008434143131096"><ele>516.0</ele><time>2026-04-28T09:14:28Z</time></trkpt><trkpt lat="42.55425457546289" lon="12.00859468385616"><ele>516.0</ele><time>2026-04-28T09:14:29Z</time></trkpt><trkpt lat="42.5542536253797" lon="12.008752130433667"><ele>516.0</ele><time>2026-04-28T09:14:30Z</time></trkpt><trkpt lat="42.554247887180665" lon="12.008913214840577"><ele>516.0</ele><time>2026-04-28T09:14:31Z</time></trkpt><trkpt lat="42.554232538406445" lon="12.009078156884035"><ele>516.0</ele><time>2026-04-28T09:14:32Z</time></trkpt><trkpt lat="42.55420923394256" lon="12.009242141978799"><ele>516.0</ele><time>2026-04-28T09:14:33Z</time></trkpt><trkpt lat="42.554180393838614" lon="12.009410479554926"><ele>516.0</ele><time>2026-04-28T09:14:34Z</time></trkpt><trkpt lat="42.554146822274035" lon="12.00957983122869"><ele>516.0</ele><time>2026-04-28T09:14:35Z</time></trkpt><trkpt lat="42.554112307768584" lon="12.009749312628863"><ele>516.0</ele><time>2026-04-28T09:14:36Z</time></trkpt><trkpt lat="42.554077452927345" lon="12.00991638532029"><ele>516.75</ele><time>2026-04-28T09:14:37Z</time></trkpt><trkpt lat="42.554040624520624" lon="12.010068115168293"><ele>517.5</ele><time>2026-04-28T09:14:38Z</time></trkpt><trkpt lat="42.553994515798834" lon="12.01020717376231"><ele>518.25</ele><time>2026-04-28T09:14:39Z</time></trkpt><trkpt lat="42.55393467660201" lon="12.01033858531699"><ele>519.0</ele><time>2026-04-28T09:14:40Z</time></trkpt><trkpt lat="42.55386280692617" lon="12.010460191547455"><ele>519.0</ele><time>2026-04-28T09:14:41Z</time></trkpt><trkpt lat="42.55378035202512" lon="12.01057202335868"><ele>519.0</ele><time>2026-04-28T09:14:42Z</time></trkpt><trkpt lat="42.55369083423157" lon="12.010680316875536"><ele>519.0</ele><time>2026-04-28T09:14:43Z</time></trkpt><trkpt lat="42.55360469385427" lon="12.010791144496537"><ele>519.0</ele><time>2026-04-28T09:14:44Z</time></trkpt><trkpt lat="42.55352969772267" lon="12.010914780946722"><ele>518.75</ele><time>2026-04-28T09:14:45Z</time></trkpt><trkpt lat="42.55346820875768" lon="12.011055394027817"><ele>518.5</ele><time>2026-04-28T09:14:46Z</time></trkpt><trkpt lat="42.55341728833834" lon="12.011213209015473"><ele>518.25</ele><time>2026-04-28T09:14:47Z</time></trkpt><trkpt lat="42.55337530854884" lon="12.011383759505554"><ele>518.0</ele><time>2026-04-28T09:14:48Z</time></trkpt><trkpt lat="42.55334044016559" lon="12.011563419320519"><ele>519.25</ele><time>2026-04-28T09:14:49Z</time></trkpt><trkpt lat="42.553305515733975" lon="12.011744644853039"><ele>520.5</ele><time>2026-04-28T09:14:50Z</time></trkpt><trkpt lat="42.55326763273028" lon="12.011925304288209"><ele>521.75</ele><time>2026-04-28T09:14:51Z</time></trkpt><trkpt lat="42.55323065415524" lon="12.012094054649818"><ele>523.0</ele><time>2026-04-28T09:14:52Z</time></trkpt><trkpt lat="42.5531886624781" lon="12.012254361511195"><ele>523.0</ele><time>2026-04-28T09:14:53Z</time></trkpt><trkpt lat="42.5531384137976" lon="12.012413853647143"><ele>523.0</ele><time>2026-04-28T09:14:54Z</time></trkpt><trkpt lat="42.55308646087969" lon="12.01256679596996"><ele>523.0</ele><time>2026-04-28T09:14:55Z</time></trkpt><trkpt lat="42.55302986365696" lon="12.012712836979881"><ele>523.0</ele><time>2026-04-28T09:14:56Z</time></trkpt><trkpt lat="42.55296969705946" lon="12.012854400831404"><ele>523.8</ele><time>2026-04-28T09:14:57Z</time></trkpt><trkpt lat="42.55291001592667" lon="12.012987237785396"><ele>524.5999999999999</ele><time>2026-04-28T09:14:58Z</time></trkpt><trkpt lat="42.55285639745011" lon="12.013114326494035"><ele>525.4000000000001</ele><time>2026-04-28T09:14:59Z</time></trkpt><trkpt lat="42.552815590754946" lon="12.013249533991488"><ele>526.2</ele><time>2026-04-28T09:15:00Z</time></trkpt><trkpt lat="42.552796453033764" lon="12.013398567158617"><ele>527.0</ele><time>2026-04-28T09:15:01Z</time></trkpt><trkpt lat="42.552786201186976" lon="12.013560121812516"><ele>529.0</ele><time>2026-04-28T09:15:02Z</time></trkpt><trkpt lat="42.55280541603941" lon="12.013721378131907"><ele>531.0</ele><time>2026-04-28T09:15:03Z</time></trkpt><trkpt lat="42.55284320875981" lon="12.013883353688083"><ele>533.0</ele><time>2026-04-28T09:15:04Z</time></trkpt><trkpt lat="42.55288352956173" lon="12.014035766532103"><ele>535.0</ele><time>2026-04-28T09:15:05Z</time></trkpt><trkpt lat="42.55292393526719" lon="12.014178711057937"><ele>536.2</ele><time>2026-04-28T09:15:06Z</time></trkpt><trkpt lat="42.552962314638236" lon="12.014312687085724"><ele>537.4</ele><time>2026-04-28T09:15:07Z</time></trkpt><trkpt lat="42.55300699059794" lon="12.014434916752128"><ele>538.6</ele><time>2026-04-28T09:15:08Z</time></trkpt><trkpt lat="42.55302450666306" lon="12.014579652886615"><ele>539.8</ele><time>2026-04-28T09:15:09Z</time></trkpt><trkpt lat="42.55302005394623" lon="12.014731827549449"><ele>541.0</ele><time>2026-04-28T09:15:10Z</time></trkpt><trkpt lat="42.55300213350746" lon="12.014894497501098"><ele>540.75</ele><time>2026-04-28T09:15:11Z</time></trkpt><trkpt lat="42.55297188093188" lon="12.015063473782009"><ele>540.5</ele><time>2026-04-28T09:15:12Z</time></trkpt><trkpt lat="42.552932934338685" lon="12.015218144092817"><ele>540.25</ele><time>2026-04-28T09:15:13Z</time></trkpt><trkpt lat="42.552896731391655" lon="12.015365559662838"><ele>540.0</ele><time>2026-04-28T09:15:14Z</time></trkpt><trkpt lat="42.552869608676026" lon="12.015515650236365"><ele>533.5</ele><time>2026-04-28T09:15:15Z</time></trkpt><trkpt lat="42.552836190583065" lon="12.015661387651267"><ele>527.0</ele><time>2026-04-28T09:15:16Z</time></trkpt><trkpt lat="42.552800160778126" lon="12.015806491618598"><ele>520.5</ele><time>2026-04-28T09:15:17Z</time></trkpt><trkpt lat="42.55277338830823" lon="12.015955396547929"><ele>514.0</ele><time>2026-04-28T09:15:18Z</time></trkpt><trkpt lat="42.552739077957945" lon="12.01610121626694"><ele>514.0</ele><time>2026-04-28T09:15:19Z</time></trkpt><trkpt lat="42.55268110087903" lon="12.016232303275117"><ele>514.0</ele><time>2026-04-28T09:15:20Z</time></trkpt><trkpt lat="42.55261801489782" lon="12.016358354105526"><ele>514.0</ele><time>2026-04-28T09:15:21Z</time></trkpt><trkpt lat="42.55255793747984" lon="12.016482470768976"><ele>514.0</ele><time>2026-04-28T09:15:22Z</time></trkpt><trkpt lat="42.55249015045952" lon="12.016586217585765"><ele>514.0</ele><time>2026-04-28T09:15:23Z</time></trkpt><trkpt lat="42.552434013761626" lon="12.016695172002532"><ele>516.2</ele><time>2026-04-28T09:15:24Z</time></trkpt><trkpt lat="42.552400263985454" lon="12.016822650602554"><ele>518.4</ele><time>2026-04-28T09:15:25Z</time></trkpt><trkpt lat="42.55238842613943" lon="12.01695915762636"><ele>520.6</ele><time>2026-04-28T09:15:26Z</time></trkpt><trkpt lat="42.552397366199884" lon="12.017101808465087"><ele>522.8</ele><time>2026-04-28T09:15:27Z</time></trkpt><trkpt lat="42.55240820891761" lon="12.017249909509317"><ele>525.0</ele><time>2026-04-28T09:15:28Z</time></trkpt><trkpt lat="42.55244082860231" lon="12.01739862331766"><ele>525.0</ele><time>2026-04-28T09:15:29Z</time></trkpt><trkpt lat="42.55248746866605" lon="12.017543591980502"><ele>525.0</ele><time>2026-04-28T09:15:30Z</time></trkpt><trkpt lat="42.55252727616626" lon="12.017695156852536"><ele>525.0</ele><time>2026-04-28T09:15:31Z</time></trkpt><trkpt lat="42.55256609259954" lon="12.017842280070994"><ele>525.0</ele><time>2026-04-28T09:15:32Z</time></trkpt><trkpt lat="42.55259544984873" lon="12.017981099332463"><ele>525.0</ele><time>2026-04-28T09:15:33Z</time></trkpt><trkpt lat="42.55262834668059" lon="12.01811559787977"><ele>525.0</ele><time>2026-04-28T09:15:34Z</time></trkpt><trkpt lat="42.55265744409554" lon="12.018258616942083"><ele>525.0</ele><time>2026-04-28T09:15:35Z</time></trkpt><trkpt lat="42.55266536982687" lon="12.018407289732455"><ele>525.0</ele><time>2026-04-28T09:15:36Z</time></trkpt><trkpt lat="42.55266095470685" lon="12.018555171494974"><ele>525.0</ele><time>2026-04-28T09:15:37Z</time></trkpt><trkpt lat="42.55264192830495" lon="12.018698295108072"><ele>524.5</ele><time>2026-04-28T09:15:38Z</time></trkpt><trkpt lat="42.55260130231921" lon="12.018840974327729"><ele>524.0</ele><time>2026-04-28T09:15:39Z</time></trkpt><trkpt lat="42.55254832408679" lon="12.01897905920057"><ele>523.5</ele><time>2026-04-28T09:15:40Z</time></trkpt><trkpt lat="42.552476794892414" lon="12.019104059670852"><ele>523.0</ele><time>2026-04-28T09:15:41Z</time></trkpt><trkpt lat="42.552393554250045" lon="12.019203370138186"><ele>524.8</ele><time>2026-04-28T09:15:42Z</time></trkpt><trkpt lat="42.55229522441591" lon="12.019276251830783"><ele>526.5999999999999</ele><time>2026-04-28T09:15:43Z</time></trkpt><trkpt lat="42.55219178901631" lon="12.019335377152307"><ele>528.4000000000001</ele><time>2026-04-28T09:15:44Z</time></trkpt><trkpt lat="42.55210040498041" lon="12.01939813999625"><ele>530.2</ele><time>2026-04-28T09:15:45Z</time></trkpt><trkpt lat="42.552027217327804" lon="12.019474419426638"><ele>532.0</ele><time>2026-04-28T09:15:46Z</time></trkpt><trkpt lat="42.551968350815336" lon="12.019564214372132"><ele>528.6</ele><time>2026-04-28T09:15:47Z</time></trkpt><trkpt lat="42.55192164903158" lon="12.019665578814413"><ele>525.2</ele><time>2026-04-28T09:15:48Z</time></trkpt><trkpt lat="42.55189791649914" lon="12.019790953072897"><ele>521.8</ele><time>2026-04-28T09:15:49Z</time></trkpt><trkpt lat="42.5518999071427" lon="12.01992861789545"><ele>518.4</ele><time>2026-04-28T09:15:50Z</time></trkpt><trkpt lat="42.55190187602363" lon="12.020081781288537"><ele>515.0</ele><time>2026-04-28T09:15:51Z</time></trkpt><trkpt lat="42.55192749242011" lon="12.020239302429495"><ele>515.0</ele><time>2026-04-28T09:15:52Z</time></trkpt><trkpt lat="42.551977320647474" lon="12.02039022244891"><ele>515.0</ele><time>2026-04-28T09:15:53Z</time></trkpt><trkpt lat="42.55201689261098" lon="12.020549790847785"><ele>515.0</ele><time>2026-04-28T09:15:54Z</time></trkpt><trkpt lat="42.55206253166149" lon="12.020701439720957"><ele>515.0</ele><time>2026-04-28T09:15:55Z</time></trkpt><trkpt lat="42.5521068633064" lon="12.020845677653215"><ele>521.2</ele><time>2026-04-28T09:15:56Z</time></trkpt><trkpt lat="42.552125455010106" lon="12.020990660421687"><ele>527.4</ele><time>2026-04-28T09:15:57Z</time></trkpt><trkpt lat="42.55214655793822" lon="12.02113257596791"><ele>533.6</ele><time>2026-04-28T09:15:58Z</time></trkpt><trkpt lat="42.55215514470807" lon="12.0212837412269"><ele>539.8</ele><time>2026-04-28T09:15:59Z</time></trkpt><trkpt lat="42.55215703627248" lon="12.021440010161818"><ele>546.0</ele><time>2026-04-28T09:16:00Z</time></trkpt><trkpt lat="42.552174729941605" lon="12.021597498921578"><ele>544.75</ele><time>2026-04-28T09:16:01Z</time></trkpt><trkpt lat="42.55216214294868" lon="12.021751519818062"><ele>543.5</ele><time>2026-04-28T09:16:02Z</time></trkpt><trkpt lat="42.552163790078936" lon="12.021903500825037"><ele>542.25</ele><time>2026-04-28T09:16:03Z</time></trkpt><trkpt lat="42.5521773757656" lon="12.022061008775822"><ele>541.0</ele><time>2026-04-28T09:16:04Z</time></trkpt><trkpt lat="42.55217572072476" lon="12.02222120316156"><ele>541.0</ele><time>2026-04-28T09:16:05Z</time></trkpt><trkpt lat="42.552167544500364" lon="12.022381259951965"><ele>541.0</ele><time>2026-04-28T09:16:06Z</time></trkpt><trkpt lat="42.552132648319784" lon="12.02254179355302"><ele>541.0</ele><time>2026-04-28T09:16:07Z</time></trkpt><trkpt lat="42.55207919065677" lon="12.022705535825262"><ele>541.0</ele><time>2026-04-28T09:16:08Z</time></trkpt><trkpt lat="42.552013436893986" lon="12.022862011624786"><ele>538.25</ele><time>2026-04-28T09:16:09Z</time></trkpt><trkpt lat="42.551943779715856" lon="12.022997807543513"><ele>535.5</ele><time>2026-04-28T09:16:10Z</time></trkpt><trkpt lat="42.55187887515425" lon="12.02312572298398"><ele>532.75</ele><time>2026-04-28T09:16:11Z</time></trkpt><trkpt lat="42.55181687630733" lon="12.02325081826145"><ele>530.0</ele><time>2026-04-28T09:16:12Z</time></trkpt><trkpt lat="42.55175539115164" lon="12.023384675691961"><ele>530.0</ele><time>2026-04-28T09:16:13Z</time></trkpt><trkpt lat="42.55168963368391" lon="12.023520328828893"><ele>530.0</ele><time>2026-04-28T09:16:14Z</time></trkpt><trkpt lat="42.55162180069748" lon="12.023658868121812"><ele>530.0</ele><time>2026-04-28T09:16:15Z</time></trkpt><trkpt lat="42.551537196704" lon="12.023786716399682"><ele>530.0</ele><time>2026-04-28T09:16:16Z</time></trkpt><trkpt lat="42.551462695239444" lon="12.023926547891968"><ele>530.0</ele><time>2026-04-28T09:16:17Z</time></trkpt><trkpt lat="42.551396546822176" lon="12.024077433488605"><ele>530.0</ele><time>2026-04-28T09:16:18Z</time></trkpt><trkpt lat="42.55131797311302" lon="12.024203420407133"><ele>530.0</ele><time>2026-04-28T09:16:19Z</time></trkpt><trkpt lat="42.551234123820066" lon="12.024314723272493"><ele>530.0</ele><time>2026-04-28T09:16:20Z</time></trkpt><trkpt lat="42.55114204593119" lon="12.024417186960568"><ele>528.75</ele><time>2026-04-28T09:16:21Z</time></trkpt><trkpt lat="42.55104113183468" lon="12.024504768689072"><ele>527.5</ele><time>2026-04-28T09:16:22Z</time></trkpt><trkpt lat="42.55093283841998" lon="12.024587983536327"><ele>526.25</ele><time>2026-04-28T09:16:23Z</time></trkpt><trkpt lat="42.550829670029174" lon="12.02467512092888"><ele>525.0</ele><time>2026-04-28T09:16:24Z</time></trkpt><trkpt lat="42.55073423181749" lon="12.02475918081017"><ele>525.0</ele><time>2026-04-28T09:16:25Z</time></trkpt><trkpt lat="42.550644644642915" lon="12.0248391469867"><ele>525.0</ele><time>2026-04-28T09:16:26Z</time></trkpt><trkpt lat="42.550562363908455" lon="12.024920523288602"><ele>525.0</ele><time>2026-04-28T09:16:27Z</time></trkpt><trkpt lat="42.55049260745803" lon="12.025008482206486"><ele>525.0</ele><time>2026-04-28T09:16:28Z</time></trkpt><trkpt lat="42.550439761350205" lon="12.025107634379992"><ele>525.0</ele><time>2026-04-28T09:16:29Z</time></trkpt><trkpt lat="42.550404909500166" lon="12.025216692879644"><ele>524.6</ele><time>2026-04-28T09:16:30Z</time></trkpt><trkpt lat="42.55038578891542" lon="12.02533662450253"><ele>524.2</ele><time>2026-04-28T09:16:31Z</time></trkpt><trkpt lat="42.550384077383576" lon="12.02546698832317"><ele>523.8</ele><time>2026-04-28T09:16:32Z</time></trkpt><trkpt lat="42.55038129675366" lon="12.025605722644785"><ele>523.4</ele><time>2026-04-28T09:16:33Z</time></trkpt><trkpt lat="42.550360661893734" lon="12.025752109138969"><ele>523.0</ele><time>2026-04-28T09:16:34Z</time></trkpt><trkpt lat="42.550353357342615" lon="12.02590433059034"><ele>524.5</ele><time>2026-04-28T09:16:35Z</time></trkpt><trkpt lat="42.5503597298977" lon="12.0260649369697"><ele>526.0</ele><time>2026-04-28T09:16:36Z</time></trkpt><trkpt lat="42.55034503051279" lon="12.026233705471869"><ele>527.5</ele><time>2026-04-28T09:16:37Z</time></trkpt><trkpt lat="42.55033863828444" lon="12.026403173935176"><ele>529.0</ele><time>2026-04-28T09:16:38Z</time></trkpt><trkpt lat="42.550337778847954" lon="12.02657591885888"><ele>530.25</ele><time>2026-04-28T09:16:39Z</time></trkpt><trkpt lat="42.55033612254598" lon="12.026747722065892"><ele>531.5</ele><time>2026-04-28T09:16:40Z</time></trkpt><trkpt lat="42.55034032211432" lon="12.026918649252979"><ele>532.75</ele><time>2026-04-28T09:16:41Z</time></trkpt><trkpt lat="42.550363693680275" lon="12.027081625669949"><ele>534.0</ele><time>2026-04-28T09:16:42Z</time></trkpt><trkpt lat="42.55038626149016" lon="12.02724431831064"><ele>534.0</ele><time>2026-04-28T09:16:43Z</time></trkpt><trkpt lat="42.55043735971808" lon="12.027393313116546"><ele>534.0</ele><time>2026-04-28T09:16:44Z</time></trkpt><trkpt lat="42.55049797645864" lon="12.027526413888976"><ele>534.0</ele><time>2026-04-28T09:16:45Z</time></trkpt><trkpt lat="42.55056814925071" lon="12.02763807812283"><ele>534.0</ele><time>2026-04-28T09:16:46Z</time></trkpt><trkpt lat="42.55061592086505" lon="12.027755502379147"><ele>534.0</ele><time>2026-04-28T09:16:47Z</time></trkpt><trkpt lat="42.550658827335" lon="12.027868035272807"><ele>534.0</ele><time>2026-04-28T09:16:48Z</time></trkpt><trkpt lat="42.550691348120964" lon="12.027981795649985"><ele>534.0</ele><time>2026-04-28T09:16:49Z</time></trkpt><trkpt lat="42.550701642444146" lon="12.028097586356658"><ele>534.0</ele><time>2026-04-28T09:16:50Z</time></trkpt><trkpt lat="42.55069075444798" lon="12.028208523562819"><ele>534.0</ele><time>2026-04-28T09:16:51Z</time></trkpt><trkpt lat="42.55065333268739" lon="12.028303680998361"><ele>534.0</ele><time>2026-04-28T09:16:52Z</time></trkpt><trkpt lat="42.55059268192857" lon="12.028388069108066"><ele>534.0</ele><time>2026-04-28T09:16:53Z</time></trkpt><trkpt lat="42.55051729256197" lon="12.028465176991068"><ele>533.4</ele><time>2026-04-28T09:16:54Z</time></trkpt><trkpt lat="42.55043104085606" lon="12.028532766314756"><ele>532.8</ele><time>2026-04-28T09:16:55Z</time></trkpt><trkpt lat="42.55033822955994" lon="12.028598471750792"><ele>532.2</ele><time>2026-04-28T09:16:56Z</time></trkpt><trkpt lat="42.55024205159533" lon="12.028670749380439"><ele>531.6</ele><time>2026-04-28T09:16:57Z</time></trkpt><trkpt lat="42.55014343923158" lon="12.028747423057569"><ele>531.0</ele><time>2026-04-28T09:16:58Z</time></trkpt><trkpt lat="42.5500404131251" lon="12.028824852703341"><ele>531.0</ele><time>2026-04-28T09:16:59Z</time></trkpt><trkpt lat="42.549939788208114" lon="12.028900712209051"><ele>531.0</ele><time>2026-04-28T09:17:00Z</time></trkpt><trkpt lat="42.54984726789434" lon="12.028971157201651"><ele>531.0</ele><time>2026-04-28T09:17:01Z</time></trkpt><trkpt lat="42.549755164598935" lon="12.029041186221628"><ele>531.0</ele><time>2026-04-28T09:17:02Z</time></trkpt><trkpt lat="42.549662858402236" lon="12.02911240590868"><ele>531.0</ele><time>2026-04-28T09:17:03Z</time></trkpt><trkpt lat="42.54957100066087" lon="12.029185881466056"><ele>531.0</ele><time>2026-04-28T09:17:04Z</time></trkpt><trkpt lat="42.54948053084928" lon="12.029261009300207"><ele>531.0</ele><time>2026-04-28T09:17:05Z</time></trkpt><trkpt lat="42.54939459176522" lon="12.029337568633172"><ele>531.0</ele><time>2026-04-28T09:17:06Z</time></trkpt><trkpt lat="42.54930897394427" lon="12.029411217315749"><ele>531.0</ele><time>2026-04-28T09:17:07Z</time></trkpt><trkpt lat="42.54922852769706" lon="12.02947846562552"><ele>531.0</ele><time>2026-04-28T09:17:08Z</time></trkpt><trkpt lat="42.54914927037364" lon="12.029550837277304"><ele>531.0</ele><time>2026-04-28T09:17:09Z</time></trkpt><trkpt lat="42.54907183364157" lon="12.029620526090529"><ele>531.0</ele><time>2026-04-28T09:17:10Z</time></trkpt><trkpt lat="42.54900001314629" lon="12.02968558600247"><ele>531.0</ele><time>2026-04-28T09:17:11Z</time></trkpt><trkpt lat="42.54893659768399" lon="12.029749344223037"><ele>531.0</ele><time>2026-04-28T09:17:12Z</time></trkpt><trkpt lat="42.54888319670147" lon="12.029814915720745"><ele>531.0</ele><time>2026-04-28T09:17:13Z</time></trkpt><trkpt lat="42.54883196537613" lon="12.029871103399529"><ele>531.0</ele><time>2026-04-28T09:17:14Z</time></trkpt><trkpt lat="42.548756498767204" lon="12.029946223365986"><ele>531.4</ele><time>2026-04-28T09:17:16Z</time></trkpt><trkpt lat="42.5487014512455" lon="12.030012832075135"><ele>531.8</ele><time>2026-04-28T09:17:18Z</time></trkpt><trkpt lat="42.54869348765053" lon="12.030171198334477"><ele>532.1999999999999</ele><time>2026-04-28T09:17:21Z</time></trkpt><trkpt lat="42.54872181424727" lon="12.030313280139028"><ele>532.6</ele><time>2026-04-28T09:17:23Z</time></trkpt><trkpt lat="42.54876476393102" lon="12.030430594552303"><ele>533.0</ele><time>2026-04-28T09:17:25Z</time></trkpt><trkpt lat="42.54882730735424" lon="12.030542820642584"><ele>533.0</ele><time>2026-04-28T09:17:27Z</time></trkpt><trkpt lat="42.54887234827054" lon="12.030685200289257"><ele>533.0</ele><time>2026-04-28T09:17:29Z</time></trkpt><trkpt lat="42.54889214969915" lon="12.030776371568441"><ele>533.0</ele><time>2026-04-28T09:17:30Z</time></trkpt><trkpt lat="42.548905726203" lon="12.030873633575201"><ele>533.0</ele><time>2026-04-28T09:17:31Z</time></trkpt><trkpt lat="42.54891696442449" lon="12.030961791611785"><ele>533.0</ele><time>2026-04-28T09:17:32Z</time></trkpt><trkpt lat="42.548925491182196" lon="12.031053548911132"><ele>533.0</ele><time>2026-04-28T09:17:33Z</time></trkpt><trkpt lat="42.548926426518996" lon="12.031147288270084"><ele>533.5714285714286</ele><time>2026-04-28T09:17:34Z</time></trkpt><trkpt lat="42.54892406028105" lon="12.031241915086046"><ele>534.1428571428571</ele><time>2026-04-28T09:17:35Z</time></trkpt><trkpt lat="42.54891635464964" lon="12.031336175214069"><ele>534.7142857142857</ele><time>2026-04-28T09:17:36Z</time></trkpt><trkpt lat="42.54890206580605" lon="12.031429975314914"><ele>535.2857142857142</ele><time>2026-04-28T09:17:37Z</time></trkpt><trkpt lat="42.54889101085471" lon="12.031523219686644"><ele>535.8571428571429</ele><time>2026-04-28T09:17:38Z</time></trkpt><trkpt lat="42.548871142938665" lon="12.031613884331811"><ele>536.4285714285713</ele><time>2026-04-28T09:17:39Z</time></trkpt><trkpt lat="42.54884320306636" lon="12.031704528719901"><ele>537.0</ele><time>2026-04-28T09:17:40Z</time></trkpt><trkpt lat="42.54881280273368" lon="12.031792837977568"><ele>539.0</ele><time>2026-04-28T09:17:41Z</time></trkpt><trkpt lat="42.548781463828455" lon="12.031880766399238"><ele>541.0</ele><time>2026-04-28T09:17:42Z</time></trkpt><trkpt lat="42.54874679383832" lon="12.031968614983159"><ele>543.0</ele><time>2026-04-28T09:17:43Z</time></trkpt><trkpt lat="42.54870849564144" lon="12.032056525122975"><ele>545.0</ele><time>2026-04-28T09:17:44Z</time></trkpt><trkpt lat="42.548669399303684" lon="12.032147843087788"><ele>547.0</ele><time>2026-04-28T09:17:45Z</time></trkpt><trkpt lat="42.54863171285214" lon="12.032241335282203"><ele>549.0</ele><time>2026-04-28T09:17:46Z</time></trkpt><trkpt lat="42.5485893952217" lon="12.032334357402835"><ele>549.8333333333334</ele><time>2026-04-28T09:17:47Z</time></trkpt><trkpt lat="42.54854308322235" lon="12.032427595775085"><ele>550.6666666666666</ele><time>2026-04-28T09:17:48Z</time></trkpt><trkpt lat="42.54849614220317" lon="12.032521281802481"><ele>551.5</ele><time>2026-04-28T09:17:49Z</time></trkpt><trkpt lat="42.54844701431754" lon="12.032618109978001"><ele>552.3333333333333</ele><time>2026-04-28T09:17:50Z</time></trkpt><trkpt lat="42.548395019404595" lon="12.032714576105446"><ele>553.1666666666666</ele><time>2026-04-28T09:17:51Z</time></trkpt><trkpt lat="42.54833697996581" lon="12.032805737190609"><ele>554.0</ele><time>2026-04-28T09:17:52Z</time></trkpt><trkpt lat="42.548277367283745" lon="12.03289771919854"><ele>554.4</ele><time>2026-04-28T09:17:53Z</time></trkpt><trkpt lat="42.548218652317644" lon="12.032990769965007"><ele>554.8</ele><time>2026-04-28T09:17:54Z</time></trkpt><trkpt lat="42.54815848172177" lon="12.033082252413667"><ele>555.2</ele><time>2026-04-28T09:17:55Z</time></trkpt><trkpt lat="42.54809736993367" lon="12.033176115337724"><ele>555.6</ele><time>2026-04-28T09:17:56Z</time></trkpt><trkpt lat="42.54803246560908" lon="12.033266356364987"><ele>556.0</ele><time>2026-04-28T09:17:57Z</time></trkpt><trkpt lat="42.54796124173682" lon="12.03334685760812"><ele>556.0</ele><time>2026-04-28T09:17:58Z</time></trkpt><trkpt lat="42.547892972166004" lon="12.0334212133814"><ele>556.0</ele><time>2026-04-28T09:17:59Z</time></trkpt><trkpt lat="42.547826739925554" lon="12.033483646690263"><ele>556.0</ele><time>2026-04-28T09:18:00Z</time></trkpt><trkpt lat="42.54776214384182" lon="12.033535838632607"><ele>556.0</ele><time>2026-04-28T09:18:01Z</time></trkpt><trkpt lat="42.54770017462991" lon="12.033586320489848"><ele>556.0</ele><time>2026-04-28T09:18:02Z</time></trkpt><trkpt lat="42.54764012673295" lon="12.033631084741993"><ele>556.0</ele><time>2026-04-28T09:18:03Z</time></trkpt><trkpt lat="42.54758172279938" lon="12.033671197142144"><ele>556.1428571428571</ele><time>2026-04-28T09:18:04Z</time></trkpt><trkpt lat="42.547525703765075" lon="12.033710779894905"><ele>556.2857142857143</ele><time>2026-04-28T09:18:05Z</time></trkpt><trkpt lat="42.547466418781504" lon="12.033752020489064"><ele>556.4285714285714</ele><time>2026-04-28T09:18:06Z</time></trkpt><trkpt lat="42.54739913477566" lon="12.033798353751491"><ele>556.5714285714286</ele><time>2026-04-28T09:18:07Z</time></trkpt><trkpt lat="42.54733392623133" lon="12.033846230395516"><ele>556.7142857142857</ele><time>2026-04-28T09:18:08Z</time></trkpt><trkpt lat="42.54727154126601" lon="12.033897322797207"><ele>556.8571428571429</ele><time>2026-04-28T09:18:09Z</time></trkpt><trkpt lat="42.547211633654754" lon="12.033949463182077"><ele>557.0</ele><time>2026-04-28T09:18:10Z</time></trkpt><trkpt lat="42.54715449006471" lon="12.033997610601878"><ele>557.0</ele><time>2026-04-28T09:18:11Z</time></trkpt><trkpt lat="42.54709476131255" lon="12.03404179908981"><ele>557.0</ele><time>2026-04-28T09:18:12Z</time></trkpt><trkpt lat="42.547027645974424" lon="12.034087186723193"><ele>557.0</ele><time>2026-04-28T09:18:13Z</time></trkpt><trkpt lat="42.54696412759993" lon="12.034132664138946"><ele>557.0</ele><time>2026-04-28T09:18:14Z</time></trkpt><trkpt lat="42.546900154356074" lon="12.034181749119403"><ele>557.0</ele><time>2026-04-28T09:18:15Z</time></trkpt><trkpt lat="42.54683789436757" lon="12.03422717830609"><ele>557.0</ele><time>2026-04-28T09:18:16Z</time></trkpt><trkpt lat="42.54677612909349" lon="12.03426657310877"><ele>557.0</ele><time>2026-04-28T09:18:17Z</time></trkpt><trkpt lat="42.546710443405125" lon="12.034307265849852"><ele>556.5714285714286</ele><time>2026-04-28T09:18:18Z</time></trkpt><trkpt lat="42.54664251629805" lon="12.03434963724765"><ele>556.1428571428571</ele><time>2026-04-28T09:18:19Z</time></trkpt><trkpt lat="42.546574952667896" lon="12.034391997095499"><ele>555.7142857142857</ele><time>2026-04-28T09:18:20Z</time></trkpt><trkpt lat="42.54650653764086" lon="12.034431358546529"><ele>555.2857142857142</ele><time>2026-04-28T09:18:21Z</time></trkpt><trkpt lat="42.546436151353234" lon="12.034462743821983"><ele>554.8571428571428</ele><time>2026-04-28T09:18:22Z</time></trkpt><trkpt lat="42.5463687241098" lon="12.0344979331897"><ele>554.4285714285714</ele><time>2026-04-28T09:18:23Z</time></trkpt><trkpt lat="42.54630351575783" lon="12.034523922641721"><ele>554.0</ele><time>2026-04-28T09:18:24Z</time></trkpt><trkpt lat="42.54623924818911" lon="12.034547923633552"><ele>554.6666666666666</ele><time>2026-04-28T09:18:25Z</time></trkpt><trkpt lat="42.54617095076021" lon="12.034574370282732"><ele>555.3333333333333</ele><time>2026-04-28T09:18:26Z</time></trkpt><trkpt lat="42.546100396889564" lon="12.034604477838117"><ele>556.0</ele><time>2026-04-28T09:18:27Z</time></trkpt><trkpt lat="42.54602789104693" lon="12.034641375639401"><ele>556.6666666666666</ele><time>2026-04-28T09:18:28Z</time></trkpt><trkpt lat="42.54595240949365" lon="12.034678423723394"><ele>557.3333333333334</ele><time>2026-04-28T09:18:29Z</time></trkpt><trkpt lat="42.54587260932823" lon="12.034712412099731"><ele>558.0</ele><time>2026-04-28T09:18:30Z</time></trkpt><trkpt lat="42.54579047558029" lon="12.034748137782566"><ele>558.0</ele><time>2026-04-28T09:18:31Z</time></trkpt><trkpt lat="42.54570870549933" lon="12.03478429608141"><ele>558.0</ele><time>2026-04-28T09:18:32Z</time></trkpt><trkpt lat="42.545627784371575" lon="12.034818339392285"><ele>558.0</ele><time>2026-04-28T09:18:33Z</time></trkpt><trkpt lat="42.54554743868205" lon="12.034848890426963"><ele>558.0</ele><time>2026-04-28T09:18:34Z</time></trkpt><trkpt lat="42.54546749279358" lon="12.034877092005692"><ele>558.0</ele><time>2026-04-28T09:18:35Z</time></trkpt><trkpt lat="42.545384292695495" lon="12.034909372857177"><ele>558.0</ele><time>2026-04-28T09:18:36Z</time></trkpt><trkpt lat="42.54530358111966" lon="12.034940761358223"><ele>557.6666666666666</ele><time>2026-04-28T09:18:37Z</time></trkpt><trkpt lat="42.54523192644289" lon="12.03496800332674"><ele>557.3333333333334</ele><time>2026-04-28T09:18:38Z</time></trkpt><trkpt lat="42.54516460568677" lon="12.034992507634474"><ele>557.0</ele><time>2026-04-28T09:18:39Z</time></trkpt><trkpt lat="42.54509667617307" lon="12.035015855083861"><ele>556.6666666666667</ele><time>2026-04-28T09:18:40Z</time></trkpt><trkpt lat="42.54503203638998" lon="12.035035284002095"><ele>556.3333333333334</ele><time>2026-04-28T09:18:41Z</time></trkpt><trkpt lat="42.54492434594267" lon="12.035070225348536"><ele>556.0</ele><time>2026-04-28T09:18:43Z</time></trkpt><trkpt lat="42.54482433388725" lon="12.035108094500597"><ele>554.5</ele><time>2026-04-28T09:18:45Z</time></trkpt><trkpt lat="42.54474813301249" lon="12.03518975794204"><ele>553.0</ele><time>2026-04-28T09:18:47Z</time></trkpt><trkpt lat="42.54471698069305" lon="12.03534650423457"><ele>551.5</ele><time>2026-04-28T09:18:49Z</time></trkpt><trkpt lat="42.544708564746585" lon="12.035441580917405"><ele>550.0</ele><time>2026-04-28T09:18:50Z</time></trkpt><trkpt lat="42.54470196573039" lon="12.035545339207482"><ele>548.5</ele><time>2026-04-28T09:18:51Z</time></trkpt><trkpt lat="42.54469491521717" lon="12.035655992234277"><ele>547.0</ele><time>2026-04-28T09:18:52Z</time></trkpt><trkpt lat="42.54468728676987" lon="12.035770153674681"><ele>546.5</ele><time>2026-04-28T09:18:53Z</time></trkpt><trkpt lat="42.544680008997354" lon="12.035882500723398"><ele>546.0</ele><time>2026-04-28T09:18:54Z</time></trkpt><trkpt lat="42.544671216105115" lon="12.035995962377026"><ele>545.5</ele><time>2026-04-28T09:18:55Z</time></trkpt><trkpt lat="42.54466526491475" lon="12.036112142319332"><ele>545.0</ele><time>2026-04-28T09:18:56Z</time></trkpt><trkpt lat="42.54465061822527" lon="12.036226678359805"><ele>544.5</ele><time>2026-04-28T09:18:57Z</time></trkpt><trkpt lat="42.54463248996435" lon="12.036341870197525"><ele>544.0</ele><time>2026-04-28T09:18:58Z</time></trkpt><trkpt lat="42.544608741724666" lon="12.036456111459124"><ele>544.0</ele><time>2026-04-28T09:18:59Z</time></trkpt><trkpt lat="42.544573240046674" lon="12.03657283225002"><ele>544.0</ele><time>2026-04-28T09:19:00Z</time></trkpt><trkpt lat="42.54453210733231" lon="12.036705874628094"><ele>544.0</ele><time>2026-04-28T09:19:01Z</time></trkpt><trkpt lat="42.54449254058043" lon="12.036851686158112"><ele>544.0</ele><time>2026-04-28T09:19:02Z</time></trkpt><trkpt lat="42.54444986010853" lon="12.03699079123565"><ele>544.0</ele><time>2026-04-28T09:19:03Z</time></trkpt><trkpt lat="42.54440633521096" lon="12.037126872092035"><ele>542.2</ele><time>2026-04-28T09:19:04Z</time></trkpt><trkpt lat="42.544358957561066" lon="12.037258827451083"><ele>540.4</ele><time>2026-04-28T09:19:05Z</time></trkpt><trkpt lat="42.544318903325916" lon="12.037377991508627"><ele>538.6</ele><time>2026-04-28T09:19:06Z</time></trkpt><trkpt lat="42.54428621015072" lon="12.037467763915545"><ele>536.8</ele><time>2026-04-28T09:19:07Z</time></trkpt><trkpt lat="42.54421918070584" lon="12.037594843501818"><ele>535.0</ele><time>2026-04-28T09:19:09Z</time></trkpt><trkpt lat="42.544145277787976" lon="12.037702055183788"><ele>534.6</ele><time>2026-04-28T09:19:11Z</time></trkpt><trkpt lat="42.54409678909311" lon="12.03776064020775"><ele>534.2</ele><time>2026-04-28T09:19:12Z</time></trkpt><trkpt lat="42.54404809683133" lon="12.037824396183755"><ele>533.8</ele><time>2026-04-28T09:19:13Z</time></trkpt><trkpt lat="42.54401151459204" lon="12.037955469594714"><ele>533.4</ele><time>2026-04-28T09:19:15Z</time></trkpt><trkpt lat="42.544016372735626" lon="12.038056921097466"><ele>533.0</ele><time>2026-04-28T09:19:18Z</time></trkpt><trkpt lat="42.544174276318635" lon="12.037979583596579"><ele>533.0</ele><time>2026-04-28T09:19:21Z</time></trkpt><trkpt lat="42.544209975946416" lon="12.037896111754465"><ele>533.0</ele><time>2026-04-28T09:19:22Z</time></trkpt><trkpt lat="42.54423916242332" lon="12.037808611640825"><ele>533.0</ele><time>2026-04-28T09:19:23Z</time></trkpt><trkpt lat="42.544266814203745" lon="12.037705861578242"><ele>533.0</ele><time>2026-04-28T09:19:24Z</time></trkpt><trkpt lat="42.544292113716885" lon="12.037598605952198"><ele>533.0</ele><time>2026-04-28T09:19:25Z</time></trkpt><trkpt lat="42.544267820120595" lon="12.037507466225273"><ele>533.0</ele><time>2026-04-28T09:19:26Z</time></trkpt><trkpt lat="42.5443359804791" lon="12.037443782703086"><ele>533.0</ele><time>2026-04-28T09:19:28Z</time></trkpt><trkpt lat="42.54429716700559" lon="12.037543037454228"><ele>533.0</ele><time>2026-04-28T09:19:46Z</time></trkpt><trkpt lat="42.544263064595945" lon="12.037630245822873"><ele>533.0</ele><time>2026-04-28T09:19:49Z</time></trkpt><trkpt lat="42.54418594639798" lon="12.037600756372006"><ele>533.0</ele><time>2026-04-28T09:20:50Z</time></trkpt><trkpt lat="42.54415182129452" lon="12.037689926318833"><ele>533.0</ele><time>2026-04-28T09:20:59Z</time></trkpt><trkpt lat="42.544078454748885" lon="12.037791913011405"><ele>533.0</ele><time>2026-04-28T09:21:01Z</time></trkpt><trkpt lat="42.54397680716544" lon="12.037888851087878"><ele>533.0</ele><time>2026-04-28T09:21:03Z</time></trkpt><trkpt lat="42.54391433904133" lon="12.03792023689184"><ele>533.0</ele><time>2026-04-28T09:21:04Z</time></trkpt><trkpt lat="42.543786562878466" lon="12.037952941661684"><ele>533.0</ele><time>2026-04-28T09:21:06Z</time></trkpt><trkpt lat="42.54371345291839" lon="12.037987157371825"><ele>533.0</ele><time>2026-04-28T09:21:07Z</time></trkpt><trkpt lat="42.54362796424779" lon="12.038015602896435"><ele>533.0</ele><time>2026-04-28T09:21:08Z</time></trkpt><trkpt lat="42.54353131284218" lon="12.037949572630279"><ele>533.1666666666666</ele><time>2026-04-28T09:21:09Z</time></trkpt><trkpt lat="42.543440314592964" lon="12.037919915148548"><ele>533.3333333333333</ele><time>2026-04-28T09:21:10Z</time></trkpt><trkpt lat="42.54335954767674" lon="12.037889233673772"><ele>533.5</ele><time>2026-04-28T09:21:11Z</time></trkpt><trkpt lat="42.54329995248779" lon="12.03785916129667"><ele>533.6666666666666</ele><time>2026-04-28T09:21:12Z</time></trkpt><trkpt lat="42.54322774142306" lon="12.037792756276598"><ele>533.8333333333334</ele><time>2026-04-28T09:21:14Z</time></trkpt><trkpt lat="42.543157414148425" lon="12.037736812268125"><ele>534.0</ele><time>2026-04-28T09:21:16Z</time></trkpt><trkpt lat="42.543015304341324" lon="12.037909944626364"><ele>534.0000000000001</ele><time>2026-04-28T09:21:18Z</time></trkpt><trkpt lat="42.54295843901818" lon="12.037993676355915"><ele>534.0</ele><time>2026-04-28T09:21:19Z</time></trkpt><trkpt lat="42.54291297569725" lon="12.038088699987085"><ele>534.0</ele><time>2026-04-28T09:21:20Z</time></trkpt><trkpt lat="42.54289131723519" lon="12.03818555821603"><ele>534.0</ele><time>2026-04-28T09:21:21Z</time></trkpt><trkpt lat="42.54288274786566" lon="12.038276475500004"><ele>534.0</ele><time>2026-04-28T09:21:22Z</time></trkpt><trkpt lat="42.542877624799814" lon="12.038364425275965"><ele>534.0000000000001</ele><time>2026-04-28T09:21:23Z</time></trkpt><trkpt lat="42.54289118115822" lon="12.038461032035405"><ele>534.0</ele><time>2026-04-28T09:21:24Z</time></trkpt><trkpt lat="42.54291592833492" lon="12.038564660324877"><ele>533.3333333333334</ele><time>2026-04-28T09:21:25Z</time></trkpt><trkpt lat="42.54294942933833" lon="12.038666830005566"><ele>532.6666666666666</ele><time>2026-04-28T09:21:26Z</time></trkpt><trkpt lat="42.54298613932535" lon="12.03874691404411"><ele>532.0</ele><time>2026-04-28T09:21:27Z</time></trkpt><trkpt lat="42.543056721585884" lon="12.038866506425961"><ele>531.3333333333333</ele><time>2026-04-28T09:21:29Z</time></trkpt><trkpt lat="42.54308599494768" lon="12.038949429869108"><ele>530.6666666666666</ele><time>2026-04-28T09:21:31Z</time></trkpt><trkpt lat="42.54314355481867" lon="12.038904457135494"><ele>530.0</ele><time>2026-04-28T09:21:34Z</time></trkpt><trkpt lat="42.54310491825432" lon="12.038822927176415"><ele>530.0</ele><time>2026-04-28T09:21:36Z</time></trkpt><trkpt lat="42.54304069975151" lon="12.038779507401483"><ele>530.0</ele><time>2026-04-28T09:21:37Z</time></trkpt><trkpt lat="42.54295657389247" lon="12.03864597876909"><ele>530.0</ele><time>2026-04-28T09:21:39Z</time></trkpt><trkpt lat="42.54292234634503" lon="12.038546731108838"><ele>530.0</ele><time>2026-04-28T09:21:40Z</time></trkpt><trkpt lat="42.54289113897156" lon="12.03844296254461"><ele>530.0</ele><time>2026-04-28T09:21:41Z</time></trkpt><trkpt lat="42.54288615985093" lon="12.0383455676651"><ele>530.0</ele><time>2026-04-28T09:21:42Z</time></trkpt><trkpt lat="42.54289286491601" lon="12.038240346881098"><ele>530.6666666666666</ele><time>2026-04-28T09:21:43Z</time></trkpt><trkpt lat="42.54291439874707" lon="12.038136586709383"><ele>531.3333333333333</ele><time>2026-04-28T09:21:44Z</time></trkpt><trkpt lat="42.54295304496802" lon="12.03804444262047"><ele>532.0</ele><time>2026-04-28T09:21:45Z</time></trkpt><trkpt lat="42.54300431809836" lon="12.037965638215503"><ele>532.6666666666666</ele><time>2026-04-28T09:21:46Z</time></trkpt><trkpt lat="42.543061207879035" lon="12.037900562054693"><ele>533.3333333333334</ele><time>2026-04-28T09:21:47Z</time></trkpt><trkpt lat="42.5431488001793" lon="12.037841088101338"><ele>534.0</ele><time>2026-04-28T09:21:49Z</time></trkpt><trkpt lat="42.54322628826251" lon="12.037816247771707"><ele>534.0</ele><time>2026-04-28T09:21:52Z</time></trkpt><trkpt lat="42.543280384948254" lon="12.037944792000001"><ele>534.0</ele><time>2026-04-28T09:21:53Z</time></trkpt><trkpt lat="42.54335631406118" lon="12.038069573747633"><ele>534.0</ele><time>2026-04-28T09:21:55Z</time></trkpt><trkpt lat="42.543408164248106" lon="12.038122377610277"><ele>534.0</ele><time>2026-04-28T09:21:56Z</time></trkpt><trkpt lat="42.543504872486174" lon="12.038193578719966"><ele>534.0</ele><time>2026-04-28T09:21:58Z</time></trkpt><trkpt lat="42.543664869134" lon="12.038301897144938"><ele>533.0</ele><time>2026-04-28T09:22:37Z</time></trkpt><trkpt lat="42.543748124771874" lon="12.038333215341938"><ele>532.0</ele><time>2026-04-28T09:22:39Z</time></trkpt><trkpt lat="42.54384392368741" lon="12.038329197893278"><ele>531.0</ele><time>2026-04-28T09:22:41Z</time></trkpt><trkpt lat="42.543985678958386" lon="12.038355088461948"><ele>530.0</ele><time>2026-04-28T09:22:46Z</time></trkpt><trkpt lat="42.54403358256277" lon="12.038442088976382"><ele>529.0</ele><time>2026-04-28T09:23:36Z</time></trkpt><trkpt lat="42.54410116902893" lon="12.038422065101917"><ele>529.0</ele><time>2026-04-28T09:24:25Z</time></trkpt><trkpt lat="42.54404978919142" lon="12.03832237091545"><ele>529.0</ele><time>2026-04-28T09:24:28Z</time></trkpt><trkpt lat="42.54392288409719" lon="12.03833904151426"><ele>529.0</ele><time>2026-04-28T09:24:30Z</time></trkpt><trkpt lat="42.543856186553505" lon="12.038330860055941"><ele>529.0</ele><time>2026-04-28T09:24:31Z</time></trkpt><trkpt lat="42.543770176501454" lon="12.038310714303869"><ele>529.0</ele><time>2026-04-28T09:24:32Z</time></trkpt><trkpt lat="42.543676004767924" lon="12.03827329431526"><ele>530.0</ele><time>2026-04-28T09:24:33Z</time></trkpt><trkpt lat="42.543579364057365" lon="12.038227067381982"><ele>531.0</ele><time>2026-04-28T09:24:34Z</time></trkpt><trkpt lat="42.54348934002164" lon="12.038170273732003"><ele>532.0</ele><time>2026-04-28T09:24:35Z</time></trkpt><trkpt lat="42.54341463364986" lon="12.03812064977841"><ele>533.0</ele><time>2026-04-28T09:24:36Z</time></trkpt><trkpt lat="42.54335623158762" lon="12.03806138534554"><ele>534.0</ele><time>2026-04-28T09:24:37Z</time></trkpt><trkpt lat="42.54327759141449" lon="12.037967336355079"><ele>534.0</ele><time>2026-04-28T09:24:39Z</time></trkpt><trkpt lat="42.54327415823227" lon="12.037875202617718"><ele>534.0</ele><time>2026-04-28T09:24:55Z</time></trkpt><trkpt lat="42.54337107847309" lon="12.037916042729282"><ele>534.0</ele><time>2026-04-28T09:24:59Z</time></trkpt><trkpt lat="42.54349466032305" lon="12.038019192595327"><ele>534.0</ele><time>2026-04-28T09:25:00.999Z</time></trkpt><trkpt lat="42.5435887584164" lon="12.038049021924031"><ele>534.0</ele><time>2026-04-28T09:25:01.999Z</time></trkpt><trkpt lat="42.543693377969454" lon="12.038075004054672"><ele>533.8</ele><time>2026-04-28T09:25:02.999Z</time></trkpt><trkpt lat="42.54379948218165" lon="12.038097723391637"><ele>533.5999999999999</ele><time>2026-04-28T09:25:03.999Z</time></trkpt><trkpt lat="42.54388804461512" lon="12.038122180935133"><ele>533.4</ele><time>2026-04-28T09:25:04.999Z</time></trkpt><trkpt lat="42.54396509831543" lon="12.038148352529152"><ele>533.1999999999999</ele><time>2026-04-28T09:25:05.999Z</time></trkpt><trkpt lat="42.54403624695965" lon="12.038174234612297"><ele>533.0</ele><time>2026-04-28T09:25:06.999Z</time></trkpt><trkpt lat="42.54412521736043" lon="12.038031321391735"><ele>533.0</ele><time>2026-04-28T09:25:07.999Z</time></trkpt><trkpt lat="42.54418314973845" lon="12.037917272512704"><ele>533.0</ele><time>2026-04-28T09:25:08.999Z</time></trkpt><trkpt lat="42.5442312526821" lon="12.037779929262642"><ele>533.0</ele><time>2026-04-28T09:25:09.999Z</time></trkpt><trkpt lat="42.544280707728134" lon="12.037621278064483"><ele>533.0</ele><time>2026-04-28T09:25:10.999Z</time></trkpt><trkpt lat="42.54433329994378" lon="12.03744440221879"><ele>533.5</ele><time>2026-04-28T09:25:11.999Z</time></trkpt><trkpt lat="42.54439466052016" lon="12.037267655597027"><ele>534.0</ele><time>2026-04-28T09:25:12.999Z</time></trkpt><trkpt lat="42.54445912378841" lon="12.03708688372065"><ele>534.5</ele><time>2026-04-28T09:25:13.999Z</time></trkpt><trkpt lat="42.54451955084019" lon="12.036904645006526"><ele>535.0</ele><time>2026-04-28T09:25:14.999Z</time></trkpt><trkpt lat="42.544570290313324" lon="12.036722533546738"><ele>537.25</ele><time>2026-04-28T09:25:15.999Z</time></trkpt><trkpt lat="42.54463463957486" lon="12.036548959899294"><ele>539.5</ele><time>2026-04-28T09:25:16.999Z</time></trkpt><trkpt lat="42.544658914825334" lon="12.036351559893467"><ele>541.75</ele><time>2026-04-28T09:25:17.999Z</time></trkpt><trkpt lat="42.54468909513536" lon="12.03615131294973"><ele>544.0</ele><time>2026-04-28T09:25:18.999Z</time></trkpt><trkpt lat="42.544709661205715" lon="12.035949191611296"><ele>544.6</ele><time>2026-04-28T09:25:19.999Z</time></trkpt><trkpt lat="42.544725537452884" lon="12.035765866230717"><ele>545.2</ele><time>2026-04-28T09:25:20.999Z</time></trkpt><trkpt lat="42.54473745841481" lon="12.035614529989301"><ele>545.8000000000001</ele><time>2026-04-28T09:25:21.999Z</time></trkpt><trkpt lat="42.54474536125612" lon="12.035486023470941"><ele>546.4</ele><time>2026-04-28T09:25:22.999Z</time></trkpt><trkpt lat="42.54475731988772" lon="12.035372138489743"><ele>547.0</ele><time>2026-04-28T09:25:23.999Z</time></trkpt><trkpt lat="42.54478495404271" lon="12.035281336607037"><ele>547.0</ele><time>2026-04-28T09:25:25Z</time></trkpt><trkpt lat="42.544826207183895" lon="12.03520429290779"><ele>547.0</ele><time>2026-04-28T09:25:26Z</time></trkpt><trkpt lat="42.54487871186934" lon="12.035146961309275"><ele>547.0</ele><time>2026-04-28T09:25:27Z</time></trkpt><trkpt lat="42.54494105290637" lon="12.035109855700131"><ele>547.0</ele><time>2026-04-28T09:25:28Z</time></trkpt><trkpt lat="42.545006938610015" lon="12.03509144599441"><ele>547.0</ele><time>2026-04-28T09:25:29Z</time></trkpt><trkpt lat="42.54508718804252" lon="12.03506748094378"><ele>547.0</ele><time>2026-04-28T09:25:30Z</time></trkpt><trkpt lat="42.54517561659813" lon="12.035025731035763"><ele>547.0</ele><time>2026-04-28T09:25:31Z</time></trkpt><trkpt lat="42.545275832705634" lon="12.034994904922145"><ele>549.75</ele><time>2026-04-28T09:25:32Z</time></trkpt><trkpt lat="42.54538141613801" lon="12.034954240530642"><ele>552.5</ele><time>2026-04-28T09:25:33Z</time></trkpt><trkpt lat="42.545490211562196" lon="12.03490875724803"><ele>555.25</ele><time>2026-04-28T09:25:34Z</time></trkpt><trkpt lat="42.545602232039556" lon="12.034862218961061"><ele>558.0</ele><time>2026-04-28T09:25:35Z</time></trkpt><trkpt lat="42.54571179370868" lon="12.034813163226666"><ele>558.0</ele><time>2026-04-28T09:25:36Z</time></trkpt><trkpt lat="42.54580998612933" lon="12.034769942123162"><ele>558.0</ele><time>2026-04-28T09:25:37Z</time></trkpt><trkpt lat="42.545897749484006" lon="12.03473051635568"><ele>558.0</ele><time>2026-04-28T09:25:38Z</time></trkpt><trkpt lat="42.54597307204088" lon="12.03469664247194"><ele>558.0</ele><time>2026-04-28T09:25:39Z</time></trkpt><trkpt lat="42.54603778675185" lon="12.034665671031128"><ele>558.0</ele><time>2026-04-28T09:25:40Z</time></trkpt><trkpt lat="42.54615199437315" lon="12.034626092304764"><ele>558.0</ele><time>2026-04-28T09:25:42Z</time></trkpt><trkpt lat="42.54621343379547" lon="12.034583101949563"><ele>558.0</ele><time>2026-04-28T09:25:44Z</time></trkpt><trkpt lat="42.54616589781682" lon="12.034386932175972"><ele>558.0</ele><time>2026-04-28T09:25:45Z</time></trkpt><trkpt lat="42.54613111296256" lon="12.034291151657737"><ele>558.0</ele><time>2026-04-28T09:25:46Z</time></trkpt><trkpt lat="42.546101261701885" lon="12.034183788292173"><ele>558.0</ele><time>2026-04-28T09:25:47Z</time></trkpt><trkpt lat="42.54608178066834" lon="12.034084560461693"><ele>558.1666666666666</ele><time>2026-04-28T09:25:48Z</time></trkpt><trkpt lat="42.54605943195948" lon="12.0340002350732"><ele>558.3333333333334</ele><time>2026-04-28T09:25:49Z</time></trkpt><trkpt lat="42.54603875726356" lon="12.033918450232274"><ele>558.5</ele><time>2026-04-28T09:25:50Z</time></trkpt><trkpt lat="42.546012933384915" lon="12.033822894824583"><ele>558.6666666666667</ele><time>2026-04-28T09:25:51Z</time></trkpt><trkpt lat="42.5459835123425" lon="12.033723593399706"><ele>558.8333333333334</ele><time>2026-04-28T09:25:52Z</time></trkpt><trkpt lat="42.54596027771842" lon="12.033613394507139"><ele>559.0</ele><time>2026-04-28T09:25:53Z</time></trkpt><trkpt lat="42.54592993983455" lon="12.033491521654245"><ele>559.0</ele><time>2026-04-28T09:25:54Z</time></trkpt><trkpt lat="42.5458986840197" lon="12.033348791528285"><ele>559.0</ele><time>2026-04-28T09:25:55Z</time></trkpt><trkpt lat="42.54587002774464" lon="12.033205296724951"><ele>559.0</ele><time>2026-04-28T09:25:56Z</time></trkpt><trkpt lat="42.54583724349693" lon="12.033050933860132"><ele>559.0</ele><time>2026-04-28T09:25:57Z</time></trkpt><trkpt lat="42.54580594070643" lon="12.032889349806638"><ele>559.0</ele><time>2026-04-28T09:25:58Z</time></trkpt><trkpt lat="42.54577506154466" lon="12.032719529056587"><ele>559.0</ele><time>2026-04-28T09:25:59Z</time></trkpt><trkpt lat="42.54573991781016" lon="12.032544677474245"><ele>559.0</ele><time>2026-04-28T09:26:00Z</time></trkpt><trkpt lat="42.54570451688389" lon="12.032371957794757"><ele>559.0</ele><time>2026-04-28T09:26:01Z</time></trkpt><trkpt lat="42.54566932261438" lon="12.032191454785258"><ele>559.25</ele><time>2026-04-28T09:26:02Z</time></trkpt><trkpt lat="42.54564256906625" lon="12.032028497558374"><ele>559.5</ele><time>2026-04-28T09:26:03Z</time></trkpt><trkpt lat="42.545613529986746" lon="12.031874735534302"><ele>559.75</ele><time>2026-04-28T09:26:04Z</time></trkpt><trkpt lat="42.545581250209274" lon="12.031713753318478"><ele>560.0</ele><time>2026-04-28T09:26:05Z</time></trkpt><trkpt lat="42.5455619708659" lon="12.031564737381329"><ele>560.1666666666666</ele><time>2026-04-28T09:26:06Z</time></trkpt><trkpt lat="42.545546964504354" lon="12.031440681581696"><ele>560.3333333333333</ele><time>2026-04-28T09:26:07Z</time></trkpt><trkpt lat="42.54553011775986" lon="12.031338840712763"><ele>560.5</ele><time>2026-04-28T09:26:08Z</time></trkpt><trkpt lat="42.545518623929524" lon="12.031203699694528"><ele>560.6666666666666</ele><time>2026-04-28T09:26:10Z</time></trkpt><trkpt lat="42.54552813300377" lon="12.03111732507318"><ele>560.8333333333334</ele><time>2026-04-28T09:26:13Z</time></trkpt><trkpt lat="42.54545581808346" lon="12.03108188140403"><ele>561.0</ele><time>2026-04-28T09:26:16Z</time></trkpt><trkpt lat="42.545440770830695" lon="12.03121173896159"><ele>561.0</ele><time>2026-04-28T09:26:18Z</time></trkpt><trkpt lat="42.54547308099921" lon="12.031292476467069"><ele>561.0</ele><time>2026-04-28T09:26:19Z</time></trkpt><trkpt lat="42.54549589927374" lon="12.031389929830263"><ele>561.0</ele><time>2026-04-28T09:26:20Z</time></trkpt><trkpt lat="42.54520243414831" lon="12.031575696193794"><ele>561.4</ele><time>2026-04-28T09:26:21Z</time></trkpt><trkpt lat="42.54521457194815" lon="12.031694257739662"><ele>561.8</ele><time>2026-04-28T09:26:22Z</time></trkpt><trkpt lat="42.54522754854947" lon="12.031833100280036"><ele>562.1999999999999</ele><time>2026-04-28T09:26:23Z</time></trkpt><trkpt lat="42.54524165687249" lon="12.0319840511542"><ele>562.6</ele><time>2026-04-28T09:26:24Z</time></trkpt><trkpt lat="42.54525699433841" lon="12.03214815851277"><ele>563.0</ele><time>2026-04-28T09:26:25Z</time></trkpt><trkpt lat="42.54527231164859" lon="12.032312052029079"><ele>562.5</ele><time>2026-04-28T09:26:26Z</time></trkpt><trkpt lat="42.545287580735085" lon="12.03247542900691"><ele>562.0</ele><time>2026-04-28T09:26:27Z</time></trkpt><trkpt lat="42.54572262695714" lon="12.03257027000046"><ele>561.25</ele><time>2026-04-28T09:26:28Z</time></trkpt><trkpt lat="42.54575578308452" lon="12.032736355617537"><ele>560.5</ele><time>2026-04-28T09:26:29Z</time></trkpt><trkpt lat="42.54578586205124" lon="12.032905051472781"><ele>559.75</ele><time>2026-04-28T09:26:30Z</time></trkpt><trkpt lat="42.54581507663633" lon="12.03307782226611"><ele>559.0</ele><time>2026-04-28T09:26:31Z</time></trkpt><trkpt lat="42.54584699730573" lon="12.033251613469377"><ele>559.0</ele><time>2026-04-28T09:26:32Z</time></trkpt><trkpt lat="42.545882199866035" lon="12.033409317945276"><ele>559.0</ele><time>2026-04-28T09:26:33Z</time></trkpt><trkpt lat="42.54589782775763" lon="12.033549083572604"><ele>559.0</ele><time>2026-04-28T09:26:34Z</time></trkpt><trkpt lat="42.545925126874565" lon="12.03366960391181"><ele>559.0</ele><time>2026-04-28T09:26:35Z</time></trkpt><trkpt lat="42.54595474382134" lon="12.0337897147922"><ele>559.0</ele><time>2026-04-28T09:26:36Z</time></trkpt><trkpt lat="42.54598451698039" lon="12.033907530568557"><ele>559.0</ele><time>2026-04-28T09:26:37Z</time></trkpt><trkpt lat="42.54601459394799" lon="12.034023105022019"><ele>559.0</ele><time>2026-04-28T09:26:38Z</time></trkpt><trkpt lat="42.54605728791601" lon="12.034125049860139"><ele>559.0</ele><time>2026-04-28T09:26:39Z</time></trkpt><trkpt lat="42.5460840264641" lon="12.034228341767248"><ele>559.0</ele><time>2026-04-28T09:26:40Z</time></trkpt><trkpt lat="42.546109444196595" lon="12.034316199919125"><ele>559.0</ele><time>2026-04-28T09:26:41Z</time></trkpt><trkpt lat="42.546126722907424" lon="12.034455411333102"><ele>559.0</ele><time>2026-04-28T09:26:43Z</time></trkpt><trkpt lat="42.546132784530045" lon="12.034546550711873"><ele>558.8</ele><time>2026-04-28T09:26:48Z</time></trkpt><trkpt lat="42.54602225260181" lon="12.034630400211675"><ele>558.5999999999999</ele><time>2026-04-28T09:26:49Z</time></trkpt><trkpt lat="42.54590422186823" lon="12.03469495723128"><ele>558.4</ele><time>2026-04-28T09:26:51Z</time></trkpt><trkpt lat="42.545835889195985" lon="12.034728125187765"><ele>558.1999999999999</ele><time>2026-04-28T09:26:52Z</time></trkpt><trkpt lat="42.54576219381531" lon="12.034762096371331"><ele>558.0</ele><time>2026-04-28T09:26:52.999Z</time></trkpt><trkpt lat="42.5456866025255" lon="12.034792614982221"><ele>558.0</ele><time>2026-04-28T09:26:53.999Z</time></trkpt><trkpt lat="42.54561686063378" lon="12.03482021983234"><ele>558.0</ele><time>2026-04-28T09:26:54.999Z</time></trkpt><trkpt lat="42.54553552039928" lon="12.034847885636461"><ele>558.0</ele><time>2026-04-28T09:26:55.999Z</time></trkpt><trkpt lat="42.545449368895866" lon="12.034872089507774"><ele>558.0</ele><time>2026-04-28T09:26:56.999Z</time></trkpt><trkpt lat="42.545359332917606" lon="12.034908021020058"><ele>558.0</ele><time>2026-04-28T09:26:57.999Z</time></trkpt><trkpt lat="42.54527161796099" lon="12.034943170821988"><ele>558.0</ele><time>2026-04-28T09:26:58.999Z</time></trkpt><trkpt lat="42.54518211684989" lon="12.034979503194197"><ele>555.8</ele><time>2026-04-28T09:26:59.999Z</time></trkpt><trkpt lat="42.54508909829315" lon="12.035013395799657"><ele>553.5999999999999</ele><time>2026-04-28T09:27:00.999Z</time></trkpt><trkpt lat="42.54499734754624" lon="12.035046592231991"><ele>551.4000000000001</ele><time>2026-04-28T09:27:01.999Z</time></trkpt><trkpt lat="42.544899211705996" lon="12.03508462189415"><ele>549.2</ele><time>2026-04-28T09:27:02.999Z</time></trkpt><trkpt lat="42.54479861337164" lon="12.03512214546485"><ele>547.0</ele><time>2026-04-28T09:27:03.999Z</time></trkpt><trkpt lat="42.54471619125891" lon="12.035191536672034"><ele>547.0</ele><time>2026-04-28T09:27:04.999Z</time></trkpt><trkpt lat="42.54460321648633" lon="12.035189538332643"><ele>547.0</ele><time>2026-04-28T09:27:05.999Z</time></trkpt><trkpt lat="42.544502857146085" lon="12.035223726259943"><ele>547.0</ele><time>2026-04-28T09:27:06.999Z</time></trkpt><trkpt lat="42.544396415775864" lon="12.03526124027717"><ele>547.0</ele><time>2026-04-28T09:27:07.999Z</time></trkpt><trkpt lat="42.54428395947045" lon="12.035304410849504"><ele>547.0</ele><time>2026-04-28T09:27:08.999Z</time></trkpt><trkpt lat="42.54417136696731" lon="12.035343931133335"><ele>546.25</ele><time>2026-04-28T09:27:09.999Z</time></trkpt><trkpt lat="42.54405316514158" lon="12.035379871956438"><ele>545.5</ele><time>2026-04-28T09:27:10.999Z</time></trkpt><trkpt lat="42.54393024671508" lon="12.035414877463063"><ele>544.75</ele><time>2026-04-28T09:27:11.999Z</time></trkpt><trkpt lat="42.54380594410708" lon="12.03545049694183"><ele>544.0</ele><time>2026-04-28T09:27:12.999Z</time></trkpt><trkpt lat="42.543682967814306" lon="12.035485978505529"><ele>544.0</ele><time>2026-04-28T09:27:13.999Z</time></trkpt><trkpt lat="42.54356166017457" lon="12.035515597916202"><ele>544.0</ele><time>2026-04-28T09:27:14.999Z</time></trkpt><trkpt lat="42.543440547165496" lon="12.035537272869332"><ele>544.0</ele><time>2026-04-28T09:27:15.999Z</time></trkpt><trkpt lat="42.54332183810517" lon="12.035548794597274"><ele>544.0</ele><time>2026-04-28T09:27:16.999Z</time></trkpt><trkpt lat="42.54320135043185" lon="12.035556611076276"><ele>544.0</ele><time>2026-04-28T09:27:17.999Z</time></trkpt><trkpt lat="42.54307932793092" lon="12.035563604907537"><ele>544.0</ele><time>2026-04-28T09:27:18.999Z</time></trkpt><trkpt lat="42.542954662861554" lon="12.035569258215757"><ele>544.0</ele><time>2026-04-28T09:27:19.999Z</time></trkpt><trkpt lat="42.542832316196844" lon="12.035573324542868"><ele>544.0</ele><time>2026-04-28T09:27:20.999Z</time></trkpt><trkpt lat="42.54271383790057" lon="12.035579355831802"><ele>544.4</ele><time>2026-04-28T09:27:21.999Z</time></trkpt><trkpt lat="42.54260229594379" lon="12.035586792917941"><ele>544.8</ele><time>2026-04-28T09:27:22.999Z</time></trkpt><trkpt lat="42.5424962702679" lon="12.03559209773102"><ele>545.2</ele><time>2026-04-28T09:27:23.999Z</time></trkpt><trkpt lat="42.54239093857853" lon="12.035594840329201"><ele>545.6</ele><time>2026-04-28T09:27:24.999Z</time></trkpt><trkpt lat="42.54229224978902" lon="12.035598560397503"><ele>546.0</ele><time>2026-04-28T09:27:25.999Z</time></trkpt><trkpt lat="42.54220446485627" lon="12.035602888962305"><ele>546.0</ele><time>2026-04-28T09:27:26.999Z</time></trkpt><trkpt lat="42.542133496353514" lon="12.035600735691567"><ele>546.0</ele><time>2026-04-28T09:27:27.999Z</time></trkpt><trkpt lat="42.54204978520371" lon="12.03564469080134"><ele>546.0</ele><time>2026-04-28T09:27:29.999Z</time></trkpt><trkpt lat="42.54206805713808" lon="12.035780520922588"><ele>546.0</ele><time>2026-04-28T09:27:32Z</time></trkpt><trkpt lat="42.54212011821181" lon="12.03585973487591"><ele>546.0</ele><time>2026-04-28T09:27:33Z</time></trkpt><trkpt lat="42.542155352453356" lon="12.035936648632081"><ele>546.0</ele><time>2026-04-28T09:27:34Z</time></trkpt><trkpt lat="42.54219373707786" lon="12.036007114427715"><ele>544.2</ele><time>2026-04-28T09:27:35Z</time></trkpt><trkpt lat="42.5422512109864" lon="12.036133593202631"><ele>542.4000000000001</ele><time>2026-04-28T09:27:37Z</time></trkpt><trkpt lat="42.54230087975274" lon="12.036201708365756"><ele>540.6</ele><time>2026-04-28T09:27:40Z</time></trkpt><trkpt lat="42.54233534684868" lon="12.036299511939156"><ele>538.8000000000001</ele><time>2026-04-28T09:30:25Z</time></trkpt><trkpt lat="42.54233482961111" lon="12.03639463473271"><ele>537.0</ele><time>2026-04-28T09:30:30Z</time></trkpt><trkpt lat="42.542210888003275" lon="12.036333355036202"><ele>537.0</ele><time>2026-04-28T09:30:33Z</time></trkpt><trkpt lat="42.5421453739702" lon="12.036287589386296"><ele>537.0</ele><time>2026-04-28T09:30:34Z</time></trkpt><trkpt lat="42.54207439708192" lon="12.036254047188613"><ele>537.0</ele><time>2026-04-28T09:30:35Z</time></trkpt><trkpt lat="42.54200263293789" lon="12.036217848065505"><ele>537.0</ele><time>2026-04-28T09:30:36Z</time></trkpt><trkpt lat="42.541927607959956" lon="12.03618259632447"><ele>537.0</ele><time>2026-04-28T09:30:37Z</time></trkpt><trkpt lat="42.541843226489064" lon="12.036145903407231"><ele>537.0</ele><time>2026-04-28T09:30:38Z</time></trkpt><trkpt lat="42.541753600105636" lon="12.036108379646071"><ele>538.0</ele><time>2026-04-28T09:30:39Z</time></trkpt><trkpt lat="42.54165634366731" lon="12.036070678974793"><ele>539.0</ele><time>2026-04-28T09:30:40Z</time></trkpt><trkpt lat="42.54155725064677" lon="12.036031322697193"><ele>540.0</ele><time>2026-04-28T09:30:41Z</time></trkpt><trkpt lat="42.541459932827244" lon="12.035999235305143"><ele>541.0</ele><time>2026-04-28T09:30:42Z</time></trkpt><trkpt lat="42.541376224620514" lon="12.035960210365735"><ele>542.0</ele><time>2026-04-28T09:30:43Z</time></trkpt><trkpt lat="42.54128691194147" lon="12.035938466904586"><ele>544.0</ele><time>2026-04-28T09:30:44Z</time></trkpt><trkpt lat="42.54119740668864" lon="12.03590873576453"><ele>546.0</ele><time>2026-04-28T09:30:45Z</time></trkpt><trkpt lat="42.541106124927936" lon="12.035897799309785"><ele>548.0</ele><time>2026-04-28T09:30:46Z</time></trkpt><trkpt lat="42.541017529398964" lon="12.035887451731673"><ele>550.0</ele><time>2026-04-28T09:30:47Z</time></trkpt><trkpt lat="42.5409336914454" lon="12.03587248511501"><ele>552.0</ele><time>2026-04-28T09:30:48Z</time></trkpt><trkpt lat="42.54084885640767" lon="12.03586229756793"><ele>554.0</ele><time>2026-04-28T09:30:49Z</time></trkpt><trkpt lat="42.540775468863956" lon="12.035851125669163"><ele>554.0</ele><time>2026-04-28T09:30:50Z</time></trkpt><trkpt lat="42.54068361660873" lon="12.035816185156047"><ele>554.0</ele><time>2026-04-28T09:30:52Z</time></trkpt><trkpt lat="42.540753226503305" lon="12.035786898413638"><ele>554.0</ele><time>2026-04-28T09:30:57Z</time></trkpt><trkpt lat="42.54079899715822" lon="12.035672562951582"><ele>554.0</ele><time>2026-04-28T09:30:58Z</time></trkpt><trkpt lat="42.54088715351747" lon="12.03570170130155"><ele>554.0</ele><time>2026-04-28T09:31:00Z</time></trkpt><trkpt lat="42.54098127433211" lon="12.035699882851782"><ele>554.0</ele><time>2026-04-28T09:31:03Z</time></trkpt><trkpt lat="42.54105754011132" lon="12.035717702499978"><ele>554.0</ele><time>2026-04-28T09:31:06Z</time></trkpt><trkpt lat="42.54108976005455" lon="12.035808531322786"><ele>554.0</ele><time>2026-04-28T09:31:09Z</time></trkpt><trkpt lat="42.54110174132089" lon="12.03590443126926"><ele>554.0</ele><time>2026-04-28T09:31:14.999Z</time></trkpt><trkpt lat="42.54108530924225" lon="12.03598994379816"><ele>554.0</ele><time>2026-04-28T09:31:17.999Z</time></trkpt><trkpt lat="42.541024072139535" lon="12.035964593692196"><ele>554.0</ele><time>2026-04-28T09:31:49Z</time></trkpt><trkpt lat="42.54096060773464" lon="12.035952611909194"><ele>554.0</ele><time>2026-04-28T09:31:57Z</time></trkpt><trkpt lat="42.54102972179599" lon="12.035982816256295"><ele>554.0</ele><time>2026-04-28T09:33:10.999Z</time></trkpt><trkpt lat="42.54110862063041" lon="12.035991384696265"><ele>554.0</ele><time>2026-04-28T09:33:32.999Z</time></trkpt><trkpt lat="42.54111353440416" lon="12.035874327965635"><ele>554.0</ele><time>2026-04-28T09:33:42.999Z</time></trkpt><trkpt lat="42.54109008272382" lon="12.035784431547649"><ele>554.0</ele><time>2026-04-28T09:33:44.999Z</time></trkpt><trkpt lat="42.54104788641153" lon="12.03569556195229"><ele>554.0</ele><time>2026-04-28T09:33:46.999Z</time></trkpt><trkpt lat="42.54099045181306" lon="12.035744526301759"><ele>554.0</ele><time>2026-04-28T09:33:49Z</time></trkpt><trkpt lat="42.54092670055871" lon="12.03574588703343"><ele>554.0</ele><time>2026-04-28T09:35:38.999Z</time></trkpt><trkpt lat="42.54102192349841" lon="12.035679875358168"><ele>554.4285714285714</ele><time>2026-04-28T09:35:41.999Z</time></trkpt><trkpt lat="42.54107748580272" lon="12.035622778678949"><ele>554.8571428571428</ele><time>2026-04-28T09:35:43.999Z</time></trkpt><trkpt lat="42.54115816072868" lon="12.03562383395688"><ele>555.2857142857142</ele><time>2026-04-28T09:35:45.999Z</time></trkpt><trkpt lat="42.54122247856403" lon="12.035603766700651"><ele>555.7142857142857</ele><time>2026-04-28T09:35:46.999Z</time></trkpt><trkpt lat="42.541287515358576" lon="12.035569049965506"><ele>556.1428571428571</ele><time>2026-04-28T09:35:47.999Z</time></trkpt><trkpt lat="42.541351085031025" lon="12.035528422474577"><ele>556.5714285714286</ele><time>2026-04-28T09:35:48.999Z</time></trkpt><trkpt lat="42.541414907983906" lon="12.035465394398695"><ele>557.0</ele><time>2026-04-28T09:35:49.999Z</time></trkpt><trkpt lat="42.54146468041087" lon="12.035385452794499"><ele>556.8333333333333</ele><time>2026-04-28T09:35:50.999Z</time></trkpt><trkpt lat="42.54150157597659" lon="12.03528158544513"><ele>556.6666666666666</ele><time>2026-04-28T09:35:51.999Z</time></trkpt><trkpt lat="42.54151058224077" lon="12.035177903121582"><ele>556.5</ele><time>2026-04-28T09:35:52.999Z</time></trkpt><trkpt lat="42.54149642980436" lon="12.03506904046864"><ele>556.3333333333334</ele><time>2026-04-28T09:35:54Z</time></trkpt><trkpt lat="42.54145193592882" lon="12.034968787164198"><ele>556.1666666666667</ele><time>2026-04-28T09:35:55Z</time></trkpt><trkpt lat="42.541396063653636" lon="12.034882612477213"><ele>556.0</ele><time>2026-04-28T09:35:56Z</time></trkpt><trkpt lat="42.54134483895934" lon="12.03479524456741"><ele>556.0</ele><time>2026-04-28T09:35:57Z</time></trkpt><trkpt lat="42.541292281333014" lon="12.034740068885817"><ele>556.0</ele><time>2026-04-28T09:35:59Z</time></trkpt><trkpt lat="42.54133027753126" lon="12.034809143203644"><ele>556.0</ele><time>2026-04-28T09:36:02Z</time></trkpt><trkpt lat="42.54123897638488" lon="12.034881166347713"><ele>556.0</ele><time>2026-04-28T09:36:03Z</time></trkpt><trkpt lat="42.541266249271835" lon="12.034761130272008"><ele>556.0</ele><time>2026-04-28T09:36:30Z</time></trkpt><trkpt lat="42.54129475896268" lon="12.034674308526327"><ele>556.0</ele><time>2026-04-28T09:36:32Z</time></trkpt><trkpt lat="42.54128741699644" lon="12.034583918234894"><ele>556.0</ele><time>2026-04-28T09:36:34Z</time></trkpt><trkpt lat="42.54131100997502" lon="12.034475394304003"><ele>556.0</ele><time>2026-04-28T09:36:37Z</time></trkpt><trkpt lat="42.54094209944915" lon="12.034065003248807"><ele>557.6666666666667</ele><time>2026-04-28T09:36:49Z</time></trkpt><trkpt lat="42.540840417406805" lon="12.03389776929493"><ele>559.3333333333334</ele><time>2026-04-28T09:36:51Z</time></trkpt><trkpt lat="42.540799030067184" lon="12.033815925157604"><ele>561.0</ele><time>2026-04-28T09:36:52Z</time></trkpt><trkpt lat="42.54075333953111" lon="12.033747039799255"><ele>562.6666666666666</ele><time>2026-04-28T09:36:53Z</time></trkpt><trkpt lat="42.54071055183679" lon="12.033682724503155"><ele>564.3333333333333</ele><time>2026-04-28T09:36:54Z</time></trkpt><trkpt lat="42.54065483102805" lon="12.033635384590017"><ele>566.0</ele><time>2026-04-28T09:36:55Z</time></trkpt><trkpt lat="42.5405705742763" lon="12.033592820782157"><ele>566.0</ele><time>2026-04-28T09:36:57Z</time></trkpt><trkpt lat="42.54051125466079" lon="12.033556687145252"><ele>566.0</ele><time>2026-04-28T09:37:08Z</time></trkpt><trkpt lat="42.5404918056343" lon="12.033471550632552"><ele>566.0</ele><time>2026-04-28T09:37:09Z</time></trkpt><trkpt lat="42.54041512497643" lon="12.03343585340315"><ele>566.0</ele><time>2026-04-28T09:37:11Z</time></trkpt><trkpt lat="42.54032605404847" lon="12.033494156199495"><ele>566.0</ele><time>2026-04-28T09:37:13Z</time></trkpt><trkpt lat="42.54026120039977" lon="12.033544205415556"><ele>566.0</ele><time>2026-04-28T09:37:15Z</time></trkpt><trkpt lat="42.54020352516598" lon="12.033587977033035"><ele>566.1666666666666</ele><time>2026-04-28T09:37:19Z</time></trkpt><trkpt lat="42.54014210490614" lon="12.033553260158593"><ele>566.3333333333333</ele><time>2026-04-28T09:37:20.999Z</time></trkpt><trkpt lat="42.54015620975911" lon="12.033394900265451"><ele>566.5</ele><time>2026-04-28T09:37:22.999Z</time></trkpt><trkpt lat="42.540226654623446" lon="12.03326787586219"><ele>566.6666666666666</ele><time>2026-04-28T09:37:24.999Z</time></trkpt><trkpt lat="42.540271761898374" lon="12.033201297359033"><ele>566.8333333333334</ele><time>2026-04-28T09:37:25.999Z</time></trkpt><trkpt lat="42.54032591698167" lon="12.033139844668806"><ele>567.0</ele><time>2026-04-28T09:37:26.999Z</time></trkpt><trkpt lat="42.540388405415776" lon="12.033079197947874"><ele>567.0</ele><time>2026-04-28T09:37:27.999Z</time></trkpt><trkpt lat="42.54045222517728" lon="12.033018390922281"><ele>567.0</ele><time>2026-04-28T09:37:28.999Z</time></trkpt><trkpt lat="42.54050731381013" lon="12.032970884356608"><ele>567.0</ele><time>2026-04-28T09:37:29.999Z</time></trkpt><trkpt lat="42.54058384614667" lon="12.032904561925065"><ele>567.0</ele><time>2026-04-28T09:37:31.999Z</time></trkpt><trkpt lat="42.54054903572226" lon="12.032756999776693"><ele>567.0</ele><time>2026-04-28T09:37:34.999Z</time></trkpt><trkpt lat="42.540485591967624" lon="12.03268868340946"><ele>567.0</ele><time>2026-04-28T09:37:36.999Z</time></trkpt><trkpt lat="42.540398228331036" lon="12.03256071856689"><ele>567.6666666666666</ele><time>2026-04-28T09:37:38.999Z</time></trkpt><trkpt lat="42.540347920327974" lon="12.032485813863321"><ele>568.3333333333334</ele><time>2026-04-28T09:37:39.999Z</time></trkpt><trkpt lat="42.540301401734396" lon="12.032408542371428"><ele>569.0</ele><time>2026-04-28T09:37:40.999Z</time></trkpt><trkpt lat="42.540251054887015" lon="12.032325561372241"><ele>569.6666666666667</ele><time>2026-04-28T09:37:41.999Z</time></trkpt><trkpt lat="42.54020720968511" lon="12.032247862950598"><ele>570.3333333333334</ele><time>2026-04-28T09:37:42.999Z</time></trkpt><trkpt lat="42.54016421446293" lon="12.032168020059558"><ele>571.0</ele><time>2026-04-28T09:37:43.999Z</time></trkpt><trkpt lat="42.540115686580066" lon="12.032085703562077"><ele>571.0</ele><time>2026-04-28T09:37:44.999Z</time></trkpt><trkpt lat="42.540067322204145" lon="12.03199924219128"><ele>571.0</ele><time>2026-04-28T09:37:45.999Z</time></trkpt><trkpt lat="42.54001573982544" lon="12.031909999239588"><ele>571.0</ele><time>2026-04-28T09:37:46.999Z</time></trkpt><trkpt lat="42.539963108349404" lon="12.031817869283204"><ele>571.0</ele><time>2026-04-28T09:37:47.999Z</time></trkpt><trkpt lat="42.539910828756234" lon="12.031720051185808"><ele>571.0</ele><time>2026-04-28T09:37:48.999Z</time></trkpt><trkpt lat="42.539862589905944" lon="12.03161995015152"><ele>571.0</ele><time>2026-04-28T09:37:49.999Z</time></trkpt><trkpt lat="42.53980893768422" lon="12.031522695674791"><ele>569.0</ele><time>2026-04-28T09:37:50.999Z</time></trkpt><trkpt lat="42.539755657869485" lon="12.03142703598331"><ele>567.0</ele><time>2026-04-28T09:37:51.999Z</time></trkpt><trkpt lat="42.53969870247952" lon="12.031335891417493"><ele>565.0</ele><time>2026-04-28T09:37:52.999Z</time></trkpt><trkpt lat="42.539638025254746" lon="12.03123741220082"><ele>563.0</ele><time>2026-04-28T09:37:53.999Z</time></trkpt><trkpt lat="42.53957901618376" lon="12.031141103140873"><ele>561.0</ele><time>2026-04-28T09:37:54.999Z</time></trkpt><trkpt lat="42.53951835150157" lon="12.031044502539855"><ele>563.8</ele><time>2026-04-28T09:37:55.999Z</time></trkpt><trkpt lat="42.5394577014426" lon="12.030945391244389"><ele>566.6</ele><time>2026-04-28T09:37:56.999Z</time></trkpt><trkpt lat="42.539393801523936" lon="12.030852696024096"><ele>569.4</ele><time>2026-04-28T09:37:57.999Z</time></trkpt><trkpt lat="42.53932885278398" lon="12.030760305400916"><ele>572.2</ele><time>2026-04-28T09:37:58.999Z</time></trkpt><trkpt lat="42.539264302440756" lon="12.030661913832441"><ele>575.0</ele><time>2026-04-28T09:38:00Z</time></trkpt><trkpt lat="42.53919814219661" lon="12.030554543308623"><ele>575.0</ele><time>2026-04-28T09:38:01Z</time></trkpt><trkpt lat="42.5391290293663" lon="12.030442563880511"><ele>575.0</ele><time>2026-04-28T09:38:02Z</time></trkpt><trkpt lat="42.53906028525806" lon="12.030326482014587"><ele>575.0</ele><time>2026-04-28T09:38:03Z</time></trkpt><trkpt lat="42.538985949545825" lon="12.030213291106817"><ele>575.0</ele><time>2026-04-28T09:38:04Z</time></trkpt><trkpt lat="42.538913772247085" lon="12.03010567674104"><ele>575.0</ele><time>2026-04-28T09:38:05Z</time></trkpt><trkpt lat="42.53884623159437" lon="12.029998653906812"><ele>574.3333333333333</ele><time>2026-04-28T09:38:06Z</time></trkpt><trkpt lat="42.538793262897855" lon="12.029910137397795"><ele>573.6666666666666</ele><time>2026-04-28T09:38:07Z</time></trkpt><trkpt lat="42.53874780166999" lon="12.029833540889513"><ele>573.0</ele><time>2026-04-28T09:38:08Z</time></trkpt><trkpt lat="42.538672022949044" lon="12.029725453694889"><ele>572.3333333333334</ele><time>2026-04-28T09:38:10Z</time></trkpt><trkpt lat="42.538590896406" lon="12.029698392635598"><ele>571.6666666666667</ele><time>2026-04-28T09:38:12Z</time></trkpt><trkpt lat="42.53856374567354" lon="12.029803599509142"><ele>571.0</ele><time>2026-04-28T09:38:15Z</time></trkpt><trkpt lat="42.5386451343649" lon="12.029908312500744"><ele>575.5</ele><time>2026-04-28T09:38:17Z</time></trkpt><trkpt lat="42.53867109586583" lon="12.030008784760351"><ele>580.0</ele><time>2026-04-28T09:38:19Z</time></trkpt><trkpt lat="42.538590372266135" lon="12.0301076844148"><ele>584.5</ele><time>2026-04-28T09:38:21Z</time></trkpt><trkpt lat="42.53855242862296" lon="12.0302058026796"><ele>589.0</ele><time>2026-04-28T09:38:23Z</time></trkpt><trkpt lat="42.53853550286659" lon="12.030291903027225"><ele>593.5</ele><time>2026-04-28T09:38:25Z</time></trkpt><trkpt lat="42.53849241926688" lon="12.030379539674927"><ele>598.0</ele><time>2026-04-28T09:38:27Z</time></trkpt><trkpt lat="42.53844437449729" lon="12.030485924533492"><ele>598.0</ele><time>2026-04-28T09:38:29Z</time></trkpt><trkpt lat="42.53840264376332" lon="12.030610184374213"><ele>598.0</ele><time>2026-04-28T09:38:31Z</time></trkpt><trkpt lat="42.53834654705668" lon="12.030727323249009"><ele>598.0</ele><time>2026-04-28T09:38:33Z</time></trkpt><trkpt lat="42.53827698469475" lon="12.030817665316588"><ele>598.0</ele><time>2026-04-28T09:38:35Z</time></trkpt><trkpt lat="42.538213410261086" lon="12.030911134655444"><ele>598.0</ele><time>2026-04-28T09:38:37Z</time></trkpt><trkpt lat="42.53813958589954" lon="12.030937186208707"><ele>598.4285714285714</ele><time>2026-04-28T09:38:41Z</time></trkpt><trkpt lat="42.538079602179224" lon="12.030857418780085"><ele>598.8571428571429</ele><time>2026-04-28T09:38:53Z</time></trkpt><trkpt lat="42.538026488110035" lon="12.030810149945417"><ele>599.2857142857142</ele><time>2026-04-28T09:38:55Z</time></trkpt><trkpt lat="42.53796125102606" lon="12.03083380100313"><ele>599.7142857142858</ele><time>2026-04-28T09:38:59Z</time></trkpt><trkpt lat="42.53787829808918" lon="12.03082367847367"><ele>600.1428571428572</ele><time>2026-04-28T09:39:04Z</time></trkpt><trkpt lat="42.537816219443165" lon="12.030788761839348"><ele>600.5714285714286</ele><time>2026-04-28T09:39:07Z</time></trkpt><trkpt lat="42.53776032212598" lon="12.030828625401858"><ele>601.0</ele><time>2026-04-28T09:39:13Z</time></trkpt><trkpt lat="42.537656884508785" lon="12.030400508028263"><ele>601.1666666666667</ele><time>2026-04-28T09:42:26.999Z</time></trkpt><trkpt lat="42.537704963289166" lon="12.030481340940822"><ele>601.3333333333334</ele><time>2026-04-28T09:44:06.999Z</time></trkpt><trkpt lat="42.53779812175614" lon="12.03051131475846"><ele>601.5</ele><time>2026-04-28T09:44:18.999Z</time></trkpt><trkpt lat="42.53780448781394" lon="12.030638058179319"><ele>601.6666666666666</ele><time>2026-04-28T09:44:21.999Z</time></trkpt><trkpt lat="42.5378526476986" lon="12.030708172342216"><ele>601.8333333333333</ele><time>2026-04-28T09:44:23.999Z</time></trkpt><trkpt lat="42.53788669350314" lon="12.030794988324306"><ele>602.0</ele><time>2026-04-28T09:44:25.999Z</time></trkpt><trkpt lat="42.53782450663252" lon="12.03084844009286"><ele>602.0</ele><time>2026-04-28T09:44:28.999Z</time></trkpt><trkpt lat="42.53775915411282" lon="12.030850434871336"><ele>602.0</ele><time>2026-04-28T09:44:55.999Z</time></trkpt><trkpt lat="42.53768800912792" lon="12.03086818962211"><ele>602.0</ele><time>2026-04-28T09:44:59.999Z</time></trkpt><trkpt lat="42.5375964953222" lon="12.030888194083568"><ele>602.0</ele><time>2026-04-28T09:45:01.999Z</time></trkpt><trkpt lat="42.53749486710143" lon="12.030903127448132"><ele>602.0</ele><time>2026-04-28T09:45:03.999Z</time></trkpt><trkpt lat="42.537369660965986" lon="12.030929453996903"><ele>602.0</ele><time>2026-04-28T09:45:05.999Z</time></trkpt><trkpt lat="42.53729605407788" lon="12.030935994470104"><ele>602.0</ele><time>2026-04-28T09:45:06.999Z</time></trkpt><trkpt lat="42.53721718251002" lon="12.030940475316497"><ele>602.0</ele><time>2026-04-28T09:45:07.999Z</time></trkpt><trkpt lat="42.53713886689891" lon="12.030940194183172"><ele>602.0</ele><time>2026-04-28T09:45:08.999Z</time></trkpt><trkpt lat="42.53706319020114" lon="12.030943952360234"><ele>602.0</ele><time>2026-04-28T09:45:09.999Z</time></trkpt><trkpt lat="42.53698927860625" lon="12.030944106538021"><ele>602.0</ele><time>2026-04-28T09:45:10.999Z</time></trkpt><trkpt lat="42.536920110089916" lon="12.03095337696822"><ele>602.5</ele><time>2026-04-28T09:45:11.999Z</time></trkpt><trkpt lat="42.536810997515616" lon="12.030972594080872"><ele>603.0</ele><time>2026-04-28T09:45:13.999Z</time></trkpt><trkpt lat="42.53673371652867" lon="12.030972336814953"><ele>603.5</ele><time>2026-04-28T09:45:15.999Z</time></trkpt><trkpt lat="42.53666527440898" lon="12.03096966341737"><ele>604.0</ele><time>2026-04-28T09:45:17.999Z</time></trkpt><trkpt lat="42.53657144560883" lon="12.03101639903467"><ele>604.5</ele><time>2026-04-28T09:45:21.999Z</time></trkpt><trkpt lat="42.53650509074113" lon="12.031005795683532"><ele>605.0</ele><time>2026-04-28T09:45:22.999Z</time></trkpt><trkpt lat="42.536378631699044" lon="12.030986814266091"><ele>605.0</ele><time>2026-04-28T09:45:24.999Z</time></trkpt><trkpt lat="42.53630567374572" lon="12.030962062436371"><ele>605.0</ele><time>2026-04-28T09:45:25.999Z</time></trkpt><trkpt lat="42.53622864320024" lon="12.030925307750284"><ele>605.0</ele><time>2026-04-28T09:45:26.999Z</time></trkpt><trkpt lat="42.53615385311011" lon="12.030871810069664"><ele>605.0</ele><time>2026-04-28T09:45:27.999Z</time></trkpt><trkpt lat="42.53608419711" lon="12.030814281457223"><ele>605.0</ele><time>2026-04-28T09:45:28.999Z</time></trkpt><trkpt lat="42.53600015858731" lon="12.030731313860201"><ele>605.0</ele><time>2026-04-28T09:45:30.999Z</time></trkpt><trkpt lat="42.5359183747418" lon="12.03066854929601"><ele>604.8333333333333</ele><time>2026-04-28T09:45:32.999Z</time></trkpt><trkpt lat="42.53580142169526" lon="12.030587767170935"><ele>604.6666666666666</ele><time>2026-04-28T09:45:34.999Z</time></trkpt><trkpt lat="42.53573437245849" lon="12.03053949634706"><ele>604.5</ele><time>2026-04-28T09:45:35.999Z</time></trkpt><trkpt lat="42.53566188949618" lon="12.030485407046196"><ele>604.3333333333334</ele><time>2026-04-28T09:45:36.999Z</time></trkpt><trkpt lat="42.535595615353905" lon="12.030432288351916"><ele>604.1666666666667</ele><time>2026-04-28T09:45:37.999Z</time></trkpt><trkpt lat="42.53555332393298" lon="12.03036243443031"><ele>604.0</ele><time>2026-04-28T09:45:38.999Z</time></trkpt><trkpt lat="42.53551893881731" lon="12.03027895147633"><ele>604.0</ele><time>2026-04-28T09:45:39.999Z</time></trkpt><trkpt lat="42.53548221332121" lon="12.030186365779933"><ele>604.0</ele><time>2026-04-28T09:45:40.999Z</time></trkpt><trkpt lat="42.53545425830487" lon="12.03008003344025"><ele>604.0</ele><time>2026-04-28T09:45:41.999Z</time></trkpt><trkpt lat="42.53543429403306" lon="12.029966072361638"><ele>604.0</ele><time>2026-04-28T09:45:42.999Z</time></trkpt><trkpt lat="42.53541897261993" lon="12.029857967306604"><ele>604.0</ele><time>2026-04-28T09:45:43.999Z</time></trkpt><trkpt lat="42.53540802200124" lon="12.02976222344774"><ele>604.0</ele><time>2026-04-28T09:45:44.999Z</time></trkpt><trkpt lat="42.535397194759234" lon="12.02967370095953"><ele>600.2</ele><time>2026-04-28T09:45:45.999Z</time></trkpt><trkpt lat="42.53537719913242" lon="12.029526554141432"><ele>596.4</ele><time>2026-04-28T09:45:47.999Z</time></trkpt><trkpt lat="42.535376134273896" lon="12.029412167616075"><ele>592.6</ele><time>2026-04-28T09:45:49.999Z</time></trkpt><trkpt lat="42.53532247634782" lon="12.02931893279375"><ele>588.8</ele><time>2026-04-28T09:45:52.999Z</time></trkpt><trkpt lat="42.53533514348474" lon="12.029412681145539"><ele>585.0</ele><time>2026-04-28T09:46:07.999Z</time></trkpt><trkpt lat="42.53535316321546" lon="12.029569616621004"><ele>585.0</ele><time>2026-04-28T09:46:09.999Z</time></trkpt><trkpt lat="42.53536752411347" lon="12.029668358770925"><ele>585.0</ele><time>2026-04-28T09:46:10.999Z</time></trkpt><trkpt lat="42.53536485356892" lon="12.029781852687027"><ele>585.0</ele><time>2026-04-28T09:46:11.999Z</time></trkpt><trkpt lat="42.535378707487055" lon="12.029904965535016"><ele>585.0</ele><time>2026-04-28T09:46:12.999Z</time></trkpt><trkpt lat="42.535395230541376" lon="12.03003413139073"><ele>585.0</ele><time>2026-04-28T09:46:13.999Z</time></trkpt><trkpt lat="42.53543679150162" lon="12.030157309558124"><ele>585.0</ele><time>2026-04-28T09:46:14.999Z</time></trkpt><trkpt lat="42.5354734366896" lon="12.030283014955536"><ele>588.8</ele><time>2026-04-28T09:46:15.999Z</time></trkpt><trkpt lat="42.53551060125649" lon="12.030402914351146"><ele>592.6</ele><time>2026-04-28T09:46:16.999Z</time></trkpt><trkpt lat="42.53557005054117" lon="12.030490578329106"><ele>596.4</ele><time>2026-04-28T09:46:17.999Z</time></trkpt><trkpt lat="42.53565089356856" lon="12.03055855099007"><ele>600.2</ele><time>2026-04-28T09:46:18.999Z</time></trkpt><trkpt lat="42.53574120295442" lon="12.030594007823188"><ele>604.0</ele><time>2026-04-28T09:46:19.999Z</time></trkpt><trkpt lat="42.53581265243276" lon="12.030670122722213"><ele>604.0</ele><time>2026-04-28T09:46:20.999Z</time></trkpt><trkpt lat="42.535890163567046" lon="12.030726337792766"><ele>604.0</ele><time>2026-04-28T09:46:21.999Z</time></trkpt><trkpt lat="42.53595405333659" lon="12.03075212770576"><ele>604.0</ele><time>2026-04-28T09:46:22.999Z</time></trkpt><trkpt lat="42.53600735231949" lon="12.030811328380688"><ele>604.0</ele><time>2026-04-28T09:46:24.999Z</time></trkpt><trkpt lat="42.53595330206446" lon="12.030755414079342"><ele>604.0</ele><time>2026-04-28T09:46:28.999Z</time></trkpt><trkpt lat="42.53597222250764" lon="12.030586635453925"><ele>604.0</ele><time>2026-04-28T09:46:29.999Z</time></trkpt><trkpt lat="42.53591140034695" lon="12.030492608430404"><ele>604.0</ele><time>2026-04-28T09:46:31.999Z</time></trkpt><trkpt lat="42.53584642498075" lon="12.030398847233698"><ele>604.0</ele><time>2026-04-28T09:46:33.999Z</time></trkpt><trkpt lat="42.53590780430402" lon="12.030313585317272"><ele>604.0</ele><time>2026-04-28T09:46:39.999Z</time></trkpt><trkpt lat="42.535969029984656" lon="12.03025698690303"><ele>604.0</ele><time>2026-04-28T09:46:41.999Z</time></trkpt><trkpt lat="42.53599078982829" lon="12.030164236900678"><ele>604.0</ele><time>2026-04-28T09:47:21.999Z</time></trkpt><trkpt lat="42.53603396742342" lon="12.030096857906049"><ele>604.0</ele><time>2026-04-28T09:48:08Z</time></trkpt><trkpt lat="42.53605378049384" lon="12.030005778559902"><ele>604.0</ele><time>2026-04-28T09:48:13Z</time></trkpt><trkpt lat="42.53605042179412" lon="12.02991450470798"><ele>604.0</ele><time>2026-04-28T09:48:19Z</time></trkpt><trkpt lat="42.53612337441464" lon="12.02998520078455"><ele>604.0</ele><time>2026-04-28T09:48:25Z</time></trkpt><trkpt lat="42.536216604373365" lon="12.029971515827263"><ele>604.0</ele><time>2026-04-28T09:48:42Z</time></trkpt><trkpt lat="42.536260748631726" lon="12.029906960544746"><ele>604.0</ele><time>2026-04-28T09:49:40Z</time></trkpt><trkpt lat="42.53626710247852" lon="12.029808810511621"><ele>604.0</ele><time>2026-04-28T09:49:43Z</time></trkpt><trkpt lat="42.53635666017017" lon="12.029876515171347"><ele>606.8333333333334</ele><time>2026-04-28T09:49:51Z</time></trkpt><trkpt lat="42.53641676100844" lon="12.029933393213566"><ele>609.6666666666667</ele><time>2026-04-28T09:49:58Z</time></trkpt><trkpt lat="42.536477251213675" lon="12.029979877363562"><ele>612.5</ele><time>2026-04-28T09:50:05Z</time></trkpt><trkpt lat="42.536552565608844" lon="12.029932606273231"><ele>615.3333333333334</ele><time>2026-04-28T09:50:16Z</time></trkpt><trkpt lat="42.53664292467738" lon="12.029928370922523"><ele>618.1666666666666</ele><time>2026-04-28T09:52:34Z</time></trkpt><trkpt lat="42.53660734123195" lon="12.030014416775114"><ele>621.0</ele><time>2026-04-28T09:52:39Z</time></trkpt><trkpt lat="42.5365878725439" lon="12.03009650910771"><ele>620.9999999999999</ele><time>2026-04-28T09:52:49Z</time></trkpt><trkpt lat="42.536534439158714" lon="12.030048451797544"><ele>621.0</ele><time>2026-04-28T09:54:27Z</time></trkpt><trkpt lat="42.53647083404585" lon="12.030011279400279"><ele>621.0</ele><time>2026-04-28T09:54:34Z</time></trkpt><trkpt lat="42.5364333679197" lon="12.029933806627124"><ele>621.0</ele><time>2026-04-28T09:54:41Z</time></trkpt><trkpt lat="42.53637116989105" lon="12.02989698306409"><ele>621.0</ele><time>2026-04-28T09:54:46Z</time></trkpt><trkpt lat="42.536308117569945" lon="12.029854854444459"><ele>620.9999999999999</ele><time>2026-04-28T09:54:53Z</time></trkpt><trkpt lat="42.53624024898834" lon="12.029882040471117"><ele>621.0</ele><time>2026-04-28T09:55:06Z</time></trkpt><trkpt lat="42.53618083815343" lon="12.029928823263258"><ele>618.1666666666666</ele><time>2026-04-28T09:55:12Z</time></trkpt><trkpt lat="42.53614904993792" lon="12.030008246156877"><ele>615.3333333333334</ele><time>2026-04-28T09:55:22Z</time></trkpt><trkpt lat="42.53610502534328" lon="12.030069600036594"><ele>612.5</ele><time>2026-04-28T09:55:40Z</time></trkpt><trkpt lat="42.53602547167607" lon="12.03016881283571"><ele>609.6666666666667</ele><time>2026-04-28T09:56:21Z</time></trkpt><trkpt lat="42.53597237321777" lon="12.030248230803272"><ele>606.8333333333334</ele><time>2026-04-28T09:57:49Z</time></trkpt><trkpt lat="42.53591079102953" lon="12.03027019227519"><ele>604.0</ele><time>2026-04-28T09:57:53Z</time></trkpt><trkpt lat="42.53583584779764" lon="12.03027895273945"><ele>604.0000000000001</ele><time>2026-04-28T09:57:57Z</time></trkpt><trkpt lat="42.53586261412003" lon="12.030369085055273"><ele>604.0</ele><time>2026-04-28T09:58:02Z</time></trkpt><trkpt lat="42.53584960815748" lon="12.03045705251951"><ele>604.0</ele><time>2026-04-28T10:04:43Z</time></trkpt><trkpt lat="42.53589802710238" lon="12.03052057480501"><ele>604.0</ele><time>2026-04-28T10:04:51Z</time></trkpt><trkpt lat="42.53593407529398" lon="12.030592663630602"><ele>604.0</ele><time>2026-04-28T10:04:59Z</time></trkpt><trkpt lat="42.53598321320841" lon="12.030648568373364"><ele>604.0000000000001</ele><time>2026-04-28T10:05:07Z</time></trkpt><trkpt lat="42.53606013606785" lon="12.030739537983578"><ele>604.0</ele><time>2026-04-28T10:08:22Z</time></trkpt><trkpt lat="42.535993545789545" lon="12.030766639916765"><ele>604.0</ele><time>2026-04-28T10:13:22.001Z</time></trkpt><trkpt lat="42.53592212064252" lon="12.030719736846173"><ele>604.0</ele><time>2026-04-28T10:13:24.001Z</time></trkpt><trkpt lat="42.535820159813504" lon="12.030640329937174"><ele>604.0</ele><time>2026-04-28T10:13:26.001Z</time></trkpt><trkpt lat="42.53575995597454" lon="12.030601124750428"><ele>604.0</ele><time>2026-04-28T10:13:27.001Z</time></trkpt><trkpt lat="42.53570102394975" lon="12.030569765839761"><ele>604.0</ele><time>2026-04-28T10:13:28.001Z</time></trkpt><trkpt lat="42.535603420638644" lon="12.030467098426305"><ele>604.0000000000001</ele><time>2026-04-28T10:13:30.001Z</time></trkpt><trkpt lat="42.535561185420505" lon="12.030400379784554"><ele>604.0</ele><time>2026-04-28T10:13:31.001Z</time></trkpt><trkpt lat="42.53552863385069" lon="12.030311692710006"><ele>604.0</ele><time>2026-04-28T10:13:32.001Z</time></trkpt><trkpt lat="42.53550442492084" lon="12.030226502355408"><ele>604.0</ele><time>2026-04-28T10:13:33.001Z</time></trkpt><trkpt lat="42.53547098173838" lon="12.03012758573305"><ele>604.0</ele><time>2026-04-28T10:13:34.001Z</time></trkpt><trkpt lat="42.53544486773969" lon="12.030020569345234"><ele>604.0000000000001</ele><time>2026-04-28T10:13:35.001Z</time></trkpt><trkpt lat="42.53543947274338" lon="12.029924952691452"><ele>604.0</ele><time>2026-04-28T10:13:36.001Z</time></trkpt><trkpt lat="42.53542590260317" lon="12.029822246345908"><ele>605.1666666666667</ele><time>2026-04-28T10:13:37.001Z</time></trkpt><trkpt lat="42.53541088378998" lon="12.0297226384908"><ele>606.3333333333334</ele><time>2026-04-28T10:13:38.001Z</time></trkpt><trkpt lat="42.535398913822476" lon="12.029624128109466"><ele>607.5</ele><time>2026-04-28T10:13:39.001Z</time></trkpt><trkpt lat="42.53538330377726" lon="12.029514424226571"><ele>608.6666666666666</ele><time>2026-04-28T10:13:39.999Z</time></trkpt><trkpt lat="42.535363679580826" lon="12.029414810730737"><ele>609.8333333333333</ele><time>2026-04-28T10:13:40.999Z</time></trkpt><trkpt lat="42.53534232412715" lon="12.029312108367769"><ele>611.0</ele><time>2026-04-28T10:13:41.999Z</time></trkpt><trkpt lat="42.53532128055658" lon="12.029208426659215"><ele>607.5714285714287</ele><time>2026-04-28T10:13:42.999Z</time></trkpt><trkpt lat="42.535309628051515" lon="12.0291069458612"><ele>604.1428571428571</ele><time>2026-04-28T10:13:43.999Z</time></trkpt><trkpt lat="42.53529481437097" lon="12.029005640499298"><ele>600.7142857142858</ele><time>2026-04-28T10:13:44.999Z</time></trkpt><trkpt lat="42.53528399525578" lon="12.028911063119125"><ele>597.2857142857143</ele><time>2026-04-28T10:13:45.999Z</time></trkpt><trkpt lat="42.53525605879797" lon="12.028812317313484"><ele>593.8571428571429</ele><time>2026-04-28T10:13:46.999Z</time></trkpt><trkpt lat="42.53523071141298" lon="12.028720364613093"><ele>590.4285714285714</ele><time>2026-04-28T10:13:47.999Z</time></trkpt><trkpt lat="42.535201216472664" lon="12.028639141175715"><ele>587.0</ele><time>2026-04-28T10:13:48.999Z</time></trkpt><trkpt lat="42.535179111032356" lon="12.028555933387576"><ele>587.0</ele><time>2026-04-28T10:13:49.999Z</time></trkpt><trkpt lat="42.53515402724531" lon="12.028471248290504"><ele>587.0</ele><time>2026-04-28T10:13:51Z</time></trkpt><trkpt lat="42.53513120815812" lon="12.028391111933127"><ele>587.0</ele><time>2026-04-28T10:13:52Z</time></trkpt><trkpt lat="42.53510015888459" lon="12.028305014716532"><ele>587.0</ele><time>2026-04-28T10:13:53Z</time></trkpt><trkpt lat="42.535060823424246" lon="12.02821270909567"><ele>587.0</ele><time>2026-04-28T10:13:54Z</time></trkpt><trkpt lat="42.53501631488789" lon="12.02811911991617"><ele>587.0</ele><time>2026-04-28T10:13:55Z</time></trkpt><trkpt lat="42.53496911914755" lon="12.028025635033218"><ele>587.0</ele><time>2026-04-28T10:13:56Z</time></trkpt><trkpt lat="42.53493105090619" lon="12.027910993888833"><ele>587.6</ele><time>2026-04-28T10:13:57Z</time></trkpt><trkpt lat="42.53489033071081" lon="12.027797551040544"><ele>588.2</ele><time>2026-04-28T10:13:58Z</time></trkpt><trkpt lat="42.53483837206711" lon="12.027690063985107"><ele>588.8</ele><time>2026-04-28T10:13:59Z</time></trkpt><trkpt lat="42.534792228731064" lon="12.027571515544286"><ele>589.4</ele><time>2026-04-28T10:14:00Z</time></trkpt><trkpt lat="42.53474282570602" lon="12.027453134664745"><ele>590.0</ele><time>2026-04-28T10:14:01Z</time></trkpt><trkpt lat="42.53469069480699" lon="12.02733415876225"><ele>590.8</ele><time>2026-04-28T10:14:02Z</time></trkpt><trkpt lat="42.53464052370793" lon="12.027215217124786"><ele>591.6</ele><time>2026-04-28T10:14:03Z</time></trkpt><trkpt lat="42.53458854235297" lon="12.027094244193277"><ele>592.4</ele><time>2026-04-28T10:14:04Z</time></trkpt><trkpt lat="42.53452697787278" lon="12.026984686198626"><ele>593.2</ele><time>2026-04-28T10:14:05Z</time></trkpt><trkpt lat="42.53447314186983" lon="12.026859374618818"><ele>594.0</ele><time>2026-04-28T10:14:06Z</time></trkpt><trkpt lat="42.53442193337462" lon="12.026732789746648"><ele>591.8</ele><time>2026-04-28T10:14:07Z</time></trkpt><trkpt lat="42.53437111769515" lon="12.026607525347877"><ele>589.5999999999999</ele><time>2026-04-28T10:14:08Z</time></trkpt><trkpt lat="42.5343160785792" lon="12.026481365628575"><ele>587.4</ele><time>2026-04-28T10:14:09Z</time></trkpt><trkpt lat="42.53426543353458" lon="12.026357057805532"><ele>585.1999999999999</ele><time>2026-04-28T10:14:10Z</time></trkpt><trkpt lat="42.5342226817371" lon="12.026253540746914"><ele>583.0</ele><time>2026-04-28T10:14:11Z</time></trkpt><trkpt lat="42.53417639905839" lon="12.026127023369838"><ele>583.0</ele><time>2026-04-28T10:14:12Z</time></trkpt><trkpt lat="42.534131226289134" lon="12.026024910197552"><ele>583.0</ele><time>2026-04-28T10:14:13Z</time></trkpt><trkpt lat="42.5340933133836" lon="12.02593233000948"><ele>583.0</ele><time>2026-04-28T10:14:14Z</time></trkpt><trkpt lat="42.534057391585456" lon="12.025853344548864"><ele>583.0</ele><time>2026-04-28T10:14:15Z</time></trkpt><trkpt lat="42.53400565446649" lon="12.025716362640695"><ele>583.0</ele><time>2026-04-28T10:14:17Z</time></trkpt><trkpt lat="42.53410414764754" lon="12.025654204138899"><ele>583.0</ele><time>2026-04-28T10:14:22Z</time></trkpt><trkpt lat="42.53417010931713" lon="12.02567800039894"><ele>583.0</ele><time>2026-04-28T10:14:23Z</time></trkpt><trkpt lat="42.53423570029481" lon="12.02570283545027"><ele>583.0</ele><time>2026-04-28T10:14:24Z</time></trkpt><trkpt lat="42.53434541522872" lon="12.025738303435705"><ele>583.0</ele><time>2026-04-28T10:14:26.001Z</time></trkpt><trkpt lat="42.53446344228944" lon="12.025789813592157"><ele>583.0</ele><time>2026-04-28T10:14:28.001Z</time></trkpt><trkpt lat="42.53452901284603" lon="12.025818087540312"><ele>583.0</ele><time>2026-04-28T10:14:29.001Z</time></trkpt><trkpt lat="42.534600378150984" lon="12.025847443604798"><ele>584.1666666666667</ele><time>2026-04-28T10:14:30.001Z</time></trkpt><trkpt lat="42.534670716088854" lon="12.025875860260935"><ele>585.3333333333334</ele><time>2026-04-28T10:14:31.001Z</time></trkpt><trkpt lat="42.53474078631903" lon="12.025909541174649"><ele>586.5</ele><time>2026-04-28T10:14:32.001Z</time></trkpt><trkpt lat="42.53481437463292" lon="12.025937796527524"><ele>587.6666666666666</ele><time>2026-04-28T10:14:33.001Z</time></trkpt><trkpt lat="42.534889058275375" lon="12.025970150497189"><ele>588.8333333333333</ele><time>2026-04-28T10:14:34.001Z</time></trkpt><trkpt lat="42.53495971171043" lon="12.026013893023856"><ele>590.0</ele><time>2026-04-28T10:14:35.001Z</time></trkpt><trkpt lat="42.53504134649946" lon="12.026049112738042"><ele>590.0</ele><time>2026-04-28T10:14:36.001Z</time></trkpt><trkpt lat="42.53512490399138" lon="12.02608726740564"><ele>590.0</ele><time>2026-04-28T10:14:37.001Z</time></trkpt><trkpt lat="42.53521125079157" lon="12.026124024338129"><ele>590.0</ele><time>2026-04-28T10:14:38.001Z</time></trkpt><trkpt lat="42.53529341690946" lon="12.026161154995203"><ele>590.0</ele><time>2026-04-28T10:14:39.001Z</time></trkpt><trkpt lat="42.53537181834273" lon="12.026193257356693"><ele>590.0</ele><time>2026-04-28T10:14:40.001Z</time></trkpt><trkpt lat="42.53545040151722" lon="12.026228490525883"><ele>590.0</ele><time>2026-04-28T10:14:41.001Z</time></trkpt><trkpt lat="42.535528436283776" lon="12.026262540116237"><ele>590.1428571428572</ele><time>2026-04-28T10:14:42.001Z</time></trkpt><trkpt lat="42.5355998852186" lon="12.026297402110043"><ele>590.2857142857143</ele><time>2026-04-28T10:14:43.001Z</time></trkpt><trkpt lat="42.535668075622354" lon="12.026327795093458"><ele>590.4285714285714</ele><time>2026-04-28T10:14:44.001Z</time></trkpt><trkpt lat="42.53573687499735" lon="12.026357811337267"><ele>590.5714285714287</ele><time>2026-04-28T10:14:45.001Z</time></trkpt><trkpt lat="42.535803440861805" lon="12.026396219493943"><ele>590.7142857142858</ele><time>2026-04-28T10:14:46.001Z</time></trkpt><trkpt lat="42.53587282844312" lon="12.026432995030447"><ele>590.8571428571429</ele><time>2026-04-28T10:14:47.001Z</time></trkpt><trkpt lat="42.53593513736347" lon="12.026473162767255"><ele>591.0</ele><time>2026-04-28T10:14:48.001Z</time></trkpt><trkpt lat="42.535995214720586" lon="12.026515737518544"><ele>591.0</ele><time>2026-04-28T10:14:49.001Z</time></trkpt><trkpt lat="42.536089823051654" lon="12.02659348112404"><ele>591.0</ele><time>2026-04-28T10:14:51.001Z</time></trkpt><trkpt lat="42.53600377261205" lon="12.026871856226592"><ele>591.0</ele><time>2026-04-28T10:15:00.001Z</time></trkpt><trkpt lat="42.53609943583516" lon="12.027031520240936"><ele>592.0</ele><time>2026-04-28T10:15:02.001Z</time></trkpt><trkpt lat="42.53612370433475" lon="12.027127544707808"><ele>593.0</ele><time>2026-04-28T10:15:04.001Z</time></trkpt><trkpt lat="42.53612375807489" lon="12.027235299550668"><ele>594.0</ele><time>2026-04-28T10:15:09.001Z</time></trkpt><trkpt lat="42.53628776359775" lon="12.02724388407982"><ele>595.0</ele><time>2026-04-28T10:15:13.001Z</time></trkpt><trkpt lat="42.53638299384775" lon="12.027273497840351"><ele>596.0</ele><time>2026-04-28T10:15:15.001Z</time></trkpt><trkpt lat="42.53644785275161" lon="12.027296380773596"><ele>596.0</ele><time>2026-04-28T10:15:16.001Z</time></trkpt><trkpt lat="42.53652069221903" lon="12.02732632436972"><ele>596.0</ele><time>2026-04-28T10:15:17.001Z</time></trkpt><trkpt lat="42.536584559752534" lon="12.027359500150052"><ele>596.0</ele><time>2026-04-28T10:15:18.001Z</time></trkpt><trkpt lat="42.536647640682745" lon="12.02740470314747"><ele>596.0</ele><time>2026-04-28T10:15:19.001Z</time></trkpt><trkpt lat="42.53671364263137" lon="12.027497746074596"><ele>596.0</ele><time>2026-04-28T10:15:21.002Z</time></trkpt><trkpt lat="42.5367713629373" lon="12.027546933393648"><ele>596.0</ele><time>2026-04-28T10:15:24.002Z</time></trkpt><trkpt lat="42.53686035819843" lon="12.027520488992645"><ele>600.6666666666666</ele><time>2026-04-28T10:16:24.001Z</time></trkpt><trkpt lat="42.53682293889356" lon="12.02762755023324"><ele>605.3333333333333</ele><time>2026-04-28T10:19:29.002Z</time></trkpt><trkpt lat="42.53674849204681" lon="12.027588950576659"><ele>610.0</ele><time>2026-04-28T10:19:31.002Z</time></trkpt><trkpt lat="42.53667750757533" lon="12.027527674075877"><ele>614.6666666666666</ele><time>2026-04-28T10:19:33.002Z</time></trkpt><trkpt lat="42.536587744322674" lon="12.027491708766624"><ele>619.3333333333334</ele><time>2026-04-28T10:19:35.002Z</time></trkpt><trkpt lat="42.53650037394977" lon="12.027527337815123"><ele>624.0</ele><time>2026-04-28T10:19:37.002Z</time></trkpt><trkpt lat="42.536426206463666" lon="12.027602290718974"><ele>624.0</ele><time>2026-04-28T10:19:39.002Z</time></trkpt><trkpt lat="42.53636913325435" lon="12.027695850305175"><ele>624.0</ele><time>2026-04-28T10:19:41.002Z</time></trkpt><trkpt lat="42.53639995865538" lon="12.02761743774853"><ele>624.0</ele><time>2026-04-28T10:20:20.001Z</time></trkpt><trkpt lat="42.53636962828188" lon="12.027695145810492"><ele>624.0</ele><time>2026-04-28T10:21:23.002Z</time></trkpt><trkpt lat="42.536329030417825" lon="12.027802249336363"><ele>624.0</ele><time>2026-04-28T10:21:25.002Z</time></trkpt><trkpt lat="42.536288100772104" lon="12.027915237210259"><ele>624.0</ele><time>2026-04-28T10:21:27.002Z</time></trkpt><trkpt lat="42.53627197723588" lon="12.028016108794512"><ele>624.0</ele><time>2026-04-28T10:21:29.002Z</time></trkpt><trkpt lat="42.536246041598694" lon="12.028121971171483"><ele>624.0</ele><time>2026-04-28T10:21:31.002Z</time></trkpt><trkpt lat="42.53622676139656" lon="12.028207889822001"><ele>624.0</ele><time>2026-04-28T10:21:33.002Z</time></trkpt><trkpt lat="42.536236283404676" lon="12.028084971142425"><ele>624.0</ele><time>2026-04-28T10:22:08.001Z</time></trkpt><trkpt lat="42.53625434161697" lon="12.027967349980987"><ele>624.0</ele><time>2026-04-28T10:22:11.001Z</time></trkpt><trkpt lat="42.53628286266083" lon="12.02785672643632"><ele>624.0</ele><time>2026-04-28T10:22:14.001Z</time></trkpt><trkpt lat="42.53633003841006" lon="12.027754195483553"><ele>624.0</ele><time>2026-04-28T10:22:17.001Z</time></trkpt><trkpt lat="42.53637361635606" lon="12.027658942650781"><ele>624.0</ele><time>2026-04-28T10:22:20.001Z</time></trkpt><trkpt lat="42.53643006734605" lon="12.027578684717344"><ele>624.0</ele><time>2026-04-28T10:24:42.001Z</time></trkpt><trkpt lat="42.536493274060575" lon="12.027535685124498"><ele>624.0</ele><time>2026-04-28T10:24:44.001Z</time></trkpt><trkpt lat="42.5365708230522" lon="12.027496743145289"><ele>624.0</ele><time>2026-04-28T10:24:46.001Z</time></trkpt><trkpt lat="42.536656230215755" lon="12.027503141620226"><ele>624.0</ele><time>2026-04-28T10:24:48.001Z</time></trkpt><trkpt lat="42.53674067827094" lon="12.027528796957226"><ele>624.0</ele><time>2026-04-28T10:24:50.001Z</time></trkpt><trkpt lat="42.53680704022057" lon="12.027558402239322"><ele>624.0</ele><time>2026-04-28T10:24:52.001Z</time></trkpt><trkpt lat="42.53687663299061" lon="12.027576806064733"><ele>624.0</ele><time>2026-04-28T10:24:54.001Z</time></trkpt><trkpt lat="42.5369570055747" lon="12.027614446101849"><ele>624.0</ele><time>2026-04-28T10:24:56.001Z</time></trkpt><trkpt lat="42.53703536576896" lon="12.027695906878636"><ele>624.0</ele><time>2026-04-28T10:24:58.001Z</time></trkpt><trkpt lat="42.537111286111184" lon="12.027785546185887"><ele>624.0</ele><time>2026-04-28T10:25:00.001Z</time></trkpt><trkpt lat="42.53716818070207" lon="12.027926582249265"><ele>621.8333333333334</ele><time>2026-04-28T10:25:02.001Z</time></trkpt><trkpt lat="42.53719902554856" lon="12.028002194627183"><ele>619.6666666666666</ele><time>2026-04-28T10:25:03.001Z</time></trkpt><trkpt lat="42.53723786511003" lon="12.02807704479989"><ele>617.5</ele><time>2026-04-28T10:25:04.001Z</time></trkpt><trkpt lat="42.53727609341302" lon="12.028159670524083"><ele>615.3333333333333</ele><time>2026-04-28T10:25:05.001Z</time></trkpt><trkpt lat="42.537337177524876" lon="12.02829151897837"><ele>613.1666666666666</ele><time>2026-04-28T10:25:07.001Z</time></trkpt><trkpt lat="42.53738102149495" lon="12.028409867284548"><ele>611.0</ele><time>2026-04-28T10:25:09.001Z</time></trkpt><trkpt lat="42.53743583112388" lon="12.028502780163564"><ele>611.0000000000001</ele><time>2026-04-28T10:25:11.001Z</time></trkpt><trkpt lat="42.53748211889431" lon="12.02859370673311"><ele>611.0</ele><time>2026-04-28T10:25:13.001Z</time></trkpt><trkpt lat="42.53751433897236" lon="12.02869227178058"><ele>611.0</ele><time>2026-04-28T10:25:15.001Z</time></trkpt><trkpt lat="42.53753504460796" lon="12.028777028623352"><ele>611.0</ele><time>2026-04-28T10:25:18.001Z</time></trkpt><trkpt lat="42.53751360580294" lon="12.028690389444073"><ele>611.0</ele><time>2026-04-28T10:25:31.001Z</time></trkpt><trkpt lat="42.53753014811911" lon="12.028606873261056"><ele>611.0000000000001</ele><time>2026-04-28T10:25:32.001Z</time></trkpt><trkpt lat="42.53756555975159" lon="12.028507108706698"><ele>611.0</ele><time>2026-04-28T10:25:33.001Z</time></trkpt><trkpt lat="42.537526957039624" lon="12.028395692026246"><ele>605.75</ele><time>2026-04-28T10:25:35.001Z</time></trkpt><trkpt lat="42.537482948868515" lon="12.028273139570814"><ele>600.5</ele><time>2026-04-28T10:25:37.001Z</time></trkpt><trkpt lat="42.53742667655921" lon="12.028135663824678"><ele>595.25</ele><time>2026-04-28T10:25:39.001Z</time></trkpt><trkpt lat="42.53736599102335" lon="12.027996059785314"><ele>590.0</ele><time>2026-04-28T10:25:41.001Z</time></trkpt><trkpt lat="42.537303203469925" lon="12.027850892419936"><ele>590.0</ele><time>2026-04-28T10:25:43.001Z</time></trkpt><trkpt lat="42.537268858056166" lon="12.027778792707787"><ele>590.0</ele><time>2026-04-28T10:25:44.001Z</time></trkpt><trkpt lat="42.53723155112666" lon="12.027703062197897"><ele>590.0</ele><time>2026-04-28T10:25:45.001Z</time></trkpt><trkpt lat="42.537150264721916" lon="12.027568425157275"><ele>590.0</ele><time>2026-04-28T10:25:47.001Z</time></trkpt><trkpt lat="42.53709418621615" lon="12.027504332944071"><ele>590.0</ele><time>2026-04-28T10:25:48.001Z</time></trkpt><trkpt lat="42.53701845112101" lon="12.027421345061908"><ele>590.0</ele><time>2026-04-28T10:25:50.001Z</time></trkpt><trkpt lat="42.53681800900462" lon="12.027644526258797"><ele>594.8571428571429</ele><time>2026-04-28T10:25:54.001Z</time></trkpt><trkpt lat="42.5367866289237" lon="12.027725215780873"><ele>599.7142857142858</ele><time>2026-04-28T10:26:17.001Z</time></trkpt><trkpt lat="42.5367226469718" lon="12.02768619459901"><ele>604.5714285714287</ele><time>2026-04-28T10:26:21.001Z</time></trkpt><trkpt lat="42.53678101820885" lon="12.027734573219952"><ele>609.4285714285714</ele><time>2026-04-28T10:27:17.001Z</time></trkpt><trkpt lat="42.53684303999562" lon="12.027778388621142"><ele>614.2857142857142</ele><time>2026-04-28T10:27:23.001Z</time></trkpt><trkpt lat="42.53689814466391" lon="12.02784706417474"><ele>619.1428571428572</ele><time>2026-04-28T10:27:31.001Z</time></trkpt><trkpt lat="42.536923826119555" lon="12.027927266230009"><ele>624.0</ele><time>2026-04-28T10:27:38.001Z</time></trkpt><trkpt lat="42.536949229083305" lon="12.02800664404861"><ele>624.0</ele><time>2026-04-28T10:27:45.001Z</time></trkpt><trkpt lat="42.53697940999861" lon="12.028088958061042"><ele>624.0</ele><time>2026-04-28T10:27:54.001Z</time></trkpt><trkpt lat="42.53700594246216" lon="12.028170166516308"><ele>624.0</ele><time>2026-04-28T10:28:01.001Z</time></trkpt><trkpt lat="42.537022119841595" lon="12.028261726768434"><ele>624.0</ele><time>2026-04-28T10:28:09.001Z</time></trkpt><trkpt lat="42.53704901982371" lon="12.02834407822887"><ele>624.0</ele><time>2026-04-28T10:28:17.001Z</time></trkpt><trkpt lat="42.5370831717076" lon="12.028427484867624"><ele>624.0</ele><time>2026-04-28T10:28:25Z</time></trkpt><trkpt lat="42.53711272804468" lon="12.028504913221605"><ele>624.0</ele><time>2026-04-28T10:28:32Z</time></trkpt><trkpt lat="42.537132252205105" lon="12.02858930564337"><ele>625.5714285714286</ele><time>2026-04-28T10:28:41Z</time></trkpt><trkpt lat="42.53714486931257" lon="12.028678896408298"><ele>627.1428571428571</ele><time>2026-04-28T10:28:55.001Z</time></trkpt><trkpt lat="42.53713693984088" lon="12.028771777536297"><ele>628.7142857142857</ele><time>2026-04-28T10:29:06.001Z</time></trkpt><trkpt lat="42.53707295754467" lon="12.028762429521912"><ele>630.2857142857142</ele><time>2026-04-28T10:36:01.001Z</time></trkpt><trkpt lat="42.53700534864475" lon="12.028734746629803"><ele>631.8571428571429</ele><time>2026-04-28T10:36:08.001Z</time></trkpt><trkpt lat="42.536943621570046" lon="12.028696703696367"><ele>633.4285714285713</ele><time>2026-04-28T10:36:14.001Z</time></trkpt><trkpt lat="42.53691101828026" lon="12.028618870365424"><ele>635.0</ele><time>2026-04-28T10:36:24.001Z</time></trkpt><trkpt lat="42.536894085144205" lon="12.028515879085393"><ele>635.0</ele><time>2026-04-28T10:36:31.001Z</time></trkpt><trkpt lat="42.53683829932401" lon="12.028469983464426"><ele>635.0</ele><time>2026-04-28T10:36:44.001Z</time></trkpt><trkpt lat="42.53673840144632" lon="12.028365058523008"><ele>635.0</ele><time>2026-04-28T10:37:11.001Z</time></trkpt><trkpt lat="42.53677012157056" lon="12.028459522020157"><ele>635.0</ele><time>2026-04-28T10:39:32Z</time></trkpt><trkpt lat="42.536736270945795" lon="12.028539115367987"><ele>635.0</ele><time>2026-04-28T10:39:40Z</time></trkpt><trkpt lat="42.536688081606094" lon="12.028611036225094"><ele>635.0</ele><time>2026-04-28T10:39:47Z</time></trkpt><trkpt lat="42.53663211147061" lon="12.028654951271232"><ele>634.9999999999999</ele><time>2026-04-28T10:39:53Z</time></trkpt><trkpt lat="42.53657987937936" lon="12.028716013543685"><ele>635.0</ele><time>2026-04-28T10:40:00Z</time></trkpt><trkpt lat="42.5365164415029" lon="12.028709508315705"><ele>635.0</ele><time>2026-04-28T10:40:09Z</time></trkpt><trkpt lat="42.53658343823215" lon="12.028730654992266"><ele>635.0</ele><time>2026-04-28T10:44:15Z</time></trkpt><trkpt lat="42.536639693444286" lon="12.028687635619361"><ele>635.0</ele><time>2026-04-28T10:44:23.001Z</time></trkpt><trkpt lat="42.53670140119499" lon="12.028631125575709"><ele>634.9999999999999</ele><time>2026-04-28T10:44:30.001Z</time></trkpt><trkpt lat="42.53672829231072" lon="12.028553600413547"><ele>635.0</ele><time>2026-04-28T10:44:39.001Z</time></trkpt><trkpt lat="42.53676836731944" lon="12.028484544634395"><ele>634.9999999999999</ele><time>2026-04-28T10:44:47.001Z</time></trkpt><trkpt lat="42.53683121999702" lon="12.028421748504522"><ele>635.0</ele><time>2026-04-28T10:45:14Z</time></trkpt><trkpt lat="42.53688075031982" lon="12.028355850507554"><ele>635.0</ele><time>2026-04-28T10:45:21Z</time></trkpt><trkpt lat="42.5369448801217" lon="12.028327335866466"><ele>635.0</ele><time>2026-04-28T10:45:30Z</time></trkpt><trkpt lat="42.53701054674321" lon="12.02835917804544"><ele>635.0</ele><time>2026-04-28T10:45:37Z</time></trkpt><trkpt lat="42.53704971487629" lon="12.028434521867299"><ele>634.9999999999999</ele><time>2026-04-28T10:45:45Z</time></trkpt><trkpt lat="42.53709482503374" lon="12.028499711006909"><ele>635.0</ele><time>2026-04-28T10:45:54Z</time></trkpt><trkpt lat="42.53710672118504" lon="12.028587094757027"><ele>634.9999999999999</ele><time>2026-04-28T10:46:27.001Z</time></trkpt><trkpt lat="42.537138521299575" lon="12.028665685079304"><ele>635.0</ele><time>2026-04-28T10:46:35.001Z</time></trkpt><trkpt lat="42.53714062685843" lon="12.02857305420161"><ele>635.0</ele><time>2026-04-28T10:47:01.001Z</time></trkpt><trkpt lat="42.53709792903619" lon="12.02849497816435"><ele>635.0</ele><time>2026-04-28T10:47:09.001Z</time></trkpt><trkpt lat="42.537060803408274" lon="12.028418689120734"><ele>635.0</ele><time>2026-04-28T10:47:16Z</time></trkpt><trkpt lat="42.537038318040366" lon="12.028323446330791"><ele>634.9999999999999</ele><time>2026-04-28T10:47:24Z</time></trkpt><trkpt lat="42.53700645673268" lon="12.028240063619387"><ele>635.0</ele><time>2026-04-28T10:47:32Z</time></trkpt><trkpt lat="42.53699769320644" lon="12.028148761272606"><ele>633.4285714285713</ele><time>2026-04-28T10:47:39Z</time></trkpt><trkpt lat="42.53696749373141" lon="12.02805902190369"><ele>631.8571428571429</ele><time>2026-04-28T10:47:46Z</time></trkpt><trkpt lat="42.5369516350783" lon="12.027974126762984"><ele>630.2857142857142</ele><time>2026-04-28T10:47:53Z</time></trkpt><trkpt lat="42.5369276177199" lon="12.027885534068655"><ele>628.7142857142857</ele><time>2026-04-28T10:48:00Z</time></trkpt><trkpt lat="42.53688712896103" lon="12.027816274603545"><ele>627.1428571428571</ele><time>2026-04-28T10:48:07Z</time></trkpt><trkpt lat="42.536830567666776" lon="12.027765848192244"><ele>625.5714285714286</ele><time>2026-04-28T10:48:14Z</time></trkpt><trkpt lat="42.536778263910925" lon="12.02771337853962"><ele>624.0</ele><time>2026-04-28T10:48:21Z</time></trkpt><trkpt lat="42.536710212367886" lon="12.027701771029415"><ele>624.0</ele><time>2026-04-28T10:48:31Z</time></trkpt><trkpt lat="42.53668704250304" lon="12.027613697195424"><ele>624.0</ele><time>2026-04-28T10:49:17.999Z</time></trkpt><trkpt lat="42.53669160374299" lon="12.027520880623715"><ele>624.0</ele><time>2026-04-28T10:50:23Z</time></trkpt><trkpt lat="42.536674517329566" lon="12.027437529916554"><ele>624.0</ele><time>2026-04-28T10:50:29Z</time></trkpt><trkpt lat="42.5367087792709" lon="12.027340828764842"><ele>624.0</ele><time>2026-04-28T10:50:52Z</time></trkpt><trkpt lat="42.53669614325603" lon="12.02744231975537"><ele>624.0</ele><time>2026-04-28T10:52:43Z</time></trkpt><trkpt lat="42.53668040151634" lon="12.027538195554754"><ele>624.0</ele><time>2026-04-28T10:52:50Z</time></trkpt><trkpt lat="42.53667908227975" lon="12.027636409556965"><ele>624.0</ele><time>2026-04-28T10:52:57.001Z</time></trkpt><trkpt lat="42.53669104612961" lon="12.027547995862278"><ele>624.0</ele><time>2026-04-28T10:58:35Z</time></trkpt><trkpt lat="42.536790415445715" lon="12.027530398115994"><ele>624.0</ele><time>2026-04-28T10:58:37Z</time></trkpt><trkpt lat="42.53689523667775" lon="12.027570646893256"><ele>624.0</ele><time>2026-04-28T10:58:39Z</time></trkpt><trkpt lat="42.53698014533047" lon="12.027647519772078"><ele>624.0</ele><time>2026-04-28T10:58:41Z</time></trkpt><trkpt lat="42.537017893780224" lon="12.02771717079946"><ele>624.0</ele><time>2026-04-28T10:58:42Z</time></trkpt><trkpt lat="42.537074021344935" lon="12.02780035913111"><ele>621.8333333333334</ele><time>2026-04-28T10:58:43Z</time></trkpt><trkpt lat="42.53711377678652" lon="12.027891178566376"><ele>619.6666666666666</ele><time>2026-04-28T10:58:44Z</time></trkpt><trkpt lat="42.53715791821121" lon="12.027980350314676"><ele>617.5</ele><time>2026-04-28T10:58:45Z</time></trkpt><trkpt lat="42.53720784341683" lon="12.02807186013539"><ele>615.3333333333333</ele><time>2026-04-28T10:58:46Z</time></trkpt><trkpt lat="42.537260230257665" lon="12.028163380534217"><ele>613.1666666666666</ele><time>2026-04-28T10:58:47Z</time></trkpt><trkpt lat="42.53729773671359" lon="12.028253848072334"><ele>611.0</ele><time>2026-04-28T10:58:48Z</time></trkpt><trkpt lat="42.537330886109686" lon="12.02834067221713"><ele>611.0</ele><time>2026-04-28T10:58:49Z</time></trkpt><trkpt lat="42.53738387408877" lon="12.028453704764264"><ele>611.0</ele><time>2026-04-28T10:58:51Z</time></trkpt><trkpt lat="42.537446064017495" lon="12.028504618266076"><ele>611.0</ele><time>2026-04-28T10:59:16.001Z</time></trkpt><trkpt lat="42.5375031404387" lon="12.028392199653805"><ele>611.0</ele><time>2026-04-28T10:59:19.001Z</time></trkpt><trkpt lat="42.53747932088345" lon="12.02831146117321"><ele>611.0</ele><time>2026-04-28T10:59:20.001Z</time></trkpt><trkpt lat="42.537434614023795" lon="12.028238191230109"><ele>611.0</ele><time>2026-04-28T10:59:21.001Z</time></trkpt><trkpt lat="42.537396152041296" lon="12.028154741517787"><ele>607.5</ele><time>2026-04-28T10:59:22.001Z</time></trkpt><trkpt lat="42.53735786746251" lon="12.028065126370326"><ele>604.0</ele><time>2026-04-28T10:59:23.001Z</time></trkpt><trkpt lat="42.53731750460439" lon="12.027974167906088"><ele>600.5</ele><time>2026-04-28T10:59:24.001Z</time></trkpt><trkpt lat="42.5372764758865" lon="12.027882304291891"><ele>597.0</ele><time>2026-04-28T10:59:25.001Z</time></trkpt><trkpt lat="42.53723431508247" lon="12.027786231475698"><ele>593.5</ele><time>2026-04-28T10:59:26.001Z</time></trkpt><trkpt lat="42.537186918975564" lon="12.027689884336846"><ele>590.0</ele><time>2026-04-28T10:59:27.001Z</time></trkpt><trkpt lat="42.537130835503376" lon="12.027598506772202"><ele>590.0</ele><time>2026-04-28T10:59:28.001Z</time></trkpt><trkpt lat="42.53706703617196" lon="12.027515877895842"><ele>590.0</ele><time>2026-04-28T10:59:29.001Z</time></trkpt><trkpt lat="42.53699647671796" lon="12.027440104461485"><ele>590.0</ele><time>2026-04-28T10:59:30.001Z</time></trkpt><trkpt lat="42.53692200100188" lon="12.027366975933642"><ele>590.0</ele><time>2026-04-28T10:59:31.001Z</time></trkpt><trkpt lat="42.53684962147505" lon="12.027293170413012"><ele>590.0</ele><time>2026-04-28T10:59:32.001Z</time></trkpt><trkpt lat="42.53678462713516" lon="12.027234583153184"><ele>590.0</ele><time>2026-04-28T10:59:33.001Z</time></trkpt><trkpt lat="42.536728784131014" lon="12.027175787038566"><ele>591.2</ele><time>2026-04-28T10:59:34.001Z</time></trkpt><trkpt lat="42.53667852399207" lon="12.02711797955509"><ele>592.4</ele><time>2026-04-28T10:59:35.001Z</time></trkpt><trkpt lat="42.536594754449254" lon="12.02702756538429"><ele>593.6</ele><time>2026-04-28T10:59:37.001Z</time></trkpt><trkpt lat="42.536541313745374" lon="12.026932278768273"><ele>594.8</ele><time>2026-04-28T10:59:39.001Z</time></trkpt><trkpt lat="42.5364818940231" lon="12.026821719146668"><ele>596.0</ele><time>2026-04-28T10:59:41.001Z</time></trkpt><trkpt lat="42.536436746511725" lon="12.026718941348804"><ele>596.0</ele><time>2026-04-28T10:59:42.001Z</time></trkpt><trkpt lat="42.536360782247826" lon="12.026668589491889"><ele>596.0</ele><time>2026-04-28T10:59:43.001Z</time></trkpt><trkpt lat="42.536272393737704" lon="12.026616908851821"><ele>596.0</ele><time>2026-04-28T10:59:44.001Z</time></trkpt><trkpt lat="42.536201443452455" lon="12.02660222009879"><ele>596.0</ele><time>2026-04-28T10:59:45.001Z</time></trkpt><trkpt lat="42.53610334891844" lon="12.026536590913947"><ele>596.0</ele><time>2026-04-28T10:59:47Z</time></trkpt><trkpt lat="42.53600359748188" lon="12.026477600805583"><ele>595.1666666666666</ele><time>2026-04-28T10:59:49Z</time></trkpt><trkpt lat="42.535946156804826" lon="12.026435497729391"><ele>594.3333333333333</ele><time>2026-04-28T10:59:50Z</time></trkpt><trkpt lat="42.53588424887399" lon="12.026390047913"><ele>593.5</ele><time>2026-04-28T10:59:51Z</time></trkpt><trkpt lat="42.53580334054958" lon="12.026345699567191"><ele>592.6666666666666</ele><time>2026-04-28T10:59:52Z</time></trkpt><trkpt lat="42.53571375826624" lon="12.026303106075988"><ele>591.8333333333334</ele><time>2026-04-28T10:59:53Z</time></trkpt><trkpt lat="42.53561209967101" lon="12.026262710001344"><ele>591.0</ele><time>2026-04-28T10:59:54Z</time></trkpt><trkpt lat="42.535507867308155" lon="12.026212843438573"><ele>591.0</ele><time>2026-04-28T10:59:55Z</time></trkpt><trkpt lat="42.53540009705893" lon="12.026169207478574"><ele>591.0</ele><time>2026-04-28T10:59:56Z</time></trkpt><trkpt lat="42.53529513696877" lon="12.026129400649902"><ele>591.0</ele><time>2026-04-28T10:59:57Z</time></trkpt><trkpt lat="42.535186983933585" lon="12.026080227281534"><ele>591.0</ele><time>2026-04-28T10:59:58Z</time></trkpt><trkpt lat="42.53507736025693" lon="12.026035131075625"><ele>590.8</ele><time>2026-04-28T10:59:59Z</time></trkpt><trkpt lat="42.53496963431737" lon="12.025986455563027"><ele>590.6</ele><time>2026-04-28T11:00:00Z</time></trkpt><trkpt lat="42.5348628635644" lon="12.025932055529925"><ele>590.4</ele><time>2026-04-28T11:00:01Z</time></trkpt><trkpt lat="42.534757789567124" lon="12.025886393035234"><ele>590.2</ele><time>2026-04-28T11:00:02Z</time></trkpt><trkpt lat="42.53465969434704" lon="12.025844533452526"><ele>590.0</ele><time>2026-04-28T11:00:03Z</time></trkpt><trkpt lat="42.53455939431598" lon="12.025800525952775"><ele>585.4</ele><time>2026-04-28T11:00:04Z</time></trkpt><trkpt lat="42.534460337046056" lon="12.025758267735856"><ele>580.8</ele><time>2026-04-28T11:00:05Z</time></trkpt><trkpt lat="42.5343666282773" lon="12.025719965243624"><ele>576.2</ele><time>2026-04-28T11:00:06Z</time></trkpt><trkpt lat="42.53427094146682" lon="12.025684209699675"><ele>571.6</ele><time>2026-04-28T11:00:07Z</time></trkpt><trkpt lat="42.534182656012156" lon="12.02564800652976"><ele>567.0</ele><time>2026-04-28T11:00:08Z</time></trkpt><trkpt lat="42.53409598199426" lon="12.02561533815008"><ele>567.0</ele><time>2026-04-28T11:00:09Z</time></trkpt><trkpt lat="42.53401600357149" lon="12.025590382036036"><ele>567.0</ele><time>2026-04-28T11:00:10Z</time></trkpt><trkpt lat="42.53394282164765" lon="12.025571954664455"><ele>567.0</ele><time>2026-04-28T11:00:11Z</time></trkpt><trkpt lat="42.53387284476662" lon="12.02555064725168"><ele>567.0</ele><time>2026-04-28T11:00:12Z</time></trkpt><trkpt lat="42.533800223105416" lon="12.02552046308279"><ele>567.0</ele><time>2026-04-28T11:00:13Z</time></trkpt><trkpt lat="42.53371633049573" lon="12.025519164900219"><ele>567.0</ele><time>2026-04-28T11:00:14Z</time></trkpt><trkpt lat="42.53362205957655" lon="12.025439342213991"><ele>567.2</ele><time>2026-04-28T11:00:15Z</time></trkpt><trkpt lat="42.53352938661608" lon="12.025390675551796"><ele>567.4000000000001</ele><time>2026-04-28T11:00:16Z</time></trkpt><trkpt lat="42.53342797486221" lon="12.025335202894862"><ele>567.5999999999999</ele><time>2026-04-28T11:00:17Z</time></trkpt><trkpt lat="42.533321771431964" lon="12.025267334278363"><ele>567.8</ele><time>2026-04-28T11:00:18Z</time></trkpt><trkpt lat="42.53321252880905" lon="12.025190761141438"><ele>568.0</ele><time>2026-04-28T11:00:19Z</time></trkpt><trkpt lat="42.533102081614956" lon="12.025102739177516"><ele>568.0</ele><time>2026-04-28T11:00:20Z</time></trkpt><trkpt lat="42.532993942140244" lon="12.025003101388998"><ele>568.0</ele><time>2026-04-28T11:00:21Z</time></trkpt><trkpt lat="42.53288584677324" lon="12.024898367520425"><ele>568.0</ele><time>2026-04-28T11:00:22Z</time></trkpt><trkpt lat="42.532774259935145" lon="12.024795427607744"><ele>568.0</ele><time>2026-04-28T11:00:23Z</time></trkpt><trkpt lat="42.53265833441391" lon="12.024694136499024"><ele>566.25</ele><time>2026-04-28T11:00:24Z</time></trkpt><trkpt lat="42.532539844306754" lon="12.024598269022386"><ele>564.5</ele><time>2026-04-28T11:00:25Z</time></trkpt><trkpt lat="42.53242536402564" lon="12.024509437273938"><ele>562.75</ele><time>2026-04-28T11:00:26.001Z</time></trkpt><trkpt lat="42.5323091150708" lon="12.02443152127668"><ele>561.0</ele><time>2026-04-28T11:00:27.001Z</time></trkpt><trkpt lat="42.53219329741503" lon="12.024361468574282"><ele>561.0</ele><time>2026-04-28T11:00:28.001Z</time></trkpt><trkpt lat="42.532081553769196" lon="12.024292623592135"><ele>561.0</ele><time>2026-04-28T11:00:29.001Z</time></trkpt><trkpt lat="42.531971145706315" lon="12.024229438594721"><ele>561.0</ele><time>2026-04-28T11:00:30.001Z</time></trkpt><trkpt lat="42.53186244953326" lon="12.024165564845513"><ele>561.0</ele><time>2026-04-28T11:00:31.001Z</time></trkpt><trkpt lat="42.53175471891392" lon="12.024104545656808"><ele>559.25</ele><time>2026-04-28T11:00:32.001Z</time></trkpt><trkpt lat="42.53164406281761" lon="12.024037286353987"><ele>557.5</ele><time>2026-04-28T11:00:33.001Z</time></trkpt><trkpt lat="42.53153619916096" lon="12.023948966646406"><ele>555.75</ele><time>2026-04-28T11:00:34.001Z</time></trkpt><trkpt lat="42.53143638363071" lon="12.023839562083742"><ele>554.0</ele><time>2026-04-28T11:00:35.001Z</time></trkpt><trkpt lat="42.531305585991134" lon="12.023776439589433"><ele>554.0</ele><time>2026-04-28T11:00:36.001Z</time></trkpt><trkpt lat="42.53123337831847" lon="12.023586424127771"><ele>554.0</ele><time>2026-04-28T11:00:37.001Z</time></trkpt><trkpt lat="42.53113027047427" lon="12.02344416619024"><ele>554.0</ele><time>2026-04-28T11:00:38.001Z</time></trkpt><trkpt lat="42.53102185347081" lon="12.023297256981825"><ele>555.0</ele><time>2026-04-28T11:00:39.001Z</time></trkpt><trkpt lat="42.530915088529696" lon="12.02313933190158"><ele>556.0</ele><time>2026-04-28T11:00:40.001Z</time></trkpt><trkpt lat="42.53080021916443" lon="12.022983436500795"><ele>557.0</ele><time>2026-04-28T11:00:41.001Z</time></trkpt><trkpt lat="42.530687430318245" lon="12.022816565028469"><ele>557.0</ele><time>2026-04-28T11:00:42.001Z</time></trkpt><trkpt lat="42.530579693844096" lon="12.022646909998539"><ele>557.0</ele><time>2026-04-28T11:00:43.001Z</time></trkpt><trkpt lat="42.5304679907111" lon="12.022478556219848"><ele>557.0</ele><time>2026-04-28T11:00:44.001Z</time></trkpt><trkpt lat="42.53035593558672" lon="12.022310524103816"><ele>555.0</ele><time>2026-04-28T11:00:45.001Z</time></trkpt><trkpt lat="42.53024922964809" lon="12.022148505489744"><ele>553.0</ele><time>2026-04-28T11:00:46.001Z</time></trkpt><trkpt lat="42.53015064895125" lon="12.021992022405726"><ele>551.0</ele><time>2026-04-28T11:00:47.001Z</time></trkpt><trkpt lat="42.53005921572268" lon="12.021846981826284"><ele>551.0</ele><time>2026-04-28T11:00:48.001Z</time></trkpt><trkpt lat="42.529970146077424" lon="12.02171210608909"><ele>551.0</ele><time>2026-04-28T11:00:49.001Z</time></trkpt><trkpt lat="42.52989025034124" lon="12.02158534534851"><ele>551.0</ele><time>2026-04-28T11:00:50.001Z</time></trkpt><trkpt lat="42.52982024168551" lon="12.021462049037229"><ele>551.0</ele><time>2026-04-28T11:00:51.001Z</time></trkpt><trkpt lat="42.529765348470306" lon="12.021344396598396"><ele>549.8</ele><time>2026-04-28T11:00:52.001Z</time></trkpt><trkpt lat="42.52973081930393" lon="12.021223711702259"><ele>548.6</ele><time>2026-04-28T11:00:53.001Z</time></trkpt><trkpt lat="42.52971295601288" lon="12.02109787866748"><ele>547.4</ele><time>2026-04-28T11:00:54.001Z</time></trkpt><trkpt lat="42.52970859779234" lon="12.020958574481954"><ele>546.2</ele><time>2026-04-28T11:00:55.001Z</time></trkpt><trkpt lat="42.52972705525299" lon="12.020815416674877"><ele>545.0</ele><time>2026-04-28T11:00:56.001Z</time></trkpt><trkpt lat="42.5297616333402" lon="12.020682637953572"><ele>544.0</ele><time>2026-04-28T11:00:57.001Z</time></trkpt><trkpt lat="42.529807649882265" lon="12.020540200182902"><ele>543.0</ele><time>2026-04-28T11:00:58.001Z</time></trkpt><trkpt lat="42.52986270637224" lon="12.020381501856493"><ele>542.0</ele><time>2026-04-28T11:00:59.001Z</time></trkpt><trkpt lat="42.52991546725693" lon="12.02021212672447"><ele>541.0</ele><time>2026-04-28T11:01:00.001Z</time></trkpt><trkpt lat="42.529953876441944" lon="12.020043156759407"><ele>541.4</ele><time>2026-04-28T11:01:01.001Z</time></trkpt><trkpt lat="42.529970508032" lon="12.019884747973784"><ele>541.8</ele><time>2026-04-28T11:01:02.001Z</time></trkpt><trkpt lat="42.52996854503028" lon="12.019734752505345"><ele>542.1999999999999</ele><time>2026-04-28T11:01:03.001Z</time></trkpt><trkpt lat="42.52994210226093" lon="12.019597735998516"><ele>542.6</ele><time>2026-04-28T11:01:04.001Z</time></trkpt><trkpt lat="42.52990072884419" lon="12.01947857930857"><ele>543.0</ele><time>2026-04-28T11:01:05.001Z</time></trkpt><trkpt lat="42.52985479984673" lon="12.0193732580656"><ele>543.0</ele><time>2026-04-28T11:01:06.001Z</time></trkpt><trkpt lat="42.52979841481897" lon="12.01927094823978"><ele>543.0</ele><time>2026-04-28T11:01:07.001Z</time></trkpt><trkpt lat="42.52974662235584" lon="12.019173275747335"><ele>543.0</ele><time>2026-04-28T11:01:08.001Z</time></trkpt><trkpt lat="42.52969115166867" lon="12.019071832450013"><ele>543.0</ele><time>2026-04-28T11:01:09.001Z</time></trkpt><trkpt lat="42.52963354154277" lon="12.018962544754297"><ele>543.0</ele><time>2026-04-28T11:01:10.001Z</time></trkpt><trkpt lat="42.52957658403809" lon="12.018845342883129"><ele>543.75</ele><time>2026-04-28T11:01:11.001Z</time></trkpt><trkpt lat="42.52951498582691" lon="12.018724458902911"><ele>544.5</ele><time>2026-04-28T11:01:12.001Z</time></trkpt><trkpt lat="42.52945180175155" lon="12.018596492760631"><ele>545.25</ele><time>2026-04-28T11:01:13.001Z</time></trkpt><trkpt lat="42.52938216510587" lon="12.01846769957767"><ele>546.0</ele><time>2026-04-28T11:01:14.001Z</time></trkpt><trkpt lat="42.529311205619734" lon="12.018333950214402"><ele>545.25</ele><time>2026-04-28T11:01:15.001Z</time></trkpt><trkpt lat="42.52924504517327" lon="12.018191328679581"><ele>544.5</ele><time>2026-04-28T11:01:16.001Z</time></trkpt><trkpt lat="42.52917952333367" lon="12.018045374627707"><ele>543.75</ele><time>2026-04-28T11:01:17.001Z</time></trkpt><trkpt lat="42.52912136313425" lon="12.017895137536703"><ele>543.0</ele><time>2026-04-28T11:01:18.001Z</time></trkpt><trkpt lat="42.52906567795318" lon="12.017751999295125"><ele>543.0</ele><time>2026-04-28T11:01:19.001Z</time></trkpt><trkpt lat="42.5290122041312" lon="12.017612572991661"><ele>543.0</ele><time>2026-04-28T11:01:20.001Z</time></trkpt><trkpt lat="42.52896456029488" lon="12.017470794384653"><ele>543.0</ele><time>2026-04-28T11:01:21.001Z</time></trkpt><trkpt lat="42.528922162206776" lon="12.017326489266932"><ele>543.0</ele><time>2026-04-28T11:01:22.001Z</time></trkpt><trkpt lat="42.528889299988634" lon="12.017192554454319"><ele>543.0</ele><time>2026-04-28T11:01:23.001Z</time></trkpt><trkpt lat="42.528860407390866" lon="12.017067651519952"><ele>542.8333333333334</ele><time>2026-04-28T11:01:24.001Z</time></trkpt><trkpt lat="42.528835650561525" lon="12.016955408427895"><ele>542.6666666666666</ele><time>2026-04-28T11:01:25.001Z</time></trkpt><trkpt lat="42.528815595655104" lon="12.016850239871323"><ele>542.5</ele><time>2026-04-28T11:01:26.001Z</time></trkpt><trkpt lat="42.5287963527487" lon="12.016755868528264"><ele>542.3333333333333</ele><time>2026-04-28T11:01:27.001Z</time></trkpt><trkpt lat="42.52876650164681" lon="12.016597196170734"><ele>542.1666666666666</ele><time>2026-04-28T11:01:29.001Z</time></trkpt><trkpt lat="42.528750378302334" lon="12.016510625412803"><ele>542.0</ele><time>2026-04-28T11:01:30.001Z</time></trkpt><trkpt lat="42.52873167027468" lon="12.016404923399968"><ele>539.8000000000001</ele><time>2026-04-28T11:01:31.001Z</time></trkpt><trkpt lat="42.528708980429776" lon="12.016286016290534"><ele>537.6</ele><time>2026-04-28T11:01:32.001Z</time></trkpt><trkpt lat="42.52868447973693" lon="12.016163471566937"><ele>535.4000000000001</ele><time>2026-04-28T11:01:33.001Z</time></trkpt><trkpt lat="42.52865939140766" lon="12.016030838292059"><ele>533.2</ele><time>2026-04-28T11:01:34.001Z</time></trkpt><trkpt lat="42.528633135580115" lon="12.015889135780304"><ele>531.0</ele><time>2026-04-28T11:01:35.001Z</time></trkpt><trkpt lat="42.52860728699308" lon="12.015737189793636"><ele>530.5</ele><time>2026-04-28T11:01:36.001Z</time></trkpt><trkpt lat="42.528577860528515" lon="12.015578634097032"><ele>530.0</ele><time>2026-04-28T11:01:37.001Z</time></trkpt><trkpt lat="42.52854781461899" lon="12.015414026454826"><ele>529.5</ele><time>2026-04-28T11:01:38.001Z</time></trkpt><trkpt lat="42.52851509121382" lon="12.015247697230974"><ele>529.0</ele><time>2026-04-28T11:01:39.001Z</time></trkpt><trkpt lat="42.52848062502295" lon="12.015085185966562"><ele>529.5</ele><time>2026-04-28T11:01:40.001Z</time></trkpt><trkpt lat="42.52844550378827" lon="12.014923998754194"><ele>530.0</ele><time>2026-04-28T11:01:41.001Z</time></trkpt><trkpt lat="42.52841083234651" lon="12.014762146337622"><ele>530.5</ele><time>2026-04-28T11:01:42.001Z</time></trkpt><trkpt lat="42.528377877617956" lon="12.014598070195236"><ele>531.0</ele><time>2026-04-28T11:01:43.001Z</time></trkpt><trkpt lat="42.528341484233664" lon="12.014435266958081"><ele>531.0</ele><time>2026-04-28T11:01:44.001Z</time></trkpt><trkpt lat="42.52830616864057" lon="12.01427401639565"><ele>531.0</ele><time>2026-04-28T11:01:45.001Z</time></trkpt><trkpt lat="42.5282703589708" lon="12.014121766044243"><ele>531.0</ele><time>2026-04-28T11:01:46.001Z</time></trkpt><trkpt lat="42.52823788172014" lon="12.013970081525411"><ele>531.0</ele><time>2026-04-28T11:01:47.001Z</time></trkpt><trkpt lat="42.528203680237525" lon="12.013809052900402"><ele>531.0</ele><time>2026-04-28T11:01:48.001Z</time></trkpt><trkpt lat="42.52817465280909" lon="12.0136473914977"><ele>531.0</ele><time>2026-04-28T11:01:49.001Z</time></trkpt><trkpt lat="42.528138063906034" lon="12.013486372788604"><ele>531.0</ele><time>2026-04-28T11:01:50.001Z</time></trkpt><trkpt lat="42.528104977116925" lon="12.013337213118541"><ele>531.0</ele><time>2026-04-28T11:01:51.001Z</time></trkpt><trkpt lat="42.52808031657028" lon="12.013202855812233"><ele>528.5</ele><time>2026-04-28T11:01:52.001Z</time></trkpt><trkpt lat="42.52805008449169" lon="12.013069919723796"><ele>526.0</ele><time>2026-04-28T11:01:53.001Z</time></trkpt><trkpt lat="42.52801360999635" lon="12.012915093258883"><ele>523.5</ele><time>2026-04-28T11:01:54.001Z</time></trkpt><trkpt lat="42.5279805401782" lon="12.012752187594632"><ele>521.0</ele><time>2026-04-28T11:01:55.001Z</time></trkpt><trkpt lat="42.52794625448622" lon="12.012587352832314"><ele>522.0</ele><time>2026-04-28T11:01:56.001Z</time></trkpt><trkpt lat="42.52791328796422" lon="12.012423075733496"><ele>523.0</ele><time>2026-04-28T11:01:57.001Z</time></trkpt><trkpt lat="42.52787747487486" lon="12.01226853312197"><ele>524.0</ele><time>2026-04-28T11:01:58.001Z</time></trkpt><trkpt lat="42.527841300280656" lon="12.012120120818054"><ele>525.0</ele><time>2026-04-28T11:01:59.001Z</time></trkpt><trkpt lat="42.52780838083693" lon="12.011968683566437"><ele>525.0</ele><time>2026-04-28T11:02:00.001Z</time></trkpt><trkpt lat="42.527776746780354" lon="12.01180670984671"><ele>525.0</ele><time>2026-04-28T11:02:01.001Z</time></trkpt><trkpt lat="42.52774575028266" lon="12.0116393449424"><ele>525.0</ele><time>2026-04-28T11:02:02.001Z</time></trkpt><trkpt lat="42.52770895526121" lon="12.011463484882837"><ele>525.0</ele><time>2026-04-28T11:02:03.001Z</time></trkpt><trkpt lat="42.52767183274277" lon="12.01127516387613"><ele>523.25</ele><time>2026-04-28T11:02:04.001Z</time></trkpt><trkpt lat="42.52762963447768" lon="12.011089395208"><ele>521.5</ele><time>2026-04-28T11:02:05.001Z</time></trkpt><trkpt lat="42.527589227979306" lon="12.010900572508595"><ele>519.75</ele><time>2026-04-28T11:02:06.001Z</time></trkpt><trkpt lat="42.52754936900247" lon="12.010722601948906"><ele>518.0</ele><time>2026-04-28T11:02:07.001Z</time></trkpt><trkpt lat="42.527514397903055" lon="12.010552574228905"><ele>515.75</ele><time>2026-04-28T11:02:08.001Z</time></trkpt><trkpt lat="42.527477267851566" lon="12.010390837214146"><ele>513.5</ele><time>2026-04-28T11:02:09.001Z</time></trkpt><trkpt lat="42.52744512898748" lon="12.010235540101288"><ele>511.25</ele><time>2026-04-28T11:02:10.001Z</time></trkpt><trkpt lat="42.52741647994449" lon="12.010084699756318"><ele>509.0</ele><time>2026-04-28T11:02:11.001Z</time></trkpt><trkpt lat="42.52739008745513" lon="12.009938762171297"><ele>507.6</ele><time>2026-04-28T11:02:12.001Z</time></trkpt><trkpt lat="42.5273609268665" lon="12.009797479950283"><ele>506.2</ele><time>2026-04-28T11:02:13.001Z</time></trkpt><trkpt lat="42.527330550679835" lon="12.009662957118847"><ele>504.80000000000007</ele><time>2026-04-28T11:02:14.001Z</time></trkpt><trkpt lat="42.52730359188622" lon="12.009531175626883"><ele>503.40000000000003</ele><time>2026-04-28T11:02:15.001Z</time></trkpt><trkpt lat="42.52727974316147" lon="12.009402294372167"><ele>502.0</ele><time>2026-04-28T11:02:16.001Z</time></trkpt><trkpt lat="42.52725456723889" lon="12.0092763878297"><ele>502.40000000000003</ele><time>2026-04-28T11:02:17.001Z</time></trkpt><trkpt lat="42.52722864951346" lon="12.009150326127282"><ele>502.80000000000007</ele><time>2026-04-28T11:02:18.001Z</time></trkpt><trkpt lat="42.527205912166345" lon="12.009019904542956"><ele>503.2</ele><time>2026-04-28T11:02:19.001Z</time></trkpt><trkpt lat="42.527190425221555" lon="12.008887615691222"><ele>503.6</ele><time>2026-04-28T11:02:20.001Z</time></trkpt><trkpt lat="42.52719250783653" lon="12.00875607259648"><ele>504.0</ele><time>2026-04-28T11:02:21.001Z</time></trkpt><trkpt lat="42.52720582532467" lon="12.008615820700683"><ele>504.0</ele><time>2026-04-28T11:02:22.001Z</time></trkpt><trkpt lat="42.52722953373202" lon="12.008472820572562"><ele>504.0</ele><time>2026-04-28T11:02:23.001Z</time></trkpt><trkpt lat="42.527263944264405" lon="12.008347710563715"><ele>504.0</ele><time>2026-04-28T11:02:24.001Z</time></trkpt><trkpt lat="42.527306190491366" lon="12.008242314463425"><ele>504.0</ele><time>2026-04-28T11:02:25.001Z</time></trkpt><trkpt lat="42.527356289876245" lon="12.00815781688948"><ele>504.0</ele><time>2026-04-28T11:02:26.001Z</time></trkpt><trkpt lat="42.527413832888655" lon="12.008090528163235"><ele>505.8333333333333</ele><time>2026-04-28T11:02:27.001Z</time></trkpt><trkpt lat="42.527463942263736" lon="12.00803602272498"><ele>507.66666666666663</ele><time>2026-04-28T11:02:28.001Z</time></trkpt><trkpt lat="42.5275656155352" lon="12.007935207541129"><ele>509.5</ele><time>2026-04-28T11:02:30.001Z</time></trkpt><trkpt lat="42.52759908256549" lon="12.007857787333455"><ele>511.3333333333333</ele><time>2026-04-28T11:02:31.001Z</time></trkpt><trkpt lat="42.527668795641816" lon="12.00776156706303"><ele>513.1666666666666</ele><time>2026-04-28T11:02:33.001Z</time></trkpt><trkpt lat="42.52771474431724" lon="12.007698699747685"><ele>515.0</ele><time>2026-04-28T11:02:36.001Z</time></trkpt><trkpt lat="42.527739269709386" lon="12.00761559288821"><ele>515.0</ele><time>2026-04-28T11:03:04.001Z</time></trkpt><trkpt lat="42.52764651470518" lon="12.007559662924235"><ele>515.0</ele><time>2026-04-28T11:03:16.001Z</time></trkpt><trkpt lat="42.52759715822274" lon="12.007495771479633"><ele>515.0</ele><time>2026-04-28T11:03:22.001Z</time></trkpt><trkpt lat="42.52756082960977" lon="12.00741210538252"><ele>515.0</ele><time>2026-04-28T11:03:32.001Z</time></trkpt><trkpt lat="42.52760986086398" lon="12.007352810091204"><ele>515.0</ele><time>2026-04-28T11:03:44.001Z</time></trkpt><trkpt lat="42.52766925959452" lon="12.00730095651731"><ele>515.0</ele><time>2026-04-28T11:03:51.001Z</time></trkpt><trkpt lat="42.52771716379867" lon="12.007245054602834"><ele>515.0</ele><time>2026-04-28T11:03:57.001Z</time></trkpt><trkpt lat="42.527756924399604" lon="12.00716881132249"><ele>515.0</ele><time>2026-04-28T11:04:04.001Z</time></trkpt><trkpt lat="42.527780264439365" lon="12.007252815526769"><ele>515.0</ele><time>2026-04-28T11:04:33.001Z</time></trkpt><trkpt lat="42.52782096820915" lon="12.007319478996799"><ele>515.0</ele><time>2026-04-28T11:04:46.001Z</time></trkpt><trkpt lat="42.527818504694956" lon="12.007410548425105"><ele>515.0</ele><time>2026-04-28T11:05:21.001Z</time></trkpt><trkpt lat="42.52782714948303" lon="12.007506404284685"><ele>515.0</ele><time>2026-04-28T11:05:26.001Z</time></trkpt><trkpt lat="42.52780339992562" lon="12.00758743074753"><ele>515.0</ele><time>2026-04-28T11:05:34.001Z</time></trkpt><trkpt lat="42.527747929463445" lon="12.007653157842899"><ele>515.0</ele><time>2026-04-28T11:06:44.001Z</time></trkpt><trkpt lat="42.52778778783506" lon="12.007557425360526"><ele>515.5</ele><time>2026-04-28T11:08:44.001Z</time></trkpt><trkpt lat="42.52781056550957" lon="12.007474333744373"><ele>516.0</ele><time>2026-04-28T11:08:45.001Z</time></trkpt><trkpt lat="42.5278179098436" lon="12.00737723916449"><ele>516.5</ele><time>2026-04-28T11:08:46.001Z</time></trkpt><trkpt lat="42.52780315869387" lon="12.007269536301527"><ele>517.0</ele><time>2026-04-28T11:08:47.001Z</time></trkpt><trkpt lat="42.52775692072902" lon="12.00715683471725"><ele>517.5</ele><time>2026-04-28T11:08:48.001Z</time></trkpt><trkpt lat="42.52771032741088" lon="12.007066359962048"><ele>518.0</ele><time>2026-04-28T11:08:49.001Z</time></trkpt><trkpt lat="42.52767217028555" lon="12.006997595268375"><ele>518.0</ele><time>2026-04-28T11:08:50.001Z</time></trkpt><trkpt lat="42.52761813330323" lon="12.006924346406942"><ele>518.0</ele><time>2026-04-28T11:08:52.001Z</time></trkpt><trkpt lat="42.527525193004394" lon="12.00689635778664"><ele>518.0</ele><time>2026-04-28T11:08:59.001Z</time></trkpt><trkpt lat="42.52752816528256" lon="12.007141048319776"><ele>518.0</ele><time>2026-04-28T11:09:00.001Z</time></trkpt><trkpt lat="42.52751309155245" lon="12.007253902732536"><ele>518.0</ele><time>2026-04-28T11:09:01.001Z</time></trkpt><trkpt lat="42.52747723411083" lon="12.007393869653907"><ele>517.25</ele><time>2026-04-28T11:09:02Z</time></trkpt><trkpt lat="42.52743910328382" lon="12.007538635366465"><ele>516.5</ele><time>2026-04-28T11:09:03Z</time></trkpt><trkpt lat="42.52739878046075" lon="12.007693986359321"><ele>515.75</ele><time>2026-04-28T11:09:04Z</time></trkpt><trkpt lat="42.52735782543918" lon="12.007852858589299"><ele>515.0</ele><time>2026-04-28T11:09:05Z</time></trkpt><trkpt lat="42.527316741463466" lon="12.007999984307677"><ele>515.0</ele><time>2026-04-28T11:09:06Z</time></trkpt><trkpt lat="42.527279006292154" lon="12.008135707070949"><ele>515.0</ele><time>2026-04-28T11:09:07Z</time></trkpt><trkpt lat="42.52724861620107" lon="12.008247223514251"><ele>515.0</ele><time>2026-04-28T11:09:08Z</time></trkpt><trkpt lat="42.527225544300364" lon="12.008329645151534"><ele>515.0</ele><time>2026-04-28T11:09:09Z</time></trkpt><trkpt lat="42.52715278472979" lon="12.008448173928686"><ele>515.0</ele><time>2026-04-28T11:09:11Z</time></trkpt><trkpt lat="42.526979538139784" lon="12.008461457180063"><ele>515.5</ele><time>2026-04-28T11:09:13Z</time></trkpt><trkpt lat="42.52687744723129" lon="12.008434020751201"><ele>516.0</ele><time>2026-04-28T11:09:14Z</time></trkpt><trkpt lat="42.526756869250384" lon="12.008390713703031"><ele>516.5</ele><time>2026-04-28T11:09:15Z</time></trkpt><trkpt lat="42.52662028270032" lon="12.008332196898216"><ele>517.0</ele><time>2026-04-28T11:09:16Z</time></trkpt><trkpt lat="42.526470838699744" lon="12.008272627392804"><ele>517.0</ele><time>2026-04-28T11:09:17Z</time></trkpt><trkpt lat="42.5263136838036" lon="12.008210368116368"><ele>517.0</ele><time>2026-04-28T11:09:18Z</time></trkpt><trkpt lat="42.52614532779461" lon="12.00814009491677"><ele>517.0</ele><time>2026-04-28T11:09:19Z</time></trkpt><trkpt lat="42.52597234455556" lon="12.008070670334906"><ele>514.6666666666667</ele><time>2026-04-28T11:09:20Z</time></trkpt><trkpt lat="42.52579595898349" lon="12.00800301216949"><ele>512.3333333333334</ele><time>2026-04-28T11:09:21Z</time></trkpt><trkpt lat="42.525618659382936" lon="12.007926559719309"><ele>510.0</ele><time>2026-04-28T11:09:22.001Z</time></trkpt><trkpt lat="42.52544520657651" lon="12.00785434664114"><ele>508.0</ele><time>2026-04-28T11:09:23.001Z</time></trkpt><trkpt lat="42.52528222792649" lon="12.007786846684501"><ele>506.0</ele><time>2026-04-28T11:09:24.001Z</time></trkpt><trkpt lat="42.52512645784604" lon="12.007720044479836"><ele>504.0</ele><time>2026-04-28T11:09:25.001Z</time></trkpt><trkpt lat="42.524968518003256" lon="12.007644985271074"><ele>504.0</ele><time>2026-04-28T11:09:26.001Z</time></trkpt><trkpt lat="42.5248093285597" lon="12.007547378585485"><ele>504.0</ele><time>2026-04-28T11:09:27.001Z</time></trkpt><trkpt lat="42.52464090529549" lon="12.00742357941566"><ele>504.0</ele><time>2026-04-28T11:09:28.001Z</time></trkpt><trkpt lat="42.524467941659196" lon="12.007286535433858"><ele>505.33333333333337</ele><time>2026-04-28T11:09:29.001Z</time></trkpt><trkpt lat="42.524317807181326" lon="12.007155455384424"><ele>506.6666666666667</ele><time>2026-04-28T11:09:30.001Z</time></trkpt><trkpt lat="42.524178806716336" lon="12.007046838323294"><ele>508.0</ele><time>2026-04-28T11:09:31.001Z</time></trkpt><trkpt lat="42.52404145509656" lon="12.006963972532951"><ele>508.0</ele><time>2026-04-28T11:09:32.001Z</time></trkpt><trkpt lat="42.523905928248944" lon="12.006904080236936"><ele>508.0</ele><time>2026-04-28T11:09:33.001Z</time></trkpt><trkpt lat="42.52377895983929" lon="12.00687462859969"><ele>508.0</ele><time>2026-04-28T11:09:34.001Z</time></trkpt><trkpt lat="42.52365927543311" lon="12.006866159413265"><ele>508.0</ele><time>2026-04-28T11:09:35.001Z</time></trkpt><trkpt lat="42.52354736634221" lon="12.00687106179526"><ele>506.59999999999997</ele><time>2026-04-28T11:09:36.001Z</time></trkpt><trkpt lat="42.52344691215577" lon="12.006895826649128"><ele>505.19999999999993</ele><time>2026-04-28T11:09:37.001Z</time></trkpt><trkpt lat="42.52336823263507" lon="12.006943413573252"><ele>503.8</ele><time>2026-04-28T11:09:38.001Z</time></trkpt><trkpt lat="42.52329242562472" lon="12.007027165043027"><ele>502.4</ele><time>2026-04-28T11:09:39.001Z</time></trkpt><trkpt lat="42.52322296812246" lon="12.007125684797469"><ele>501.0</ele><time>2026-04-28T11:09:40.001Z</time></trkpt><trkpt lat="42.52315340161233" lon="12.007224589657579"><ele>501.0</ele><time>2026-04-28T11:09:41.001Z</time></trkpt><trkpt lat="42.52308110542661" lon="12.00730504771865"><ele>501.0</ele><time>2026-04-28T11:09:42.001Z</time></trkpt><trkpt lat="42.523004405060206" lon="12.007379087743656"><ele>501.0</ele><time>2026-04-28T11:09:43.001Z</time></trkpt><trkpt lat="42.5229261702572" lon="12.007450789176211"><ele>501.0</ele><time>2026-04-28T11:09:44.001Z</time></trkpt><trkpt lat="42.52285231581973" lon="12.007511936435808"><ele>501.0</ele><time>2026-04-28T11:09:45.001Z</time></trkpt><trkpt lat="42.522789436464784" lon="12.00755005333532"><ele>501.0</ele><time>2026-04-28T11:09:46.001Z</time></trkpt><trkpt lat="42.522703929475114" lon="12.007556523580384"><ele>499.6</ele><time>2026-04-28T11:09:48.001Z</time></trkpt><trkpt lat="42.522658075273135" lon="12.007627593836531"><ele>498.20000000000005</ele><time>2026-04-28T11:10:34Z</time></trkpt><trkpt lat="42.52256657660923" lon="12.007611010778005"><ele>496.79999999999995</ele><time>2026-04-28T11:10:38Z</time></trkpt><trkpt lat="42.52243859343256" lon="12.007626082359778"><ele>495.4</ele><time>2026-04-28T11:10:40Z</time></trkpt><trkpt lat="42.522344700581975" lon="12.007644913199"><ele>494.0</ele><time>2026-04-28T11:10:41Z</time></trkpt><trkpt lat="42.522227270131715" lon="12.007659962589775"><ele>494.0</ele><time>2026-04-28T11:10:42Z</time></trkpt><trkpt lat="42.522105118700665" lon="12.007671012910576"><ele>494.0</ele><time>2026-04-28T11:10:43Z</time></trkpt><trkpt lat="42.52197621198768" lon="12.007684942639973"><ele>494.0</ele><time>2026-04-28T11:10:44Z</time></trkpt><trkpt lat="42.52182302684501" lon="12.00768799820693"><ele>494.0</ele><time>2026-04-28T11:10:45Z</time></trkpt><trkpt lat="42.521660410816274" lon="12.007665044077447"><ele>491.3333333333333</ele><time>2026-04-28T11:10:46Z</time></trkpt><trkpt lat="42.52148570805083" lon="12.007622363866254"><ele>488.66666666666663</ele><time>2026-04-28T11:10:47Z</time></trkpt><trkpt lat="42.52131137970379" lon="12.007581845071078"><ele>486.0</ele><time>2026-04-28T11:10:48Z</time></trkpt><trkpt lat="42.521144664257164" lon="12.007547630043236"><ele>484.0</ele><time>2026-04-28T11:10:49Z</time></trkpt><trkpt lat="42.52098720689455" lon="12.007512818793689"><ele>482.0</ele><time>2026-04-28T11:10:50Z</time></trkpt><trkpt lat="42.520828757210026" lon="12.007475827045715"><ele>480.0</ele><time>2026-04-28T11:10:51Z</time></trkpt><trkpt lat="42.520677068186046" lon="12.007434786719651"><ele>479.25</ele><time>2026-04-28T11:10:52Z</time></trkpt><trkpt lat="42.52053219571934" lon="12.00738351672336"><ele>478.5</ele><time>2026-04-28T11:10:53Z</time></trkpt><trkpt lat="42.520394866602466" lon="12.007313094093474"><ele>477.75</ele><time>2026-04-28T11:10:54Z</time></trkpt><trkpt lat="42.520265968727756" lon="12.00723219037167"><ele>477.0</ele><time>2026-04-28T11:10:55Z</time></trkpt><trkpt lat="42.520142306944564" lon="12.007158110023129"><ele>475.5</ele><time>2026-04-28T11:10:56Z</time></trkpt><trkpt lat="42.52002054962899" lon="12.00709078957932"><ele>474.0</ele><time>2026-04-28T11:10:57Z</time></trkpt><trkpt lat="42.51990599513806" lon="12.007016489302261"><ele>472.5</ele><time>2026-04-28T11:10:58Z</time></trkpt><trkpt lat="42.51979162984747" lon="12.006953822642087"><ele>471.0</ele><time>2026-04-28T11:10:59Z</time></trkpt><trkpt lat="42.51967077551851" lon="12.006911339565756"><ele>470.5</ele><time>2026-04-28T11:11:00Z</time></trkpt><trkpt lat="42.51954226607173" lon="12.00688707741939"><ele>470.0</ele><time>2026-04-28T11:11:01Z</time></trkpt><trkpt lat="42.51939351573034" lon="12.006863181572731"><ele>469.5</ele><time>2026-04-28T11:11:02Z</time></trkpt><trkpt lat="42.519239102342716" lon="12.006836719594103"><ele>469.0</ele><time>2026-04-28T11:11:03Z</time></trkpt><trkpt lat="42.519074900951985" lon="12.006795983968022"><ele>469.0</ele><time>2026-04-28T11:11:04Z</time></trkpt><trkpt lat="42.5189090477603" lon="12.006742729651247"><ele>469.0</ele><time>2026-04-28T11:11:05Z</time></trkpt><trkpt lat="42.51874808417853" lon="12.006686462256768"><ele>469.0</ele><time>2026-04-28T11:11:06Z</time></trkpt><trkpt lat="42.5186057954965" lon="12.00663578326741"><ele>466.25</ele><time>2026-04-28T11:11:07Z</time></trkpt><trkpt lat="42.51847486342968" lon="12.006588716233177"><ele>463.5</ele><time>2026-04-28T11:11:08Z</time></trkpt><trkpt lat="42.518350537042416" lon="12.006545356733868"><ele>460.75</ele><time>2026-04-28T11:11:09Z</time></trkpt><trkpt lat="42.51823284933007" lon="12.006506606622754"><ele>458.0</ele><time>2026-04-28T11:11:10Z</time></trkpt><trkpt lat="42.518121297126754" lon="12.006468325150863"><ele>458.0</ele><time>2026-04-28T11:11:11Z</time></trkpt><trkpt lat="42.518016628771626" lon="12.006428143470378"><ele>457.99999999999994</ele><time>2026-04-28T11:11:12Z</time></trkpt><trkpt lat="42.51791427932998" lon="12.006390143931334"><ele>457.99999999999994</ele><time>2026-04-28T11:11:13Z</time></trkpt><trkpt lat="42.51781527726269" lon="12.006360121565242"><ele>458.0</ele><time>2026-04-28T11:11:14Z</time></trkpt><trkpt lat="42.517721895144234" lon="12.006312830344946"><ele>458.0</ele><time>2026-04-28T11:11:15Z</time></trkpt><trkpt lat="42.51762600266654" lon="12.006279101597636"><ele>456.79999999999995</ele><time>2026-04-28T11:11:16Z</time></trkpt><trkpt lat="42.517533851348325" lon="12.006246688692801"><ele>455.59999999999997</ele><time>2026-04-28T11:11:17Z</time></trkpt><trkpt lat="42.51744505100829" lon="12.006214997658423"><ele>454.40000000000003</ele><time>2026-04-28T11:11:18Z</time></trkpt><trkpt lat="42.51735383713474" lon="12.00620390553109"><ele>453.20000000000005</ele><time>2026-04-28T11:11:19Z</time></trkpt><trkpt lat="42.517269446170175" lon="12.006170881017516"><ele>452.0</ele><time>2026-04-28T11:11:20Z</time></trkpt><trkpt lat="42.51718364520987" lon="12.006142472683306"><ele>451.99999999999994</ele><time>2026-04-28T11:11:21Z</time></trkpt><trkpt lat="42.517102129512644" lon="12.006091121992696"><ele>452.0</ele><time>2026-04-28T11:11:22Z</time></trkpt><trkpt lat="42.51701578655329" lon="12.006059478431833"><ele>452.0</ele><time>2026-04-28T11:11:23Z</time></trkpt><trkpt lat="42.51692946391038" lon="12.006028726328386"><ele>452.0</ele><time>2026-04-28T11:11:24Z</time></trkpt><trkpt lat="42.51684237567918" lon="12.00599935243978"><ele>451.99999999999994</ele><time>2026-04-28T11:11:25Z</time></trkpt><trkpt lat="42.51675375248297" lon="12.005972868361214"><ele>452.0</ele><time>2026-04-28T11:11:26Z</time></trkpt><trkpt lat="42.51666566663862" lon="12.005949330731733"><ele>450.5</ele><time>2026-04-28T11:11:27Z</time></trkpt><trkpt lat="42.51656359468759" lon="12.005924546566819"><ele>449.0</ele><time>2026-04-28T11:11:28Z</time></trkpt><trkpt lat="42.51643795767228" lon="12.005898281605557"><ele>447.5</ele><time>2026-04-28T11:11:29Z</time></trkpt><trkpt lat="42.51629497148807" lon="12.005876850549328"><ele>446.0</ele><time>2026-04-28T11:11:30Z</time></trkpt><trkpt lat="42.51614689785977" lon="12.005860114882298"><ele>445.5</ele><time>2026-04-28T11:11:31Z</time></trkpt><trkpt lat="42.51600648838003" lon="12.005868282769226"><ele>445.0</ele><time>2026-04-28T11:11:32Z</time></trkpt><trkpt lat="42.515869924227985" lon="12.00585030840735"><ele>444.5</ele><time>2026-04-28T11:11:33Z</time></trkpt><trkpt lat="42.51573394380995" lon="12.005837823921029"><ele>444.0</ele><time>2026-04-28T11:11:34Z</time></trkpt><trkpt lat="42.51558899282885" lon="12.005830820639348"><ele>442.66666666666663</ele><time>2026-04-28T11:11:35Z</time></trkpt><trkpt lat="42.51543727091202" lon="12.005805282205635"><ele>441.3333333333333</ele><time>2026-04-28T11:11:36Z</time></trkpt><trkpt lat="42.515273826006144" lon="12.005793317151538"><ele>440.0</ele><time>2026-04-28T11:11:37Z</time></trkpt><trkpt lat="42.51510691723506" lon="12.005802505766964"><ele>439.0</ele><time>2026-04-28T11:11:38Z</time></trkpt><trkpt lat="42.514937970643885" lon="12.005788834682075"><ele>438.0</ele><time>2026-04-28T11:11:39Z</time></trkpt><trkpt lat="42.51476681037764" lon="12.005784435771965"><ele>437.0</ele><time>2026-04-28T11:11:40Z</time></trkpt><trkpt lat="42.514595728224535" lon="12.005793673215296"><ele>436.3333333333333</ele><time>2026-04-28T11:11:41Z</time></trkpt><trkpt lat="42.51441811426847" lon="12.005816375192657"><ele>435.66666666666663</ele><time>2026-04-28T11:11:42Z</time></trkpt><trkpt lat="42.514236527080854" lon="12.00584942347411"><ele>435.0</ele><time>2026-04-28T11:11:43Z</time></trkpt><trkpt lat="42.51404617770877" lon="12.005887306174166"><ele>435.0</ele><time>2026-04-28T11:11:44Z</time></trkpt><trkpt lat="42.51385417842301" lon="12.005920705203307"><ele>435.0</ele><time>2026-04-28T11:11:45Z</time></trkpt><trkpt lat="42.51365898585059" lon="12.005953674492675"><ele>435.0</ele><time>2026-04-28T11:11:46Z</time></trkpt><trkpt lat="42.513455672029224" lon="12.00599333991931"><ele>432.66666666666663</ele><time>2026-04-28T11:11:47Z</time></trkpt><trkpt lat="42.513252540032475" lon="12.006036047950685"><ele>430.3333333333333</ele><time>2026-04-28T11:11:48Z</time></trkpt><trkpt lat="42.51305397991361" lon="12.006073268852708"><ele>428.0</ele><time>2026-04-28T11:11:49Z</time></trkpt><trkpt lat="42.51286403350022" lon="12.006106989840147"><ele>427.0</ele><time>2026-04-28T11:11:50Z</time></trkpt><trkpt lat="42.51267862890004" lon="12.006138263967877"><ele>426.0</ele><time>2026-04-28T11:11:51Z</time></trkpt><trkpt lat="42.512498256787424" lon="12.006168765601405"><ele>425.0</ele><time>2026-04-28T11:11:52Z</time></trkpt><trkpt lat="42.512322313248816" lon="12.006199443554552"><ele>425.0</ele><time>2026-04-28T11:11:53Z</time></trkpt><trkpt lat="42.51214693751827" lon="12.006231080360799"><ele>425.0</ele><time>2026-04-28T11:11:54Z</time></trkpt><trkpt lat="42.511962919691435" lon="12.006267268195376"><ele>425.0</ele><time>2026-04-28T11:11:55Z</time></trkpt><trkpt lat="42.511773779166866" lon="12.006304371439583"><ele>423.66666666666663</ele><time>2026-04-28T11:11:56Z</time></trkpt><trkpt lat="42.51157541175441" lon="12.006340436609868"><ele>422.33333333333337</ele><time>2026-04-28T11:11:57Z</time></trkpt><trkpt lat="42.511366370022444" lon="12.006377171177897"><ele>421.0</ele><time>2026-04-28T11:11:58Z</time></trkpt><trkpt lat="42.51115938942368" lon="12.006414396613431"><ele>419.33333333333337</ele><time>2026-04-28T11:11:59Z</time></trkpt><trkpt lat="42.51095417873048" lon="12.006454872254572"><ele>417.66666666666663</ele><time>2026-04-28T11:12:00Z</time></trkpt><trkpt lat="42.51074506528433" lon="12.006496029849934"><ele>416.0</ele><time>2026-04-28T11:12:01Z</time></trkpt><trkpt lat="42.51053170799938" lon="12.006536075850663"><ele>414.3333333333333</ele><time>2026-04-28T11:12:02Z</time></trkpt><trkpt lat="42.5103150726572" lon="12.006572495620764"><ele>412.66666666666663</ele><time>2026-04-28T11:12:03Z</time></trkpt><trkpt lat="42.510095914355496" lon="12.006610045084347"><ele>411.0</ele><time>2026-04-28T11:12:04Z</time></trkpt><trkpt lat="42.50987473470674" lon="12.006650763560538"><ele>411.5</ele><time>2026-04-28T11:12:05Z</time></trkpt><trkpt lat="42.50965005236039" lon="12.006692677773785"><ele>412.0</ele><time>2026-04-28T11:12:06Z</time></trkpt><trkpt lat="42.50942787464815" lon="12.00673143693967"><ele>411.33333333333337</ele><time>2026-04-28T11:12:07Z</time></trkpt><trkpt lat="42.50920747309296" lon="12.006771395753628"><ele>410.66666666666663</ele><time>2026-04-28T11:12:08Z</time></trkpt><trkpt lat="42.50899996286944" lon="12.006810175547962"><ele>410.0</ele><time>2026-04-28T11:12:09Z</time></trkpt><trkpt lat="42.50881275918301" lon="12.006844837151128"><ele>409.3333333333333</ele><time>2026-04-28T11:12:10Z</time></trkpt><trkpt lat="42.50863388751641" lon="12.006875951221124"><ele>408.66666666666663</ele><time>2026-04-28T11:12:11Z</time></trkpt><trkpt lat="42.5084675395758" lon="12.00691807422844"><ele>408.0</ele><time>2026-04-28T11:12:12Z</time></trkpt><trkpt lat="42.508299397717956" lon="12.006973505454006"><ele>408.0</ele><time>2026-04-28T11:12:13Z</time></trkpt><trkpt lat="42.50812113581597" lon="12.007046041903813"><ele>408.0</ele><time>2026-04-28T11:12:14Z</time></trkpt><trkpt lat="42.50793654547991" lon="12.007133684732993"><ele>408.0</ele><time>2026-04-28T11:12:15Z</time></trkpt><trkpt lat="42.50774686273083" lon="12.007221547800892"><ele>406.66666666666663</ele><time>2026-04-28T11:12:16Z</time></trkpt><trkpt lat="42.50755560335495" lon="12.007310603108538"><ele>405.3333333333333</ele><time>2026-04-28T11:12:17Z</time></trkpt><trkpt lat="42.5073625259324" lon="12.007404897154304"><ele>404.0</ele><time>2026-04-28T11:12:18Z</time></trkpt><trkpt lat="42.50716650742825" lon="12.007499757454324"><ele>402.66666666666663</ele><time>2026-04-28T11:12:19Z</time></trkpt><trkpt lat="42.506959632784366" lon="12.00759756251995"><ele>401.33333333333337</ele><time>2026-04-28T11:12:20Z</time></trkpt><trkpt lat="42.506750164743316" lon="12.007693527930055"><ele>400.0</ele><time>2026-04-28T11:12:21Z</time></trkpt><trkpt lat="42.506543566069794" lon="12.007789031222227"><ele>400.0</ele><time>2026-04-28T11:12:22Z</time></trkpt><trkpt lat="42.506336538773844" lon="12.007891252082214"><ele>400.0</ele><time>2026-04-28T11:12:23Z</time></trkpt><trkpt lat="42.50612734094807" lon="12.007992491255397"><ele>400.0</ele><time>2026-04-28T11:12:24Z</time></trkpt><trkpt lat="42.50591772327112" lon="12.008093522064083"><ele>398.33333333333337</ele><time>2026-04-28T11:12:25Z</time></trkpt><trkpt lat="42.50570652122056" lon="12.00819457252516"><ele>396.66666666666663</ele><time>2026-04-28T11:12:26Z</time></trkpt><trkpt lat="42.505494857242454" lon="12.008296683582799"><ele>395.0</ele><time>2026-04-28T11:12:27Z</time></trkpt><trkpt lat="42.50528843121868" lon="12.00839434353331"><ele>393.66666666666663</ele><time>2026-04-28T11:12:28Z</time></trkpt><trkpt lat="42.50508879135645" lon="12.008486837336783"><ele>392.33333333333337</ele><time>2026-04-28T11:12:29Z</time></trkpt><trkpt lat="42.5048825742041" lon="12.008574812132885"><ele>391.0</ele><time>2026-04-28T11:12:30Z</time></trkpt><trkpt lat="42.50466958035248" lon="12.008660078828125"><ele>389.6666666666667</ele><time>2026-04-28T11:12:31Z</time></trkpt><trkpt lat="42.504455814963244" lon="12.008746961766711"><ele>388.33333333333337</ele><time>2026-04-28T11:12:32Z</time></trkpt><trkpt lat="42.50424245986106" lon="12.008833603854152"><ele>387.0</ele><time>2026-04-28T11:12:33Z</time></trkpt><trkpt lat="42.50403521404461" lon="12.008917833325647"><ele>387.0</ele><time>2026-04-28T11:12:34Z</time></trkpt><trkpt lat="42.50383113769222" lon="12.008998555650276"><ele>387.0</ele><time>2026-04-28T11:12:35Z</time></trkpt><trkpt lat="42.5036234403707" lon="12.009084763327003"><ele>387.0</ele><time>2026-04-28T11:12:36Z</time></trkpt><trkpt lat="42.50341026427046" lon="12.009168929061852"><ele>385.6666666666667</ele><time>2026-04-28T11:12:37Z</time></trkpt><trkpt lat="42.503194220202644" lon="12.009251250490282"><ele>384.33333333333337</ele><time>2026-04-28T11:12:38Z</time></trkpt><trkpt lat="42.502980135371324" lon="12.00933589337808"><ele>383.0</ele><time>2026-04-28T11:12:39Z</time></trkpt><trkpt lat="42.50276835891811" lon="12.009420491428962"><ele>382.0</ele><time>2026-04-28T11:12:40Z</time></trkpt><trkpt lat="42.50256117702375" lon="12.009503268689985"><ele>381.0</ele><time>2026-04-28T11:12:41Z</time></trkpt><trkpt lat="42.50235657619911" lon="12.009583162033557"><ele>380.0</ele><time>2026-04-28T11:12:42Z</time></trkpt><trkpt lat="42.50214831571398" lon="12.009664370143799"><ele>379.6666666666667</ele><time>2026-04-28T11:12:43Z</time></trkpt><trkpt lat="42.50194004682442" lon="12.009749085155597"><ele>379.3333333333333</ele><time>2026-04-28T11:12:44Z</time></trkpt><trkpt lat="42.50172842699459" lon="12.00983277430664"><ele>379.0</ele><time>2026-04-28T11:12:45Z</time></trkpt><trkpt lat="42.50151889822401" lon="12.009915088912768"><ele>378.66666666666663</ele><time>2026-04-28T11:12:46Z</time></trkpt><trkpt lat="42.50130943885871" lon="12.00999307991885"><ele>378.3333333333333</ele><time>2026-04-28T11:12:47Z</time></trkpt><trkpt lat="42.501097718543775" lon="12.010075440597188"><ele>378.0</ele><time>2026-04-28T11:12:48Z</time></trkpt><trkpt lat="42.50088579744998" lon="12.010158973180076"><ele>377.0</ele><time>2026-04-28T11:12:49Z</time></trkpt><trkpt lat="42.500671675146506" lon="12.010242181152778"><ele>376.0</ele><time>2026-04-28T11:12:50Z</time></trkpt><trkpt lat="42.500454402067035" lon="12.010325645146867"><ele>375.0</ele><time>2026-04-28T11:12:51Z</time></trkpt><trkpt lat="42.50023738540361" lon="12.010409149625353"><ele>374.0</ele><time>2026-04-28T11:12:52Z</time></trkpt><trkpt lat="42.5000181140544" lon="12.010494206123324"><ele>373.0</ele><time>2026-04-28T11:12:53Z</time></trkpt><trkpt lat="42.49980642107135" lon="12.010574751903611"><ele>372.0</ele><time>2026-04-28T11:12:54Z</time></trkpt><trkpt lat="42.49961465951576" lon="12.010646288599563"><ele>370.6666666666667</ele><time>2026-04-28T11:12:55Z</time></trkpt><trkpt lat="42.499439159975644" lon="12.010708881239033"><ele>369.33333333333337</ele><time>2026-04-28T11:12:56Z</time></trkpt><trkpt lat="42.49927647669765" lon="12.010757272076452"><ele>368.0</ele><time>2026-04-28T11:12:57Z</time></trkpt><trkpt lat="42.499108961696514" lon="12.01079237878074"><ele>368.0</ele><time>2026-04-28T11:12:58Z</time></trkpt><trkpt lat="42.49893331477539" lon="12.010808806739826"><ele>368.0</ele><time>2026-04-28T11:12:59Z</time></trkpt><trkpt lat="42.498751081706075" lon="12.010809963832735"><ele>368.0</ele><time>2026-04-28T11:13:00Z</time></trkpt><trkpt lat="42.49855447490806" lon="12.010796665317136"><ele>367.33333333333337</ele><time>2026-04-28T11:13:01Z</time></trkpt><trkpt lat="42.49834758007758" lon="12.010772131998067"><ele>366.6666666666667</ele><time>2026-04-28T11:13:02Z</time></trkpt><trkpt lat="42.49813076370302" lon="12.010741107882362"><ele>366.0</ele><time>2026-04-28T11:13:03Z</time></trkpt><trkpt lat="42.49790970086773" lon="12.01071430001303"><ele>365.0</ele><time>2026-04-28T11:13:04Z</time></trkpt><trkpt lat="42.497673312193605" lon="12.010689042066849"><ele>364.0</ele><time>2026-04-28T11:13:05Z</time></trkpt><trkpt lat="42.49742856783705" lon="12.01066051152834"><ele>364.0</ele><time>2026-04-28T11:13:06Z</time></trkpt><trkpt lat="42.49720816727317" lon="12.010622975159013"><ele>364.0</ele><time>2026-04-28T11:13:07Z</time></trkpt><trkpt lat="42.49699831548475" lon="12.010573711228115"><ele>364.0</ele><time>2026-04-28T11:13:08Z</time></trkpt><trkpt lat="42.496791374235755" lon="12.01050394340072"><ele>363.3333333333333</ele><time>2026-04-28T11:13:09Z</time></trkpt><trkpt lat="42.49660142204176" lon="12.010425320391247"><ele>362.6666666666667</ele><time>2026-04-28T11:13:10Z</time></trkpt><trkpt lat="42.496405891344764" lon="12.010341320681198"><ele>362.0</ele><time>2026-04-28T11:13:11Z</time></trkpt><trkpt lat="42.49619488582693" lon="12.010253806491148"><ele>361.6666666666667</ele><time>2026-04-28T11:13:12Z</time></trkpt><trkpt lat="42.49598444873774" lon="12.010164922492946"><ele>361.3333333333333</ele><time>2026-04-28T11:13:13Z</time></trkpt><trkpt lat="42.49578026599505" lon="12.010080426333783"><ele>361.0</ele><time>2026-04-28T11:13:14Z</time></trkpt><trkpt lat="42.49558295823584" lon="12.010003453620138"><ele>360.0</ele><time>2026-04-28T11:13:15Z</time></trkpt><trkpt lat="42.49539842247306" lon="12.009930893210603"><ele>359.0</ele><time>2026-04-28T11:13:16Z</time></trkpt><trkpt lat="42.495223226167894" lon="12.009860635656926"><ele>358.0</ele><time>2026-04-28T11:13:17Z</time></trkpt><trkpt lat="42.495057656684935" lon="12.009792990283904"><ele>358.0</ele><time>2026-04-28T11:13:18Z</time></trkpt><trkpt lat="42.49491067230035" lon="12.009733095192908"><ele>358.0</ele><time>2026-04-28T11:13:19Z</time></trkpt><trkpt lat="42.49479868578378" lon="12.009677727784581"><ele>358.0</ele><time>2026-04-28T11:13:20Z</time></trkpt><trkpt lat="42.49470538218036" lon="12.009611157587646"><ele>358.0</ele><time>2026-04-28T11:13:21Z</time></trkpt><trkpt lat="42.49462405402315" lon="12.009516514247368"><ele>357.59999999999997</ele><time>2026-04-28T11:13:22Z</time></trkpt><trkpt lat="42.494552946345216" lon="12.009392988081228"><ele>357.2</ele><time>2026-04-28T11:13:23Z</time></trkpt><trkpt lat="42.49450909953407" lon="12.009272152122334"><ele>356.8</ele><time>2026-04-28T11:13:24Z</time></trkpt><trkpt lat="42.49448157549914" lon="12.009155673112614"><ele>356.4</ele><time>2026-04-28T11:13:25Z</time></trkpt><trkpt lat="42.49446889334874" lon="12.00904375625804"><ele>356.0</ele><time>2026-04-28T11:13:26Z</time></trkpt><trkpt lat="42.49446086678322" lon="12.00891575384835"><ele>355.6666666666667</ele><time>2026-04-28T11:13:27Z</time></trkpt><trkpt lat="42.494457771673474" lon="12.008799789492091"><ele>355.33333333333337</ele><time>2026-04-28T11:13:28Z</time></trkpt><trkpt lat="42.49445517716393" lon="12.008710776214196"><ele>355.0</ele><time>2026-04-28T11:13:29Z</time></trkpt><trkpt lat="42.4944604337103" lon="12.008602120013773"><ele>354.6666666666667</ele><time>2026-04-28T11:13:31Z</time></trkpt><trkpt lat="42.49439212000719" lon="12.008518994460285"><ele>354.3333333333333</ele><time>2026-04-28T11:13:35Z</time></trkpt><trkpt lat="42.494327221471934" lon="12.008501583163262"><ele>354.0</ele><time>2026-04-28T11:13:36Z</time></trkpt><trkpt lat="42.49425331781301" lon="12.008532584727764"><ele>354.0</ele><time>2026-04-28T11:13:37Z</time></trkpt><trkpt lat="42.49416435750807" lon="12.008587183343215"><ele>354.0</ele><time>2026-04-28T11:13:38Z</time></trkpt><trkpt lat="42.49404176529883" lon="12.00864157035074"><ele>354.0</ele><time>2026-04-28T11:13:39Z</time></trkpt><trkpt lat="42.49389353606299" lon="12.008700727923022"><ele>354.0</ele><time>2026-04-28T11:13:40Z</time></trkpt><trkpt lat="42.49374229401823" lon="12.008780852209515"><ele>353.3333333333333</ele><time>2026-04-28T11:13:41Z</time></trkpt><trkpt lat="42.49357833524981" lon="12.00889207960119"><ele>352.66666666666663</ele><time>2026-04-28T11:13:42Z</time></trkpt><trkpt lat="42.493414737099" lon="12.009025065618392"><ele>352.0</ele><time>2026-04-28T11:13:43Z</time></trkpt><trkpt lat="42.49325723046809" lon="12.00918203173846"><ele>352.0</ele><time>2026-04-28T11:13:44Z</time></trkpt><trkpt lat="42.49311009734509" lon="12.009366340606102"><ele>352.0</ele><time>2026-04-28T11:13:45Z</time></trkpt><trkpt lat="42.49298078234535" lon="12.009568788998964"><ele>352.0</ele><time>2026-04-28T11:13:46Z</time></trkpt><trkpt lat="42.49287777213975" lon="12.009786946667687"><ele>351.66666666666663</ele><time>2026-04-28T11:13:47Z</time></trkpt><trkpt lat="42.49279407566237" lon="12.010045065448356"><ele>351.3333333333333</ele><time>2026-04-28T11:13:48Z</time></trkpt><trkpt lat="42.4927151348836" lon="12.010325924715305"><ele>351.0</ele><time>2026-04-28T11:13:49Z</time></trkpt><trkpt lat="42.49264004322472" lon="12.010629272826499"><ele>349.0</ele><time>2026-04-28T11:13:50Z</time></trkpt><trkpt lat="42.49256189686107" lon="12.010935656414505"><ele>347.0</ele><time>2026-04-28T11:13:51Z</time></trkpt><trkpt lat="42.49248534721221" lon="12.011231451315613"><ele>347.0</ele><time>2026-04-28T11:13:52Z</time></trkpt><trkpt lat="42.49241713176532" lon="12.011506435399966"><ele>347.0</ele><time>2026-04-28T11:13:53Z</time></trkpt><trkpt lat="42.49234956558083" lon="12.011770028367266"><ele>347.0</ele><time>2026-04-28T11:13:54Z</time></trkpt><trkpt lat="42.49229063352583" lon="12.012004802793761"><ele>345.6666666666667</ele><time>2026-04-28T11:13:55Z</time></trkpt><trkpt lat="42.492234002909704" lon="12.012208953096437"><ele>344.3333333333333</ele><time>2026-04-28T11:13:56Z</time></trkpt><trkpt lat="42.492180226336274" lon="12.012398279740195"><ele>343.0</ele><time>2026-04-28T11:13:57Z</time></trkpt><trkpt lat="42.49212827002422" lon="12.012579833278876"><ele>342.25</ele><time>2026-04-28T11:13:58Z</time></trkpt><trkpt lat="42.492079384930435" lon="12.012753848341031"><ele>341.5</ele><time>2026-04-28T11:13:59Z</time></trkpt><trkpt lat="42.49203498073879" lon="12.012920042014803"><ele>340.75</ele><time>2026-04-28T11:14:00Z</time></trkpt><trkpt lat="42.491992824484186" lon="12.013084101552591"><ele>340.0</ele><time>2026-04-28T11:14:01Z</time></trkpt><trkpt lat="42.491946455361415" lon="12.013255272265456"><ele>339.75</ele><time>2026-04-28T11:14:02Z</time></trkpt><trkpt lat="42.491902660135345" lon="12.013414933897971"><ele>339.5</ele><time>2026-04-28T11:14:03Z</time></trkpt><trkpt lat="42.49186180106724" lon="12.013570970355719"><ele>339.25</ele><time>2026-04-28T11:14:04Z</time></trkpt><trkpt lat="42.49182517925677" lon="12.013717895712087"><ele>339.0</ele><time>2026-04-28T11:14:05Z</time></trkpt><trkpt lat="42.49179137667829" lon="12.013860014130504"><ele>339.0</ele><time>2026-04-28T11:14:06Z</time></trkpt><trkpt lat="42.49175502487743" lon="12.013995699731224"><ele>339.0</ele><time>2026-04-28T11:14:07Z</time></trkpt><trkpt lat="42.491719826684445" lon="12.014113104825471"><ele>339.0</ele><time>2026-04-28T11:14:08Z</time></trkpt><trkpt lat="42.49168642270783" lon="12.014214445610305"><ele>339.0</ele><time>2026-04-28T11:14:09Z</time></trkpt><trkpt lat="42.491654781646" lon="12.014307313352194"><ele>339.0</ele><time>2026-04-28T11:14:10Z</time></trkpt><trkpt lat="42.49162895719203" lon="12.014389800488383"><ele>339.0</ele><time>2026-04-28T11:14:11Z</time></trkpt><trkpt lat="42.4915901048535" lon="12.01452502795632"><ele>339.5</ele><time>2026-04-28T11:14:13Z</time></trkpt><trkpt lat="42.49154795811777" lon="12.014687331978374"><ele>340.0</ele><time>2026-04-28T11:14:15Z</time></trkpt><trkpt lat="42.4915181384335" lon="12.014818194792662"><ele>340.5</ele><time>2026-04-28T11:14:16Z</time></trkpt><trkpt lat="42.49148627081594" lon="12.014962462197175"><ele>341.0</ele><time>2026-04-28T11:14:17Z</time></trkpt><trkpt lat="42.49144794381352" lon="12.015124293397974"><ele>341.6666666666667</ele><time>2026-04-28T11:14:18Z</time></trkpt><trkpt lat="42.491401832887746" lon="12.01531485346953"><ele>342.3333333333333</ele><time>2026-04-28T11:14:19Z</time></trkpt><trkpt lat="42.49134809618997" lon="12.015523815886361"><ele>343.0</ele><time>2026-04-28T11:14:20Z</time></trkpt><trkpt lat="42.49129161220856" lon="12.015741842539954"><ele>343.0</ele><time>2026-04-28T11:14:21Z</time></trkpt><trkpt lat="42.49123250239255" lon="12.015974764320633"><ele>343.0</ele><time>2026-04-28T11:14:22Z</time></trkpt><trkpt lat="42.49116977484609" lon="12.016220518475425"><ele>343.0</ele><time>2026-04-28T11:14:23Z</time></trkpt><trkpt lat="42.49110316271117" lon="12.01647793233998"><ele>342.66666666666663</ele><time>2026-04-28T11:14:24Z</time></trkpt><trkpt lat="42.491036709791715" lon="12.016733016863196"><ele>342.3333333333333</ele><time>2026-04-28T11:14:25Z</time></trkpt><trkpt lat="42.49096808747703" lon="12.016996834848308"><ele>342.0</ele><time>2026-04-28T11:14:26Z</time></trkpt><trkpt lat="42.49089873467799" lon="12.017263303029448"><ele>341.3333333333333</ele><time>2026-04-28T11:14:27Z</time></trkpt><trkpt lat="42.490823322972666" lon="12.017538031398546"><ele>340.66666666666663</ele><time>2026-04-28T11:14:28Z</time></trkpt><trkpt lat="42.49074787722003" lon="12.017819346218943"><ele>340.0</ele><time>2026-04-28T11:14:29Z</time></trkpt><trkpt lat="42.49067237960467" lon="12.018107051854232"><ele>336.5</ele><time>2026-04-28T11:14:30Z</time></trkpt><trkpt lat="42.49059486339807" lon="12.018401535921937"><ele>333.0</ele><time>2026-04-28T11:14:31Z</time></trkpt><trkpt lat="42.490515323323486" lon="12.018698903360248"><ele>333.0</ele><time>2026-04-28T11:14:32Z</time></trkpt><trkpt lat="42.49043603841613" lon="12.018995258622118"><ele>333.0</ele><time>2026-04-28T11:14:33Z</time></trkpt><trkpt lat="42.49035521948504" lon="12.019294166937119"><ele>334.0</ele><time>2026-04-28T11:14:34Z</time></trkpt><trkpt lat="42.49027173489935" lon="12.019596032923834"><ele>335.0</ele><time>2026-04-28T11:14:35Z</time></trkpt><trkpt lat="42.490191724197345" lon="12.019899325277478"><ele>334.5</ele><time>2026-04-28T11:14:36Z</time></trkpt><trkpt lat="42.490114546890545" lon="12.020200209357599"><ele>334.0</ele><time>2026-04-28T11:14:37Z</time></trkpt><trkpt lat="42.490039842876605" lon="12.020484002510907"><ele>334.0</ele><time>2026-04-28T11:14:38Z</time></trkpt><trkpt lat="42.48996641042754" lon="12.020755874047916"><ele>334.0</ele><time>2026-04-28T11:14:39Z</time></trkpt><trkpt lat="42.48989849068521" lon="12.021017069588222"><ele>334.0</ele><time>2026-04-28T11:14:40Z</time></trkpt><trkpt lat="42.48983245936733" lon="12.021268597566245"><ele>332.66666666666663</ele><time>2026-04-28T11:14:41Z</time></trkpt><trkpt lat="42.489768949179464" lon="12.021509339582847"><ele>331.3333333333333</ele><time>2026-04-28T11:14:42Z</time></trkpt><trkpt lat="42.489704423805364" lon="12.021741970220463"><ele>330.0</ele><time>2026-04-28T11:14:43Z</time></trkpt><trkpt lat="42.489640888912795" lon="12.02197617343832"><ele>330.6666666666667</ele><time>2026-04-28T11:14:44Z</time></trkpt><trkpt lat="42.48958218709895" lon="12.022214332616446"><ele>331.33333333333337</ele><time>2026-04-28T11:14:45Z</time></trkpt><trkpt lat="42.48953506694555" lon="12.022454123964142"><ele>332.0</ele><time>2026-04-28T11:14:46Z</time></trkpt><trkpt lat="42.48949809355941" lon="12.022706979882619"><ele>329.6666666666667</ele><time>2026-04-28T11:14:47Z</time></trkpt><trkpt lat="42.48947428485422" lon="12.022971568574052"><ele>327.3333333333333</ele><time>2026-04-28T11:14:48Z</time></trkpt><trkpt lat="42.48946328326693" lon="12.023239811646834"><ele>325.0</ele><time>2026-04-28T11:14:49Z</time></trkpt><trkpt lat="42.48946827494363" lon="12.023509374780986"><ele>322.66666666666663</ele><time>2026-04-28T11:14:50Z</time></trkpt><trkpt lat="42.489487504110414" lon="12.023785988762487"><ele>320.3333333333333</ele><time>2026-04-28T11:14:51Z</time></trkpt><trkpt lat="42.48952464582242" lon="12.024070372147598"><ele>318.0</ele><time>2026-04-28T11:14:52Z</time></trkpt><trkpt lat="42.48957516117164" lon="12.024350626044514"><ele>320.0</ele><time>2026-04-28T11:14:53Z</time></trkpt><trkpt lat="42.489634064795176" lon="12.02462953543724"><ele>322.0</ele><time>2026-04-28T11:14:54Z</time></trkpt><trkpt lat="42.4896957160705" lon="12.024899081552697"><ele>324.0</ele><time>2026-04-28T11:14:55Z</time></trkpt><trkpt lat="42.48975254622944" lon="12.025150045020691"><ele>323.3333333333333</ele><time>2026-04-28T11:14:56Z</time></trkpt><trkpt lat="42.48980728117695" lon="12.025404085874527"><ele>322.66666666666663</ele><time>2026-04-28T11:14:57Z</time></trkpt><trkpt lat="42.48985128642794" lon="12.025665741960825"><ele>322.0</ele><time>2026-04-28T11:14:58Z</time></trkpt><trkpt lat="42.4898788627016" lon="12.025938006931723"><ele>322.0</ele><time>2026-04-28T11:14:59Z</time></trkpt><trkpt lat="42.48989382891652" lon="12.026211202965957"><ele>322.0</ele><time>2026-04-28T11:15:00Z</time></trkpt><trkpt lat="42.48989817903874" lon="12.026486240731385"><ele>322.0</ele><time>2026-04-28T11:15:01Z</time></trkpt><trkpt lat="42.489890523825174" lon="12.026770927748668"><ele>323.0</ele><time>2026-04-28T11:15:02Z</time></trkpt><trkpt lat="42.48987166681627" lon="12.027064893857661"><ele>324.0</ele><time>2026-04-28T11:15:03Z</time></trkpt><trkpt lat="42.489848671983125" lon="12.027362736198693"><ele>325.0</ele><time>2026-04-28T11:15:04Z</time></trkpt><trkpt lat="42.489827051358816" lon="12.027659615104595"><ele>327.0</ele><time>2026-04-28T11:15:05Z</time></trkpt><trkpt lat="42.48980624844262" lon="12.027954896823058"><ele>329.0</ele><time>2026-04-28T11:15:06Z</time></trkpt><trkpt lat="42.48978539969336" lon="12.028246549768248"><ele>331.0</ele><time>2026-04-28T11:15:07Z</time></trkpt><trkpt lat="42.48976609950511" lon="12.028529707599533"><ele>332.3333333333333</ele><time>2026-04-28T11:15:08Z</time></trkpt><trkpt lat="42.489747035904976" lon="12.028801279532498"><ele>333.6666666666667</ele><time>2026-04-28T11:15:09Z</time></trkpt><trkpt lat="42.489720748046466" lon="12.029065108765494"><ele>335.0</ele><time>2026-04-28T11:15:10Z</time></trkpt><trkpt lat="42.48967713661283" lon="12.029317197936404"><ele>335.0</ele><time>2026-04-28T11:15:11Z</time></trkpt><trkpt lat="42.48961523104737" lon="12.02957549488366"><ele>335.0</ele><time>2026-04-28T11:15:12Z</time></trkpt><trkpt lat="42.48953598589529" lon="12.0298360370139"><ele>335.0</ele><time>2026-04-28T11:15:13Z</time></trkpt><trkpt lat="42.48944084705212" lon="12.03008597770836"><ele>333.6666666666667</ele><time>2026-04-28T11:15:14Z</time></trkpt><trkpt lat="42.48932753858809" lon="12.03032086785492"><ele>332.3333333333333</ele><time>2026-04-28T11:15:15Z</time></trkpt><trkpt lat="42.48919527388927" lon="12.03054998851411"><ele>331.0</ele><time>2026-04-28T11:15:16Z</time></trkpt><trkpt lat="42.48905246512505" lon="12.030760034575042"><ele>331.66666666666663</ele><time>2026-04-28T11:15:17Z</time></trkpt><trkpt lat="42.4888960001593" lon="12.03095349928134"><ele>332.3333333333333</ele><time>2026-04-28T11:15:18Z</time></trkpt><trkpt lat="42.488735863310566" lon="12.031121493814616"><ele>333.0</ele><time>2026-04-28T11:15:19Z</time></trkpt><trkpt lat="42.488556132508485" lon="12.03126709047723"><ele>333.6666666666667</ele><time>2026-04-28T11:15:20Z</time></trkpt><trkpt lat="42.48836165437797" lon="12.031397119931986"><ele>334.33333333333337</ele><time>2026-04-28T11:15:21Z</time></trkpt><trkpt lat="42.48815788329876" lon="12.031513808221547"><ele>335.0</ele><time>2026-04-28T11:15:22Z</time></trkpt><trkpt lat="42.48794882561552" lon="12.031626876344816"><ele>338.0</ele><time>2026-04-28T11:15:23Z</time></trkpt><trkpt lat="42.48773621873514" lon="12.031741977471555"><ele>341.0</ele><time>2026-04-28T11:15:24Z</time></trkpt><trkpt lat="42.487522416056805" lon="12.03185759971009"><ele>341.0</ele><time>2026-04-28T11:15:25Z</time></trkpt><trkpt lat="42.48730814079304" lon="12.03197513202875"><ele>341.0</ele><time>2026-04-28T11:15:26Z</time></trkpt><trkpt lat="42.48709378303338" lon="12.032096058263733"><ele>339.0</ele><time>2026-04-28T11:15:27Z</time></trkpt><trkpt lat="42.48687967295216" lon="12.032213758860111"><ele>337.0</ele><time>2026-04-28T11:15:28Z</time></trkpt><trkpt lat="42.486662942068044" lon="12.032331469684456"><ele>337.0</ele><time>2026-04-28T11:15:29Z</time></trkpt><trkpt lat="42.4864483217549" lon="12.032456786421928"><ele>337.0</ele><time>2026-04-28T11:15:30Z</time></trkpt><trkpt lat="42.48623611308804" lon="12.032595402476412"><ele>336.0</ele><time>2026-04-28T11:15:31Z</time></trkpt><trkpt lat="42.48603063310849" lon="12.032749565230553"><ele>335.0</ele><time>2026-04-28T11:15:32Z</time></trkpt><trkpt lat="42.4858482188923" lon="12.032904348781063"><ele>335.0</ele><time>2026-04-28T11:15:33Z</time></trkpt><trkpt lat="42.485684222368874" lon="12.033048625893029"><ele>335.0</ele><time>2026-04-28T11:15:34Z</time></trkpt><trkpt lat="42.48554436317793" lon="12.033179218147371"><ele>335.0</ele><time>2026-04-28T11:15:35Z</time></trkpt><trkpt lat="42.485428862105266" lon="12.033290060827719"><ele>334.0</ele><time>2026-04-28T11:15:36Z</time></trkpt><trkpt lat="42.48532092097026" lon="12.03338996578277"><ele>333.0</ele><time>2026-04-28T11:15:37Z</time></trkpt><trkpt lat="42.48522054837981" lon="12.033482846661137"><ele>332.0</ele><time>2026-04-28T11:15:38Z</time></trkpt><trkpt lat="42.48512492315281" lon="12.033571992317285"><ele>331.0</ele><time>2026-04-28T11:15:39Z</time></trkpt><trkpt lat="42.48503936917462" lon="12.03365399882762"><ele>331.0</ele><time>2026-04-28T11:15:40Z</time></trkpt><trkpt lat="42.484958465736305" lon="12.033731292364532"><ele>331.0</ele><time>2026-04-28T11:15:41Z</time></trkpt><trkpt lat="42.48487596679261" lon="12.03380984635978"><ele>331.0</ele><time>2026-04-28T11:15:42Z</time></trkpt><trkpt lat="42.48479014135594" lon="12.033892884557932"><ele>331.0</ele><time>2026-04-28T11:15:43Z</time></trkpt><trkpt lat="42.48470104127418" lon="12.033974946932634"><ele>331.0</ele><time>2026-04-28T11:15:44Z</time></trkpt><trkpt lat="42.48460952419009" lon="12.034061595344202"><ele>330.75</ele><time>2026-04-28T11:15:45Z</time></trkpt><trkpt lat="42.48451549802542" lon="12.034148369387477"><ele>330.5</ele><time>2026-04-28T11:15:46Z</time></trkpt><trkpt lat="42.48441903744317" lon="12.034239550742127"><ele>330.25</ele><time>2026-04-28T11:15:47Z</time></trkpt><trkpt lat="42.4843220420093" lon="12.034335397893729"><ele>330.0</ele><time>2026-04-28T11:15:48Z</time></trkpt><trkpt lat="42.4842193650486" lon="12.034434630465471"><ele>330.0</ele><time>2026-04-28T11:15:49Z</time></trkpt><trkpt lat="42.4841118283167" lon="12.034535694953231"><ele>330.0</ele><time>2026-04-28T11:15:50Z</time></trkpt><trkpt lat="42.484000492354824" lon="12.03463860624393"><ele>330.0</ele><time>2026-04-28T11:15:51Z</time></trkpt><trkpt lat="42.483886373887785" lon="12.034746905875377"><ele>330.0</ele><time>2026-04-28T11:15:52Z</time></trkpt><trkpt lat="42.483769484835534" lon="12.034857363890875"><ele>332.3333333333333</ele><time>2026-04-28T11:15:53Z</time></trkpt><trkpt lat="42.483647424892666" lon="12.034973092841017"><ele>334.66666666666663</ele><time>2026-04-28T11:15:54Z</time></trkpt><trkpt lat="42.48351617600013" lon="12.035092723803144"><ele>337.0</ele><time>2026-04-28T11:15:55Z</time></trkpt><trkpt lat="42.48337964349313" lon="12.035217298618997"><ele>337.0</ele><time>2026-04-28T11:15:56Z</time></trkpt><trkpt lat="42.48323742188027" lon="12.035349115297299"><ele>337.0</ele><time>2026-04-28T11:15:57Z</time></trkpt><trkpt lat="42.48308976545237" lon="12.035486850729198"><ele>337.0</ele><time>2026-04-28T11:15:58Z</time></trkpt><trkpt lat="42.48294134972607" lon="12.035629946830838"><ele>338.3333333333333</ele><time>2026-04-28T11:15:59Z</time></trkpt><trkpt lat="42.48279556725694" lon="12.035771946666966"><ele>339.6666666666667</ele><time>2026-04-28T11:16:00Z</time></trkpt><trkpt lat="42.4826396595837" lon="12.035920937231905"><ele>341.0</ele><time>2026-04-28T11:16:01Z</time></trkpt><trkpt lat="42.482476965691546" lon="12.03607249986511"><ele>341.0</ele><time>2026-04-28T11:16:02Z</time></trkpt><trkpt lat="42.48230840637633" lon="12.036226687767767"><ele>341.0</ele><time>2026-04-28T11:16:03Z</time></trkpt><trkpt lat="42.48214036352822" lon="12.036381216398151"><ele>341.0</ele><time>2026-04-28T11:16:04Z</time></trkpt><trkpt lat="42.48197981935802" lon="12.036533845800285"><ele>340.33333333333337</ele><time>2026-04-28T11:16:05Z</time></trkpt><trkpt lat="42.48182409940272" lon="12.036688183177981"><ele>339.6666666666667</ele><time>2026-04-28T11:16:06Z</time></trkpt><trkpt lat="42.481670952290294" lon="12.036852906214685"><ele>339.0</ele><time>2026-04-28T11:16:07Z</time></trkpt><trkpt lat="42.48152166962204" lon="12.037033644841465"><ele>339.0</ele><time>2026-04-28T11:16:08Z</time></trkpt><trkpt lat="42.48137794453523" lon="12.037228531990575"><ele>339.0</ele><time>2026-04-28T11:16:09Z</time></trkpt><trkpt lat="42.48123921761616" lon="12.037438031016563"><ele>339.0</ele><time>2026-04-28T11:16:10Z</time></trkpt><trkpt lat="42.48110618699117" lon="12.037661142608611"><ele>339.3333333333333</ele><time>2026-04-28T11:16:11Z</time></trkpt><trkpt lat="42.48098210318505" lon="12.037895666554798"><ele>339.66666666666663</ele><time>2026-04-28T11:16:12Z</time></trkpt><trkpt lat="42.480867460864765" lon="12.038138852673333"><ele>340.0</ele><time>2026-04-28T11:16:13Z</time></trkpt><trkpt lat="42.480758219193284" lon="12.038385865378823"><ele>340.66666666666663</ele><time>2026-04-28T11:16:14Z</time></trkpt><trkpt lat="42.48065760142951" lon="12.038639214382568"><ele>341.3333333333333</ele><time>2026-04-28T11:16:15Z</time></trkpt><trkpt lat="42.48056853180055" lon="12.038900414165138"><ele>342.0</ele><time>2026-04-28T11:16:16Z</time></trkpt><trkpt lat="42.480481190573514" lon="12.039163825981237"><ele>341.3333333333333</ele><time>2026-04-28T11:16:17Z</time></trkpt><trkpt lat="42.48039501943675" lon="12.039429669326392"><ele>340.66666666666663</ele><time>2026-04-28T11:16:18Z</time></trkpt><trkpt lat="42.4803066751917" lon="12.039700530383147"><ele>340.0</ele><time>2026-04-28T11:16:19Z</time></trkpt><trkpt lat="42.480217461673014" lon="12.039973442425264"><ele>340.0</ele><time>2026-04-28T11:16:20Z</time></trkpt><trkpt lat="42.48012593046498" lon="12.040246495396188"><ele>340.0</ele><time>2026-04-28T11:16:21Z</time></trkpt><trkpt lat="42.480033814710055" lon="12.040521059416601"><ele>340.0</ele><time>2026-04-28T11:16:22Z</time></trkpt><trkpt lat="42.47994517790219" lon="12.040798263457809"><ele>340.0</ele><time>2026-04-28T11:16:23Z</time></trkpt><trkpt lat="42.47985506542135" lon="12.041068572266807"><ele>340.0</ele><time>2026-04-28T11:16:24Z</time></trkpt><trkpt lat="42.47976489551799" lon="12.041341222518085"><ele>340.0</ele><time>2026-04-28T11:16:25Z</time></trkpt><trkpt lat="42.47967486701729" lon="12.04161580065781"><ele>339.66666666666663</ele><time>2026-04-28T11:16:26Z</time></trkpt><trkpt lat="42.47958476325902" lon="12.041890855806392"><ele>339.3333333333333</ele><time>2026-04-28T11:16:27Z</time></trkpt><trkpt lat="42.47949609585969" lon="12.04216463485752"><ele>339.0</ele><time>2026-04-28T11:16:28Z</time></trkpt><trkpt lat="42.47940844958852" lon="12.042439065042226"><ele>339.3333333333333</ele><time>2026-04-28T11:16:29Z</time></trkpt><trkpt lat="42.479317472831525" lon="12.042708564983183"><ele>339.66666666666663</ele><time>2026-04-28T11:16:30Z</time></trkpt><trkpt lat="42.479229282279036" lon="12.042981979147042"><ele>340.0</ele><time>2026-04-28T11:16:31Z</time></trkpt><trkpt lat="42.47913884230731" lon="12.04325309237625"><ele>340.3333333333333</ele><time>2026-04-28T11:16:32Z</time></trkpt><trkpt lat="42.47904735782693" lon="12.043525099586562"><ele>340.6666666666667</ele><time>2026-04-28T11:16:33Z</time></trkpt><trkpt lat="42.478956207225856" lon="12.04379759402386"><ele>341.0</ele><time>2026-04-28T11:16:34Z</time></trkpt><trkpt lat="42.47886649115283" lon="12.04406924024061"><ele>341.33333333333337</ele><time>2026-04-28T11:16:35Z</time></trkpt><trkpt lat="42.478774601266956" lon="12.044338307435801"><ele>341.6666666666667</ele><time>2026-04-28T11:16:36Z</time></trkpt><trkpt lat="42.47868531207428" lon="12.044610654214233"><ele>342.0</ele><time>2026-04-28T11:16:37Z</time></trkpt><trkpt lat="42.47859351083008" lon="12.044884894382518"><ele>342.0</ele><time>2026-04-28T11:16:38Z</time></trkpt><trkpt lat="42.4785025495806" lon="12.0451606508098"><ele>342.0</ele><time>2026-04-28T11:16:39Z</time></trkpt><trkpt lat="42.478410986697945" lon="12.045439023904477"><ele>342.0</ele><time>2026-04-28T11:16:40Z</time></trkpt><trkpt lat="42.47832263365455" lon="12.045711821096054"><ele>341.6666666666667</ele><time>2026-04-28T11:16:41Z</time></trkpt><trkpt lat="42.47823591469727" lon="12.045983849074986"><ele>341.33333333333337</ele><time>2026-04-28T11:16:42Z</time></trkpt><trkpt lat="42.47814655424962" lon="12.046258456743757"><ele>341.0</ele><time>2026-04-28T11:16:43Z</time></trkpt><trkpt lat="42.47805640463164" lon="12.046536155267944"><ele>340.5</ele><time>2026-04-28T11:16:44Z</time></trkpt><trkpt lat="42.477961871375754" lon="12.046828903021176"><ele>340.0</ele><time>2026-04-28T11:16:45Z</time></trkpt><trkpt lat="42.47786353245039" lon="12.047131758485486"><ele>340.0</ele><time>2026-04-28T11:16:46Z</time></trkpt><trkpt lat="42.477762578420275" lon="12.047435243688216"><ele>340.0</ele><time>2026-04-28T11:16:47Z</time></trkpt><trkpt lat="42.477660889555494" lon="12.047739449355817"><ele>339.5</ele><time>2026-04-28T11:16:48Z</time></trkpt><trkpt lat="42.4775606572568" lon="12.048043351070632"><ele>339.0</ele><time>2026-04-28T11:16:49Z</time></trkpt><trkpt lat="42.47746268185826" lon="12.048344102733136"><ele>338.5</ele><time>2026-04-28T11:16:50Z</time></trkpt><trkpt lat="42.47736538966805" lon="12.048636377959136"><ele>338.0</ele><time>2026-04-28T11:16:51Z</time></trkpt><trkpt lat="42.47727060765597" lon="12.048918300607019"><ele>337.0</ele><time>2026-04-28T11:16:52Z</time></trkpt><trkpt lat="42.477177864628295" lon="12.049198813141189"><ele>336.0</ele><time>2026-04-28T11:16:53Z</time></trkpt><trkpt lat="42.47708462255942" lon="12.049482740360057"><ele>336.0</ele><time>2026-04-28T11:16:54Z</time></trkpt><trkpt lat="42.476993047134805" lon="12.049766995460226"><ele>336.0</ele><time>2026-04-28T11:16:55Z</time></trkpt><trkpt lat="42.476898277426436" lon="12.050048722818403"><ele>335.5</ele><time>2026-04-28T11:16:56Z</time></trkpt><trkpt lat="42.47679946267327" lon="12.050330258335531"><ele>335.0</ele><time>2026-04-28T11:16:57Z</time></trkpt><trkpt lat="42.47669543084662" lon="12.050609928963159"><ele>335.0</ele><time>2026-04-28T11:16:58Z</time></trkpt><trkpt lat="42.47658437191644" lon="12.050874840082217"><ele>335.0</ele><time>2026-04-28T11:16:59Z</time></trkpt><trkpt lat="42.47646600445514" lon="12.05111619454324"><ele>335.0</ele><time>2026-04-28T11:17:00Z</time></trkpt><trkpt lat="42.47633346271134" lon="12.051347264658384"><ele>334.0</ele><time>2026-04-28T11:17:01Z</time></trkpt><trkpt lat="42.47618448314626" lon="12.051570490852516"><ele>333.0</ele><time>2026-04-28T11:17:02Z</time></trkpt><trkpt lat="42.47602474438881" lon="12.051794475857152"><ele>333.0</ele><time>2026-04-28T11:17:03Z</time></trkpt><trkpt lat="42.47585752770793" lon="12.052016701629228"><ele>333.0</ele><time>2026-04-28T11:17:04Z</time></trkpt><trkpt lat="42.47568923368202" lon="12.052229644967634"><ele>333.0</ele><time>2026-04-28T11:17:05Z</time></trkpt><trkpt lat="42.47551749213746" lon="12.052440102753854"><ele>333.0</ele><time>2026-04-28T11:17:06Z</time></trkpt><trkpt lat="42.475345670896516" lon="12.052651861562513"><ele>332.5</ele><time>2026-04-28T11:17:07Z</time></trkpt><trkpt lat="42.475177323855846" lon="12.052863101321044"><ele>332.0</ele><time>2026-04-28T11:17:08Z</time></trkpt><trkpt lat="42.47501120255239" lon="12.053076493615515"><ele>330.5</ele><time>2026-04-28T11:17:09Z</time></trkpt><trkpt lat="42.47484257726675" lon="12.053291220131953"><ele>329.0</ele><time>2026-04-28T11:17:10Z</time></trkpt><trkpt lat="42.47466913064783" lon="12.05350711856688"><ele>329.5</ele><time>2026-04-28T11:17:11Z</time></trkpt><trkpt lat="42.4744924921861" lon="12.053723416406145"><ele>330.0</ele><time>2026-04-28T11:17:12Z</time></trkpt><trkpt lat="42.47431179826228" lon="12.053945390786597"><ele>329.0</ele><time>2026-04-28T11:17:13Z</time></trkpt><trkpt lat="42.47412689252988" lon="12.054175286213468"><ele>328.0</ele><time>2026-04-28T11:17:14Z</time></trkpt><trkpt lat="42.47393883780938" lon="12.054409977204148"><ele>328.5</ele><time>2026-04-28T11:17:15Z</time></trkpt><trkpt lat="42.47376072535744" lon="12.054632308773659"><ele>329.0</ele><time>2026-04-28T11:17:16Z</time></trkpt><trkpt lat="42.47359130964332" lon="12.054845816372016"><ele>327.5</ele><time>2026-04-28T11:17:17Z</time></trkpt><trkpt lat="42.47342367848306" lon="12.055057469446993"><ele>326.0</ele><time>2026-04-28T11:17:18Z</time></trkpt><trkpt lat="42.47325935906689" lon="12.055264072767226"><ele>326.0</ele><time>2026-04-28T11:17:19Z</time></trkpt><trkpt lat="42.47310171379956" lon="12.055466511487142"><ele>326.0</ele><time>2026-04-28T11:17:20Z</time></trkpt><trkpt lat="42.472960165157495" lon="12.055660290373272"><ele>326.0</ele><time>2026-04-28T11:17:21Z</time></trkpt><trkpt lat="42.47283160655031" lon="12.055859937258688"><ele>325.6666666666667</ele><time>2026-04-28T11:17:22Z</time></trkpt><trkpt lat="42.4727111679982" lon="12.056079935502153"><ele>325.3333333333333</ele><time>2026-04-28T11:17:23Z</time></trkpt><trkpt lat="42.47259797606242" lon="12.056318148595466"><ele>325.0</ele><time>2026-04-28T11:17:24Z</time></trkpt><trkpt lat="42.47248560554833" lon="12.056563131321429"><ele>324.0</ele><time>2026-04-28T11:17:25Z</time></trkpt><trkpt lat="42.47238040956592" lon="12.056829789651202"><ele>323.0</ele><time>2026-04-28T11:17:26Z</time></trkpt><trkpt lat="42.47227656485003" lon="12.057105870601289"><ele>323.0</ele><time>2026-04-28T11:17:27Z</time></trkpt><trkpt lat="42.47216709244933" lon="12.0573894589294"><ele>323.0</ele><time>2026-04-28T11:17:28Z</time></trkpt><trkpt lat="42.47205008657424" lon="12.057681276523292"><ele>322.0</ele><time>2026-04-28T11:17:29Z</time></trkpt><trkpt lat="42.47193046534744" lon="12.057983145652836"><ele>321.0</ele><time>2026-04-28T11:17:30Z</time></trkpt><trkpt lat="42.471810234312564" lon="12.058292872549227"><ele>321.0</ele><time>2026-04-28T11:17:31Z</time></trkpt><trkpt lat="42.471688086823285" lon="12.058607106859967"><ele>321.0</ele><time>2026-04-28T11:17:32Z</time></trkpt><trkpt lat="42.47156492305199" lon="12.058924371504483"><ele>321.5</ele><time>2026-04-28T11:17:33Z</time></trkpt><trkpt lat="42.47144174492315" lon="12.059244865947191"><ele>322.0</ele><time>2026-04-28T11:17:34Z</time></trkpt><trkpt lat="42.471319720779555" lon="12.059566412478349"><ele>322.5</ele><time>2026-04-28T11:17:35Z</time></trkpt><trkpt lat="42.47119798647321" lon="12.059885038949718"><ele>323.0</ele><time>2026-04-28T11:17:36Z</time></trkpt><trkpt lat="42.471076401831326" lon="12.06019957496786"><ele>324.0</ele><time>2026-04-28T11:17:37Z</time></trkpt><trkpt lat="42.47095392773594" lon="12.060511908254387"><ele>325.0</ele><time>2026-04-28T11:17:38Z</time></trkpt><trkpt lat="42.47083027316449" lon="12.060820588724853"><ele>325.0</ele><time>2026-04-28T11:17:39Z</time></trkpt><trkpt lat="42.470709089782574" lon="12.061125664790543"><ele>325.0</ele><time>2026-04-28T11:17:40Z</time></trkpt><trkpt lat="42.47059077455034" lon="12.061429390176952"><ele>324.0</ele><time>2026-04-28T11:17:41Z</time></trkpt><trkpt lat="42.47047314362307" lon="12.061730724770255"><ele>323.0</ele><time>2026-04-28T11:17:42Z</time></trkpt><trkpt lat="42.47035735613358" lon="12.062029679139036"><ele>324.5</ele><time>2026-04-28T11:17:43Z</time></trkpt><trkpt lat="42.47024456151742" lon="12.062326662419121"><ele>326.0</ele><time>2026-04-28T11:17:44Z</time></trkpt><trkpt lat="42.47013332257675" lon="12.062625309854717"><ele>326.0</ele><time>2026-04-28T11:17:45Z</time></trkpt><trkpt lat="42.4700228655089" lon="12.062920352527717"><ele>326.0</ele><time>2026-04-28T11:17:46Z</time></trkpt><trkpt lat="42.46991010020439" lon="12.063213338787996"><ele>326.0</ele><time>2026-04-28T11:17:47Z</time></trkpt><trkpt lat="42.469796329432654" lon="12.063503296829804"><ele>326.0</ele><time>2026-04-28T11:17:48Z</time></trkpt><trkpt lat="42.46968235594514" lon="12.063790674529596"><ele>326.0</ele><time>2026-04-28T11:17:49Z</time></trkpt><trkpt lat="42.469567526614995" lon="12.064077025315276"><ele>326.0</ele><time>2026-04-28T11:17:50Z</time></trkpt><trkpt lat="42.46945526377919" lon="12.06436546345401"><ele>325.33333333333337</ele><time>2026-04-28T11:17:51Z</time></trkpt><trkpt lat="42.46935081436072" lon="12.064644001335951"><ele>324.6666666666667</ele><time>2026-04-28T11:17:52Z</time></trkpt><trkpt lat="42.46925113240706" lon="12.064908065374082"><ele>324.0</ele><time>2026-04-28T11:17:53Z</time></trkpt><trkpt lat="42.46915401330904" lon="12.065158352167508"><ele>323.3333333333333</ele><time>2026-04-28T11:17:54Z</time></trkpt><trkpt lat="42.469058364268925" lon="12.065394616034604"><ele>322.66666666666663</ele><time>2026-04-28T11:17:55Z</time></trkpt><trkpt lat="42.468967872296886" lon="12.06562195564749"><ele>322.0</ele><time>2026-04-28T11:17:56Z</time></trkpt><trkpt lat="42.46888297133318" lon="12.06584107464701"><ele>322.0</ele><time>2026-04-28T11:17:57Z</time></trkpt><trkpt lat="42.46880098880676" lon="12.066051055953714"><ele>322.0</ele><time>2026-04-28T11:17:58Z</time></trkpt><trkpt lat="42.468714981005064" lon="12.066246225442201"><ele>322.0</ele><time>2026-04-28T11:17:59Z</time></trkpt><trkpt lat="42.468622057086954" lon="12.06642850135797"><ele>321.3333333333333</ele><time>2026-04-28T11:18:00Z</time></trkpt><trkpt lat="42.46852237451023" lon="12.06660411411857"><ele>320.6666666666667</ele><time>2026-04-28T11:18:01Z</time></trkpt><trkpt lat="42.46841538666785" lon="12.066773891327147"><ele>320.0</ele><time>2026-04-28T11:18:02Z</time></trkpt><trkpt lat="42.46830243816205" lon="12.066932491169874"><ele>320.0</ele><time>2026-04-28T11:18:03Z</time></trkpt><trkpt lat="42.46818258492803" lon="12.067081672873094"><ele>320.0</ele><time>2026-04-28T11:18:04Z</time></trkpt><trkpt lat="42.46806101028279" lon="12.067226541874227"><ele>320.0</ele><time>2026-04-28T11:18:05Z</time></trkpt><trkpt lat="42.467941017207025" lon="12.067371390728418"><ele>319.6666666666667</ele><time>2026-04-28T11:18:06Z</time></trkpt><trkpt lat="42.46782329507262" lon="12.0675183909129"><ele>319.3333333333333</ele><time>2026-04-28T11:18:07Z</time></trkpt><trkpt lat="42.46770448316552" lon="12.067665523582845"><ele>319.0</ele><time>2026-04-28T11:18:08Z</time></trkpt><trkpt lat="42.467585304363425" lon="12.067811679495792"><ele>319.0</ele><time>2026-04-28T11:18:09Z</time></trkpt><trkpt lat="42.467465368933766" lon="12.067957424292572"><ele>319.0</ele><time>2026-04-28T11:18:10Z</time></trkpt><trkpt lat="42.467345553324776" lon="12.068105735776056"><ele>319.0</ele><time>2026-04-28T11:18:11Z</time></trkpt><trkpt lat="42.46722742099004" lon="12.068254678159647"><ele>319.3333333333333</ele><time>2026-04-28T11:18:12Z</time></trkpt><trkpt lat="42.467109987025445" lon="12.068405798337794"><ele>319.6666666666667</ele><time>2026-04-28T11:18:13Z</time></trkpt><trkpt lat="42.46699129025963" lon="12.068554880004"><ele>320.0</ele><time>2026-04-28T11:18:14Z</time></trkpt><trkpt lat="42.466868904704306" lon="12.068698356484404"><ele>320.0</ele><time>2026-04-28T11:18:15Z</time></trkpt><trkpt lat="42.46674647258123" lon="12.06884119553705"><ele>320.0</ele><time>2026-04-28T11:18:16Z</time></trkpt><trkpt lat="42.466625192074446" lon="12.068988816079697"><ele>320.0</ele><time>2026-04-28T11:18:17Z</time></trkpt><trkpt lat="42.46650489079649" lon="12.069139788995756"><ele>320.0</ele><time>2026-04-28T11:18:18Z</time></trkpt><trkpt lat="42.466383993032224" lon="12.069292076643489"><ele>320.0</ele><time>2026-04-28T11:18:19Z</time></trkpt><trkpt lat="42.46626289350521" lon="12.069445731266223"><ele>320.0</ele><time>2026-04-28T11:18:20Z</time></trkpt><trkpt lat="42.46614239168554" lon="12.06959957379394"><ele>320.0</ele><time>2026-04-28T11:18:21Z</time></trkpt><trkpt lat="42.46602062173359" lon="12.06975108030614"><ele>320.0</ele><time>2026-04-28T11:18:22Z</time></trkpt><trkpt lat="42.465896112281776" lon="12.069901149741874"><ele>320.0</ele><time>2026-04-28T11:18:23Z</time></trkpt><trkpt lat="42.46576875872914" lon="12.070055157086966"><ele>319.33333333333337</ele><time>2026-04-28T11:18:24Z</time></trkpt><trkpt lat="42.46563897592981" lon="12.070216502027053"><ele>318.6666666666667</ele><time>2026-04-28T11:18:25Z</time></trkpt><trkpt lat="42.46550788695373" lon="12.070380390384294"><ele>318.0</ele><time>2026-04-28T11:18:26Z</time></trkpt><trkpt lat="42.46537401745253" lon="12.070547303808867"><ele>317.6666666666667</ele><time>2026-04-28T11:18:27Z</time></trkpt><trkpt lat="42.46523706586994" lon="12.070716816581049"><ele>317.33333333333337</ele><time>2026-04-28T11:18:28Z</time></trkpt><trkpt lat="42.4650980173041" lon="12.070887700611976"><ele>317.0</ele><time>2026-04-28T11:18:29Z</time></trkpt><trkpt lat="42.464958504981894" lon="12.071060161673296"><ele>317.0</ele><time>2026-04-28T11:18:30Z</time></trkpt><trkpt lat="42.46482064532093" lon="12.071230883704054"><ele>317.0</ele><time>2026-04-28T11:18:31Z</time></trkpt><trkpt lat="42.46468297976445" lon="12.071403998497075"><ele>317.0</ele><time>2026-04-28T11:18:32Z</time></trkpt><trkpt lat="42.4645449118545" lon="12.07157818658428"><ele>317.0</ele><time>2026-04-28T11:18:33Z</time></trkpt><trkpt lat="42.46440900969083" lon="12.07175097192339"><ele>317.0</ele><time>2026-04-28T11:18:34Z</time></trkpt><trkpt lat="42.46427135788982" lon="12.07191894232738"><ele>317.0</ele><time>2026-04-28T11:18:35Z</time></trkpt><trkpt lat="42.46413235114231" lon="12.072078992194363"><ele>317.0</ele><time>2026-04-28T11:18:36Z</time></trkpt><trkpt lat="42.463989004527235" lon="12.072229656852382"><ele>317.0</ele><time>2026-04-28T11:18:37Z</time></trkpt><trkpt lat="42.463840158548585" lon="12.072371665725015"><ele>317.0</ele><time>2026-04-28T11:18:38Z</time></trkpt><trkpt lat="42.46368844093946" lon="12.072507681787215"><ele>316.6666666666667</ele><time>2026-04-28T11:18:39Z</time></trkpt><trkpt lat="42.46353665944606" lon="12.072637782025291"><ele>316.3333333333333</ele><time>2026-04-28T11:18:40Z</time></trkpt><trkpt lat="42.463383694277816" lon="12.072763810935514"><ele>316.0</ele><time>2026-04-28T11:18:41Z</time></trkpt><trkpt lat="42.463232919978154" lon="12.072884047064294"><ele>316.0</ele><time>2026-04-28T11:18:42Z</time></trkpt><trkpt lat="42.46308612122464" lon="12.07299757943166"><ele>316.0</ele><time>2026-04-28T11:18:43Z</time></trkpt><trkpt lat="42.462945844495394" lon="12.073110205088668"><ele>316.0</ele><time>2026-04-28T11:18:44Z</time></trkpt><trkpt lat="42.46281282285011" lon="12.07321908269543"><ele>315.5</ele><time>2026-04-28T11:18:45Z</time></trkpt><trkpt lat="42.46268353857556" lon="12.073329473192196"><ele>315.0</ele><time>2026-04-28T11:18:46Z</time></trkpt><trkpt lat="42.462562923817764" lon="12.073450690990027"><ele>314.5</ele><time>2026-04-28T11:18:47Z</time></trkpt><trkpt lat="42.46245589317131" lon="12.073579125396874"><ele>314.0</ele><time>2026-04-28T11:18:48Z</time></trkpt><trkpt lat="42.46238531756788" lon="12.073725007152582"><ele>314.0</ele><time>2026-04-28T11:18:49Z</time></trkpt><trkpt lat="42.462339568510124" lon="12.073876324350005"><ele>314.0</ele><time>2026-04-28T11:18:50Z</time></trkpt><trkpt lat="42.46229945254855" lon="12.074041440539421"><ele>314.0</ele><time>2026-04-28T11:18:51Z</time></trkpt><trkpt lat="42.46225940668349" lon="12.074202899916445"><ele>314.0</ele><time>2026-04-28T11:18:52Z</time></trkpt><trkpt lat="42.4621996209854" lon="12.074342940513148"><ele>313.75</ele><time>2026-04-28T11:18:53Z</time></trkpt><trkpt lat="42.46212829456931" lon="12.074449164659782"><ele>313.5</ele><time>2026-04-28T11:18:54Z</time></trkpt><trkpt lat="42.46204477598618" lon="12.074533429029117"><ele>313.25</ele><time>2026-04-28T11:18:55Z</time></trkpt><trkpt lat="42.461936396009904" lon="12.074609737352878"><ele>313.0</ele><time>2026-04-28T11:18:56Z</time></trkpt><trkpt lat="42.46180636642574" lon="12.074679080279456"><ele>313.0</ele><time>2026-04-28T11:18:57Z</time></trkpt><trkpt lat="42.46165854419618" lon="12.074753602836056"><ele>313.0</ele><time>2026-04-28T11:18:58Z</time></trkpt><trkpt lat="42.46150549214603" lon="12.07483498904677"><ele>313.0</ele><time>2026-04-28T11:18:59Z</time></trkpt><trkpt lat="42.46135070567333" lon="12.074916151451573"><ele>313.0</ele><time>2026-04-28T11:19:00Z</time></trkpt><trkpt lat="42.46119400729647" lon="12.075001434296489"><ele>313.0</ele><time>2026-04-28T11:19:01Z</time></trkpt><trkpt lat="42.46103616820086" lon="12.075093175052533"><ele>313.0</ele><time>2026-04-28T11:19:02Z</time></trkpt><trkpt lat="42.460874634286846" lon="12.075183405012265"><ele>313.0</ele><time>2026-04-28T11:19:03Z</time></trkpt><trkpt lat="42.46070857433007" lon="12.075273390808052"><ele>313.0</ele><time>2026-04-28T11:19:04Z</time></trkpt><trkpt lat="42.46053938564306" lon="12.075367066380652"><ele>313.0</ele><time>2026-04-28T11:19:05Z</time></trkpt><trkpt lat="42.46037111171724" lon="12.075455052474574"><ele>313.0</ele><time>2026-04-28T11:19:06Z</time></trkpt><trkpt lat="42.460201215541026" lon="12.075541125541621"><ele>313.0</ele><time>2026-04-28T11:19:07Z</time></trkpt><trkpt lat="42.460031931961936" lon="12.075630020248983"><ele>313.0</ele><time>2026-04-28T11:19:08Z</time></trkpt><trkpt lat="42.459861006785204" lon="12.075724256069295"><ele>313.0</ele><time>2026-04-28T11:19:09Z</time></trkpt><trkpt lat="42.459690767265755" lon="12.075823480269401"><ele>313.0</ele><time>2026-04-28T11:19:10Z</time></trkpt><trkpt lat="42.45952105389385" lon="12.07592539745765"><ele>313.0</ele><time>2026-04-28T11:19:11Z</time></trkpt><trkpt lat="42.45935197590849" lon="12.07603404895003"><ele>312.66666666666663</ele><time>2026-04-28T11:19:12Z</time></trkpt><trkpt lat="42.4591812650806" lon="12.076146060563254"><ele>312.3333333333333</ele><time>2026-04-28T11:19:13Z</time></trkpt><trkpt lat="42.459008507168726" lon="12.07625979483316"><ele>312.0</ele><time>2026-04-28T11:19:14Z</time></trkpt><trkpt lat="42.458835004492684" lon="12.07637787540007"><ele>311.3333333333333</ele><time>2026-04-28T11:19:15Z</time></trkpt><trkpt lat="42.4586609157023" lon="12.076499287192267"><ele>310.66666666666663</ele><time>2026-04-28T11:19:16Z</time></trkpt><trkpt lat="42.458485568796895" lon="12.076617936021947"><ele>310.0</ele><time>2026-04-28T11:19:17Z</time></trkpt><trkpt lat="42.458310063429884" lon="12.076737752587128"><ele>309.3333333333333</ele><time>2026-04-28T11:19:18Z</time></trkpt><trkpt lat="42.4581344394936" lon="12.076858443863202"><ele>308.6666666666667</ele><time>2026-04-28T11:19:19Z</time></trkpt><trkpt lat="42.45795879715179" lon="12.07697685744052"><ele>308.0</ele><time>2026-04-28T11:19:20Z</time></trkpt><trkpt lat="42.45778301766629" lon="12.07709615217774"><ele>307.6666666666667</ele><time>2026-04-28T11:19:21Z</time></trkpt><trkpt lat="42.457606949742654" lon="12.077214059877923"><ele>307.3333333333333</ele><time>2026-04-28T11:19:22Z</time></trkpt><trkpt lat="42.45743198909711" lon="12.077334689424791"><ele>307.0</ele><time>2026-04-28T11:19:23Z</time></trkpt><trkpt lat="42.45725648777103" lon="12.077455346983372"><ele>307.3333333333333</ele><time>2026-04-28T11:19:24Z</time></trkpt><trkpt lat="42.4570817688564" lon="12.077574760991837"><ele>307.6666666666667</ele><time>2026-04-28T11:19:25Z</time></trkpt><trkpt lat="42.45690497850299" lon="12.077691894119559"><ele>308.0</ele><time>2026-04-28T11:19:26Z</time></trkpt><trkpt lat="42.45672939150156" lon="12.077808381771977"><ele>308.0</ele><time>2026-04-28T11:19:27Z</time></trkpt><trkpt lat="42.456554265131345" lon="12.077928981905865"><ele>308.0</ele><time>2026-04-28T11:19:28Z</time></trkpt><trkpt lat="42.45637748073039" lon="12.078052105076965"><ele>308.0</ele><time>2026-04-28T11:19:29Z</time></trkpt><trkpt lat="42.45619920127225" lon="12.07817847109892"><ele>307.33333333333337</ele><time>2026-04-28T11:19:30Z</time></trkpt><trkpt lat="42.45602030565058" lon="12.078299456997597"><ele>306.6666666666667</ele><time>2026-04-28T11:19:31Z</time></trkpt><trkpt lat="42.455838827790785" lon="12.078418572702034"><ele>306.0</ele><time>2026-04-28T11:19:32Z</time></trkpt><trkpt lat="42.45565802111436" lon="12.078540516584221"><ele>306.0</ele><time>2026-04-28T11:19:33Z</time></trkpt><trkpt lat="42.4554775074395" lon="12.078666750542247"><ele>306.0</ele><time>2026-04-28T11:19:34Z</time></trkpt><trkpt lat="42.45529709085238" lon="12.07879545809852"><ele>306.0</ele><time>2026-04-28T11:19:35Z</time></trkpt><trkpt lat="42.455116639359886" lon="12.07892663307127"><ele>306.3333333333333</ele><time>2026-04-28T11:19:36Z</time></trkpt><trkpt lat="42.454937432642105" lon="12.079063538413921"><ele>306.66666666666663</ele><time>2026-04-28T11:19:37Z</time></trkpt><trkpt lat="42.454759853983376" lon="12.0792051306136"><ele>307.0</ele><time>2026-04-28T11:19:38Z</time></trkpt><trkpt lat="42.454584954240694" lon="12.079352033495471"><ele>307.0</ele><time>2026-04-28T11:19:39Z</time></trkpt><trkpt lat="42.45441095141187" lon="12.079501078290988"><ele>307.0</ele><time>2026-04-28T11:19:40Z</time></trkpt><trkpt lat="42.45423601127669" lon="12.079650626437546"><ele>307.0</ele><time>2026-04-28T11:19:41Z</time></trkpt><trkpt lat="42.45405764144996" lon="12.079800007811762"><ele>307.66666666666663</ele><time>2026-04-28T11:19:42Z</time></trkpt><trkpt lat="42.45387671225055" lon="12.079952427326354"><ele>308.3333333333333</ele><time>2026-04-28T11:19:43Z</time></trkpt><trkpt lat="42.45369822242434" lon="12.08010716967768"><ele>309.0</ele><time>2026-04-28T11:19:44Z</time></trkpt><trkpt lat="42.45352346515388" lon="12.080259093126479"><ele>309.0</ele><time>2026-04-28T11:19:45Z</time></trkpt><trkpt lat="42.4533529762509" lon="12.080406225773261"><ele>309.0</ele><time>2026-04-28T11:19:46Z</time></trkpt><trkpt lat="42.45319053080238" lon="12.080542409729656"><ele>309.0</ele><time>2026-04-28T11:19:47Z</time></trkpt><trkpt lat="42.45303760966106" lon="12.080668855109494"><ele>309.25</ele><time>2026-04-28T11:19:48Z</time></trkpt><trkpt lat="42.45292002131581" lon="12.080761728041955"><ele>309.5</ele><time>2026-04-28T11:19:49Z</time></trkpt><trkpt lat="42.452801764700304" lon="12.08084862186709"><ele>309.75</ele><time>2026-04-28T11:19:50Z</time></trkpt><trkpt lat="42.45266716282867" lon="12.0809245273527"><ele>310.0</ele><time>2026-04-28T11:19:51Z</time></trkpt><trkpt lat="42.45252089524148" lon="12.080987410671131"><ele>310.66666666666663</ele><time>2026-04-28T11:19:52Z</time></trkpt><trkpt lat="42.45236644989833" lon="12.08105551499366"><ele>311.3333333333333</ele><time>2026-04-28T11:19:53Z</time></trkpt><trkpt lat="42.452208816463795" lon="12.081126250547266"><ele>312.0</ele><time>2026-04-28T11:19:54Z</time></trkpt><trkpt lat="42.45205017952356" lon="12.081206386276563"><ele>312.3333333333333</ele><time>2026-04-28T11:19:55Z</time></trkpt><trkpt lat="42.451885405675775" lon="12.08129978769987"><ele>312.66666666666663</ele><time>2026-04-28T11:19:56Z</time></trkpt><trkpt lat="42.45171823737912" lon="12.08140277564419"><ele>313.0</ele><time>2026-04-28T11:19:57Z</time></trkpt><trkpt lat="42.45154856596889" lon="12.081503060736312"><ele>313.0</ele><time>2026-04-28T11:19:58Z</time></trkpt><trkpt lat="42.451379994685475" lon="12.081622428767153"><ele>313.0</ele><time>2026-04-28T11:19:59Z</time></trkpt><trkpt lat="42.45121956298292" lon="12.081743967679275"><ele>313.0</ele><time>2026-04-28T11:20:00Z</time></trkpt><trkpt lat="42.45106964392615" lon="12.0818550254185"><ele>313.66666666666663</ele><time>2026-04-28T11:20:01Z</time></trkpt><trkpt lat="42.45091767904817" lon="12.08196517310613"><ele>314.3333333333333</ele><time>2026-04-28T11:20:02Z</time></trkpt><trkpt lat="42.45076120291974" lon="12.08207769199023"><ele>315.0</ele><time>2026-04-28T11:20:03Z</time></trkpt><trkpt lat="42.450604676468004" lon="12.082194590251438"><ele>315.0</ele><time>2026-04-28T11:20:04Z</time></trkpt><trkpt lat="42.450445678095015" lon="12.082313544368994"><ele>315.0</ele><time>2026-04-28T11:20:05Z</time></trkpt><trkpt lat="42.45028805920709" lon="12.082432646140548"><ele>315.0</ele><time>2026-04-28T11:20:06Z</time></trkpt><trkpt lat="42.45014014538839" lon="12.08254043013292"><ele>315.3333333333333</ele><time>2026-04-28T11:20:07Z</time></trkpt><trkpt lat="42.44999749699757" lon="12.082640953672342"><ele>315.66666666666663</ele><time>2026-04-28T11:20:08Z</time></trkpt><trkpt lat="42.44985362807694" lon="12.082746282313158"><ele>316.0</ele><time>2026-04-28T11:20:09Z</time></trkpt><trkpt lat="42.44970922608867" lon="12.082850746335474"><ele>316.0</ele><time>2026-04-28T11:20:10Z</time></trkpt><trkpt lat="42.44956550584555" lon="12.082954725285177"><ele>316.0</ele><time>2026-04-28T11:20:11Z</time></trkpt><trkpt lat="42.44942257865871" lon="12.08306393731231"><ele>316.0</ele><time>2026-04-28T11:20:12Z</time></trkpt><trkpt lat="42.4492809054179" lon="12.083177660524642"><ele>316.0</ele><time>2026-04-28T11:20:13Z</time></trkpt><trkpt lat="42.449135855625585" lon="12.0832852834976"><ele>316.0</ele><time>2026-04-28T11:20:14Z</time></trkpt><trkpt lat="42.448990734328106" lon="12.083388180251449"><ele>316.0</ele><time>2026-04-28T11:20:15Z</time></trkpt><trkpt lat="42.44884846448337" lon="12.083492218826752"><ele>316.0</ele><time>2026-04-28T11:20:16Z</time></trkpt><trkpt lat="42.4487162096982" lon="12.083593344387367"><ele>316.0</ele><time>2026-04-28T11:20:17Z</time></trkpt><trkpt lat="42.44858779699139" lon="12.08368498966501"><ele>316.0</ele><time>2026-04-28T11:20:18Z</time></trkpt><trkpt lat="42.448465035788395" lon="12.083774388390387"><ele>316.0</ele><time>2026-04-28T11:20:19Z</time></trkpt><trkpt lat="42.448340402054235" lon="12.083869901798058"><ele>316.0</ele><time>2026-04-28T11:20:20Z</time></trkpt><trkpt lat="42.448213446914124" lon="12.08397182875962"><ele>316.0</ele><time>2026-04-28T11:20:21Z</time></trkpt><trkpt lat="42.448083999991816" lon="12.084083863400343"><ele>316.0</ele><time>2026-04-28T11:20:22Z</time></trkpt><trkpt lat="42.44795761415991" lon="12.084197909335225"><ele>316.0</ele><time>2026-04-28T11:20:23Z</time></trkpt><trkpt lat="42.44783412546918" lon="12.08431545027266"><ele>316.0</ele><time>2026-04-28T11:20:24Z</time></trkpt><trkpt lat="42.44771392707301" lon="12.084432511636695"><ele>316.0</ele><time>2026-04-28T11:20:25Z</time></trkpt><trkpt lat="42.44759494244806" lon="12.08454416260586"><ele>316.0</ele><time>2026-04-28T11:20:26Z</time></trkpt><trkpt lat="42.4474679527865" lon="12.08465468442743"><ele>316.0</ele><time>2026-04-28T11:20:27Z</time></trkpt><trkpt lat="42.44733709149822" lon="12.084764855065504"><ele>316.0</ele><time>2026-04-28T11:20:28Z</time></trkpt><trkpt lat="42.447202169772034" lon="12.084870952319573"><ele>316.0</ele><time>2026-04-28T11:20:29Z</time></trkpt><trkpt lat="42.44706623436016" lon="12.08498700685527"><ele>315.3333333333333</ele><time>2026-04-28T11:20:30Z</time></trkpt><trkpt lat="42.44692664737088" lon="12.085102074713493"><ele>314.6666666666667</ele><time>2026-04-28T11:20:31Z</time></trkpt><trkpt lat="42.446790605891195" lon="12.085212175690387"><ele>314.0</ele><time>2026-04-28T11:20:32Z</time></trkpt><trkpt lat="42.446658247218366" lon="12.085309295442741"><ele>314.0</ele><time>2026-04-28T11:20:33Z</time></trkpt><trkpt lat="42.44651293515337" lon="12.085396272555798"><ele>314.0</ele><time>2026-04-28T11:20:34Z</time></trkpt><trkpt lat="42.446355577984754" lon="12.085484112408697"><ele>314.0</ele><time>2026-04-28T11:20:35Z</time></trkpt><trkpt lat="42.4461921910022" lon="12.085571069718092"><ele>313.6666666666667</ele><time>2026-04-28T11:20:36Z</time></trkpt><trkpt lat="42.44602052327806" lon="12.085653513334137"><ele>313.3333333333333</ele><time>2026-04-28T11:20:37Z</time></trkpt><trkpt lat="42.445839039337386" lon="12.085731730472867"><ele>313.0</ele><time>2026-04-28T11:20:38Z</time></trkpt><trkpt lat="42.445656190791425" lon="12.08581462051703"><ele>313.0</ele><time>2026-04-28T11:20:39Z</time></trkpt><trkpt lat="42.44548214195656" lon="12.085907264254416"><ele>313.0</ele><time>2026-04-28T11:20:40Z</time></trkpt><trkpt lat="42.44531194291223" lon="12.086017164404284"><ele>313.0</ele><time>2026-04-28T11:20:41Z</time></trkpt><trkpt lat="42.44513777704944" lon="12.086139377026068"><ele>313.3333333333333</ele><time>2026-04-28T11:20:42Z</time></trkpt><trkpt lat="42.44496471308277" lon="12.086268673662769"><ele>313.6666666666667</ele><time>2026-04-28T11:20:43Z</time></trkpt><trkpt lat="42.44480026148947" lon="12.08639622400562"><ele>314.0</ele><time>2026-04-28T11:20:44Z</time></trkpt><trkpt lat="42.444647050225875" lon="12.08651824164449"><ele>314.6666666666667</ele><time>2026-04-28T11:20:45Z</time></trkpt><trkpt lat="42.44450451357435" lon="12.086641396136834"><ele>315.3333333333333</ele><time>2026-04-28T11:20:46Z</time></trkpt><trkpt lat="42.44436750925512" lon="12.086757981688256"><ele>316.0</ele><time>2026-04-28T11:20:47Z</time></trkpt><trkpt lat="42.44423585927921" lon="12.086867369995579"><ele>316.0</ele><time>2026-04-28T11:20:48Z</time></trkpt><trkpt lat="42.44411172164324" lon="12.08697458476158"><ele>316.0</ele><time>2026-04-28T11:20:49Z</time></trkpt><trkpt lat="42.44399257100793" lon="12.08707742487456"><ele>316.0</ele><time>2026-04-28T11:20:50Z</time></trkpt><trkpt lat="42.443881496705856" lon="12.087177535483455"><ele>316.0</ele><time>2026-04-28T11:20:51Z</time></trkpt><trkpt lat="42.44377085470674" lon="12.087277637950319"><ele>315.75</ele><time>2026-04-28T11:20:52Z</time></trkpt><trkpt lat="42.44365732544465" lon="12.087383313639753"><ele>315.5</ele><time>2026-04-28T11:20:53Z</time></trkpt><trkpt lat="42.44354366038288" lon="12.087482873560099"><ele>315.25</ele><time>2026-04-28T11:20:54Z</time></trkpt><trkpt lat="42.443435393072726" lon="12.087576029920234"><ele>315.0</ele><time>2026-04-28T11:20:55Z</time></trkpt><trkpt lat="42.44333570825299" lon="12.087669453768024"><ele>315.2</ele><time>2026-04-28T11:20:56Z</time></trkpt><trkpt lat="42.44324268605257" lon="12.087756683166006"><ele>315.4</ele><time>2026-04-28T11:20:57Z</time></trkpt><trkpt lat="42.44315367029232" lon="12.087839476936827"><ele>315.6</ele><time>2026-04-28T11:20:58Z</time></trkpt><trkpt lat="42.443068525261275" lon="12.087917205967095"><ele>315.8</ele><time>2026-04-28T11:20:59Z</time></trkpt><trkpt lat="42.442984250655314" lon="12.087992564795636"><ele>316.0</ele><time>2026-04-28T11:21:00Z</time></trkpt><trkpt lat="42.442896168306135" lon="12.08807163095117"><ele>316.0</ele><time>2026-04-28T11:21:01Z</time></trkpt><trkpt lat="42.44280881110098" lon="12.088138794213352"><ele>316.0</ele><time>2026-04-28T11:21:02Z</time></trkpt><trkpt lat="42.44271949541578" lon="12.088198614605048"><ele>316.0</ele><time>2026-04-28T11:21:03Z</time></trkpt><trkpt lat="42.44262767465684" lon="12.088257013444997"><ele>316.0</ele><time>2026-04-28T11:21:04Z</time></trkpt><trkpt lat="42.44252963674187" lon="12.088318017387287"><ele>316.0</ele><time>2026-04-28T11:21:05Z</time></trkpt><trkpt lat="42.44242437862964" lon="12.08837906874526"><ele>316.2</ele><time>2026-04-28T11:21:06Z</time></trkpt><trkpt lat="42.44231080292161" lon="12.088439587141897"><ele>316.40000000000003</ele><time>2026-04-28T11:21:07Z</time></trkpt><trkpt lat="42.44220312859384" lon="12.088495680391004"><ele>316.6</ele><time>2026-04-28T11:21:08Z</time></trkpt><trkpt lat="42.44210818431893" lon="12.088542437862358"><ele>316.8</ele><time>2026-04-28T11:21:09Z</time></trkpt><trkpt lat="42.44201526804513" lon="12.088588894386369"><ele>317.0</ele><time>2026-04-28T11:21:10Z</time></trkpt><trkpt lat="42.44192566491441" lon="12.088636117170367"><ele>316.5</ele><time>2026-04-28T11:21:11Z</time></trkpt><trkpt lat="42.44184007755248" lon="12.088678606220508"><ele>316.0</ele><time>2026-04-28T11:21:12Z</time></trkpt><trkpt lat="42.4417571469777" lon="12.088716160863973"><ele>315.5</ele><time>2026-04-28T11:21:13Z</time></trkpt><trkpt lat="42.44167633143812" lon="12.088748476100308"><ele>315.0</ele><time>2026-04-28T11:21:14Z</time></trkpt><trkpt lat="42.44159916382008" lon="12.088782120567206"><ele>314.5</ele><time>2026-04-28T11:21:15Z</time></trkpt><trkpt lat="42.44151465147228" lon="12.088821501707988"><ele>314.0</ele><time>2026-04-28T11:21:16Z</time></trkpt><trkpt lat="42.44142516990975" lon="12.088857159814056"><ele>314.0</ele><time>2026-04-28T11:21:17Z</time></trkpt><trkpt lat="42.4413362297217" lon="12.088896421318864"><ele>314.0</ele><time>2026-04-28T11:21:18Z</time></trkpt><trkpt lat="42.44124757842389" lon="12.08894478971045"><ele>314.0</ele><time>2026-04-28T11:21:19Z</time></trkpt><trkpt lat="42.441147700693186" lon="12.088990209196135"><ele>314.0</ele><time>2026-04-28T11:21:20Z</time></trkpt><trkpt lat="42.44104869646321" lon="12.089020757706324"><ele>314.0</ele><time>2026-04-28T11:21:21Z</time></trkpt><trkpt lat="42.44095594850919" lon="12.089039543778023"><ele>313.6666666666667</ele><time>2026-04-28T11:21:22Z</time></trkpt><trkpt lat="42.4408714085636" lon="12.089046428009091"><ele>313.33333333333337</ele><time>2026-04-28T11:21:23Z</time></trkpt><trkpt lat="42.44078996498583" lon="12.089043206717621"><ele>313.0</ele><time>2026-04-28T11:21:24Z</time></trkpt><trkpt lat="42.440715996219915" lon="12.089010111649465"><ele>312.6666666666667</ele><time>2026-04-28T11:21:25Z</time></trkpt><trkpt lat="42.44065089002251" lon="12.088963796411399"><ele>312.3333333333333</ele><time>2026-04-28T11:21:26Z</time></trkpt><trkpt lat="42.44059148825112" lon="12.088913696084166"><ele>312.0</ele><time>2026-04-28T11:21:27Z</time></trkpt><trkpt lat="42.44052453180151" lon="12.088891609464339"><ele>311.8333333333333</ele><time>2026-04-28T11:21:28Z</time></trkpt><trkpt lat="42.44045386811552" lon="12.088901197682656"><ele>311.6666666666667</ele><time>2026-04-28T11:21:29Z</time></trkpt><trkpt lat="42.44038541380948" lon="12.088938061179597"><ele>311.5</ele><time>2026-04-28T11:21:30Z</time></trkpt><trkpt lat="42.44033069788617" lon="12.08900972268304"><ele>311.33333333333337</ele><time>2026-04-28T11:21:31Z</time></trkpt><trkpt lat="42.44030011540394" lon="12.089104070368533"><ele>311.1666666666667</ele><time>2026-04-28T11:21:32Z</time></trkpt><trkpt lat="42.4402901666954" lon="12.089213476548583"><ele>311.0</ele><time>2026-04-28T11:21:33Z</time></trkpt><trkpt lat="42.440284089177766" lon="12.0893259400538"><ele>311.0</ele><time>2026-04-28T11:21:34Z</time></trkpt><trkpt lat="42.44025862381657" lon="12.089436859000859"><ele>311.0</ele><time>2026-04-28T11:21:35Z</time></trkpt><trkpt lat="42.440207097944615" lon="12.08953799995244"><ele>311.0</ele><time>2026-04-28T11:21:36Z</time></trkpt><trkpt lat="42.44014457735729" lon="12.089637448085996"><ele>311.0</ele><time>2026-04-28T11:21:37Z</time></trkpt><trkpt lat="42.440073819794215" lon="12.089749293292902"><ele>311.0</ele><time>2026-04-28T11:21:38Z</time></trkpt><trkpt lat="42.43999756010757" lon="12.08987294632394"><ele>311.5</ele><time>2026-04-28T11:21:39Z</time></trkpt><trkpt lat="42.43992269009576" lon="12.08999035790992"><ele>312.0</ele><time>2026-04-28T11:21:40Z</time></trkpt><trkpt lat="42.43984376911358" lon="12.090115231754268"><ele>312.5</ele><time>2026-04-28T11:21:41Z</time></trkpt><trkpt lat="42.43976278527759" lon="12.090244696020237"><ele>313.0</ele><time>2026-04-28T11:21:42Z</time></trkpt><trkpt lat="42.4396798279313" lon="12.09038209018039"><ele>314.0</ele><time>2026-04-28T11:21:43Z</time></trkpt><trkpt lat="42.43959554906886" lon="12.090524471282958"><ele>315.0</ele><time>2026-04-28T11:21:44Z</time></trkpt><trkpt lat="42.43951061996176" lon="12.090663415355522"><ele>316.0</ele><time>2026-04-28T11:21:45Z</time></trkpt><trkpt lat="42.439430422730574" lon="12.090790400327256"><ele>317.0</ele><time>2026-04-28T11:21:46Z</time></trkpt><trkpt lat="42.43935989689015" lon="12.09090539813233"><ele>317.75</ele><time>2026-04-28T11:21:47Z</time></trkpt><trkpt lat="42.43928703807132" lon="12.091024139751418"><ele>318.5</ele><time>2026-04-28T11:21:48Z</time></trkpt><trkpt lat="42.43921474296187" lon="12.091148410236476"><ele>319.25</ele><time>2026-04-28T11:21:49Z</time></trkpt><trkpt lat="42.43914574056022" lon="12.091274211862135"><ele>320.0</ele><time>2026-04-28T11:21:50Z</time></trkpt><trkpt lat="42.43907750220925" lon="12.091400778905413"><ele>320.0</ele><time>2026-04-28T11:21:51Z</time></trkpt><trkpt lat="42.439009658033235" lon="12.091529144295599"><ele>320.0</ele><time>2026-04-28T11:21:52Z</time></trkpt><trkpt lat="42.43894054089713" lon="12.091659460573963"><ele>320.0</ele><time>2026-04-28T11:21:53Z</time></trkpt><trkpt lat="42.43887215816656" lon="12.091793966065252"><ele>320.0</ele><time>2026-04-28T11:21:54Z</time></trkpt><trkpt lat="42.43880520129633" lon="12.091931801108613"><ele>320.5</ele><time>2026-04-28T11:21:55Z</time></trkpt><trkpt lat="42.43873394978634" lon="12.092069594893065"><ele>321.0</ele><time>2026-04-28T11:21:56Z</time></trkpt><trkpt lat="42.43865455903318" lon="12.092203943019403"><ele>321.5</ele><time>2026-04-28T11:21:57Z</time></trkpt><trkpt lat="42.43856906629124" lon="12.092339430153343"><ele>322.0</ele><time>2026-04-28T11:21:58Z</time></trkpt><trkpt lat="42.43848260517011" lon="12.092476824764606"><ele>322.75</ele><time>2026-04-28T11:21:59Z</time></trkpt><trkpt lat="42.43839099696411" lon="12.09261851144898"><ele>323.5</ele><time>2026-04-28T11:22:00Z</time></trkpt><trkpt lat="42.438297893653434" lon="12.09276122169771"><ele>324.25</ele><time>2026-04-28T11:22:01Z</time></trkpt><trkpt lat="42.43820221924188" lon="12.092901915624537"><ele>325.0</ele><time>2026-04-28T11:22:02Z</time></trkpt><trkpt lat="42.43810263411059" lon="12.093040956094693"><ele>325.0</ele><time>2026-04-28T11:22:03Z</time></trkpt><trkpt lat="42.4380008198305" lon="12.093179866392358"><ele>325.0</ele><time>2026-04-28T11:22:04Z</time></trkpt><trkpt lat="42.43789437135195" lon="12.093318088517867"><ele>325.0</ele><time>2026-04-28T11:22:05Z</time></trkpt><trkpt lat="42.4377856201062" lon="12.093455923353456"><ele>325.0</ele><time>2026-04-28T11:22:06Z</time></trkpt><trkpt lat="42.43767212445008" lon="12.093594762953028"><ele>324.3333333333333</ele><time>2026-04-28T11:22:07Z</time></trkpt><trkpt lat="42.4375560202846" lon="12.09372940867867"><ele>323.6666666666667</ele><time>2026-04-28T11:22:08Z</time></trkpt><trkpt lat="42.43743369607213" lon="12.09385792894547"><ele>323.0</ele><time>2026-04-28T11:22:09Z</time></trkpt><trkpt lat="42.437303875072125" lon="12.093973042155232"><ele>323.0</ele><time>2026-04-28T11:22:10Z</time></trkpt><trkpt lat="42.43716697213592" lon="12.094070282788486"><ele>323.0</ele><time>2026-04-28T11:22:11Z</time></trkpt><trkpt lat="42.43702142860715" lon="12.094156177914396"><ele>323.0</ele><time>2026-04-28T11:22:12Z</time></trkpt><trkpt lat="42.43686851592676" lon="12.094228339133338"><ele>323.0</ele><time>2026-04-28T11:22:13Z</time></trkpt><trkpt lat="42.43671164318222" lon="12.094288614299453"><ele>323.0</ele><time>2026-04-28T11:22:14Z</time></trkpt><trkpt lat="42.4365543681236" lon="12.094337818810288"><ele>323.0</ele><time>2026-04-28T11:22:15Z</time></trkpt><trkpt lat="42.436396130097684" lon="12.094381650458534"><ele>323.6666666666667</ele><time>2026-04-28T11:22:16Z</time></trkpt><trkpt lat="42.436234954138804" lon="12.094419421592212"><ele>324.3333333333333</ele><time>2026-04-28T11:22:17Z</time></trkpt><trkpt lat="42.436074137710634" lon="12.094454971924085"><ele>325.0</ele><time>2026-04-28T11:22:18Z</time></trkpt><trkpt lat="42.43591897064472" lon="12.094489442847067"><ele>325.0</ele><time>2026-04-28T11:22:19Z</time></trkpt><trkpt lat="42.435764315108" lon="12.094522014776176"><ele>325.0</ele><time>2026-04-28T11:22:20Z</time></trkpt><trkpt lat="42.43561583573137" lon="12.094551299128472"><ele>325.0</ele><time>2026-04-28T11:22:21Z</time></trkpt><trkpt lat="42.43547248409898" lon="12.094580309941502"><ele>324.75</ele><time>2026-04-28T11:22:22Z</time></trkpt><trkpt lat="42.43532834968136" lon="12.094614783768174"><ele>324.5</ele><time>2026-04-28T11:22:23Z</time></trkpt><trkpt lat="42.435186614500445" lon="12.094653677970154"><ele>324.25</ele><time>2026-04-28T11:22:24Z</time></trkpt><trkpt lat="42.43505260663233" lon="12.094695076294856"><ele>324.0</ele><time>2026-04-28T11:22:25Z</time></trkpt><trkpt lat="42.43492241538865" lon="12.094733083794308"><ele>324.0</ele><time>2026-04-28T11:22:26Z</time></trkpt><trkpt lat="42.434790913490914" lon="12.094767271328335"><ele>324.0</ele><time>2026-04-28T11:22:27Z</time></trkpt><trkpt lat="42.43465841613332" lon="12.094804697365714"><ele>324.0</ele><time>2026-04-28T11:22:28Z</time></trkpt><trkpt lat="42.43453438779881" lon="12.09485106466643"><ele>324.0</ele><time>2026-04-28T11:22:29Z</time></trkpt><trkpt lat="42.4344163065047" lon="12.094906395344209"><ele>324.25</ele><time>2026-04-28T11:22:30Z</time></trkpt><trkpt lat="42.43430634963201" lon="12.094968051894092"><ele>324.5</ele><time>2026-04-28T11:22:31Z</time></trkpt><trkpt lat="42.434197905972255" lon="12.09503549539469"><ele>324.75</ele><time>2026-04-28T11:22:32Z</time></trkpt><trkpt lat="42.43408809897726" lon="12.095100459758967"><ele>325.0</ele><time>2026-04-28T11:22:33Z</time></trkpt><trkpt lat="42.433984695925716" lon="12.09515745955416"><ele>325.0</ele><time>2026-04-28T11:22:34Z</time></trkpt><trkpt lat="42.43389363290602" lon="12.095210758605361"><ele>325.0</ele><time>2026-04-28T11:22:35Z</time></trkpt><trkpt lat="42.43381072727104" lon="12.09525947614553"><ele>325.0</ele><time>2026-04-28T11:22:36Z</time></trkpt><trkpt lat="42.43373580457435" lon="12.095302157498732"><ele>325.0</ele><time>2026-04-28T11:22:37Z</time></trkpt><trkpt lat="42.4336634520445" lon="12.095341564655826"><ele>325.0</ele><time>2026-04-28T11:22:38Z</time></trkpt><trkpt lat="42.433594613201166" lon="12.095378311851675"><ele>325.0</ele><time>2026-04-28T11:22:39Z</time></trkpt><trkpt lat="42.43352943838378" lon="12.09540968207472"><ele>324.3333333333333</ele><time>2026-04-28T11:22:40Z</time></trkpt><trkpt lat="42.43342718799554" lon="12.095455234703207"><ele>323.66666666666663</ele><time>2026-04-28T11:22:42Z</time></trkpt><trkpt lat="42.43332675252143" lon="12.09547126202917"><ele>323.0</ele><time>2026-04-28T11:22:44Z</time></trkpt><trkpt lat="42.433261327905015" lon="12.095447965694168"><ele>322.3333333333333</ele><time>2026-04-28T11:22:45Z</time></trkpt><trkpt lat="42.43318911832215" lon="12.095447179788534"><ele>321.6666666666667</ele><time>2026-04-28T11:22:46Z</time></trkpt><trkpt lat="42.4331136371252" lon="12.095481788011655"><ele>321.0</ele><time>2026-04-28T11:22:47Z</time></trkpt><trkpt lat="42.43305169301665" lon="12.095543044777937"><ele>321.0</ele><time>2026-04-28T11:22:48Z</time></trkpt><trkpt lat="42.43300200592488" lon="12.095622794730252"><ele>321.0</ele><time>2026-04-28T11:22:49Z</time></trkpt><trkpt lat="42.432947166471706" lon="12.095699155379377"><ele>321.0</ele><time>2026-04-28T11:22:50Z</time></trkpt><trkpt lat="42.43287318419147" lon="12.09576110520363"><ele>321.0</ele><time>2026-04-28T11:22:51Z</time></trkpt><trkpt lat="42.43280286826924" lon="12.095831735685943"><ele>321.0</ele><time>2026-04-28T11:22:52Z</time></trkpt><trkpt lat="42.43268920940177" lon="12.095831542042955"><ele>321.0</ele><time>2026-04-28T11:22:53Z</time></trkpt><trkpt lat="42.432588748270724" lon="12.095861977033199"><ele>321.5</ele><time>2026-04-28T11:22:54Z</time></trkpt><trkpt lat="42.43248164488469" lon="12.095894395248628"><ele>322.0</ele><time>2026-04-28T11:22:55Z</time></trkpt><trkpt lat="42.43236655802912" lon="12.095924152370474"><ele>322.5</ele><time>2026-04-28T11:22:56Z</time></trkpt><trkpt lat="42.432255499935806" lon="12.095950257310754"><ele>323.0</ele><time>2026-04-28T11:22:57Z</time></trkpt><trkpt lat="42.43214126006594" lon="12.095972466970656"><ele>323.25</ele><time>2026-04-28T11:22:58Z</time></trkpt><trkpt lat="42.43202309775354" lon="12.095990145691909"><ele>323.5</ele><time>2026-04-28T11:22:59Z</time></trkpt><trkpt lat="42.43190309590008" lon="12.096009302972647"><ele>323.75</ele><time>2026-04-28T11:23:00Z</time></trkpt><trkpt lat="42.43178105702485" lon="12.096031164613178"><ele>324.0</ele><time>2026-04-28T11:23:01Z</time></trkpt><trkpt lat="42.43165934829" lon="12.09605426277121"><ele>324.0</ele><time>2026-04-28T11:23:02Z</time></trkpt><trkpt lat="42.43154023798489" lon="12.096075928552455"><ele>324.0</ele><time>2026-04-28T11:23:03Z</time></trkpt><trkpt lat="42.43142459324163" lon="12.0960945320403"><ele>324.0</ele><time>2026-04-28T11:23:04Z</time></trkpt><trkpt lat="42.43130751729707" lon="12.096114889956292"><ele>324.0</ele><time>2026-04-28T11:23:05Z</time></trkpt><trkpt lat="42.43119253433666" lon="12.096138370939041"><ele>324.25</ele><time>2026-04-28T11:23:06Z</time></trkpt><trkpt lat="42.43108161119108" lon="12.09615744095671"><ele>324.5</ele><time>2026-04-28T11:23:07Z</time></trkpt><trkpt lat="42.430967817578676" lon="12.09617343575243"><ele>324.75</ele><time>2026-04-28T11:23:08Z</time></trkpt><trkpt lat="42.43085408417237" lon="12.096192453643475"><ele>325.0</ele><time>2026-04-28T11:23:09Z</time></trkpt><trkpt lat="42.430742555266136" lon="12.096213515168582"><ele>325.0</ele><time>2026-04-28T11:23:10Z</time></trkpt><trkpt lat="42.43063385522526" lon="12.096237210919629"><ele>325.0</ele><time>2026-04-28T11:23:11Z</time></trkpt><trkpt lat="42.430526023774625" lon="12.09626854165331"><ele>325.0</ele><time>2026-04-28T11:23:12Z</time></trkpt><trkpt lat="42.43041710402291" lon="12.096304819384647"><ele>325.0</ele><time>2026-04-28T11:23:13Z</time></trkpt><trkpt lat="42.43031143125719" lon="12.096340183702315"><ele>325.0</ele><time>2026-04-28T11:23:14Z</time></trkpt><trkpt lat="42.43021358786962" lon="12.09637406036688"><ele>325.0</ele><time>2026-04-28T11:23:15Z</time></trkpt><trkpt lat="42.43012467838602" lon="12.096404327582995"><ele>325.0</ele><time>2026-04-28T11:23:16Z</time></trkpt><trkpt lat="42.43004550896471" lon="12.096426536454393"><ele>325.0</ele><time>2026-04-28T11:23:17Z</time></trkpt><trkpt lat="42.42996960065372" lon="12.096435097368728"><ele>325.0</ele><time>2026-04-28T11:23:18Z</time></trkpt><trkpt lat="42.42989643914906" lon="12.096416844484978"><ele>325.0</ele><time>2026-04-28T11:23:19Z</time></trkpt><trkpt lat="42.42984164392221" lon="12.096361408679885"><ele>325.0</ele><time>2026-04-28T11:23:20Z</time></trkpt><trkpt lat="42.42977987462312" lon="12.096286049330162"><ele>325.0</ele><time>2026-04-28T11:23:21Z</time></trkpt><trkpt lat="42.4297310880507" lon="12.096213728777252"><ele>325.0</ele><time>2026-04-28T11:23:22Z</time></trkpt><trkpt lat="42.429687475931345" lon="12.096141065342158"><ele>325.0</ele><time>2026-04-28T11:23:23Z</time></trkpt><trkpt lat="42.429649345119046" lon="12.09606432190335"><ele>325.0</ele><time>2026-04-28T11:23:24Z</time></trkpt><trkpt lat="42.42961796925599" lon="12.095979968897542"><ele>325.0</ele><time>2026-04-28T11:23:25Z</time></trkpt><trkpt lat="42.42958795795732" lon="12.095883892265691"><ele>325.0</ele><time>2026-04-28T11:23:26Z</time></trkpt><trkpt lat="42.42955162982958" lon="12.095781838545935"><ele>325.0</ele><time>2026-04-28T11:23:27Z</time></trkpt><trkpt lat="42.42950830192068" lon="12.095675268243495"><ele>324.66666666666663</ele><time>2026-04-28T11:23:28Z</time></trkpt><trkpt lat="42.42945724459545" lon="12.095580698878525"><ele>324.3333333333333</ele><time>2026-04-28T11:23:29Z</time></trkpt><trkpt lat="42.429394337138625" lon="12.095513092927357"><ele>324.0</ele><time>2026-04-28T11:23:30Z</time></trkpt><trkpt lat="42.42932139259587" lon="12.095465735069194"><ele>323.6666666666667</ele><time>2026-04-28T11:23:31Z</time></trkpt><trkpt lat="42.42923557541508" lon="12.095440392223006"><ele>323.33333333333337</ele><time>2026-04-28T11:23:32Z</time></trkpt><trkpt lat="42.42915433265244" lon="12.09545116487798"><ele>323.0</ele><time>2026-04-28T11:23:33Z</time></trkpt><trkpt lat="42.42907743264036" lon="12.095495109795731"><ele>323.0</ele><time>2026-04-28T11:23:34Z</time></trkpt><trkpt lat="42.429008302892434" lon="12.09556754272598"><ele>323.0</ele><time>2026-04-28T11:23:35Z</time></trkpt><trkpt lat="42.42894358498091" lon="12.09565933538375"><ele>323.0</ele><time>2026-04-28T11:23:36Z</time></trkpt><trkpt lat="42.42888883596327" lon="12.095755852949235"><ele>323.0</ele><time>2026-04-28T11:23:37Z</time></trkpt><trkpt lat="42.42884371662191" lon="12.09584820782849"><ele>323.0</ele><time>2026-04-28T11:23:38Z</time></trkpt><trkpt lat="42.428802549520924" lon="12.095937716521085"><ele>323.0</ele><time>2026-04-28T11:23:39Z</time></trkpt><trkpt lat="42.42875981264631" lon="12.096028675516775"><ele>323.0</ele><time>2026-04-28T11:23:40Z</time></trkpt><trkpt lat="42.42871513895337" lon="12.096129821324606"><ele>323.0</ele><time>2026-04-28T11:23:41Z</time></trkpt><trkpt lat="42.4286664828025" lon="12.09624306523646"><ele>323.0</ele><time>2026-04-28T11:23:42Z</time></trkpt><trkpt lat="42.428609839300975" lon="12.096366013358407"><ele>323.0</ele><time>2026-04-28T11:23:43Z</time></trkpt><trkpt lat="42.42855052725543" lon="12.096493772801244"><ele>323.0</ele><time>2026-04-28T11:23:44Z</time></trkpt><trkpt lat="42.42849190073564" lon="12.096621873188095"><ele>322.5</ele><time>2026-04-28T11:23:45Z</time></trkpt><trkpt lat="42.42843243768289" lon="12.096756913888385"><ele>322.0</ele><time>2026-04-28T11:23:46Z</time></trkpt><trkpt lat="42.42837356844472" lon="12.09689785955863"><ele>321.5</ele><time>2026-04-28T11:23:47Z</time></trkpt><trkpt lat="42.42831184100061" lon="12.097041999095342"><ele>321.0</ele><time>2026-04-28T11:23:48Z</time></trkpt><trkpt lat="42.428250208150885" lon="12.097184470333081"><ele>321.0</ele><time>2026-04-28T11:23:49Z</time></trkpt><trkpt lat="42.428192891207466" lon="12.097321468281518"><ele>321.0</ele><time>2026-04-28T11:23:50Z</time></trkpt><trkpt lat="42.428136315533926" lon="12.097453665099211"><ele>321.0</ele><time>2026-04-28T11:23:51Z</time></trkpt><trkpt lat="42.428077679736035" lon="12.097579653935997"><ele>321.0</ele><time>2026-04-28T11:23:52Z</time></trkpt><trkpt lat="42.42801347730792" lon="12.097696201619526"><ele>321.0</ele><time>2026-04-28T11:23:53Z</time></trkpt><trkpt lat="42.42794526050496" lon="12.097807653817496"><ele>321.0</ele><time>2026-04-28T11:23:54Z</time></trkpt><trkpt lat="42.42787089490631" lon="12.097912329501957"><ele>321.0</ele><time>2026-04-28T11:23:55Z</time></trkpt><trkpt lat="42.42779336614035" lon="12.098012951927604"><ele>321.0</ele><time>2026-04-28T11:23:56Z</time></trkpt><trkpt lat="42.4277090372404" lon="12.098109032625175"><ele>321.0</ele><time>2026-04-28T11:23:57Z</time></trkpt><trkpt lat="42.42762214575705" lon="12.098194330237003"><ele>321.0</ele><time>2026-04-28T11:23:58Z</time></trkpt><trkpt lat="42.42753801711747" lon="12.098278811753339"><ele>321.20000000000005</ele><time>2026-04-28T11:23:59Z</time></trkpt><trkpt lat="42.42745340431491" lon="12.098363131751311"><ele>321.40000000000003</ele><time>2026-04-28T11:24:00Z</time></trkpt><trkpt lat="42.42736685334242" lon="12.098438420045056"><ele>321.6</ele><time>2026-04-28T11:24:01Z</time></trkpt><trkpt lat="42.427283447342155" lon="12.098510372122805"><ele>321.8</ele><time>2026-04-28T11:24:02Z</time></trkpt><trkpt lat="42.42720541354608" lon="12.098571440307662"><ele>322.0</ele><time>2026-04-28T11:24:03Z</time></trkpt><trkpt lat="42.427126992869844" lon="12.098595671794572"><ele>321.66666666666663</ele><time>2026-04-28T11:24:04Z</time></trkpt><trkpt lat="42.427050909182" lon="12.09858589535623"><ele>321.3333333333333</ele><time>2026-04-28T11:24:05Z</time></trkpt><trkpt lat="42.42697819305168" lon="12.098546511135332"><ele>321.0</ele><time>2026-04-28T11:24:06Z</time></trkpt><trkpt lat="42.42690643733332" lon="12.098492396196415"><ele>320.6666666666667</ele><time>2026-04-28T11:24:07Z</time></trkpt><trkpt lat="42.426827182034515" lon="12.098459240540741"><ele>320.33333333333337</ele><time>2026-04-28T11:24:08Z</time></trkpt><trkpt lat="42.42674174785694" lon="12.098466167618131"><ele>320.0</ele><time>2026-04-28T11:24:09Z</time></trkpt><trkpt lat="42.42665727347019" lon="12.098522707081814"><ele>320.0</ele><time>2026-04-28T11:24:10Z</time></trkpt><trkpt lat="42.42659150672065" lon="12.098605083464983"><ele>320.0</ele><time>2026-04-28T11:24:11Z</time></trkpt><trkpt lat="42.426540210906914" lon="12.098699293587933"><ele>320.0</ele><time>2026-04-28T11:24:12Z</time></trkpt><trkpt lat="42.426492782945346" lon="12.098810924325862"><ele>320.0</ele><time>2026-04-28T11:24:13Z</time></trkpt><trkpt lat="42.42642754718982" lon="12.098906812635127"><ele>320.0</ele><time>2026-04-28T11:24:14Z</time></trkpt><trkpt lat="42.42634319772746" lon="12.098975074945816"><ele>320.4</ele><time>2026-04-28T11:24:15Z</time></trkpt><trkpt lat="42.426247327265685" lon="12.09901677879252"><ele>320.8</ele><time>2026-04-28T11:24:16Z</time></trkpt><trkpt lat="42.426143860757236" lon="12.099045934348238"><ele>321.20000000000005</ele><time>2026-04-28T11:24:17Z</time></trkpt><trkpt lat="42.4260360134363" lon="12.099090776851476"><ele>321.6</ele><time>2026-04-28T11:24:18Z</time></trkpt><trkpt lat="42.42592737014141" lon="12.09913841173803"><ele>322.0</ele><time>2026-04-28T11:24:19Z</time></trkpt><trkpt lat="42.425814792095146" lon="12.099186913272428"><ele>322.5</ele><time>2026-04-28T11:24:20Z</time></trkpt><trkpt lat="42.42569552797545" lon="12.099244455470583"><ele>323.0</ele><time>2026-04-28T11:24:21Z</time></trkpt><trkpt lat="42.42557403077126" lon="12.099300364959813"><ele>323.5</ele><time>2026-04-28T11:24:22Z</time></trkpt><trkpt lat="42.425453136940554" lon="12.099352487051396"><ele>324.0</ele><time>2026-04-28T11:24:23Z</time></trkpt><trkpt lat="42.42533309509631" lon="12.09941018652044"><ele>326.0</ele><time>2026-04-28T11:24:24Z</time></trkpt><trkpt lat="42.42522432117055" lon="12.09948198998542"><ele>328.0</ele><time>2026-04-28T11:24:25Z</time></trkpt><trkpt lat="42.425131632405716" lon="12.09956447439459"><ele>330.0</ele><time>2026-04-28T11:24:26Z</time></trkpt><trkpt lat="42.4250488522401" lon="12.099658758479816"><ele>332.0</ele><time>2026-04-28T11:24:27Z</time></trkpt><trkpt lat="42.424973641042044" lon="12.099767037551793"><ele>332.0</ele><time>2026-04-28T11:24:28Z</time></trkpt><trkpt lat="42.424903895070564" lon="12.099880616367146"><ele>332.0</ele><time>2026-04-28T11:24:29Z</time></trkpt><trkpt lat="42.424834371944016" lon="12.09999395406096"><ele>332.0</ele><time>2026-04-28T11:24:30Z</time></trkpt><trkpt lat="42.42476953828382" lon="12.100107562232104"><ele>332.0</ele><time>2026-04-28T11:24:31Z</time></trkpt><trkpt lat="42.42471238811804" lon="12.100219898739653"><ele>332.0</ele><time>2026-04-28T11:24:32Z</time></trkpt><trkpt lat="42.42466186309421" lon="12.100333925667258"><ele>331.8</ele><time>2026-04-28T11:24:33Z</time></trkpt><trkpt lat="42.42460773651549" lon="12.100451384864444"><ele>331.6</ele><time>2026-04-28T11:24:34Z</time></trkpt><trkpt lat="42.42454883629817" lon="12.100569643261462"><ele>331.40000000000003</ele><time>2026-04-28T11:24:35Z</time></trkpt><trkpt lat="42.42449206168382" lon="12.100691279038534"><ele>331.20000000000005</ele><time>2026-04-28T11:24:36Z</time></trkpt><trkpt lat="42.42443692951109" lon="12.100815800709082"><ele>331.0</ele><time>2026-04-28T11:24:37Z</time></trkpt><trkpt lat="42.42438132431263" lon="12.100937258517284"><ele>331.4</ele><time>2026-04-28T11:24:38Z</time></trkpt><trkpt lat="42.424327347933755" lon="12.101051730756767"><ele>331.8</ele><time>2026-04-28T11:24:39Z</time></trkpt><trkpt lat="42.424272958953516" lon="12.101166684773915"><ele>332.2</ele><time>2026-04-28T11:24:40Z</time></trkpt><trkpt lat="42.424216797139984" lon="12.101290740716866"><ele>332.59999999999997</ele><time>2026-04-28T11:24:41Z</time></trkpt><trkpt lat="42.424155670730975" lon="12.101422985789853"><ele>333.0</ele><time>2026-04-28T11:24:42Z</time></trkpt><trkpt lat="42.424088567382185" lon="12.101568319333655"><ele>332.75</ele><time>2026-04-28T11:24:43Z</time></trkpt><trkpt lat="42.42401808197415" lon="12.10172221615833"><ele>332.5</ele><time>2026-04-28T11:24:44Z</time></trkpt><trkpt lat="42.42394340238613" lon="12.101882815906874"><ele>332.25</ele><time>2026-04-28T11:24:45Z</time></trkpt><trkpt lat="42.42386525484256" lon="12.102045676867546"><ele>332.0</ele><time>2026-04-28T11:24:46Z</time></trkpt><trkpt lat="42.423788380938724" lon="12.102205445139575"><ele>333.0</ele><time>2026-04-28T11:24:47Z</time></trkpt><trkpt lat="42.42371306220156" lon="12.102362217548409"><ele>334.0</ele><time>2026-04-28T11:24:48Z</time></trkpt><trkpt lat="42.4236405201878" lon="12.102508024394078"><ele>335.0</ele><time>2026-04-28T11:24:49Z</time></trkpt><trkpt lat="42.42357380576946" lon="12.102645025157496"><ele>336.0</ele><time>2026-04-28T11:24:50Z</time></trkpt><trkpt lat="42.42350611808532" lon="12.10278158470879"><ele>336.4</ele><time>2026-04-28T11:24:51Z</time></trkpt><trkpt lat="42.42344173022829" lon="12.102914935933795"><ele>336.8</ele><time>2026-04-28T11:24:52Z</time></trkpt><trkpt lat="42.423381869977284" lon="12.103043007496813"><ele>337.2</ele><time>2026-04-28T11:24:53Z</time></trkpt><trkpt lat="42.42332477931086" lon="12.103164656179716"><ele>337.59999999999997</ele><time>2026-04-28T11:24:54Z</time></trkpt><trkpt lat="42.42326549710613" lon="12.10328450579016"><ele>338.0</ele><time>2026-04-28T11:24:55Z</time></trkpt><trkpt lat="42.42320930954399" lon="12.10340708559688"><ele>338.33333333333337</ele><time>2026-04-28T11:24:56Z</time></trkpt><trkpt lat="42.423155654768934" lon="12.103520381272567"><ele>338.6666666666667</ele><time>2026-04-28T11:24:57Z</time></trkpt><trkpt lat="42.42310890633316" lon="12.103617856972662"><ele>339.0</ele><time>2026-04-28T11:24:58Z</time></trkpt><trkpt lat="42.42306477296566" lon="12.103705021514862"><ele>339.3333333333333</ele><time>2026-04-28T11:24:59Z</time></trkpt><trkpt lat="42.42302238692688" lon="12.103783035636074"><ele>339.66666666666663</ele><time>2026-04-28T11:25:00Z</time></trkpt><trkpt lat="42.42297950515011" lon="12.103864072277739"><ele>340.0</ele><time>2026-04-28T11:25:01Z</time></trkpt><trkpt lat="42.422935032069745" lon="12.103964132490875"><ele>340.0</ele><time>2026-04-28T11:25:02Z</time></trkpt><trkpt lat="42.422888144605764" lon="12.104074076318055"><ele>340.0</ele><time>2026-04-28T11:25:03Z</time></trkpt><trkpt lat="42.42283371933239" lon="12.104190737491292"><ele>340.0</ele><time>2026-04-28T11:25:04Z</time></trkpt><trkpt lat="42.4227747716713" lon="12.104325463029213"><ele>340.0</ele><time>2026-04-28T11:25:05Z</time></trkpt><trkpt lat="42.422730649974845" lon="12.104445652105618"><ele>340.0</ele><time>2026-04-28T11:25:06Z</time></trkpt><trkpt lat="42.42269187683517" lon="12.104555751960383"><ele>340.16666666666663</ele><time>2026-04-28T11:25:07Z</time></trkpt><trkpt lat="42.42266765696008" lon="12.10465009595334"><ele>340.3333333333333</ele><time>2026-04-28T11:25:08Z</time></trkpt><trkpt lat="42.422651924659164" lon="12.104737005980908"><ele>340.5</ele><time>2026-04-28T11:25:09Z</time></trkpt><trkpt lat="42.42264173613585" lon="12.10487431150064"><ele>340.6666666666667</ele><time>2026-04-28T11:25:11Z</time></trkpt><trkpt lat="42.42264561409426" lon="12.10498096126299"><ele>340.83333333333337</ele><time>2026-04-28T11:25:13Z</time></trkpt><trkpt lat="42.42266726035129" lon="12.10507229245561"><ele>341.0</ele><time>2026-04-28T11:25:15Z</time></trkpt><trkpt lat="42.4226846517981" lon="12.105182056595675"><ele>341.4</ele><time>2026-04-28T11:25:17Z</time></trkpt><trkpt lat="42.4227047091008" lon="12.10534897296982"><ele>341.8</ele><time>2026-04-28T11:25:19Z</time></trkpt><trkpt lat="42.42273411153337" lon="12.105509533636678"><ele>342.2</ele><time>2026-04-28T11:25:21Z</time></trkpt><trkpt lat="42.422757201143554" lon="12.105620700018255"><ele>342.59999999999997</ele><time>2026-04-28T11:25:22Z</time></trkpt><trkpt lat="42.422785073184784" lon="12.105757110711426"><ele>343.0</ele><time>2026-04-28T11:25:23Z</time></trkpt><trkpt lat="42.42282226724369" lon="12.105935306564538"><ele>343.4</ele><time>2026-04-28T11:25:24Z</time></trkpt><trkpt lat="42.42285646638275" lon="12.106102900251"><ele>343.79999999999995</ele><time>2026-04-28T11:25:25Z</time></trkpt><trkpt lat="42.42289041461142" lon="12.106264531090204"><ele>344.2</ele><time>2026-04-28T11:25:26Z</time></trkpt><trkpt lat="42.42291612338512" lon="12.106398034765897"><ele>344.6</ele><time>2026-04-28T11:25:27Z</time></trkpt><trkpt lat="42.42293508054778" lon="12.106512102690479"><ele>345.0</ele><time>2026-04-28T11:25:28Z</time></trkpt><trkpt lat="42.422950642665604" lon="12.10661012581888"><ele>345.2</ele><time>2026-04-28T11:25:29Z</time></trkpt><trkpt lat="42.4229629862144" lon="12.106704335271372"><ele>345.4</ele><time>2026-04-28T11:25:30Z</time></trkpt><trkpt lat="42.42297408060137" lon="12.106823212043295"><ele>345.6</ele><time>2026-04-28T11:25:31Z</time></trkpt><trkpt lat="42.422982524372934" lon="12.1069661467604"><ele>345.8</ele><time>2026-04-28T11:25:32Z</time></trkpt><trkpt lat="42.42298224009947" lon="12.107124493743385"><ele>346.0</ele><time>2026-04-28T11:25:33Z</time></trkpt><trkpt lat="42.42297775584439" lon="12.107286050492094"><ele>345.20000000000005</ele><time>2026-04-28T11:25:34Z</time></trkpt><trkpt lat="42.422966973838086" lon="12.107424587398251"><ele>344.40000000000003</ele><time>2026-04-28T11:25:35Z</time></trkpt><trkpt lat="42.422944486649754" lon="12.107534418149543"><ele>343.6</ele><time>2026-04-28T11:25:36Z</time></trkpt><trkpt lat="42.42290848387891" lon="12.107634798490256"><ele>342.8</ele><time>2026-04-28T11:25:37Z</time></trkpt><trkpt lat="42.422856387983856" lon="12.107737678976692"><ele>342.0</ele><time>2026-04-28T11:25:38Z</time></trkpt><trkpt lat="42.42278755112586" lon="12.107840424775913"><ele>342.0</ele><time>2026-04-28T11:25:39Z</time></trkpt><trkpt lat="42.422714530277624" lon="12.107936133006564"><ele>342.0</ele><time>2026-04-28T11:25:40Z</time></trkpt><trkpt lat="42.422642887391206" lon="12.108023553837262"><ele>342.0</ele><time>2026-04-28T11:25:41Z</time></trkpt><trkpt lat="42.42256126849779" lon="12.108114824583794"><ele>342.0</ele><time>2026-04-28T11:25:42Z</time></trkpt><trkpt lat="42.422496186177035" lon="12.108222275297525"><ele>342.0</ele><time>2026-04-28T11:25:43Z</time></trkpt><trkpt lat="42.42239552375303" lon="12.108287551503732"><ele>341.40000000000003</ele><time>2026-04-28T11:25:44Z</time></trkpt><trkpt lat="42.42232365195364" lon="12.108373175516139"><ele>340.8</ele><time>2026-04-28T11:25:45Z</time></trkpt><trkpt lat="42.422244887415864" lon="12.108466778695464"><ele>340.2</ele><time>2026-04-28T11:25:46Z</time></trkpt><trkpt lat="42.422161344288455" lon="12.108562710858662"><ele>339.6</ele><time>2026-04-28T11:25:47Z</time></trkpt><trkpt lat="42.42208812583601" lon="12.10865724767608"><ele>339.0</ele><time>2026-04-28T11:25:48Z</time></trkpt><trkpt lat="42.4220210830425" lon="12.108750853325908"><ele>338.6666666666667</ele><time>2026-04-28T11:25:49Z</time></trkpt><trkpt lat="42.4219602320915" lon="12.108829899958764"><ele>338.3333333333333</ele><time>2026-04-28T11:25:50Z</time></trkpt><trkpt lat="42.42189829653604" lon="12.108900203778058"><ele>338.0</ele><time>2026-04-28T11:25:51Z</time></trkpt><trkpt lat="42.42184511749671" lon="12.108972614307653"><ele>337.66666666666663</ele><time>2026-04-28T11:25:52Z</time></trkpt><trkpt lat="42.42180661426097" lon="12.109042606353576"><ele>337.3333333333333</ele><time>2026-04-28T11:25:53Z</time></trkpt><trkpt lat="42.421729220209926" lon="12.109095569366573"><ele>337.0</ele><time>2026-04-28T11:25:55Z</time></trkpt><trkpt lat="42.42164310464564" lon="12.108979173027778"><ele>336.6</ele><time>2026-04-28T11:25:56Z</time></trkpt><trkpt lat="42.42158402871252" lon="12.108885196786733"><ele>336.20000000000005</ele><time>2026-04-28T11:25:57Z</time></trkpt><trkpt lat="42.42151895536818" lon="12.108795539105136"><ele>335.8</ele><time>2026-04-28T11:25:58Z</time></trkpt><trkpt lat="42.42145186521567" lon="12.108705684559597"><ele>335.4</ele><time>2026-04-28T11:25:59Z</time></trkpt><trkpt lat="42.42137987085931" lon="12.108618412855725"><ele>335.0</ele><time>2026-04-28T11:26:00Z</time></trkpt><trkpt lat="42.42130744441492" lon="12.108521730170878"><ele>335.0</ele><time>2026-04-28T11:26:01Z</time></trkpt><trkpt lat="42.421240110414914" lon="12.10843322513225"><ele>335.0</ele><time>2026-04-28T11:26:02Z</time></trkpt><trkpt lat="42.421182356942424" lon="12.108351814155107"><ele>335.0</ele><time>2026-04-28T11:26:03Z</time></trkpt><trkpt lat="42.421133361915274" lon="12.108282168003454"><ele>335.0</ele><time>2026-04-28T11:26:04Z</time></trkpt><trkpt lat="42.42108856129535" lon="12.10822092457007"><ele>335.0</ele><time>2026-04-28T11:26:05Z</time></trkpt><trkpt lat="42.421005826938334" lon="12.108132305496023"><ele>335.0</ele><time>2026-04-28T11:26:07Z</time></trkpt><trkpt lat="42.4209178849837" lon="12.108045088503689"><ele>334.57142857142856</ele><time>2026-04-28T11:26:09Z</time></trkpt><trkpt lat="42.42084152794536" lon="12.107979659142172"><ele>334.1428571428571</ele><time>2026-04-28T11:26:11Z</time></trkpt><trkpt lat="42.42077648291538" lon="12.10794389973817"><ele>333.71428571428567</ele><time>2026-04-28T11:26:13Z</time></trkpt><trkpt lat="42.420791383320015" lon="12.107847291084154"><ele>333.2857142857143</ele><time>2026-04-28T11:38:19Z</time></trkpt><trkpt lat="42.42073126217353" lon="12.107811225047278"><ele>332.8571428571429</ele><time>2026-04-28T11:38:28Z</time></trkpt><trkpt lat="42.42067589256646" lon="12.107753671236434"><ele>332.4285714285714</ele><time>2026-04-28T11:38:35Z</time></trkpt><trkpt lat="42.420626272403744" lon="12.107685326267474"><ele>332.0</ele><time>2026-04-28T11:38:57Z</time></trkpt><trkpt lat="42.42056322172435" lon="12.107664561559822"><ele>332.0</ele><time>2026-04-28T11:40:12Z</time></trkpt><trkpt lat="42.42061027621786" lon="12.107751044998382"><ele>332.0</ele><time>2026-04-28T11:40:23Z</time></trkpt><trkpt lat="42.42066033343117" lon="12.107692369027868"><ele>332.0</ele><time>2026-04-28T11:58:40Z</time></trkpt><trkpt lat="42.42067577418411" lon="12.107605012179137"><ele>332.0</ele><time>2026-04-28T11:58:52Z</time></trkpt><trkpt lat="42.42059364757904" lon="12.107627920473428"><ele>332.0</ele><time>2026-04-28T11:59:38.603Z</time></trkpt><trkpt lat="42.420675980055975" lon="12.107738865846189"><ele>332.0</ele><time>2026-04-28T12:01:52Z</time></trkpt><trkpt lat="42.420704364428" lon="12.107820211887793"><ele>332.0</ele><time>2026-04-28T12:01:58.999Z</time></trkpt><trkpt lat="42.420759997238896" lon="12.107879151371161"><ele>332.0</ele><time>2026-04-28T12:02:05.999Z</time></trkpt><trkpt lat="42.42066647118373" lon="12.107792148360886"><ele>332.0</ele><time>2026-04-28T12:05:35Z</time></trkpt><trkpt lat="42.42058214796932" lon="12.10768335949356"><ele>332.0</ele><time>2026-04-28T12:05:37Z</time></trkpt><trkpt lat="42.420527240899254" lon="12.107575648253306"><ele>332.0</ele><time>2026-04-28T12:05:39Z</time></trkpt><trkpt lat="42.42050305399014" lon="12.107472743540718"><ele>333.40000000000003</ele><time>2026-04-28T12:05:41Z</time></trkpt><trkpt lat="42.420534538057595" lon="12.107383617386377"><ele>334.8</ele><time>2026-04-28T12:05:43Z</time></trkpt><trkpt lat="42.42062836212014" lon="12.107253902986434"><ele>336.2</ele><time>2026-04-28T12:05:45Z</time></trkpt><trkpt lat="42.42066839835975" lon="12.107183812238805"><ele>337.6</ele><time>2026-04-28T12:05:46Z</time></trkpt><trkpt lat="42.4207568521335" lon="12.107065662949777"><ele>339.0</ele><time>2026-04-28T12:05:48Z</time></trkpt><trkpt lat="42.42080507638009" lon="12.107003223502879"><ele>339.0</ele><time>2026-04-28T12:05:49Z</time></trkpt><trkpt lat="42.420856213455394" lon="12.10694960673883"><ele>339.0</ele><time>2026-04-28T12:05:50Z</time></trkpt><trkpt lat="42.42090340350807" lon="12.106890188584435"><ele>339.0</ele><time>2026-04-28T12:05:51Z</time></trkpt><trkpt lat="42.42095520663827" lon="12.10681657711954"><ele>339.0</ele><time>2026-04-28T12:05:52Z</time></trkpt><trkpt lat="42.42101770625618" lon="12.106733122674267"><ele>339.0</ele><time>2026-04-28T12:05:53Z</time></trkpt><trkpt lat="42.42109391238053" lon="12.106642230328708"><ele>339.0</ele><time>2026-04-28T12:05:54Z</time></trkpt><trkpt lat="42.42117036221772" lon="12.106550546195912"><ele>339.79999999999995</ele><time>2026-04-28T12:05:55Z</time></trkpt><trkpt lat="42.42124825370007" lon="12.106447001805375"><ele>340.59999999999997</ele><time>2026-04-28T12:05:56Z</time></trkpt><trkpt lat="42.42132547329249" lon="12.106334063279936"><ele>341.4</ele><time>2026-04-28T12:05:57Z</time></trkpt><trkpt lat="42.42137377961347" lon="12.106211882825738"><ele>342.2</ele><time>2026-04-28T12:05:58Z</time></trkpt><trkpt lat="42.421428075001465" lon="12.10611815419133"><ele>343.0</ele><time>2026-04-28T12:05:59Z</time></trkpt><trkpt lat="42.421479460884825" lon="12.106031111043354"><ele>343.16666666666663</ele><time>2026-04-28T12:06:00Z</time></trkpt><trkpt lat="42.42153469420221" lon="12.10595129886399"><ele>343.3333333333333</ele><time>2026-04-28T12:06:01Z</time></trkpt><trkpt lat="42.42158755218422" lon="12.105890611073042"><ele>343.5</ele><time>2026-04-28T12:06:02Z</time></trkpt><trkpt lat="42.42164295426316" lon="12.105834173479376"><ele>343.6666666666667</ele><time>2026-04-28T12:06:03Z</time></trkpt><trkpt lat="42.42172690371306" lon="12.105753781781086"><ele>343.83333333333337</ele><time>2026-04-28T12:06:05Z</time></trkpt><trkpt lat="42.42180899245128" lon="12.105696538850541"><ele>344.0</ele><time>2026-04-28T12:06:08Z</time></trkpt><trkpt lat="42.421853621009056" lon="12.105636392167444"><ele>344.6</ele><time>2026-04-28T12:06:10Z</time></trkpt><trkpt lat="42.42187569254455" lon="12.10577044831218"><ele>345.2</ele><time>2026-04-28T12:06:12Z</time></trkpt><trkpt lat="42.421920766674916" lon="12.105844669801481"><ele>345.8</ele><time>2026-04-28T12:06:15Z</time></trkpt><trkpt lat="42.421954098221974" lon="12.105970301563024"><ele>346.40000000000003</ele><time>2026-04-28T12:06:17Z</time></trkpt><trkpt lat="42.42200259697757" lon="12.106103209760391"><ele>347.0</ele><time>2026-04-28T12:06:19Z</time></trkpt><trkpt lat="42.42204264005121" lon="12.10621451275391"><ele>347.0</ele><time>2026-04-28T12:06:21Z</time></trkpt><trkpt lat="42.422082173974694" lon="12.106326433298019"><ele>347.0</ele><time>2026-04-28T12:06:31Z</time></trkpt><trkpt lat="42.422121235994304" lon="12.106437017852253"><ele>347.0</ele><time>2026-04-28T12:06:33Z</time></trkpt><trkpt lat="42.42212129685432" lon="12.10653353011764"><ele>347.0</ele><time>2026-04-28T12:06:37Z</time></trkpt><trkpt lat="42.422031620639245" lon="12.106543701866013"><ele>347.0</ele><time>2026-04-28T12:07:37Z</time></trkpt><trkpt lat="42.42210138861171" lon="12.106465978817843"><ele>347.0</ele><time>2026-04-28T12:07:49Z</time></trkpt><trkpt lat="42.42222222385627" lon="12.106505751101361"><ele>347.0</ele><time>2026-04-28T12:07:51Z</time></trkpt><trkpt lat="42.42227499939621" lon="12.106433379589053"><ele>347.0</ele><time>2026-04-28T12:07:55Z</time></trkpt><trkpt lat="42.42213579386094" lon="12.106013287845842"><ele>347.0</ele><time>2026-04-28T12:08:55.001Z</time></trkpt><trkpt lat="42.42206429682476" lon="12.106051682290344"><ele>347.0</ele><time>2026-04-28T12:09:01.001Z</time></trkpt><trkpt lat="42.42207869014938" lon="12.106151097700673"><ele>347.0</ele><time>2026-04-28T12:09:04.001Z</time></trkpt><trkpt lat="42.42209346519641" lon="12.106249927058998"><ele>347.0</ele><time>2026-04-28T12:09:26.001Z</time></trkpt><trkpt lat="42.42212217490817" lon="12.10634788913939"><ele>347.0</ele><time>2026-04-28T12:09:28.001Z</time></trkpt><trkpt lat="42.422136907477864" lon="12.106433390896918"><ele>347.0</ele><time>2026-04-28T12:09:30.001Z</time></trkpt><trkpt lat="42.42218646013003" lon="12.106535380987665"><ele>347.0</ele><time>2026-04-28T12:09:33.001Z</time></trkpt><trkpt lat="42.422247661936375" lon="12.106502221420982"><ele>347.0</ele><time>2026-04-28T12:09:36.001Z</time></trkpt><trkpt lat="42.422178634897556" lon="12.106449676303225"><ele>347.0</ele><time>2026-04-28T12:10:00.001Z</time></trkpt><trkpt lat="42.42212107384594" lon="12.106368584513886"><ele>347.0</ele><time>2026-04-28T12:10:03.001Z</time></trkpt><trkpt lat="42.422096803964344" lon="12.106277032709633"><ele>347.0</ele><time>2026-04-28T12:10:05.001Z</time></trkpt><trkpt lat="42.42206885555357" lon="12.106177639623901"><ele>347.0</ele><time>2026-04-28T12:10:07.001Z</time></trkpt><trkpt lat="42.42203416012954" lon="12.106050446575763"><ele>347.0</ele><time>2026-04-28T12:10:09.001Z</time></trkpt><trkpt lat="42.42200321577579" lon="12.105975882501014"><ele>347.0</ele><time>2026-04-28T12:10:11.001Z</time></trkpt><trkpt lat="42.421961920953876" lon="12.105894396050925"><ele>347.0</ele><time>2026-04-28T12:10:17.001Z</time></trkpt><trkpt lat="42.421932282538975" lon="12.10581094559414"><ele>347.0</ele><time>2026-04-28T12:10:28.001Z</time></trkpt><trkpt lat="42.42188747965082" lon="12.105732172237872"><ele>347.0</ele><time>2026-04-28T12:11:19.001Z</time></trkpt><trkpt lat="42.421876961779084" lon="12.105614408269957"><ele>347.0</ele><time>2026-04-28T12:11:20.001Z</time></trkpt><trkpt lat="42.42194579590112" lon="12.105550165317895"><ele>347.0</ele><time>2026-04-28T12:11:22.001Z</time></trkpt><trkpt lat="42.42203459203645" lon="12.105502294193256"><ele>347.0</ele><time>2026-04-28T12:11:24.001Z</time></trkpt><trkpt lat="42.42213584875236" lon="12.105389505659026"><ele>346.33333333333337</ele><time>2026-04-28T12:11:26.001Z</time></trkpt><trkpt lat="42.42217509309719" lon="12.105305626206635"><ele>345.6666666666667</ele><time>2026-04-28T12:11:27.001Z</time></trkpt><trkpt lat="42.42222470092078" lon="12.10524743393149"><ele>345.0</ele><time>2026-04-28T12:11:28.001Z</time></trkpt><trkpt lat="42.42231859007178" lon="12.105178295948793"><ele>344.3333333333333</ele><time>2026-04-28T12:11:30.001Z</time></trkpt><trkpt lat="42.42240675375698" lon="12.105111038652359"><ele>343.66666666666663</ele><time>2026-04-28T12:11:32.001Z</time></trkpt><trkpt lat="42.42244555583699" lon="12.105016177618264"><ele>343.0</ele><time>2026-04-28T12:11:34.001Z</time></trkpt><trkpt lat="42.422531868898275" lon="12.105053961081136"><ele>343.0</ele><time>2026-04-28T12:11:37.001Z</time></trkpt><trkpt lat="42.42260124518773" lon="12.105067769771788"><ele>343.0</ele><time>2026-04-28T12:11:41.001Z</time></trkpt><trkpt lat="42.4226275013488" lon="12.10516417115124"><ele>343.0</ele><time>2026-04-28T12:11:43.001Z</time></trkpt><trkpt lat="42.4226517651885" lon="12.105281995764773"><ele>343.0</ele><time>2026-04-28T12:11:45.001Z</time></trkpt><trkpt lat="42.422683724005246" lon="12.105428941070427"><ele>343.0</ele><time>2026-04-28T12:11:47.001Z</time></trkpt><trkpt lat="42.42270245938866" lon="12.10551351336777"><ele>343.0</ele><time>2026-04-28T12:11:48.001Z</time></trkpt><trkpt lat="42.422722801893045" lon="12.105605413974846"><ele>343.0</ele><time>2026-04-28T12:11:49.001Z</time></trkpt><trkpt lat="42.42274292001107" lon="12.105700640402185"><ele>343.0</ele><time>2026-04-28T12:11:50.001Z</time></trkpt><trkpt lat="42.42276303318546" lon="12.105797679973424"><ele>343.0</ele><time>2026-04-28T12:11:51.001Z</time></trkpt><trkpt lat="42.42278406043859" lon="12.10589642181887"><ele>343.0</ele><time>2026-04-28T12:11:52.001Z</time></trkpt><trkpt lat="42.42280549375904" lon="12.106001200428844"><ele>343.0</ele><time>2026-04-28T12:11:53.001Z</time></trkpt><trkpt lat="42.422827187470574" lon="12.106111120954093"><ele>343.0</ele><time>2026-04-28T12:11:54.001Z</time></trkpt><trkpt lat="42.422846714505106" lon="12.106220972359935"><ele>343.3333333333333</ele><time>2026-04-28T12:11:55.001Z</time></trkpt><trkpt lat="42.42286591361574" lon="12.106330705527107"><ele>343.66666666666663</ele><time>2026-04-28T12:11:56.001Z</time></trkpt><trkpt lat="42.42288074776289" lon="12.106437875669181"><ele>344.0</ele><time>2026-04-28T12:11:57.001Z</time></trkpt><trkpt lat="42.42289142694731" lon="12.10654253842418"><ele>344.3333333333333</ele><time>2026-04-28T12:11:58.001Z</time></trkpt><trkpt lat="42.422898480354874" lon="12.106653450437522"><ele>344.6666666666667</ele><time>2026-04-28T12:11:59.001Z</time></trkpt><trkpt lat="42.422909640704894" lon="12.106777211019228"><ele>345.0</ele><time>2026-04-28T12:12:00.001Z</time></trkpt><trkpt lat="42.42292102065945" lon="12.106904875972832"><ele>345.1666666666667</ele><time>2026-04-28T12:12:01.001Z</time></trkpt><trkpt lat="42.42293138553291" lon="12.107033091682661"><ele>345.3333333333333</ele><time>2026-04-28T12:12:02.001Z</time></trkpt><trkpt lat="42.42293850464819" lon="12.107157958825606"><ele>345.5</ele><time>2026-04-28T12:12:03.001Z</time></trkpt><trkpt lat="42.422941107435506" lon="12.10727486630441"><ele>345.66666666666663</ele><time>2026-04-28T12:12:04.001Z</time></trkpt><trkpt lat="42.422935964305026" lon="12.107377132711262"><ele>345.8333333333333</ele><time>2026-04-28T12:12:05.001Z</time></trkpt><trkpt lat="42.4229223830965" lon="12.107495877174971"><ele>346.0</ele><time>2026-04-28T12:12:07.001Z</time></trkpt><trkpt lat="42.4228884938102" lon="12.107603014783841"><ele>345.3333333333333</ele><time>2026-04-28T12:12:10.001Z</time></trkpt><trkpt lat="42.422853004335174" lon="12.107721543735497"><ele>344.66666666666663</ele><time>2026-04-28T12:12:12.001Z</time></trkpt><trkpt lat="42.422793359216485" lon="12.107769788007147"><ele>344.0</ele><time>2026-04-28T12:12:13.001Z</time></trkpt><trkpt lat="42.42274558230978" lon="12.107837216868397"><ele>343.3333333333333</ele><time>2026-04-28T12:12:14.001Z</time></trkpt><trkpt lat="42.42268729719751" lon="12.1079099462481"><ele>342.6666666666667</ele><time>2026-04-28T12:12:15.001Z</time></trkpt><trkpt lat="42.42262600324938" lon="12.107985484075776"><ele>342.0</ele><time>2026-04-28T12:12:16.001Z</time></trkpt><trkpt lat="42.42256938320912" lon="12.108056114045686"><ele>342.0</ele><time>2026-04-28T12:12:17.001Z</time></trkpt><trkpt lat="42.42253156653265" lon="12.108151156166887"><ele>342.0</ele><time>2026-04-28T12:12:18.001Z</time></trkpt><trkpt lat="42.42244656073288" lon="12.108192712655976"><ele>342.0</ele><time>2026-04-28T12:12:19.001Z</time></trkpt><trkpt lat="42.422385963954824" lon="12.108254610844334"><ele>342.0</ele><time>2026-04-28T12:12:20.001Z</time></trkpt><trkpt lat="42.42233152220221" lon="12.108333944763103"><ele>342.0</ele><time>2026-04-28T12:12:21.001Z</time></trkpt><trkpt lat="42.42227303755987" lon="12.108411421174715"><ele>342.0</ele><time>2026-04-28T12:12:22.001Z</time></trkpt><trkpt lat="42.42221166829927" lon="12.108486193787952"><ele>341.5</ele><time>2026-04-28T12:12:23.001Z</time></trkpt><trkpt lat="42.42215173349469" lon="12.10856110524487"><ele>341.0</ele><time>2026-04-28T12:12:24.001Z</time></trkpt><trkpt lat="42.42209176442567" lon="12.108639248234084"><ele>340.5</ele><time>2026-04-28T12:12:25.001Z</time></trkpt><trkpt lat="42.422029546125046" lon="12.108715583397885"><ele>340.0</ele><time>2026-04-28T12:12:26.001Z</time></trkpt><trkpt lat="42.42197164871918" lon="12.108782001226652"><ele>339.5</ele><time>2026-04-28T12:12:27.001Z</time></trkpt><trkpt lat="42.421923673496146" lon="12.108840779939037"><ele>339.0</ele><time>2026-04-28T12:12:28.001Z</time></trkpt><trkpt lat="42.42184229516823" lon="12.10894119403795"><ele>338.6</ele><time>2026-04-28T12:12:30.001Z</time></trkpt><trkpt lat="42.42177664416814" lon="12.109030045705019"><ele>338.2</ele><time>2026-04-28T12:12:32.001Z</time></trkpt><trkpt lat="42.4217235416374" lon="12.109088451118078"><ele>337.8</ele><time>2026-04-28T12:12:35.001Z</time></trkpt><trkpt lat="42.42164596744005" lon="12.108956443600555"><ele>337.40000000000003</ele><time>2026-04-28T12:12:36.001Z</time></trkpt><trkpt lat="42.42156924511468" lon="12.108854693616497"><ele>337.0</ele><time>2026-04-28T12:12:38.001Z</time></trkpt><trkpt lat="42.42148202412195" lon="12.108752590119913"><ele>336.6</ele><time>2026-04-28T12:12:40.001Z</time></trkpt><trkpt lat="42.42139748295151" lon="12.108640931313149"><ele>336.20000000000005</ele><time>2026-04-28T12:12:42.001Z</time></trkpt><trkpt lat="42.42131811633257" lon="12.108521282100195"><ele>335.8</ele><time>2026-04-28T12:12:44.001Z</time></trkpt><trkpt lat="42.42123602314704" lon="12.108422569239824"><ele>335.4</ele><time>2026-04-28T12:12:46.001Z</time></trkpt><trkpt lat="42.421160741794594" lon="12.108329379602065"><ele>335.0</ele><time>2026-04-28T12:12:48.001Z</time></trkpt><trkpt lat="42.421081505702354" lon="12.10823709977661"><ele>335.0</ele><time>2026-04-28T12:12:50.001Z</time></trkpt><trkpt lat="42.421008367993984" lon="12.108154510692039"><ele>335.0</ele><time>2026-04-28T12:12:52.001Z</time></trkpt><trkpt lat="42.4209398198477" lon="12.108094746200308"><ele>335.0</ele><time>2026-04-28T12:12:54.001Z</time></trkpt><trkpt lat="42.42086867652856" lon="12.108068734101906"><ele>335.0</ele><time>2026-04-28T12:12:57.001Z</time></trkpt><trkpt lat="42.420796857693404" lon="12.108215358144616"><ele>335.0</ele><time>2026-04-28T12:12:58.001Z</time></trkpt><trkpt lat="42.420736783848696" lon="12.108269503198606"><ele>335.0</ele><time>2026-04-28T12:13:00.001Z</time></trkpt><trkpt lat="42.42065089608707" lon="12.10835574355624"><ele>335.0</ele><time>2026-04-28T12:13:02.001Z</time></trkpt><trkpt lat="42.42060309071039" lon="12.108413592255314"><ele>335.0</ele><time>2026-04-28T12:13:03.001Z</time></trkpt><trkpt lat="42.42054303997226" lon="12.108495519299876"><ele>335.0</ele><time>2026-04-28T12:13:05.001Z</time></trkpt><trkpt lat="42.420518130632615" lon="12.108601833183906"><ele>335.0</ele><time>2026-04-28T12:13:07.001Z</time></trkpt><trkpt lat="42.42049804656915" lon="12.108734600879064"><ele>335.0</ele><time>2026-04-28T12:13:09.001Z</time></trkpt><trkpt lat="42.42048613642749" lon="12.108890293234529"><ele>336.4</ele><time>2026-04-28T12:13:11.001Z</time></trkpt><trkpt lat="42.420474605634325" lon="12.109054406962924"><ele>337.8</ele><time>2026-04-28T12:13:13.001Z</time></trkpt><trkpt lat="42.420448587021696" lon="12.109206675653885"><ele>339.20000000000005</ele><time>2026-04-28T12:13:15.001Z</time></trkpt><trkpt lat="42.4204367807374" lon="12.109296717612423"><ele>340.6</ele><time>2026-04-28T12:13:18.001Z</time></trkpt><trkpt lat="42.42045112540242" lon="12.109187316440243"><ele>342.0</ele><time>2026-04-28T12:13:34.001Z</time></trkpt><trkpt lat="42.420462414516074" lon="12.109101218639097"><ele>342.0</ele><time>2026-04-28T12:13:36.001Z</time></trkpt><trkpt lat="42.42047686754873" lon="12.108984545536634"><ele>342.0</ele><time>2026-04-28T12:13:39.001Z</time></trkpt><trkpt lat="42.42048577971461" lon="12.108896624316284"><ele>342.0</ele><time>2026-04-28T12:13:43.001Z</time></trkpt><trkpt lat="42.42031875842284" lon="12.109054581447152"><ele>342.0</ele><time>2026-04-28T12:13:53.001Z</time></trkpt><trkpt lat="42.42029892074106" lon="12.109138856463604"><ele>342.0</ele><time>2026-04-28T12:14:55.001Z</time></trkpt><trkpt lat="42.42032177048692" lon="12.109223265427161"><ele>342.0</ele><time>2026-04-28T12:15:00.001Z</time></trkpt><trkpt lat="42.420304320970665" lon="12.109305416633283"><ele>342.0</ele><time>2026-04-28T12:15:26.001Z</time></trkpt><trkpt lat="42.420266008529886" lon="12.10922206740447"><ele>342.0</ele><time>2026-04-28T12:15:36.001Z</time></trkpt><trkpt lat="42.42025715964224" lon="12.10913490516702"><ele>342.0</ele><time>2026-04-28T12:15:43.001Z</time></trkpt><trkpt lat="42.42026918942609" lon="12.109027778587707"><ele>342.0</ele><time>2026-04-28T12:16:26.001Z</time></trkpt><trkpt lat="42.42030062851994" lon="12.10888449200884"><ele>342.0</ele><time>2026-04-28T12:16:29.001Z</time></trkpt><trkpt lat="42.42030607528216" lon="12.10873820567527"><ele>342.0</ele><time>2026-04-28T12:16:31.001Z</time></trkpt><trkpt lat="42.42032661147401" lon="12.108603396955749"><ele>342.0</ele><time>2026-04-28T12:16:33.001Z</time></trkpt><trkpt lat="42.42035453153949" lon="12.108475251192099"><ele>342.0</ele><time>2026-04-28T12:16:35.001Z</time></trkpt><trkpt lat="42.42038160162878" lon="12.10835188523204"><ele>342.0</ele><time>2026-04-28T12:16:37.001Z</time></trkpt><trkpt lat="42.42040046557388" lon="12.108234182867543"><ele>342.0</ele><time>2026-04-28T12:16:39.001Z</time></trkpt><trkpt lat="42.4204215009128" lon="12.108121292435184"><ele>341.8</ele><time>2026-04-28T12:16:41.001Z</time></trkpt><trkpt lat="42.420439432131204" lon="12.108024298116545"><ele>341.6</ele><time>2026-04-28T12:16:43.001Z</time></trkpt><trkpt lat="42.42046960514041" lon="12.107945979532008"><ele>341.40000000000003</ele><time>2026-04-28T12:16:45.001Z</time></trkpt><trkpt lat="42.42051613635592" lon="12.107844483960822"><ele>341.20000000000005</ele><time>2026-04-28T12:16:48.001Z</time></trkpt><trkpt lat="42.42065453213223" lon="12.10787720295296"><ele>341.0</ele><time>2026-04-28T12:16:51.001Z</time></trkpt><trkpt lat="42.42075621556381" lon="12.107971339771527"><ele>340.0</ele><time>2026-04-28T12:16:53.001Z</time></trkpt><trkpt lat="42.42081572685616" lon="12.108025793472548"><ele>339.0</ele><time>2026-04-28T12:16:54.001Z</time></trkpt><trkpt lat="42.42088205783058" lon="12.108085292236963"><ele>338.0</ele><time>2026-04-28T12:16:55.001Z</time></trkpt><trkpt lat="42.42095157652837" lon="12.108156866863832"><ele>337.0</ele><time>2026-04-28T12:16:56.001Z</time></trkpt><trkpt lat="42.42102351997984" lon="12.108231607144186"><ele>336.0</ele><time>2026-04-28T12:16:57.001Z</time></trkpt><trkpt lat="42.421100096211475" lon="12.108316169599071"><ele>335.0</ele><time>2026-04-28T12:16:58.001Z</time></trkpt><trkpt lat="42.42117487019412" lon="12.108410366178484"><ele>335.0</ele><time>2026-04-28T12:16:59.001Z</time></trkpt><trkpt lat="42.421247763627946" lon="12.108512487661786"><ele>335.0</ele><time>2026-04-28T12:17:00.001Z</time></trkpt><trkpt lat="42.42131812577524" lon="12.108618655123587"><ele>335.0</ele><time>2026-04-28T12:17:01.001Z</time></trkpt><trkpt lat="42.42139124534861" lon="12.10872154381333"><ele>335.0</ele><time>2026-04-28T12:17:02.001Z</time></trkpt><trkpt lat="42.421458074023164" lon="12.108815218229271"><ele>335.0</ele><time>2026-04-28T12:17:03.001Z</time></trkpt><trkpt lat="42.421516983286345" lon="12.108897987220965"><ele>334.8</ele><time>2026-04-28T12:17:04.001Z</time></trkpt><trkpt lat="42.42157751643456" lon="12.10898147465281"><ele>334.6</ele><time>2026-04-28T12:17:06.001Z</time></trkpt><trkpt lat="42.42163611138217" lon="12.109062987714168"><ele>334.4</ele><time>2026-04-28T12:19:01.001Z</time></trkpt><trkpt lat="42.42169334910252" lon="12.109151586676058"><ele>334.2</ele><time>2026-04-28T12:19:03.001Z</time></trkpt><trkpt lat="42.42158487583237" lon="12.109319359556793"><ele>334.0</ele><time>2026-04-28T12:19:05.001Z</time></trkpt><trkpt lat="42.42151820205091" lon="12.109374508375941"><ele>334.5</ele><time>2026-04-28T12:19:06.001Z</time></trkpt><trkpt lat="42.42144753171917" lon="12.109424685297887"><ele>335.0</ele><time>2026-04-28T12:19:07.001Z</time></trkpt><trkpt lat="42.42137532220799" lon="12.109477868873721"><ele>335.5</ele><time>2026-04-28T12:19:08.001Z</time></trkpt><trkpt lat="42.42129419322464" lon="12.109537975814172"><ele>336.0</ele><time>2026-04-28T12:19:09.001Z</time></trkpt><trkpt lat="42.42122289761312" lon="12.109586599634415"><ele>336.5</ele><time>2026-04-28T12:19:10.001Z</time></trkpt><trkpt lat="42.421156483402555" lon="12.109629928506958"><ele>337.0</ele><time>2026-04-28T12:19:11.001Z</time></trkpt><trkpt lat="42.42108316037715" lon="12.109688611706197"><ele>338.0</ele><time>2026-04-28T12:19:12.001Z</time></trkpt><trkpt lat="42.42100448502371" lon="12.10974567846051"><ele>339.0</ele><time>2026-04-28T12:19:13.001Z</time></trkpt><trkpt lat="42.42091597315702" lon="12.109808452761067"><ele>340.0</ele><time>2026-04-28T12:19:14.001Z</time></trkpt><trkpt lat="42.420810674173424" lon="12.10987813923507"><ele>341.0</ele><time>2026-04-28T12:19:15.001Z</time></trkpt><trkpt lat="42.42070210259341" lon="12.109947645152609"><ele>342.0</ele><time>2026-04-28T12:19:16.001Z</time></trkpt><trkpt lat="42.420605518331314" lon="12.1099953693393"><ele>342.20000000000005</ele><time>2026-04-28T12:19:17.001Z</time></trkpt><trkpt lat="42.42050490120832" lon="12.11003272716472"><ele>342.4</ele><time>2026-04-28T12:19:18.001Z</time></trkpt><trkpt lat="42.42040806562293" lon="12.110055494581628"><ele>342.6</ele><time>2026-04-28T12:19:19.001Z</time></trkpt><trkpt lat="42.42031467604038" lon="12.11006949594582"><ele>342.79999999999995</ele><time>2026-04-28T12:19:20.001Z</time></trkpt><trkpt lat="42.42021950080287" lon="12.110076412834658"><ele>343.0</ele><time>2026-04-28T12:19:21.001Z</time></trkpt><trkpt lat="42.42011802630702" lon="12.110073909481468"><ele>344.0</ele><time>2026-04-28T12:19:22.001Z</time></trkpt><trkpt lat="42.420015685127915" lon="12.110058815502573"><ele>345.0</ele><time>2026-04-28T12:19:23Z</time></trkpt><trkpt lat="42.41991249079465" lon="12.11004482326538"><ele>346.0</ele><time>2026-04-28T12:19:24Z</time></trkpt><trkpt lat="42.41980652311674" lon="12.110035021299769"><ele>347.0</ele><time>2026-04-28T12:19:25Z</time></trkpt><trkpt lat="42.4197025515325" lon="12.110015837655027"><ele>348.0</ele><time>2026-04-28T12:19:26Z</time></trkpt><trkpt lat="42.41959582688612" lon="12.109999091666728"><ele>348.59999999999997</ele><time>2026-04-28T12:19:27Z</time></trkpt><trkpt lat="42.419487449435366" lon="12.109992315103382"><ele>349.2</ele><time>2026-04-28T12:19:28Z</time></trkpt><trkpt lat="42.41937893590323" lon="12.109985853404767"><ele>349.8</ele><time>2026-04-28T12:19:29Z</time></trkpt><trkpt lat="42.41927025921856" lon="12.109991955441012"><ele>350.4</ele><time>2026-04-28T12:19:30Z</time></trkpt><trkpt lat="42.41917016532121" lon="12.109999575108324"><ele>351.0</ele><time>2026-04-28T12:19:31Z</time></trkpt><trkpt lat="42.41908200659146" lon="12.110008298297972"><ele>351.0</ele><time>2026-04-28T12:19:32Z</time></trkpt><trkpt lat="42.41900225375072" lon="12.11001747418644"><ele>351.0</ele><time>2026-04-28T12:19:33Z</time></trkpt><trkpt lat="42.41893164539839" lon="12.110025074092585"><ele>351.0</ele><time>2026-04-28T12:19:34Z</time></trkpt><trkpt lat="42.418819728038144" lon="12.110035505540129"><ele>351.0</ele><time>2026-04-28T12:19:36Z</time></trkpt><trkpt lat="42.41874507486274" lon="12.110042641582105"><ele>351.0</ele><time>2026-04-28T12:19:38Z</time></trkpt><trkpt lat="42.41864367507187" lon="12.110054120077347"><ele>351.0</ele><time>2026-04-28T12:19:44Z</time></trkpt><trkpt lat="42.41853803519798" lon="12.11005446909747"><ele>351.0</ele><time>2026-04-28T12:19:46Z</time></trkpt><trkpt lat="42.41840963034262" lon="12.110065881200107"><ele>351.0</ele><time>2026-04-28T12:19:48Z</time></trkpt><trkpt lat="42.418336179308504" lon="12.110077924435869"><ele>351.0</ele><time>2026-04-28T12:19:49Z</time></trkpt><trkpt lat="42.41825839788193" lon="12.110088915121212"><ele>351.0</ele><time>2026-04-28T12:19:50Z</time></trkpt><trkpt lat="42.41818261832215" lon="12.110099566265452"><ele>351.0</ele><time>2026-04-28T12:19:51Z</time></trkpt><trkpt lat="42.418115107720126" lon="12.110105908070652"><ele>351.0</ele><time>2026-04-28T12:19:52Z</time></trkpt><trkpt lat="42.41803830367404" lon="12.110106556408144"><ele>351.3333333333333</ele><time>2026-04-28T12:19:53Z</time></trkpt><trkpt lat="42.41795592425737" lon="12.110110692173993"><ele>351.6666666666667</ele><time>2026-04-28T12:19:54Z</time></trkpt><trkpt lat="42.41787788058283" lon="12.110115454715633"><ele>352.0</ele><time>2026-04-28T12:19:55Z</time></trkpt><trkpt lat="42.41781141169069" lon="12.110123278526828"><ele>352.33333333333337</ele><time>2026-04-28T12:19:56Z</time></trkpt><trkpt lat="42.41770306097597" lon="12.110128757267447"><ele>352.6666666666667</ele><time>2026-04-28T12:19:58Z</time></trkpt><trkpt lat="42.417633446611184" lon="12.110135985957104"><ele>353.0</ele><time>2026-04-28T12:20:00Z</time></trkpt><trkpt lat="42.41756128021976" lon="12.110140811862534"><ele>353.0</ele><time>2026-04-28T12:20:13Z</time></trkpt><trkpt lat="42.417471611152216" lon="12.110147978936219"><ele>353.0</ele><time>2026-04-28T12:20:15Z</time></trkpt><trkpt lat="42.41736516967502" lon="12.110152450326662"><ele>353.0</ele><time>2026-04-28T12:20:17Z</time></trkpt><trkpt lat="42.417242582057824" lon="12.110162335684981"><ele>353.0</ele><time>2026-04-28T12:20:19Z</time></trkpt><trkpt lat="42.41714644839509" lon="12.110238275807752"><ele>353.0</ele><time>2026-04-28T12:20:21Z</time></trkpt><trkpt lat="42.417129435486935" lon="12.110335282470745"><ele>353.0</ele><time>2026-04-28T12:20:23Z</time></trkpt><trkpt lat="42.41710658843286" lon="12.110203794436643"><ele>353.0</ele><time>2026-04-28T12:20:25Z</time></trkpt><trkpt lat="42.41719493671683" lon="12.11018260114729"><ele>353.0</ele><time>2026-04-28T12:20:34Z</time></trkpt><trkpt lat="42.4172157355666" lon="12.110325089272642"><ele>353.0</ele><time>2026-04-28T12:21:20Z</time></trkpt><trkpt lat="42.417262925221166" lon="12.110424767836006"><ele>353.0</ele><time>2026-04-28T12:22:40Z</time></trkpt><trkpt lat="42.417246055292395" lon="12.110521842033142"><ele>353.0</ele><time>2026-04-28T12:22:42Z</time></trkpt><trkpt lat="42.4172304436305" lon="12.110616802334382"><ele>353.0</ele><time>2026-04-28T12:22:44Z</time></trkpt><trkpt lat="42.41719913458128" lon="12.110499668767105"><ele>353.0</ele><time>2026-04-28T12:24:51Z</time></trkpt><trkpt lat="42.417303026406294" lon="12.110532996842826"><ele>353.0</ele><time>2026-04-28T12:24:53Z</time></trkpt><trkpt lat="42.41741148719333" lon="12.110583159718184"><ele>353.0</ele><time>2026-04-28T12:24:55Z</time></trkpt><trkpt lat="42.41752792799096" lon="12.110620340571423"><ele>353.0</ele><time>2026-04-28T12:24:57Z</time></trkpt><trkpt lat="42.417623768874314" lon="12.110612543867632"><ele>353.0</ele><time>2026-04-28T12:24:59Z</time></trkpt><trkpt lat="42.4177421210218" lon="12.110612180265656"><ele>353.0</ele><time>2026-04-28T12:25:01Z</time></trkpt><trkpt lat="42.41781198979253" lon="12.110617225909655"><ele>353.0</ele><time>2026-04-28T12:25:02Z</time></trkpt><trkpt lat="42.41788569884672" lon="12.110639106449124"><ele>353.0</ele><time>2026-04-28T12:25:03Z</time></trkpt><trkpt lat="42.41795258806078" lon="12.110689050988393"><ele>353.0</ele><time>2026-04-28T12:25:04Z</time></trkpt><trkpt lat="42.41799312754074" lon="12.11075999477241"><ele>353.2</ele><time>2026-04-28T12:25:05Z</time></trkpt><trkpt lat="42.41802067510914" lon="12.110890572048472"><ele>353.4</ele><time>2026-04-28T12:25:07Z</time></trkpt><trkpt lat="42.418020874971" lon="12.111017366231447"><ele>353.59999999999997</ele><time>2026-04-28T12:25:09Z</time></trkpt><trkpt lat="42.41805147873946" lon="12.111177742752876"><ele>353.79999999999995</ele><time>2026-04-28T12:25:11Z</time></trkpt><trkpt lat="42.41807037778791" lon="12.1112743044754"><ele>354.0</ele><time>2026-04-28T12:25:12Z</time></trkpt><trkpt lat="42.418095555243454" lon="12.111380504692143"><ele>354.0</ele><time>2026-04-28T12:25:13Z</time></trkpt><trkpt lat="42.41812149377952" lon="12.111492975622188"><ele>354.0</ele><time>2026-04-28T12:25:14Z</time></trkpt><trkpt lat="42.418142607498325" lon="12.111618957863612"><ele>354.0</ele><time>2026-04-28T12:25:15Z</time></trkpt><trkpt lat="42.4181751201273" lon="12.111759798779044"><ele>354.0</ele><time>2026-04-28T12:25:16Z</time></trkpt><trkpt lat="42.41820118669464" lon="12.111889351995329"><ele>354.0</ele><time>2026-04-28T12:25:17Z</time></trkpt><trkpt lat="42.41821662046607" lon="12.112000500335663"><ele>354.6666666666667</ele><time>2026-04-28T12:25:18Z</time></trkpt><trkpt lat="42.41823533292164" lon="12.112110865813605"><ele>355.3333333333333</ele><time>2026-04-28T12:25:19Z</time></trkpt><trkpt lat="42.41825548013215" lon="12.112196197971409"><ele>356.0</ele><time>2026-04-28T12:25:20Z</time></trkpt><trkpt lat="42.418283190712934" lon="12.112342839183741"><ele>356.66666666666663</ele><time>2026-04-28T12:25:22Z</time></trkpt><trkpt lat="42.41830019611658" lon="12.112428537471445"><ele>357.3333333333333</ele><time>2026-04-28T12:25:23Z</time></trkpt><trkpt lat="42.41831841830596" lon="12.112520603193385"><ele>358.0</ele><time>2026-04-28T12:25:24Z</time></trkpt><trkpt lat="42.418339906364515" lon="12.112624909033789"><ele>358.4</ele><time>2026-04-28T12:25:25Z</time></trkpt><trkpt lat="42.418366506112804" lon="12.112736776242492"><ele>358.79999999999995</ele><time>2026-04-28T12:25:26Z</time></trkpt><trkpt lat="42.41839062828355" lon="12.112859876096916"><ele>359.2</ele><time>2026-04-28T12:25:27Z</time></trkpt><trkpt lat="42.41841013159797" lon="12.112990056808892"><ele>359.6</ele><time>2026-04-28T12:25:28Z</time></trkpt><trkpt lat="42.41843615155527" lon="12.113118856313449"><ele>360.0</ele><time>2026-04-28T12:25:29Z</time></trkpt><trkpt lat="42.41845877539519" lon="12.113245921006179"><ele>360.6</ele><time>2026-04-28T12:25:30Z</time></trkpt><trkpt lat="42.418483694229415" lon="12.113379612135454"><ele>361.2</ele><time>2026-04-28T12:25:31Z</time></trkpt><trkpt lat="42.418506807885635" lon="12.11349691004426"><ele>361.79999999999995</ele><time>2026-04-28T12:25:32Z</time></trkpt><trkpt lat="42.41852668707512" lon="12.113606605075658"><ele>362.4</ele><time>2026-04-28T12:25:33Z</time></trkpt><trkpt lat="42.41854261597818" lon="12.113719574315384"><ele>363.0</ele><time>2026-04-28T12:25:34Z</time></trkpt><trkpt lat="42.418557556886235" lon="12.113843940128952"><ele>363.0</ele><time>2026-04-28T12:25:35Z</time></trkpt><trkpt lat="42.41857726014623" lon="12.11396918623804"><ele>363.0</ele><time>2026-04-28T12:25:36Z</time></trkpt><trkpt lat="42.41859946467504" lon="12.114097006838362"><ele>363.0</ele><time>2026-04-28T12:25:37Z</time></trkpt><trkpt lat="42.418620233113344" lon="12.114205993192893"><ele>363.0</ele><time>2026-04-28T12:25:38Z</time></trkpt><trkpt lat="42.418634484562084" lon="12.114299872283723"><ele>363.0</ele><time>2026-04-28T12:25:39Z</time></trkpt><trkpt lat="42.41865001787212" lon="12.114432704668353"><ele>363.0</ele><time>2026-04-28T12:25:41Z</time></trkpt><trkpt lat="42.41865319054935" lon="12.114519538068015"><ele>363.59999999999997</ele><time>2026-04-28T12:25:43Z</time></trkpt><trkpt lat="42.4186126659797" lon="12.114640877298585"><ele>364.2</ele><time>2026-04-28T12:25:46Z</time></trkpt><trkpt lat="42.4186794796728" lon="12.114676617950806"><ele>364.8</ele><time>2026-04-28T12:25:49Z</time></trkpt><trkpt lat="42.41860653382298" lon="12.114876344929321"><ele>365.4</ele><time>2026-04-28T12:25:51Z</time></trkpt><trkpt lat="42.41861437698869" lon="12.114964754114643"><ele>366.0</ele><time>2026-04-28T12:25:52Z</time></trkpt><trkpt lat="42.418628572604426" lon="12.115081378586671"><ele>366.8</ele><time>2026-04-28T12:25:53Z</time></trkpt><trkpt lat="42.41864478117064" lon="12.115186325045757"><ele>367.6</ele><time>2026-04-28T12:25:54Z</time></trkpt><trkpt lat="42.41866130206206" lon="12.115301608891594"><ele>368.4</ele><time>2026-04-28T12:25:55Z</time></trkpt><trkpt lat="42.41867455908796" lon="12.115434527572772"><ele>369.2</ele><time>2026-04-28T12:25:56Z</time></trkpt><trkpt lat="42.41869259467408" lon="12.115569955082856"><ele>370.0</ele><time>2026-04-28T12:25:57Z</time></trkpt><trkpt lat="42.41870555448797" lon="12.11572254426519"><ele>371.0</ele><time>2026-04-28T12:25:58Z</time></trkpt><trkpt lat="42.41869530566107" lon="12.115875704984237"><ele>372.0</ele><time>2026-04-28T12:25:59Z</time></trkpt><trkpt lat="42.41866511827297" lon="12.116033612669563"><ele>373.0</ele><time>2026-04-28T12:26:00Z</time></trkpt><trkpt lat="42.41860405273376" lon="12.116183197412207"><ele>374.0</ele><time>2026-04-28T12:26:01Z</time></trkpt><trkpt lat="42.418566616746425" lon="12.116352277219503"><ele>374.0</ele><time>2026-04-28T12:26:02Z</time></trkpt><trkpt lat="42.41851962236661" lon="12.116497321348579"><ele>374.0</ele><time>2026-04-28T12:26:03Z</time></trkpt><trkpt lat="42.4184863377542" lon="12.11662743300376"><ele>374.0</ele><time>2026-04-28T12:26:04Z</time></trkpt><trkpt lat="42.41846869928991" lon="12.116729061279742"><ele>374.0</ele><time>2026-04-28T12:26:05Z</time></trkpt><trkpt lat="42.41840698850564" lon="12.116839738911215"><ele>374.0</ele><time>2026-04-28T12:26:07Z</time></trkpt><trkpt lat="42.418300928048204" lon="12.116854741679152"><ele>374.6666666666667</ele><time>2026-04-28T12:26:09Z</time></trkpt><trkpt lat="42.41823705301025" lon="12.116847481370364"><ele>375.33333333333337</ele><time>2026-04-28T12:26:10Z</time></trkpt><trkpt lat="42.41816239482704" lon="12.11683564630799"><ele>376.0</ele><time>2026-04-28T12:26:11Z</time></trkpt><trkpt lat="42.41808587244935" lon="12.116818270293646"><ele>376.6666666666667</ele><time>2026-04-28T12:26:12Z</time></trkpt><trkpt lat="42.41801631363698" lon="12.116792928940042"><ele>377.3333333333333</ele><time>2026-04-28T12:26:13Z</time></trkpt><trkpt lat="42.41791311774771" lon="12.116793356417656"><ele>378.0</ele><time>2026-04-28T12:26:15Z</time></trkpt><trkpt lat="42.417867389892876" lon="12.116886232960733"><ele>378.3333333333333</ele><time>2026-04-28T12:26:16Z</time></trkpt><trkpt lat="42.41783463528207" lon="12.11696706065835"><ele>378.6666666666667</ele><time>2026-04-28T12:26:17Z</time></trkpt><trkpt lat="42.417802644650884" lon="12.117048696120492"><ele>379.0</ele><time>2026-04-28T12:26:18Z</time></trkpt><trkpt lat="42.417760298431034" lon="12.11713447712073"><ele>379.33333333333337</ele><time>2026-04-28T12:26:19Z</time></trkpt><trkpt lat="42.41770228910967" lon="12.117215086135793"><ele>379.6666666666667</ele><time>2026-04-28T12:26:20Z</time></trkpt><trkpt lat="42.41765535884721" lon="12.117308436967782"><ele>380.0</ele><time>2026-04-28T12:26:21Z</time></trkpt><trkpt lat="42.417609004636525" lon="12.117397571881382"><ele>381.4</ele><time>2026-04-28T12:26:22Z</time></trkpt><trkpt lat="42.417558442024564" lon="12.117494800066119"><ele>382.8</ele><time>2026-04-28T12:26:23Z</time></trkpt><trkpt lat="42.417509055462766" lon="12.117592074579466"><ele>384.20000000000005</ele><time>2026-04-28T12:26:24Z</time></trkpt><trkpt lat="42.41745721863946" lon="12.11769373840123"><ele>385.6</ele><time>2026-04-28T12:26:25Z</time></trkpt><trkpt lat="42.41740279785715" lon="12.117797132564768"><ele>387.0</ele><time>2026-04-28T12:26:26Z</time></trkpt><trkpt lat="42.417348186269734" lon="12.117899978509369"><ele>387.0</ele><time>2026-04-28T12:26:27Z</time></trkpt><trkpt lat="42.41730088284214" lon="12.118011179060113"><ele>387.0</ele><time>2026-04-28T12:26:28Z</time></trkpt><trkpt lat="42.41723074691653" lon="12.118098752904087"><ele>387.0</ele><time>2026-04-28T12:26:29Z</time></trkpt><trkpt lat="42.41715928974745" lon="12.118185682008892"><ele>387.0</ele><time>2026-04-28T12:26:30Z</time></trkpt><trkpt lat="42.41709342436834" lon="12.118273337527706"><ele>387.0</ele><time>2026-04-28T12:26:31Z</time></trkpt><trkpt lat="42.417033380764046" lon="12.118339178308307"><ele>387.5</ele><time>2026-04-28T12:26:32Z</time></trkpt><trkpt lat="42.41697542990711" lon="12.118391589370477"><ele>388.0</ele><time>2026-04-28T12:26:33Z</time></trkpt><trkpt lat="42.416920528960354" lon="12.118449071870755"><ele>388.5</ele><time>2026-04-28T12:26:34Z</time></trkpt><trkpt lat="42.41685402606665" lon="12.118495089995543"><ele>389.0</ele><time>2026-04-28T12:26:35Z</time></trkpt><trkpt lat="42.41679973841876" lon="12.1185488422522"><ele>389.5</ele><time>2026-04-28T12:26:36Z</time></trkpt><trkpt lat="42.41672684547455" lon="12.11862464725786"><ele>390.0</ele><time>2026-04-28T12:26:38Z</time></trkpt><trkpt lat="42.416847911816944" lon="12.118817690838789"><ele>390.0</ele><time>2026-04-28T12:26:40Z</time></trkpt><trkpt lat="42.41691088456089" lon="12.118887645349558"><ele>390.0</ele><time>2026-04-28T12:26:42Z</time></trkpt><trkpt lat="42.41701657460036" lon="12.118725285396922"><ele>390.0</ele><time>2026-04-28T12:26:43Z</time></trkpt><trkpt lat="42.417059261052984" lon="12.118648307325241"><ele>390.0</ele><time>2026-04-28T12:26:44Z</time></trkpt><trkpt lat="42.41710412445892" lon="12.118501087079872"><ele>390.0</ele><time>2026-04-28T12:26:46Z</time></trkpt><trkpt lat="42.41710400433591" lon="12.118367520400431"><ele>390.0</ele><time>2026-04-28T12:26:48Z</time></trkpt><trkpt lat="42.41703924200972" lon="12.118261508315157"><ele>390.0</ele><time>2026-04-28T12:26:51Z</time></trkpt><trkpt lat="42.41696728311927" lon="12.118166175024665"><ele>390.0</ele><time>2026-04-28T12:26:53Z</time></trkpt><trkpt lat="42.41690796186018" lon="12.118110603046953"><ele>390.0</ele><time>2026-04-28T12:26:54Z</time></trkpt><trkpt lat="42.41684177836989" lon="12.118046379278669"><ele>390.0</ele><time>2026-04-28T12:26:55Z</time></trkpt><trkpt lat="42.41677763139096" lon="12.11798137356944"><ele>390.0</ele><time>2026-04-28T12:26:56Z</time></trkpt><trkpt lat="42.41670957255596" lon="12.117911011343905"><ele>389.6666666666667</ele><time>2026-04-28T12:26:57Z</time></trkpt><trkpt lat="42.416640987649224" lon="12.117840059464408"><ele>389.33333333333337</ele><time>2026-04-28T12:26:58Z</time></trkpt><trkpt lat="42.41656784776924" lon="12.117773981397137"><ele>389.0</ele><time>2026-04-28T12:26:59Z</time></trkpt><trkpt lat="42.41649084374546" lon="12.11771007187555"><ele>388.6666666666667</ele><time>2026-04-28T12:27:00Z</time></trkpt><trkpt lat="42.41641158695614" lon="12.117641971339783"><ele>388.33333333333337</ele><time>2026-04-28T12:27:01Z</time></trkpt><trkpt lat="42.41633977712271" lon="12.11757148095277"><ele>388.0</ele><time>2026-04-28T12:27:02Z</time></trkpt><trkpt lat="42.416269480808836" lon="12.11750218236"><ele>387.1666666666667</ele><time>2026-04-28T12:27:03Z</time></trkpt><trkpt lat="42.416198170949485" lon="12.117439150783689"><ele>386.33333333333337</ele><time>2026-04-28T12:27:04Z</time></trkpt><trkpt lat="42.4161305061638" lon="12.117374590150856"><ele>385.5</ele><time>2026-04-28T12:27:05Z</time></trkpt><trkpt lat="42.41606308523704" lon="12.117316100647686"><ele>384.6666666666667</ele><time>2026-04-28T12:27:06Z</time></trkpt><trkpt lat="42.41600184648204" lon="12.117254733889753"><ele>383.83333333333337</ele><time>2026-04-28T12:27:07Z</time></trkpt><trkpt lat="42.4159306982027" lon="12.117186891509"><ele>383.0</ele><time>2026-04-28T12:27:08Z</time></trkpt><trkpt lat="42.41585488521314" lon="12.117117073402943"><ele>382.83333333333337</ele><time>2026-04-28T12:27:09Z</time></trkpt><trkpt lat="42.41577887870936" lon="12.117044044039949"><ele>382.6666666666667</ele><time>2026-04-28T12:27:10Z</time></trkpt><trkpt lat="42.41570310434511" lon="12.116976060848494"><ele>382.5</ele><time>2026-04-28T12:27:11Z</time></trkpt><trkpt lat="42.415636505798226" lon="12.11691106277281"><ele>382.3333333333333</ele><time>2026-04-28T12:27:12Z</time></trkpt><trkpt lat="42.415575288196855" lon="12.11684913416133"><ele>382.16666666666663</ele><time>2026-04-28T12:27:13Z</time></trkpt><trkpt lat="42.41551834198441" lon="12.11679211235276"><ele>382.0</ele><time>2026-04-28T12:27:14Z</time></trkpt><trkpt lat="42.415468754287296" lon="12.116739479522225"><ele>382.0</ele><time>2026-04-28T12:27:15Z</time></trkpt><trkpt lat="42.41536686698096" lon="12.116650300053244"><ele>382.0</ele><time>2026-04-28T12:27:17Z</time></trkpt><trkpt lat="42.4152987285574" lon="12.11658127511444"><ele>382.0</ele><time>2026-04-28T12:27:19Z</time></trkpt><trkpt lat="42.415236757898185" lon="12.116520755683409"><ele>382.0</ele><time>2026-04-28T12:27:22Z</time></trkpt><trkpt lat="42.41517879002704" lon="12.116462859712097"><ele>382.0</ele><time>2026-04-28T12:27:26Z</time></trkpt><trkpt lat="42.41510419506033" lon="12.116426078796957"><ele>382.0</ele><time>2026-04-28T12:27:28Z</time></trkpt><trkpt lat="42.41502186595076" lon="12.116343927534865"><ele>382.25</ele><time>2026-04-28T12:27:30Z</time></trkpt><trkpt lat="42.41493323006213" lon="12.116258429618894"><ele>382.5</ele><time>2026-04-28T12:27:32Z</time></trkpt><trkpt lat="42.41483891545421" lon="12.116172322237427"><ele>382.75</ele><time>2026-04-28T12:27:34Z</time></trkpt><trkpt lat="42.41473504965171" lon="12.11608244746808"><ele>383.0</ele><time>2026-04-28T12:27:36Z</time></trkpt><trkpt lat="42.4146468164075" lon="12.115980189340432"><ele>383.2</ele><time>2026-04-28T12:27:38Z</time></trkpt><trkpt lat="42.414572426852786" lon="12.115933438071895"><ele>383.4</ele><time>2026-04-28T12:27:40Z</time></trkpt><trkpt lat="42.414569098249636" lon="12.115747487016593"><ele>383.59999999999997</ele><time>2026-04-28T12:27:43Z</time></trkpt><trkpt lat="42.414576467486974" lon="12.115597377113993"><ele>383.79999999999995</ele><time>2026-04-28T12:27:45Z</time></trkpt><trkpt lat="42.414583996599404" lon="12.115504680477873"><ele>384.0</ele><time>2026-04-28T12:27:46Z</time></trkpt><trkpt lat="42.414593203188545" lon="12.115414683331442"><ele>382.75</ele><time>2026-04-28T12:27:47Z</time></trkpt><trkpt lat="42.414612611534835" lon="12.115258191219922"><ele>381.5</ele><time>2026-04-28T12:27:49Z</time></trkpt><trkpt lat="42.41462411246517" lon="12.115110288642052"><ele>380.25</ele><time>2026-04-28T12:27:51Z</time></trkpt><trkpt lat="42.4146379650604" lon="12.114959002392624"><ele>379.0</ele><time>2026-04-28T12:27:53Z</time></trkpt><trkpt lat="42.41465398759442" lon="12.114801365360654"><ele>377.6</ele><time>2026-04-28T12:27:55Z</time></trkpt><trkpt lat="42.41466253078858" lon="12.114695134149285"><ele>376.2</ele><time>2026-04-28T12:27:56Z</time></trkpt><trkpt lat="42.41466896869545" lon="12.114576888638155"><ele>374.8</ele><time>2026-04-28T12:27:57Z</time></trkpt><trkpt lat="42.4146821748179" lon="12.114443645059085"><ele>373.40000000000003</ele><time>2026-04-28T12:27:58Z</time></trkpt><trkpt lat="42.414702196298784" lon="12.114308592566733"><ele>372.0</ele><time>2026-04-28T12:27:59Z</time></trkpt><trkpt lat="42.41471565264245" lon="12.114176076087809"><ele>372.0</ele><time>2026-04-28T12:28:00Z</time></trkpt><trkpt lat="42.41472365781177" lon="12.114048247274638"><ele>372.0</ele><time>2026-04-28T12:28:01Z</time></trkpt><trkpt lat="42.41473029247285" lon="12.113931901910636"><ele>372.0</ele><time>2026-04-28T12:28:02Z</time></trkpt><trkpt lat="42.414733390746605" lon="12.113833313665934"><ele>372.0</ele><time>2026-04-28T12:28:03Z</time></trkpt><trkpt lat="42.41473161102816" lon="12.113682743868505"><ele>372.0</ele><time>2026-04-28T12:28:05Z</time></trkpt><trkpt lat="42.41468989957982" lon="12.11357023739253"><ele>371.8</ele><time>2026-04-28T12:28:07Z</time></trkpt><trkpt lat="42.414636426373455" lon="12.113493561933213"><ele>371.6</ele><time>2026-04-28T12:28:09Z</time></trkpt><trkpt lat="42.41461975933087" lon="12.113390483302533"><ele>371.40000000000003</ele><time>2026-04-28T12:28:11Z</time></trkpt><trkpt lat="42.4146346909079" lon="12.113252986537919"><ele>371.20000000000005</ele><time>2026-04-28T12:28:13Z</time></trkpt><trkpt lat="42.41462836166368" lon="12.113093295519905"><ele>371.0</ele><time>2026-04-28T12:28:15Z</time></trkpt><trkpt lat="42.414606378271586" lon="12.112944101642585"><ele>371.0</ele><time>2026-04-28T12:28:17Z</time></trkpt><trkpt lat="42.41458994601176" lon="12.112813197466211"><ele>371.0</ele><time>2026-04-28T12:28:19Z</time></trkpt><trkpt lat="42.414525260515525" lon="12.11270250459749"><ele>371.0</ele><time>2026-04-28T12:28:21Z</time></trkpt><trkpt lat="42.414441867087106" lon="12.112585323682042"><ele>371.0</ele><time>2026-04-28T12:28:23Z</time></trkpt><trkpt lat="42.414396372047015" lon="12.112523084910224"><ele>371.0</ele><time>2026-04-28T12:28:24Z</time></trkpt><trkpt lat="42.41429754401777" lon="12.11241147323209"><ele>370.14285714285717</ele><time>2026-04-28T12:28:26Z</time></trkpt><trkpt lat="42.41425693369842" lon="12.112338978134828"><ele>369.2857142857143</ele><time>2026-04-28T12:28:27Z</time></trkpt><trkpt lat="42.41421365017789" lon="12.112267911761293"><ele>368.42857142857144</ele><time>2026-04-28T12:28:28Z</time></trkpt><trkpt lat="42.41416613472327" lon="12.11220074008559"><ele>367.57142857142856</ele><time>2026-04-28T12:28:29Z</time></trkpt><trkpt lat="42.41411936274579" lon="12.112135723543272"><ele>366.7142857142857</ele><time>2026-04-28T12:28:30Z</time></trkpt><trkpt lat="42.414074105069034" lon="12.112068520572384"><ele>365.8571428571429</ele><time>2026-04-28T12:28:31Z</time></trkpt><trkpt lat="42.41402802722736" lon="12.112002588104689"><ele>365.0</ele><time>2026-04-28T12:28:32Z</time></trkpt><trkpt lat="42.41398183427281" lon="12.111939620445709"><ele>365.0</ele><time>2026-04-28T12:28:33Z</time></trkpt><trkpt lat="42.413933131716085" lon="12.111874457541473"><ele>365.0</ele><time>2026-04-28T12:28:34Z</time></trkpt><trkpt lat="42.413890335533274" lon="12.111800002855713"><ele>365.0</ele><time>2026-04-28T12:28:35Z</time></trkpt><trkpt lat="42.41384766876856" lon="12.111727711786141"><ele>365.0</ele><time>2026-04-28T12:28:36Z</time></trkpt><trkpt lat="42.41380020116837" lon="12.1116629785421"><ele>365.0</ele><time>2026-04-28T12:28:37Z</time></trkpt><trkpt lat="42.413729971025596" lon="12.111554762239125"><ele>365.0</ele><time>2026-04-28T12:28:39Z</time></trkpt><trkpt lat="42.41363533982384" lon="12.11155798783639"><ele>364.5714285714286</ele><time>2026-04-28T12:28:41Z</time></trkpt><trkpt lat="42.413562326459314" lon="12.111586132800406"><ele>364.14285714285717</ele><time>2026-04-28T12:28:44Z</time></trkpt><trkpt lat="42.41353081072242" lon="12.111661042520373"><ele>363.7142857142857</ele><time>2026-04-28T12:29:31Z</time></trkpt><trkpt lat="42.41358411303144" lon="12.111750646571878"><ele>363.28571428571433</ele><time>2026-04-28T12:29:33Z</time></trkpt><trkpt lat="42.41351604895287" lon="12.111763540549266"><ele>362.85714285714283</ele><time>2026-04-28T12:30:01Z</time></trkpt><trkpt lat="42.413447500756405" lon="12.111743603479486"><ele>362.42857142857144</ele><time>2026-04-28T12:30:07Z</time></trkpt><trkpt lat="42.41351432208495" lon="12.111721492339099"><ele>362.0</ele><time>2026-04-28T12:30:36Z</time></trkpt><trkpt lat="42.413551812186995" lon="12.111651223521921"><ele>362.0</ele><time>2026-04-28T12:30:42Z</time></trkpt><trkpt lat="42.413462114559024" lon="12.111749817334617"><ele>362.0</ele><time>2026-04-28T12:31:00Z</time></trkpt><trkpt lat="42.413390904135525" lon="12.11184196080877"><ele>362.0</ele><time>2026-04-28T12:31:02Z</time></trkpt><trkpt lat="42.41333788162101" lon="12.111921031261991"><ele>362.0</ele><time>2026-04-28T12:31:04Z</time></trkpt><trkpt lat="42.41327729425333" lon="12.112011916630557"><ele>362.0</ele><time>2026-04-28T12:31:06Z</time></trkpt><trkpt lat="42.413185015256865" lon="12.112078094875933"><ele>362.0</ele><time>2026-04-28T12:31:08Z</time></trkpt><trkpt lat="42.41312276924538" lon="12.112159449429669"><ele>362.0</ele><time>2026-04-28T12:31:10Z</time></trkpt><trkpt lat="42.41306584612669" lon="12.112109455588605"><ele>362.0</ele><time>2026-04-28T12:31:19Z</time></trkpt><trkpt lat="42.413007684267875" lon="12.112063646901591"><ele>362.0</ele><time>2026-04-28T12:31:26Z</time></trkpt><trkpt lat="42.41292554857288" lon="12.112151693789846"><ele>362.0</ele><time>2026-04-28T12:31:30Z</time></trkpt><trkpt lat="42.41287261067252" lon="12.112246058499778"><ele>362.0</ele><time>2026-04-28T12:31:31Z</time></trkpt><trkpt lat="42.41278451073813" lon="12.112366973373877"><ele>361.83333333333337</ele><time>2026-04-28T12:31:33Z</time></trkpt><trkpt lat="42.41272728963529" lon="12.112472963472818"><ele>361.6666666666667</ele><time>2026-04-28T12:31:35Z</time></trkpt><trkpt lat="42.41265691139129" lon="12.1125747380563"><ele>361.5</ele><time>2026-04-28T12:31:37Z</time></trkpt><trkpt lat="42.41259070134203" lon="12.112667948678935"><ele>361.3333333333333</ele><time>2026-04-28T12:31:39Z</time></trkpt><trkpt lat="42.41252797388654" lon="12.112730302054619"><ele>361.16666666666663</ele><time>2026-04-28T12:31:41Z</time></trkpt><trkpt lat="42.41247816523275" lon="12.11280242773567"><ele>361.0</ele><time>2026-04-28T12:31:44Z</time></trkpt><trkpt lat="42.412434497705306" lon="12.112866411978946"><ele>361.0</ele><time>2026-04-28T12:31:48Z</time></trkpt><trkpt lat="42.41249408284827" lon="12.112779378392844"><ele>361.0</ele><time>2026-04-28T12:32:04Z</time></trkpt><trkpt lat="42.41258776551944" lon="12.11264372355624"><ele>361.0</ele><time>2026-04-28T12:32:06Z</time></trkpt><trkpt lat="42.41264340940562" lon="12.112563148573939"><ele>361.0</ele><time>2026-04-28T12:32:07Z</time></trkpt><trkpt lat="42.41277255341452" lon="12.112434343450769"><ele>361.20000000000005</ele><time>2026-04-28T12:32:08Z</time></trkpt><trkpt lat="42.41284410450612" lon="12.112331033351584"><ele>361.40000000000003</ele><time>2026-04-28T12:32:09Z</time></trkpt><trkpt lat="42.41291137938835" lon="12.112230206310386"><ele>361.6</ele><time>2026-04-28T12:32:10Z</time></trkpt><trkpt lat="42.41298142378109" lon="12.112130552887509"><ele>361.8</ele><time>2026-04-28T12:32:11Z</time></trkpt><trkpt lat="42.413053931976364" lon="12.112032044777495"><ele>362.0</ele><time>2026-04-28T12:32:12Z</time></trkpt><trkpt lat="42.41312688615317" lon="12.111926833274724"><ele>362.0</ele><time>2026-04-28T12:32:13Z</time></trkpt><trkpt lat="42.41320204274756" lon="12.11181768316418"><ele>362.0</ele><time>2026-04-28T12:32:14Z</time></trkpt><trkpt lat="42.4132859299561" lon="12.111702192807506"><ele>362.0</ele><time>2026-04-28T12:32:15Z</time></trkpt><trkpt lat="42.41337176773407" lon="12.111581552251176"><ele>362.0</ele><time>2026-04-28T12:32:16Z</time></trkpt><trkpt lat="42.41345724929413" lon="12.11146413370961"><ele>361.6</ele><time>2026-04-28T12:32:17Z</time></trkpt><trkpt lat="42.413537131812866" lon="12.111351227373516"><ele>361.20000000000005</ele><time>2026-04-28T12:32:18Z</time></trkpt><trkpt lat="42.41361498263306" lon="12.111244522711226"><ele>360.8</ele><time>2026-04-28T12:32:19Z</time></trkpt><trkpt lat="42.413690143247955" lon="12.111138950434727"><ele>360.4</ele><time>2026-04-28T12:32:20Z</time></trkpt><trkpt lat="42.41376417534957" lon="12.111032180861574"><ele>360.0</ele><time>2026-04-28T12:32:21Z</time></trkpt><trkpt lat="42.41383951152663" lon="12.110922433136427"><ele>360.0</ele><time>2026-04-28T12:32:22Z</time></trkpt><trkpt lat="42.41390685078155" lon="12.110819292623667"><ele>360.0</ele><time>2026-04-28T12:32:23Z</time></trkpt><trkpt lat="42.41396882033238" lon="12.110726961354388"><ele>360.0</ele><time>2026-04-28T12:32:24Z</time></trkpt><trkpt lat="42.41402275573296" lon="12.11064580775248"><ele>360.0</ele><time>2026-04-28T12:32:25Z</time></trkpt><trkpt lat="42.414068670536466" lon="12.110580185658305"><ele>360.0</ele><time>2026-04-28T12:32:26Z</time></trkpt><trkpt lat="42.41413550441295" lon="12.110496686818138"><ele>360.0</ele><time>2026-04-28T12:32:28Z</time></trkpt><trkpt lat="42.41418881498633" lon="12.110417230913006"><ele>359.5</ele><time>2026-04-28T12:32:31Z</time></trkpt><trkpt lat="42.41424276866475" lon="12.11034211865975"><ele>359.0</ele><time>2026-04-28T12:32:33Z</time></trkpt><trkpt lat="42.41427583889369" lon="12.110253441359653"><ele>358.5</ele><time>2026-04-28T12:32:36Z</time></trkpt><trkpt lat="42.414322707202786" lon="12.110176026056143"><ele>358.0</ele><time>2026-04-28T12:33:27Z</time></trkpt><trkpt lat="42.41439066328112" lon="12.110060195939475"><ele>357.5</ele><time>2026-04-28T12:33:29Z</time></trkpt><trkpt lat="42.414430849996535" lon="12.109989143541771"><ele>357.0</ele><time>2026-04-28T12:33:30Z</time></trkpt><trkpt lat="42.414489277122996" lon="12.109890858932292"><ele>357.0</ele><time>2026-04-28T12:33:32Z</time></trkpt><trkpt lat="42.41454404942443" lon="12.109815227534584"><ele>357.0</ele><time>2026-04-28T12:33:34Z</time></trkpt><trkpt lat="42.41458597305547" lon="12.109686534781273"><ele>357.0</ele><time>2026-04-28T12:33:36Z</time></trkpt><trkpt lat="42.414607251671484" lon="12.109605066723013"><ele>357.0</ele><time>2026-04-28T12:33:37Z</time></trkpt><trkpt lat="42.414629861080925" lon="12.109521937644175"><ele>357.0</ele><time>2026-04-28T12:33:38Z</time></trkpt><trkpt lat="42.41464901038819" lon="12.109439755674456"><ele>357.0</ele><time>2026-04-28T12:33:39Z</time></trkpt><trkpt lat="42.414683966946356" lon="12.10927496857437"><ele>357.14285714285717</ele><time>2026-04-28T12:33:41Z</time></trkpt><trkpt lat="42.41469744160314" lon="12.109186582422028"><ele>357.2857142857143</ele><time>2026-04-28T12:33:42Z</time></trkpt><trkpt lat="42.41470867626641" lon="12.109097268465682"><ele>357.42857142857144</ele><time>2026-04-28T12:33:43Z</time></trkpt><trkpt lat="42.414717912801706" lon="12.109004455114057"><ele>357.57142857142856</ele><time>2026-04-28T12:33:44Z</time></trkpt><trkpt lat="42.41472758496845" lon="12.10891111713218"><ele>357.7142857142857</ele><time>2026-04-28T12:33:45Z</time></trkpt><trkpt lat="42.414737258464555" lon="12.108816615492698"><ele>357.8571428571429</ele><time>2026-04-28T12:33:46Z</time></trkpt><trkpt lat="42.414743552035965" lon="12.108724455256109"><ele>358.0</ele><time>2026-04-28T12:33:47Z</time></trkpt><trkpt lat="42.41475280865202" lon="12.10857041972165"><ele>357.4</ele><time>2026-04-28T12:33:49Z</time></trkpt><trkpt lat="42.414759844755565" lon="12.108448015451362"><ele>356.79999999999995</ele><time>2026-04-28T12:33:51Z</time></trkpt><trkpt lat="42.41477133779936" lon="12.108334502374712"><ele>356.2</ele><time>2026-04-28T12:33:53Z</time></trkpt><trkpt lat="42.414779505166415" lon="12.10820379441735"><ele>355.6</ele><time>2026-04-28T12:33:55Z</time></trkpt><trkpt lat="42.414795509443" lon="12.108061041653572"><ele>355.0</ele><time>2026-04-28T12:33:57Z</time></trkpt><trkpt lat="42.414815799903984" lon="12.107909559413535"><ele>353.8</ele><time>2026-04-28T12:33:59Z</time></trkpt><trkpt lat="42.41485858382715" lon="12.107750612576961"><ele>352.6</ele><time>2026-04-28T12:34:01Z</time></trkpt><trkpt lat="42.4148784387048" lon="12.107666829117319"><ele>351.4</ele><time>2026-04-28T12:34:02Z</time></trkpt><trkpt lat="42.41492961164708" lon="12.10751985205604"><ele>350.2</ele><time>2026-04-28T12:34:04Z</time></trkpt><trkpt lat="42.414993735499046" lon="12.107402689729948"><ele>349.0</ele><time>2026-04-28T12:34:06Z</time></trkpt><trkpt lat="42.41506913965451" lon="12.107286137229789"><ele>348.71428571428567</ele><time>2026-04-28T12:34:08Z</time></trkpt><trkpt lat="42.415116372452026" lon="12.107220234166817"><ele>348.42857142857144</ele><time>2026-04-28T12:34:09Z</time></trkpt><trkpt lat="42.41516769704178" lon="12.10715798969986"><ele>348.1428571428571</ele><time>2026-04-28T12:34:10Z</time></trkpt><trkpt lat="42.415224647764866" lon="12.107090008125828"><ele>347.85714285714283</ele><time>2026-04-28T12:34:11Z</time></trkpt><trkpt lat="42.41529092108939" lon="12.10702396393069"><ele>347.57142857142856</ele><time>2026-04-28T12:34:12Z</time></trkpt><trkpt lat="42.415347720768004" lon="12.106961099749121"><ele>347.2857142857143</ele><time>2026-04-28T12:34:13Z</time></trkpt><trkpt lat="42.415402003679205" lon="12.106898310088132"><ele>347.0</ele><time>2026-04-28T12:34:14Z</time></trkpt><trkpt lat="42.4154531088951" lon="12.106835253304421"><ele>346.7142857142857</ele><time>2026-04-28T12:34:15Z</time></trkpt><trkpt lat="42.41550448484126" lon="12.106771268103119"><ele>346.4285714285714</ele><time>2026-04-28T12:34:16Z</time></trkpt><trkpt lat="42.41555766419745" lon="12.106709512843878"><ele>346.1428571428571</ele><time>2026-04-28T12:34:17Z</time></trkpt><trkpt lat="42.41560931523902" lon="12.106649816839376"><ele>345.8571428571429</ele><time>2026-04-28T12:34:18Z</time></trkpt><trkpt lat="42.41566274172957" lon="12.106585272345882"><ele>345.57142857142856</ele><time>2026-04-28T12:34:19Z</time></trkpt><trkpt lat="42.41571156051775" lon="12.10651638618346"><ele>345.2857142857143</ele><time>2026-04-28T12:34:20Z</time></trkpt><trkpt lat="42.41576691506579" lon="12.106454218730105"><ele>345.0</ele><time>2026-04-28T12:34:21Z</time></trkpt><trkpt lat="42.41581979663828" lon="12.106390970102208"><ele>344.42857142857144</ele><time>2026-04-28T12:34:22Z</time></trkpt><trkpt lat="42.41587152997166" lon="12.106328345274203"><ele>343.85714285714283</ele><time>2026-04-28T12:34:23Z</time></trkpt><trkpt lat="42.41592035687629" lon="12.106261254602861"><ele>343.2857142857143</ele><time>2026-04-28T12:34:24Z</time></trkpt><trkpt lat="42.41597203586435" lon="12.106199519632597"><ele>342.7142857142857</ele><time>2026-04-28T12:34:25Z</time></trkpt><trkpt lat="42.416019640478034" lon="12.106134815825692"><ele>342.14285714285717</ele><time>2026-04-28T12:34:26Z</time></trkpt><trkpt lat="42.41607404118906" lon="12.106067853295462"><ele>341.57142857142856</ele><time>2026-04-28T12:34:27Z</time></trkpt><trkpt lat="42.41612504315947" lon="12.106001447343582"><ele>341.0</ele><time>2026-04-28T12:34:28Z</time></trkpt><trkpt lat="42.416229408843556" lon="12.105895343939387"><ele>341.0</ele><time>2026-04-28T12:34:30Z</time></trkpt><trkpt lat="42.41628613792404" lon="12.105828056322297"><ele>341.0</ele><time>2026-04-28T12:34:31Z</time></trkpt><trkpt lat="42.416339798050686" lon="12.105768178190402"><ele>341.0</ele><time>2026-04-28T12:34:32Z</time></trkpt><trkpt lat="42.4163804232132" lon="12.105689811405524"><ele>341.0</ele><time>2026-04-28T12:34:33Z</time></trkpt><trkpt lat="42.41643085179532" lon="12.105634713231591"><ele>341.0</ele><time>2026-04-28T12:34:34Z</time></trkpt><trkpt lat="42.41648312405805" lon="12.10557831848761"><ele>341.0</ele><time>2026-04-28T12:34:35Z</time></trkpt><trkpt lat="42.41653357144302" lon="12.105522927709774"><ele>341.0</ele><time>2026-04-28T12:34:36Z</time></trkpt><trkpt lat="42.41657361605329" lon="12.1054486564347"><ele>339.6</ele><time>2026-04-28T12:34:37Z</time></trkpt><trkpt lat="42.41666215066738" lon="12.105360326225286"><ele>338.20000000000005</ele><time>2026-04-28T12:34:39Z</time></trkpt><trkpt lat="42.41670768559913" lon="12.105285969103843"><ele>336.79999999999995</ele><time>2026-04-28T12:34:42Z</time></trkpt><trkpt lat="42.41674124062887" lon="12.10520389475045"><ele>335.4</ele><time>2026-04-28T12:34:47Z</time></trkpt><trkpt lat="42.41658917619162" lon="12.105114486691258"><ele>334.0</ele><time>2026-04-28T12:35:10Z</time></trkpt><trkpt lat="42.4167450686982" lon="12.10505543312823"><ele>334.0</ele><time>2026-04-28T12:36:05Z</time></trkpt><trkpt lat="42.416754679042455" lon="12.104962689241292"><ele>334.0</ele><time>2026-04-28T12:37:16Z</time></trkpt><trkpt lat="42.416704491285905" lon="12.104892335194988"><ele>334.0</ele><time>2026-04-28T12:37:22Z</time></trkpt><trkpt lat="42.41664638105957" lon="12.104937017540184"><ele>334.0</ele><time>2026-04-28T12:38:41Z</time></trkpt><trkpt lat="42.41670099601938" lon="12.105007361363844"><ele>334.0</ele><time>2026-04-28T12:39:59Z</time></trkpt><trkpt lat="42.41679504528398" lon="12.105047011582698"><ele>334.0</ele><time>2026-04-28T12:40:01Z</time></trkpt><trkpt lat="42.41689613077734" lon="12.105041938936163"><ele>334.0</ele><time>2026-04-28T12:40:03Z</time></trkpt><trkpt lat="42.41699990409048" lon="12.1049685058779"><ele>334.0</ele><time>2026-04-28T12:40:05Z</time></trkpt><trkpt lat="42.41707799387157" lon="12.104992144958898"><ele>334.0</ele><time>2026-04-28T12:40:06Z</time></trkpt><trkpt lat="42.41713508276702" lon="12.10495404701468"><ele>334.0</ele><time>2026-04-28T12:40:07Z</time></trkpt><trkpt lat="42.41718366627434" lon="12.104887200372202"><ele>334.0</ele><time>2026-04-28T12:40:08Z</time></trkpt><trkpt lat="42.417250128801165" lon="12.10479553752545"><ele>334.0</ele><time>2026-04-28T12:40:10Z</time></trkpt><trkpt lat="42.417321601186686" lon="12.104711669744669"><ele>331.6</ele><time>2026-04-28T12:40:12Z</time></trkpt><trkpt lat="42.41743048823313" lon="12.104671195250424"><ele>329.2</ele><time>2026-04-28T12:40:14Z</time></trkpt><trkpt lat="42.417533393486984" lon="12.10462721203097"><ele>326.8</ele><time>2026-04-28T12:40:16Z</time></trkpt><trkpt lat="42.41762648941882" lon="12.104607633878453"><ele>324.40000000000003</ele><time>2026-04-28T12:40:18Z</time></trkpt><trkpt lat="42.41771568553354" lon="12.104592626908229"><ele>322.0</ele><time>2026-04-28T12:40:20Z</time></trkpt><trkpt lat="42.41780322576426" lon="12.10457191754881"><ele>322.0</ele><time>2026-04-28T12:40:22Z</time></trkpt><trkpt lat="42.41792872554349" lon="12.104553899099496"><ele>322.0</ele><time>2026-04-28T12:40:24Z</time></trkpt><trkpt lat="42.41799287892286" lon="12.104542386568449"><ele>322.0</ele><time>2026-04-28T12:40:25Z</time></trkpt><trkpt lat="42.41811389449351" lon="12.104517008778174"><ele>322.0</ele><time>2026-04-28T12:40:27Z</time></trkpt><trkpt lat="42.418227265804404" lon="12.104474161332956"><ele>322.0</ele><time>2026-04-28T12:40:29Z</time></trkpt><trkpt lat="42.41832466563799" lon="12.104439989500618"><ele>322.16666666666663</ele><time>2026-04-28T12:40:31Z</time></trkpt><trkpt lat="42.418399853468664" lon="12.104388107456467"><ele>322.3333333333333</ele><time>2026-04-28T12:40:33Z</time></trkpt><trkpt lat="42.41845867655604" lon="12.104318598834338"><ele>322.5</ele><time>2026-04-28T12:40:35Z</time></trkpt><trkpt lat="42.418478011735274" lon="12.104230043810878"><ele>322.6666666666667</ele><time>2026-04-28T12:40:37Z</time></trkpt><trkpt lat="42.418414120695154" lon="12.104125671618766"><ele>322.83333333333337</ele><time>2026-04-28T12:41:28Z</time></trkpt><trkpt lat="42.41836361673128" lon="12.104017570745858"><ele>323.0</ele><time>2026-04-28T12:41:30Z</time></trkpt><trkpt lat="42.41836889588291" lon="12.10383838042189"><ele>322.59999999999997</ele><time>2026-04-28T12:41:32Z</time></trkpt><trkpt lat="42.418407162906824" lon="12.103683670880166"><ele>322.2</ele><time>2026-04-28T12:41:34Z</time></trkpt><trkpt lat="42.418423646259704" lon="12.103471471925266"><ele>321.8</ele><time>2026-04-28T12:41:36Z</time></trkpt><trkpt lat="42.418382767660276" lon="12.103381733644598"><ele>321.4</ele><time>2026-04-28T12:41:37Z</time></trkpt><trkpt lat="42.41835337516492" lon="12.103272908414617"><ele>321.0</ele><time>2026-04-28T12:41:38Z</time></trkpt><trkpt lat="42.41832096399788" lon="12.103157435078526"><ele>321.6666666666667</ele><time>2026-04-28T12:41:39Z</time></trkpt><trkpt lat="42.41828823782973" lon="12.103055481499904"><ele>322.3333333333333</ele><time>2026-04-28T12:41:40Z</time></trkpt><trkpt lat="42.41825221603304" lon="12.102949984091236"><ele>323.0</ele><time>2026-04-28T12:41:41Z</time></trkpt><trkpt lat="42.41821034561705" lon="12.102841000442542"><ele>323.66666666666663</ele><time>2026-04-28T12:41:42Z</time></trkpt><trkpt lat="42.41817126063948" lon="12.102726172152485"><ele>324.3333333333333</ele><time>2026-04-28T12:41:43Z</time></trkpt><trkpt lat="42.41814221927042" lon="12.102609478908493"><ele>325.0</ele><time>2026-04-28T12:41:44Z</time></trkpt><trkpt lat="42.41811522510751" lon="12.102490971913884"><ele>325.2</ele><time>2026-04-28T12:41:45Z</time></trkpt><trkpt lat="42.41809001772887" lon="12.10236771523227"><ele>325.4</ele><time>2026-04-28T12:41:46Z</time></trkpt><trkpt lat="42.41806096617666" lon="12.102237621591952"><ele>325.6</ele><time>2026-04-28T12:41:47Z</time></trkpt><trkpt lat="42.41803559743642" lon="12.102116187698787"><ele>325.8</ele><time>2026-04-28T12:41:48Z</time></trkpt><trkpt lat="42.41801204857841" lon="12.102002277361095"><ele>326.0</ele><time>2026-04-28T12:41:49Z</time></trkpt><trkpt lat="42.41798460910582" lon="12.101896477587495"><ele>323.40000000000003</ele><time>2026-04-28T12:41:50Z</time></trkpt><trkpt lat="42.41795831068467" lon="12.101803184808661"><ele>320.8</ele><time>2026-04-28T12:41:51Z</time></trkpt><trkpt lat="42.41791231171285" lon="12.1016961403154"><ele>318.20000000000005</ele><time>2026-04-28T12:41:53Z</time></trkpt><trkpt lat="42.41787199407053" lon="12.10159178630282"><ele>315.6</ele><time>2026-04-28T12:41:58Z</time></trkpt><trkpt lat="42.41771443329676" lon="12.101654485683307"><ele>313.0</ele><time>2026-04-28T12:41:59Z</time></trkpt><trkpt lat="42.41763402984623" lon="12.101749970704121"><ele>313.0</ele><time>2026-04-28T12:42:01Z</time></trkpt><trkpt lat="42.41759899771865" lon="12.10184865541502"><ele>313.0</ele><time>2026-04-28T12:42:02Z</time></trkpt><trkpt lat="42.417556449807726" lon="12.101945697534415"><ele>313.0</ele><time>2026-04-28T12:42:03Z</time></trkpt><trkpt lat="42.41751083479439" lon="12.102054192046435"><ele>313.0</ele><time>2026-04-28T12:42:04Z</time></trkpt><trkpt lat="42.417470571084316" lon="12.102175520822879"><ele>313.0</ele><time>2026-04-28T12:42:05Z</time></trkpt><trkpt lat="42.417436420300334" lon="12.102297802561063"><ele>312.4</ele><time>2026-04-28T12:42:06Z</time></trkpt><trkpt lat="42.4174021921866" lon="12.102423504209911"><ele>311.8</ele><time>2026-04-28T12:42:07Z</time></trkpt><trkpt lat="42.41736927377628" lon="12.102550851644983"><ele>311.2</ele><time>2026-04-28T12:42:08Z</time></trkpt><trkpt lat="42.41733943342784" lon="12.102667507333164"><ele>310.6</ele><time>2026-04-28T12:42:09Z</time></trkpt><trkpt lat="42.417319101591794" lon="12.102761033047106"><ele>310.0</ele><time>2026-04-28T12:42:10Z</time></trkpt><trkpt lat="42.417265221798154" lon="12.102891085241446"><ele>310.0</ele><time>2026-04-28T12:42:12Z</time></trkpt><trkpt lat="42.417174211104374" lon="12.102947783388448"><ele>310.0</ele><time>2026-04-28T12:42:14Z</time></trkpt><trkpt lat="42.41705486847738" lon="12.102930336418424"><ele>310.0</ele><time>2026-04-28T12:42:16Z</time></trkpt><trkpt lat="42.41698378538321" lon="12.10290300298057"><ele>310.0</ele><time>2026-04-28T12:42:17Z</time></trkpt><trkpt lat="42.416905805748314" lon="12.10286013932312"><ele>310.0</ele><time>2026-04-28T12:42:18Z</time></trkpt><trkpt lat="42.41683217075043" lon="12.10280480323435"><ele>309.4</ele><time>2026-04-28T12:42:19Z</time></trkpt><trkpt lat="42.41676229334604" lon="12.102727860109992"><ele>308.8</ele><time>2026-04-28T12:42:20Z</time></trkpt><trkpt lat="42.416698114230726" lon="12.102629563350122"><ele>308.2</ele><time>2026-04-28T12:42:21Z</time></trkpt><trkpt lat="42.41664239670235" lon="12.102521270350099"><ele>307.6</ele><time>2026-04-28T12:42:22Z</time></trkpt><trkpt lat="42.41660564261769" lon="12.10240805392648"><ele>307.0</ele><time>2026-04-28T12:42:23Z</time></trkpt><trkpt lat="42.41659145828106" lon="12.10229132379209"><ele>306.16666666666663</ele><time>2026-04-28T12:42:24Z</time></trkpt><trkpt lat="42.416600702010435" lon="12.102176426270207"><ele>305.3333333333333</ele><time>2026-04-28T12:42:25Z</time></trkpt><trkpt lat="42.416615640018826" lon="12.102067943542677"><ele>304.5</ele><time>2026-04-28T12:42:26Z</time></trkpt><trkpt lat="42.41663760528771" lon="12.101967518503992"><ele>303.6666666666667</ele><time>2026-04-28T12:42:27Z</time></trkpt><trkpt lat="42.41666474161968" lon="12.101870248463936"><ele>302.83333333333337</ele><time>2026-04-28T12:42:28Z</time></trkpt><trkpt lat="42.41668725384542" lon="12.10177745685001"><ele>302.0</ele><time>2026-04-28T12:42:29Z</time></trkpt><trkpt lat="42.416700065511215" lon="12.101683684414716"><ele>302.0</ele><time>2026-04-28T12:42:30Z</time></trkpt><trkpt lat="42.416708679675274" lon="12.101577975471379"><ele>302.0</ele><time>2026-04-28T12:42:31Z</time></trkpt><trkpt lat="42.41671038853757" lon="12.101468584208039"><ele>302.0</ele><time>2026-04-28T12:42:32Z</time></trkpt><trkpt lat="42.41670138001586" lon="12.101362727925009"><ele>302.0</ele><time>2026-04-28T12:42:33Z</time></trkpt><trkpt lat="42.41667589648252" lon="12.10126337203146"><ele>302.0</ele><time>2026-04-28T12:42:34Z</time></trkpt><trkpt lat="42.416642489314825" lon="12.101172076502843"><ele>302.0</ele><time>2026-04-28T12:42:35Z</time></trkpt><trkpt lat="42.416606012127836" lon="12.101079642512019"><ele>302.0</ele><time>2026-04-28T12:42:36Z</time></trkpt><trkpt lat="42.41657408194961" lon="12.100983534112379"><ele>302.0</ele><time>2026-04-28T12:42:37Z</time></trkpt><trkpt lat="42.4165396461518" lon="12.100883577643899"><ele>302.0</ele><time>2026-04-28T12:42:38Z</time></trkpt><trkpt lat="42.416502023688075" lon="12.100785354957614"><ele>302.0</ele><time>2026-04-28T12:42:39Z</time></trkpt><trkpt lat="42.416468670778485" lon="12.100687663190016"><ele>302.0</ele><time>2026-04-28T12:42:40Z</time></trkpt><trkpt lat="42.41643494827439" lon="12.100593108633277"><ele>302.0</ele><time>2026-04-28T12:42:41Z</time></trkpt><trkpt lat="42.416401630089034" lon="12.10049725283651"><ele>302.14285714285717</ele><time>2026-04-28T12:42:42Z</time></trkpt><trkpt lat="42.416368286680125" lon="12.100408536761044"><ele>302.2857142857143</ele><time>2026-04-28T12:42:43Z</time></trkpt><trkpt lat="42.41633723283909" lon="12.100319023313867"><ele>302.42857142857144</ele><time>2026-04-28T12:42:44Z</time></trkpt><trkpt lat="42.41630939914035" lon="12.100228679862406"><ele>302.57142857142856</ele><time>2026-04-28T12:42:45Z</time></trkpt><trkpt lat="42.41627879742277" lon="12.10014362122118"><ele>302.7142857142857</ele><time>2026-04-28T12:42:46Z</time></trkpt><trkpt lat="42.41624716770489" lon="12.100059461715354"><ele>302.8571428571429</ele><time>2026-04-28T12:42:47Z</time></trkpt><trkpt lat="42.41621713683294" lon="12.099977738980831"><ele>303.0</ele><time>2026-04-28T12:42:48Z</time></trkpt><trkpt lat="42.41616972751069" lon="12.099823815764251"><ele>302.57142857142856</ele><time>2026-04-28T12:42:50Z</time></trkpt><trkpt lat="42.41613787568782" lon="12.099733248522423"><ele>302.1428571428571</ele><time>2026-04-28T12:42:51Z</time></trkpt><trkpt lat="42.416103350006615" lon="12.099649842683599"><ele>301.71428571428567</ele><time>2026-04-28T12:42:52Z</time></trkpt><trkpt lat="42.41607129027307" lon="12.099568143938658"><ele>301.2857142857143</ele><time>2026-04-28T12:42:53Z</time></trkpt><trkpt lat="42.41604051034463" lon="12.099488466573767"><ele>300.85714285714283</ele><time>2026-04-28T12:42:54Z</time></trkpt><trkpt lat="42.41600886863341" lon="12.09940883696918"><ele>300.4285714285714</ele><time>2026-04-28T12:42:55Z</time></trkpt><trkpt lat="42.415975941386286" lon="12.09933204876773"><ele>300.0</ele><time>2026-04-28T12:42:56Z</time></trkpt><trkpt lat="42.41594548853563" lon="12.099256819317977"><ele>300.0</ele><time>2026-04-28T12:42:57Z</time></trkpt><trkpt lat="42.41588983047682" lon="12.0991180509323"><ele>300.0</ele><time>2026-04-28T12:42:59Z</time></trkpt><trkpt lat="42.41584147150189" lon="12.098995420182685"><ele>300.0</ele><time>2026-04-28T12:43:01Z</time></trkpt><trkpt lat="42.41579875927183" lon="12.098883042266987"><ele>300.0</ele><time>2026-04-28T12:43:03Z</time></trkpt><trkpt lat="42.41575582996435" lon="12.09877943905892"><ele>300.0</ele><time>2026-04-28T12:43:05Z</time></trkpt><trkpt lat="42.41571457793644" lon="12.098673199925612"><ele>299.4</ele><time>2026-04-28T12:43:07Z</time></trkpt><trkpt lat="42.41567401873752" lon="12.098566147717698"><ele>298.8</ele><time>2026-04-28T12:43:09Z</time></trkpt><trkpt lat="42.415620329854534" lon="12.098471387031115"><ele>298.2</ele><time>2026-04-28T12:43:11Z</time></trkpt><trkpt lat="42.41556273909729" lon="12.098372222865587"><ele>297.6</ele><time>2026-04-28T12:43:13Z</time></trkpt><trkpt lat="42.41542549309453" lon="12.098423591814747"><ele>297.0</ele><time>2026-04-28T12:43:14Z</time></trkpt><trkpt lat="42.415347859722154" lon="12.098460845781425"><ele>296.6</ele><time>2026-04-28T12:43:15Z</time></trkpt><trkpt lat="42.415272225998095" lon="12.09846490759217"><ele>296.2</ele><time>2026-04-28T12:43:16Z</time></trkpt><trkpt lat="42.41515708202554" lon="12.098467339840214"><ele>295.8</ele><time>2026-04-28T12:43:18Z</time></trkpt><trkpt lat="42.415041587235386" lon="12.098400063123181"><ele>295.4</ele><time>2026-04-28T12:43:20Z</time></trkpt><trkpt lat="42.4149744471557" lon="12.098405812920035"><ele>295.0</ele><time>2026-04-28T12:43:21Z</time></trkpt><trkpt lat="42.41490932079676" lon="12.098436491713953"><ele>295.00000000000006</ele><time>2026-04-28T12:43:22Z</time></trkpt><trkpt lat="42.41484113389039" lon="12.09847910154864"><ele>295.0</ele><time>2026-04-28T12:43:23Z</time></trkpt><trkpt lat="42.4147692518163" lon="12.09851308480176"><ele>295.0</ele><time>2026-04-28T12:43:24Z</time></trkpt><trkpt lat="42.41470359299997" lon="12.098536555413688"><ele>295.0</ele><time>2026-04-28T12:43:25Z</time></trkpt><trkpt lat="42.41464965245363" lon="12.098587142717284"><ele>295.0</ele><time>2026-04-28T12:43:26Z</time></trkpt><trkpt lat="42.414609019305104" lon="12.09867108413652"><ele>295.00000000000006</ele><time>2026-04-28T12:43:27Z</time></trkpt><trkpt lat="42.41459021040244" lon="12.098776941962965"><ele>295.0</ele><time>2026-04-28T12:43:28Z</time></trkpt><trkpt lat="42.414575657783246" lon="12.098890705967104"><ele>295.4</ele><time>2026-04-28T12:43:29Z</time></trkpt><trkpt lat="42.41455646646403" lon="12.09900869990331"><ele>295.8</ele><time>2026-04-28T12:43:30Z</time></trkpt><trkpt lat="42.41453625923843" lon="12.099131982150436"><ele>296.2</ele><time>2026-04-28T12:43:31Z</time></trkpt><trkpt lat="42.414508597212574" lon="12.099261079629027"><ele>296.6</ele><time>2026-04-28T12:43:32Z</time></trkpt><trkpt lat="42.414481032956715" lon="12.099395131605615"><ele>297.0</ele><time>2026-04-28T12:43:33Z</time></trkpt><trkpt lat="42.4144546690038" lon="12.099526460969368"><ele>297.5</ele><time>2026-04-28T12:43:34Z</time></trkpt><trkpt lat="42.41442462277923" lon="12.099640956451083"><ele>298.0</ele><time>2026-04-28T12:43:35Z</time></trkpt><trkpt lat="42.414400590108166" lon="12.099746881565002"><ele>298.5</ele><time>2026-04-28T12:43:36Z</time></trkpt><trkpt lat="42.41437762382208" lon="12.099841271329556"><ele>299.0</ele><time>2026-04-28T12:43:37Z</time></trkpt><trkpt lat="42.41434685327264" lon="12.09992596454556"><ele>299.5</ele><time>2026-04-28T12:43:38Z</time></trkpt><trkpt lat="42.41429515117225" lon="12.100078653891806"><ele>300.0</ele><time>2026-04-28T12:43:40Z</time></trkpt><trkpt lat="42.414290706754656" lon="12.100173843285342"><ele>301.0</ele><time>2026-04-28T12:43:41Z</time></trkpt><trkpt lat="42.41429209492124" lon="12.100278142969396"><ele>302.0</ele><time>2026-04-28T12:43:42Z</time></trkpt><trkpt lat="42.41429079841108" lon="12.100388166068141"><ele>303.0</ele><time>2026-04-28T12:43:43Z</time></trkpt><trkpt lat="42.414290401086184" lon="12.100503792359797"><ele>304.0</ele><time>2026-04-28T12:43:44Z</time></trkpt><trkpt lat="42.41428637167747" lon="12.100625943994917"><ele>305.0</ele><time>2026-04-28T12:43:45Z</time></trkpt><trkpt lat="42.41428886630707" lon="12.10076209716243"><ele>306.0</ele><time>2026-04-28T12:43:46Z</time></trkpt><trkpt lat="42.41429048693164" lon="12.100905324709354"><ele>307.0</ele><time>2026-04-28T12:43:47Z</time></trkpt><trkpt lat="42.41429503118604" lon="12.101039418263076"><ele>308.0</ele><time>2026-04-28T12:43:48Z</time></trkpt><trkpt lat="42.41429654203953" lon="12.10113856070414"><ele>309.0</ele><time>2026-04-28T12:43:49Z</time></trkpt><trkpt lat="42.41430009854768" lon="12.101227518479572"><ele>310.0</ele><time>2026-04-28T12:43:50Z</time></trkpt><trkpt lat="42.41431187302806" lon="12.101318831271255"><ele>311.0</ele><time>2026-04-28T12:43:51Z</time></trkpt><trkpt lat="42.414324703213865" lon="12.101415740911664"><ele>312.0</ele><time>2026-04-28T12:43:52Z</time></trkpt><trkpt lat="42.41433985752575" lon="12.101515523740282"><ele>312.8333333333333</ele><time>2026-04-28T12:43:53Z</time></trkpt><trkpt lat="42.4143606293272" lon="12.101617014703546"><ele>313.6666666666667</ele><time>2026-04-28T12:43:54Z</time></trkpt><trkpt lat="42.41438545002244" lon="12.101715508349985"><ele>314.5</ele><time>2026-04-28T12:43:55Z</time></trkpt><trkpt lat="42.414422079096596" lon="12.101810053309872"><ele>315.33333333333337</ele><time>2026-04-28T12:43:56Z</time></trkpt><trkpt lat="42.41446579115993" lon="12.101891025433908"><ele>316.1666666666667</ele><time>2026-04-28T12:43:57Z</time></trkpt><trkpt lat="42.41450856321357" lon="12.101964168313215"><ele>317.0</ele><time>2026-04-28T12:43:58Z</time></trkpt><trkpt lat="42.41456209950014" lon="12.10203533904262"><ele>317.0</ele><time>2026-04-28T12:43:59Z</time></trkpt><trkpt lat="42.41461635447789" lon="12.102119690824775"><ele>317.0</ele><time>2026-04-28T12:44:00Z</time></trkpt><trkpt lat="42.4146812652354" lon="12.102195274993957"><ele>317.0</ele><time>2026-04-28T12:44:01Z</time></trkpt><trkpt lat="42.414747966498425" lon="12.102284128323408"><ele>317.0</ele><time>2026-04-28T12:44:02Z</time></trkpt><trkpt lat="42.41484253729259" lon="12.102334734638749"><ele>317.0</ele><time>2026-04-28T12:44:03Z</time></trkpt><trkpt lat="42.414927040806106" lon="12.102401744946556"><ele>319.6666666666667</ele><time>2026-04-28T12:44:04Z</time></trkpt><trkpt lat="42.415008340267846" lon="12.102451284276851"><ele>322.33333333333337</ele><time>2026-04-28T12:44:05Z</time></trkpt><trkpt lat="42.41509005544698" lon="12.1024888865247"><ele>325.0</ele><time>2026-04-28T12:44:06Z</time></trkpt><trkpt lat="42.41516780784557" lon="12.102524373771443"><ele>327.6666666666667</ele><time>2026-04-28T12:44:07Z</time></trkpt><trkpt lat="42.41525521657651" lon="12.102536223660913"><ele>330.3333333333333</ele><time>2026-04-28T12:44:08Z</time></trkpt><trkpt lat="42.415330019004735" lon="12.102581327997033"><ele>333.0</ele><time>2026-04-28T12:44:09Z</time></trkpt><trkpt lat="42.415394740602736" lon="12.102609277701788"><ele>332.5</ele><time>2026-04-28T12:44:10Z</time></trkpt><trkpt lat="42.4155026983422" lon="12.102658745823165"><ele>332.0</ele><time>2026-04-28T12:44:12Z</time></trkpt><trkpt lat="42.41556622770416" lon="12.102670965279026"><ele>331.5</ele><time>2026-04-28T12:44:13Z</time></trkpt><trkpt lat="42.415630267003365" lon="12.102694340862227"><ele>331.0</ele><time>2026-04-28T12:44:14Z</time></trkpt><trkpt lat="42.41570009662109" lon="12.102728964409275"><ele>330.5</ele><time>2026-04-28T12:44:15Z</time></trkpt><trkpt lat="42.41577523683845" lon="12.102746363815932"><ele>330.0</ele><time>2026-04-28T12:44:16Z</time></trkpt><trkpt lat="42.41585138423679" lon="12.10275524324059"><ele>330.00000000000006</ele><time>2026-04-28T12:44:17Z</time></trkpt><trkpt lat="42.415918116648" lon="12.102757135905291"><ele>330.0</ele><time>2026-04-28T12:44:18Z</time></trkpt><trkpt lat="42.415981839145566" lon="12.102753128594426"><ele>330.0</ele><time>2026-04-28T12:44:19Z</time></trkpt><trkpt lat="42.41604505904581" lon="12.102762403016142"><ele>330.0</ele><time>2026-04-28T12:44:20Z</time></trkpt><trkpt lat="42.41611345597879" lon="12.102795054600781"><ele>330.0</ele><time>2026-04-28T12:44:21Z</time></trkpt><trkpt lat="42.41618233060359" lon="12.102852971057754"><ele>330.00000000000006</ele><time>2026-04-28T12:44:22Z</time></trkpt><trkpt lat="42.416243210165604" lon="12.102918665193897"><ele>330.0</ele><time>2026-04-28T12:44:23Z</time></trkpt><trkpt lat="42.41628749747333" lon="12.10298437114691"><ele>328.00000000000006</ele><time>2026-04-28T12:44:24Z</time></trkpt><trkpt lat="42.41632497806329" lon="12.10306171553651"><ele>326.0</ele><time>2026-04-28T12:44:25Z</time></trkpt><trkpt lat="42.4163629957593" lon="12.103147947648488"><ele>324.0</ele><time>2026-04-28T12:44:26Z</time></trkpt><trkpt lat="42.41639178074913" lon="12.103247797227075"><ele>322.0</ele><time>2026-04-28T12:44:27Z</time></trkpt><trkpt lat="42.41640317962529" lon="12.10335267918529"><ele>320.0</ele><time>2026-04-28T12:44:28Z</time></trkpt><trkpt lat="42.416403052760636" lon="12.103452213587762"><ele>318.00000000000006</ele><time>2026-04-28T12:44:29Z</time></trkpt><trkpt lat="42.41638927624053" lon="12.103542217969867"><ele>316.0</ele><time>2026-04-28T12:44:30Z</time></trkpt><trkpt lat="42.416384478011494" lon="12.103639978913847"><ele>316.0</ele><time>2026-04-28T12:44:31Z</time></trkpt><trkpt lat="42.41636808866184" lon="12.103726559957066"><ele>316.0</ele><time>2026-04-28T12:44:32Z</time></trkpt><trkpt lat="42.41634755698248" lon="12.103811034789368"><ele>316.0</ele><time>2026-04-28T12:44:33Z</time></trkpt><trkpt lat="42.416328090158316" lon="12.103910705955096"><ele>316.0</ele><time>2026-04-28T12:44:35Z</time></trkpt><trkpt lat="42.416318993134574" lon="12.104001435544534"><ele>316.0</ele><time>2026-04-28T12:44:38Z</time></trkpt><trkpt lat="42.41630713892265" lon="12.10421366086671"><ele>316.0</ele><time>2026-04-28T12:49:06Z</time></trkpt><trkpt lat="42.41627313765683" lon="12.10428894548979"><ele>320.4</ele><time>2026-04-28T12:49:07Z</time></trkpt><trkpt lat="42.41621257817254" lon="12.104432824346583"><ele>324.8</ele><time>2026-04-28T12:49:09Z</time></trkpt><trkpt lat="42.416139150261806" lon="12.104541527965946"><ele>329.2</ele><time>2026-04-28T12:49:11Z</time></trkpt><trkpt lat="42.41607120893655" lon="12.104615808482356"><ele>333.59999999999997</ele><time>2026-04-28T12:49:13Z</time></trkpt><trkpt lat="42.41596547027746" lon="12.104649871915587"><ele>338.0</ele><time>2026-04-28T12:49:16Z</time></trkpt><trkpt lat="42.415863253386476" lon="12.104593403187392"><ele>338.0</ele><time>2026-04-28T12:49:18Z</time></trkpt><trkpt lat="42.415780452405976" lon="12.10448345308506"><ele>338.0</ele><time>2026-04-28T12:49:20Z</time></trkpt><trkpt lat="42.41574258424419" lon="12.104398871364793"><ele>338.0</ele><time>2026-04-28T12:49:21Z</time></trkpt><trkpt lat="42.41571111948627" lon="12.104321825710578"><ele>338.0</ele><time>2026-04-28T12:49:22Z</time></trkpt><trkpt lat="42.415654415360876" lon="12.104178129869839"><ele>338.0</ele><time>2026-04-28T12:49:24Z</time></trkpt><trkpt lat="42.41565290736297" lon="12.104090596255153"><ele>338.0</ele><time>2026-04-28T12:49:25Z</time></trkpt><trkpt lat="42.41559507006746" lon="12.103983300475342"><ele>338.1666666666667</ele><time>2026-04-28T12:49:27Z</time></trkpt><trkpt lat="42.415519542366916" lon="12.103905809628403"><ele>338.33333333333337</ele><time>2026-04-28T12:49:29Z</time></trkpt><trkpt lat="42.41543912672257" lon="12.103841366298793"><ele>338.5</ele><time>2026-04-28T12:49:31Z</time></trkpt><trkpt lat="42.415392094028974" lon="12.103780845396747"><ele>338.6666666666667</ele><time>2026-04-28T12:49:33Z</time></trkpt><trkpt lat="42.41535705133041" lon="12.103702746547803"><ele>338.8333333333333</ele><time>2026-04-28T12:49:35Z</time></trkpt><trkpt lat="42.41528902323295" lon="12.103653140364887"><ele>339.0</ele><time>2026-04-28T12:49:37Z</time></trkpt><trkpt lat="42.415240612492255" lon="12.103595119796884"><ele>339.0</ele><time>2026-04-28T12:49:39Z</time></trkpt><trkpt lat="42.41527081165471" lon="12.103671137439324"><ele>339.0</ele><time>2026-04-28T12:49:46Z</time></trkpt><trkpt lat="42.415134285539914" lon="12.103775813542166"><ele>339.0</ele><time>2026-04-28T12:49:48Z</time></trkpt><trkpt lat="42.41509930885694" lon="12.103912936153918"><ele>339.0</ele><time>2026-04-28T12:49:50Z</time></trkpt><trkpt lat="42.415054737248575" lon="12.104067077480556"><ele>339.1666666666667</ele><time>2026-04-28T12:49:52Z</time></trkpt><trkpt lat="42.415021240965004" lon="12.104226031099552"><ele>339.3333333333333</ele><time>2026-04-28T12:49:54Z</time></trkpt><trkpt lat="42.41501133600904" lon="12.104310934920232"><ele>339.5</ele><time>2026-04-28T12:49:55Z</time></trkpt><trkpt lat="42.41501520239276" lon="12.104400163217354"><ele>339.66666666666663</ele><time>2026-04-28T12:49:56Z</time></trkpt><trkpt lat="42.414992883924306" lon="12.104490549315681"><ele>339.8333333333333</ele><time>2026-04-28T12:49:57Z</time></trkpt><trkpt lat="42.41498999902279" lon="12.104582551805361"><ele>340.0</ele><time>2026-04-28T12:49:58Z</time></trkpt><trkpt lat="42.41498855637181" lon="12.104674013555828"><ele>340.0</ele><time>2026-04-28T12:49:59Z</time></trkpt><trkpt lat="42.41497758039514" lon="12.104763295030038"><ele>340.0</ele><time>2026-04-28T12:50:00Z</time></trkpt><trkpt lat="42.41495664661147" lon="12.104859382907879"><ele>340.0</ele><time>2026-04-28T12:50:01Z</time></trkpt><trkpt lat="42.414932301821594" lon="12.104950556620825"><ele>340.0</ele><time>2026-04-28T12:50:02Z</time></trkpt><trkpt lat="42.41490689169178" lon="12.105039311249381"><ele>340.0</ele><time>2026-04-28T12:50:03Z</time></trkpt><trkpt lat="42.41487928016617" lon="12.105129281993355"><ele>340.0</ele><time>2026-04-28T12:50:04Z</time></trkpt><trkpt lat="42.41485606427124" lon="12.105215704265682"><ele>340.0</ele><time>2026-04-28T12:50:05Z</time></trkpt><trkpt lat="42.414830496489714" lon="12.105298203809799"><ele>340.2</ele><time>2026-04-28T12:50:06Z</time></trkpt><trkpt lat="42.41478774789325" lon="12.10544642941635"><ele>340.4</ele><time>2026-04-28T12:50:08Z</time></trkpt><trkpt lat="42.41474657032434" lon="12.105569604754674"><ele>340.6</ele><time>2026-04-28T12:50:10Z</time></trkpt><trkpt lat="42.41470355847508" lon="12.105679855537131"><ele>340.8</ele><time>2026-04-28T12:50:12Z</time></trkpt><trkpt lat="42.414684477806865" lon="12.105799427687382"><ele>341.0</ele><time>2026-04-28T12:50:14Z</time></trkpt><trkpt lat="42.41464616912402" lon="12.105926805277768"><ele>341.20000000000005</ele><time>2026-04-28T12:50:16Z</time></trkpt><trkpt lat="42.41459924424986" lon="12.106076093910279"><ele>341.40000000000003</ele><time>2026-04-28T12:50:18Z</time></trkpt><trkpt lat="42.414551634335986" lon="12.106223166950967"><ele>341.6</ele><time>2026-04-28T12:50:20Z</time></trkpt><trkpt lat="42.41452447977119" lon="12.106304623922993"><ele>341.8</ele><time>2026-04-28T12:50:21Z</time></trkpt><trkpt lat="42.414493853348056" lon="12.106391406881846"><ele>342.0</ele><time>2026-04-28T12:50:22Z</time></trkpt><trkpt lat="42.41443679211147" lon="12.106540623060848"><ele>342.6</ele><time>2026-04-28T12:50:24Z</time></trkpt><trkpt lat="42.414367897350665" lon="12.10667627758224"><ele>343.20000000000005</ele><time>2026-04-28T12:50:26Z</time></trkpt><trkpt lat="42.414285151541826" lon="12.106798926309377"><ele>343.8</ele><time>2026-04-28T12:50:28Z</time></trkpt><trkpt lat="42.41423971723497" lon="12.106873941769729"><ele>344.4</ele><time>2026-04-28T12:50:29Z</time></trkpt><trkpt lat="42.41419023404364" lon="12.106943508099945"><ele>345.0</ele><time>2026-04-28T12:50:30Z</time></trkpt><trkpt lat="42.41413462680524" lon="12.106992134153781"><ele>345.0</ele><time>2026-04-28T12:50:31Z</time></trkpt><trkpt lat="42.414045050237796" lon="12.10708973849164"><ele>345.0</ele><time>2026-04-28T12:50:33Z</time></trkpt><trkpt lat="42.413955886344766" lon="12.10715113327032"><ele>345.0</ele><time>2026-04-28T12:50:35Z</time></trkpt><trkpt lat="42.41385827107128" lon="12.10718249358218"><ele>345.0</ele><time>2026-04-28T12:50:37Z</time></trkpt><trkpt lat="42.41376682206034" lon="12.107284599402414"><ele>345.0</ele><time>2026-04-28T12:50:39Z</time></trkpt><trkpt lat="42.4136686465812" lon="12.107316218316818"><ele>343.8333333333333</ele><time>2026-04-28T12:50:41Z</time></trkpt><trkpt lat="42.41355798913492" lon="12.107298538288049"><ele>342.6666666666667</ele><time>2026-04-28T12:50:43Z</time></trkpt><trkpt lat="42.41348422251231" lon="12.107264049472867"><ele>341.5</ele><time>2026-04-28T12:50:45Z</time></trkpt><trkpt lat="42.413414355755734" lon="12.107202964884218"><ele>340.33333333333337</ele><time>2026-04-28T12:50:47Z</time></trkpt><trkpt lat="42.41335223192334" lon="12.107178740957988"><ele>339.1666666666667</ele><time>2026-04-28T12:50:49Z</time></trkpt><trkpt lat="42.41329880679543" lon="12.107094188058355"><ele>338.0</ele><time>2026-04-28T12:50:52Z</time></trkpt><trkpt lat="42.41335732062585" lon="12.10695158854589"><ele>338.0</ele><time>2026-04-28T12:50:56Z</time></trkpt><trkpt lat="42.41341286001071" lon="12.106895032299498"><ele>338.0</ele><time>2026-04-28T12:50:58Z</time></trkpt><trkpt lat="42.41348043561624" lon="12.106884709043277"><ele>338.0</ele><time>2026-04-28T12:51:00Z</time></trkpt><trkpt lat="42.413524114628174" lon="12.10681582898987"><ele>338.0</ele><time>2026-04-28T12:51:04Z</time></trkpt><trkpt lat="42.41355345986843" lon="12.106737616737968"><ele>338.0</ele><time>2026-04-28T12:51:06Z</time></trkpt><trkpt lat="42.413614553496174" lon="12.106657821328456"><ele>338.0</ele><time>2026-04-28T12:51:10Z</time></trkpt><trkpt lat="42.41356240603545" lon="12.106746175771725"><ele>338.0</ele><time>2026-04-28T12:51:25Z</time></trkpt><trkpt lat="42.41342423366319" lon="12.10667773107359"><ele>338.0</ele><time>2026-04-28T12:51:29Z</time></trkpt><trkpt lat="42.4133494440054" lon="12.106620689370953"><ele>338.0</ele><time>2026-04-28T12:51:31Z</time></trkpt><trkpt lat="42.41327144050477" lon="12.106523299708272"><ele>338.0</ele><time>2026-04-28T12:51:33Z</time></trkpt><trkpt lat="42.41320918167003" lon="12.106452658136611"><ele>338.0</ele><time>2026-04-28T12:51:35Z</time></trkpt><trkpt lat="42.41312067129293" lon="12.106389576526952"><ele>338.0</ele><time>2026-04-28T12:51:37Z</time></trkpt><trkpt lat="42.41304415662768" lon="12.106320343097913"><ele>337.0</ele><time>2026-04-28T12:51:39Z</time></trkpt><trkpt lat="42.412975543329026" lon="12.106263845285431"><ele>336.0</ele><time>2026-04-28T12:51:41Z</time></trkpt><trkpt lat="42.41291771344524" lon="12.106198193929837"><ele>335.0</ele><time>2026-04-28T12:51:43Z</time></trkpt><trkpt lat="42.4128571639117" lon="12.106167972429626"><ele>334.0</ele><time>2026-04-28T12:51:45Z</time></trkpt><trkpt lat="42.41280171908499" lon="12.106098112483666"><ele>333.0</ele><time>2026-04-28T12:51:49Z</time></trkpt><trkpt lat="42.4128938948876" lon="12.106040641986699"><ele>332.0</ele><time>2026-04-28T12:51:50Z</time></trkpt><trkpt lat="42.4129480185923" lon="12.10594834980107"><ele>332.1666666666667</ele><time>2026-04-28T12:51:52Z</time></trkpt><trkpt lat="42.413022019071214" lon="12.1058735312773"><ele>332.33333333333337</ele><time>2026-04-28T12:51:54Z</time></trkpt><trkpt lat="42.41309250118843" lon="12.10578745524475"><ele>332.5</ele><time>2026-04-28T12:51:56Z</time></trkpt><trkpt lat="42.413143713626134" lon="12.105719083911357"><ele>332.6666666666667</ele><time>2026-04-28T12:51:58Z</time></trkpt><trkpt lat="42.41322028184976" lon="12.105656752000403"><ele>332.8333333333333</ele><time>2026-04-28T12:52:01Z</time></trkpt><trkpt lat="42.41328756498817" lon="12.105675148432637"><ele>333.0</ele><time>2026-04-28T12:52:03Z</time></trkpt><trkpt lat="42.41335205047219" lon="12.105691765839348"><ele>332.3333333333333</ele><time>2026-04-28T12:52:05Z</time></trkpt><trkpt lat="42.41343157756272" lon="12.105703214701315"><ele>331.6666666666667</ele><time>2026-04-28T12:52:07Z</time></trkpt><trkpt lat="42.41353642666991" lon="12.105704110386666"><ele>331.0</ele><time>2026-04-28T12:52:09Z</time></trkpt><trkpt lat="42.413624468034705" lon="12.105704114256175"><ele>330.33333333333337</ele><time>2026-04-28T12:52:11Z</time></trkpt><trkpt lat="42.41370128445131" lon="12.105644168642526"><ele>329.6666666666667</ele><time>2026-04-28T12:53:50Z</time></trkpt><trkpt lat="42.413757860684846" lon="12.105606012483419"><ele>329.0</ele><time>2026-04-28T12:54:22Z</time></trkpt><trkpt lat="42.41370042745229" lon="12.105650144006654"><ele>329.0</ele><time>2026-04-28T12:54:35Z</time></trkpt><trkpt lat="42.41373166033467" lon="12.105575453738217"><ele>329.0</ele><time>2026-04-28T12:54:51Z</time></trkpt><trkpt lat="42.4136696345185" lon="12.105642359459885"><ele>329.0</ele><time>2026-04-28T12:57:23Z</time></trkpt><trkpt lat="42.41354081399707" lon="12.105646645441164"><ele>329.0</ele><time>2026-04-28T12:58:45Z</time></trkpt><trkpt lat="42.4134752854096" lon="12.105670394193014"><ele>329.0</ele><time>2026-04-28T12:58:56Z</time></trkpt><trkpt lat="42.4135983202224" lon="12.105666065363385"><ele>329.0</ele><time>2026-04-28T12:59:48Z</time></trkpt><trkpt lat="42.41367863017706" lon="12.105607109433684"><ele>329.0</ele><time>2026-04-28T12:59:50Z</time></trkpt><trkpt lat="42.41373953418958" lon="12.105630267467552"><ele>329.0</ele><time>2026-04-28T13:00:14Z</time></trkpt><trkpt lat="42.41372136824693" lon="12.10572221663912"><ele>329.0</ele><time>2026-04-28T13:00:16Z</time></trkpt><trkpt lat="42.41369180584028" lon="12.105820794618293"><ele>329.0</ele><time>2026-04-28T13:00:18Z</time></trkpt><trkpt lat="42.41368556498326" lon="12.105928067829076"><ele>329.0</ele><time>2026-04-28T13:00:20Z</time></trkpt><trkpt lat="42.41371527920067" lon="12.106035954897708"><ele>329.57142857142856</ele><time>2026-04-28T13:00:22Z</time></trkpt><trkpt lat="42.413710657701316" lon="12.105932120122699"><ele>330.1428571428571</ele><time>2026-04-28T13:00:23Z</time></trkpt><trkpt lat="42.413761175856685" lon="12.105991088884931"><ele>330.7142857142857</ele><time>2026-04-28T13:00:31Z</time></trkpt><trkpt lat="42.41382828891514" lon="12.106001804223377"><ele>331.2857142857143</ele><time>2026-04-28T13:00:39Z</time></trkpt><trkpt lat="42.41379926456095" lon="12.105917237613706"><ele>331.85714285714283</ele><time>2026-04-28T13:00:49Z</time></trkpt><trkpt lat="42.41386211732491" lon="12.105873539963664"><ele>332.42857142857144</ele><time>2026-04-28T13:01:02Z</time></trkpt><trkpt lat="42.413898557731585" lon="12.105792680054739"><ele>333.0</ele><time>2026-04-28T13:01:08Z</time></trkpt><trkpt lat="42.4138394237372" lon="12.105837156656408"><ele>333.0</ele><time>2026-04-28T13:01:20Z</time></trkpt><trkpt lat="42.41381919738489" lon="12.105948490252114"><ele>333.0</ele><time>2026-04-28T13:03:15Z</time></trkpt><trkpt lat="42.4137523527809" lon="12.105993257960149"><ele>333.0</ele><time>2026-04-28T13:03:28Z</time></trkpt><trkpt lat="42.41370040760649" lon="12.106057790171459"><ele>333.0</ele><time>2026-04-28T13:09:54Z</time></trkpt><trkpt lat="42.4136865745657" lon="12.10615939961192"><ele>333.0</ele><time>2026-04-28T13:09:57Z</time></trkpt><trkpt lat="42.41367406153376" lon="12.10630026241713"><ele>333.0</ele><time>2026-04-28T13:09:59Z</time></trkpt><trkpt lat="42.41365628362085" lon="12.106449627068228"><ele>333.0</ele><time>2026-04-28T13:10:01Z</time></trkpt><trkpt lat="42.41360970714136" lon="12.106570118134487"><ele>333.0</ele><time>2026-04-28T13:10:03Z</time></trkpt><trkpt lat="42.41355666465507" lon="12.106717496735323"><ele>333.0</ele><time>2026-04-28T13:10:05Z</time></trkpt><trkpt lat="42.41351422209573" lon="12.106782055685102"><ele>333.0</ele><time>2026-04-28T13:10:06Z</time></trkpt><trkpt lat="42.41346700703604" lon="12.106856702473952"><ele>333.0</ele><time>2026-04-28T13:10:07Z</time></trkpt><trkpt lat="42.413392286604" lon="12.106973299458287"><ele>334.0</ele><time>2026-04-28T13:10:09Z</time></trkpt><trkpt lat="42.41331738843224" lon="12.10704513453606"><ele>335.0</ele><time>2026-04-28T13:10:11Z</time></trkpt><trkpt lat="42.41324569973782" lon="12.107056119129775"><ele>336.0</ele><time>2026-04-28T13:10:13Z</time></trkpt><trkpt lat="42.4131588527821" lon="12.107120341974282"><ele>337.0</ele><time>2026-04-28T13:10:15Z</time></trkpt><trkpt lat="42.41305147548941" lon="12.107198263616894"><ele>338.0</ele><time>2026-04-28T13:10:17Z</time></trkpt><trkpt lat="42.41299770317436" lon="12.107253756468797"><ele>338.2</ele><time>2026-04-28T13:10:18Z</time></trkpt><trkpt lat="42.41291209529207" lon="12.10738448314484"><ele>338.4</ele><time>2026-04-28T13:10:20Z</time></trkpt><trkpt lat="42.41282066103527" lon="12.107477336720738"><ele>338.59999999999997</ele><time>2026-04-28T13:10:22Z</time></trkpt><trkpt lat="42.41272668029629" lon="12.107525514021901"><ele>338.79999999999995</ele><time>2026-04-28T13:10:24Z</time></trkpt><trkpt lat="42.41265750168878" lon="12.10752005301854"><ele>339.0</ele><time>2026-04-28T13:10:25Z</time></trkpt><trkpt lat="42.41259634763003" lon="12.107553845882412"><ele>339.0</ele><time>2026-04-28T13:10:26Z</time></trkpt><trkpt lat="42.412489883818544" lon="12.10758878364235"><ele>339.0</ele><time>2026-04-28T13:10:28Z</time></trkpt><trkpt lat="42.4123978578788" lon="12.107577755796756"><ele>339.0</ele><time>2026-04-28T13:10:30Z</time></trkpt><trkpt lat="42.412298424720746" lon="12.107516873972408"><ele>339.0</ele><time>2026-04-28T13:10:32Z</time></trkpt><trkpt lat="42.41222958720938" lon="12.10752216828492"><ele>339.0</ele><time>2026-04-28T13:10:33Z</time></trkpt><trkpt lat="42.41214827201578" lon="12.107512160218045"><ele>338.6666666666667</ele><time>2026-04-28T13:10:34Z</time></trkpt><trkpt lat="42.41205901613438" lon="12.107481689977131"><ele>338.3333333333333</ele><time>2026-04-28T13:10:35Z</time></trkpt><trkpt lat="42.41197243361693" lon="12.107468290424578"><ele>338.0</ele><time>2026-04-28T13:10:36Z</time></trkpt><trkpt lat="42.411904636709586" lon="12.107475286554381"><ele>337.66666666666663</ele><time>2026-04-28T13:10:37Z</time></trkpt><trkpt lat="42.411839439730855" lon="12.107485613436682"><ele>337.3333333333333</ele><time>2026-04-28T13:10:38Z</time></trkpt><trkpt lat="42.41173833997879" lon="12.107527178090182"><ele>337.0</ele><time>2026-04-28T13:10:40Z</time></trkpt><trkpt lat="42.41166815876097" lon="12.107538243828966"><ele>337.0</ele><time>2026-04-28T13:10:43Z</time></trkpt><trkpt lat="42.4116364424533" lon="12.107373875804079"><ele>337.0</ele><time>2026-04-28T13:10:45Z</time></trkpt><trkpt lat="42.41162384406661" lon="12.107274627565687"><ele>337.0</ele><time>2026-04-28T13:10:47Z</time></trkpt><trkpt lat="42.41161061247065" lon="12.107124193043136"><ele>337.0</ele><time>2026-04-28T13:10:55Z</time></trkpt><trkpt lat="42.41170006154188" lon="12.107134948682926"><ele>337.0</ele><time>2026-04-28T13:10:56Z</time></trkpt><trkpt lat="42.41180040210789" lon="12.107105224444846"><ele>337.0</ele><time>2026-04-28T13:10:58Z</time></trkpt><trkpt lat="42.41188731708543" lon="12.107075869164925"><ele>337.0</ele><time>2026-04-28T13:11:00Z</time></trkpt><trkpt lat="42.41197475330221" lon="12.10704256195185"><ele>337.0</ele><time>2026-04-28T13:11:03Z</time></trkpt><trkpt lat="42.41203649994314" lon="12.10700863237531"><ele>337.0</ele><time>2026-04-28T13:11:05Z</time></trkpt><trkpt lat="42.41209508874521" lon="12.106956555927406"><ele>337.0</ele><time>2026-04-28T13:11:07Z</time></trkpt><trkpt lat="42.41215999103194" lon="12.106911371129085"><ele>337.0</ele><time>2026-04-28T13:11:14Z</time></trkpt><trkpt lat="42.4119910436654" lon="12.107011781465207"><ele>337.0</ele><time>2026-04-28T13:11:23Z</time></trkpt><trkpt lat="42.41186897653107" lon="12.107054735368958"><ele>337.0</ele><time>2026-04-28T13:11:25Z</time></trkpt><trkpt lat="42.411800271761905" lon="12.107093190626435"><ele>337.0</ele><time>2026-04-28T13:11:26Z</time></trkpt><trkpt lat="42.41172766481467" lon="12.107141127840393"><ele>337.0</ele><time>2026-04-28T13:11:27Z</time></trkpt><trkpt lat="42.411661787372346" lon="12.10719569472502"><ele>337.0</ele><time>2026-04-28T13:11:28Z</time></trkpt><trkpt lat="42.411598560587244" lon="12.107236293265842"><ele>337.0</ele><time>2026-04-28T13:11:30Z</time></trkpt><trkpt lat="42.41155575695352" lon="12.10716423467393"><ele>337.0</ele><time>2026-04-28T13:11:33Z</time></trkpt><trkpt lat="42.41158993284235" lon="12.107062443167273"><ele>337.0</ele><time>2026-04-28T13:11:35Z</time></trkpt><trkpt lat="42.411654274974396" lon="12.10693753702915"><ele>337.0</ele><time>2026-04-28T13:11:37Z</time></trkpt><trkpt lat="42.41166357452512" lon="12.106773709499222"><ele>337.0</ele><time>2026-04-28T13:11:39Z</time></trkpt><trkpt lat="42.41165789874995" lon="12.106620474721007"><ele>337.0</ele><time>2026-04-28T13:11:41Z</time></trkpt><trkpt lat="42.41170682241601" lon="12.106504699774309"><ele>336.8333333333333</ele><time>2026-04-28T13:11:43Z</time></trkpt><trkpt lat="42.41175662001268" lon="12.106427026801729"><ele>336.66666666666663</ele><time>2026-04-28T13:11:44Z</time></trkpt><trkpt lat="42.411803261611965" lon="12.10634464259136"><ele>336.5</ele><time>2026-04-28T13:11:45Z</time></trkpt><trkpt lat="42.41184450495633" lon="12.106260339725528"><ele>336.3333333333333</ele><time>2026-04-28T13:11:46Z</time></trkpt><trkpt lat="42.41187814900984" lon="12.106168942987544"><ele>336.1666666666667</ele><time>2026-04-28T13:11:47Z</time></trkpt><trkpt lat="42.41191680156491" lon="12.106075739580069"><ele>336.0</ele><time>2026-04-28T13:11:48Z</time></trkpt><trkpt lat="42.41194733353234" lon="12.105983469440181"><ele>336.0</ele><time>2026-04-28T13:11:49Z</time></trkpt><trkpt lat="42.41201921886517" lon="12.1059206583251"><ele>336.0</ele><time>2026-04-28T13:11:50Z</time></trkpt><trkpt lat="42.412071557848385" lon="12.105850821901774"><ele>336.0</ele><time>2026-04-28T13:11:51Z</time></trkpt><trkpt lat="42.41212368302679" lon="12.105778844103577"><ele>336.0</ele><time>2026-04-28T13:11:52Z</time></trkpt><trkpt lat="42.41217399726415" lon="12.105711846697965"><ele>336.0</ele><time>2026-04-28T13:11:53Z</time></trkpt><trkpt lat="42.412226949944156" lon="12.105635534939431"><ele>336.0</ele><time>2026-04-28T13:11:54Z</time></trkpt><trkpt lat="42.41227279067694" lon="12.1055580725531"><ele>335.8</ele><time>2026-04-28T13:11:55Z</time></trkpt><trkpt lat="42.412331704775625" lon="12.105437914992626"><ele>335.6</ele><time>2026-04-28T13:11:57Z</time></trkpt><trkpt lat="42.41235080369955" lon="12.10535322013334"><ele>335.4</ele><time>2026-04-28T13:12:00Z</time></trkpt><trkpt lat="42.4122460611294" lon="12.10525803001073"><ele>335.2</ele><time>2026-04-28T13:12:02Z</time></trkpt><trkpt lat="42.412170423415716" lon="12.105177770401994"><ele>335.0</ele><time>2026-04-28T13:12:04Z</time></trkpt><trkpt lat="42.41215586940362" lon="12.105064398391534"><ele>335.0</ele><time>2026-04-28T13:12:06Z</time></trkpt><trkpt lat="42.412199870111984" lon="12.104950911763542"><ele>335.0</ele><time>2026-04-28T13:12:08Z</time></trkpt><trkpt lat="42.4122911332771" lon="12.10483159342094"><ele>335.0</ele><time>2026-04-28T13:12:10Z</time></trkpt><trkpt lat="42.41233525342145" lon="12.104764424457322"><ele>335.0</ele><time>2026-04-28T13:12:11Z</time></trkpt><trkpt lat="42.41238039417333" lon="12.104686157362524"><ele>335.0</ele><time>2026-04-28T13:12:12Z</time></trkpt><trkpt lat="42.41241686024768" lon="12.104603616617412"><ele>335.0</ele><time>2026-04-28T13:12:13Z</time></trkpt><trkpt lat="42.4124521322779" lon="12.104505702248227"><ele>335.1428571428571</ele><time>2026-04-28T13:12:14Z</time></trkpt><trkpt lat="42.41248608818361" lon="12.10441843845316"><ele>335.2857142857143</ele><time>2026-04-28T13:12:15Z</time></trkpt><trkpt lat="42.41251650492809" lon="12.104332251881411"><ele>335.42857142857144</ele><time>2026-04-28T13:12:16Z</time></trkpt><trkpt lat="42.41254022483393" lon="12.104240847562226"><ele>335.57142857142856</ele><time>2026-04-28T13:12:17Z</time></trkpt><trkpt lat="42.41256039879335" lon="12.104155755065092"><ele>335.7142857142857</ele><time>2026-04-28T13:12:18Z</time></trkpt><trkpt lat="42.41258210454135" lon="12.104066365774708"><ele>335.85714285714283</ele><time>2026-04-28T13:12:19Z</time></trkpt><trkpt lat="42.41260705047174" lon="12.103974139540842"><ele>336.0</ele><time>2026-04-28T13:12:20Z</time></trkpt><trkpt lat="42.412635142648575" lon="12.103892254029528"><ele>335.3333333333333</ele><time>2026-04-28T13:12:21Z</time></trkpt><trkpt lat="42.41267230462862" lon="12.103750839675417"><ele>334.6666666666667</ele><time>2026-04-28T13:12:23Z</time></trkpt><trkpt lat="42.41268837087228" lon="12.103643346472511"><ele>334.0</ele><time>2026-04-28T13:12:25Z</time></trkpt><trkpt lat="42.412699610019985" lon="12.103559447963976"><ele>333.33333333333337</ele><time>2026-04-28T13:12:28Z</time></trkpt><trkpt lat="42.412769650218415" lon="12.103512941219433"><ele>332.6666666666667</ele><time>2026-04-28T13:12:35Z</time></trkpt><trkpt lat="42.412844599272034" lon="12.103551924255395"><ele>332.0</ele><time>2026-04-28T13:12:37Z</time></trkpt><trkpt lat="42.41289533915023" lon="12.10360559303045"><ele>332.0</ele><time>2026-04-28T13:12:40Z</time></trkpt><trkpt lat="42.412927405888716" lon="12.103702316580016"><ele>332.0</ele><time>2026-04-28T13:12:43Z</time></trkpt><trkpt lat="42.41294217001339" lon="12.103787951945591"><ele>332.0</ele><time>2026-04-28T13:12:46Z</time></trkpt><trkpt lat="42.41338507681608" lon="12.104001934789341"><ele>330.6</ele><time>2026-04-28T13:13:01Z</time></trkpt><trkpt lat="42.41350600843879" lon="12.103962551126587"><ele>329.20000000000005</ele><time>2026-04-28T13:13:02Z</time></trkpt><trkpt lat="42.4135820603457" lon="12.103988930324789"><ele>327.8</ele><time>2026-04-28T13:13:04Z</time></trkpt><trkpt lat="42.41364955444631" lon="12.104011059238136"><ele>326.4</ele><time>2026-04-28T13:13:07Z</time></trkpt><trkpt lat="42.41369037322596" lon="12.103864995768332"><ele>325.0</ele><time>2026-04-28T13:13:10Z</time></trkpt><trkpt lat="42.41373138087112" lon="12.103737273656877"><ele>325.0</ele><time>2026-04-28T13:13:12Z</time></trkpt><trkpt lat="42.413777532762325" lon="12.103645770033106"><ele>325.0</ele><time>2026-04-28T13:13:14Z</time></trkpt><trkpt lat="42.41383969944701" lon="12.10357389447429"><ele>325.0</ele><time>2026-04-28T13:13:16Z</time></trkpt><trkpt lat="42.41391040003182" lon="12.103488660854946"><ele>325.0</ele><time>2026-04-28T13:13:18Z</time></trkpt><trkpt lat="42.4140004103379" lon="12.103424009904234"><ele>325.0</ele><time>2026-04-28T13:13:20Z</time></trkpt><trkpt lat="42.41408398796474" lon="12.103351544735466"><ele>324.66666666666663</ele><time>2026-04-28T13:13:22Z</time></trkpt><trkpt lat="42.41409811050057" lon="12.103247546537832"><ele>324.3333333333333</ele><time>2026-04-28T13:13:23Z</time></trkpt><trkpt lat="42.41415537775685" lon="12.103129359543207"><ele>324.0</ele><time>2026-04-28T13:13:25Z</time></trkpt><trkpt lat="42.414213643807464" lon="12.103015704404537"><ele>323.6666666666667</ele><time>2026-04-28T13:13:27Z</time></trkpt><trkpt lat="42.41426540935826" lon="12.102931512251939"><ele>323.33333333333337</ele><time>2026-04-28T13:13:29Z</time></trkpt><trkpt lat="42.41431801530882" lon="12.102853996961148"><ele>323.0</ele><time>2026-04-28T13:13:31Z</time></trkpt><trkpt lat="42.41438765003961" lon="12.102793338271786"><ele>323.0</ele><time>2026-04-28T13:13:33Z</time></trkpt><trkpt lat="42.414463132188175" lon="12.10278425998701"><ele>323.0</ele><time>2026-04-28T13:13:35Z</time></trkpt><trkpt lat="42.41451014575878" lon="12.102841134564375"><ele>323.0</ele><time>2026-04-28T13:13:36Z</time></trkpt><trkpt lat="42.41457482336308" lon="12.102855428781579"><ele>323.0</ele><time>2026-04-28T13:13:39Z</time></trkpt><trkpt lat="42.414598944961" lon="12.102735716157003"><ele>323.0</ele><time>2026-04-28T13:13:41Z</time></trkpt><trkpt lat="42.41470327326534" lon="12.1026343274144"><ele>323.0</ele><time>2026-04-28T13:13:44Z</time></trkpt><trkpt lat="42.414810930791774" lon="12.102690069646547"><ele>325.0</ele><time>2026-04-28T13:13:46Z</time></trkpt><trkpt lat="42.41491118014073" lon="12.102753384652875"><ele>327.0</ele><time>2026-04-28T13:13:48Z</time></trkpt><trkpt lat="42.41497143615472" lon="12.102800155046255"><ele>329.0</ele><time>2026-04-28T13:13:50Z</time></trkpt><trkpt lat="42.41487797035419" lon="12.102946913034307"><ele>331.0</ele><time>2026-04-28T13:13:53Z</time></trkpt><trkpt lat="42.4149501545924" lon="12.103047185483202"><ele>333.0</ele><time>2026-04-28T13:13:54Z</time></trkpt><trkpt lat="42.41499256238312" lon="12.103180521408541"><ele>334.0</ele><time>2026-04-28T13:13:56Z</time></trkpt><trkpt lat="42.41502419977714" lon="12.103259271387815"><ele>335.0</ele><time>2026-04-28T13:13:57Z</time></trkpt><trkpt lat="42.41505749742942" lon="12.10333689068307"><ele>336.0</ele><time>2026-04-28T13:13:58Z</time></trkpt><trkpt lat="42.41511323684273" lon="12.103448026187232"><ele>337.0</ele><time>2026-04-28T13:14:00Z</time></trkpt><trkpt lat="42.41513103879677" lon="12.103570797695848"><ele>338.0</ele><time>2026-04-28T13:14:02Z</time></trkpt><trkpt lat="42.41513784647211" lon="12.103710206843802"><ele>339.0</ele><time>2026-04-28T13:14:04Z</time></trkpt><trkpt lat="42.41510310216251" lon="12.103802894646043"><ele>339.0</ele><time>2026-04-28T13:14:05Z</time></trkpt><trkpt lat="42.41507392717332" lon="12.103910399166367"><ele>339.0</ele><time>2026-04-28T13:14:06Z</time></trkpt><trkpt lat="42.415048692064886" lon="12.104023028360894"><ele>339.0</ele><time>2026-04-28T13:14:07Z</time></trkpt><trkpt lat="42.41502822725032" lon="12.104141307473002"><ele>339.0</ele><time>2026-04-28T13:14:08Z</time></trkpt><trkpt lat="42.41500259316717" lon="12.104240697273756"><ele>339.0</ele><time>2026-04-28T13:14:09Z</time></trkpt><trkpt lat="42.41498765259536" lon="12.10434095164059"><ele>339.0</ele><time>2026-04-28T13:14:10Z</time></trkpt><trkpt lat="42.4149809126558" lon="12.104431556769091"><ele>339.2</ele><time>2026-04-28T13:14:11Z</time></trkpt><trkpt lat="42.4149715290685" lon="12.104572477226412"><ele>339.4</ele><time>2026-04-28T13:14:13Z</time></trkpt><trkpt lat="42.41508759244041" lon="12.104655722253368"><ele>339.6</ele><time>2026-04-28T13:14:17Z</time></trkpt><trkpt lat="42.41517586323517" lon="12.10472192197719"><ele>339.8</ele><time>2026-04-28T13:14:19Z</time></trkpt><trkpt lat="42.4152286115928" lon="12.104814550872918"><ele>340.0</ele><time>2026-04-28T13:14:21Z</time></trkpt><trkpt lat="42.41524241535191" lon="12.104898791357968"><ele>340.0</ele><time>2026-04-28T13:14:23Z</time></trkpt><trkpt lat="42.41529997280543" lon="12.104977824229522"><ele>340.0</ele><time>2026-04-28T13:15:09Z</time></trkpt><trkpt lat="42.415358539094186" lon="12.104921092531846"><ele>340.0</ele><time>2026-04-28T13:15:21Z</time></trkpt><trkpt lat="42.41531257780176" lon="12.104861078940356"><ele>340.0</ele><time>2026-04-28T13:15:34Z</time></trkpt><trkpt lat="42.415318012541825" lon="12.104950790948989"><ele>340.0</ele><time>2026-04-28T13:16:20Z</time></trkpt><trkpt lat="42.4153724814379" lon="12.105018022956868"><ele>340.0</ele><time>2026-04-28T13:19:23Z</time></trkpt><trkpt lat="42.41545903215854" lon="12.105103167014544"><ele>339.5</ele><time>2026-04-28T13:19:25Z</time></trkpt><trkpt lat="42.41552498921927" lon="12.105171103684942"><ele>339.0</ele><time>2026-04-28T13:19:28Z</time></trkpt><trkpt lat="42.41567471891091" lon="12.105042284599875"><ele>338.5</ele><time>2026-04-28T13:19:33Z</time></trkpt><trkpt lat="42.41574476407424" lon="12.10493989124553"><ele>338.0</ele><time>2026-04-28T13:19:35Z</time></trkpt><trkpt lat="42.41580241282743" lon="12.104845032555358"><ele>338.0</ele><time>2026-04-28T13:19:37Z</time></trkpt><trkpt lat="42.41585089880476" lon="12.104760748525301"><ele>338.0</ele><time>2026-04-28T13:19:40Z</time></trkpt><trkpt lat="42.41585266037762" lon="12.104671782950486"><ele>338.0</ele><time>2026-04-28T13:19:45Z</time></trkpt><trkpt lat="42.41577494967128" lon="12.104536707791747"><ele>338.0</ele><time>2026-04-28T13:19:54Z</time></trkpt><trkpt lat="42.415865239097904" lon="12.104578830685401"><ele>338.0</ele><time>2026-04-28T13:20:12Z</time></trkpt><trkpt lat="42.41593239366483" lon="12.104635647703589"><ele>338.0</ele><time>2026-04-28T13:20:14Z</time></trkpt><trkpt lat="42.4160112701995" lon="12.104709761405196"><ele>338.0</ele><time>2026-04-28T13:20:16Z</time></trkpt><trkpt lat="42.416101893253526" lon="12.104798768113008"><ele>338.0</ele><time>2026-04-28T13:20:18Z</time></trkpt><trkpt lat="42.416182424430716" lon="12.10491247785927"><ele>338.0</ele><time>2026-04-28T13:20:20Z</time></trkpt><trkpt lat="42.41624284953835" lon="12.104965266774746"><ele>338.0</ele><time>2026-04-28T13:20:22Z</time></trkpt><trkpt lat="42.416319482069326" lon="12.105002247567992"><ele>338.0</ele><time>2026-04-28T13:20:24Z</time></trkpt><trkpt lat="42.41641763233503" lon="12.105052368960289"><ele>337.33333333333337</ele><time>2026-04-28T13:20:26Z</time></trkpt><trkpt lat="42.41652425831872" lon="12.10508562680771"><ele>336.6666666666667</ele><time>2026-04-28T13:20:28Z</time></trkpt><trkpt lat="42.41661311457675" lon="12.105090768758396"><ele>336.0</ele><time>2026-04-28T13:20:30Z</time></trkpt><trkpt lat="42.41667478644791" lon="12.105123185634017"><ele>335.3333333333333</ele><time>2026-04-28T13:20:32Z</time></trkpt><trkpt lat="42.416750006807696" lon="12.105139302805132"><ele>334.66666666666663</ele><time>2026-04-28T13:20:37Z</time></trkpt><trkpt lat="42.41682703253943" lon="12.105143038838952"><ele>334.0</ele><time>2026-04-28T13:20:40Z</time></trkpt><trkpt lat="42.41689205743325" lon="12.105162635728561"><ele>334.0</ele><time>2026-04-28T13:20:44Z</time></trkpt><trkpt lat="42.41695941874639" lon="12.10520737534278"><ele>334.0</ele><time>2026-04-28T13:20:46Z</time></trkpt><trkpt lat="42.41702280679847" lon="12.105254145846716"><ele>334.0</ele><time>2026-04-28T13:20:48Z</time></trkpt><trkpt lat="42.41708221185798" lon="12.105303649798792"><ele>334.0</ele><time>2026-04-28T13:20:50Z</time></trkpt><trkpt lat="42.417162295809604" lon="12.10534952875959"><ele>334.0</ele><time>2026-04-28T13:20:53Z</time></trkpt><trkpt lat="42.41722859785726" lon="12.105403032802457"><ele>334.0</ele><time>2026-04-28T13:20:55Z</time></trkpt><trkpt lat="42.417303848478824" lon="12.10546210063313"><ele>334.0</ele><time>2026-04-28T13:20:57Z</time></trkpt><trkpt lat="42.41737655746436" lon="12.105536335963249"><ele>334.0</ele><time>2026-04-28T13:20:59Z</time></trkpt><trkpt lat="42.41742815650191" lon="12.105585201731603"><ele>334.0</ele><time>2026-04-28T13:21:00Z</time></trkpt><trkpt lat="42.41752284677491" lon="12.10567545405739"><ele>334.0</ele><time>2026-04-28T13:21:02Z</time></trkpt><trkpt lat="42.417588669376535" lon="12.105763954094384"><ele>334.0</ele><time>2026-04-28T13:21:04Z</time></trkpt><trkpt lat="42.41766790017601" lon="12.105818565785043"><ele>334.57142857142856</ele><time>2026-04-28T13:21:07Z</time></trkpt><trkpt lat="42.41771884280125" lon="12.105873035359718"><ele>335.14285714285717</ele><time>2026-04-28T13:21:13Z</time></trkpt><trkpt lat="42.41776418396597" lon="12.105936232711183"><ele>335.7142857142857</ele><time>2026-04-28T13:21:45Z</time></trkpt><trkpt lat="42.41781963228678" lon="12.1059933671657"><ele>336.2857142857143</ele><time>2026-04-28T13:21:53Z</time></trkpt><trkpt lat="42.417769246073725" lon="12.105941448765138"><ele>336.85714285714283</ele><time>2026-04-28T13:22:19Z</time></trkpt><trkpt lat="42.41774179440591" lon="12.106025255876686"><ele>337.42857142857144</ele><time>2026-04-28T13:23:09Z</time></trkpt><trkpt lat="42.41774049353006" lon="12.10615511590205"><ele>338.0</ele><time>2026-04-28T13:23:12Z</time></trkpt><trkpt lat="42.41778587998246" lon="12.106261695250174"><ele>338.0</ele><time>2026-04-28T13:23:15Z</time></trkpt><trkpt lat="42.417698289572336" lon="12.106219410012224"><ele>338.0</ele><time>2026-04-28T13:23:43Z</time></trkpt><trkpt lat="42.41764185494427" lon="12.10634048818034"><ele>338.0</ele><time>2026-04-28T13:23:45Z</time></trkpt><trkpt lat="42.41758236142284" lon="12.106458941620417"><ele>338.0</ele><time>2026-04-28T13:23:47Z</time></trkpt><trkpt lat="42.4175205786423" lon="12.106600913236905"><ele>338.0</ele><time>2026-04-28T13:23:49Z</time></trkpt><trkpt lat="42.41748780713019" lon="12.106676025770113"><ele>339.2</ele><time>2026-04-28T13:23:50Z</time></trkpt><trkpt lat="42.41743629089808" lon="12.10680508040731"><ele>340.4</ele><time>2026-04-28T13:23:52Z</time></trkpt><trkpt lat="42.417410917677635" lon="12.106892075541186"><ele>341.59999999999997</ele><time>2026-04-28T13:23:53Z</time></trkpt><trkpt lat="42.41735066367931" lon="12.107028819801835"><ele>342.79999999999995</ele><time>2026-04-28T13:23:55Z</time></trkpt><trkpt lat="42.41730244785451" lon="12.107085608823828"><ele>344.0</ele><time>2026-04-28T13:23:56Z</time></trkpt><trkpt lat="42.417206498336895" lon="12.107171842860508"><ele>344.6</ele><time>2026-04-28T13:23:58Z</time></trkpt><trkpt lat="42.41710608071478" lon="12.107272930477436"><ele>345.2</ele><time>2026-04-28T13:24:00Z</time></trkpt><trkpt lat="42.41706662820063" lon="12.107341729846032"><ele>345.8</ele><time>2026-04-28T13:24:01Z</time></trkpt><trkpt lat="42.417015823990155" lon="12.107396758153197"><ele>346.40000000000003</ele><time>2026-04-28T13:24:02Z</time></trkpt><trkpt lat="42.416965897671176" lon="12.107466085141642"><ele>347.0</ele><time>2026-04-28T13:24:03Z</time></trkpt><trkpt lat="42.41686735024994" lon="12.107576919596974"><ele>347.6666666666667</ele><time>2026-04-28T13:24:05Z</time></trkpt><trkpt lat="42.416810046674605" lon="12.107623234841212"><ele>348.33333333333337</ele><time>2026-04-28T13:24:06Z</time></trkpt><trkpt lat="42.416719132022365" lon="12.107704264361173"><ele>349.0</ele><time>2026-04-28T13:24:08Z</time></trkpt><trkpt lat="42.41666662134532" lon="12.107758516476169"><ele>349.6666666666667</ele><time>2026-04-28T13:24:09Z</time></trkpt><trkpt lat="42.41660653067424" lon="12.107813937945586"><ele>350.3333333333333</ele><time>2026-04-28T13:24:10Z</time></trkpt><trkpt lat="42.41655160386083" lon="12.1078850904441"><ele>351.0</ele><time>2026-04-28T13:24:11Z</time></trkpt><trkpt lat="42.416492832000294" lon="12.107947260238628"><ele>351.0</ele><time>2026-04-28T13:24:12Z</time></trkpt><trkpt lat="42.41641089634739" lon="12.108027264068157"><ele>351.0</ele><time>2026-04-28T13:24:14Z</time></trkpt><trkpt lat="42.41632843823903" lon="12.108082221935248"><ele>351.0</ele><time>2026-04-28T13:24:18Z</time></trkpt><trkpt lat="42.41623866672623" lon="12.108142763650545"><ele>351.0</ele><time>2026-04-28T13:24:20Z</time></trkpt><trkpt lat="42.416134849912" lon="12.10821125370138"><ele>351.0</ele><time>2026-04-28T13:24:22Z</time></trkpt><trkpt lat="42.41600135453819" lon="12.108191463714263"><ele>351.00000000000006</ele><time>2026-04-28T13:24:24Z</time></trkpt><trkpt lat="42.41593335793757" lon="12.108220954554218"><ele>351.0</ele><time>2026-04-28T13:24:25Z</time></trkpt><trkpt lat="42.41586999715522" lon="12.10823974303653"><ele>351.0</ele><time>2026-04-28T13:24:26Z</time></trkpt><trkpt lat="42.41580536168016" lon="12.108254577508374"><ele>351.0</ele><time>2026-04-28T13:24:27Z</time></trkpt><trkpt lat="42.41571692884026" lon="12.1082516923177"><ele>351.0</ele><time>2026-04-28T13:24:28Z</time></trkpt><trkpt lat="42.41565231546542" lon="12.108281240373891"><ele>351.00000000000006</ele><time>2026-04-28T13:24:29Z</time></trkpt><trkpt lat="42.41558820063921" lon="12.10829888406978"><ele>351.0</ele><time>2026-04-28T13:24:30Z</time></trkpt><trkpt lat="42.415486439558556" lon="12.108327855218967"><ele>351.6666666666667</ele><time>2026-04-28T13:24:32Z</time></trkpt><trkpt lat="42.415383335088855" lon="12.108354591195289"><ele>352.3333333333333</ele><time>2026-04-28T13:24:34Z</time></trkpt><trkpt lat="42.4153187839167" lon="12.10836571231058"><ele>353.0</ele><time>2026-04-28T13:24:35Z</time></trkpt><trkpt lat="42.41525454996621" lon="12.108384427022491"><ele>353.66666666666663</ele><time>2026-04-28T13:24:36Z</time></trkpt><trkpt lat="42.41519153851975" lon="12.108404506866234"><ele>354.3333333333333</ele><time>2026-04-28T13:24:37Z</time></trkpt><trkpt lat="42.41506934161899" lon="12.108430672627104"><ele>355.0</ele><time>2026-04-28T13:24:39Z</time></trkpt><trkpt lat="42.41495707983839" lon="12.108444124465263"><ele>355.0</ele><time>2026-04-28T13:24:41Z</time></trkpt><trkpt lat="42.414885118024856" lon="12.108439763527088"><ele>355.0</ele><time>2026-04-28T13:24:43Z</time></trkpt><trkpt lat="42.414819553952526" lon="12.108454552353429"><ele>355.0</ele><time>2026-04-28T13:24:47Z</time></trkpt><trkpt lat="42.41475079995116" lon="12.108440344182316"><ele>355.0</ele><time>2026-04-28T13:24:53Z</time></trkpt><trkpt lat="42.41468907251421" lon="12.10847236721747"><ele>355.0</ele><time>2026-04-28T13:24:57Z</time></trkpt><trkpt lat="42.41475307838694" lon="12.108477612914713"><ele>355.0</ele><time>2026-04-28T13:25:23Z</time></trkpt><trkpt lat="42.41477484434653" lon="12.10868010118525"><ele>355.0</ele><time>2026-04-28T13:25:33Z</time></trkpt><trkpt lat="42.41476831080784" lon="12.108771220532034"><ele>355.0</ele><time>2026-04-28T13:25:40Z</time></trkpt><trkpt lat="42.414759543921534" lon="12.108869204366345"><ele>355.0</ele><time>2026-04-28T13:25:46Z</time></trkpt><trkpt lat="42.41476348455081" lon="12.108967920111198"><ele>355.0</ele><time>2026-04-28T13:25:53Z</time></trkpt><trkpt lat="42.41478670061034" lon="12.109052039341211"><ele>355.0</ele><time>2026-04-28T13:26:02Z</time></trkpt><trkpt lat="42.41479173485324" lon="12.10914174883681"><ele>355.0</ele><time>2026-04-28T13:26:07Z</time></trkpt><trkpt lat="42.41476389526186" lon="12.109242303225248"><ele>355.0</ele><time>2026-04-28T13:26:13Z</time></trkpt><trkpt lat="42.41475790883433" lon="12.10933711355852"><ele>355.5</ele><time>2026-04-28T13:26:20Z</time></trkpt><trkpt lat="42.4148022183254" lon="12.109404384499529"><ele>356.0</ele><time>2026-04-28T13:26:32Z</time></trkpt><trkpt lat="42.414736562291885" lon="12.109499948459714"><ele>356.5</ele><time>2026-04-28T13:28:38Z</time></trkpt><trkpt lat="42.41472206681347" lon="12.109402433805867"><ele>357.0</ele><time>2026-04-28T13:28:52Z</time></trkpt><trkpt lat="42.41472130785764" lon="12.109290870775085"><ele>357.5</ele><time>2026-04-28T13:28:58Z</time></trkpt><trkpt lat="42.414731814008434" lon="12.109194261565484"><ele>358.0</ele><time>2026-04-28T13:29:07Z</time></trkpt><trkpt lat="42.41477587566841" lon="12.109117252401647"><ele>358.00000000000006</ele><time>2026-04-28T13:29:13Z</time></trkpt><trkpt lat="42.414775214605164" lon="12.109013534723056"><ele>358.0</ele><time>2026-04-28T13:29:20Z</time></trkpt><trkpt lat="42.41479492788291" lon="12.108921290730402"><ele>358.0</ele><time>2026-04-28T13:29:26Z</time></trkpt><trkpt lat="42.41476214718034" lon="12.109011844497553"><ele>358.0</ele><time>2026-04-28T13:29:36Z</time></trkpt><trkpt lat="42.41476121909816" lon="12.109115841061024"><ele>358.0</ele><time>2026-04-28T13:29:46Z</time></trkpt><trkpt lat="42.41473387430957" lon="12.109208921219352"><ele>358.00000000000006</ele><time>2026-04-28T13:29:51Z</time></trkpt><trkpt lat="42.41469636220556" lon="12.109284872628761"><ele>358.0</ele><time>2026-04-28T13:29:58Z</time></trkpt><trkpt lat="42.4147289586697" lon="12.109200980577675"><ele>358.00000000000006</ele><time>2026-04-28T13:31:14Z</time></trkpt><trkpt lat="42.41476209245533" lon="12.109112283988239"><ele>358.0</ele><time>2026-04-28T13:31:20Z</time></trkpt><trkpt lat="42.41476838612781" lon="12.109026356680948"><ele>358.0</ele><time>2026-04-28T13:31:25Z</time></trkpt><trkpt lat="42.414793032889776" lon="12.108945204734512"><ele>358.0</ele><time>2026-04-28T13:31:30Z</time></trkpt><trkpt lat="42.41480185422008" lon="12.108845361694081"><ele>358.0</ele><time>2026-04-28T13:31:36Z</time></trkpt><trkpt lat="42.414802791931166" lon="12.108744530772999"><ele>358.00000000000006</ele><time>2026-04-28T13:31:41Z</time></trkpt><trkpt lat="42.41481078061387" lon="12.108657337447442"><ele>358.0</ele><time>2026-04-28T13:31:47Z</time></trkpt><trkpt lat="42.4148294714561" lon="12.108566132557186"><ele>357.4</ele><time>2026-04-28T13:31:53Z</time></trkpt><trkpt lat="42.41476563582747" lon="12.108514095183976"><ele>356.79999999999995</ele><time>2026-04-28T13:32:03Z</time></trkpt><trkpt lat="42.41466605368718" lon="12.108475000182908"><ele>356.2</ele><time>2026-04-28T13:36:11Z</time></trkpt><trkpt lat="42.41474615473389" lon="12.108422994834575"><ele>355.6</ele><time>2026-04-28T13:36:38.999Z</time></trkpt><trkpt lat="42.41480206338641" lon="12.108299673806028"><ele>355.0</ele><time>2026-04-28T13:36:41.999Z</time></trkpt><trkpt lat="42.41482019374499" lon="12.108147746071573"><ele>353.8</ele><time>2026-04-28T13:36:43.999Z</time></trkpt><trkpt lat="42.414835078244316" lon="12.107981512968868"><ele>352.6</ele><time>2026-04-28T13:36:45.999Z</time></trkpt><trkpt lat="42.414852864635684" lon="12.107896945047615"><ele>351.4</ele><time>2026-04-28T13:36:46.999Z</time></trkpt><trkpt lat="42.414883551284326" lon="12.107759348885889"><ele>350.2</ele><time>2026-04-28T13:36:48.999Z</time></trkpt><trkpt lat="42.414928981763985" lon="12.107619718965216"><ele>349.0</ele><time>2026-04-28T13:36:50.999Z</time></trkpt><trkpt lat="42.41495750905689" lon="12.107525189839597"><ele>348.66666666666663</ele><time>2026-04-28T13:36:51.999Z</time></trkpt><trkpt lat="42.41504019590625" lon="12.107392608132912"><ele>348.3333333333333</ele><time>2026-04-28T13:36:53.999Z</time></trkpt><trkpt lat="42.415084281602915" lon="12.10732359897828"><ele>348.0</ele><time>2026-04-28T13:36:54.999Z</time></trkpt><trkpt lat="42.41512930002091" lon="12.10725570516437"><ele>347.6666666666667</ele><time>2026-04-28T13:36:55.999Z</time></trkpt><trkpt lat="42.41518078625924" lon="12.107185781076343"><ele>347.33333333333337</ele><time>2026-04-28T13:36:56.999Z</time></trkpt><trkpt lat="42.415231692164376" lon="12.107115871555031"><ele>347.0</ele><time>2026-04-28T13:36:57.999Z</time></trkpt><trkpt lat="42.41529900892942" lon="12.107064772115548"><ele>347.0</ele><time>2026-04-28T13:36:59Z</time></trkpt><trkpt lat="42.41535147518675" lon="12.107005591620789"><ele>347.0</ele><time>2026-04-28T13:37:00Z</time></trkpt><trkpt lat="42.41539991267756" lon="12.106941410419724"><ele>347.0</ele><time>2026-04-28T13:37:01Z</time></trkpt><trkpt lat="42.41545184372878" lon="12.106885370269106"><ele>347.0</ele><time>2026-04-28T13:37:02Z</time></trkpt><trkpt lat="42.41548539451564" lon="12.10679971801327"><ele>347.0</ele><time>2026-04-28T13:37:03Z</time></trkpt><trkpt lat="42.41553315404418" lon="12.106740089508941"><ele>347.0</ele><time>2026-04-28T13:37:04Z</time></trkpt><trkpt lat="42.41560231593477" lon="12.106653106066451"><ele>347.0</ele><time>2026-04-28T13:37:06Z</time></trkpt><trkpt lat="42.415673301185926" lon="12.106562915154129"><ele>345.8</ele><time>2026-04-28T13:37:09Z</time></trkpt><trkpt lat="42.41575072629405" lon="12.106494039588567"><ele>344.6</ele><time>2026-04-28T13:37:11Z</time></trkpt><trkpt lat="42.41582670611863" lon="12.106395423390152"><ele>343.40000000000003</ele><time>2026-04-28T13:37:13Z</time></trkpt><trkpt lat="42.41590149061262" lon="12.106309082930474"><ele>342.20000000000005</ele><time>2026-04-28T13:37:15Z</time></trkpt><trkpt lat="42.41595769957138" lon="12.106212080585905"><ele>341.0</ele><time>2026-04-28T13:37:17Z</time></trkpt><trkpt lat="42.41603541411464" lon="12.106136009709859"><ele>341.0</ele><time>2026-04-28T13:37:19Z</time></trkpt><trkpt lat="42.41610274247123" lon="12.106046077152143"><ele>341.0</ele><time>2026-04-28T13:37:21Z</time></trkpt><trkpt lat="42.416165936942434" lon="12.105954097449798"><ele>341.0</ele><time>2026-04-28T13:37:23Z</time></trkpt><trkpt lat="42.41623921353351" lon="12.105885724213106"><ele>341.0</ele><time>2026-04-28T13:37:25Z</time></trkpt><trkpt lat="42.41629208540307" lon="12.105799152304847"><ele>341.0</ele><time>2026-04-28T13:37:27Z</time></trkpt><trkpt lat="42.41635592641163" lon="12.105720292656493"><ele>341.0</ele><time>2026-04-28T13:37:29Z</time></trkpt><trkpt lat="42.41642248211928" lon="12.105659166098185"><ele>339.83333333333337</ele><time>2026-04-28T13:37:31Z</time></trkpt><trkpt lat="42.4164737278508" lon="12.10558382739359"><ele>338.6666666666667</ele><time>2026-04-28T13:37:33Z</time></trkpt><trkpt lat="42.41653239435088" lon="12.105511730777064"><ele>337.5</ele><time>2026-04-28T13:37:35Z</time></trkpt><trkpt lat="42.416583577053196" lon="12.105459686679293"><ele>336.3333333333333</ele><time>2026-04-28T13:37:37Z</time></trkpt><trkpt lat="42.41662749898499" lon="12.105380006005944"><ele>335.16666666666663</ele><time>2026-04-28T13:37:56Z</time></trkpt><trkpt lat="42.41670026241721" lon="12.10528713258254"><ele>334.0</ele><time>2026-04-28T13:37:59Z</time></trkpt><trkpt lat="42.41675530806885" lon="12.105216873656953"><ele>334.0</ele><time>2026-04-28T13:38:01Z</time></trkpt><trkpt lat="42.41680408474288" lon="12.105154616667097"><ele>334.0</ele><time>2026-04-28T13:38:03Z</time></trkpt><trkpt lat="42.416854950314956" lon="12.105089695509838"><ele>334.0</ele><time>2026-04-28T13:38:05Z</time></trkpt><trkpt lat="42.41697525145138" lon="12.105097331214003"><ele>334.0</ele><time>2026-04-28T13:38:07Z</time></trkpt><trkpt lat="42.417057814172786" lon="12.105008061865473"><ele>334.0</ele><time>2026-04-28T13:38:09Z</time></trkpt><trkpt lat="42.41713282870501" lon="12.10492288451136"><ele>331.6</ele><time>2026-04-28T13:38:11Z</time></trkpt><trkpt lat="42.41722321115415" lon="12.10483416717428"><ele>329.2</ele><time>2026-04-28T13:38:13Z</time></trkpt><trkpt lat="42.417307038856116" lon="12.104710819774162"><ele>326.8</ele><time>2026-04-28T13:38:15Z</time></trkpt><trkpt lat="42.41743554045827" lon="12.104663139300696"><ele>324.40000000000003</ele><time>2026-04-28T13:38:17Z</time></trkpt><trkpt lat="42.41750850206007" lon="12.104643934349292"><ele>322.0</ele><time>2026-04-28T13:38:18Z</time></trkpt><trkpt lat="42.41758176316499" lon="12.104629811860592"><ele>322.0</ele><time>2026-04-28T13:38:19Z</time></trkpt><trkpt lat="42.417656965527996" lon="12.104607932691243"><ele>322.0</ele><time>2026-04-28T13:38:20Z</time></trkpt><trkpt lat="42.41774102610122" lon="12.104597891391379"><ele>322.0</ele><time>2026-04-28T13:38:21Z</time></trkpt><trkpt lat="42.417820683355814" lon="12.104585016124977"><ele>322.0</ele><time>2026-04-28T13:38:22Z</time></trkpt><trkpt lat="42.41789461806143" lon="12.104578272038795"><ele>322.0</ele><time>2026-04-28T13:38:23Z</time></trkpt><trkpt lat="42.417963407741226" lon="12.104558937560379"><ele>322.0</ele><time>2026-04-28T13:38:24Z</time></trkpt><trkpt lat="42.41803583971928" lon="12.104537699737195"><ele>322.16666666666663</ele><time>2026-04-28T13:38:25Z</time></trkpt><trkpt lat="42.41810635345057" lon="12.104520974854895"><ele>322.3333333333333</ele><time>2026-04-28T13:38:26Z</time></trkpt><trkpt lat="42.41817312641518" lon="12.104505665781085"><ele>322.5</ele><time>2026-04-28T13:38:27Z</time></trkpt><trkpt lat="42.41823805500407" lon="12.104492560187053"><ele>322.6666666666667</ele><time>2026-04-28T13:38:28Z</time></trkpt><trkpt lat="42.41835438447716" lon="12.104440817902564"><ele>322.83333333333337</ele><time>2026-04-28T13:38:30Z</time></trkpt><trkpt lat="42.418445834256225" lon="12.104357253024881"><ele>323.0</ele><time>2026-04-28T13:38:32Z</time></trkpt><trkpt lat="42.4184499348903" lon="12.104187189429112"><ele>323.0</ele><time>2026-04-28T13:38:34Z</time></trkpt><trkpt lat="42.4184066101833" lon="12.10411530971049"><ele>323.0</ele><time>2026-04-28T13:38:35Z</time></trkpt><trkpt lat="42.41835109990114" lon="12.103966627233566"><ele>323.0</ele><time>2026-04-28T13:38:37Z</time></trkpt><trkpt lat="42.41834836329201" lon="12.103837537894085"><ele>323.0</ele><time>2026-04-28T13:38:39Z</time></trkpt><trkpt lat="42.418381157618576" lon="12.103755414021622"><ele>323.0</ele><time>2026-04-28T13:38:41Z</time></trkpt><trkpt lat="42.418440094069574" lon="12.103706422447564"><ele>323.0</ele><time>2026-04-28T13:38:44Z</time></trkpt><trkpt lat="42.418473385547" lon="12.10363197897744"><ele>322.6666666666667</ele><time>2026-04-28T13:38:46Z</time></trkpt><trkpt lat="42.4184414371693" lon="12.103518931244931"><ele>322.33333333333337</ele><time>2026-04-28T13:38:47Z</time></trkpt><trkpt lat="42.418386204116764" lon="12.103368374964631"><ele>322.0</ele><time>2026-04-28T13:38:49Z</time></trkpt><trkpt lat="42.4183542496554" lon="12.103274954068237"><ele>321.6666666666667</ele><time>2026-04-28T13:38:50Z</time></trkpt><trkpt lat="42.41831013289704" lon="12.103194860378583"><ele>321.3333333333333</ele><time>2026-04-28T13:38:51Z</time></trkpt><trkpt lat="42.418289559223275" lon="12.103111607801369"><ele>321.0</ele><time>2026-04-28T13:38:52Z</time></trkpt><trkpt lat="42.418258510896926" lon="12.103027228053334"><ele>321.57142857142856</ele><time>2026-04-28T13:38:53Z</time></trkpt><trkpt lat="42.41822681313172" lon="12.102937905610442"><ele>322.1428571428571</ele><time>2026-04-28T13:38:54Z</time></trkpt><trkpt lat="42.41819999863328" lon="12.102851275593665"><ele>322.71428571428567</ele><time>2026-04-28T13:38:55Z</time></trkpt><trkpt lat="42.41817418899297" lon="12.102771935033761"><ele>323.2857142857143</ele><time>2026-04-28T13:38:56Z</time></trkpt><trkpt lat="42.41816612065858" lon="12.102682566752812"><ele>323.8571428571429</ele><time>2026-04-28T13:38:57Z</time></trkpt><trkpt lat="42.418128142808335" lon="12.10259273877309"><ele>324.4285714285714</ele><time>2026-04-28T13:38:58Z</time></trkpt><trkpt lat="42.4181104765685" lon="12.102490927840316"><ele>325.0</ele><time>2026-04-28T13:38:59Z</time></trkpt><trkpt lat="42.41808791362051" lon="12.102388347674205"><ele>325.16666666666663</ele><time>2026-04-28T13:39:00Z</time></trkpt><trkpt lat="42.41806261957835" lon="12.102281661386574"><ele>325.3333333333333</ele><time>2026-04-28T13:39:01Z</time></trkpt><trkpt lat="42.41803899492213" lon="12.10218450689209"><ele>325.5</ele><time>2026-04-28T13:39:02Z</time></trkpt><trkpt lat="42.41801669165665" lon="12.10208688260364"><ele>325.6666666666667</ele><time>2026-04-28T13:39:03Z</time></trkpt><trkpt lat="42.41799428358819" lon="12.101989175000822"><ele>325.83333333333337</ele><time>2026-04-28T13:39:04Z</time></trkpt><trkpt lat="42.41797149864772" lon="12.10189870622576"><ele>326.0</ele><time>2026-04-28T13:39:05Z</time></trkpt><trkpt lat="42.41791701213268" lon="12.10175381682348"><ele>322.75</ele><time>2026-04-28T13:39:07Z</time></trkpt><trkpt lat="42.41788295303186" lon="12.101620159988489"><ele>319.5</ele><time>2026-04-28T13:39:09Z</time></trkpt><trkpt lat="42.417737744698705" lon="12.10163455859371"><ele>316.25</ele><time>2026-04-28T13:39:11Z</time></trkpt><trkpt lat="42.4176395939801" lon="12.10174852851965"><ele>313.0</ele><time>2026-04-28T13:39:13Z</time></trkpt><trkpt lat="42.417600076586695" lon="12.10184369360361"><ele>313.0</ele><time>2026-04-28T13:39:14Z</time></trkpt><trkpt lat="42.41755425528853" lon="12.101947474274999"><ele>313.0</ele><time>2026-04-28T13:39:15Z</time></trkpt><trkpt lat="42.417508265407285" lon="12.102058460848298"><ele>313.0</ele><time>2026-04-28T13:39:16Z</time></trkpt><trkpt lat="42.417467953979646" lon="12.102192283234587"><ele>313.0</ele><time>2026-04-28T13:39:17Z</time></trkpt><trkpt lat="42.417426641219265" lon="12.102327075852497"><ele>313.0</ele><time>2026-04-28T13:39:18Z</time></trkpt><trkpt lat="42.41739429361742" lon="12.102459124808568"><ele>312.4</ele><time>2026-04-28T13:39:19Z</time></trkpt><trkpt lat="42.417349595512384" lon="12.102575119210794"><ele>311.8</ele><time>2026-04-28T13:39:20Z</time></trkpt><trkpt lat="42.417324128961695" lon="12.102679586634894"><ele>311.2</ele><time>2026-04-28T13:39:21Z</time></trkpt><trkpt lat="42.41730203607921" lon="12.102771509481919"><ele>310.6</ele><time>2026-04-28T13:39:22Z</time></trkpt><trkpt lat="42.41725154171449" lon="12.102893334699216"><ele>310.0</ele><time>2026-04-28T13:39:24Z</time></trkpt><trkpt lat="42.41715009995802" lon="12.10294765467555"><ele>309.5</ele><time>2026-04-28T13:39:26Z</time></trkpt><trkpt lat="42.417082514536176" lon="12.102941193348"><ele>309.0</ele><time>2026-04-28T13:39:27Z</time></trkpt><trkpt lat="42.41701027186418" lon="12.102912252513827"><ele>308.5</ele><time>2026-04-28T13:39:28Z</time></trkpt><trkpt lat="42.416921289555525" lon="12.102876219672137"><ele>308.0</ele><time>2026-04-28T13:39:29Z</time></trkpt><trkpt lat="42.416842400415916" lon="12.102809606344685"><ele>307.5</ele><time>2026-04-28T13:39:30Z</time></trkpt><trkpt lat="42.416766491576624" lon="12.102732705857905"><ele>307.0</ele><time>2026-04-28T13:39:31Z</time></trkpt><trkpt lat="42.41669650207099" lon="12.102638923687453"><ele>307.0</ele><time>2026-04-28T13:39:32Z</time></trkpt><trkpt lat="42.416643373404696" lon="12.102531678866207"><ele>307.0</ele><time>2026-04-28T13:39:33Z</time></trkpt><trkpt lat="42.41660886048961" lon="12.102419933320384"><ele>307.0</ele><time>2026-04-28T13:39:34Z</time></trkpt><trkpt lat="42.41659443557179" lon="12.102303304446266"><ele>307.0</ele><time>2026-04-28T13:39:35Z</time></trkpt><trkpt lat="42.41660033691984" lon="12.102181789095553"><ele>307.0</ele><time>2026-04-28T13:39:36Z</time></trkpt><trkpt lat="42.41662290341379" lon="12.102051018741497"><ele>306.0</ele><time>2026-04-28T13:39:37Z</time></trkpt><trkpt lat="42.41665143233878" lon="12.101925317626096"><ele>305.0</ele><time>2026-04-28T13:39:38Z</time></trkpt><trkpt lat="42.41667651743079" lon="12.101801791782199"><ele>304.0</ele><time>2026-04-28T13:39:39Z</time></trkpt><trkpt lat="42.4166943761711" lon="12.101668228366053"><ele>303.0</ele><time>2026-04-28T13:39:40Z</time></trkpt><trkpt lat="42.41670338737892" lon="12.101529082291998"><ele>302.0</ele><time>2026-04-28T13:39:41Z</time></trkpt><trkpt lat="42.416695574191465" lon="12.101390746518906"><ele>302.0</ele><time>2026-04-28T13:39:42Z</time></trkpt><trkpt lat="42.41666774030369" lon="12.101255819614806"><ele>302.0</ele><time>2026-04-28T13:39:43Z</time></trkpt><trkpt lat="42.41662587614653" lon="12.101123417317382"><ele>302.0</ele><time>2026-04-28T13:39:44Z</time></trkpt><trkpt lat="42.41657426371631" lon="12.100986674166643"><ele>302.0</ele><time>2026-04-28T13:39:45Z</time></trkpt><trkpt lat="42.416521676677725" lon="12.100844991870739"><ele>302.0</ele><time>2026-04-28T13:39:46Z</time></trkpt><trkpt lat="42.41646588166396" lon="12.10070664029271"><ele>302.25</ele><time>2026-04-28T13:39:47Z</time></trkpt><trkpt lat="42.41641260173601" lon="12.100563197254383"><ele>302.5</ele><time>2026-04-28T13:39:48Z</time></trkpt><trkpt lat="42.41636476313698" lon="12.100418121619182"><ele>302.75</ele><time>2026-04-28T13:39:49Z</time></trkpt><trkpt lat="42.41631127988775" lon="12.100276455854017"><ele>303.0</ele><time>2026-04-28T13:39:50Z</time></trkpt><trkpt lat="42.416266267928705" lon="12.100137917068068"><ele>302.25</ele><time>2026-04-28T13:39:51Z</time></trkpt><trkpt lat="42.41621711799842" lon="12.100004885715856"><ele>301.5</ele><time>2026-04-28T13:39:52Z</time></trkpt><trkpt lat="42.41616685418962" lon="12.099870822757543"><ele>300.75</ele><time>2026-04-28T13:39:53Z</time></trkpt><trkpt lat="42.41611501934273" lon="12.099729889962894"><ele>300.0</ele><time>2026-04-28T13:39:54Z</time></trkpt><trkpt lat="42.41606254516167" lon="12.099589679590698"><ele>300.0</ele><time>2026-04-28T13:39:55Z</time></trkpt><trkpt lat="42.41601305709756" lon="12.099451090846683"><ele>300.0</ele><time>2026-04-28T13:39:56Z</time></trkpt><trkpt lat="42.41596151460449" lon="12.099316879765409"><ele>300.0</ele><time>2026-04-28T13:39:57Z</time></trkpt><trkpt lat="42.41590893933072" lon="12.099190407151626"><ele>300.0</ele><time>2026-04-28T13:39:58Z</time></trkpt><trkpt lat="42.41586017996379" lon="12.099069628455378"><ele>300.0</ele><time>2026-04-28T13:39:59Z</time></trkpt><trkpt lat="42.41581273253024" lon="12.098954776353716"><ele>299.5</ele><time>2026-04-28T13:40:00Z</time></trkpt><trkpt lat="42.41576395512114" lon="12.098842471053276"><ele>299.0</ele><time>2026-04-28T13:40:01Z</time></trkpt><trkpt lat="42.41572452422195" lon="12.09874278124201"><ele>298.5</ele><time>2026-04-28T13:40:02Z</time></trkpt><trkpt lat="42.41569034057754" lon="12.098655426378002"><ele>298.0</ele><time>2026-04-28T13:40:03Z</time></trkpt><trkpt lat="42.41565348423054" lon="12.098571156062517"><ele>297.5</ele><time>2026-04-28T13:40:04Z</time></trkpt><trkpt lat="42.415600113251756" lon="12.09846073276245"><ele>297.0</ele><time>2026-04-28T13:40:06Z</time></trkpt><trkpt lat="42.415569085970034" lon="12.098366003118329"><ele>297.0</ele><time>2026-04-28T13:40:08Z</time></trkpt><trkpt lat="42.415503562412574" lon="12.09825503093813"><ele>297.0</ele><time>2026-04-28T13:40:10Z</time></trkpt><trkpt lat="42.41551942947595" lon="12.098172428220689"><ele>297.0</ele><time>2026-04-28T13:40:13Z</time></trkpt><trkpt lat="42.41548657925495" lon="12.098082342429127"><ele>297.0</ele><time>2026-04-28T13:40:24Z</time></trkpt><trkpt lat="42.41544201061654" lon="12.097924879479482"><ele>297.0</ele><time>2026-04-28T13:40:26Z</time></trkpt><trkpt lat="42.41544438669834" lon="12.097820117739953"><ele>297.0</ele><time>2026-04-28T13:40:27Z</time></trkpt><trkpt lat="42.415464560045905" lon="12.097725492912655"><ele>296.6666666666667</ele><time>2026-04-28T13:40:28Z</time></trkpt><trkpt lat="42.41550508092017" lon="12.09763853111604"><ele>296.3333333333333</ele><time>2026-04-28T13:40:29Z</time></trkpt><trkpt lat="42.41556541836176" lon="12.097570131398719"><ele>296.0</ele><time>2026-04-28T13:40:30Z</time></trkpt><trkpt lat="42.41564080898469" lon="12.097520663417745"><ele>295.66666666666663</ele><time>2026-04-28T13:40:31Z</time></trkpt><trkpt lat="42.41572416958188" lon="12.097491248839274"><ele>295.3333333333333</ele><time>2026-04-28T13:40:32Z</time></trkpt><trkpt lat="42.415816459640766" lon="12.09747384428036"><ele>295.0</ele><time>2026-04-28T13:40:33Z</time></trkpt><trkpt lat="42.4159175965409" lon="12.097459165815888"><ele>295.0</ele><time>2026-04-28T13:40:34Z</time></trkpt><trkpt lat="42.416023889552136" lon="12.097441894662875"><ele>295.0</ele><time>2026-04-28T13:40:35Z</time></trkpt><trkpt lat="42.41613507639678" lon="12.09742971925895"><ele>295.0</ele><time>2026-04-28T13:40:36Z</time></trkpt><trkpt lat="42.41625169060443" lon="12.097419525990011"><ele>295.0</ele><time>2026-04-28T13:40:37Z</time></trkpt><trkpt lat="42.41637439299651" lon="12.097406852012428"><ele>299.25</ele><time>2026-04-28T13:40:38Z</time></trkpt><trkpt lat="42.41650156150222" lon="12.097397678272161"><ele>303.5</ele><time>2026-04-28T13:40:39Z</time></trkpt><trkpt lat="42.41662973329724" lon="12.097389542004096"><ele>307.75</ele><time>2026-04-28T13:40:40Z</time></trkpt><trkpt lat="42.416758097229675" lon="12.097380382709803"><ele>312.0</ele><time>2026-04-28T13:40:41Z</time></trkpt><trkpt lat="42.41688561097647" lon="12.097373857097713"><ele>312.0</ele><time>2026-04-28T13:40:42Z</time></trkpt><trkpt lat="42.41701323705584" lon="12.097366650746192"><ele>312.0</ele><time>2026-04-28T13:40:43Z</time></trkpt><trkpt lat="42.417141229580665" lon="12.097362090635864"><ele>312.0</ele><time>2026-04-28T13:40:44Z</time></trkpt><trkpt lat="42.41726822613646" lon="12.097356607125612"><ele>312.0</ele><time>2026-04-28T13:40:45Z</time></trkpt><trkpt lat="42.41739000025753" lon="12.097349495090569"><ele>313.25</ele><time>2026-04-28T13:40:46Z</time></trkpt><trkpt lat="42.4175112008529" lon="12.09734173525356"><ele>314.5</ele><time>2026-04-28T13:40:47Z</time></trkpt><trkpt lat="42.417628934808434" lon="12.097330577551986"><ele>315.75</ele><time>2026-04-28T13:40:48Z</time></trkpt><trkpt lat="42.417747112665445" lon="12.097321137769951"><ele>317.0</ele><time>2026-04-28T13:40:49Z</time></trkpt><trkpt lat="42.41785620851286" lon="12.097310838966338"><ele>317.0</ele><time>2026-04-28T13:40:50Z</time></trkpt><trkpt lat="42.41796237438515" lon="12.097285816958202"><ele>317.0</ele><time>2026-04-28T13:40:51Z</time></trkpt><trkpt lat="42.41805564693413" lon="12.09726322350786"><ele>317.0</ele><time>2026-04-28T13:40:52Z</time></trkpt><trkpt lat="42.41813178402906" lon="12.097239693454434"><ele>317.0</ele><time>2026-04-28T13:40:53Z</time></trkpt><trkpt lat="42.418234330335466" lon="12.097219940175842"><ele>317.0</ele><time>2026-04-28T13:40:55Z</time></trkpt><trkpt lat="42.4183085826555" lon="12.097458153368983"><ele>317.33333333333337</ele><time>2026-04-28T13:41:00Z</time></trkpt><trkpt lat="42.418300735078574" lon="12.097545603650275"><ele>317.6666666666667</ele><time>2026-04-28T13:41:01Z</time></trkpt><trkpt lat="42.418284527673784" lon="12.097643157566402"><ele>318.0</ele><time>2026-04-28T13:41:02Z</time></trkpt><trkpt lat="42.418261793946904" lon="12.097753002444982"><ele>318.3333333333333</ele><time>2026-04-28T13:41:03Z</time></trkpt><trkpt lat="42.418237849861924" lon="12.097867289669582"><ele>318.66666666666663</ele><time>2026-04-28T13:41:04Z</time></trkpt><trkpt lat="42.41822020915699" lon="12.097955138549535"><ele>319.0</ele><time>2026-04-28T13:41:05Z</time></trkpt><trkpt lat="42.418191536432545" lon="12.098072697905115"><ele>319.0</ele><time>2026-04-28T13:41:07Z</time></trkpt><trkpt lat="42.41821576305289" lon="12.098192453624392"><ele>319.0</ele><time>2026-04-28T13:41:09Z</time></trkpt><trkpt lat="42.41826353455231" lon="12.098261149073373"><ele>319.0</ele><time>2026-04-28T13:41:10Z</time></trkpt><trkpt lat="42.418314410026525" lon="12.09834055730701"><ele>319.0</ele><time>2026-04-28T13:41:11Z</time></trkpt><trkpt lat="42.41837152789316" lon="12.098431473666492"><ele>319.0</ele><time>2026-04-28T13:41:12Z</time></trkpt><trkpt lat="42.4184356003796" lon="12.098534190505989"><ele>319.0</ele><time>2026-04-28T13:41:13Z</time></trkpt><trkpt lat="42.4185016089055" lon="12.098641754431247"><ele>319.79999999999995</ele><time>2026-04-28T13:41:14Z</time></trkpt><trkpt lat="42.418567427060026" lon="12.098745269761434"><ele>320.59999999999997</ele><time>2026-04-28T13:41:15Z</time></trkpt><trkpt lat="42.41863003482831" lon="12.098842082819017"><ele>321.4</ele><time>2026-04-28T13:41:16Z</time></trkpt><trkpt lat="42.41869061389263" lon="12.098935610328942"><ele>322.2</ele><time>2026-04-28T13:41:17Z</time></trkpt><trkpt lat="42.41875282521703" lon="12.099029579804485"><ele>323.0</ele><time>2026-04-28T13:41:18Z</time></trkpt><trkpt lat="42.41881207856548" lon="12.099123928387298"><ele>324.2</ele><time>2026-04-28T13:41:19Z</time></trkpt><trkpt lat="42.418865609850684" lon="12.099220654701572"><ele>325.4</ele><time>2026-04-28T13:41:20Z</time></trkpt><trkpt lat="42.41891946392753" lon="12.099320581646396"><ele>326.59999999999997</ele><time>2026-04-28T13:41:21Z</time></trkpt><trkpt lat="42.41897419931049" lon="12.099419283837848"><ele>327.79999999999995</ele><time>2026-04-28T13:41:22Z</time></trkpt><trkpt lat="42.41903057620129" lon="12.099514400738402"><ele>329.0</ele><time>2026-04-28T13:41:23Z</time></trkpt><trkpt lat="42.41908917825164" lon="12.09960800731853"><ele>329.0</ele><time>2026-04-28T13:41:24Z</time></trkpt><trkpt lat="42.41914888456272" lon="12.09970080917201"><ele>329.0</ele><time>2026-04-28T13:41:25Z</time></trkpt><trkpt lat="42.41920273355278" lon="12.099785336260041"><ele>329.0</ele><time>2026-04-28T13:41:26Z</time></trkpt><trkpt lat="42.41924913288648" lon="12.09986227413435"><ele>329.0</ele><time>2026-04-28T13:41:27Z</time></trkpt><trkpt lat="42.419321728754525" lon="12.09998299523547"><ele>329.0</ele><time>2026-04-28T13:41:29Z</time></trkpt><trkpt lat="42.41937443177703" lon="12.100071223312748"><ele>329.0</ele><time>2026-04-28T13:41:31Z</time></trkpt><trkpt lat="42.41941095459084" lon="12.100157195357808"><ele>329.0</ele><time>2026-04-28T13:41:34Z</time></trkpt><trkpt lat="42.4194417534079" lon="12.100238513898228"><ele>329.0</ele><time>2026-04-28T13:48:38Z</time></trkpt><trkpt lat="42.41948452862397" lon="12.100309956263773"><ele>329.0</ele><time>2026-04-28T13:48:48Z</time></trkpt><trkpt lat="42.4194628028082" lon="12.10022248330418"><ele>329.0</ele><time>2026-04-28T13:49:10.999Z</time></trkpt><trkpt lat="42.419404013304806" lon="12.100178331671103"><ele>329.0</ele><time>2026-04-28T13:49:55.999Z</time></trkpt><trkpt lat="42.41928884781633" lon="12.100115889202248"><ele>329.0</ele><time>2026-04-28T13:57:52Z</time></trkpt><trkpt lat="42.41935371908828" lon="12.10017269752106"><ele>329.0</ele><time>2026-04-28T13:58:55.028Z</time></trkpt><trkpt lat="42.41927042025129" lon="12.099962769199584"><ele>329.0</ele><time>2026-04-28T14:01:29Z</time></trkpt><trkpt lat="42.419211432329746" lon="12.099877260763396"><ele>329.0</ele><time>2026-04-28T14:01:30Z</time></trkpt><trkpt lat="42.4191601953012" lon="12.099794111367391"><ele>329.0</ele><time>2026-04-28T14:01:31Z</time></trkpt><trkpt lat="42.41911269024028" lon="12.099709382284434"><ele>329.0</ele><time>2026-04-28T14:01:32Z</time></trkpt><trkpt lat="42.41906708137885" lon="12.09963073464646"><ele>329.0</ele><time>2026-04-28T14:01:33Z</time></trkpt><trkpt lat="42.419026021131565" lon="12.099561218850683"><ele>329.0</ele><time>2026-04-28T14:01:34Z</time></trkpt><trkpt lat="42.4189836942096" lon="12.099489888799852"><ele>329.0</ele><time>2026-04-28T14:01:35Z</time></trkpt><trkpt lat="42.4189369150189" lon="12.09939565220077"><ele>329.0</ele><time>2026-04-28T14:01:36Z</time></trkpt><trkpt lat="42.41887956017216" lon="12.09927725846801"><ele>329.0</ele><time>2026-04-28T14:01:37Z</time></trkpt><trkpt lat="42.4187984270094" lon="12.099143577455457"><ele>329.0</ele><time>2026-04-28T14:01:38Z</time></trkpt><trkpt lat="42.41870000750996" lon="12.09900185809707"><ele>327.5</ele><time>2026-04-28T14:01:39Z</time></trkpt><trkpt lat="42.41858986901486" lon="12.098837797807109"><ele>326.0</ele><time>2026-04-28T14:01:40Z</time></trkpt><trkpt lat="42.418484599475924" lon="12.09868204425171"><ele>324.5</ele><time>2026-04-28T14:01:41Z</time></trkpt><trkpt lat="42.41840914005726" lon="12.09854477754178"><ele>323.0</ele><time>2026-04-28T14:01:42Z</time></trkpt><trkpt lat="42.41835738112938" lon="12.098445618221412"><ele>323.0</ele><time>2026-04-28T14:01:43Z</time></trkpt><trkpt lat="42.418319397017285" lon="12.09836979819604"><ele>323.0</ele><time>2026-04-28T14:01:44Z</time></trkpt><trkpt lat="42.4182704897636" lon="12.098245136536038"><ele>323.0</ele><time>2026-04-28T14:01:46Z</time></trkpt><trkpt lat="42.418218245648596" lon="12.098193594485254"><ele>323.0</ele><time>2026-04-28T14:01:48Z</time></trkpt><trkpt lat="42.4182159082517" lon="12.098303216821916"><ele>323.0</ele><time>2026-04-28T14:01:51Z</time></trkpt><trkpt lat="42.4182833626656" lon="12.098358518907098"><ele>323.0</ele><time>2026-04-28T14:01:52Z</time></trkpt><trkpt lat="42.41835199434168" lon="12.098437467857183"><ele>323.0</ele><time>2026-04-28T14:01:53Z</time></trkpt><trkpt lat="42.41842021802883" lon="12.098553699714527"><ele>323.0</ele><time>2026-04-28T14:01:54Z</time></trkpt><trkpt lat="42.41851230332859" lon="12.098685100416713"><ele>323.0</ele><time>2026-04-28T14:01:55Z</time></trkpt><trkpt lat="42.41861847808793" lon="12.09883797518784"><ele>323.0</ele><time>2026-04-28T14:01:56Z</time></trkpt><trkpt lat="42.418728312187426" lon="12.099005224811629"><ele>325.0</ele><time>2026-04-28T14:01:57Z</time></trkpt><trkpt lat="42.41884117424599" lon="12.09920207390231"><ele>327.0</ele><time>2026-04-28T14:01:58Z</time></trkpt><trkpt lat="42.41893465974141" lon="12.099379566213743"><ele>329.0</ele><time>2026-04-28T14:01:59Z</time></trkpt><trkpt lat="42.419024826570805" lon="12.099529409336489"><ele>329.0</ele><time>2026-04-28T14:02:00Z</time></trkpt><trkpt lat="42.41910037874808" lon="12.099650706197728"><ele>329.0</ele><time>2026-04-28T14:02:01Z</time></trkpt><trkpt lat="42.41915396936881" lon="12.099737549612042"><ele>329.0</ele><time>2026-04-28T14:02:02Z</time></trkpt><trkpt lat="42.41921712821811" lon="12.099829118563356"><ele>329.0</ele><time>2026-04-28T14:02:04Z</time></trkpt><trkpt lat="42.419260430742604" lon="12.099915114244412"><ele>329.0</ele><time>2026-04-28T14:06:38.999Z</time></trkpt><trkpt lat="42.41932793883113" lon="12.100026297279944"><ele>329.0</ele><time>2026-04-28T14:06:40.999Z</time></trkpt><trkpt lat="42.419395659487144" lon="12.100123266519775"><ele>329.0</ele><time>2026-04-28T14:06:42.999Z</time></trkpt><trkpt lat="42.41943848188431" lon="12.100194872177106"><ele>329.0</ele><time>2026-04-28T14:06:44.999Z</time></trkpt><trkpt lat="42.419504179250964" lon="12.100326246377243"><ele>329.0</ele><time>2026-04-28T14:06:46.999Z</time></trkpt><trkpt lat="42.4195458444609" lon="12.100410509440827"><ele>329.0</ele><time>2026-04-28T14:06:47.999Z</time></trkpt><trkpt lat="42.419601030942175" lon="12.100500397021388"><ele>329.0</ele><time>2026-04-28T14:06:48.999Z</time></trkpt><trkpt lat="42.41966275481734" lon="12.10059111284235"><ele>329.4</ele><time>2026-04-28T14:06:49.999Z</time></trkpt><trkpt lat="42.41972143139341" lon="12.100721349486044"><ele>329.79999999999995</ele><time>2026-04-28T14:06:50.999Z</time></trkpt><trkpt lat="42.41978762145889" lon="12.100824529778766"><ele>330.20000000000005</ele><time>2026-04-28T14:06:51.999Z</time></trkpt><trkpt lat="42.41985272039332" lon="12.10093112228532"><ele>330.6</ele><time>2026-04-28T14:06:52.999Z</time></trkpt><trkpt lat="42.41991474426873" lon="12.101036986378524"><ele>331.0</ele><time>2026-04-28T14:06:53.999Z</time></trkpt><trkpt lat="42.41997484797134" lon="12.101136096327888"><ele>331.20000000000005</ele><time>2026-04-28T14:06:54.999Z</time></trkpt><trkpt lat="42.420039444803855" lon="12.101227835483593"><ele>331.40000000000003</ele><time>2026-04-28T14:06:55.999Z</time></trkpt><trkpt lat="42.42010059198766" lon="12.101326833823395"><ele>331.6</ele><time>2026-04-28T14:06:56.999Z</time></trkpt><trkpt lat="42.42015771203511" lon="12.10142821555362"><ele>331.8</ele><time>2026-04-28T14:06:57.999Z</time></trkpt><trkpt lat="42.420210313583446" lon="12.101541013532408"><ele>332.0</ele><time>2026-04-28T14:06:58.999Z</time></trkpt><trkpt lat="42.42026829139642" lon="12.101631295735245"><ele>332.1666666666667</ele><time>2026-04-28T14:06:59.999Z</time></trkpt><trkpt lat="42.42033689861136" lon="12.101703073486377"><ele>332.33333333333337</ele><time>2026-04-28T14:07:00.999Z</time></trkpt><trkpt lat="42.42040872265726" lon="12.101779637584563"><ele>332.5</ele><time>2026-04-28T14:07:01.999Z</time></trkpt><trkpt lat="42.42047675423608" lon="12.101862041431433"><ele>332.6666666666667</ele><time>2026-04-28T14:07:02.999Z</time></trkpt><trkpt lat="42.42054423810684" lon="12.101944908876424"><ele>332.8333333333333</ele><time>2026-04-28T14:07:03.999Z</time></trkpt><trkpt lat="42.42061183739308" lon="12.10202119784377"><ele>333.0</ele><time>2026-04-28T14:07:04.999Z</time></trkpt><trkpt lat="42.42067832929581" lon="12.102100996270366"><ele>333.0</ele><time>2026-04-28T14:07:05.999Z</time></trkpt><trkpt lat="42.420744244209416" lon="12.102176324683883"><ele>333.0</ele><time>2026-04-28T14:07:06.999Z</time></trkpt><trkpt lat="42.42080753009139" lon="12.10224776966277"><ele>333.0</ele><time>2026-04-28T14:07:07.999Z</time></trkpt><trkpt lat="42.420872615403916" lon="12.102322975939499"><ele>333.0</ele><time>2026-04-28T14:07:08.999Z</time></trkpt><trkpt lat="42.42093701100834" lon="12.102406468166789"><ele>333.0</ele><time>2026-04-28T14:07:09.999Z</time></trkpt><trkpt lat="42.42100669877735" lon="12.102496003060962"><ele>333.0</ele><time>2026-04-28T14:07:10.999Z</time></trkpt><trkpt lat="42.421079768719004" lon="12.102587780569818"><ele>333.75</ele><time>2026-04-28T14:07:11.999Z</time></trkpt><trkpt lat="42.42115856291548" lon="12.102680728621015"><ele>334.5</ele><time>2026-04-28T14:07:12.999Z</time></trkpt><trkpt lat="42.42124273763568" lon="12.102788676737296"><ele>335.25</ele><time>2026-04-28T14:07:13.999Z</time></trkpt><trkpt lat="42.42133078591489" lon="12.102896616494206"><ele>336.0</ele><time>2026-04-28T14:07:14.999Z</time></trkpt><trkpt lat="42.42142374730715" lon="12.103007409334753"><ele>336.25</ele><time>2026-04-28T14:07:15.999Z</time></trkpt><trkpt lat="42.42151977471221" lon="12.103122749360056"><ele>336.5</ele><time>2026-04-28T14:07:16.999Z</time></trkpt><trkpt lat="42.42161926746112" lon="12.103241276782745"><ele>336.75</ele><time>2026-04-28T14:07:17.999Z</time></trkpt><trkpt lat="42.42171547930063" lon="12.103371580956258"><ele>337.0</ele><time>2026-04-28T14:07:18.999Z</time></trkpt><trkpt lat="42.421814232232926" lon="12.103495961361974"><ele>337.0</ele><time>2026-04-28T14:07:19.999Z</time></trkpt><trkpt lat="42.421912158332916" lon="12.10361673874606"><ele>337.0</ele><time>2026-04-28T14:07:20.999Z</time></trkpt><trkpt lat="42.42201112974084" lon="12.103732607856346"><ele>337.0</ele><time>2026-04-28T14:07:21.999Z</time></trkpt><trkpt lat="42.42210429846263" lon="12.10384638205331"><ele>337.0</ele><time>2026-04-28T14:07:22.999Z</time></trkpt><trkpt lat="42.42218413479875" lon="12.103954053477299"><ele>337.5</ele><time>2026-04-28T14:07:23.999Z</time></trkpt><trkpt lat="42.422258581676864" lon="12.104048044558544"><ele>338.0</ele><time>2026-04-28T14:07:24.999Z</time></trkpt><trkpt lat="42.42232209219262" lon="12.104137404914068"><ele>338.5</ele><time>2026-04-28T14:07:25.999Z</time></trkpt><trkpt lat="42.42237745889065" lon="12.10422298632624"><ele>339.0</ele><time>2026-04-28T14:07:26.999Z</time></trkpt><trkpt lat="42.42242653662323" lon="12.104303135501635"><ele>339.5</ele><time>2026-04-28T14:07:27.999Z</time></trkpt><trkpt lat="42.42246692849359" lon="12.104384620664732"><ele>340.0</ele><time>2026-04-28T14:07:28.999Z</time></trkpt><trkpt lat="42.42249879212788" lon="12.10446772517761"><ele>340.16666666666663</ele><time>2026-04-28T14:07:29.999Z</time></trkpt><trkpt lat="42.42251683405206" lon="12.104554089704815"><ele>340.3333333333333</ele><time>2026-04-28T14:07:30.999Z</time></trkpt><trkpt lat="42.42252162831513" lon="12.104640411561146"><ele>340.5</ele><time>2026-04-28T14:07:31.999Z</time></trkpt><trkpt lat="42.42255081862718" lon="12.104773837119104"><ele>340.6666666666667</ele><time>2026-04-28T14:07:33.999Z</time></trkpt><trkpt lat="42.42246551289531" lon="12.104856632647314"><ele>340.83333333333337</ele><time>2026-04-28T14:07:34.999Z</time></trkpt><trkpt lat="42.422399580759894" lon="12.10494564600616"><ele>341.0</ele><time>2026-04-28T14:07:36.999Z</time></trkpt><trkpt lat="42.4223341404023" lon="12.10502197458539"><ele>341.4</ele><time>2026-04-28T14:07:38.999Z</time></trkpt><trkpt lat="42.4222354248245" lon="12.10509820864843"><ele>341.8</ele><time>2026-04-28T14:07:40.999Z</time></trkpt><trkpt lat="42.42217669767672" lon="12.105138608131824"><ele>342.2</ele><time>2026-04-28T14:07:41.999Z</time></trkpt><trkpt lat="42.42206397109373" lon="12.10516776755528"><ele>342.59999999999997</ele><time>2026-04-28T14:07:43.999Z</time></trkpt><trkpt lat="42.421950766841285" lon="12.105098848448288"><ele>343.0</ele><time>2026-04-28T14:07:45.999Z</time></trkpt><trkpt lat="42.42190621455815" lon="12.105020289233142"><ele>343.16666666666663</ele><time>2026-04-28T14:07:46.999Z</time></trkpt><trkpt lat="42.42184235167122" lon="12.104942685024211"><ele>343.3333333333333</ele><time>2026-04-28T14:07:47.999Z</time></trkpt><trkpt lat="42.421768077463895" lon="12.10486885460933"><ele>343.5</ele><time>2026-04-28T14:07:48.999Z</time></trkpt><trkpt lat="42.42170509501441" lon="12.104777130143352"><ele>343.6666666666667</ele><time>2026-04-28T14:07:49.999Z</time></trkpt><trkpt lat="42.4216388421676" lon="12.104697014861493"><ele>343.83333333333337</ele><time>2026-04-28T14:07:50.999Z</time></trkpt><trkpt lat="42.421574044866226" lon="12.10462290097611"><ele>344.0</ele><time>2026-04-28T14:07:51.999Z</time></trkpt><trkpt lat="42.421510480332216" lon="12.104546741509257"><ele>344.1666666666667</ele><time>2026-04-28T14:07:53Z</time></trkpt><trkpt lat="42.421447860381875" lon="12.104463136515259"><ele>344.33333333333337</ele><time>2026-04-28T14:07:54Z</time></trkpt><trkpt lat="42.42138921033286" lon="12.104385960662713"><ele>344.5</ele><time>2026-04-28T14:07:55Z</time></trkpt><trkpt lat="42.421334692938956" lon="12.104309849898367"><ele>344.6666666666667</ele><time>2026-04-28T14:07:56Z</time></trkpt><trkpt lat="42.42128445303927" lon="12.104237293662342"><ele>344.8333333333333</ele><time>2026-04-28T14:07:57Z</time></trkpt><trkpt lat="42.421225289948296" lon="12.104164364358052"><ele>345.0</ele><time>2026-04-28T14:07:58Z</time></trkpt><trkpt lat="42.4211561270727" lon="12.104094028906857"><ele>344.1666666666667</ele><time>2026-04-28T14:07:59Z</time></trkpt><trkpt lat="42.42108431713458" lon="12.104027411464845"><ele>343.3333333333333</ele><time>2026-04-28T14:08:00Z</time></trkpt><trkpt lat="42.42101355106779" lon="12.103972812903915"><ele>342.5</ele><time>2026-04-28T14:08:01Z</time></trkpt><trkpt lat="42.42094410511084" lon="12.103917146538706"><ele>341.66666666666663</ele><time>2026-04-28T14:08:02Z</time></trkpt><trkpt lat="42.420878999959" lon="12.103860609860725"><ele>340.8333333333333</ele><time>2026-04-28T14:08:03Z</time></trkpt><trkpt lat="42.420824915451924" lon="12.103805555166879"><ele>340.0</ele><time>2026-04-28T14:08:03.999Z</time></trkpt><trkpt lat="42.42073661243969" lon="12.103723762114951"><ele>340.0</ele><time>2026-04-28T14:08:05.999Z</time></trkpt><trkpt lat="42.420666666586456" lon="12.103682558237017"><ele>340.0</ele><time>2026-04-28T14:08:07.999Z</time></trkpt><trkpt lat="42.42060808747949" lon="12.103714748670855"><ele>340.0</ele><time>2026-04-28T14:08:10.999Z</time></trkpt><trkpt lat="42.42054804159757" lon="12.103753794157145"><ele>340.0</ele><time>2026-04-28T14:08:30.999Z</time></trkpt><trkpt lat="42.420513384239925" lon="12.103682001149831"><ele>340.0</ele><time>2026-04-28T14:08:35.999Z</time></trkpt><trkpt lat="42.42055011414858" lon="12.103607257764613"><ele>340.0</ele><time>2026-04-28T14:09:39Z</time></trkpt><trkpt lat="42.42054949011751" lon="12.10351150753372"><ele>340.0</ele><time>2026-04-28T14:09:47Z</time></trkpt><trkpt lat="42.4206025191515" lon="12.103562223275059"><ele>340.0</ele><time>2026-04-28T14:10:13.999Z</time></trkpt><trkpt lat="42.42059789639595" lon="12.103662367359313"><ele>340.0</ele><time>2026-04-28T14:10:31.999Z</time></trkpt><trkpt lat="42.420599704244594" lon="12.103748279475914"><ele>340.0</ele><time>2026-04-28T14:10:39.999Z</time></trkpt><trkpt lat="42.42054106719882" lon="12.103816010387899"><ele>340.0</ele><time>2026-04-28T14:15:33Z</time></trkpt><trkpt lat="42.4204722200441" lon="12.103791550359873"><ele>340.0</ele><time>2026-04-28T14:15:49Z</time></trkpt><trkpt lat="42.42040493276063" lon="12.103751470912751"><ele>340.0</ele><time>2026-04-28T14:16:17Z</time></trkpt><trkpt lat="42.420490835774096" lon="12.103745295207698"><ele>340.0</ele><time>2026-04-28T14:16:22Z</time></trkpt><trkpt lat="42.420558418618974" lon="12.103777070143533"><ele>340.0</ele><time>2026-04-28T14:17:07Z</time></trkpt><trkpt lat="42.4205036949119" lon="12.103844404305647"><ele>340.0</ele><time>2026-04-28T14:20:07.001Z</time></trkpt><trkpt lat="42.42043963217602" lon="12.103928890984214"><ele>340.0</ele><time>2026-04-28T14:20:10.001Z</time></trkpt><trkpt lat="42.42050709718707" lon="12.103941964907529"><ele>340.0</ele><time>2026-04-28T14:20:23.001Z</time></trkpt><trkpt lat="42.42053819423001" lon="12.103857158623764"><ele>340.0</ele><time>2026-04-28T14:20:25.001Z</time></trkpt><trkpt lat="42.42051369203085" lon="12.103751663174853"><ele>340.0</ele><time>2026-04-28T14:20:27.001Z</time></trkpt><trkpt lat="42.420425040274424" lon="12.103667793439595"><ele>340.2</ele><time>2026-04-28T14:20:29.001Z</time></trkpt><trkpt lat="42.420340350917606" lon="12.103574227885293"><ele>340.4</ele><time>2026-04-28T14:20:31.001Z</time></trkpt><trkpt lat="42.420277796038405" lon="12.10349870707177"><ele>340.6</ele><time>2026-04-28T14:20:33.002Z</time></trkpt><trkpt lat="42.42025570666872" lon="12.103412384912781"><ele>340.8</ele><time>2026-04-28T14:20:36.002Z</time></trkpt><trkpt lat="42.42021319350979" lon="12.10334746315228"><ele>341.0</ele><time>2026-04-28T14:20:39.002Z</time></trkpt><trkpt lat="42.42036438167006" lon="12.103388590973157"><ele>341.0</ele><time>2026-04-28T14:22:11.001Z</time></trkpt><trkpt lat="42.420374434473125" lon="12.103477145628354"><ele>341.0</ele><time>2026-04-28T14:22:29.002Z</time></trkpt><trkpt lat="42.42043304976543" lon="12.10352970272813"><ele>341.0</ele><time>2026-04-28T14:22:36.002Z</time></trkpt><trkpt lat="42.420365477394746" lon="12.103529766002229"><ele>341.0</ele><time>2026-04-28T14:23:14.001Z</time></trkpt><trkpt lat="42.42032636830787" lon="12.103458131658218"><ele>341.0</ele><time>2026-04-28T14:23:18.001Z</time></trkpt><trkpt lat="42.42026130278915" lon="12.10340628551067"><ele>341.0</ele><time>2026-04-28T14:23:26.001Z</time></trkpt><trkpt lat="42.42021061949425" lon="12.103340796129238"><ele>341.0</ele><time>2026-04-28T14:23:37.001Z</time></trkpt><trkpt lat="42.420227232836666" lon="12.103446559048288"><ele>341.0</ele><time>2026-04-28T14:24:05.002Z</time></trkpt><trkpt lat="42.42030381528732" lon="12.103536165268663"><ele>341.0</ele><time>2026-04-28T14:24:07.002Z</time></trkpt><trkpt lat="42.4203925768437" lon="12.103643629257606"><ele>341.0</ele><time>2026-04-28T14:24:09.002Z</time></trkpt><trkpt lat="42.42046860658805" lon="12.103722924312548"><ele>341.0</ele><time>2026-04-28T14:24:11.002Z</time></trkpt><trkpt lat="42.42049880231628" lon="12.103815642007083"><ele>341.0</ele><time>2026-04-28T14:24:13.002Z</time></trkpt><trkpt lat="42.42044795175035" lon="12.103916781136416"><ele>341.0</ele><time>2026-04-28T14:24:15.002Z</time></trkpt><trkpt lat="42.4203747298614" lon="12.103956485268984"><ele>341.0</ele><time>2026-04-28T14:24:16.002Z</time></trkpt><trkpt lat="42.42030377954765" lon="12.10399556756546"><ele>341.0</ele><time>2026-04-28T14:24:17.002Z</time></trkpt><trkpt lat="42.420232638736906" lon="12.104035856127458"><ele>341.0</ele><time>2026-04-28T14:24:18.002Z</time></trkpt><trkpt lat="42.42014962881986" lon="12.104076038778455"><ele>341.0</ele><time>2026-04-28T14:24:19.002Z</time></trkpt><trkpt lat="42.42006528590291" lon="12.104112688979095"><ele>341.0</ele><time>2026-04-28T14:24:20.002Z</time></trkpt><trkpt lat="42.41997954917822" lon="12.104147438183352"><ele>340.85714285714283</ele><time>2026-04-28T14:24:21.002Z</time></trkpt><trkpt lat="42.41990170093334" lon="12.104171771074455"><ele>340.7142857142857</ele><time>2026-04-28T14:24:22.002Z</time></trkpt><trkpt lat="42.41982583560991" lon="12.104189442443769"><ele>340.57142857142856</ele><time>2026-04-28T14:24:23.002Z</time></trkpt><trkpt lat="42.419756077595075" lon="12.104209629364941"><ele>340.42857142857144</ele><time>2026-04-28T14:24:24.002Z</time></trkpt><trkpt lat="42.41968688290442" lon="12.104233868185064"><ele>340.2857142857143</ele><time>2026-04-28T14:24:25.002Z</time></trkpt><trkpt lat="42.41962163620415" lon="12.104254644370734"><ele>340.14285714285717</ele><time>2026-04-28T14:24:26.002Z</time></trkpt><trkpt lat="42.41955945768382" lon="12.104286360275653"><ele>340.0</ele><time>2026-04-28T14:24:27.002Z</time></trkpt><trkpt lat="42.41949818142568" lon="12.104316476897365"><ele>338.66666666666663</ele><time>2026-04-28T14:24:28.002Z</time></trkpt><trkpt lat="42.419385789921016" lon="12.104366656109578"><ele>337.3333333333333</ele><time>2026-04-28T14:24:30.002Z</time></trkpt><trkpt lat="42.41932060093136" lon="12.104391920958616"><ele>336.0</ele><time>2026-04-28T14:24:31.002Z</time></trkpt><trkpt lat="42.41925373721343" lon="12.104421438324175"><ele>334.6666666666667</ele><time>2026-04-28T14:24:32.002Z</time></trkpt><trkpt lat="42.41919332790132" lon="12.104460391845699"><ele>333.33333333333337</ele><time>2026-04-28T14:24:33.002Z</time></trkpt><trkpt lat="42.41909021835612" lon="12.104533756842157"><ele>332.0</ele><time>2026-04-28T14:24:35.002Z</time></trkpt><trkpt lat="42.41898798572757" lon="12.104574543576003"><ele>332.0</ele><time>2026-04-28T14:24:37.002Z</time></trkpt><trkpt lat="42.41890007773929" lon="12.104543203419134"><ele>332.0</ele><time>2026-04-28T14:24:39.002Z</time></trkpt><trkpt lat="42.418837718077185" lon="12.104474896573965"><ele>332.0</ele><time>2026-04-28T14:24:41.002Z</time></trkpt><trkpt lat="42.41878934816779" lon="12.104331277716652"><ele>332.0</ele><time>2026-04-28T14:24:43.002Z</time></trkpt><trkpt lat="42.41876018218584" lon="12.104237170643618"><ele>332.0</ele><time>2026-04-28T14:24:44.002Z</time></trkpt><trkpt lat="42.418722281886545" lon="12.104137519434161"><ele>332.0</ele><time>2026-04-28T14:24:45.002Z</time></trkpt><trkpt lat="42.41867443174061" lon="12.10402446367094"><ele>329.8</ele><time>2026-04-28T14:24:46.002Z</time></trkpt><trkpt lat="42.418624205680054" lon="12.10390813620309"><ele>327.6</ele><time>2026-04-28T14:24:47.002Z</time></trkpt><trkpt lat="42.41856867315445" lon="12.103789418732282"><ele>325.40000000000003</ele><time>2026-04-28T14:24:48.002Z</time></trkpt><trkpt lat="42.41851126920355" lon="12.103672080611101"><ele>323.20000000000005</ele><time>2026-04-28T14:24:49.002Z</time></trkpt><trkpt lat="42.41845978091699" lon="12.103559865056004"><ele>321.0</ele><time>2026-04-28T14:24:50.002Z</time></trkpt><trkpt lat="42.41841234276347" lon="12.10345506442498"><ele>321.0</ele><time>2026-04-28T14:24:51.002Z</time></trkpt><trkpt lat="42.418369201372094" lon="12.103353851622984"><ele>321.0</ele><time>2026-04-28T14:24:52.002Z</time></trkpt><trkpt lat="42.41833311477193" lon="12.10325330774304"><ele>321.0</ele><time>2026-04-28T14:24:53.002Z</time></trkpt><trkpt lat="42.41829826692573" lon="12.103155850343395"><ele>321.0</ele><time>2026-04-28T14:24:54.002Z</time></trkpt><trkpt lat="42.418267500011034" lon="12.103065888116504"><ele>321.0</ele><time>2026-04-28T14:24:55.002Z</time></trkpt><trkpt lat="42.418242053323176" lon="12.102978984197048"><ele>321.0</ele><time>2026-04-28T14:24:56.002Z</time></trkpt><trkpt lat="42.41821392933725" lon="12.102891518814184"><ele>321.8</ele><time>2026-04-28T14:24:57.002Z</time></trkpt><trkpt lat="42.41818491750195" lon="12.102798484941786"><ele>322.6</ele><time>2026-04-28T14:24:58.002Z</time></trkpt><trkpt lat="42.418154688732024" lon="12.102705442619689"><ele>323.4</ele><time>2026-04-28T14:24:59.002Z</time></trkpt><trkpt lat="42.4181345305217" lon="12.102623390286004"><ele>324.2</ele><time>2026-04-28T14:25:00.002Z</time></trkpt><trkpt lat="42.41810514647407" lon="12.102471058594421"><ele>325.0</ele><time>2026-04-28T14:25:02.002Z</time></trkpt><trkpt lat="42.418067804823096" lon="12.102315410912405"><ele>325.2</ele><time>2026-04-28T14:25:04.002Z</time></trkpt><trkpt lat="42.41802994863511" lon="12.102164961770834"><ele>325.4</ele><time>2026-04-28T14:25:06.002Z</time></trkpt><trkpt lat="42.41799736392344" lon="12.10201791364948"><ele>325.6</ele><time>2026-04-28T14:25:08.002Z</time></trkpt><trkpt lat="42.417970496190264" lon="12.101910529163131"><ele>325.8</ele><time>2026-04-28T14:25:10.002Z</time></trkpt><trkpt lat="42.41794439843803" lon="12.10181025014623"><ele>326.0</ele><time>2026-04-28T14:25:14.002Z</time></trkpt><trkpt lat="42.41790193749396" lon="12.101710138743295"><ele>323.40000000000003</ele><time>2026-04-28T14:25:17.002Z</time></trkpt><trkpt lat="42.41788227791297" lon="12.10161841470243"><ele>320.8</ele><time>2026-04-28T14:25:19.002Z</time></trkpt><trkpt lat="42.41775167105794" lon="12.101631716781965"><ele>318.20000000000005</ele><time>2026-04-28T14:25:21.002Z</time></trkpt><trkpt lat="42.417651843432886" lon="12.101736822392505"><ele>315.6</ele><time>2026-04-28T14:25:23.002Z</time></trkpt><trkpt lat="42.41760824554188" lon="12.101833916391115"><ele>313.0</ele><time>2026-04-28T14:25:24.002Z</time></trkpt><trkpt lat="42.41756190008309" lon="12.101941380848233"><ele>313.0</ele><time>2026-04-28T14:25:25.002Z</time></trkpt><trkpt lat="42.41751160449871" lon="12.102066147890854"><ele>313.0</ele><time>2026-04-28T14:25:26.002Z</time></trkpt><trkpt lat="42.41746122858193" lon="12.102218820836834"><ele>313.0</ele><time>2026-04-28T14:25:27.002Z</time></trkpt><trkpt lat="42.41741598058393" lon="12.102378511400214"><ele>313.0</ele><time>2026-04-28T14:25:28.002Z</time></trkpt><trkpt lat="42.41738122676074" lon="12.102515984227269"><ele>312.5</ele><time>2026-04-28T14:25:29.002Z</time></trkpt><trkpt lat="42.41735031212336" lon="12.102630100373696"><ele>312.0</ele><time>2026-04-28T14:25:30.002Z</time></trkpt><trkpt lat="42.41732798072284" lon="12.102729352990004"><ele>311.5</ele><time>2026-04-28T14:25:31.002Z</time></trkpt><trkpt lat="42.41730312677151" lon="12.102808399696853"><ele>311.0</ele><time>2026-04-28T14:25:32.002Z</time></trkpt><trkpt lat="42.41723574031699" lon="12.102921157579724"><ele>310.5</ele><time>2026-04-28T14:25:34.002Z</time></trkpt><trkpt lat="42.41713550185691" lon="12.102958929011953"><ele>310.0</ele><time>2026-04-28T14:25:36.002Z</time></trkpt><trkpt lat="42.41705420662253" lon="12.102946513366923"><ele>309.4</ele><time>2026-04-28T14:25:38.002Z</time></trkpt><trkpt lat="42.417028420841795" lon="12.103109945055433"><ele>308.8</ele><time>2026-04-28T14:25:40.002Z</time></trkpt><trkpt lat="42.41704434667804" lon="12.103249665221599"><ele>308.2</ele><time>2026-04-28T14:25:42.002Z</time></trkpt><trkpt lat="42.417056055256545" lon="12.103403222153835"><ele>307.6</ele><time>2026-04-28T14:25:44.002Z</time></trkpt><trkpt lat="42.41706843164447" lon="12.103520061663028"><ele>307.0</ele><time>2026-04-28T14:25:46.002Z</time></trkpt><trkpt lat="42.417098790856954" lon="12.103622773677632"><ele>308.8</ele><time>2026-04-28T14:25:48.002Z</time></trkpt><trkpt lat="42.41711653777815" lon="12.103739282614624"><ele>310.6</ele><time>2026-04-28T14:25:50.002Z</time></trkpt><trkpt lat="42.41711060617126" lon="12.103865667264214"><ele>312.40000000000003</ele><time>2026-04-28T14:25:52.002Z</time></trkpt><trkpt lat="42.41711973806144" lon="12.10400393114273"><ele>314.2</ele><time>2026-04-28T14:25:54.002Z</time></trkpt><trkpt lat="42.41719708673569" lon="12.10410902540702"><ele>316.0</ele><time>2026-04-28T14:25:56.002Z</time></trkpt><trkpt lat="42.41730198594596" lon="12.104153385748383"><ele>317.0</ele><time>2026-04-28T14:25:58.002Z</time></trkpt><trkpt lat="42.417419631115" lon="12.10421077639498"><ele>318.0</ele><time>2026-04-28T14:26:00.002Z</time></trkpt><trkpt lat="42.41748865393956" lon="12.104252718862755"><ele>319.0</ele><time>2026-04-28T14:26:01.002Z</time></trkpt><trkpt lat="42.4175568901068" lon="12.104279756483932"><ele>320.0</ele><time>2026-04-28T14:26:02.002Z</time></trkpt><trkpt lat="42.417618887609805" lon="12.104328822311809"><ele>321.0</ele><time>2026-04-28T14:26:03.002Z</time></trkpt><trkpt lat="42.41768149397265" lon="12.104357011513434"><ele>322.0</ele><time>2026-04-28T14:26:04.002Z</time></trkpt><trkpt lat="42.41778683512089" lon="12.104395567636121"><ele>322.0</ele><time>2026-04-28T14:26:06.002Z</time></trkpt><trkpt lat="42.41788800428909" lon="12.104391353989936"><ele>322.0</ele><time>2026-04-28T14:26:08.002Z</time></trkpt><trkpt lat="42.41799739785542" lon="12.104393459693755"><ele>322.0</ele><time>2026-04-28T14:26:10.002Z</time></trkpt><trkpt lat="42.41808379761584" lon="12.104442993488304"><ele>322.0</ele><time>2026-04-28T14:26:12.002Z</time></trkpt><trkpt lat="42.41819913481646" lon="12.104449904923587"><ele>322.0</ele><time>2026-04-28T14:26:15.002Z</time></trkpt><trkpt lat="42.41827741325201" lon="12.104443888776633"><ele>322.16666666666663</ele><time>2026-04-28T14:27:18.002Z</time></trkpt><trkpt lat="42.41834395110287" lon="12.104428469435152"><ele>322.3333333333333</ele><time>2026-04-28T14:27:20.002Z</time></trkpt><trkpt lat="42.41843720979898" lon="12.10438291543106"><ele>322.5</ele><time>2026-04-28T14:27:22.002Z</time></trkpt><trkpt lat="42.41847473706183" lon="12.10429082734632"><ele>322.6666666666667</ele><time>2026-04-28T14:27:23.002Z</time></trkpt><trkpt lat="42.41845443580936" lon="12.104192451379292"><ele>322.83333333333337</ele><time>2026-04-28T14:27:24.002Z</time></trkpt><trkpt lat="42.4184427263737" lon="12.104108168564524"><ele>323.0</ele><time>2026-04-28T14:27:25.002Z</time></trkpt><trkpt lat="42.41838005884145" lon="12.10405142339732"><ele>322.59999999999997</ele><time>2026-04-28T14:27:26.002Z</time></trkpt><trkpt lat="42.41833971386409" lon="12.103968343600675"><ele>322.2</ele><time>2026-04-28T14:27:27.002Z</time></trkpt><trkpt lat="42.418365953303514" lon="12.103840144185657"><ele>321.8</ele><time>2026-04-28T14:27:28.002Z</time></trkpt><trkpt lat="42.41838212407323" lon="12.1037528535232"><ele>321.4</ele><time>2026-04-28T14:27:29.002Z</time></trkpt><trkpt lat="42.41842546887391" lon="12.103683661176662"><ele>321.0</ele><time>2026-04-28T14:27:30.002Z</time></trkpt><trkpt lat="42.418392678225025" lon="12.103438931450793"><ele>321.0</ele><time>2026-04-28T14:27:32.002Z</time></trkpt><trkpt lat="42.418361267756644" lon="12.103313769378493"><ele>321.0</ele><time>2026-04-28T14:27:33.002Z</time></trkpt><trkpt lat="42.41831750014627" lon="12.10318144979241"><ele>321.0</ele><time>2026-04-28T14:27:34.002Z</time></trkpt><trkpt lat="42.41826772282823" lon="12.103031920517212"><ele>321.0</ele><time>2026-04-28T14:27:35.002Z</time></trkpt><trkpt lat="42.4182114016267" lon="12.102864665551314"><ele>322.0</ele><time>2026-04-28T14:27:36.002Z</time></trkpt><trkpt lat="42.418164004152686" lon="12.102709853644921"><ele>323.0</ele><time>2026-04-28T14:27:37.002Z</time></trkpt><trkpt lat="42.41812932133541" lon="12.102562864841659"><ele>324.0</ele><time>2026-04-28T14:27:38.002Z</time></trkpt><trkpt lat="42.41810134415684" lon="12.102409894373835"><ele>325.0</ele><time>2026-04-28T14:27:39.002Z</time></trkpt><trkpt lat="42.41806569765758" lon="12.102253264887478"><ele>325.2</ele><time>2026-04-28T14:27:40.002Z</time></trkpt><trkpt lat="42.41802561942272" lon="12.10210477226484"><ele>325.4</ele><time>2026-04-28T14:27:41.002Z</time></trkpt><trkpt lat="42.41799033505681" lon="12.101967182159793"><ele>325.6</ele><time>2026-04-28T14:27:42.002Z</time></trkpt><trkpt lat="42.417947294887426" lon="12.10184266933763"><ele>325.8</ele><time>2026-04-28T14:27:43.002Z</time></trkpt><trkpt lat="42.41792146592657" lon="12.10171983407063"><ele>326.0</ele><time>2026-04-28T14:27:44.002Z</time></trkpt><trkpt lat="42.4178558007134" lon="12.10164297305431"><ele>324.0</ele><time>2026-04-28T14:27:45.002Z</time></trkpt><trkpt lat="42.41781085291249" lon="12.101553425222244"><ele>322.0</ele><time>2026-04-28T14:27:46.002Z</time></trkpt><trkpt lat="42.41777869109698" lon="12.101444506686143"><ele>320.0</ele><time>2026-04-28T14:27:47.002Z</time></trkpt><trkpt lat="42.41775290746703" lon="12.10131715870968"><ele>318.0</ele><time>2026-04-28T14:27:48.002Z</time></trkpt><trkpt lat="42.417732657462125" lon="12.10117474305836"><ele>316.0</ele><time>2026-04-28T14:27:49.002Z</time></trkpt><trkpt lat="42.41771531808" lon="12.101032436207612"><ele>316.0</ele><time>2026-04-28T14:27:50.002Z</time></trkpt><trkpt lat="42.41770312666925" lon="12.10088876515282"><ele>316.0</ele><time>2026-04-28T14:27:51.002Z</time></trkpt><trkpt lat="42.41770849290328" lon="12.100749121537973"><ele>316.0</ele><time>2026-04-28T14:27:52.002Z</time></trkpt><trkpt lat="42.41772526767861" lon="12.100607014318959"><ele>316.0</ele><time>2026-04-28T14:27:53.002Z</time></trkpt><trkpt lat="42.417745893318155" lon="12.100459406274474"><ele>316.0</ele><time>2026-04-28T14:27:54.002Z</time></trkpt><trkpt lat="42.417765404065015" lon="12.10030669131464"><ele>316.40000000000003</ele><time>2026-04-28T14:27:55.002Z</time></trkpt><trkpt lat="42.417776794531406" lon="12.1001515857674"><ele>316.8</ele><time>2026-04-28T14:27:56.002Z</time></trkpt><trkpt lat="42.41779138312045" lon="12.100012751819639"><ele>317.20000000000005</ele><time>2026-04-28T14:27:57.002Z</time></trkpt><trkpt lat="42.41782329178733" lon="12.099907278807411"><ele>317.6</ele><time>2026-04-28T14:27:58.002Z</time></trkpt><trkpt lat="42.417870737153244" lon="12.09983691495179"><ele>318.0</ele><time>2026-04-28T14:27:59.002Z</time></trkpt><trkpt lat="42.41796076359607" lon="12.099801328248441"><ele>319.3333333333333</ele><time>2026-04-28T14:28:01.002Z</time></trkpt><trkpt lat="42.418006933292986" lon="12.099901402911591"><ele>320.6666666666667</ele><time>2026-04-28T14:28:03.002Z</time></trkpt><trkpt lat="42.41804912971207" lon="12.099977979939641"><ele>322.0</ele><time>2026-04-28T14:28:04.002Z</time></trkpt><trkpt lat="42.418092558944956" lon="12.100071429285862"><ele>323.33333333333337</ele><time>2026-04-28T14:28:05.002Z</time></trkpt><trkpt lat="42.418140792348666" lon="12.100167033201833"><ele>324.6666666666667</ele><time>2026-04-28T14:28:06.002Z</time></trkpt><trkpt lat="42.418194492376585" lon="12.100278559744384"><ele>326.0</ele><time>2026-04-28T14:28:07.002Z</time></trkpt><trkpt lat="42.4182651075333" lon="12.100395741898856"><ele>326.0</ele><time>2026-04-28T14:28:08.002Z</time></trkpt><trkpt lat="42.418314216050355" lon="12.100488716252103"><ele>326.0</ele><time>2026-04-28T14:28:09.002Z</time></trkpt><trkpt lat="42.418352862535436" lon="12.10055946401352"><ele>326.0</ele><time>2026-04-28T14:28:10.002Z</time></trkpt><trkpt lat="42.41839713048325" lon="12.100655131992534"><ele>326.0</ele><time>2026-04-28T14:28:12.002Z</time></trkpt><trkpt lat="42.41843453432634" lon="12.100728060518623"><ele>326.0</ele><time>2026-04-28T14:28:14.002Z</time></trkpt><trkpt lat="42.418489181765864" lon="12.100817326800945"><ele>326.0</ele><time>2026-04-28T14:28:16.002Z</time></trkpt><trkpt lat="42.41852970604193" lon="12.10089022080633"><ele>326.4</ele><time>2026-04-28T14:28:19.002Z</time></trkpt><trkpt lat="42.41858916402902" lon="12.100980706414456"><ele>326.8</ele><time>2026-04-28T14:28:31.002Z</time></trkpt><trkpt lat="42.41866896930171" lon="12.101124988812094"><ele>327.2</ele><time>2026-04-28T14:28:33.002Z</time></trkpt><trkpt lat="42.41871557615282" lon="12.101217545161001"><ele>327.59999999999997</ele><time>2026-04-28T14:28:34.002Z</time></trkpt><trkpt lat="42.41876758598646" lon="12.101314109278462"><ele>328.0</ele><time>2026-04-28T14:28:35.002Z</time></trkpt><trkpt lat="42.41881234899733" lon="12.1013887222712"><ele>329.0</ele><time>2026-04-28T14:28:36.002Z</time></trkpt><trkpt lat="42.41887272364776" lon="12.101474095252195"><ele>330.0</ele><time>2026-04-28T14:28:38.002Z</time></trkpt><trkpt lat="42.4189167782226" lon="12.101583715865978"><ele>331.0</ele><time>2026-04-28T14:29:01.002Z</time></trkpt><trkpt lat="42.41899106930511" lon="12.101662158619916"><ele>332.0</ele><time>2026-04-28T14:29:03.002Z</time></trkpt><trkpt lat="42.41896058506672" lon="12.101586780750633"><ele>333.0</ele><time>2026-04-28T14:29:41.001Z</time></trkpt><trkpt lat="42.419073001087995" lon="12.101426116633291"><ele>333.0</ele><time>2026-04-28T14:29:42.001Z</time></trkpt><trkpt lat="42.41904096216625" lon="12.10133747775221"><ele>333.0</ele><time>2026-04-28T14:29:45.001Z</time></trkpt><trkpt lat="42.41909919183781" lon="12.101414743839936"><ele>333.0</ele><time>2026-04-28T14:31:25.001Z</time></trkpt><trkpt lat="42.4191561251482" lon="12.10156591011092"><ele>333.0</ele><time>2026-04-28T14:31:27.001Z</time></trkpt><trkpt lat="42.41908261260298" lon="12.101756988689097"><ele>333.0</ele><time>2026-04-28T14:31:28.001Z</time></trkpt><trkpt lat="42.419138835829884" lon="12.101834742984378"><ele>333.0</ele><time>2026-04-28T14:31:30.001Z</time></trkpt><trkpt lat="42.41907331146676" lon="12.101760821572134"><ele>333.0</ele><time>2026-04-28T14:32:15.001Z</time></trkpt><trkpt lat="42.41911812203934" lon="12.101550954992302"><ele>333.0</ele><time>2026-04-28T14:32:17.001Z</time></trkpt><trkpt lat="42.41907154168808" lon="12.101422081762276"><ele>333.0</ele><time>2026-04-28T14:32:19.001Z</time></trkpt><trkpt lat="42.41904176553024" lon="12.101339700353966"><ele>333.0</ele><time>2026-04-28T14:32:21.001Z</time></trkpt><trkpt lat="42.41890119310137" lon="12.101412267594988"><ele>333.0</ele><time>2026-04-28T14:32:22.001Z</time></trkpt><trkpt lat="42.418842240644864" lon="12.101458244121842"><ele>333.0</ele><time>2026-04-28T14:33:12.001Z</time></trkpt><trkpt lat="42.41899307790079" lon="12.10170566711872"><ele>333.0</ele><time>2026-04-28T14:33:17.001Z</time></trkpt><trkpt lat="42.419093783414375" lon="12.101840177184386"><ele>333.0</ele><time>2026-04-28T14:33:18.001Z</time></trkpt><trkpt lat="42.41915601338697" lon="12.101920078293807"><ele>333.1666666666667</ele><time>2026-04-28T14:33:19.001Z</time></trkpt><trkpt lat="42.419210961496134" lon="12.102005528413567"><ele>333.3333333333333</ele><time>2026-04-28T14:33:20.001Z</time></trkpt><trkpt lat="42.419265758764865" lon="12.102076281036224"><ele>333.5</ele><time>2026-04-28T14:33:21.001Z</time></trkpt><trkpt lat="42.419315729200314" lon="12.10214135807208"><ele>333.66666666666663</ele><time>2026-04-28T14:33:22.001Z</time></trkpt><trkpt lat="42.419373182675336" lon="12.102214154651936"><ele>333.8333333333333</ele><time>2026-04-28T14:33:23.001Z</time></trkpt><trkpt lat="42.41943438094961" lon="12.102310590542723"><ele>334.0</ele><time>2026-04-28T14:33:24.001Z</time></trkpt><trkpt lat="42.41950552920533" lon="12.102419779000588"><ele>334.25</ele><time>2026-04-28T14:33:25.001Z</time></trkpt><trkpt lat="42.41959266760733" lon="12.102522542925644"><ele>334.5</ele><time>2026-04-28T14:33:26.001Z</time></trkpt><trkpt lat="42.41966528604607" lon="12.102640878216928"><ele>334.75</ele><time>2026-04-28T14:33:27.001Z</time></trkpt><trkpt lat="42.41972977217911" lon="12.102773272136375"><ele>335.0</ele><time>2026-04-28T14:33:28.001Z</time></trkpt><trkpt lat="42.419798693413256" lon="12.102881608091547"><ele>335.83333333333337</ele><time>2026-04-28T14:33:29.001Z</time></trkpt><trkpt lat="42.41986591227015" lon="12.102984224597785"><ele>336.6666666666667</ele><time>2026-04-28T14:33:30.001Z</time></trkpt><trkpt lat="42.41992807132586" lon="12.103081048445967"><ele>337.5</ele><time>2026-04-28T14:33:31.001Z</time></trkpt><trkpt lat="42.419966718255615" lon="12.103169338931059"><ele>338.3333333333333</ele><time>2026-04-28T14:33:32.001Z</time></trkpt><trkpt lat="42.42001737805623" lon="12.10322429428165"><ele>339.16666666666663</ele><time>2026-04-28T14:33:33.001Z</time></trkpt><trkpt lat="42.42007654857674" lon="12.103322397717283"><ele>340.0</ele><time>2026-04-28T14:33:35.001Z</time></trkpt><trkpt lat="42.420155395533456" lon="12.103379581508664"><ele>340.14285714285717</ele><time>2026-04-28T14:33:37.001Z</time></trkpt><trkpt lat="42.42022343630113" lon="12.103323735311239"><ele>340.2857142857143</ele><time>2026-04-28T14:33:57.001Z</time></trkpt><trkpt lat="42.42019492543341" lon="12.103404475207531"><ele>340.42857142857144</ele><time>2026-04-28T14:34:00.001Z</time></trkpt><trkpt lat="42.420277418633766" lon="12.103410384987006"><ele>340.57142857142856</ele><time>2026-04-28T14:34:14.001Z</time></trkpt><trkpt lat="42.420332643292106" lon="12.10347632336077"><ele>340.7142857142857</ele><time>2026-04-28T14:34:22.001Z</time></trkpt><trkpt lat="42.420379005808044" lon="12.103534692985734"><ele>340.85714285714283</ele><time>2026-04-28T14:34:27.001Z</time></trkpt><trkpt lat="42.42032423809533" lon="12.10347812825794"><ele>341.0</ele><time>2026-04-28T14:34:56.001Z</time></trkpt><trkpt lat="42.420271417463844" lon="12.103425061175862"><ele>341.0</ele><time>2026-04-28T14:35:01.001Z</time></trkpt><trkpt lat="42.42021222654093" lon="12.103363087699082"><ele>341.0</ele><time>2026-04-28T14:35:12.001Z</time></trkpt><trkpt lat="42.42028063829362" lon="12.103284130306282"><ele>341.0</ele><time>2026-04-28T14:35:31Z</time></trkpt><trkpt lat="42.42032212903585" lon="12.103202204136085"><ele>341.0</ele><time>2026-04-28T14:35:32Z</time></trkpt><trkpt lat="42.42037109021186" lon="12.103104274090246"><ele>341.0</ele><time>2026-04-28T14:35:34Z</time></trkpt><trkpt lat="42.420446122044744" lon="12.103008589287088"><ele>341.0</ele><time>2026-04-28T14:35:37Z</time></trkpt><trkpt lat="42.420524246760905" lon="12.102911032182464"><ele>340.0</ele><time>2026-04-28T14:35:39Z</time></trkpt><trkpt lat="42.420599786900205" lon="12.102786919187363"><ele>339.0</ele><time>2026-04-28T14:35:41Z</time></trkpt><trkpt lat="42.42066146947966" lon="12.102657210196805"><ele>338.0</ele><time>2026-04-28T14:35:43Z</time></trkpt><trkpt lat="42.420720873329046" lon="12.102571749458416"><ele>337.0</ele><time>2026-04-28T14:35:45Z</time></trkpt><trkpt lat="42.4207771048364" lon="12.102523568853503"><ele>336.0</ele><time>2026-04-28T14:35:47Z</time></trkpt><trkpt lat="42.42084371466092" lon="12.102435651106322"><ele>336.0</ele><time>2026-04-28T14:35:51Z</time></trkpt><trkpt lat="42.42087755032047" lon="12.102345383685714"><ele>336.0</ele><time>2026-04-28T14:35:53Z</time></trkpt><trkpt lat="42.42096688413909" lon="12.102432490696115"><ele>336.0</ele><time>2026-04-28T14:35:54Z</time></trkpt><trkpt lat="42.42101706732858" lon="12.102509153284238"><ele>336.0</ele><time>2026-04-28T14:35:55Z</time></trkpt><trkpt lat="42.42108179063242" lon="12.102595191952311"><ele>336.0</ele><time>2026-04-28T14:35:56Z</time></trkpt><trkpt lat="42.4211501704226" lon="12.102662861921985"><ele>336.0</ele><time>2026-04-28T14:35:57Z</time></trkpt><trkpt lat="42.42122538202952" lon="12.102757651193086"><ele>336.0</ele><time>2026-04-28T14:35:58Z</time></trkpt><trkpt lat="42.42131490011114" lon="12.102866713888627"><ele>336.0</ele><time>2026-04-28T14:35:59Z</time></trkpt><trkpt lat="42.42142091550777" lon="12.10298921561974"><ele>336.0</ele><time>2026-04-28T14:36:00Z</time></trkpt><trkpt lat="42.4215320446753" lon="12.103130528084492"><ele>336.0</ele><time>2026-04-28T14:36:01Z</time></trkpt><trkpt lat="42.42164670731729" lon="12.103283649714546"><ele>336.3333333333333</ele><time>2026-04-28T14:36:02Z</time></trkpt><trkpt lat="42.42176647485392" lon="12.103430924989405"><ele>336.66666666666663</ele><time>2026-04-28T14:36:03Z</time></trkpt><trkpt lat="42.421878235494425" lon="12.103569426129312"><ele>337.0</ele><time>2026-04-28T14:36:04Z</time></trkpt><trkpt lat="42.42198165621771" lon="12.10370504806497"><ele>337.0</ele><time>2026-04-28T14:36:05Z</time></trkpt><trkpt lat="42.42207517718394" lon="12.103834756241525"><ele>337.0</ele><time>2026-04-28T14:36:06Z</time></trkpt><trkpt lat="42.42217535913675" lon="12.103946812956128"><ele>337.0</ele><time>2026-04-28T14:36:07Z</time></trkpt><trkpt lat="42.42226097334928" lon="12.104060160159822"><ele>337.0</ele><time>2026-04-28T14:36:08Z</time></trkpt><trkpt lat="42.422343512188704" lon="12.104179357557499"><ele>337.8</ele><time>2026-04-28T14:36:09Z</time></trkpt><trkpt lat="42.42241476831847" lon="12.104291281171557"><ele>338.6</ele><time>2026-04-28T14:36:10Z</time></trkpt><trkpt lat="42.42247216140657" lon="12.104398957158507"><ele>339.40000000000003</ele><time>2026-04-28T14:36:11Z</time></trkpt><trkpt lat="42.422505931623355" lon="12.104506442323864"><ele>340.20000000000005</ele><time>2026-04-28T14:36:12Z</time></trkpt><trkpt lat="42.42252076175979" lon="12.104593057027119"><ele>341.0</ele><time>2026-04-28T14:36:13Z</time></trkpt><trkpt lat="42.42254183606473" lon="12.104729497804598"><ele>341.0</ele><time>2026-04-28T14:36:15Z</time></trkpt><trkpt lat="42.422582588593315" lon="12.104885072212072"><ele>341.0</ele><time>2026-04-28T14:36:17Z</time></trkpt><trkpt lat="42.422620367982596" lon="12.104988297174739"><ele>341.0</ele><time>2026-04-28T14:36:18Z</time></trkpt><trkpt lat="42.42264447952373" lon="12.1050871150786"><ele>341.0</ele><time>2026-04-28T14:36:19Z</time></trkpt><trkpt lat="42.42266175206081" lon="12.105175635692127"><ele>341.0</ele><time>2026-04-28T14:36:20Z</time></trkpt><trkpt lat="42.422678230105554" lon="12.105257980938568"><ele>341.0</ele><time>2026-04-28T14:36:21Z</time></trkpt><trkpt lat="42.42270266763964" lon="12.105361983870795"><ele>341.5</ele><time>2026-04-28T14:36:22Z</time></trkpt><trkpt lat="42.42273282827525" lon="12.105498561233158"><ele>342.0</ele><time>2026-04-28T14:36:23Z</time></trkpt><trkpt lat="42.42276456269952" lon="12.105645677003785"><ele>342.5</ele><time>2026-04-28T14:36:24Z</time></trkpt><trkpt lat="42.42279987886475" lon="12.105809179265528"><ele>343.0</ele><time>2026-04-28T14:36:25Z</time></trkpt><trkpt lat="42.42283546058356" lon="12.105978858268866"><ele>343.4</ele><time>2026-04-28T14:36:26Z</time></trkpt><trkpt lat="42.42287331932391" lon="12.106141643131965"><ele>343.79999999999995</ele><time>2026-04-28T14:36:27Z</time></trkpt><trkpt lat="42.42290718079252" lon="12.106284828813326"><ele>344.2</ele><time>2026-04-28T14:36:28Z</time></trkpt><trkpt lat="42.42291773416827" lon="12.106427042166853"><ele>344.6</ele><time>2026-04-28T14:36:29Z</time></trkpt><trkpt lat="42.4229397517228" lon="12.106556310770351"><ele>345.0</ele><time>2026-04-28T14:36:30Z</time></trkpt><trkpt lat="42.42295991979663" lon="12.106674717374077"><ele>345.2</ele><time>2026-04-28T14:36:31Z</time></trkpt><trkpt lat="42.42297923938861" lon="12.106788139730963"><ele>345.4</ele><time>2026-04-28T14:36:32Z</time></trkpt><trkpt lat="42.42296646331571" lon="12.106890805203044"><ele>345.6</ele><time>2026-04-28T14:36:33Z</time></trkpt><trkpt lat="42.42297074744138" lon="12.106982114602866"><ele>345.8</ele><time>2026-04-28T14:36:34Z</time></trkpt><trkpt lat="42.42308839791357" lon="12.10704916247737"><ele>346.0</ele><time>2026-04-28T14:36:35Z</time></trkpt><trkpt lat="42.42317028768108" lon="12.107151780535304"><ele>345.4</ele><time>2026-04-28T14:36:37Z</time></trkpt><trkpt lat="42.42327825520173" lon="12.107236082204935"><ele>344.8</ele><time>2026-04-28T14:36:39Z</time></trkpt><trkpt lat="42.423331622129616" lon="12.107285228223038"><ele>344.2</ele><time>2026-04-28T14:36:40Z</time></trkpt><trkpt lat="42.42340452514679" lon="12.107391945793623"><ele>343.59999999999997</ele><time>2026-04-28T14:36:42Z</time></trkpt><trkpt lat="42.423462653127295" lon="12.107536310489236"><ele>343.0</ele><time>2026-04-28T14:36:44Z</time></trkpt><trkpt lat="42.42348245419433" lon="12.107710202601101"><ele>343.0</ele><time>2026-04-28T14:36:46.001Z</time></trkpt><trkpt lat="42.423508126315696" lon="12.107809163705117"><ele>343.0</ele><time>2026-04-28T14:36:47.001Z</time></trkpt><trkpt lat="42.423540598677924" lon="12.107905701443103"><ele>343.0</ele><time>2026-04-28T14:36:48.001Z</time></trkpt><trkpt lat="42.42356781052607" lon="12.10801414185423"><ele>343.0</ele><time>2026-04-28T14:36:49.001Z</time></trkpt><trkpt lat="42.42360219498089" lon="12.108125022140865"><ele>343.0</ele><time>2026-04-28T14:36:50.001Z</time></trkpt><trkpt lat="42.42363754494778" lon="12.10823694004407"><ele>343.0</ele><time>2026-04-28T14:36:51.001Z</time></trkpt><trkpt lat="42.42366929736976" lon="12.108353912111394"><ele>343.3333333333333</ele><time>2026-04-28T14:36:52.001Z</time></trkpt><trkpt lat="42.42370243249853" lon="12.108473412895107"><ele>343.66666666666663</ele><time>2026-04-28T14:36:53.001Z</time></trkpt><trkpt lat="42.423742834691396" lon="12.108603027440424"><ele>344.0</ele><time>2026-04-28T14:36:54.001Z</time></trkpt><trkpt lat="42.42377860883362" lon="12.108720449001487"><ele>344.3333333333333</ele><time>2026-04-28T14:36:55.001Z</time></trkpt><trkpt lat="42.423809245118576" lon="12.108820254425185"><ele>344.6666666666667</ele><time>2026-04-28T14:36:56.001Z</time></trkpt><trkpt lat="42.423833575690956" lon="12.10891203106675"><ele>345.0</ele><time>2026-04-28T14:36:57.001Z</time></trkpt><trkpt lat="42.42387217572457" lon="12.109048097488058"><ele>346.0</ele><time>2026-04-28T14:36:59.001Z</time></trkpt><trkpt lat="42.42389835162227" lon="12.10913517630704"><ele>347.0</ele><time>2026-04-28T14:37:01.001Z</time></trkpt><trkpt lat="42.42391879941918" lon="12.109263226417255"><ele>348.0</ele><time>2026-04-28T14:37:04.001Z</time></trkpt><trkpt lat="42.42394832404759" lon="12.109374755546256"><ele>349.0</ele><time>2026-04-28T14:37:06.001Z</time></trkpt><trkpt lat="42.42397017515042" lon="12.109460741713507"><ele>350.0</ele><time>2026-04-28T14:37:09.001Z</time></trkpt><trkpt lat="42.42401356946433" lon="12.109592625782618"><ele>351.0</ele><time>2026-04-28T14:37:12.001Z</time></trkpt><trkpt lat="42.42406750282291" lon="12.109751519436447"><ele>351.0</ele><time>2026-04-28T14:37:14.001Z</time></trkpt><trkpt lat="42.42410018259973" lon="12.109888060153578"><ele>351.0</ele><time>2026-04-28T14:37:16.001Z</time></trkpt><trkpt lat="42.42398525052716" lon="12.110017690462294"><ele>351.0</ele><time>2026-04-28T14:37:19.001Z</time></trkpt><trkpt lat="42.42392287872647" lon="12.1100519813054"><ele>351.0</ele><time>2026-04-28T14:37:20.001Z</time></trkpt><trkpt lat="42.42385381089942" lon="12.110106402654942"><ele>351.0</ele><time>2026-04-28T14:37:21.001Z</time></trkpt><trkpt lat="42.42379180595516" lon="12.110166157343617"><ele>351.0</ele><time>2026-04-28T14:37:22.001Z</time></trkpt><trkpt lat="42.42372743209683" lon="12.110229817242805"><ele>351.0</ele><time>2026-04-28T14:37:23.001Z</time></trkpt><trkpt lat="42.42366951265532" lon="12.11028144667763"><ele>351.0</ele><time>2026-04-28T14:37:24.001Z</time></trkpt><trkpt lat="42.42359197573291" lon="12.110342682923816"><ele>351.0</ele><time>2026-04-28T14:37:26.001Z</time></trkpt><trkpt lat="42.42353034043605" lon="12.110401697221855"><ele>351.0</ele><time>2026-04-28T14:37:29Z</time></trkpt><trkpt lat="42.42346516028749" lon="12.11047580094453"><ele>351.0</ele><time>2026-04-28T14:37:32Z</time></trkpt><trkpt lat="42.423403748116066" lon="12.110522926015008"><ele>351.0</ele><time>2026-04-28T14:37:35Z</time></trkpt><trkpt lat="42.423399955095675" lon="12.110691595983289"><ele>351.0</ele><time>2026-04-28T14:37:37Z</time></trkpt><trkpt lat="42.42338905820446" lon="12.11086276749902"><ele>351.0</ele><time>2026-04-28T14:37:39Z</time></trkpt><trkpt lat="42.42337045526633" lon="12.110962668060612"><ele>351.0</ele><time>2026-04-28T14:37:40Z</time></trkpt><trkpt lat="42.423345438779556" lon="12.111062870617221"><ele>351.0</ele><time>2026-04-28T14:37:41Z</time></trkpt><trkpt lat="42.42332147179477" lon="12.111161890620751"><ele>351.8333333333333</ele><time>2026-04-28T14:37:42Z</time></trkpt><trkpt lat="42.42329635866928" lon="12.11126644323247"><ele>352.6666666666667</ele><time>2026-04-28T14:37:43Z</time></trkpt><trkpt lat="42.423274367435745" lon="12.111375129552915"><ele>353.5</ele><time>2026-04-28T14:37:44Z</time></trkpt><trkpt lat="42.42326021120922" lon="12.111472506633223"><ele>354.33333333333337</ele><time>2026-04-28T14:37:45Z</time></trkpt><trkpt lat="42.423233460896164" lon="12.111593212834535"><ele>355.1666666666667</ele><time>2026-04-28T14:37:47Z</time></trkpt><trkpt lat="42.4231998734893" lon="12.111670336723227"><ele>356.0</ele><time>2026-04-28T14:37:49Z</time></trkpt><trkpt lat="42.42319369673761" lon="12.11176143653543"><ele>356.4</ele><time>2026-04-28T14:37:51Z</time></trkpt><trkpt lat="42.42308847923275" lon="12.11189657965145"><ele>356.8</ele><time>2026-04-28T14:37:53Z</time></trkpt><trkpt lat="42.423028280244615" lon="12.111946517146233"><ele>357.2</ele><time>2026-04-28T14:37:54Z</time></trkpt><trkpt lat="42.42292598405924" lon="12.112013635191646"><ele>357.59999999999997</ele><time>2026-04-28T14:37:56Z</time></trkpt><trkpt lat="42.42284455656427" lon="12.112077167778745"><ele>358.0</ele><time>2026-04-28T14:37:58Z</time></trkpt><trkpt lat="42.422780019089345" lon="12.11213805722763"><ele>356.0</ele><time>2026-04-28T14:38:00Z</time></trkpt><trkpt lat="42.42272857887918" lon="12.112201534859935"><ele>354.0</ele><time>2026-04-28T14:38:03Z</time></trkpt><trkpt lat="42.422712588299845" lon="12.11229409662563"><ele>352.0</ele><time>2026-04-28T14:38:07Z</time></trkpt><trkpt lat="42.42277256215002" lon="12.11215550451066"><ele>350.0</ele><time>2026-04-28T14:38:23Z</time></trkpt><trkpt lat="42.422959794237855" lon="12.112016633736006"><ele>351.2</ele><time>2026-04-28T14:38:26Z</time></trkpt><trkpt lat="42.423051275189906" lon="12.111942366324335"><ele>352.4</ele><time>2026-04-28T14:38:28Z</time></trkpt><trkpt lat="42.42307389220507" lon="12.111836149150806"><ele>353.6</ele><time>2026-04-28T14:38:30Z</time></trkpt><trkpt lat="42.423031660837935" lon="12.111683382318486"><ele>354.8</ele><time>2026-04-28T14:38:32Z</time></trkpt><trkpt lat="42.42301950286585" lon="12.111591128685646"><ele>356.0</ele><time>2026-04-28T14:38:34Z</time></trkpt><trkpt lat="42.423056853116435" lon="12.111488626852196"><ele>355.99999999999994</ele><time>2026-04-28T14:38:38Z</time></trkpt><trkpt lat="42.42304169881912" lon="12.111572045621763"><ele>356.0</ele><time>2026-04-28T14:39:04.001Z</time></trkpt><trkpt lat="42.42302266031119" lon="12.111675758348422"><ele>356.0</ele><time>2026-04-28T14:39:07.001Z</time></trkpt><trkpt lat="42.423008909410804" lon="12.111779234807912"><ele>356.0</ele><time>2026-04-28T14:39:10.001Z</time></trkpt><trkpt lat="42.42305520704771" lon="12.1118383439533"><ele>356.0</ele><time>2026-04-28T14:39:12.001Z</time></trkpt><trkpt lat="42.42314291161129" lon="12.111830912293359"><ele>355.99999999999994</ele><time>2026-04-28T14:39:14.001Z</time></trkpt><trkpt lat="42.423203843294054" lon="12.111785508519551"><ele>356.0</ele><time>2026-04-28T14:39:16.001Z</time></trkpt><trkpt lat="42.423244893361996" lon="12.111711109104075"><ele>356.0</ele><time>2026-04-28T14:39:17.001Z</time></trkpt><trkpt lat="42.423266092261784" lon="12.111589355682417"><ele>356.0</ele><time>2026-04-28T14:39:18.001Z</time></trkpt><trkpt lat="42.42327773267555" lon="12.111421883943084"><ele>356.0</ele><time>2026-04-28T14:39:20.001Z</time></trkpt><trkpt lat="42.42329786451805" lon="12.111334499902394"><ele>356.0</ele><time>2026-04-28T14:39:21.001Z</time></trkpt><trkpt lat="42.42332085263373" lon="12.111216957252866"><ele>356.0</ele><time>2026-04-28T14:39:22.001Z</time></trkpt><trkpt lat="42.42334613792374" lon="12.111116987537626"><ele>356.0</ele><time>2026-04-28T14:39:23.001Z</time></trkpt><trkpt lat="42.42337056876993" lon="12.111020726903627"><ele>356.0</ele><time>2026-04-28T14:39:24.001Z</time></trkpt><trkpt lat="42.42339133404617" lon="12.110939784547652"><ele>356.0</ele><time>2026-04-28T14:39:25.001Z</time></trkpt><trkpt lat="42.42342553189855" lon="12.11082361770394"><ele>356.0</ele><time>2026-04-28T14:39:27.001Z</time></trkpt><trkpt lat="42.42343137891291" lon="12.110718536388218"><ele>356.0</ele><time>2026-04-28T14:39:30.001Z</time></trkpt><trkpt lat="42.423238089604745" lon="12.110709091436373"><ele>356.0</ele><time>2026-04-28T14:39:35.001Z</time></trkpt><trkpt lat="42.423162625444206" lon="12.110735061831722"><ele>356.0</ele><time>2026-04-28T14:39:37.001Z</time></trkpt><trkpt lat="42.423048730796594" lon="12.11083682585633"><ele>356.0</ele><time>2026-04-28T14:39:39.001Z</time></trkpt><trkpt lat="42.42298424242857" lon="12.110918457038089"><ele>356.0</ele><time>2026-04-28T14:39:40.001Z</time></trkpt><trkpt lat="42.42292468007872" lon="12.110976461915932"><ele>356.0</ele><time>2026-04-28T14:39:41.001Z</time></trkpt><trkpt lat="42.42283595065407" lon="12.111052574256039"><ele>356.0</ele><time>2026-04-28T14:39:43Z</time></trkpt><trkpt lat="42.4227809743103" lon="12.11110328220499"><ele>356.0</ele><time>2026-04-28T14:39:45Z</time></trkpt><trkpt lat="42.42273811471966" lon="12.111186455072247"><ele>356.0</ele><time>2026-04-28T14:39:51Z</time></trkpt><trkpt lat="42.422816281784606" lon="12.111126722878916"><ele>356.0</ele><time>2026-04-28T14:41:50Z</time></trkpt><trkpt lat="42.422887462082166" lon="12.111010079494463"><ele>356.0</ele><time>2026-04-28T14:41:52Z</time></trkpt><trkpt lat="42.42295225138631" lon="12.110955552058503"><ele>356.0</ele><time>2026-04-28T14:41:53Z</time></trkpt><trkpt lat="42.4230159043413" lon="12.110911119257663"><ele>356.0</ele><time>2026-04-28T14:41:54Z</time></trkpt><trkpt lat="42.423095246557594" lon="12.110835711117991"><ele>356.0</ele><time>2026-04-28T14:41:56Z</time></trkpt><trkpt lat="42.42315579684297" lon="12.110779016478284"><ele>356.0</ele><time>2026-04-28T14:41:58Z</time></trkpt><trkpt lat="42.423228954063546" lon="12.11072118329406"><ele>356.0</ele><time>2026-04-28T14:42:00Z</time></trkpt><trkpt lat="42.42331152040978" lon="12.11065814073844"><ele>356.0</ele><time>2026-04-28T14:42:02Z</time></trkpt><trkpt lat="42.42338268710974" lon="12.11058313758321"><ele>356.0</ele><time>2026-04-28T14:42:04Z</time></trkpt><trkpt lat="42.42343975566951" lon="12.110544139728326"><ele>355.33333333333337</ele><time>2026-04-28T14:42:05Z</time></trkpt><trkpt lat="42.42353671876206" lon="12.110452847991242"><ele>354.6666666666667</ele><time>2026-04-28T14:42:07Z</time></trkpt><trkpt lat="42.42361076232386" lon="12.110399073693053"><ele>354.0</ele><time>2026-04-28T14:42:08Z</time></trkpt><trkpt lat="42.42367824494661" lon="12.110341643494024"><ele>353.3333333333333</ele><time>2026-04-28T14:42:09Z</time></trkpt><trkpt lat="42.42373806363472" lon="12.110290735662597"><ele>352.66666666666663</ele><time>2026-04-28T14:42:10Z</time></trkpt><trkpt lat="42.423818807121776" lon="12.110224947105525"><ele>352.0</ele><time>2026-04-28T14:42:11Z</time></trkpt><trkpt lat="42.42389875459938" lon="12.11016196080505"><ele>352.0</ele><time>2026-04-28T14:42:12Z</time></trkpt><trkpt lat="42.42396208933007" lon="12.11011732747127"><ele>352.0</ele><time>2026-04-28T14:42:13Z</time></trkpt><trkpt lat="42.42405913334642" lon="12.110055593040322"><ele>352.0</ele><time>2026-04-28T14:42:15Z</time></trkpt><trkpt lat="42.42412207840904" lon="12.109994737854114"><ele>352.0</ele><time>2026-04-28T14:42:18Z</time></trkpt><trkpt lat="42.42413487701541" lon="12.109842429642097"><ele>352.0</ele><time>2026-04-28T14:42:21Z</time></trkpt><trkpt lat="42.424104272026575" lon="12.109760643567633"><ele>352.0</ele><time>2026-04-28T14:42:22Z</time></trkpt><trkpt lat="42.42407807746338" lon="12.109662063739558"><ele>351.8</ele><time>2026-04-28T14:42:23Z</time></trkpt><trkpt lat="42.42404783108711" lon="12.109552353099325"><ele>351.6</ele><time>2026-04-28T14:42:24Z</time></trkpt><trkpt lat="42.424017730732444" lon="12.109445389464176"><ele>351.40000000000003</ele><time>2026-04-28T14:42:25Z</time></trkpt><trkpt lat="42.42398287392984" lon="12.109329878786777"><ele>351.20000000000005</ele><time>2026-04-28T14:42:26Z</time></trkpt><trkpt lat="42.42394671645789" lon="12.10920450205924"><ele>351.0</ele><time>2026-04-28T14:42:27Z</time></trkpt><trkpt lat="42.42390773708973" lon="12.109075077163775"><ele>350.4</ele><time>2026-04-28T14:42:28Z</time></trkpt><trkpt lat="42.4238698964044" lon="12.108946269257338"><ele>349.8</ele><time>2026-04-28T14:42:29Z</time></trkpt><trkpt lat="42.42383518791424" lon="12.108823224096138"><ele>349.2</ele><time>2026-04-28T14:42:30Z</time></trkpt><trkpt lat="42.42380262824727" lon="12.108702543200632"><ele>348.59999999999997</ele><time>2026-04-28T14:42:31Z</time></trkpt><trkpt lat="42.423772152035866" lon="12.108588941697217"><ele>348.0</ele><time>2026-04-28T14:42:32Z</time></trkpt><trkpt lat="42.423744075604446" lon="12.108476367210972"><ele>347.5</ele><time>2026-04-28T14:42:33Z</time></trkpt><trkpt lat="42.42370970735503" lon="12.108360427276201"><ele>347.0</ele><time>2026-04-28T14:42:34Z</time></trkpt><trkpt lat="42.4236732135107" lon="12.108258959802756"><ele>346.5</ele><time>2026-04-28T14:42:35Z</time></trkpt><trkpt lat="42.42363920628846" lon="12.108165568516922"><ele>346.0</ele><time>2026-04-28T14:42:36Z</time></trkpt><trkpt lat="42.423618372409145" lon="12.108078457495617"><ele>345.5</ele><time>2026-04-28T14:42:37Z</time></trkpt><trkpt lat="42.423593820386245" lon="12.107920219496238"><ele>345.0</ele><time>2026-04-28T14:42:39Z</time></trkpt><trkpt lat="42.42356502332649" lon="12.107821990880021"><ele>344.6666666666667</ele><time>2026-04-28T14:42:41Z</time></trkpt><trkpt lat="42.423543012763794" lon="12.107713892357673"><ele>344.3333333333333</ele><time>2026-04-28T14:42:47Z</time></trkpt><trkpt lat="42.42351524110211" lon="12.107603168751487"><ele>344.0</ele><time>2026-04-28T14:42:49Z</time></trkpt><trkpt lat="42.423471640769016" lon="12.107484860049466"><ele>343.66666666666663</ele><time>2026-04-28T14:42:51Z</time></trkpt><trkpt lat="42.423427976854335" lon="12.10739779364035"><ele>343.3333333333333</ele><time>2026-04-28T14:42:53Z</time></trkpt><trkpt lat="42.42337709790096" lon="12.10727426324515"><ele>343.0</ele><time>2026-04-28T14:42:55Z</time></trkpt><trkpt lat="42.42334292438382" lon="12.107176179604018"><ele>343.0</ele><time>2026-04-28T14:42:57Z</time></trkpt><trkpt lat="42.42330743099046" lon="12.107080824236716"><ele>343.0</ele><time>2026-04-28T14:43:01Z</time></trkpt><trkpt lat="42.42327330539448" lon="12.106983706052361"><ele>343.0</ele><time>2026-04-28T14:43:03Z</time></trkpt><trkpt lat="42.423224207358466" lon="12.106845976804546"><ele>343.0</ele><time>2026-04-28T14:43:05Z</time></trkpt><trkpt lat="42.423188618718534" lon="12.106721049532382"><ele>343.0</ele><time>2026-04-28T14:43:07Z</time></trkpt><trkpt lat="42.423151731356704" lon="12.10657949882059"><ele>343.0</ele><time>2026-04-28T14:43:09Z</time></trkpt><trkpt lat="42.42312563421967" lon="12.106483822786847"><ele>343.0</ele><time>2026-04-28T14:43:10Z</time></trkpt><trkpt lat="42.42309189546421" lon="12.106367877598446"><ele>343.0</ele><time>2026-04-28T14:43:11Z</time></trkpt><trkpt lat="42.423049408905136" lon="12.106237645390609"><ele>343.0</ele><time>2026-04-28T14:43:12Z</time></trkpt><trkpt lat="42.42301029253993" lon="12.106093524965804"><ele>343.0</ele><time>2026-04-28T14:43:13Z</time></trkpt><trkpt lat="42.42297021079564" lon="12.105956812868001"><ele>343.0</ele><time>2026-04-28T14:43:14Z</time></trkpt><trkpt lat="42.422938944611445" lon="12.105843209896475"><ele>343.0</ele><time>2026-04-28T14:43:15Z</time></trkpt><trkpt lat="42.42291230146277" lon="12.105749638757002"><ele>343.0</ele><time>2026-04-28T14:43:16Z</time></trkpt><trkpt lat="42.42288630118367" lon="12.10566339037942"><ele>343.0</ele><time>2026-04-28T14:43:17Z</time></trkpt><trkpt lat="42.42284023039066" lon="12.105522465476733"><ele>343.0</ele><time>2026-04-28T14:43:19Z</time></trkpt><trkpt lat="42.42281086623785" lon="12.10543139954824"><ele>343.0</ele><time>2026-04-28T14:43:21Z</time></trkpt><trkpt lat="42.422740268797426" lon="12.105367959404754"><ele>343.0</ele><time>2026-04-28T14:43:29Z</time></trkpt><trkpt lat="42.42272258369147" lon="12.105471219614893"><ele>343.0</ele><time>2026-04-28T14:43:33Z</time></trkpt><trkpt lat="42.422734741721364" lon="12.105569875838823"><ele>343.0</ele><time>2026-04-28T14:43:35Z</time></trkpt><trkpt lat="42.42272906201032" lon="12.105692209266275"><ele>343.0</ele><time>2026-04-28T14:43:37.001Z</time></trkpt><trkpt lat="42.42274264196015" lon="12.105780883432484"><ele>343.0</ele><time>2026-04-28T14:43:38.001Z</time></trkpt><trkpt lat="42.42276510829251" lon="12.105871204127988"><ele>343.0</ele><time>2026-04-28T14:43:39.001Z</time></trkpt><trkpt lat="42.42278876638423" lon="12.105971844616928"><ele>343.3333333333333</ele><time>2026-04-28T14:43:40.001Z</time></trkpt><trkpt lat="42.42281103405642" lon="12.106078053130014"><ele>343.66666666666663</ele><time>2026-04-28T14:43:41.001Z</time></trkpt><trkpt lat="42.42283403604632" lon="12.106170174760514"><ele>344.0</ele><time>2026-04-28T14:43:42.001Z</time></trkpt><trkpt lat="42.42285299498274" lon="12.106257028219328"><ele>344.3333333333333</ele><time>2026-04-28T14:43:43.001Z</time></trkpt><trkpt lat="42.422867721927695" lon="12.106374908824424"><ele>344.6666666666667</ele><time>2026-04-28T14:43:44.001Z</time></trkpt><trkpt lat="42.42288083700343" lon="12.106525439319512"><ele>345.0</ele><time>2026-04-28T14:43:45Z</time></trkpt><trkpt lat="42.42289900608271" lon="12.10669870381909"><ele>345.25</ele><time>2026-04-28T14:43:46Z</time></trkpt><trkpt lat="42.42291451930056" lon="12.106877937281967"><ele>345.5</ele><time>2026-04-28T14:43:47Z</time></trkpt><trkpt lat="42.422925607794724" lon="12.107038372999787"><ele>345.75</ele><time>2026-04-28T14:43:48Z</time></trkpt><trkpt lat="42.42293975174814" lon="12.107186895105311"><ele>346.0</ele><time>2026-04-28T14:43:49Z</time></trkpt><trkpt lat="42.422945097536335" lon="12.107325987605451"><ele>345.3333333333333</ele><time>2026-04-28T14:43:50Z</time></trkpt><trkpt lat="42.42293379870394" lon="12.107442970076018"><ele>344.66666666666663</ele><time>2026-04-28T14:43:51Z</time></trkpt><trkpt lat="42.42290999806143" lon="12.107544560002324"><ele>344.0</ele><time>2026-04-28T14:43:52Z</time></trkpt><trkpt lat="42.4228699354804" lon="12.107635592618873"><ele>343.3333333333333</ele><time>2026-04-28T14:43:53Z</time></trkpt><trkpt lat="42.42280674273802" lon="12.107724156219179"><ele>342.6666666666667</ele><time>2026-04-28T14:43:54Z</time></trkpt><trkpt lat="42.42272138465092" lon="12.107819177438646"><ele>342.0</ele><time>2026-04-28T14:43:55Z</time></trkpt><trkpt lat="42.42263656598441" lon="12.107962821862298"><ele>342.0</ele><time>2026-04-28T14:43:56Z</time></trkpt><trkpt lat="42.42255420476028" lon="12.108100639068871"><ele>342.0</ele><time>2026-04-28T14:43:57Z</time></trkpt><trkpt lat="42.422492229529524" lon="12.108230228497963"><ele>342.0</ele><time>2026-04-28T14:43:58Z</time></trkpt><trkpt lat="42.42235389115705" lon="12.108292313251285"><ele>342.0</ele><time>2026-04-28T14:43:59Z</time></trkpt><trkpt lat="42.422263423029825" lon="12.10841147792152"><ele>341.25</ele><time>2026-04-28T14:44:00Z</time></trkpt><trkpt lat="42.422181293596466" lon="12.108522078952666"><ele>340.5</ele><time>2026-04-28T14:44:01Z</time></trkpt><trkpt lat="42.42209686435587" lon="12.108632608499537"><ele>339.75</ele><time>2026-04-28T14:44:02Z</time></trkpt><trkpt lat="42.42201035582212" lon="12.108739129631855"><ele>339.0</ele><time>2026-04-28T14:44:03Z</time></trkpt><trkpt lat="42.42193290666522" lon="12.10884248364074"><ele>338.6</ele><time>2026-04-28T14:44:04Z</time></trkpt><trkpt lat="42.421871764759636" lon="12.108928547718127"><ele>338.2</ele><time>2026-04-28T14:44:05Z</time></trkpt><trkpt lat="42.42181781640397" lon="12.108998699939033"><ele>337.8</ele><time>2026-04-28T14:44:06Z</time></trkpt><trkpt lat="42.42173662173994" lon="12.109086814226723"><ele>337.40000000000003</ele><time>2026-04-28T14:44:08Z</time></trkpt><trkpt lat="42.421602778171625" lon="12.10893923381918"><ele>337.0</ele><time>2026-04-28T14:44:10Z</time></trkpt><trkpt lat="42.4215297353053" lon="12.108830621100115"><ele>336.66666666666663</ele><time>2026-04-28T14:44:11Z</time></trkpt><trkpt lat="42.42145157517548" lon="12.108723502642563"><ele>336.3333333333333</ele><time>2026-04-28T14:44:12Z</time></trkpt><trkpt lat="42.42137194454957" lon="12.108630951904475"><ele>336.0</ele><time>2026-04-28T14:44:13Z</time></trkpt><trkpt lat="42.42130941923063" lon="12.108546446156884"><ele>335.6666666666667</ele><time>2026-04-28T14:44:14Z</time></trkpt><trkpt lat="42.42125976102146" lon="12.108464537609779"><ele>335.33333333333337</ele><time>2026-04-28T14:44:15Z</time></trkpt><trkpt lat="42.42121322733884" lon="12.108402115973039"><ele>335.0</ele><time>2026-04-28T14:44:16Z</time></trkpt><trkpt lat="42.421141059457405" lon="12.108305912998263"><ele>334.5</ele><time>2026-04-28T14:44:18Z</time></trkpt><trkpt lat="42.4210889800874" lon="12.108228284928769"><ele>334.0</ele><time>2026-04-28T14:44:20Z</time></trkpt><trkpt lat="42.42103596877138" lon="12.108168678739661"><ele>333.5</ele><time>2026-04-28T14:44:22Z</time></trkpt><trkpt lat="42.4209859967629" lon="12.108108246323226"><ele>333.0</ele><time>2026-04-28T14:44:25Z</time></trkpt><trkpt lat="42.420911449581325" lon="12.108033115710246"><ele>332.5</ele><time>2026-04-28T14:46:34Z</time></trkpt><trkpt lat="42.42079779836721" lon="12.107961821054104"><ele>332.0</ele><time>2026-04-28T14:46:36Z</time></trkpt><trkpt lat="42.420700739645476" lon="12.107881432259145"><ele>332.0</ele><time>2026-04-28T14:46:38Z</time></trkpt><trkpt lat="42.42061669064926" lon="12.107797622903018"><ele>332.0</ele><time>2026-04-28T14:46:40Z</time></trkpt><trkpt lat="42.420539638597816" lon="12.107693077325392"><ele>332.0</ele><time>2026-04-28T14:46:42Z</time></trkpt><trkpt lat="42.42049605226578" lon="12.107630117467123"><ele>332.0</ele><time>2026-04-28T14:46:43Z</time></trkpt><trkpt lat="42.42037846367522" lon="12.107638511061765"><ele>332.0</ele><time>2026-04-28T14:46:44Z</time></trkpt><trkpt lat="42.420306448392076" lon="12.10760168784062"><ele>333.1666666666667</ele><time>2026-04-28T14:46:45Z</time></trkpt><trkpt lat="42.42023398715828" lon="12.10756353846936"><ele>334.33333333333337</ele><time>2026-04-28T14:46:46Z</time></trkpt><trkpt lat="42.42016329904494" lon="12.10752583890397"><ele>335.5</ele><time>2026-04-28T14:46:47Z</time></trkpt><trkpt lat="42.420089251986276" lon="12.107486024581922"><ele>336.6666666666667</ele><time>2026-04-28T14:46:48Z</time></trkpt><trkpt lat="42.42001404745828" lon="12.107445174638693"><ele>337.8333333333333</ele><time>2026-04-28T14:46:49Z</time></trkpt><trkpt lat="42.4199337074324" lon="12.107393469713818"><ele>339.0</ele><time>2026-04-28T14:46:50Z</time></trkpt><trkpt lat="42.419860605254705" lon="12.107361432149835"><ele>339.0</ele><time>2026-04-28T14:46:51Z</time></trkpt><trkpt lat="42.41980767805562" lon="12.107304716627153"><ele>339.0</ele><time>2026-04-28T14:46:52Z</time></trkpt><trkpt lat="42.419730635167106" lon="12.10727543560769"><ele>339.0</ele><time>2026-04-28T14:46:53Z</time></trkpt><trkpt lat="42.419699113533845" lon="12.107165384097879"><ele>339.0</ele><time>2026-04-28T14:46:54Z</time></trkpt><trkpt lat="42.419632986959556" lon="12.107117970970956"><ele>339.0</ele><time>2026-04-28T14:46:55Z</time></trkpt><trkpt lat="42.41956943894584" lon="12.107057947786142"><ele>339.0</ele><time>2026-04-28T14:46:56Z</time></trkpt><trkpt lat="42.4195119091155" lon="12.106987563591947"><ele>339.3333333333333</ele><time>2026-04-28T14:46:57Z</time></trkpt><trkpt lat="42.41944671080825" lon="12.106944525121701"><ele>339.6666666666667</ele><time>2026-04-28T14:46:58Z</time></trkpt><trkpt lat="42.419375814026914" lon="12.106910196297724"><ele>340.0</ele><time>2026-04-28T14:46:59Z</time></trkpt><trkpt lat="42.41930022454084" lon="12.106877770210216"><ele>340.33333333333337</ele><time>2026-04-28T14:47:00Z</time></trkpt><trkpt lat="42.41924151294397" lon="12.106823669273442"><ele>340.6666666666667</ele><time>2026-04-28T14:47:01Z</time></trkpt><trkpt lat="42.41917529477922" lon="12.106790774514291"><ele>341.0</ele><time>2026-04-28T14:47:02Z</time></trkpt><trkpt lat="42.41907039852159" lon="12.10673840437302"><ele>341.0</ele><time>2026-04-28T14:47:04Z</time></trkpt><trkpt lat="42.419005844080424" lon="12.106705613594494"><ele>341.0</ele><time>2026-04-28T14:47:05Z</time></trkpt><trkpt lat="42.418945322285595" lon="12.106672884362833"><ele>341.0</ele><time>2026-04-28T14:47:06Z</time></trkpt><trkpt lat="42.41883810283936" lon="12.106649784349967"><ele>341.0</ele><time>2026-04-28T14:47:08Z</time></trkpt><trkpt lat="42.41875633034647" lon="12.106611303028037"><ele>341.0</ele><time>2026-04-28T14:47:10Z</time></trkpt><trkpt lat="42.41868015405006" lon="12.106568004703197"><ele>341.0</ele><time>2026-04-28T14:47:12Z</time></trkpt><trkpt lat="42.41859880121518" lon="12.10651796413511"><ele>340.0</ele><time>2026-04-28T14:47:14Z</time></trkpt><trkpt lat="42.418546884728954" lon="12.106464847644"><ele>339.0</ele><time>2026-04-28T14:47:15Z</time></trkpt><trkpt lat="42.41848324020107" lon="12.106445243672626"><ele>338.0</ele><time>2026-04-28T14:47:16Z</time></trkpt><trkpt lat="42.41843353316792" lon="12.106388386188968"><ele>337.0</ele><time>2026-04-28T14:47:17Z</time></trkpt><trkpt lat="42.41837232273369" lon="12.106359259661355"><ele>336.0</ele><time>2026-04-28T14:47:18Z</time></trkpt><trkpt lat="42.41831246475694" lon="12.106312998260467"><ele>335.0</ele><time>2026-04-28T14:47:19Z</time></trkpt><trkpt lat="42.418250791304985" lon="12.106261868813524"><ele>334.0</ele><time>2026-04-28T14:47:20Z</time></trkpt><trkpt lat="42.41818311320235" lon="12.106205761827088"><ele>334.0</ele><time>2026-04-28T14:47:21Z</time></trkpt><trkpt lat="42.41807680654638" lon="12.106141589774126"><ele>334.0</ele><time>2026-04-28T14:47:23Z</time></trkpt><trkpt lat="42.41797697831799" lon="12.106084827299496"><ele>334.0</ele><time>2026-04-28T14:47:25Z</time></trkpt><trkpt lat="42.417904934179404" lon="12.106036821612765"><ele>334.0</ele><time>2026-04-28T14:47:27Z</time></trkpt><trkpt lat="42.41785307829507" lon="12.105974183983683"><ele>334.0</ele><time>2026-04-28T14:47:30Z</time></trkpt><trkpt lat="42.41776887159874" lon="12.105952831856476"><ele>334.79999999999995</ele><time>2026-04-28T14:55:41Z</time></trkpt><trkpt lat="42.41770923255128" lon="12.106069149474298"><ele>335.59999999999997</ele><time>2026-04-28T14:55:43Z</time></trkpt><trkpt lat="42.41767073768909" lon="12.106164791889338"><ele>336.4</ele><time>2026-04-28T14:55:49Z</time></trkpt><trkpt lat="42.417616026750565" lon="12.106271811127069"><ele>337.2</ele><time>2026-04-28T14:55:51Z</time></trkpt><trkpt lat="42.41757449186013" lon="12.106428713790715"><ele>338.0</ele><time>2026-04-28T14:55:53Z</time></trkpt><trkpt lat="42.4175424696576" lon="12.106520604491234"><ele>339.0</ele><time>2026-04-28T14:55:54Z</time></trkpt><trkpt lat="42.41750544192503" lon="12.106625817746883"><ele>340.0</ele><time>2026-04-28T14:55:55Z</time></trkpt><trkpt lat="42.41747168597818" lon="12.106721923689513"><ele>341.0</ele><time>2026-04-28T14:55:56Z</time></trkpt><trkpt lat="42.41743700845154" lon="12.106818154725419"><ele>342.0</ele><time>2026-04-28T14:55:57Z</time></trkpt><trkpt lat="42.417399372868005" lon="12.106905798186112"><ele>343.0</ele><time>2026-04-28T14:55:58Z</time></trkpt><trkpt lat="42.41735610911272" lon="12.106991077129498"><ele>344.0</ele><time>2026-04-28T14:55:59Z</time></trkpt><trkpt lat="42.41730208877836" lon="12.107066254851933"><ele>344.0</ele><time>2026-04-28T14:56:00Z</time></trkpt><trkpt lat="42.41723919131422" lon="12.107117661384144"><ele>344.0</ele><time>2026-04-28T14:56:01Z</time></trkpt><trkpt lat="42.41719411906999" lon="12.107182536536195"><ele>344.0</ele><time>2026-04-28T14:56:02Z</time></trkpt><trkpt lat="42.417154456500526" lon="12.107249703595754"><ele>344.0</ele><time>2026-04-28T14:56:03Z</time></trkpt><trkpt lat="42.41708623967401" lon="12.107327694196096"><ele>344.0</ele><time>2026-04-28T14:56:05Z</time></trkpt><trkpt lat="42.416980422097254" lon="12.107405116549693"><ele>344.0</ele><time>2026-04-28T14:56:08Z</time></trkpt><trkpt lat="42.41693459352046" lon="12.107479373092763"><ele>345.4</ele><time>2026-04-28T14:56:10Z</time></trkpt><trkpt lat="42.41687091797732" lon="12.107572133903775"><ele>346.79999999999995</ele><time>2026-04-28T14:56:12Z</time></trkpt><trkpt lat="42.416787928611434" lon="12.107646779101689"><ele>348.20000000000005</ele><time>2026-04-28T14:56:14Z</time></trkpt><trkpt lat="42.41669111358156" lon="12.107743659746975"><ele>349.6</ele><time>2026-04-28T14:56:16Z</time></trkpt><trkpt lat="42.41661797366408" lon="12.107842499392579"><ele>351.0</ele><time>2026-04-28T14:56:18Z</time></trkpt><trkpt lat="42.416558119950196" lon="12.10787401784099"><ele>351.0</ele><time>2026-04-28T14:56:24.998Z</time></trkpt><trkpt lat="42.41650676417948" lon="12.107931720136905"><ele>351.0</ele><time>2026-04-28T14:57:08.999Z</time></trkpt><trkpt lat="42.41640800544772" lon="12.108030528027403"><ele>351.0</ele><time>2026-04-28T14:57:10.999Z</time></trkpt><trkpt lat="42.4163367756659" lon="12.108086795069266"><ele>351.0</ele><time>2026-04-28T14:57:11.999Z</time></trkpt><trkpt lat="42.41625638344517" lon="12.108107076522767"><ele>351.0</ele><time>2026-04-28T14:57:12.999Z</time></trkpt><trkpt lat="42.4161515266107" lon="12.10816777325705"><ele>351.0</ele><time>2026-04-28T14:57:14.999Z</time></trkpt><trkpt lat="42.416086419323115" lon="12.108177621125135"><ele>351.0</ele><time>2026-04-28T14:57:15.999Z</time></trkpt><trkpt lat="42.41601231986814" lon="12.108182482417622"><ele>351.0</ele><time>2026-04-28T14:57:16.999Z</time></trkpt><trkpt lat="42.41590004677783" lon="12.10819866095383"><ele>351.0</ele><time>2026-04-28T14:57:18.999Z</time></trkpt><trkpt lat="42.41580290547001" lon="12.108238633424056"><ele>351.0</ele><time>2026-04-28T14:57:20.999Z</time></trkpt><trkpt lat="42.41569508960063" lon="12.108290884545749"><ele>351.6</ele><time>2026-04-28T14:57:22.999Z</time></trkpt><trkpt lat="42.41561094964639" lon="12.108302650646152"><ele>352.20000000000005</ele><time>2026-04-28T14:57:24.999Z</time></trkpt><trkpt lat="42.41552186521523" lon="12.108347313399978"><ele>352.79999999999995</ele><time>2026-04-28T14:57:26.999Z</time></trkpt><trkpt lat="42.41542296225226" lon="12.10836580392268"><ele>353.4</ele><time>2026-04-28T14:57:28.999Z</time></trkpt><trkpt lat="42.41530094073863" lon="12.10842226334147"><ele>354.0</ele><time>2026-04-28T14:57:30.999Z</time></trkpt><trkpt lat="42.41522884783702" lon="12.10843072455503"><ele>354.2</ele><time>2026-04-28T14:57:31.999Z</time></trkpt><trkpt lat="42.415160320691555" lon="12.108444656321097"><ele>354.4</ele><time>2026-04-28T14:57:32.999Z</time></trkpt><trkpt lat="42.415040736296135" lon="12.108433610366863"><ele>354.6</ele><time>2026-04-28T14:57:34.999Z</time></trkpt><trkpt lat="42.41493809157474" lon="12.108447442161703"><ele>354.8</ele><time>2026-04-28T14:57:36.999Z</time></trkpt><trkpt lat="42.414865353353626" lon="12.108446129305234"><ele>355.0</ele><time>2026-04-28T14:57:38.999Z</time></trkpt><trkpt lat="42.41479242676681" lon="12.108384952071333"><ele>355.0</ele><time>2026-04-28T14:57:41.999Z</time></trkpt><trkpt lat="42.414786008787544" lon="12.108295210387757"><ele>355.0</ele><time>2026-04-28T14:57:42.999Z</time></trkpt><trkpt lat="42.41478464267123" lon="12.108166608103346"><ele>355.0</ele><time>2026-04-28T14:57:43.999Z</time></trkpt><trkpt lat="42.41478819758763" lon="12.108058225781274"><ele>355.0</ele><time>2026-04-28T14:57:44.999Z</time></trkpt><trkpt lat="42.41481954708482" lon="12.107918200090888"><ele>355.0</ele><time>2026-04-28T14:57:45.999Z</time></trkpt><trkpt lat="42.41485189504205" lon="12.107831518766938"><ele>355.0</ele><time>2026-04-28T14:57:46.999Z</time></trkpt><trkpt lat="42.41487192541763" lon="12.107742170915298"><ele>353.8</ele><time>2026-04-28T14:57:47.999Z</time></trkpt><trkpt lat="42.41490659355261" lon="12.107650550091602"><ele>352.6</ele><time>2026-04-28T14:57:48.999Z</time></trkpt><trkpt lat="42.414937377060056" lon="12.107565612690971"><ele>351.4</ele><time>2026-04-28T14:57:49.999Z</time></trkpt><trkpt lat="42.41501116672435" lon="12.107440098871031"><ele>350.2</ele><time>2026-04-28T14:57:51.999Z</time></trkpt><trkpt lat="42.41508839269366" lon="12.10731739941495"><ele>349.0</ele><time>2026-04-28T14:57:53.999Z</time></trkpt><trkpt lat="42.41513859166517" lon="12.107243729753565"><ele>348.6</ele><time>2026-04-28T14:57:54.999Z</time></trkpt><trkpt lat="42.415207631996445" lon="12.107148912224394"><ele>348.2</ele><time>2026-04-28T14:57:56.999Z</time></trkpt><trkpt lat="42.4152821013812" lon="12.107077079773886"><ele>347.8</ele><time>2026-04-28T14:57:58.999Z</time></trkpt><trkpt lat="42.41535334847176" lon="12.106995498767988"><ele>347.40000000000003</ele><time>2026-04-28T14:58:00.999Z</time></trkpt><trkpt lat="42.4154304859815" lon="12.106898191113626"><ele>347.0</ele><time>2026-04-28T14:58:02.999Z</time></trkpt><trkpt lat="42.41550725259212" lon="12.106788884723851"><ele>346.6</ele><time>2026-04-28T14:58:04.999Z</time></trkpt><trkpt lat="42.41559903337381" lon="12.106675628627444"><ele>346.20000000000005</ele><time>2026-04-28T14:58:07Z</time></trkpt><trkpt lat="42.41564401264122" lon="12.1066134210497"><ele>345.8</ele><time>2026-04-28T14:58:08Z</time></trkpt><trkpt lat="42.415709674771385" lon="12.106514623806543"><ele>345.4</ele><time>2026-04-28T14:58:10Z</time></trkpt><trkpt lat="42.41579202600461" lon="12.106404793905908"><ele>345.0</ele><time>2026-04-28T14:58:12Z</time></trkpt><trkpt lat="42.415853409859196" lon="12.106345274786936"><ele>344.3333333333333</ele><time>2026-04-28T14:58:13Z</time></trkpt><trkpt lat="42.415915143533006" lon="12.10627935954397"><ele>343.6666666666667</ele><time>2026-04-28T14:58:14Z</time></trkpt><trkpt lat="42.415975769235565" lon="12.106210332060368"><ele>343.0</ele><time>2026-04-28T14:58:15Z</time></trkpt><trkpt lat="42.41603340781619" lon="12.10613931999994"><ele>342.33333333333337</ele><time>2026-04-28T14:58:16Z</time></trkpt><trkpt lat="42.416089357344575" lon="12.106062835053288"><ele>341.6666666666667</ele><time>2026-04-28T14:58:17Z</time></trkpt><trkpt lat="42.41615235071483" lon="12.105999968513826"><ele>341.0</ele><time>2026-04-28T14:58:18Z</time></trkpt><trkpt lat="42.41620548851482" lon="12.105925593612616"><ele>341.0</ele><time>2026-04-28T14:58:19Z</time></trkpt><trkpt lat="42.41625810624319" lon="12.105859211897693"><ele>341.0</ele><time>2026-04-28T14:58:20Z</time></trkpt><trkpt lat="42.41631176480712" lon="12.105789881089452"><ele>341.0</ele><time>2026-04-28T14:58:21Z</time></trkpt><trkpt lat="42.41636349851241" lon="12.105720538620535"><ele>341.0</ele><time>2026-04-28T14:58:22Z</time></trkpt><trkpt lat="42.41641395834928" lon="12.105658233905126"><ele>341.0</ele><time>2026-04-28T14:58:23Z</time></trkpt><trkpt lat="42.416462999520434" lon="12.10559862662033"><ele>341.0</ele><time>2026-04-28T14:58:24Z</time></trkpt><trkpt lat="42.41651118906428" lon="12.105541437752455"><ele>341.0</ele><time>2026-04-28T14:58:24.997Z</time></trkpt><trkpt lat="42.4165955044138" lon="12.105429064473787"><ele>339.83333333333337</ele><time>2026-04-28T14:58:26.997Z</time></trkpt><trkpt lat="42.416653412914464" lon="12.105351057258762"><ele>338.6666666666667</ele><time>2026-04-28T14:58:28.997Z</time></trkpt><trkpt lat="42.41670366874363" lon="12.105291507122153"><ele>337.5</ele><time>2026-04-28T14:58:30.997Z</time></trkpt><trkpt lat="42.41675824905888" lon="12.105213328779959"><ele>336.3333333333333</ele><time>2026-04-28T14:58:32.997Z</time></trkpt><trkpt lat="42.41681442375264" lon="12.105116095835264"><ele>335.16666666666663</ele><time>2026-04-28T14:58:34.997Z</time></trkpt><trkpt lat="42.416869522189856" lon="12.105068443203624"><ele>334.0</ele><time>2026-04-28T14:58:35.997Z</time></trkpt><trkpt lat="42.41696584076027" lon="12.10506699353195"><ele>334.0</ele><time>2026-04-28T14:58:36.997Z</time></trkpt><trkpt lat="42.41705842279301" lon="12.105005205953331"><ele>334.0</ele><time>2026-04-28T14:58:37.997Z</time></trkpt><trkpt lat="42.417133770092086" lon="12.104943403848798"><ele>334.0</ele><time>2026-04-28T14:58:38.997Z</time></trkpt><trkpt lat="42.41718663989563" lon="12.104883588749377"><ele>334.0</ele><time>2026-04-28T14:58:39.997Z</time></trkpt><trkpt lat="42.41727857479277" lon="12.104754716102432"><ele>334.0</ele><time>2026-04-28T14:58:41.997Z</time></trkpt><trkpt lat="42.417330356559894" lon="12.104705080071325"><ele>332.0</ele><time>2026-04-28T14:58:42.997Z</time></trkpt><trkpt lat="42.41740125710112" lon="12.104680591743001"><ele>330.0</ele><time>2026-04-28T14:58:43.998Z</time></trkpt><trkpt lat="42.417490569983" lon="12.104655803374197"><ele>328.0</ele><time>2026-04-28T14:58:44.998Z</time></trkpt><trkpt lat="42.417574220598546" lon="12.104623911824405"><ele>326.0</ele><time>2026-04-28T14:58:45.998Z</time></trkpt><trkpt lat="42.417642116335486" lon="12.104597355938315"><ele>324.0</ele><time>2026-04-28T14:58:46.998Z</time></trkpt><trkpt lat="42.41770604408463" lon="12.104605096285955"><ele>322.0</ele><time>2026-04-28T14:58:47.998Z</time></trkpt><trkpt lat="42.41777022794542" lon="12.104589992018008"><ele>322.0</ele><time>2026-04-28T14:58:48.998Z</time></trkpt><trkpt lat="42.41784142139278" lon="12.104551705817869"><ele>322.0</ele><time>2026-04-28T14:58:49.998Z</time></trkpt><trkpt lat="42.417921526493465" lon="12.104547216150563"><ele>322.0</ele><time>2026-04-28T14:58:50.998Z</time></trkpt><trkpt lat="42.417999300978295" lon="12.104532354465396"><ele>322.0</ele><time>2026-04-28T14:58:51.998Z</time></trkpt><trkpt lat="42.41807752381496" lon="12.104517427971206"><ele>322.0</ele><time>2026-04-28T14:58:52.998Z</time></trkpt><trkpt lat="42.41815034903393" lon="12.104495454046095"><ele>322.0</ele><time>2026-04-28T14:58:53.998Z</time></trkpt><trkpt lat="42.41823962602478" lon="12.104482626912352"><ele>322.16666666666663</ele><time>2026-04-28T14:58:54.998Z</time></trkpt><trkpt lat="42.418315791641525" lon="12.104455262210463"><ele>322.3333333333333</ele><time>2026-04-28T14:58:55.998Z</time></trkpt><trkpt lat="42.41837192172322" lon="12.104412383759184"><ele>322.5</ele><time>2026-04-28T14:58:56.998Z</time></trkpt><trkpt lat="42.41843717676232" lon="12.104375596431439"><ele>322.6666666666667</ele><time>2026-04-28T14:58:57.998Z</time></trkpt><trkpt lat="42.41847546348771" lon="12.10428918680249"><ele>322.83333333333337</ele><time>2026-04-28T14:58:58.998Z</time></trkpt><trkpt lat="42.41844554203183" lon="12.104175528889167"><ele>323.0</ele><time>2026-04-28T14:58:59.998Z</time></trkpt><trkpt lat="42.4184007385602" lon="12.104094007438551"><ele>322.6666666666667</ele><time>2026-04-28T14:59:00.998Z</time></trkpt><trkpt lat="42.418355073139175" lon="12.103999972055504"><ele>322.33333333333337</ele><time>2026-04-28T14:59:01.998Z</time></trkpt><trkpt lat="42.41835897672601" lon="12.103889548258287"><ele>322.0</ele><time>2026-04-28T14:59:02.998Z</time></trkpt><trkpt lat="42.41837080982213" lon="12.103800018209899"><ele>321.6666666666667</ele><time>2026-04-28T14:59:03.998Z</time></trkpt><trkpt lat="42.41840380504709" lon="12.10371164346457"><ele>321.3333333333333</ele><time>2026-04-28T14:59:04.998Z</time></trkpt><trkpt lat="42.41844898934361" lon="12.103643530413624"><ele>321.0</ele><time>2026-04-28T14:59:05.998Z</time></trkpt><trkpt lat="42.41841732451161" lon="12.10345460725858"><ele>321.0</ele><time>2026-04-28T14:59:06.999Z</time></trkpt><trkpt lat="42.41836657299579" lon="12.103322656291851"><ele>321.0</ele><time>2026-04-28T14:59:07.999Z</time></trkpt><trkpt lat="42.4183127014118" lon="12.103162786809081"><ele>321.0</ele><time>2026-04-28T14:59:08.999Z</time></trkpt><trkpt lat="42.418250787988356" lon="12.102988292553768"><ele>321.0</ele><time>2026-04-28T14:59:09.999Z</time></trkpt><trkpt lat="42.41820200455939" lon="12.102824211814632"><ele>322.0</ele><time>2026-04-28T14:59:10.999Z</time></trkpt><trkpt lat="42.41815930338267" lon="12.102667383900641"><ele>323.0</ele><time>2026-04-28T14:59:11.999Z</time></trkpt><trkpt lat="42.41812439955345" lon="12.102491119739986"><ele>324.0</ele><time>2026-04-28T14:59:12.999Z</time></trkpt><trkpt lat="42.41808938746472" lon="12.102323105816442"><ele>325.0</ele><time>2026-04-28T14:59:13.999Z</time></trkpt><trkpt lat="42.418048649441765" lon="12.102180711603749"><ele>325.2</ele><time>2026-04-28T14:59:14.999Z</time></trkpt><trkpt lat="42.41801101595799" lon="12.102052032792823"><ele>325.4</ele><time>2026-04-28T14:59:15.999Z</time></trkpt><trkpt lat="42.417985505655984" lon="12.101938975282831"><ele>325.6</ele><time>2026-04-28T14:59:16.999Z</time></trkpt><trkpt lat="42.41795414737599" lon="12.101788552818348"><ele>325.8</ele><time>2026-04-28T14:59:18.999Z</time></trkpt><trkpt lat="42.417910223893365" lon="12.101690736243027"><ele>326.0</ele><time>2026-04-28T14:59:20.999Z</time></trkpt><trkpt lat="42.41787023846273" lon="12.101587241463603"><ele>323.40000000000003</ele><time>2026-04-28T14:59:22.999Z</time></trkpt><trkpt lat="42.41774227443902" lon="12.101621174832525"><ele>320.8</ele><time>2026-04-28T14:59:23.999Z</time></trkpt><trkpt lat="42.41768754015925" lon="12.101663694649627"><ele>318.20000000000005</ele><time>2026-04-28T14:59:24.999Z</time></trkpt><trkpt lat="42.41764163946026" lon="12.101749804333078"><ele>315.6</ele><time>2026-04-28T14:59:25.999Z</time></trkpt><trkpt lat="42.417577340412244" lon="12.10186562352713"><ele>313.0</ele><time>2026-04-28T14:59:26.999Z</time></trkpt><trkpt lat="42.41753362800137" lon="12.102016753324172"><ele>313.0</ele><time>2026-04-28T14:59:27.999Z</time></trkpt><trkpt lat="42.417472151101045" lon="12.10217658377077"><ele>313.0</ele><time>2026-04-28T14:59:28.999Z</time></trkpt><trkpt lat="42.41741812567835" lon="12.102360684826307"><ele>313.0</ele><time>2026-04-28T14:59:29.999Z</time></trkpt><trkpt lat="42.41737845518255" lon="12.102528534397655"><ele>313.0</ele><time>2026-04-28T14:59:30.999Z</time></trkpt><trkpt lat="42.417329067554356" lon="12.102667496876181"><ele>312.4</ele><time>2026-04-28T14:59:31.999Z</time></trkpt><trkpt lat="42.41731155618135" lon="12.102792065273093"><ele>311.8</ele><time>2026-04-28T14:59:32.999Z</time></trkpt><trkpt lat="42.417277363942674" lon="12.102878682346969"><ele>311.2</ele><time>2026-04-28T14:59:33.999Z</time></trkpt><trkpt lat="42.41718082735429" lon="12.10296327770325"><ele>310.6</ele><time>2026-04-28T14:59:35.999Z</time></trkpt><trkpt lat="42.41709522025454" lon="12.102964640176495"><ele>310.0</ele><time>2026-04-28T14:59:36.999Z</time></trkpt><trkpt lat="42.416996845664315" lon="12.102931689119806"><ele>309.25</ele><time>2026-04-28T14:59:37.999Z</time></trkpt><trkpt lat="42.416880360535416" lon="12.102861312658392"><ele>308.5</ele><time>2026-04-28T14:59:38.999Z</time></trkpt><trkpt lat="42.41677888576151" lon="12.10276771973523"><ele>307.75</ele><time>2026-04-28T14:59:39.999Z</time></trkpt><trkpt lat="42.41669557729931" lon="12.102654211884024"><ele>307.0</ele><time>2026-04-28T14:59:40.999Z</time></trkpt><trkpt lat="42.41663104075268" lon="12.10252506194494"><ele>306.0</ele><time>2026-04-28T14:59:41.999Z</time></trkpt><trkpt lat="42.416594105702146" lon="12.102393882214114"><ele>305.0</ele><time>2026-04-28T14:59:42.999Z</time></trkpt><trkpt lat="42.41658726939961" lon="12.10225335432618"><ele>304.0</ele><time>2026-04-28T14:59:43.999Z</time></trkpt><trkpt lat="42.41660415753954" lon="12.102101507151374"><ele>303.0</ele><time>2026-04-28T14:59:44.999Z</time></trkpt><trkpt lat="42.41664400383359" lon="12.101942840785"><ele>302.0</ele><time>2026-04-28T14:59:45.999Z</time></trkpt><trkpt lat="42.4166763701649" lon="12.10179760011858"><ele>302.0</ele><time>2026-04-28T14:59:46.999Z</time></trkpt><trkpt lat="42.41669273632309" lon="12.101640899738504"><ele>302.0</ele><time>2026-04-28T14:59:47.999Z</time></trkpt><trkpt lat="42.416700961698794" lon="12.101474273647147"><ele>302.0</ele><time>2026-04-28T14:59:48.999Z</time></trkpt><trkpt lat="42.416684548666474" lon="12.101308503717375"><ele>302.0</ele><time>2026-04-28T14:59:49.999Z</time></trkpt><trkpt lat="42.416628847738686" lon="12.101138704626385"><ele>302.0</ele><time>2026-04-28T14:59:50.999Z</time></trkpt><trkpt lat="42.416554449276596" lon="12.100944290895432"><ele>302.0</ele><time>2026-04-28T14:59:51.999Z</time></trkpt><trkpt lat="42.41646670911936" lon="12.100721396037082"><ele>302.0</ele><time>2026-04-28T14:59:52.999Z</time></trkpt><trkpt lat="42.41637632686236" lon="12.100466942581544"><ele>301.33333333333337</ele><time>2026-04-28T14:59:53.999Z</time></trkpt><trkpt lat="42.41628241182674" lon="12.100205537537605"><ele>300.6666666666667</ele><time>2026-04-28T14:59:54.999Z</time></trkpt><trkpt lat="42.416190792319334" lon="12.099947324941883"><ele>300.0</ele><time>2026-04-28T14:59:55.999Z</time></trkpt><trkpt lat="42.41610943062459" lon="12.099713950143071"><ele>300.0</ele><time>2026-04-28T14:59:56.999Z</time></trkpt><trkpt lat="42.416029455342475" lon="12.09949792483889"><ele>300.0</ele><time>2026-04-28T14:59:57.999Z</time></trkpt><trkpt lat="42.415956536545636" lon="12.099310437239499"><ele>300.0</ele><time>2026-04-28T14:59:58.999Z</time></trkpt><trkpt lat="42.41589459814494" lon="12.09915689108562"><ele>299.4</ele><time>2026-04-28T14:59:59.999Z</time></trkpt><trkpt lat="42.41583929992799" lon="12.099016799777479"><ele>298.8</ele><time>2026-04-28T15:00:00.999Z</time></trkpt><trkpt lat="42.41578489855817" lon="12.098885958937824"><ele>298.2</ele><time>2026-04-28T15:00:01.999Z</time></trkpt><trkpt lat="42.41573121337473" lon="12.098764120007873"><ele>297.6</ele><time>2026-04-28T15:00:02.999Z</time></trkpt><trkpt lat="42.415688949891084" lon="12.098665783197115"><ele>297.0</ele><time>2026-04-28T15:00:03.999Z</time></trkpt><trkpt lat="42.41565242926907" lon="12.098576691510935"><ele>297.0</ele><time>2026-04-28T15:00:05Z</time></trkpt><trkpt lat="42.41561675238607" lon="12.098496190656581"><ele>297.0</ele><time>2026-04-28T15:00:06Z</time></trkpt><trkpt lat="42.41558127509675" lon="12.098420298001725"><ele>297.0</ele><time>2026-04-28T15:00:07Z</time></trkpt><trkpt lat="42.415524078449835" lon="12.098283647989598"><ele>297.0</ele><time>2026-04-28T15:00:09Z</time></trkpt><trkpt lat="42.415491530340105" lon="12.09818817698376"><ele>297.0</ele><time>2026-04-28T15:00:11Z</time></trkpt><trkpt lat="42.41546519364703" lon="12.098104175087563"><ele>297.0</ele><time>2026-04-28T15:00:12Z</time></trkpt><trkpt lat="42.41545887366602" lon="12.097990086502476"><ele>296.6666666666667</ele><time>2026-04-28T15:00:13Z</time></trkpt><trkpt lat="42.415440343776964" lon="12.097888424035462"><ele>296.3333333333333</ele><time>2026-04-28T15:00:15Z</time></trkpt><trkpt lat="42.415483355259475" lon="12.097749915107983"><ele>296.0</ele><time>2026-04-28T15:00:25Z</time></trkpt><trkpt lat="42.415530465587146" lon="12.097680995485304"><ele>295.66666666666663</ele><time>2026-04-28T15:00:26Z</time></trkpt><trkpt lat="42.415587336428246" lon="12.097620109415354"><ele>295.3333333333333</ele><time>2026-04-28T15:00:27Z</time></trkpt><trkpt lat="42.41566351386522" lon="12.097554646915945"><ele>295.0</ele><time>2026-04-28T15:00:28Z</time></trkpt><trkpt lat="42.415738767210705" lon="12.097456965964948"><ele>295.0</ele><time>2026-04-28T15:00:29Z</time></trkpt><trkpt lat="42.415870912160564" lon="12.097469312780584"><ele>295.0</ele><time>2026-04-28T15:00:30Z</time></trkpt><trkpt lat="42.41599485659788" lon="12.097451383588563"><ele>295.0</ele><time>2026-04-28T15:00:30.996Z</time></trkpt><trkpt lat="42.41613637795774" lon="12.097438120881554"><ele>295.0</ele><time>2026-04-28T15:00:31.996Z</time></trkpt><trkpt lat="42.41629093994886" lon="12.097422055306312"><ele>300.66666666666663</ele><time>2026-04-28T15:00:32.996Z</time></trkpt><trkpt lat="42.4164611299871" lon="12.09740392621101"><ele>306.3333333333333</ele><time>2026-04-28T15:00:33.996Z</time></trkpt><trkpt lat="42.41663033903229" lon="12.09739125191934"><ele>312.0</ele><time>2026-04-28T15:00:34.996Z</time></trkpt><trkpt lat="42.41678357726243" lon="12.09738005200317"><ele>312.0</ele><time>2026-04-28T15:00:35.996Z</time></trkpt><trkpt lat="42.41691805284849" lon="12.097370373511252"><ele>312.0</ele><time>2026-04-28T15:00:36.996Z</time></trkpt><trkpt lat="42.41703672049156" lon="12.097364720076119"><ele>312.0</ele><time>2026-04-28T15:00:37.996Z</time></trkpt><trkpt lat="42.417142761433595" lon="12.097356805599178"><ele>312.0</ele><time>2026-04-28T15:00:38.996Z</time></trkpt><trkpt lat="42.41724530580922" lon="12.097351225104294"><ele>313.0</ele><time>2026-04-28T15:00:39.996Z</time></trkpt><trkpt lat="42.41734386955278" lon="12.097346606758817"><ele>314.0</ele><time>2026-04-28T15:00:40.996Z</time></trkpt><trkpt lat="42.417442956042784" lon="12.097337491199927"><ele>315.0</ele><time>2026-04-28T15:00:41.996Z</time></trkpt><trkpt lat="42.41755279232968" lon="12.097333462552692"><ele>316.0</ele><time>2026-04-28T15:00:42.996Z</time></trkpt><trkpt lat="42.41767367893233" lon="12.097328702614544"><ele>317.0</ele><time>2026-04-28T15:00:43.996Z</time></trkpt><trkpt lat="42.41779850145624" lon="12.09731328148569"><ele>317.0</ele><time>2026-04-28T15:00:44.996Z</time></trkpt><trkpt lat="42.417925935469704" lon="12.097288760820092"><ele>317.0</ele><time>2026-04-28T15:00:45.997Z</time></trkpt><trkpt lat="42.41805326095957" lon="12.097255878038215"><ele>317.0</ele><time>2026-04-28T15:00:46.997Z</time></trkpt><trkpt lat="42.418172847496834" lon="12.097217896377538"><ele>317.0</ele><time>2026-04-28T15:00:47.997Z</time></trkpt><trkpt lat="42.418277990447564" lon="12.09716204373079"><ele>317.25</ele><time>2026-04-28T15:00:48.997Z</time></trkpt><trkpt lat="42.418382248757034" lon="12.097078987744183"><ele>317.5</ele><time>2026-04-28T15:00:49.997Z</time></trkpt><trkpt lat="42.41848669875225" lon="12.096970429246669"><ele>317.75</ele><time>2026-04-28T15:00:50.997Z</time></trkpt><trkpt lat="42.418585926508946" lon="12.096843018893056"><ele>318.0</ele><time>2026-04-28T15:00:51.997Z</time></trkpt><trkpt lat="42.41866098893018" lon="12.09673627340787"><ele>318.0</ele><time>2026-04-28T15:00:52.997Z</time></trkpt><trkpt lat="42.418721198958025" lon="12.096657355086727"><ele>318.0</ele><time>2026-04-28T15:00:53.997Z</time></trkpt><trkpt lat="42.418783207622496" lon="12.096574589848663"><ele>318.0</ele><time>2026-04-28T15:00:54.997Z</time></trkpt><trkpt lat="42.4188770570039" lon="12.096497681086317"><ele>318.0</ele><time>2026-04-28T15:00:55.997Z</time></trkpt><trkpt lat="42.41895793776446" lon="12.096397811628389"><ele>318.0</ele><time>2026-04-28T15:00:56.998Z</time></trkpt><trkpt lat="42.41905831076431" lon="12.096324191832167"><ele>317.25</ele><time>2026-04-28T15:00:57.998Z</time></trkpt><trkpt lat="42.419181361902154" lon="12.096236161054806"><ele>316.5</ele><time>2026-04-28T15:00:58.998Z</time></trkpt><trkpt lat="42.419303355931945" lon="12.096171611230226"><ele>315.75</ele><time>2026-04-28T15:00:59.998Z</time></trkpt><trkpt lat="42.41941520276031" lon="12.096119636949462"><ele>315.0</ele><time>2026-04-28T15:01:00.998Z</time></trkpt><trkpt lat="42.41953984932844" lon="12.09604972603169"><ele>314.6666666666667</ele><time>2026-04-28T15:01:01.998Z</time></trkpt><trkpt lat="42.419688275835" lon="12.095962188837955"><ele>314.33333333333337</ele><time>2026-04-28T15:01:02.998Z</time></trkpt><trkpt lat="42.419850682902656" lon="12.095880540005364"><ele>314.0</ele><time>2026-04-28T15:01:03.998Z</time></trkpt><trkpt lat="42.41999296928055" lon="12.095798658573804"><ele>313.6666666666667</ele><time>2026-04-28T15:01:04.998Z</time></trkpt><trkpt lat="42.42012943746368" lon="12.095693580849348"><ele>313.3333333333333</ele><time>2026-04-28T15:01:05.998Z</time></trkpt><trkpt lat="42.420259794438174" lon="12.095567743474652"><ele>313.0</ele><time>2026-04-28T15:01:06.998Z</time></trkpt><trkpt lat="42.420375599861806" lon="12.095423220903353"><ele>313.75</ele><time>2026-04-28T15:01:07.998Z</time></trkpt><trkpt lat="42.420484493824105" lon="12.095272940483287"><ele>314.5</ele><time>2026-04-28T15:01:08.998Z</time></trkpt><trkpt lat="42.42058774112939" lon="12.095123875552021"><ele>315.25</ele><time>2026-04-28T15:01:09.998Z</time></trkpt><trkpt lat="42.420680153912706" lon="12.09498178323969"><ele>316.0</ele><time>2026-04-28T15:01:10.998Z</time></trkpt><trkpt lat="42.420767528432386" lon="12.09484995178102"><ele>316.0</ele><time>2026-04-28T15:01:11.998Z</time></trkpt><trkpt lat="42.420860478775545" lon="12.094740184051016"><ele>316.0</ele><time>2026-04-28T15:01:12.998Z</time></trkpt><trkpt lat="42.420969489818916" lon="12.094640731639105"><ele>316.0</ele><time>2026-04-28T15:01:13.998Z</time></trkpt><trkpt lat="42.42109552982498" lon="12.094551493254222"><ele>316.0</ele><time>2026-04-28T15:01:14.998Z</time></trkpt><trkpt lat="42.42123988263699" lon="12.094469674610876"><ele>316.66666666666663</ele><time>2026-04-28T15:01:15.998Z</time></trkpt><trkpt lat="42.421403705617486" lon="12.094389823520332"><ele>317.3333333333333</ele><time>2026-04-28T15:01:16.998Z</time></trkpt><trkpt lat="42.42157880321814" lon="12.09431372486151"><ele>318.0</ele><time>2026-04-28T15:01:17.998Z</time></trkpt><trkpt lat="42.42175944548898" lon="12.094240647612384"><ele>318.0</ele><time>2026-04-28T15:01:18.999Z</time></trkpt><trkpt lat="42.421934615102074" lon="12.094164693140325"><ele>318.0</ele><time>2026-04-28T15:01:19.999Z</time></trkpt><trkpt lat="42.42209900242398" lon="12.094088762981583"><ele>318.0</ele><time>2026-04-28T15:01:20.999Z</time></trkpt><trkpt lat="42.42225313484811" lon="12.094014437905544"><ele>316.5</ele><time>2026-04-28T15:01:21.999Z</time></trkpt><trkpt lat="42.422395018611006" lon="12.09394715417696"><ele>315.0</ele><time>2026-04-28T15:01:22.999Z</time></trkpt><trkpt lat="42.422526223092746" lon="12.093887214862363"><ele>313.5</ele><time>2026-04-28T15:01:23.999Z</time></trkpt><trkpt lat="42.42264640823964" lon="12.093830843224927"><ele>312.0</ele><time>2026-04-28T15:01:24.999Z</time></trkpt><trkpt lat="42.42275293917489" lon="12.093781027456481"><ele>312.0</ele><time>2026-04-28T15:01:25.999Z</time></trkpt><trkpt lat="42.42285659580279" lon="12.09373824699502"><ele>312.0</ele><time>2026-04-28T15:01:26.999Z</time></trkpt><trkpt lat="42.4229766381714" lon="12.093688707319044"><ele>312.0</ele><time>2026-04-28T15:01:27.999Z</time></trkpt><trkpt lat="42.423106847033" lon="12.093632936474986"><ele>312.0</ele><time>2026-04-28T15:01:28.999Z</time></trkpt><trkpt lat="42.4232447709174" lon="12.093574751171923"><ele>311.25</ele><time>2026-04-28T15:01:29.999Z</time></trkpt><trkpt lat="42.42338548938693" lon="12.093523320711228"><ele>310.5</ele><time>2026-04-28T15:01:30.999Z</time></trkpt><trkpt lat="42.42352808330743" lon="12.093490802455147"><ele>309.75</ele><time>2026-04-28T15:01:31.999Z</time></trkpt><trkpt lat="42.42366912243089" lon="12.093483577438406"><ele>309.0</ele><time>2026-04-28T15:01:32.999Z</time></trkpt><trkpt lat="42.42381127054966" lon="12.093499643722396"><ele>310.0</ele><time>2026-04-28T15:01:33.999Z</time></trkpt><trkpt lat="42.42395228036648" lon="12.093539260748171"><ele>311.0</ele><time>2026-04-28T15:01:34.999Z</time></trkpt><trkpt lat="42.42408966725797" lon="12.093606954583834"><ele>312.0</ele><time>2026-04-28T15:01:35.999Z</time></trkpt><trkpt lat="42.42421714144407" lon="12.093700588440266"><ele>313.0</ele><time>2026-04-28T15:01:36.999Z</time></trkpt><trkpt lat="42.42433794337021" lon="12.093825031846281"><ele>313.0</ele><time>2026-04-28T15:01:37.999Z</time></trkpt><trkpt lat="42.42445879606118" lon="12.093975763362266"><ele>313.0</ele><time>2026-04-28T15:01:38.999Z</time></trkpt><trkpt lat="42.42458503561526" lon="12.094145774524392"><ele>313.0</ele><time>2026-04-28T15:01:39.999Z</time></trkpt><trkpt lat="42.42471558435324" lon="12.094323881288243"><ele>312.3333333333333</ele><time>2026-04-28T15:01:40.999Z</time></trkpt><trkpt lat="42.42485332236638" lon="12.09450343234477"><ele>311.6666666666667</ele><time>2026-04-28T15:01:41.999Z</time></trkpt><trkpt lat="42.42497991800429" lon="12.094669465300493"><ele>311.0</ele><time>2026-04-28T15:01:42.999Z</time></trkpt><trkpt lat="42.42509480555365" lon="12.094815557770811"><ele>311.40000000000003</ele><time>2026-04-28T15:01:43.999Z</time></trkpt><trkpt lat="42.42518639661987" lon="12.094941053158085"><ele>311.8</ele><time>2026-04-28T15:01:44.999Z</time></trkpt><trkpt lat="42.42525837533733" lon="12.095044146592326"><ele>312.20000000000005</ele><time>2026-04-28T15:01:45.999Z</time></trkpt><trkpt lat="42.42531758474403" lon="12.095120883762593"><ele>312.6</ele><time>2026-04-28T15:01:46.999Z</time></trkpt><trkpt lat="42.42537013913298" lon="12.095199756987238"><ele>313.0</ele><time>2026-04-28T15:01:47.999Z</time></trkpt><trkpt lat="42.42540517107222" lon="12.095273959327937"><ele>313.0</ele><time>2026-04-28T15:01:48.999Z</time></trkpt><trkpt lat="42.425457916047236" lon="12.095362300063464"><ele>313.0</ele><time>2026-04-28T15:01:50.999Z</time></trkpt><trkpt lat="42.42552600200284" lon="12.095426533008887"><ele>313.0</ele><time>2026-04-28T15:02:10Z</time></trkpt><trkpt lat="42.425573731793165" lon="12.095490210100925"><ele>313.0</ele><time>2026-04-28T15:02:11Z</time></trkpt><trkpt lat="42.425629528750456" lon="12.095567479234994"><ele>313.0</ele><time>2026-04-28T15:02:12Z</time></trkpt><trkpt lat="42.42570001800812" lon="12.09566401959943"><ele>313.0</ele><time>2026-04-28T15:02:13Z</time></trkpt><trkpt lat="42.42577494601132" lon="12.09575936885004"><ele>314.25</ele><time>2026-04-28T15:02:14Z</time></trkpt><trkpt lat="42.42586025332069" lon="12.095869268353965"><ele>315.5</ele><time>2026-04-28T15:02:15Z</time></trkpt><trkpt lat="42.42594406956912" lon="12.095996842376271"><ele>316.75</ele><time>2026-04-28T15:02:16Z</time></trkpt><trkpt lat="42.42601687939537" lon="12.09613965377374"><ele>318.0</ele><time>2026-04-28T15:02:17Z</time></trkpt><trkpt lat="42.426075055122986" lon="12.096303490816878"><ele>318.0</ele><time>2026-04-28T15:02:18Z</time></trkpt><trkpt lat="42.42611899003376" lon="12.096471700740196"><ele>318.0</ele><time>2026-04-28T15:02:19Z</time></trkpt><trkpt lat="42.426164951014236" lon="12.09669037350471"><ele>318.0</ele><time>2026-04-28T15:02:20Z</time></trkpt><trkpt lat="42.42621417177592" lon="12.096900642141366"><ele>318.75</ele><time>2026-04-28T15:02:21Z</time></trkpt><trkpt lat="42.42626289620321" lon="12.09709665926497"><ele>319.5</ele><time>2026-04-28T15:02:22Z</time></trkpt><trkpt lat="42.426305693191956" lon="12.097257084276963"><ele>320.25</ele><time>2026-04-28T15:02:23Z</time></trkpt><trkpt lat="42.426348168652666" lon="12.097387329039867"><ele>321.0</ele><time>2026-04-28T15:02:24Z</time></trkpt><trkpt lat="42.42638269665513" lon="12.097487385788138"><ele>321.0</ele><time>2026-04-28T15:02:25Z</time></trkpt><trkpt lat="42.42643134292373" lon="12.09760347868871"><ele>321.0</ele><time>2026-04-28T15:02:27Z</time></trkpt><trkpt lat="42.42648506522651" lon="12.0977706145862"><ele>321.0</ele><time>2026-04-28T15:02:29Z</time></trkpt><trkpt lat="42.426516155217456" lon="12.097888726439113"><ele>321.0</ele><time>2026-04-28T15:02:30Z</time></trkpt><trkpt lat="42.426554451986874" lon="12.098011886478412"><ele>321.0</ele><time>2026-04-28T15:02:31Z</time></trkpt><trkpt lat="42.42659177851736" lon="12.098134373949142"><ele>321.0</ele><time>2026-04-28T15:02:32Z</time></trkpt><trkpt lat="42.42662132603418" lon="12.098226324739919"><ele>321.0</ele><time>2026-04-28T15:02:33Z</time></trkpt><trkpt lat="42.42664339471889" lon="12.098350685132836"><ele>321.0</ele><time>2026-04-28T15:02:35Z</time></trkpt><trkpt lat="42.42660158269878" lon="12.098509714870389"><ele>321.0</ele><time>2026-04-28T15:02:36.996Z</time></trkpt><trkpt lat="42.42656189298986" lon="12.098627558919894"><ele>321.0</ele><time>2026-04-28T15:02:37.996Z</time></trkpt><trkpt lat="42.4265477481571" lon="12.098756181404113"><ele>321.0</ele><time>2026-04-28T15:02:38.996Z</time></trkpt><trkpt lat="42.426554357451074" lon="12.098869086119198"><ele>321.0</ele><time>2026-04-28T15:02:39.996Z</time></trkpt><trkpt lat="42.42658899507542" lon="12.098973212662514"><ele>321.0</ele><time>2026-04-28T15:02:40.996Z</time></trkpt><trkpt lat="42.42664952497922" lon="12.09905301820521"><ele>321.0</ele><time>2026-04-28T15:02:41.996Z</time></trkpt><trkpt lat="42.426723326962325" lon="12.099104184605016"><ele>321.0</ele><time>2026-04-28T15:02:42.996Z</time></trkpt><trkpt lat="42.4268041888898" lon="12.09911439377365"><ele>321.0</ele><time>2026-04-28T15:02:43.996Z</time></trkpt><trkpt lat="42.42688744634002" lon="12.099090251150828"><ele>320.8333333333333</ele><time>2026-04-28T15:02:44.996Z</time></trkpt><trkpt lat="42.42696419554044" lon="12.099023965324502"><ele>320.6666666666667</ele><time>2026-04-28T15:02:45.997Z</time></trkpt><trkpt lat="42.427015312212816" lon="12.09893144164683"><ele>320.5</ele><time>2026-04-28T15:02:46.997Z</time></trkpt><trkpt lat="42.42705100716588" lon="12.098831069418033"><ele>320.33333333333337</ele><time>2026-04-28T15:02:47.997Z</time></trkpt><trkpt lat="42.427103849430914" lon="12.098732536196849"><ele>320.1666666666667</ele><time>2026-04-28T15:02:48.997Z</time></trkpt><trkpt lat="42.42717552877577" lon="12.098651908948451"><ele>320.0</ele><time>2026-04-28T15:02:49.997Z</time></trkpt><trkpt lat="42.42725440506106" lon="12.098589461121058"><ele>320.2</ele><time>2026-04-28T15:02:50.997Z</time></trkpt><trkpt lat="42.42733621692065" lon="12.098516774260037"><ele>320.4</ele><time>2026-04-28T15:02:51.997Z</time></trkpt><trkpt lat="42.42741901748906" lon="12.098433801127916"><ele>320.6</ele><time>2026-04-28T15:02:52.997Z</time></trkpt><trkpt lat="42.427509630268965" lon="12.098345420675008"><ele>320.8</ele><time>2026-04-28T15:02:53.997Z</time></trkpt><trkpt lat="42.42760986106382" lon="12.098244862606395"><ele>321.0</ele><time>2026-04-28T15:02:54.997Z</time></trkpt><trkpt lat="42.427709292716436" lon="12.098144328442022"><ele>321.0</ele><time>2026-04-28T15:02:55.997Z</time></trkpt><trkpt lat="42.42781658624678" lon="12.098041277042034"><ele>321.0</ele><time>2026-04-28T15:02:56.997Z</time></trkpt><trkpt lat="42.427931990419246" lon="12.097932437102438"><ele>321.0</ele><time>2026-04-28T15:02:57.998Z</time></trkpt><trkpt lat="42.42804921074137" lon="12.097828481958667"><ele>321.0</ele><time>2026-04-28T15:02:58.998Z</time></trkpt><trkpt lat="42.42817220395839" lon="12.0977324699922"><ele>321.0</ele><time>2026-04-28T15:02:59.998Z</time></trkpt><trkpt lat="42.4282937911708" lon="12.097636867554625"><ele>321.0</ele><time>2026-04-28T15:03:00.998Z</time></trkpt><trkpt lat="42.42841185079068" lon="12.097536904828594"><ele>321.0</ele><time>2026-04-28T15:03:01.998Z</time></trkpt><trkpt lat="42.42852627396316" lon="12.097435151886458"><ele>321.0</ele><time>2026-04-28T15:03:02.998Z</time></trkpt><trkpt lat="42.42863135990482" lon="12.097351702009991"><ele>321.0</ele><time>2026-04-28T15:03:03.998Z</time></trkpt><trkpt lat="42.428723986234935" lon="12.09727987537497"><ele>321.0</ele><time>2026-04-28T15:03:04.998Z</time></trkpt><trkpt lat="42.42880017355451" lon="12.097210355570454"><ele>321.0</ele><time>2026-04-28T15:03:05.998Z</time></trkpt><trkpt lat="42.42888131407379" lon="12.09714497453382"><ele>321.0</ele><time>2026-04-28T15:03:06.998Z</time></trkpt><trkpt lat="42.42896894097489" lon="12.097086965851767"><ele>321.0</ele><time>2026-04-28T15:03:07.998Z</time></trkpt><trkpt lat="42.429055221152694" lon="12.097028727124911"><ele>321.3333333333333</ele><time>2026-04-28T15:03:08.998Z</time></trkpt><trkpt lat="42.42913224913871" lon="12.096974786735498"><ele>321.6666666666667</ele><time>2026-04-28T15:03:09.998Z</time></trkpt><trkpt lat="42.42920866915077" lon="12.096925261648954"><ele>322.0</ele><time>2026-04-28T15:03:10.998Z</time></trkpt><trkpt lat="42.42928568756426" lon="12.096877806362938"><ele>322.33333333333337</ele><time>2026-04-28T15:03:11.998Z</time></trkpt><trkpt lat="42.429356042164294" lon="12.09683801555425"><ele>322.6666666666667</ele><time>2026-04-28T15:03:12.999Z</time></trkpt><trkpt lat="42.42942400537521" lon="12.09680576955615"><ele>323.0</ele><time>2026-04-28T15:03:13.999Z</time></trkpt><trkpt lat="42.429500256961006" lon="12.096770340165133"><ele>323.00000000000006</ele><time>2026-04-28T15:03:14.999Z</time></trkpt><trkpt lat="42.42957942161759" lon="12.096731893810508"><ele>323.0</ele><time>2026-04-28T15:03:15.999Z</time></trkpt><trkpt lat="42.429651221235986" lon="12.096711200541524"><ele>323.0</ele><time>2026-04-28T15:03:16.999Z</time></trkpt><trkpt lat="42.42972092363781" lon="12.09667639531662"><ele>323.0</ele><time>2026-04-28T15:03:17.999Z</time></trkpt><trkpt lat="42.42978734459599" lon="12.096651519863205"><ele>323.0</ele><time>2026-04-28T15:03:18.999Z</time></trkpt><trkpt lat="42.42985149083442" lon="12.096633629977724"><ele>323.00000000000006</ele><time>2026-04-28T15:03:19.999Z</time></trkpt><trkpt lat="42.429925325250785" lon="12.096625602727592"><ele>323.0</ele><time>2026-04-28T15:03:20.999Z</time></trkpt><trkpt lat="42.42999405716576" lon="12.096589630644264"><ele>323.5</ele><time>2026-04-28T15:03:21.999Z</time></trkpt><trkpt lat="42.4300850266963" lon="12.096698033319464"><ele>324.0</ele><time>2026-04-28T15:03:22.999Z</time></trkpt><trkpt lat="42.43016015963645" lon="12.096784050575277"><ele>324.5</ele><time>2026-04-28T15:03:23.999Z</time></trkpt><trkpt lat="42.43023967394835" lon="12.096899303232624"><ele>325.0</ele><time>2026-04-28T15:03:24.999Z</time></trkpt><trkpt lat="42.43032542241813" lon="12.097035895748869"><ele>325.0</ele><time>2026-04-28T15:03:25.999Z</time></trkpt><trkpt lat="42.430414662236004" lon="12.097182515647393"><ele>325.0</ele><time>2026-04-28T15:03:26.999Z</time></trkpt><trkpt lat="42.43049639542432" lon="12.097314163101784"><ele>325.0</ele><time>2026-04-28T15:03:27.999Z</time></trkpt><trkpt lat="42.4305695955357" lon="12.097437683112295"><ele>325.0</ele><time>2026-04-28T15:03:28.999Z</time></trkpt><trkpt lat="42.43062982466058" lon="12.097563315127442"><ele>324.75</ele><time>2026-04-28T15:03:29.999Z</time></trkpt><trkpt lat="42.4306806998818" lon="12.097709112665353"><ele>324.5</ele><time>2026-04-28T15:03:30.999Z</time></trkpt><trkpt lat="42.43075204799639" lon="12.097842247124218"><ele>324.25</ele><time>2026-04-28T15:03:31.999Z</time></trkpt><trkpt lat="42.430791789033314" lon="12.098012512433014"><ele>324.0</ele><time>2026-04-28T15:03:32.999Z</time></trkpt><trkpt lat="42.43082704398532" lon="12.09819878294837"><ele>325.0</ele><time>2026-04-28T15:03:33.999Z</time></trkpt><trkpt lat="42.430874799487924" lon="12.098386603088862"><ele>326.0</ele><time>2026-04-28T15:03:34.999Z</time></trkpt><trkpt lat="42.430918394217606" lon="12.098582011086902"><ele>327.0</ele><time>2026-04-28T15:03:35.999Z</time></trkpt><trkpt lat="42.43096466850437" lon="12.098782986269532"><ele>327.0</ele><time>2026-04-28T15:03:36.999Z</time></trkpt><trkpt lat="42.431010893188194" lon="12.098989445179019"><ele>327.0</ele><time>2026-04-28T15:03:37.999Z</time></trkpt><trkpt lat="42.431057298467955" lon="12.09919064068473"><ele>327.0</ele><time>2026-04-28T15:03:39Z</time></trkpt><trkpt lat="42.43110206558611" lon="12.099394880748383"><ele>328.0</ele><time>2026-04-28T15:03:40Z</time></trkpt><trkpt lat="42.431144935280514" lon="12.099602557487005"><ele>329.0</ele><time>2026-04-28T15:03:41Z</time></trkpt><trkpt lat="42.43118364039366" lon="12.099812354441749"><ele>330.0</ele><time>2026-04-28T15:03:42Z</time></trkpt><trkpt lat="42.43121657321204" lon="12.100022518123469"><ele>330.3333333333333</ele><time>2026-04-28T15:03:43Z</time></trkpt><trkpt lat="42.43124064917308" lon="12.100233025388507"><ele>330.66666666666663</ele><time>2026-04-28T15:03:44Z</time></trkpt><trkpt lat="42.43125175831698" lon="12.100450035474326"><ele>331.0</ele><time>2026-04-28T15:03:45Z</time></trkpt><trkpt lat="42.431269426841034" lon="12.100649126622935"><ele>331.3333333333333</ele><time>2026-04-28T15:03:46Z</time></trkpt><trkpt lat="42.431284325507285" lon="12.100873881501691"><ele>331.6666666666667</ele><time>2026-04-28T15:03:47Z</time></trkpt><trkpt lat="42.431297102142494" lon="12.101088710390917"><ele>332.0</ele><time>2026-04-28T15:03:48Z</time></trkpt><trkpt lat="42.43131147616507" lon="12.101281536036781"><ele>332.0</ele><time>2026-04-28T15:03:49Z</time></trkpt><trkpt lat="42.431322278885084" lon="12.101460863286853"><ele>332.0</ele><time>2026-04-28T15:03:50Z</time></trkpt><trkpt lat="42.43133651231311" lon="12.101628997271575"><ele>332.0</ele><time>2026-04-28T15:03:51Z</time></trkpt><trkpt lat="42.43136057976913" lon="12.101791551678653"><ele>332.0</ele><time>2026-04-28T15:03:52Z</time></trkpt><trkpt lat="42.431398290356505" lon="12.101960733642532"><ele>332.0</ele><time>2026-04-28T15:03:53Z</time></trkpt><trkpt lat="42.431445827567025" lon="12.10213892016767"><ele>332.0</ele><time>2026-04-28T15:03:54Z</time></trkpt><trkpt lat="42.43149369518595" lon="12.10232887739883"><ele>332.0</ele><time>2026-04-28T15:03:55Z</time></trkpt><trkpt lat="42.43154503718802" lon="12.102529886758782"><ele>332.0</ele><time>2026-04-28T15:03:56Z</time></trkpt><trkpt lat="42.43160152435401" lon="12.102738976341863"><ele>332.33333333333337</ele><time>2026-04-28T15:03:57Z</time></trkpt><trkpt lat="42.43166725914353" lon="12.102954740293177"><ele>332.6666666666667</ele><time>2026-04-28T15:03:58Z</time></trkpt><trkpt lat="42.43174046354789" lon="12.103178638390174"><ele>333.0</ele><time>2026-04-28T15:03:59Z</time></trkpt><trkpt lat="42.431820246432764" lon="12.103412363398391"><ele>333.3333333333333</ele><time>2026-04-28T15:04:00Z</time></trkpt><trkpt lat="42.431900813960695" lon="12.103652843513435"><ele>333.66666666666663</ele><time>2026-04-28T15:04:01Z</time></trkpt><trkpt lat="42.43197994500087" lon="12.103889028310315"><ele>334.0</ele><time>2026-04-28T15:04:02Z</time></trkpt><trkpt lat="42.432059664388625" lon="12.104128536975741"><ele>335.0</ele><time>2026-04-28T15:04:03Z</time></trkpt><trkpt lat="42.43214346389532" lon="12.10436599053569"><ele>336.0</ele><time>2026-04-28T15:04:04Z</time></trkpt><trkpt lat="42.43222378978071" lon="12.104600151347288"><ele>337.0</ele><time>2026-04-28T15:04:05Z</time></trkpt><trkpt lat="42.432293442707625" lon="12.10482566333894"><ele>337.0</ele><time>2026-04-28T15:04:06Z</time></trkpt><trkpt lat="42.432354287606074" lon="12.10504681683646"><ele>337.0</ele><time>2026-04-28T15:04:07Z</time></trkpt><trkpt lat="42.43240531034782" lon="12.105267482508133"><ele>337.0</ele><time>2026-04-28T15:04:08Z</time></trkpt><trkpt lat="42.43244415777122" lon="12.105489417267743"><ele>337.0</ele><time>2026-04-28T15:04:09Z</time></trkpt><trkpt lat="42.43246885893882" lon="12.10570992430923"><ele>337.0</ele><time>2026-04-28T15:04:10Z</time></trkpt><trkpt lat="42.43248228081754" lon="12.105934552469904"><ele>337.0</ele><time>2026-04-28T15:04:11Z</time></trkpt><trkpt lat="42.43248615564771" lon="12.106159180758077"><ele>337.3333333333333</ele><time>2026-04-28T15:04:12Z</time></trkpt><trkpt lat="42.43248193511046" lon="12.106387724564511"><ele>337.6666666666667</ele><time>2026-04-28T15:04:13Z</time></trkpt><trkpt lat="42.43246538061902" lon="12.106614574566734"><ele>338.0</ele><time>2026-04-28T15:04:14.001Z</time></trkpt><trkpt lat="42.43243906549031" lon="12.106845963775672"><ele>338.33333333333337</ele><time>2026-04-28T15:04:15.001Z</time></trkpt><trkpt lat="42.43241874717371" lon="12.10708758895658"><ele>338.6666666666667</ele><time>2026-04-28T15:04:16.001Z</time></trkpt><trkpt lat="42.4324050472448" lon="12.107337058849605"><ele>339.0</ele><time>2026-04-28T15:04:17.001Z</time></trkpt><trkpt lat="42.43239252687407" lon="12.107585187672653"><ele>339.3333333333333</ele><time>2026-04-28T15:04:18.001Z</time></trkpt><trkpt lat="42.43238481139294" lon="12.107841896889374"><ele>339.66666666666663</ele><time>2026-04-28T15:04:19.001Z</time></trkpt><trkpt lat="42.432380188817085" lon="12.108100504184588"><ele>340.0</ele><time>2026-04-28T15:04:20.001Z</time></trkpt><trkpt lat="42.43236920015921" lon="12.108360144100448"><ele>340.3333333333333</ele><time>2026-04-28T15:04:21.001Z</time></trkpt><trkpt lat="42.4323482007333" lon="12.108620674510915"><ele>340.6666666666667</ele><time>2026-04-28T15:04:22.001Z</time></trkpt><trkpt lat="42.43232312409619" lon="12.108882198491607"><ele>341.0</ele><time>2026-04-28T15:04:23.001Z</time></trkpt><trkpt lat="42.43228999726331" lon="12.109144458829446"><ele>342.33333333333337</ele><time>2026-04-28T15:04:24.001Z</time></trkpt><trkpt lat="42.432248656085775" lon="12.109409537805966"><ele>343.6666666666667</ele><time>2026-04-28T15:04:25.001Z</time></trkpt><trkpt lat="42.43220134781194" lon="12.109675847451268"><ele>345.0</ele><time>2026-04-28T15:04:26.001Z</time></trkpt><trkpt lat="42.43214890285511" lon="12.109938285337233"><ele>345.3333333333333</ele><time>2026-04-28T15:04:27.001Z</time></trkpt><trkpt lat="42.43209652696779" lon="12.110187253283573"><ele>345.66666666666663</ele><time>2026-04-28T15:04:28.001Z</time></trkpt><trkpt lat="42.43203804521734" lon="12.1104261003807"><ele>346.0</ele><time>2026-04-28T15:04:29.001Z</time></trkpt><trkpt lat="42.43197596314851" lon="12.110663963219139"><ele>346.3333333333333</ele><time>2026-04-28T15:04:30.001Z</time></trkpt><trkpt lat="42.43190766073822" lon="12.110895756142915"><ele>346.6666666666667</ele><time>2026-04-28T15:04:31.001Z</time></trkpt><trkpt lat="42.43184161217819" lon="12.111121420115081"><ele>347.0</ele><time>2026-04-28T15:04:32.001Z</time></trkpt><trkpt lat="42.431761433055875" lon="12.111345179708353"><ele>347.0</ele><time>2026-04-28T15:04:33.001Z</time></trkpt><trkpt lat="42.43168132605658" lon="12.111548636829673"><ele>347.0</ele><time>2026-04-28T15:04:34.001Z</time></trkpt><trkpt lat="42.43158652813111" lon="12.111761566142873"><ele>347.0</ele><time>2026-04-28T15:04:35.001Z</time></trkpt><trkpt lat="42.43149465626015" lon="12.111979434313517"><ele>347.6666666666667</ele><time>2026-04-28T15:04:36.001Z</time></trkpt><trkpt lat="42.431407402030324" lon="12.112192498738665"><ele>348.3333333333333</ele><time>2026-04-28T15:04:37.001Z</time></trkpt><trkpt lat="42.431324376230194" lon="12.112393940037544"><ele>349.0</ele><time>2026-04-28T15:04:38.001Z</time></trkpt><trkpt lat="42.43123791292837" lon="12.11259047411217"><ele>350.0</ele><time>2026-04-28T15:04:39.001Z</time></trkpt><trkpt lat="42.43115650184661" lon="12.11276964031231"><ele>351.0</ele><time>2026-04-28T15:04:40.001Z</time></trkpt><trkpt lat="42.43108092252778" lon="12.112942858659222"><ele>352.0</ele><time>2026-04-28T15:04:41.001Z</time></trkpt><trkpt lat="42.430960586858085" lon="12.113086814330412"><ele>352.0</ele><time>2026-04-28T15:04:42.001Z</time></trkpt><trkpt lat="42.43084904582923" lon="12.113240122144763"><ele>352.0</ele><time>2026-04-28T15:04:42.997Z</time></trkpt><trkpt lat="42.43073635037399" lon="12.113391945607315"><ele>352.0</ele><time>2026-04-28T15:04:43.997Z</time></trkpt><trkpt lat="42.43063239959789" lon="12.113535314616955"><ele>352.0</ele><time>2026-04-28T15:04:44.997Z</time></trkpt><trkpt lat="42.43053978520999" lon="12.113661605030686"><ele>352.0</ele><time>2026-04-28T15:04:45.997Z</time></trkpt><trkpt lat="42.43045635489094" lon="12.113772210142212"><ele>352.0</ele><time>2026-04-28T15:04:46.997Z</time></trkpt><trkpt lat="42.43037253585206" lon="12.113877381644597"><ele>352.0</ele><time>2026-04-28T15:04:47.997Z</time></trkpt><trkpt lat="42.430276414872296" lon="12.113977454211486"><ele>352.6</ele><time>2026-04-28T15:04:48.997Z</time></trkpt><trkpt lat="42.430170947286754" lon="12.114064909298333"><ele>353.20000000000005</ele><time>2026-04-28T15:04:49.997Z</time></trkpt><trkpt lat="42.430081724669996" lon="12.1141343875988"><ele>353.8</ele><time>2026-04-28T15:04:50.998Z</time></trkpt><trkpt lat="42.430012765807646" lon="12.114183208840933"><ele>354.4</ele><time>2026-04-28T15:04:51.998Z</time></trkpt><trkpt lat="42.42994724959239" lon="12.114203338568009"><ele>355.0</ele><time>2026-04-28T15:04:52.998Z</time></trkpt><trkpt lat="42.429836201310195" lon="12.114156150085462"><ele>355.0</ele><time>2026-04-28T15:04:54.998Z</time></trkpt><trkpt lat="42.429779870074434" lon="12.114093467948654"><ele>355.0</ele><time>2026-04-28T15:04:55.998Z</time></trkpt><trkpt lat="42.42972575125968" lon="12.114000291793673"><ele>355.0</ele><time>2026-04-28T15:04:56.998Z</time></trkpt><trkpt lat="42.42966340405937" lon="12.113891537037947"><ele>355.0</ele><time>2026-04-28T15:04:57.998Z</time></trkpt><trkpt lat="42.42958883519502" lon="12.113772339656196"><ele>355.0</ele><time>2026-04-28T15:04:58.998Z</time></trkpt><trkpt lat="42.42949655185653" lon="12.113638669448605"><ele>355.0</ele><time>2026-04-28T15:04:59.998Z</time></trkpt><trkpt lat="42.42940635243611" lon="12.113511670528375"><ele>355.0</ele><time>2026-04-28T15:05:00.998Z</time></trkpt><trkpt lat="42.429304969535124" lon="12.11337893190326"><ele>355.0</ele><time>2026-04-28T15:05:01.998Z</time></trkpt><trkpt lat="42.429202142091654" lon="12.113232865698267"><ele>355.0</ele><time>2026-04-28T15:05:02.998Z</time></trkpt><trkpt lat="42.42910572368919" lon="12.113093141955847"><ele>355.0</ele><time>2026-04-28T15:05:03.998Z</time></trkpt><trkpt lat="42.429028383568564" lon="12.11297696075237"><ele>355.0</ele><time>2026-04-28T15:05:04.998Z</time></trkpt><trkpt lat="42.428955776283566" lon="12.112858585517749"><ele>355.0</ele><time>2026-04-28T15:05:05.999Z</time></trkpt><trkpt lat="42.428885976315854" lon="12.11273250334115"><ele>355.0</ele><time>2026-04-28T15:05:06.999Z</time></trkpt><trkpt lat="42.42881949309493" lon="12.112615695101008"><ele>355.2</ele><time>2026-04-28T15:05:07.999Z</time></trkpt><trkpt lat="42.42874190763596" lon="12.112518630383699"><ele>355.4</ele><time>2026-04-28T15:05:08.999Z</time></trkpt><trkpt lat="42.428657372472635" lon="12.112448061358522"><ele>355.6</ele><time>2026-04-28T15:05:09.999Z</time></trkpt><trkpt lat="42.428571587769774" lon="12.112404664166057"><ele>355.8</ele><time>2026-04-28T15:05:10.999Z</time></trkpt><trkpt lat="42.42848909743357" lon="12.112376080368783"><ele>356.0</ele><time>2026-04-28T15:05:11.999Z</time></trkpt><trkpt lat="42.42841945571679" lon="12.112367559295917"><ele>356.0</ele><time>2026-04-28T15:05:12.999Z</time></trkpt><trkpt lat="42.42832582876404" lon="12.112389137317846"><ele>356.0</ele><time>2026-04-28T15:05:14.999Z</time></trkpt><trkpt lat="42.428313487071485" lon="12.112617681737788"><ele>356.0</ele><time>2026-04-28T15:05:17.999Z</time></trkpt><trkpt lat="42.42834685704267" lon="12.112725157401794"><ele>356.0</ele><time>2026-04-28T15:05:18.999Z</time></trkpt><trkpt lat="42.42837511575455" lon="12.112858271641299"><ele>356.0</ele><time>2026-04-28T15:05:19.999Z</time></trkpt><trkpt lat="42.42839962721764" lon="12.113007213407746"><ele>356.0</ele><time>2026-04-28T15:05:20.999Z</time></trkpt><trkpt lat="42.428425273255826" lon="12.11316150866097"><ele>356.0</ele><time>2026-04-28T15:05:21.999Z</time></trkpt><trkpt lat="42.428456446344605" lon="12.113319552926399"><ele>356.0</ele><time>2026-04-28T15:05:22.999Z</time></trkpt><trkpt lat="42.428491187217126" lon="12.113488527886735"><ele>357.5</ele><time>2026-04-28T15:05:23.999Z</time></trkpt><trkpt lat="42.428524477546624" lon="12.113664820819604"><ele>359.0</ele><time>2026-04-28T15:05:25Z</time></trkpt><trkpt lat="42.42855491130805" lon="12.113836896521821"><ele>360.5</ele><time>2026-04-28T15:05:26Z</time></trkpt><trkpt lat="42.42858167956911" lon="12.113978588319506"><ele>362.0</ele><time>2026-04-28T15:05:27Z</time></trkpt><trkpt lat="42.4285956924728" lon="12.114108680446646"><ele>362.40000000000003</ele><time>2026-04-28T15:05:28Z</time></trkpt><trkpt lat="42.428578070131096" lon="12.11422231055442"><ele>362.8</ele><time>2026-04-28T15:05:29Z</time></trkpt><trkpt lat="42.428537045763576" lon="12.114317610390053"><ele>363.2</ele><time>2026-04-28T15:05:30Z</time></trkpt><trkpt lat="42.428470636553165" lon="12.114406784799382"><ele>363.6</ele><time>2026-04-28T15:05:31Z</time></trkpt><trkpt lat="42.428392661059526" lon="12.11450746321369"><ele>364.0</ele><time>2026-04-28T15:05:32Z</time></trkpt><trkpt lat="42.428311680499725" lon="12.114626026190727"><ele>364.0</ele><time>2026-04-28T15:05:33Z</time></trkpt><trkpt lat="42.4282213918756" lon="12.114756790398959"><ele>364.0</ele><time>2026-04-28T15:05:34Z</time></trkpt><trkpt lat="42.42813075660374" lon="12.114893571912882"><ele>364.0</ele><time>2026-04-28T15:05:35Z</time></trkpt><trkpt lat="42.42804526783172" lon="12.115027321232745"><ele>364.0</ele><time>2026-04-28T15:05:36Z</time></trkpt><trkpt lat="42.427965211439286" lon="12.115156551950886"><ele>365.4</ele><time>2026-04-28T15:05:37Z</time></trkpt><trkpt lat="42.42789624959463" lon="12.115286971795756"><ele>366.79999999999995</ele><time>2026-04-28T15:05:38Z</time></trkpt><trkpt lat="42.42783606923361" lon="12.115411841864418"><ele>368.20000000000005</ele><time>2026-04-28T15:05:39Z</time></trkpt><trkpt lat="42.42778062904924" lon="12.115527967698632"><ele>369.6</ele><time>2026-04-28T15:05:40Z</time></trkpt><trkpt lat="42.42772327049506" lon="12.115634724467723"><ele>371.0</ele><time>2026-04-28T15:05:41Z</time></trkpt><trkpt lat="42.42766874752834" lon="12.115730339045578"><ele>371.83333333333337</ele><time>2026-04-28T15:05:42Z</time></trkpt><trkpt lat="42.42761837463232" lon="12.115824756495583"><ele>372.6666666666667</ele><time>2026-04-28T15:05:43Z</time></trkpt><trkpt lat="42.42756622861843" lon="12.1159229053331"><ele>373.5</ele><time>2026-04-28T15:05:44Z</time></trkpt><trkpt lat="42.427515237481884" lon="12.116025488027121"><ele>374.3333333333333</ele><time>2026-04-28T15:05:45Z</time></trkpt><trkpt lat="42.42746503110628" lon="12.11612092228613"><ele>375.16666666666663</ele><time>2026-04-28T15:05:46Z</time></trkpt><trkpt lat="42.427416030596916" lon="12.116207994333909"><ele>376.0</ele><time>2026-04-28T15:05:47Z</time></trkpt><trkpt lat="42.427370421845566" lon="12.1162905292968"><ele>376.0</ele><time>2026-04-28T15:05:48Z</time></trkpt><trkpt lat="42.42732345368585" lon="12.116372539023514"><ele>376.0</ele><time>2026-04-28T15:05:49Z</time></trkpt><trkpt lat="42.42727143298591" lon="12.116456617701884"><ele>376.0</ele><time>2026-04-28T15:05:50Z</time></trkpt><trkpt lat="42.42721741575667" lon="12.116540221915836"><ele>376.0</ele><time>2026-04-28T15:05:51Z</time></trkpt><trkpt lat="42.42715348302417" lon="12.116619087332689"><ele>376.0</ele><time>2026-04-28T15:05:52Z</time></trkpt><trkpt lat="42.427074505290264" lon="12.116695524442221"><ele>376.0</ele><time>2026-04-28T15:05:53Z</time></trkpt><trkpt lat="42.426984581550755" lon="12.116784833110614"><ele>376.20000000000005</ele><time>2026-04-28T15:05:54.001Z</time></trkpt><trkpt lat="42.42688599384846" lon="12.11688022249313"><ele>376.40000000000003</ele><time>2026-04-28T15:05:55.001Z</time></trkpt><trkpt lat="42.42678906278346" lon="12.116963000578679"><ele>376.6</ele><time>2026-04-28T15:05:56.001Z</time></trkpt><trkpt lat="42.42670176132031" lon="12.11703902605975"><ele>376.8</ele><time>2026-04-28T15:05:57.001Z</time></trkpt><trkpt lat="42.42663014849453" lon="12.117103159153599"><ele>377.0</ele><time>2026-04-28T15:05:58.001Z</time></trkpt><trkpt lat="42.4265677328369" lon="12.11715303031011"><ele>377.0</ele><time>2026-04-28T15:05:59.001Z</time></trkpt><trkpt lat="42.42646701712657" lon="12.117239384850532"><ele>377.0</ele><time>2026-04-28T15:06:01.001Z</time></trkpt><trkpt lat="42.42637507570574" lon="12.117284715205512"><ele>377.0</ele><time>2026-04-28T15:06:03.001Z</time></trkpt><trkpt lat="42.42631618899972" lon="12.117328344819112"><ele>377.0</ele><time>2026-04-28T15:06:07.001Z</time></trkpt><trkpt lat="42.42631455737357" lon="12.11751815752586"><ele>377.0</ele><time>2026-04-28T15:06:10.001Z</time></trkpt><trkpt lat="42.42634094554808" lon="12.117606607845568"><ele>376.0</ele><time>2026-04-28T15:06:11.001Z</time></trkpt><trkpt lat="42.42637555290414" lon="12.117717941333563"><ele>375.0</ele><time>2026-04-28T15:06:12.001Z</time></trkpt><trkpt lat="42.4264158541013" lon="12.117857442077957"><ele>374.0</ele><time>2026-04-28T15:06:13.001Z</time></trkpt><trkpt lat="42.42646350093651" lon="12.118000857556607"><ele>373.0</ele><time>2026-04-28T15:06:14.001Z</time></trkpt><trkpt lat="42.42651307392375" lon="12.118165258452805"><ele>372.0</ele><time>2026-04-28T15:06:15.001Z</time></trkpt><trkpt lat="42.42656500919122" lon="12.118351941411168"><ele>370.3333333333333</ele><time>2026-04-28T15:06:16.001Z</time></trkpt><trkpt lat="42.42662017682126" lon="12.118540145096398"><ele>368.66666666666663</ele><time>2026-04-28T15:06:17.001Z</time></trkpt><trkpt lat="42.426677555642655" lon="12.118739538130487"><ele>367.0</ele><time>2026-04-28T15:06:18.001Z</time></trkpt><trkpt lat="42.42673799698209" lon="12.11894922659049"><ele>368.3333333333333</ele><time>2026-04-28T15:06:19.001Z</time></trkpt><trkpt lat="42.426802589466256" lon="12.119164512656582"><ele>369.6666666666667</ele><time>2026-04-28T15:06:20.001Z</time></trkpt><trkpt lat="42.426868371268014" lon="12.119383532168163"><ele>371.0</ele><time>2026-04-28T15:06:21.001Z</time></trkpt><trkpt lat="42.42693274887087" lon="12.119602613153893"><ele>371.0</ele><time>2026-04-28T15:06:22.001Z</time></trkpt><trkpt lat="42.4269968717161" lon="12.119825585706996"><ele>371.0</ele><time>2026-04-28T15:06:23.001Z</time></trkpt><trkpt lat="42.4270616213331" lon="12.12004642412019"><ele>371.0</ele><time>2026-04-28T15:06:24.001Z</time></trkpt><trkpt lat="42.427122755963794" lon="12.12026291193229"><ele>373.6666666666667</ele><time>2026-04-28T15:06:25.001Z</time></trkpt><trkpt lat="42.42718200748884" lon="12.120467649271504"><ele>376.3333333333333</ele><time>2026-04-28T15:06:26.002Z</time></trkpt><trkpt lat="42.427242797813946" lon="12.120670882347502"><ele>379.0</ele><time>2026-04-28T15:06:27.002Z</time></trkpt><trkpt lat="42.427299074159706" lon="12.120866795676587"><ele>380.3333333333333</ele><time>2026-04-28T15:06:28.002Z</time></trkpt><trkpt lat="42.42735951776849" lon="12.121063517225"><ele>381.6666666666667</ele><time>2026-04-28T15:06:29.002Z</time></trkpt><trkpt lat="42.427419836189316" lon="12.121256875131905"><ele>383.0</ele><time>2026-04-28T15:06:30.002Z</time></trkpt><trkpt lat="42.42747760789716" lon="12.12144400901184"><ele>384.25</ele><time>2026-04-28T15:06:31.002Z</time></trkpt><trkpt lat="42.42753035533919" lon="12.1216260826826"><ele>385.5</ele><time>2026-04-28T15:06:32.002Z</time></trkpt><trkpt lat="42.42757505101365" lon="12.12181011337544"><ele>386.75</ele><time>2026-04-28T15:06:33.002Z</time></trkpt><trkpt lat="42.42762131126766" lon="12.121999317091733"><ele>388.0</ele><time>2026-04-28T15:06:34.002Z</time></trkpt><trkpt lat="42.427676776794215" lon="12.12217263617372"><ele>388.0</ele><time>2026-04-28T15:06:35.002Z</time></trkpt><trkpt lat="42.42772759227105" lon="12.122352126050211"><ele>388.0</ele><time>2026-04-28T15:06:36.002Z</time></trkpt><trkpt lat="42.4277836453655" lon="12.122530462635446"><ele>388.0</ele><time>2026-04-28T15:06:37.002Z</time></trkpt><trkpt lat="42.427835742079196" lon="12.122703669456383"><ele>388.0</ele><time>2026-04-28T15:06:38.002Z</time></trkpt><trkpt lat="42.42789001770947" lon="12.122874531765156"><ele>389.0</ele><time>2026-04-28T15:06:39.002Z</time></trkpt><trkpt lat="42.4279355353018" lon="12.123045989848682"><ele>390.0</ele><time>2026-04-28T15:06:40.002Z</time></trkpt><trkpt lat="42.427983705595274" lon="12.123219149479194"><ele>391.0</ele><time>2026-04-28T15:06:41.002Z</time></trkpt><trkpt lat="42.42803434593417" lon="12.12338969374828"><ele>392.0</ele><time>2026-04-28T15:06:42.002Z</time></trkpt><trkpt lat="42.42808388789962" lon="12.12355795702714"><ele>392.0</ele><time>2026-04-28T15:06:43.002Z</time></trkpt><trkpt lat="42.4281193776189" lon="12.123727167870321"><ele>392.0</ele><time>2026-04-28T15:06:44.002Z</time></trkpt><trkpt lat="42.42817452443222" lon="12.123864080914508"><ele>392.0</ele><time>2026-04-28T15:06:45.002Z</time></trkpt><trkpt lat="42.428216011310035" lon="12.124009192230183"><ele>392.0</ele><time>2026-04-28T15:06:46.002Z</time></trkpt><trkpt lat="42.4282421888316" lon="12.124154393308846"><ele>392.3333333333333</ele><time>2026-04-28T15:06:47.002Z</time></trkpt><trkpt lat="42.42829264712862" lon="12.124267265389117"><ele>392.66666666666663</ele><time>2026-04-28T15:06:48.002Z</time></trkpt><trkpt lat="42.42831823542206" lon="12.124361888886419"><ele>393.0</ele><time>2026-04-28T15:06:48.999Z</time></trkpt><trkpt lat="42.428341691177295" lon="12.124466397030488"><ele>393.33333333333337</ele><time>2026-04-28T15:07:11Z</time></trkpt><trkpt lat="42.42837663109322" lon="12.124614228231586"><ele>393.6666666666667</ele><time>2026-04-28T15:07:13Z</time></trkpt><trkpt lat="42.428403537818724" lon="12.124713079703781"><ele>394.0</ele><time>2026-04-28T15:07:14Z</time></trkpt><trkpt lat="42.42843585669028" lon="12.124829437624447"><ele>394.5</ele><time>2026-04-28T15:07:15Z</time></trkpt><trkpt lat="42.42847345995924" lon="12.124955498826088"><ele>395.0</ele><time>2026-04-28T15:07:16Z</time></trkpt><trkpt lat="42.42851451264828" lon="12.125101325968414"><ele>395.5</ele><time>2026-04-28T15:07:17Z</time></trkpt><trkpt lat="42.42856120559961" lon="12.125267081159508"><ele>396.0</ele><time>2026-04-28T15:07:18Z</time></trkpt><trkpt lat="42.428611751236026" lon="12.125439066463771"><ele>396.0</ele><time>2026-04-28T15:07:19Z</time></trkpt><trkpt lat="42.42866622721292" lon="12.12563060076632"><ele>396.0</ele><time>2026-04-28T15:07:20Z</time></trkpt><trkpt lat="42.428720258173556" lon="12.125826546822104"><ele>396.0</ele><time>2026-04-28T15:07:21Z</time></trkpt><trkpt lat="42.42877828609286" lon="12.126023206994045"><ele>396.33333333333337</ele><time>2026-04-28T15:07:22Z</time></trkpt><trkpt lat="42.428839577688215" lon="12.126219516952732"><ele>396.6666666666667</ele><time>2026-04-28T15:07:23.001Z</time></trkpt><trkpt lat="42.42890116394098" lon="12.126418647961492"><ele>397.0</ele><time>2026-04-28T15:07:24.001Z</time></trkpt><trkpt lat="42.42896051934599" lon="12.12661873349858"><ele>398.0</ele><time>2026-04-28T15:07:25.001Z</time></trkpt><trkpt lat="42.42900809123499" lon="12.126809069252126"><ele>399.0</ele><time>2026-04-28T15:07:26.001Z</time></trkpt><trkpt lat="42.42905827106627" lon="12.126985071147425"><ele>400.0</ele><time>2026-04-28T15:07:27.001Z</time></trkpt><trkpt lat="42.42910309798054" lon="12.127144356953787"><ele>401.0</ele><time>2026-04-28T15:07:28.001Z</time></trkpt><trkpt lat="42.42914896647712" lon="12.127299200817435"><ele>401.0</ele><time>2026-04-28T15:07:29.001Z</time></trkpt><trkpt lat="42.4291992073255" lon="12.127456956784355"><ele>401.0</ele><time>2026-04-28T15:07:30.001Z</time></trkpt><trkpt lat="42.42924641615682" lon="12.12762659276717"><ele>401.0</ele><time>2026-04-28T15:07:31.001Z</time></trkpt><trkpt lat="42.42929118323117" lon="12.127796473762777"><ele>401.0</ele><time>2026-04-28T15:07:32.001Z</time></trkpt><trkpt lat="42.42933976468572" lon="12.127964543048448"><ele>401.0</ele><time>2026-04-28T15:07:33.001Z</time></trkpt><trkpt lat="42.429383456359595" lon="12.12812227991472"><ele>401.0</ele><time>2026-04-28T15:07:34.001Z</time></trkpt><trkpt lat="42.4294250986471" lon="12.128275271638929"><ele>401.0</ele><time>2026-04-28T15:07:35.001Z</time></trkpt><trkpt lat="42.42946542613991" lon="12.128421711264588"><ele>401.0</ele><time>2026-04-28T15:07:36.001Z</time></trkpt><trkpt lat="42.42950532973487" lon="12.128552741497076"><ele>400.8333333333333</ele><time>2026-04-28T15:07:37.001Z</time></trkpt><trkpt lat="42.42954970043361" lon="12.128666730983744"><ele>400.66666666666663</ele><time>2026-04-28T15:07:38.001Z</time></trkpt><trkpt lat="42.42959805927972" lon="12.128756888051404"><ele>400.5</ele><time>2026-04-28T15:07:39.001Z</time></trkpt><trkpt lat="42.42964821728221" lon="12.128815544099716"><ele>400.33333333333337</ele><time>2026-04-28T15:07:40.001Z</time></trkpt><trkpt lat="42.429743151198146" lon="12.128894163024993"><ele>400.1666666666667</ele><time>2026-04-28T15:07:42.001Z</time></trkpt><trkpt lat="42.42973532237396" lon="12.128981055502688"><ele>400.0</ele><time>2026-04-28T15:10:03.001Z</time></trkpt><trkpt lat="42.429737778331734" lon="12.128888271568261"><ele>399.50000000000006</ele><time>2026-04-28T15:10:30.002Z</time></trkpt><trkpt lat="42.429765174346166" lon="12.12880121582337"><ele>399.0</ele><time>2026-04-28T15:10:35.002Z</time></trkpt><trkpt lat="42.42983336387455" lon="12.128815291069452"><ele>398.5</ele><time>2026-04-28T15:10:41.002Z</time></trkpt><trkpt lat="42.42976422004321" lon="12.128788966898055"><ele>398.0</ele><time>2026-04-28T15:11:45.001Z</time></trkpt><trkpt lat="42.42982276512573" lon="12.128898283895845"><ele>397.50000000000006</ele><time>2026-04-28T15:11:48.001Z</time></trkpt><trkpt lat="42.42993371090665" lon="12.128918542303541"><ele>397.0</ele><time>2026-04-28T15:11:50.001Z</time></trkpt><trkpt lat="42.43003200973033" lon="12.129015830386544"><ele>397.00000000000006</ele><time>2026-04-28T15:11:52.001Z</time></trkpt><trkpt lat="42.430105321407886" lon="12.129040786868696"><ele>397.0</ele><time>2026-04-28T15:11:54.001Z</time></trkpt><trkpt lat="42.430174578488185" lon="12.12911589425197"><ele>397.0</ele><time>2026-04-28T15:11:56.001Z</time></trkpt><trkpt lat="42.43022952786445" lon="12.129188400917887"><ele>397.0</ele><time>2026-04-28T15:11:57.001Z</time></trkpt><trkpt lat="42.43029876489312" lon="12.129276366853741"><ele>397.00000000000006</ele><time>2026-04-28T15:11:58.001Z</time></trkpt><trkpt lat="42.43035166364475" lon="12.129374317112624"><ele>397.0</ele><time>2026-04-28T15:11:59.001Z</time></trkpt><trkpt lat="42.43039261351141" lon="12.129486699443564"><ele>397.33333333333337</ele><time>2026-04-28T15:12:00.001Z</time></trkpt><trkpt lat="42.43041987281815" lon="12.129589792211547"><ele>397.6666666666667</ele><time>2026-04-28T15:12:01.001Z</time></trkpt><trkpt lat="42.430442911813614" lon="12.129670631345341"><ele>398.0</ele><time>2026-04-28T15:12:02.001Z</time></trkpt><trkpt lat="42.43044767318205" lon="12.129762372625342"><ele>398.33333333333337</ele><time>2026-04-28T15:12:04.001Z</time></trkpt><trkpt lat="42.4305785676705" lon="12.129797738767051"><ele>398.6666666666667</ele><time>2026-04-28T15:12:05.001Z</time></trkpt><trkpt lat="42.43066011044877" lon="12.12983114325134"><ele>399.0</ele><time>2026-04-28T15:12:06.001Z</time></trkpt><trkpt lat="42.4307554960503" lon="12.12986505577544"><ele>398.75</ele><time>2026-04-28T15:12:07.001Z</time></trkpt><trkpt lat="42.4308655485008" lon="12.12989672535232"><ele>398.5</ele><time>2026-04-28T15:12:08.001Z</time></trkpt><trkpt lat="42.43098392965158" lon="12.129927325775187"><ele>398.25</ele><time>2026-04-28T15:12:09.001Z</time></trkpt><trkpt lat="42.43112073096942" lon="12.129923769451931"><ele>398.0</ele><time>2026-04-28T15:12:10.001Z</time></trkpt><trkpt lat="42.43125368275518" lon="12.129951931915869"><ele>397.0</ele><time>2026-04-28T15:12:11.001Z</time></trkpt><trkpt lat="42.43138875100206" lon="12.129990945839962"><ele>396.0</ele><time>2026-04-28T15:12:12.001Z</time></trkpt><trkpt lat="42.43153523986004" lon="12.130018998010874"><ele>395.0</ele><time>2026-04-28T15:12:13.001Z</time></trkpt><trkpt lat="42.43168650066428" lon="12.1300761560093"><ele>394.0</ele><time>2026-04-28T15:12:14.001Z</time></trkpt><trkpt lat="42.431845594632854" lon="12.13009226330272"><ele>394.0</ele><time>2026-04-28T15:12:15.001Z</time></trkpt><trkpt lat="42.432012037714514" lon="12.130099812483792"><ele>394.0</ele><time>2026-04-28T15:12:16.001Z</time></trkpt><trkpt lat="42.43218087932608" lon="12.130101089893863"><ele>394.0</ele><time>2026-04-28T15:12:17.001Z</time></trkpt><trkpt lat="42.43235183412878" lon="12.130102383294561"><ele>393.6666666666667</ele><time>2026-04-28T15:12:18.001Z</time></trkpt><trkpt lat="42.432525778404205" lon="12.130103686598362"><ele>393.33333333333337</ele><time>2026-04-28T15:12:19.001Z</time></trkpt><trkpt lat="42.43269890055774" lon="12.130104163219809"><ele>393.0</ele><time>2026-04-28T15:12:20.001Z</time></trkpt><trkpt lat="42.43286697787705" lon="12.130084368014902"><ele>392.33333333333337</ele><time>2026-04-28T15:12:21.001Z</time></trkpt><trkpt lat="42.43303020344088" lon="12.130088318745981"><ele>391.6666666666667</ele><time>2026-04-28T15:12:22.001Z</time></trkpt><trkpt lat="42.433189515854785" lon="12.130094083616257"><ele>391.0</ele><time>2026-04-28T15:12:23.001Z</time></trkpt><trkpt lat="42.43334465150189" lon="12.130099565353156"><ele>391.0</ele><time>2026-04-28T15:12:24.001Z</time></trkpt><trkpt lat="42.43349149645537" lon="12.130115252526467"><ele>391.0</ele><time>2026-04-28T15:12:25.001Z</time></trkpt><trkpt lat="42.433636247803555" lon="12.130143406962494"><ele>391.0</ele><time>2026-04-28T15:12:26.001Z</time></trkpt><trkpt lat="42.433788398473766" lon="12.130187225070685"><ele>391.0</ele><time>2026-04-28T15:12:27.001Z</time></trkpt><trkpt lat="42.433935159591" lon="12.130250003188511"><ele>389.33333333333337</ele><time>2026-04-28T15:12:28.001Z</time></trkpt><trkpt lat="42.43408874642326" lon="12.130335424524404"><ele>387.66666666666663</ele><time>2026-04-28T15:12:29.001Z</time></trkpt><trkpt lat="42.434237469387156" lon="12.130435017632399"><ele>386.0</ele><time>2026-04-28T15:12:30.001Z</time></trkpt><trkpt lat="42.43438478371481" lon="12.130553650735717"><ele>386.0</ele><time>2026-04-28T15:12:31.001Z</time></trkpt><trkpt lat="42.43453116118467" lon="12.130690969111113"><ele>386.0</ele><time>2026-04-28T15:12:32.001Z</time></trkpt><trkpt lat="42.43467849448067" lon="12.130843397380804"><ele>386.0</ele><time>2026-04-28T15:12:33.001Z</time></trkpt><trkpt lat="42.43482445575582" lon="12.130993838453994"><ele>383.3333333333333</ele><time>2026-04-28T15:12:34.001Z</time></trkpt><trkpt lat="42.43497553620596" lon="12.13114694256968"><ele>380.66666666666663</ele><time>2026-04-28T15:12:35.001Z</time></trkpt><trkpt lat="42.435128196342816" lon="12.131300243840805"><ele>378.0</ele><time>2026-04-28T15:12:36.001Z</time></trkpt><trkpt lat="42.43527997616046" lon="12.131452437983997"><ele>377.0</ele><time>2026-04-28T15:12:37.001Z</time></trkpt><trkpt lat="42.435426597874745" lon="12.13160565405832"><ele>376.0</ele><time>2026-04-28T15:12:38.001Z</time></trkpt><trkpt lat="42.43556777799549" lon="12.131749141816028"><ele>375.0</ele><time>2026-04-28T15:12:39.001Z</time></trkpt><trkpt lat="42.435700787339606" lon="12.131881251299262"><ele>375.0</ele><time>2026-04-28T15:12:40.001Z</time></trkpt><trkpt lat="42.43581656240027" lon="12.131989991499879"><ele>375.0</ele><time>2026-04-28T15:12:41.001Z</time></trkpt><trkpt lat="42.43592067455641" lon="12.132075646757462"><ele>375.0</ele><time>2026-04-28T15:12:42.001Z</time></trkpt><trkpt lat="42.43602627217002" lon="12.132131732640534"><ele>375.0</ele><time>2026-04-28T15:12:43.001Z</time></trkpt><trkpt lat="42.43614139222449" lon="12.132161659316388"><ele>375.0</ele><time>2026-04-28T15:12:44.001Z</time></trkpt><trkpt lat="42.436271226681455" lon="12.132165866595326"><ele>375.0</ele><time>2026-04-28T15:12:45.001Z</time></trkpt><trkpt lat="42.43641711877602" lon="12.132162579119077"><ele>375.0</ele><time>2026-04-28T15:12:46.001Z</time></trkpt><trkpt lat="42.436569865588375" lon="12.132169291353732"><ele>375.0</ele><time>2026-04-28T15:12:47.001Z</time></trkpt><trkpt lat="42.43671355478311" lon="12.132191948631815"><ele>377.0</ele><time>2026-04-28T15:12:48.001Z</time></trkpt><trkpt lat="42.436852538391925" lon="12.132233731515367"><ele>379.0</ele><time>2026-04-28T15:12:49.001Z</time></trkpt><trkpt lat="42.436996065446166" lon="12.132293251369607"><ele>381.0</ele><time>2026-04-28T15:12:50.001Z</time></trkpt><trkpt lat="42.437145117851784" lon="12.132368390653015"><ele>377.3333333333333</ele><time>2026-04-28T15:12:51.001Z</time></trkpt><trkpt lat="42.43729942679534" lon="12.132454575724875"><ele>373.66666666666663</ele><time>2026-04-28T15:12:52.001Z</time></trkpt><trkpt lat="42.4374547850258" lon="12.132545572431358"><ele>370.0</ele><time>2026-04-28T15:12:53.001Z</time></trkpt><trkpt lat="42.437609745208704" lon="12.132640843325515"><ele>370.0</ele><time>2026-04-28T15:12:54.002Z</time></trkpt><trkpt lat="42.43776500303534" lon="12.132738672093279"><ele>370.0</ele><time>2026-04-28T15:12:55.002Z</time></trkpt><trkpt lat="42.43791016456129" lon="12.13284287633876"><ele>370.0</ele><time>2026-04-28T15:12:56.002Z</time></trkpt><trkpt lat="42.43804058736861" lon="12.132962447230978"><ele>370.0</ele><time>2026-04-28T15:12:57.002Z</time></trkpt><trkpt lat="42.43816563941237" lon="12.13308946837384"><ele>370.0</ele><time>2026-04-28T15:12:58.002Z</time></trkpt><trkpt lat="42.43830532628252" lon="12.133205601641295"><ele>370.0</ele><time>2026-04-28T15:12:59.002Z</time></trkpt><trkpt lat="42.43845687479693" lon="12.133309675529997"><ele>368.3333333333333</ele><time>2026-04-28T15:13:00.002Z</time></trkpt><trkpt lat="42.43861239402379" lon="12.133400073705522"><ele>366.6666666666667</ele><time>2026-04-28T15:13:01.002Z</time></trkpt><trkpt lat="42.438766496990276" lon="12.13349151021702"><ele>365.0</ele><time>2026-04-28T15:13:02.002Z</time></trkpt><trkpt lat="42.438905092173215" lon="12.133603573984036"><ele>364.33333333333337</ele><time>2026-04-28T15:13:03.002Z</time></trkpt><trkpt lat="42.43903139425338" lon="12.133746093253922"><ele>363.6666666666667</ele><time>2026-04-28T15:13:04.002Z</time></trkpt><trkpt lat="42.439150608003644" lon="12.133908705723615"><ele>363.0</ele><time>2026-04-28T15:13:05.002Z</time></trkpt><trkpt lat="42.43926863161047" lon="12.134084387836117"><ele>363.0</ele><time>2026-04-28T15:13:06.002Z</time></trkpt><trkpt lat="42.43938207635298" lon="12.134264992728296"><ele>363.0</ele><time>2026-04-28T15:13:07.001Z</time></trkpt><trkpt lat="42.43948379263827" lon="12.134455941035416"><ele>363.0</ele><time>2026-04-28T15:13:08.001Z</time></trkpt><trkpt lat="42.43957626555628" lon="12.134657829905064"><ele>364.3333333333333</ele><time>2026-04-28T15:13:09.001Z</time></trkpt><trkpt lat="42.4396670718085" lon="12.134869353117812"><ele>365.66666666666663</ele><time>2026-04-28T15:13:10Z</time></trkpt><trkpt lat="42.43976945472984" lon="12.135069644317241"><ele>367.0</ele><time>2026-04-28T15:13:11Z</time></trkpt><trkpt lat="42.439881994592206" lon="12.135253241982461"><ele>368.0</ele><time>2026-04-28T15:13:12Z</time></trkpt><trkpt lat="42.43999775478169" lon="12.135416958123434"><ele>369.0</ele><time>2026-04-28T15:13:13Z</time></trkpt><trkpt lat="42.44011354352295" lon="12.135569763053544"><ele>370.0</ele><time>2026-04-28T15:13:14Z</time></trkpt><trkpt lat="42.440218096181525" lon="12.135734962672357"><ele>371.3333333333333</ele><time>2026-04-28T15:13:15Z</time></trkpt><trkpt lat="42.44031101901339" lon="12.135909236133218"><ele>372.6666666666667</ele><time>2026-04-28T15:13:16Z</time></trkpt><trkpt lat="42.440400622759704" lon="12.136099003555827"><ele>374.0</ele><time>2026-04-28T15:13:17Z</time></trkpt><trkpt lat="42.44048190279347" lon="12.136275903576879"><ele>374.0</ele><time>2026-04-28T15:13:18Z</time></trkpt><trkpt lat="42.44056503603733" lon="12.136418911353958"><ele>374.0</ele><time>2026-04-28T15:13:19Z</time></trkpt><trkpt lat="42.440668559671956" lon="12.136531233429432"><ele>374.0</ele><time>2026-04-28T15:13:20Z</time></trkpt><trkpt lat="42.44078618489153" lon="12.136612618569778"><ele>374.0</ele><time>2026-04-28T15:13:21Z</time></trkpt><trkpt lat="42.44091860475758" lon="12.136672757576248"><ele>371.5</ele><time>2026-04-28T15:13:22Z</time></trkpt><trkpt lat="42.44106488547402" lon="12.136710918088943"><ele>369.0</ele><time>2026-04-28T15:13:23Z</time></trkpt><trkpt lat="42.44120475841346" lon="12.136745429255917"><ele>366.5</ele><time>2026-04-28T15:13:24Z</time></trkpt><trkpt lat="42.4413287852452" lon="12.136806492507644"><ele>364.0</ele><time>2026-04-28T15:13:25Z</time></trkpt><trkpt lat="42.441431863324894" lon="12.136895510185061"><ele>363.75</ele><time>2026-04-28T15:13:26Z</time></trkpt><trkpt lat="42.44153428986331" lon="12.13701659669919"><ele>363.5</ele><time>2026-04-28T15:13:27Z</time></trkpt><trkpt lat="42.44164189249567" lon="12.137156961603498"><ele>363.25</ele><time>2026-04-28T15:13:28Z</time></trkpt><trkpt lat="42.44175678937285" lon="12.137313765177502"><ele>363.0</ele><time>2026-04-28T15:13:29Z</time></trkpt><trkpt lat="42.44187945308047" lon="12.137479705998228"><ele>363.0</ele><time>2026-04-28T15:13:30Z</time></trkpt><trkpt lat="42.442010041522074" lon="12.137655980876671"><ele>363.0</ele><time>2026-04-28T15:13:31Z</time></trkpt><trkpt lat="42.442141821275825" lon="12.13782890922187"><ele>363.0</ele><time>2026-04-28T15:13:32Z</time></trkpt><trkpt lat="42.442276704746334" lon="12.138005085693901"><ele>366.0</ele><time>2026-04-28T15:13:33Z</time></trkpt><trkpt lat="42.44241290615034" lon="12.138186439843173"><ele>369.0</ele><time>2026-04-28T15:13:34Z</time></trkpt><trkpt lat="42.44254510767172" lon="12.138365439601356"><ele>372.0</ele><time>2026-04-28T15:13:35Z</time></trkpt><trkpt lat="42.44266328106111" lon="12.138530754329633"><ele>373.0</ele><time>2026-04-28T15:13:36Z</time></trkpt><trkpt lat="42.44277400345649" lon="12.138690454193359"><ele>374.0</ele><time>2026-04-28T15:13:37Z</time></trkpt><trkpt lat="42.44288169047156" lon="12.13884583046794"><ele>375.0</ele><time>2026-04-28T15:13:38Z</time></trkpt><trkpt lat="42.442984384381184" lon="12.138993964988881"><ele>376.75</ele><time>2026-04-28T15:13:39Z</time></trkpt><trkpt lat="42.44308522620284" lon="12.139142819468736"><ele>378.5</ele><time>2026-04-28T15:13:40Z</time></trkpt><trkpt lat="42.44318345720891" lon="12.139288212543132"><ele>380.25</ele><time>2026-04-28T15:13:41Z</time></trkpt><trkpt lat="42.44326711831867" lon="12.139407934638653"><ele>382.0</ele><time>2026-04-28T15:13:42Z</time></trkpt><trkpt lat="42.44332892044688" lon="12.139509241018395"><ele>382.0</ele><time>2026-04-28T15:13:43Z</time></trkpt><trkpt lat="42.44336363576391" lon="12.13960716638751"><ele>382.0</ele><time>2026-04-28T15:13:44Z</time></trkpt><trkpt lat="42.44339902484398" lon="12.139704430802453"><ele>382.0</ele><time>2026-04-28T15:13:46Z</time></trkpt><trkpt lat="42.4433755623685" lon="12.139834704536762"><ele>382.0</ele><time>2026-04-28T15:13:48Z</time></trkpt><trkpt lat="42.4433873905525" lon="12.140000764636513"><ele>382.0</ele><time>2026-04-28T15:13:50Z</time></trkpt><trkpt lat="42.44340920330356" lon="12.140147562089235"><ele>381.8333333333333</ele><time>2026-04-28T15:13:52Z</time></trkpt><trkpt lat="42.4434782508135" lon="12.140202266315745"><ele>381.66666666666663</ele><time>2026-04-28T15:13:53Z</time></trkpt><trkpt lat="42.443540623601365" lon="12.140245370487944"><ele>381.5</ele><time>2026-04-28T15:13:54Z</time></trkpt><trkpt lat="42.44362915687974" lon="12.140247479255958"><ele>381.3333333333333</ele><time>2026-04-28T15:13:55Z</time></trkpt><trkpt lat="42.44370963048899" lon="12.140298732440257"><ele>381.1666666666667</ele><time>2026-04-28T15:13:56Z</time></trkpt><trkpt lat="42.44377265231464" lon="12.140376077025705"><ele>381.0</ele><time>2026-04-28T15:13:57Z</time></trkpt><trkpt lat="42.44382554286218" lon="12.1404723172626"><ele>380.4</ele><time>2026-04-28T15:13:58.001Z</time></trkpt><trkpt lat="42.44387500527333" lon="12.140586685731133"><ele>379.8</ele><time>2026-04-28T15:13:59.001Z</time></trkpt><trkpt lat="42.443924086274485" lon="12.140717216892366"><ele>379.2</ele><time>2026-04-28T15:14:00.001Z</time></trkpt><trkpt lat="42.44396983660028" lon="12.140862442455385"><ele>378.59999999999997</ele><time>2026-04-28T15:14:01.001Z</time></trkpt><trkpt lat="42.44400865471359" lon="12.141021061670171"><ele>378.0</ele><time>2026-04-28T15:14:02.001Z</time></trkpt><trkpt lat="42.44404018882683" lon="12.141201057096623"><ele>377.75</ele><time>2026-04-28T15:14:03.001Z</time></trkpt><trkpt lat="42.44406646493554" lon="12.141390391623311"><ele>377.5</ele><time>2026-04-28T15:14:04.001Z</time></trkpt><trkpt lat="42.44408380068768" lon="12.14158979076609"><ele>377.25</ele><time>2026-04-28T15:14:05.001Z</time></trkpt><trkpt lat="42.444107128053226" lon="12.141790247993349"><ele>377.0</ele><time>2026-04-28T15:14:06.001Z</time></trkpt><trkpt lat="42.44414545474203" lon="12.141996430863472"><ele>376.33333333333337</ele><time>2026-04-28T15:14:07.001Z</time></trkpt><trkpt lat="42.44420597518078" lon="12.142197495043686"><ele>375.6666666666667</ele><time>2026-04-28T15:14:08.001Z</time></trkpt><trkpt lat="42.44427270386464" lon="12.142389131888704"><ele>375.0</ele><time>2026-04-28T15:14:09.001Z</time></trkpt><trkpt lat="42.44433788242393" lon="12.142563504397973"><ele>374.75</ele><time>2026-04-28T15:14:10.001Z</time></trkpt><trkpt lat="42.44439898612116" lon="12.142707893446508"><ele>374.5</ele><time>2026-04-28T15:14:11.001Z</time></trkpt><trkpt lat="42.44447465008302" lon="12.142821856927396"><ele>374.25</ele><time>2026-04-28T15:14:12.001Z</time></trkpt><trkpt lat="42.44457109680113" lon="12.142904719428014"><ele>374.0</ele><time>2026-04-28T15:14:13.001Z</time></trkpt><trkpt lat="42.44468892830638" lon="12.142940168981214"><ele>373.25</ele><time>2026-04-28T15:14:14.001Z</time></trkpt><trkpt lat="42.44481517050488" lon="12.1429308375957"><ele>372.5</ele><time>2026-04-28T15:14:15.001Z</time></trkpt><trkpt lat="42.44494800126596" lon="12.14290858172992"><ele>371.75</ele><time>2026-04-28T15:14:16.001Z</time></trkpt><trkpt lat="42.44508088920111" lon="12.142883873514803"><ele>371.0</ele><time>2026-04-28T15:14:17.001Z</time></trkpt><trkpt lat="42.445215005677944" lon="12.142886631054498"><ele>371.0</ele><time>2026-04-28T15:14:18.001Z</time></trkpt><trkpt lat="42.44535254111576" lon="12.142926279059981"><ele>371.0</ele><time>2026-04-28T15:14:19.001Z</time></trkpt><trkpt lat="42.445486951766405" lon="12.143000900987564"><ele>371.0</ele><time>2026-04-28T15:14:20.001Z</time></trkpt><trkpt lat="42.44560176096805" lon="12.143099766898935"><ele>371.0</ele><time>2026-04-28T15:14:21.001Z</time></trkpt><trkpt lat="42.44569958290714" lon="12.143222934526788"><ele>370.6666666666667</ele><time>2026-04-28T15:14:22.001Z</time></trkpt><trkpt lat="42.44578656318404" lon="12.143380437923073"><ele>370.3333333333333</ele><time>2026-04-28T15:14:23.001Z</time></trkpt><trkpt lat="42.445866953094104" lon="12.143571914505653"><ele>370.0</ele><time>2026-04-28T15:14:24.001Z</time></trkpt><trkpt lat="42.44594611561744" lon="12.143782263635714"><ele>370.0</ele><time>2026-04-28T15:14:25.001Z</time></trkpt><trkpt lat="42.446027286109896" lon="12.143988121789151"><ele>370.0</ele><time>2026-04-28T15:14:26.001Z</time></trkpt><trkpt lat="42.44609475668229" lon="12.144208692517836"><ele>370.0</ele><time>2026-04-28T15:14:27.001Z</time></trkpt><trkpt lat="42.4461807151001" lon="12.144431494793219"><ele>367.3333333333333</ele><time>2026-04-28T15:14:28.001Z</time></trkpt><trkpt lat="42.446274655846295" lon="12.144643075977969"><ele>364.6666666666667</ele><time>2026-04-28T15:14:29.001Z</time></trkpt><trkpt lat="42.446350517317605" lon="12.144850819448726"><ele>362.0</ele><time>2026-04-28T15:14:30.001Z</time></trkpt><trkpt lat="42.44643085944248" lon="12.145019313560526"><ele>362.0</ele><time>2026-04-28T15:14:31.001Z</time></trkpt><trkpt lat="42.44652299611271" lon="12.145154503298263"><ele>362.0</ele><time>2026-04-28T15:14:32.001Z</time></trkpt><trkpt lat="42.44662863104406" lon="12.145247634932995"><ele>362.0</ele><time>2026-04-28T15:14:33.001Z</time></trkpt><trkpt lat="42.44675287757615" lon="12.145282877823298"><ele>362.0</ele><time>2026-04-28T15:14:34.001Z</time></trkpt><trkpt lat="42.446880544544264" lon="12.145279111713624"><ele>362.0</ele><time>2026-04-28T15:14:35.001Z</time></trkpt><trkpt lat="42.447017381866324" lon="12.14525321867477"><ele>362.0</ele><time>2026-04-28T15:14:36.001Z</time></trkpt><trkpt lat="42.44716001436134" lon="12.145233750353894"><ele>362.0</ele><time>2026-04-28T15:14:37.001Z</time></trkpt><trkpt lat="42.44730579116732" lon="12.145218976695729"><ele>362.0</ele><time>2026-04-28T15:14:38.001Z</time></trkpt><trkpt lat="42.4474550692238" lon="12.145208479228714"><ele>364.0</ele><time>2026-04-28T15:14:39.001Z</time></trkpt><trkpt lat="42.44760327613095" lon="12.145206109608097"><ele>366.0</ele><time>2026-04-28T15:14:40.001Z</time></trkpt><trkpt lat="42.44775365328529" lon="12.14520218440147"><ele>368.0</ele><time>2026-04-28T15:14:41.001Z</time></trkpt><trkpt lat="42.44790868405401" lon="12.145195513175695"><ele>370.25</ele><time>2026-04-28T15:14:42.001Z</time></trkpt><trkpt lat="42.44806146472324" lon="12.145191230421439"><ele>372.5</ele><time>2026-04-28T15:14:43.001Z</time></trkpt><trkpt lat="42.44821294989741" lon="12.145193227878844"><ele>374.75</ele><time>2026-04-28T15:14:44.001Z</time></trkpt><trkpt lat="42.448348252894775" lon="12.145198154354686"><ele>377.0</ele><time>2026-04-28T15:14:45.001Z</time></trkpt><trkpt lat="42.448475350530835" lon="12.145214033021004"><ele>377.0</ele><time>2026-04-28T15:14:46.001Z</time></trkpt><trkpt lat="42.448607463436474" lon="12.145252079345202"><ele>377.0</ele><time>2026-04-28T15:14:47.001Z</time></trkpt><trkpt lat="42.44874663713633" lon="12.145311149061426"><ele>377.0</ele><time>2026-04-28T15:14:48.001Z</time></trkpt><trkpt lat="42.44888181526673" lon="12.145401118626655"><ele>377.0</ele><time>2026-04-28T15:14:49.001Z</time></trkpt><trkpt lat="42.44901807966064" lon="12.14551019195227"><ele>376.6666666666667</ele><time>2026-04-28T15:14:50.001Z</time></trkpt><trkpt lat="42.44916186648415" lon="12.145636869088285"><ele>376.3333333333333</ele><time>2026-04-28T15:14:51.001Z</time></trkpt><trkpt lat="42.44930683423312" lon="12.145758730700145"><ele>376.0</ele><time>2026-04-28T15:14:52.001Z</time></trkpt><trkpt lat="42.449440703094545" lon="12.145874107597924"><ele>377.4</ele><time>2026-04-28T15:14:53.001Z</time></trkpt><trkpt lat="42.44954788530704" lon="12.145973037822534"><ele>378.8</ele><time>2026-04-28T15:14:54.001Z</time></trkpt><trkpt lat="42.449632285186816" lon="12.14606246447804"><ele>380.2</ele><time>2026-04-28T15:14:55.001Z</time></trkpt><trkpt lat="42.44968767028428" lon="12.146153325389971"><ele>381.59999999999997</ele><time>2026-04-28T15:14:56.001Z</time></trkpt><trkpt lat="42.4497317756665" lon="12.146236751429935"><ele>383.0</ele><time>2026-04-28T15:14:57.001Z</time></trkpt><trkpt lat="42.449766950897285" lon="12.14632212551824"><ele>383.0</ele><time>2026-04-28T15:14:58.001Z</time></trkpt><trkpt lat="42.4498001018335" lon="12.146400844630802"><ele>383.0</ele><time>2026-04-28T15:14:59.001Z</time></trkpt><trkpt lat="42.44985710104061" lon="12.146534116731296"><ele>383.0</ele><time>2026-04-28T15:15:01.001Z</time></trkpt><trkpt lat="42.44991197662018" lon="12.146681643953691"><ele>383.0</ele><time>2026-04-28T15:15:03.001Z</time></trkpt><trkpt lat="42.44994532389766" lon="12.14677770949218"><ele>383.0</ele><time>2026-04-28T15:15:04.001Z</time></trkpt><trkpt lat="42.44998536530986" lon="12.146886993140267"><ele>383.25</ele><time>2026-04-28T15:15:05.001Z</time></trkpt><trkpt lat="42.45003184578823" lon="12.147011412516278"><ele>383.5</ele><time>2026-04-28T15:15:06.001Z</time></trkpt><trkpt lat="42.450083139608005" lon="12.147148209275738"><ele>383.75</ele><time>2026-04-28T15:15:07.001Z</time></trkpt><trkpt lat="42.450138991926536" lon="12.14729921293449"><ele>384.0</ele><time>2026-04-28T15:15:08.001Z</time></trkpt><trkpt lat="42.450196479303735" lon="12.147457627081995"><ele>383.5</ele><time>2026-04-28T15:15:09.001Z</time></trkpt><trkpt lat="42.45025784733508" lon="12.147609627060682"><ele>383.0</ele><time>2026-04-28T15:15:10.001Z</time></trkpt><trkpt lat="42.45032357380289" lon="12.147746345439892"><ele>382.5</ele><time>2026-04-28T15:15:11.001Z</time></trkpt><trkpt lat="42.45040312744018" lon="12.147878874239382"><ele>382.0</ele><time>2026-04-28T15:15:12.001Z</time></trkpt><trkpt lat="42.45049859387654" lon="12.14802840743532"><ele>382.0</ele><time>2026-04-28T15:15:13Z</time></trkpt><trkpt lat="42.45062803187525" lon="12.148135304418329"><ele>382.0</ele><time>2026-04-28T15:15:14Z</time></trkpt><trkpt lat="42.45074711358231" lon="12.148276370203176"><ele>382.0</ele><time>2026-04-28T15:15:15Z</time></trkpt><trkpt lat="42.450879940550294" lon="12.148405315514646"><ele>382.3333333333333</ele><time>2026-04-28T15:15:16Z</time></trkpt><trkpt lat="42.45102091266217" lon="12.148525291892302"><ele>382.6666666666667</ele><time>2026-04-28T15:15:17Z</time></trkpt><trkpt lat="42.451148176732225" lon="12.148664747634163"><ele>383.0</ele><time>2026-04-28T15:15:18Z</time></trkpt><trkpt lat="42.45127742411619" lon="12.148812721847817"><ele>382.33333333333337</ele><time>2026-04-28T15:15:19Z</time></trkpt><trkpt lat="42.4514029156087" lon="12.148971014497358"><ele>381.6666666666667</ele><time>2026-04-28T15:15:20Z</time></trkpt><trkpt lat="42.45152764405467" lon="12.149139720030684"><ele>381.0</ele><time>2026-04-28T15:15:21Z</time></trkpt><trkpt lat="42.45164619386705" lon="12.149303602433557"><ele>381.0</ele><time>2026-04-28T15:15:22Z</time></trkpt><trkpt lat="42.45175755618543" lon="12.14946293856782"><ele>381.0</ele><time>2026-04-28T15:15:23Z</time></trkpt><trkpt lat="42.451859008279186" lon="12.149604421614226"><ele>381.0</ele><time>2026-04-28T15:15:24Z</time></trkpt><trkpt lat="42.45195231013305" lon="12.149748240924481"><ele>381.0</ele><time>2026-04-28T15:15:25Z</time></trkpt><trkpt lat="42.452033130601045" lon="12.149908853980117"><ele>381.0</ele><time>2026-04-28T15:15:26Z</time></trkpt><trkpt lat="42.45210842766949" lon="12.150093368009905"><ele>381.0</ele><time>2026-04-28T15:15:27Z</time></trkpt><trkpt lat="42.45218297325469" lon="12.150301834323363"><ele>381.0</ele><time>2026-04-28T15:15:28Z</time></trkpt><trkpt lat="42.452241699007985" lon="12.150538906110402"><ele>379.3333333333333</ele><time>2026-04-28T15:15:29Z</time></trkpt><trkpt lat="42.452317964269724" lon="12.150779473669875"><ele>377.66666666666663</ele><time>2026-04-28T15:15:30Z</time></trkpt><trkpt lat="42.45239981187399" lon="12.151035021780155"><ele>376.0</ele><time>2026-04-28T15:15:31Z</time></trkpt><trkpt lat="42.45248253194476" lon="12.151289176990472"><ele>376.0</ele><time>2026-04-28T15:15:32Z</time></trkpt><trkpt lat="42.45256338489717" lon="12.151537485843173"><ele>376.0</ele><time>2026-04-28T15:15:33Z</time></trkpt><trkpt lat="42.45264459557675" lon="12.151778714749705"><ele>376.0</ele><time>2026-04-28T15:15:34Z</time></trkpt><trkpt lat="42.4527263136775" lon="12.15202136792322"><ele>375.3333333333333</ele><time>2026-04-28T15:15:35Z</time></trkpt><trkpt lat="42.45281119073386" lon="12.152272198841226"><ele>374.6666666666667</ele><time>2026-04-28T15:15:36Z</time></trkpt><trkpt lat="42.45289417362257" lon="12.152506707905056"><ele>374.0</ele><time>2026-04-28T15:15:37Z</time></trkpt><trkpt lat="42.45297134839772" lon="12.15272480323992"><ele>374.0</ele><time>2026-04-28T15:15:38Z</time></trkpt><trkpt lat="42.45304392111957" lon="12.152930689539996"><ele>374.0</ele><time>2026-04-28T15:15:39Z</time></trkpt><trkpt lat="42.45311058371799" lon="12.153128195999855"><ele>374.0</ele><time>2026-04-28T15:15:40Z</time></trkpt><trkpt lat="42.453172626524605" lon="12.153328493990156"><ele>374.0</ele><time>2026-04-28T15:15:41Z</time></trkpt><trkpt lat="42.45321551306638" lon="12.153536393954461"><ele>374.0</ele><time>2026-04-28T15:15:42Z</time></trkpt><trkpt lat="42.45324235143253" lon="12.15375012289505"><ele>374.0</ele><time>2026-04-28T15:15:43Z</time></trkpt><trkpt lat="42.45326660589478" lon="12.153975396120195"><ele>375.0</ele><time>2026-04-28T15:15:44Z</time></trkpt><trkpt lat="42.45331103029707" lon="12.154211612728904"><ele>376.0</ele><time>2026-04-28T15:15:45Z</time></trkpt><trkpt lat="42.45337991133687" lon="12.154444964950681"><ele>377.0</ele><time>2026-04-28T15:15:46Z</time></trkpt><trkpt lat="42.45343496736497" lon="12.154677998478741"><ele>378.0</ele><time>2026-04-28T15:15:47Z</time></trkpt><trkpt lat="42.453470864143924" lon="12.1549187707687"><ele>379.0</ele><time>2026-04-28T15:15:48Z</time></trkpt><trkpt lat="42.453535793410886" lon="12.155160544456933"><ele>380.0</ele><time>2026-04-28T15:15:49Z</time></trkpt><trkpt lat="42.45358145331651" lon="12.155413627029606"><ele>380.0</ele><time>2026-04-28T15:15:50Z</time></trkpt><trkpt lat="42.45362858101651" lon="12.155665970108444"><ele>380.0</ele><time>2026-04-28T15:15:51Z</time></trkpt><trkpt lat="42.45367901422922" lon="12.155912915834962"><ele>380.0</ele><time>2026-04-28T15:15:52Z</time></trkpt><trkpt lat="42.45371415510422" lon="12.156159470306452"><ele>380.33333333333337</ele><time>2026-04-28T15:15:53Z</time></trkpt><trkpt lat="42.45376243163669" lon="12.156402728986814"><ele>380.6666666666667</ele><time>2026-04-28T15:15:54Z</time></trkpt><trkpt lat="42.45381122608281" lon="12.156644053690826"><ele>381.0</ele><time>2026-04-28T15:15:55Z</time></trkpt><trkpt lat="42.45387746084805" lon="12.156890675100609"><ele>378.6666666666667</ele><time>2026-04-28T15:15:56Z</time></trkpt><trkpt lat="42.45392595882181" lon="12.157149099893504"><ele>376.33333333333337</ele><time>2026-04-28T15:15:57Z</time></trkpt><trkpt lat="42.45397172994341" lon="12.157381444729783"><ele>374.0</ele><time>2026-04-28T15:15:58Z</time></trkpt><trkpt lat="42.454014800001545" lon="12.157595348861312"><ele>372.33333333333337</ele><time>2026-04-28T15:15:59Z</time></trkpt><trkpt lat="42.45406045915764" lon="12.15779940687135"><ele>370.6666666666667</ele><time>2026-04-28T15:16:00Z</time></trkpt><trkpt lat="42.45411081672768" lon="12.157993736947843"><ele>369.0</ele><time>2026-04-28T15:16:01Z</time></trkpt><trkpt lat="42.45417463312992" lon="12.158177841583095"><ele>367.6666666666667</ele><time>2026-04-28T15:16:02Z</time></trkpt><trkpt lat="42.45425479767274" lon="12.158358972687275"><ele>366.33333333333337</ele><time>2026-04-28T15:16:03Z</time></trkpt><trkpt lat="42.45435242049148" lon="12.158529558727295"><ele>365.0</ele><time>2026-04-28T15:16:04Z</time></trkpt><trkpt lat="42.45446409849464" lon="12.158684385516864"><ele>365.0</ele><time>2026-04-28T15:16:05Z</time></trkpt><trkpt lat="42.45458908945629" lon="12.158821414626132"><ele>365.0</ele><time>2026-04-28T15:16:06Z</time></trkpt><trkpt lat="42.45473021354886" lon="12.158939392478741"><ele>365.0</ele><time>2026-04-28T15:16:07Z</time></trkpt><trkpt lat="42.45488547371292" lon="12.159041755358956"><ele>364.6666666666667</ele><time>2026-04-28T15:16:08Z</time></trkpt><trkpt lat="42.45505328210145" lon="12.159133041449243"><ele>364.3333333333333</ele><time>2026-04-28T15:16:09Z</time></trkpt><trkpt lat="42.455222893404155" lon="12.1592108926118"><ele>364.0</ele><time>2026-04-28T15:16:10Z</time></trkpt><trkpt lat="42.455388840662884" lon="12.15928759790635"><ele>364.75</ele><time>2026-04-28T15:16:11Z</time></trkpt><trkpt lat="42.45554044248209" lon="12.159357608458613"><ele>365.5</ele><time>2026-04-28T15:16:12Z</time></trkpt><trkpt lat="42.4556818503982" lon="12.159421733652678"><ele>366.25</ele><time>2026-04-28T15:16:13Z</time></trkpt><trkpt lat="42.455814635875676" lon="12.159481046321853"><ele>367.0</ele><time>2026-04-28T15:16:14Z</time></trkpt><trkpt lat="42.45593980980951" lon="12.1595407974902"><ele>367.0</ele><time>2026-04-28T15:16:15Z</time></trkpt><trkpt lat="42.456052389845425" lon="12.15960154322328"><ele>367.0</ele><time>2026-04-28T15:16:16Z</time></trkpt><trkpt lat="42.45616325492486" lon="12.15966837986456"><ele>367.0</ele><time>2026-04-28T15:16:17Z</time></trkpt><trkpt lat="42.4562702586634" lon="12.159743874599766"><ele>367.0</ele><time>2026-04-28T15:16:18Z</time></trkpt><trkpt lat="42.456369496609724" lon="12.15982210714093"><ele>368.0</ele><time>2026-04-28T15:16:19Z</time></trkpt><trkpt lat="42.45646055423986" lon="12.159889442623651"><ele>369.0</ele><time>2026-04-28T15:16:20Z</time></trkpt><trkpt lat="42.456529933759704" lon="12.159947924587609"><ele>370.0</ele><time>2026-04-28T15:16:21Z</time></trkpt><trkpt lat="42.456623455730664" lon="12.160017961345284"><ele>371.0</ele><time>2026-04-28T15:16:23Z</time></trkpt><trkpt lat="42.45669092052727" lon="12.160067467836797"><ele>372.0</ele><time>2026-04-28T15:16:25Z</time></trkpt><trkpt lat="42.456601403540255" lon="12.159980297587873"><ele>372.0</ele><time>2026-04-28T15:16:30Z</time></trkpt><trkpt lat="42.456552001927086" lon="12.160117525350516"><ele>372.0</ele><time>2026-04-28T15:16:31Z</time></trkpt><trkpt lat="42.45653550470726" lon="12.159740177496522"><ele>372.0</ele><time>2026-04-28T15:16:32.001Z</time></trkpt><trkpt lat="42.45646184902157" lon="12.159655457112441"><ele>371.0</ele><time>2026-04-28T15:16:33.001Z</time></trkpt><trkpt lat="42.45638940634052" lon="12.159562737005556"><ele>370.0</ele><time>2026-04-28T15:16:34.001Z</time></trkpt><trkpt lat="42.456344817935275" lon="12.159474993782053"><ele>369.0</ele><time>2026-04-28T15:16:35.001Z</time></trkpt><trkpt lat="42.456257834894885" lon="12.159349758300204"><ele>368.0</ele><time>2026-04-28T15:16:36.001Z</time></trkpt><trkpt lat="42.45618310679413" lon="12.159238762386904"><ele>367.0</ele><time>2026-04-28T15:16:37.001Z</time></trkpt><trkpt lat="42.45611052151142" lon="12.159130949270446"><ele>366.0</ele><time>2026-04-28T15:16:38.001Z</time></trkpt><trkpt lat="42.456025486320435" lon="12.159025956584856"><ele>365.0</ele><time>2026-04-28T15:16:39.001Z</time></trkpt><trkpt lat="42.455997202420896" lon="12.158869768592792"><ele>364.0</ele><time>2026-04-28T15:16:41.001Z</time></trkpt><trkpt lat="42.4553484802508" lon="12.159236060345847"><ele>364.0</ele><time>2026-04-28T15:16:42.001Z</time></trkpt><trkpt lat="42.45523511442249" lon="12.159184490539824"><ele>364.0</ele><time>2026-04-28T15:16:43.001Z</time></trkpt><trkpt lat="42.455127234930764" lon="12.159134053091151"><ele>364.0</ele><time>2026-04-28T15:16:44.001Z</time></trkpt><trkpt lat="42.45503242777368" lon="12.159084358509466"><ele>364.0</ele><time>2026-04-28T15:16:45.001Z</time></trkpt><trkpt lat="42.45494177018198" lon="12.159038150137908"><ele>364.0</ele><time>2026-04-28T15:16:46.001Z</time></trkpt><trkpt lat="42.454858750878174" lon="12.158995131826874"><ele>364.2</ele><time>2026-04-28T15:16:47.001Z</time></trkpt><trkpt lat="42.454787160599665" lon="12.158950343921559"><ele>364.4</ele><time>2026-04-28T15:16:48.001Z</time></trkpt><trkpt lat="42.454730719936755" lon="12.15891155950536"><ele>364.6</ele><time>2026-04-28T15:16:49.001Z</time></trkpt><trkpt lat="42.45461647939914" lon="12.158945505612493"><ele>364.8</ele><time>2026-04-28T15:16:51.001Z</time></trkpt><trkpt lat="42.45456110144625" lon="12.159045572390246"><ele>365.0</ele><time>2026-04-28T15:16:52.001Z</time></trkpt><trkpt lat="42.45450097784245" lon="12.159173660367944"><ele>365.25</ele><time>2026-04-28T15:16:53.001Z</time></trkpt><trkpt lat="42.45441621591647" lon="12.15930490097147"><ele>365.5</ele><time>2026-04-28T15:16:54.001Z</time></trkpt><trkpt lat="42.4543103234323" lon="12.159410383372954"><ele>365.75</ele><time>2026-04-28T15:16:55.001Z</time></trkpt><trkpt lat="42.454205524471064" lon="12.15951131441695"><ele>366.0</ele><time>2026-04-28T15:16:56.001Z</time></trkpt><trkpt lat="42.45413962484843" lon="12.159597312390964"><ele>366.0</ele><time>2026-04-28T15:16:57.001Z</time></trkpt><trkpt lat="42.45408381358537" lon="12.159677819578729"><ele>366.0</ele><time>2026-04-28T15:16:58.001Z</time></trkpt><trkpt lat="42.454030265780425" lon="12.159762977894387"><ele>366.0</ele><time>2026-04-28T15:16:59.001Z</time></trkpt><trkpt lat="42.45403329902545" lon="12.159906466782767"><ele>366.0</ele><time>2026-04-28T15:17:00.001Z</time></trkpt><trkpt lat="42.45404180363415" lon="12.160045841355792"><ele>366.0</ele><time>2026-04-28T15:17:01.001Z</time></trkpt><trkpt lat="42.45405459019697" lon="12.160176131147372"><ele>367.0</ele><time>2026-04-28T15:17:02.001Z</time></trkpt><trkpt lat="42.45406448528072" lon="12.160271119823593"><ele>368.0</ele><time>2026-04-28T15:17:03.001Z</time></trkpt><trkpt lat="42.4540050780876" lon="12.160381911267752"><ele>369.0</ele><time>2026-04-28T15:17:05.001Z</time></trkpt><trkpt lat="42.453940514308" lon="12.160397023642071"><ele>370.0</ele><time>2026-04-28T15:17:06.001Z</time></trkpt><trkpt lat="42.45384965084159" lon="12.160382194358608"><ele>371.0</ele><time>2026-04-28T15:17:07.001Z</time></trkpt><trkpt lat="42.453747907812456" lon="12.160395182507862"><ele>372.0</ele><time>2026-04-28T15:17:08.001Z</time></trkpt><trkpt lat="42.453627880849595" lon="12.160409268476993"><ele>372.40000000000003</ele><time>2026-04-28T15:17:09.001Z</time></trkpt><trkpt lat="42.45349343252296" lon="12.160426624207558"><ele>372.8</ele><time>2026-04-28T15:17:10.001Z</time></trkpt><trkpt lat="42.453376845352494" lon="12.160436359739052"><ele>373.2</ele><time>2026-04-28T15:17:11.001Z</time></trkpt><trkpt lat="42.45327395152432" lon="12.160448519415946"><ele>373.6</ele><time>2026-04-28T15:17:12.001Z</time></trkpt><trkpt lat="42.45319510387804" lon="12.160461960897818"><ele>374.0</ele><time>2026-04-28T15:17:13.001Z</time></trkpt><trkpt lat="42.45313594040669" lon="12.160495983100908"><ele>374.0</ele><time>2026-04-28T15:17:15.001Z</time></trkpt><trkpt lat="42.45311746508266" lon="12.160647591267777"><ele>374.0</ele><time>2026-04-28T15:17:17.001Z</time></trkpt><trkpt lat="42.45314669937217" lon="12.160769795259808"><ele>374.0</ele><time>2026-04-28T15:17:18.001Z</time></trkpt><trkpt lat="42.45314179865448" lon="12.160906813800459"><ele>374.0</ele><time>2026-04-28T15:17:18.999Z</time></trkpt><trkpt lat="42.453147862581964" lon="12.16106946980249"><ele>374.0</ele><time>2026-04-28T15:17:19.999Z</time></trkpt><trkpt lat="42.45316517202838" lon="12.161215022811243"><ele>373.79999999999995</ele><time>2026-04-28T15:17:20.999Z</time></trkpt><trkpt lat="42.45316652221249" lon="12.161348330050721"><ele>373.59999999999997</ele><time>2026-04-28T15:17:21.999Z</time></trkpt><trkpt lat="42.453164337500866" lon="12.16147420358655"><ele>373.4</ele><time>2026-04-28T15:17:22.999Z</time></trkpt><trkpt lat="42.45315664173251" lon="12.161608054512072"><ele>373.2</ele><time>2026-04-28T15:17:23.999Z</time></trkpt><trkpt lat="42.453147290678764" lon="12.161756037338177"><ele>373.0</ele><time>2026-04-28T15:17:24.999Z</time></trkpt><trkpt lat="42.45314804493327" lon="12.161907330288386"><ele>373.0</ele><time>2026-04-28T15:17:25.999Z</time></trkpt><trkpt lat="42.45315728985004" lon="12.162060188173728"><ele>373.0</ele><time>2026-04-28T15:17:26.999Z</time></trkpt><trkpt lat="42.453169415406244" lon="12.162195840416192"><ele>373.0</ele><time>2026-04-28T15:17:27.999Z</time></trkpt><trkpt lat="42.45318563980662" lon="12.16233510155883"><ele>373.0</ele><time>2026-04-28T15:17:28.999Z</time></trkpt><trkpt lat="42.45319508352844" lon="12.162457349389276"><ele>373.0</ele><time>2026-04-28T15:17:29.999Z</time></trkpt><trkpt lat="42.45319963110213" lon="12.162573851240214"><ele>373.3333333333333</ele><time>2026-04-28T15:17:30.999Z</time></trkpt><trkpt lat="42.453201977735645" lon="12.16268000553547"><ele>373.66666666666663</ele><time>2026-04-28T15:17:31.999Z</time></trkpt><trkpt lat="42.45317704473156" lon="12.16277182864209"><ele>374.0</ele><time>2026-04-28T15:17:33.999Z</time></trkpt><trkpt lat="42.45306830878127" lon="12.162793426430364"><ele>374.3333333333333</ele><time>2026-04-28T15:17:37Z</time></trkpt><trkpt lat="42.45300013651966" lon="12.162790699540215"><ele>374.6666666666667</ele><time>2026-04-28T15:17:38Z</time></trkpt><trkpt lat="42.45291908737361" lon="12.162791113493675"><ele>375.0</ele><time>2026-04-28T15:17:39Z</time></trkpt><trkpt lat="42.45281710077489" lon="12.162818678388115"><ele>375.25</ele><time>2026-04-28T15:17:40Z</time></trkpt><trkpt lat="42.452701245400476" lon="12.162827338152402"><ele>375.5</ele><time>2026-04-28T15:17:41Z</time></trkpt><trkpt lat="42.45257699964412" lon="12.162844342569445"><ele>375.75</ele><time>2026-04-28T15:17:42Z</time></trkpt><trkpt lat="42.4524414153152" lon="12.162854938477716"><ele>376.0</ele><time>2026-04-28T15:17:43Z</time></trkpt><trkpt lat="42.45230358644843" lon="12.162873194091999"><ele>376.0</ele><time>2026-04-28T15:17:44Z</time></trkpt><trkpt lat="42.452164920649906" lon="12.162893618824794"><ele>376.0</ele><time>2026-04-28T15:17:45Z</time></trkpt><trkpt lat="42.45202037748681" lon="12.162911576203463"><ele>376.0</ele><time>2026-04-28T15:17:46Z</time></trkpt><trkpt lat="42.45187043918809" lon="12.162923445361354"><ele>376.0</ele><time>2026-04-28T15:17:47Z</time></trkpt><trkpt lat="42.45171883455681" lon="12.162930133528937"><ele>376.66666666666663</ele><time>2026-04-28T15:17:48Z</time></trkpt><trkpt lat="42.45157438967959" lon="12.16294508009455"><ele>377.3333333333333</ele><time>2026-04-28T15:17:49Z</time></trkpt><trkpt lat="42.45141911694755" lon="12.162975051664803"><ele>378.0</ele><time>2026-04-28T15:17:50Z</time></trkpt><trkpt lat="42.45125900238216" lon="12.163010567876457"><ele>378.25</ele><time>2026-04-28T15:17:51Z</time></trkpt><trkpt lat="42.45109608904418" lon="12.16305390197325"><ele>378.5</ele><time>2026-04-28T15:17:52Z</time></trkpt><trkpt lat="42.45095961002161" lon="12.163086502636139"><ele>378.75</ele><time>2026-04-28T15:17:53Z</time></trkpt><trkpt lat="42.45084361233862" lon="12.163105433189145"><ele>379.0</ele><time>2026-04-28T15:17:54Z</time></trkpt><trkpt lat="42.450747069069706" lon="12.163118845698628"><ele>379.0</ele><time>2026-04-28T15:17:55Z</time></trkpt><trkpt lat="42.45067117156584" lon="12.163135669371162"><ele>379.0</ele><time>2026-04-28T15:17:56Z</time></trkpt><trkpt lat="42.45060736082368" lon="12.163165173764607"><ele>379.0</ele><time>2026-04-28T15:17:57Z</time></trkpt><trkpt lat="42.45050415771292" lon="12.163249671816255"><ele>379.0</ele><time>2026-04-28T15:17:59Z</time></trkpt><trkpt lat="42.45049348335079" lon="12.163391656124935"><ele>379.0</ele><time>2026-04-28T15:18:00Z</time></trkpt><trkpt lat="42.450466297241725" lon="12.16351492817609"><ele>380.0</ele><time>2026-04-28T15:18:01Z</time></trkpt><trkpt lat="42.450424849820884" lon="12.163658218740418"><ele>381.0</ele><time>2026-04-28T15:18:02Z</time></trkpt><trkpt lat="42.45039740536012" lon="12.163824184481069"><ele>382.0</ele><time>2026-04-28T15:18:03Z</time></trkpt><trkpt lat="42.45035137848754" lon="12.164010609215916"><ele>383.0</ele><time>2026-04-28T15:18:04Z</time></trkpt><trkpt lat="42.450298918068185" lon="12.164209453323801"><ele>383.75</ele><time>2026-04-28T15:18:05Z</time></trkpt><trkpt lat="42.45026547794263" lon="12.164376328700078"><ele>384.5</ele><time>2026-04-28T15:18:06Z</time></trkpt><trkpt lat="42.45023641796055" lon="12.164528047947456"><ele>385.25</ele><time>2026-04-28T15:18:07Z</time></trkpt><trkpt lat="42.45020287786589" lon="12.164675447258924"><ele>386.0</ele><time>2026-04-28T15:18:08Z</time></trkpt><trkpt lat="42.4501591553616" lon="12.164820071669734"><ele>384.66666666666663</ele><time>2026-04-28T15:18:09Z</time></trkpt><trkpt lat="42.45009698482981" lon="12.164977276879032"><ele>383.3333333333333</ele><time>2026-04-28T15:18:10Z</time></trkpt><trkpt lat="42.45001230144167" lon="12.165163081894539"><ele>382.0</ele><time>2026-04-28T15:18:11Z</time></trkpt><trkpt lat="42.449930940530464" lon="12.165349326470773"><ele>382.0</ele><time>2026-04-28T15:18:12Z</time></trkpt><trkpt lat="42.449854869242586" lon="12.165536531484648"><ele>382.0</ele><time>2026-04-28T15:18:13Z</time></trkpt><trkpt lat="42.449774652677874" lon="12.165714829520308"><ele>382.0</ele><time>2026-04-28T15:18:14Z</time></trkpt><trkpt lat="42.44970541891072" lon="12.165877525115237"><ele>380.40000000000003</ele><time>2026-04-28T15:18:15Z</time></trkpt><trkpt lat="42.44964933317882" lon="12.166022505559084"><ele>378.8</ele><time>2026-04-28T15:18:16Z</time></trkpt><trkpt lat="42.44960350563039" lon="12.166137432032716"><ele>377.2</ele><time>2026-04-28T15:18:17Z</time></trkpt><trkpt lat="42.449562668703386" lon="12.166218314686786"><ele>375.6</ele><time>2026-04-28T15:18:18Z</time></trkpt><trkpt lat="42.449477136878045" lon="12.166273505468729"><ele>374.0</ele><time>2026-04-28T15:18:20Z</time></trkpt><trkpt lat="42.44936314107907" lon="12.166183304230453"><ele>374.0</ele><time>2026-04-28T15:18:22Z</time></trkpt><trkpt lat="42.44928670371603" lon="12.166115153432852"><ele>374.0</ele><time>2026-04-28T15:18:23Z</time></trkpt><trkpt lat="42.44918960866209" lon="12.166050211111159"><ele>374.0</ele><time>2026-04-28T15:18:24Z</time></trkpt><trkpt lat="42.449080637503066" lon="12.16597546868244"><ele>374.0</ele><time>2026-04-28T15:18:25Z</time></trkpt><trkpt lat="42.448970787765646" lon="12.165902741368987"><ele>374.0</ele><time>2026-04-28T15:18:26Z</time></trkpt><trkpt lat="42.44887108420967" lon="12.165835340309954"><ele>374.79999999999995</ele><time>2026-04-28T15:18:27Z</time></trkpt><trkpt lat="42.44878408723482" lon="12.165776498548798"><ele>375.59999999999997</ele><time>2026-04-28T15:18:28Z</time></trkpt><trkpt lat="42.44869331874187" lon="12.165745080942056"><ele>376.4</ele><time>2026-04-28T15:18:29Z</time></trkpt><trkpt lat="42.44858444651065" lon="12.165729402221263"><ele>377.2</ele><time>2026-04-28T15:18:30Z</time></trkpt><trkpt lat="42.448491730839066" lon="12.165719895916306"><ele>378.0</ele><time>2026-04-28T15:18:31Z</time></trkpt><trkpt lat="42.44840969471444" lon="12.16573032412675"><ele>378.0</ele><time>2026-04-28T15:18:32Z</time></trkpt><trkpt lat="42.44833395192902" lon="12.16576953248382"><ele>378.0</ele><time>2026-04-28T15:18:33Z</time></trkpt><trkpt lat="42.44826294359138" lon="12.165832787567266"><ele>378.0</ele><time>2026-04-28T15:18:34Z</time></trkpt><trkpt lat="42.44820430666088" lon="12.16591506470034"><ele>378.0</ele><time>2026-04-28T15:18:35Z</time></trkpt><trkpt lat="42.44815668749572" lon="12.16602844345184"><ele>378.0</ele><time>2026-04-28T15:18:36Z</time></trkpt><trkpt lat="42.44811446434401" lon="12.16615496619739"><ele>378.0</ele><time>2026-04-28T15:18:37Z</time></trkpt><trkpt lat="42.44805994185728" lon="12.166257327587058"><ele>378.0</ele><time>2026-04-28T15:18:38Z</time></trkpt><trkpt lat="42.447994033551716" lon="12.166339188032014"><ele>378.0</ele><time>2026-04-28T15:18:39Z</time></trkpt><trkpt lat="42.44792787200354" lon="12.166431313722859"><ele>378.0</ele><time>2026-04-28T15:18:40.001Z</time></trkpt><trkpt lat="42.44787594003885" lon="12.166535327053472"><ele>378.0</ele><time>2026-04-28T15:18:41.001Z</time></trkpt><trkpt lat="42.44784161774356" lon="12.166642451002343"><ele>378.0</ele><time>2026-04-28T15:18:42.001Z</time></trkpt><trkpt lat="42.44782197668773" lon="12.166766134741025"><ele>377.5</ele><time>2026-04-28T15:18:43.001Z</time></trkpt><trkpt lat="42.44782043919336" lon="12.166905773897685"><ele>377.0</ele><time>2026-04-28T15:18:44.001Z</time></trkpt><trkpt lat="42.44783681886172" lon="12.167053445213545"><ele>376.5</ele><time>2026-04-28T15:18:45.001Z</time></trkpt><trkpt lat="42.447871105257946" lon="12.167224765047127"><ele>376.0</ele><time>2026-04-28T15:18:46.001Z</time></trkpt><trkpt lat="42.44791621508921" lon="12.16740649680158"><ele>376.0</ele><time>2026-04-28T15:18:47.001Z</time></trkpt><trkpt lat="42.44795890791391" lon="12.167571568334692"><ele>376.0</ele><time>2026-04-28T15:18:48.001Z</time></trkpt><trkpt lat="42.44800972026144" lon="12.167727312539215"><ele>376.0</ele><time>2026-04-28T15:18:49.001Z</time></trkpt><trkpt lat="42.44805328996049" lon="12.167872507457355"><ele>376.0</ele><time>2026-04-28T15:18:50.001Z</time></trkpt><trkpt lat="42.448114319709724" lon="12.16798442795113"><ele>375.3333333333333</ele><time>2026-04-28T15:18:51.001Z</time></trkpt><trkpt lat="42.448165347133134" lon="12.168063117753753"><ele>374.66666666666663</ele><time>2026-04-28T15:18:52.001Z</time></trkpt><trkpt lat="42.4482200292506" lon="12.168114041635208"><ele>374.0</ele><time>2026-04-28T15:18:53.001Z</time></trkpt><trkpt lat="42.44825614275703" lon="12.168217683951573"><ele>373.3333333333333</ele><time>2026-04-28T15:18:55.001Z</time></trkpt><trkpt lat="42.44822811598126" lon="12.168327000905142"><ele>372.6666666666667</ele><time>2026-04-28T15:18:57.001Z</time></trkpt><trkpt lat="42.44815592304278" lon="12.16835723323604"><ele>372.0</ele><time>2026-04-28T15:18:58.001Z</time></trkpt><trkpt lat="42.448072267192444" lon="12.168422710371939"><ele>372.40000000000003</ele><time>2026-04-28T15:18:59.001Z</time></trkpt><trkpt lat="42.4479821751067" lon="12.168511616810294"><ele>372.8</ele><time>2026-04-28T15:19:00.001Z</time></trkpt><trkpt lat="42.44786742275199" lon="12.168577746661642"><ele>373.2</ele><time>2026-04-28T15:19:01.001Z</time></trkpt><trkpt lat="42.44778290307086" lon="12.168648902482074"><ele>373.6</ele><time>2026-04-28T15:19:02.001Z</time></trkpt><trkpt lat="42.447714026403396" lon="12.168724409092741"><ele>374.0</ele><time>2026-04-28T15:19:03.001Z</time></trkpt><trkpt lat="42.44765644289672" lon="12.168823312259173"><ele>374.0</ele><time>2026-04-28T15:19:04.001Z</time></trkpt><trkpt lat="42.447612888693925" lon="12.168936268184218"><ele>374.0</ele><time>2026-04-28T15:19:05.001Z</time></trkpt><trkpt lat="42.44757864144819" lon="12.169049989726801"><ele>374.0</ele><time>2026-04-28T15:19:06.001Z</time></trkpt><trkpt lat="42.44754293139927" lon="12.169178985403576"><ele>374.0</ele><time>2026-04-28T15:19:07.001Z</time></trkpt><trkpt lat="42.44750114579858" lon="12.169330768365427"><ele>374.0</ele><time>2026-04-28T15:19:08.001Z</time></trkpt><trkpt lat="42.447449914964366" lon="12.169488755698339"><ele>374.0</ele><time>2026-04-28T15:19:09.001Z</time></trkpt><trkpt lat="42.44738207302584" lon="12.169666866824908"><ele>374.0</ele><time>2026-04-28T15:19:10.001Z</time></trkpt><trkpt lat="42.44732080276667" lon="12.169818551477977"><ele>374.0</ele><time>2026-04-28T15:19:11.001Z</time></trkpt><trkpt lat="42.44726963999666" lon="12.169940064313606"><ele>374.0</ele><time>2026-04-28T15:19:12.001Z</time></trkpt><trkpt lat="42.447213765374215" lon="12.170037429089396"><ele>373.79999999999995</ele><time>2026-04-28T15:19:13.001Z</time></trkpt><trkpt lat="42.447155218617496" lon="12.170121798596371"><ele>373.59999999999997</ele><time>2026-04-28T15:19:14.001Z</time></trkpt><trkpt lat="42.4470912331999" lon="12.17019994149904"><ele>373.4</ele><time>2026-04-28T15:19:15.001Z</time></trkpt><trkpt lat="42.447015574111546" lon="12.170277542738306"><ele>373.2</ele><time>2026-04-28T15:19:16.001Z</time></trkpt><trkpt lat="42.446942507300314" lon="12.170372256807806"><ele>373.0</ele><time>2026-04-28T15:19:17.001Z</time></trkpt><trkpt lat="42.446858906842394" lon="12.170482640616216"><ele>373.75</ele><time>2026-04-28T15:19:18.001Z</time></trkpt><trkpt lat="42.446798960789394" lon="12.170651185904235"><ele>374.5</ele><time>2026-04-28T15:19:19.001Z</time></trkpt><trkpt lat="42.44672856833066" lon="12.170801188116736"><ele>375.25</ele><time>2026-04-28T15:19:20.001Z</time></trkpt><trkpt lat="42.44666158410803" lon="12.170921489220794"><ele>376.0</ele><time>2026-04-28T15:19:21.001Z</time></trkpt><trkpt lat="42.446578473794574" lon="12.171036968554825"><ele>376.0</ele><time>2026-04-28T15:19:22.001Z</time></trkpt><trkpt lat="42.4464794835283" lon="12.171152101356634"><ele>376.0</ele><time>2026-04-28T15:19:23.001Z</time></trkpt><trkpt lat="42.446396152940046" lon="12.171257922089746"><ele>376.0</ele><time>2026-04-28T15:19:24.001Z</time></trkpt><trkpt lat="42.44631254100147" lon="12.171361763736614"><ele>376.0</ele><time>2026-04-28T15:19:24.999Z</time></trkpt><trkpt lat="42.44621770801484" lon="12.171479402958417"><ele>377.25</ele><time>2026-04-28T15:19:25.999Z</time></trkpt><trkpt lat="42.44612004752646" lon="12.171598160150088"><ele>378.5</ele><time>2026-04-28T15:19:27Z</time></trkpt><trkpt lat="42.44602276872626" lon="12.171718318130097"><ele>379.75</ele><time>2026-04-28T15:19:28Z</time></trkpt><trkpt lat="42.445925569848505" lon="12.171839329616796"><ele>381.0</ele><time>2026-04-28T15:19:28.999Z</time></trkpt><trkpt lat="42.44583088587792" lon="12.171950840878388"><ele>381.0</ele><time>2026-04-28T15:19:30Z</time></trkpt><trkpt lat="42.44573626187031" lon="12.172066677683114"><ele>381.0</ele><time>2026-04-28T15:19:31Z</time></trkpt><trkpt lat="42.44563631954158" lon="12.172190330013319"><ele>381.0</ele><time>2026-04-28T15:19:32Z</time></trkpt><trkpt lat="42.44554056088076" lon="12.172313418587901"><ele>381.0</ele><time>2026-04-28T15:19:33Z</time></trkpt><trkpt lat="42.445451629227655" lon="12.172422660284724"><ele>381.5</ele><time>2026-04-28T15:19:34Z</time></trkpt><trkpt lat="42.445354433400766" lon="12.172539705919892"><ele>382.0</ele><time>2026-04-28T15:19:35Z</time></trkpt><trkpt lat="42.4452456106563" lon="12.172664241669697"><ele>382.5</ele><time>2026-04-28T15:19:36Z</time></trkpt><trkpt lat="42.44514256997699" lon="12.172786562919452"><ele>383.0</ele><time>2026-04-28T15:19:37Z</time></trkpt><trkpt lat="42.44505109945371" lon="12.17289677819784"><ele>383.0</ele><time>2026-04-28T15:19:38Z</time></trkpt><trkpt lat="42.444978058352405" lon="12.172987588443899"><ele>383.0</ele><time>2026-04-28T15:19:39Z</time></trkpt><trkpt lat="42.44492805706179" lon="12.173055485056675"><ele>383.0</ele><time>2026-04-28T15:19:40Z</time></trkpt><trkpt lat="42.444847079606404" lon="12.173097462308888"><ele>383.0</ele><time>2026-04-28T15:19:42Z</time></trkpt><trkpt lat="42.444746979266164" lon="12.173016896969772"><ele>383.0</ele><time>2026-04-28T15:19:44Z</time></trkpt><trkpt lat="42.44468387221704" lon="12.172965787345975"><ele>383.0</ele><time>2026-04-28T15:19:45Z</time></trkpt><trkpt lat="42.4446093600614" lon="12.172911201450521"><ele>383.79999999999995</ele><time>2026-04-28T15:19:46Z</time></trkpt><trkpt lat="42.44452332984165" lon="12.17284932582311"><ele>384.6</ele><time>2026-04-28T15:19:47Z</time></trkpt><trkpt lat="42.44442968305" lon="12.172781961344395"><ele>385.4</ele><time>2026-04-28T15:19:48Z</time></trkpt><trkpt lat="42.44433829880912" lon="12.172714369529848"><ele>386.20000000000005</ele><time>2026-04-28T15:19:49Z</time></trkpt><trkpt lat="42.44425329926656" lon="12.172651396103177"><ele>387.0</ele><time>2026-04-28T15:19:50Z</time></trkpt><trkpt lat="42.444163403132414" lon="12.17258228761787"><ele>387.0</ele><time>2026-04-28T15:19:51Z</time></trkpt><trkpt lat="42.44408244368308" lon="12.172527957743545"><ele>387.0</ele><time>2026-04-28T15:19:52Z</time></trkpt><trkpt lat="42.44402488429209" lon="12.172482856864557"><ele>387.0</ele><time>2026-04-28T15:19:53Z</time></trkpt><trkpt lat="42.44395520087273" lon="12.172410630102743"><ele>387.0</ele><time>2026-04-28T15:19:55Z</time></trkpt><trkpt lat="42.444046604113" lon="12.17228526481969"><ele>387.0</ele><time>2026-04-28T15:19:58Z</time></trkpt><trkpt lat="42.444111987633974" lon="12.172213245192141"><ele>386.6</ele><time>2026-04-28T15:19:59Z</time></trkpt><trkpt lat="42.444185100387834" lon="12.172092951111765"><ele>386.20000000000005</ele><time>2026-04-28T15:20:00Z</time></trkpt><trkpt lat="42.44427261480831" lon="12.17197457128216"><ele>385.8</ele><time>2026-04-28T15:20:01Z</time></trkpt><trkpt lat="42.44435545282305" lon="12.171870859910433"><ele>385.4</ele><time>2026-04-28T15:20:02Z</time></trkpt><trkpt lat="42.44443301492558" lon="12.171798732796992"><ele>385.0</ele><time>2026-04-28T15:20:03Z</time></trkpt><trkpt lat="42.44449493780335" lon="12.171752007062773"><ele>385.0</ele><time>2026-04-28T15:20:04Z</time></trkpt><trkpt lat="42.44457910914959" lon="12.17169973725005"><ele>385.0</ele><time>2026-04-28T15:20:06Z</time></trkpt><trkpt lat="42.44456514690203" lon="12.171596899101374"><ele>385.0</ele><time>2026-04-28T15:20:45.001Z</time></trkpt><trkpt lat="42.44461659224296" lon="12.171543768405265"><ele>385.0</ele><time>2026-04-28T15:20:52.001Z</time></trkpt><trkpt lat="42.44466341887517" lon="12.171486614122733"><ele>385.0</ele><time>2026-04-28T15:21:00.001Z</time></trkpt><trkpt lat="42.444701854762236" lon="12.171413817537482"><ele>385.0</ele><time>2026-04-28T15:21:08.001Z</time></trkpt><trkpt lat="42.44463360157838" lon="12.171447626392112"><ele>385.0</ele><time>2026-04-28T15:21:40.001Z</time></trkpt><trkpt lat="42.4445925329926" lon="12.171597350953709"><ele>385.00000000000006</ele><time>2026-04-28T15:22:24.001Z</time></trkpt><trkpt lat="42.444562384755905" lon="12.17167519477336"><ele>385.0</ele><time>2026-04-28T15:22:48.001Z</time></trkpt><trkpt lat="42.44460526380434" lon="12.171604583640546"><ele>385.0</ele><time>2026-04-28T15:24:38.001Z</time></trkpt><trkpt lat="42.44452531589635" lon="12.171618852399336"><ele>385.0</ele><time>2026-04-28T15:26:31.04Z</time></trkpt><trkpt lat="42.4445707714407" lon="12.171681881352287"><ele>385.00000000000006</ele><time>2026-04-28T15:26:48.001Z</time></trkpt><trkpt lat="42.44447970367428" lon="12.171751672190162"><ele>385.0</ele><time>2026-04-28T15:28:58.001Z</time></trkpt><trkpt lat="42.44442711023106" lon="12.171808637012735"><ele>385.0</ele><time>2026-04-28T15:28:59.001Z</time></trkpt><trkpt lat="42.44435665493412" lon="12.171859370422592"><ele>385.0</ele><time>2026-04-28T15:29:00.001Z</time></trkpt><trkpt lat="42.44429015481969" lon="12.171933091150125"><ele>385.0</ele><time>2026-04-28T15:29:01.001Z</time></trkpt><trkpt lat="42.444214227766594" lon="12.172042531607351"><ele>385.0</ele><time>2026-04-28T15:29:02.001Z</time></trkpt><trkpt lat="42.44413688269946" lon="12.172143351399583"><ele>385.0</ele><time>2026-04-28T15:29:03.001Z</time></trkpt><trkpt lat="42.44406639612139" lon="12.172224478757851"><ele>385.0</ele><time>2026-04-28T15:29:04.001Z</time></trkpt><trkpt lat="42.444007833382074" lon="12.172281220519531"><ele>385.0</ele><time>2026-04-28T15:29:05.001Z</time></trkpt><trkpt lat="42.443948524015184" lon="12.172359967233803"><ele>385.0</ele><time>2026-04-28T15:29:07.001Z</time></trkpt><trkpt lat="42.44404530815707" lon="12.172540809227284"><ele>385.0</ele><time>2026-04-28T15:29:10.001Z</time></trkpt><trkpt lat="42.444118037992496" lon="12.172595999663564"><ele>385.0</ele><time>2026-04-28T15:29:11.001Z</time></trkpt><trkpt lat="42.4441998856949" lon="12.172656772824267"><ele>385.4</ele><time>2026-04-28T15:29:12.001Z</time></trkpt><trkpt lat="42.44428948183781" lon="12.172719102651003"><ele>385.8</ele><time>2026-04-28T15:29:13.001Z</time></trkpt><trkpt lat="42.44439394211702" lon="12.17277742014414"><ele>386.20000000000005</ele><time>2026-04-28T15:29:14.001Z</time></trkpt><trkpt lat="42.444500932275254" lon="12.172855769074994"><ele>386.6</ele><time>2026-04-28T15:29:15.001Z</time></trkpt><trkpt lat="42.44459147463994" lon="12.172920434846967"><ele>387.0</ele><time>2026-04-28T15:29:16.001Z</time></trkpt><trkpt lat="42.44465467910472" lon="12.172967860792438"><ele>386.3333333333333</ele><time>2026-04-28T15:29:17.001Z</time></trkpt><trkpt lat="42.44470438274031" lon="12.173025082485582"><ele>385.6666666666667</ele><time>2026-04-28T15:29:18.001Z</time></trkpt><trkpt lat="42.444768282823865" lon="12.17304231164734"><ele>385.0</ele><time>2026-04-28T15:29:19.001Z</time></trkpt><trkpt lat="42.444845980532484" lon="12.173123600174307"><ele>384.33333333333337</ele><time>2026-04-28T15:29:21.001Z</time></trkpt><trkpt lat="42.44476781950975" lon="12.173226721777729"><ele>383.6666666666667</ele><time>2026-04-28T15:29:24.001Z</time></trkpt><trkpt lat="42.44471837057444" lon="12.173308074008538"><ele>383.0</ele><time>2026-04-28T15:29:25.001Z</time></trkpt><trkpt lat="42.44464928875514" lon="12.173390494780106"><ele>384.79999999999995</ele><time>2026-04-28T15:29:26.001Z</time></trkpt><trkpt lat="42.44456746503123" lon="12.173477397326632"><ele>386.6</ele><time>2026-04-28T15:29:27.001Z</time></trkpt><trkpt lat="42.444491421510946" lon="12.17356909261482"><ele>388.4</ele><time>2026-04-28T15:29:28.001Z</time></trkpt><trkpt lat="42.44442297171944" lon="12.173656626605522"><ele>390.20000000000005</ele><time>2026-04-28T15:29:29.001Z</time></trkpt><trkpt lat="42.44436598657234" lon="12.173725512066893"><ele>392.0</ele><time>2026-04-28T15:29:30.001Z</time></trkpt><trkpt lat="42.44430467123583" lon="12.173786014308416"><ele>392.0</ele><time>2026-04-28T15:29:32.001Z</time></trkpt><trkpt lat="42.44438031237944" lon="12.173975310488965"><ele>392.0</ele><time>2026-04-28T15:29:37.001Z</time></trkpt><trkpt lat="42.44445480902031" lon="12.174019921956038"><ele>392.0</ele><time>2026-04-28T15:29:38.001Z</time></trkpt><trkpt lat="42.44452871131049" lon="12.174067974153992"><ele>392.0</ele><time>2026-04-28T15:29:39.001Z</time></trkpt><trkpt lat="42.444603809678554" lon="12.174124966451705"><ele>392.0</ele><time>2026-04-28T15:29:40.001Z</time></trkpt><trkpt lat="42.444677261576174" lon="12.174179895791596"><ele>392.49999999999994</ele><time>2026-04-28T15:29:41.001Z</time></trkpt><trkpt lat="42.44474101245067" lon="12.174230571715754"><ele>393.0</ele><time>2026-04-28T15:29:42.001Z</time></trkpt><trkpt lat="42.444790553378645" lon="12.17428966497292"><ele>393.5</ele><time>2026-04-28T15:29:43.001Z</time></trkpt><trkpt lat="42.44481777121377" lon="12.17436806996279"><ele>394.0</ele><time>2026-04-28T15:29:45.001Z</time></trkpt><trkpt lat="42.44474693473144" lon="12.174480381857089"><ele>394.49999999999994</ele><time>2026-04-28T15:29:46.001Z</time></trkpt><trkpt lat="42.444688439323734" lon="12.17453094418616"><ele>395.0</ele><time>2026-04-28T15:29:47.001Z</time></trkpt><trkpt lat="42.44462742858974" lon="12.174594008297866"><ele>395.2</ele><time>2026-04-28T15:29:48.001Z</time></trkpt><trkpt lat="42.444561108088394" lon="12.17467411178439"><ele>395.4</ele><time>2026-04-28T15:29:49.001Z</time></trkpt><trkpt lat="42.444489728015064" lon="12.174757981806398"><ele>395.6</ele><time>2026-04-28T15:29:50.001Z</time></trkpt><trkpt lat="42.44441478178716" lon="12.17484485986482"><ele>395.8</ele><time>2026-04-28T15:29:51.001Z</time></trkpt><trkpt lat="42.44433649412031" lon="12.174937253963757"><ele>396.0</ele><time>2026-04-28T15:29:52.001Z</time></trkpt><trkpt lat="42.44425317029485" lon="12.175031468819977"><ele>396.5</ele><time>2026-04-28T15:29:53.001Z</time></trkpt><trkpt lat="42.444168879347174" lon="12.175126097849265"><ele>397.0</ele><time>2026-04-28T15:29:54.001Z</time></trkpt><trkpt lat="42.44407904671702" lon="12.1752240655838"><ele>397.5</ele><time>2026-04-28T15:29:55.001Z</time></trkpt><trkpt lat="42.44398970710928" lon="12.175328525713018"><ele>398.0</ele><time>2026-04-28T15:29:56.001Z</time></trkpt><trkpt lat="42.443897409149486" lon="12.175435536984606"><ele>398.0</ele><time>2026-04-28T15:29:57.001Z</time></trkpt><trkpt lat="42.44380474607218" lon="12.175540060937946"><ele>398.0</ele><time>2026-04-28T15:29:58.001Z</time></trkpt><trkpt lat="42.443710293085374" lon="12.175645942198463"><ele>398.0</ele><time>2026-04-28T15:29:59.001Z</time></trkpt><trkpt lat="42.4436145265446" lon="12.175754456652431"><ele>398.0</ele><time>2026-04-28T15:30:00.001Z</time></trkpt><trkpt lat="42.44351628458091" lon="12.175866103394005"><ele>398.5</ele><time>2026-04-28T15:30:01.001Z</time></trkpt><trkpt lat="42.44341342020477" lon="12.175977123818614"><ele>399.0</ele><time>2026-04-28T15:30:02.001Z</time></trkpt><trkpt lat="42.44331591331876" lon="12.176085880440047"><ele>399.5</ele><time>2026-04-28T15:30:03.001Z</time></trkpt><trkpt lat="42.443230580111866" lon="12.176188055977024"><ele>400.0</ele><time>2026-04-28T15:30:04.001Z</time></trkpt><trkpt lat="42.44314717661601" lon="12.176282697859385"><ele>400.0</ele><time>2026-04-28T15:30:05.001Z</time></trkpt><trkpt lat="42.44305881649364" lon="12.176375145103442"><ele>400.0</ele><time>2026-04-28T15:30:06.001Z</time></trkpt><trkpt lat="42.44297448622337" lon="12.176477995857434"><ele>400.0</ele><time>2026-04-28T15:30:07.001Z</time></trkpt><trkpt lat="42.44289860938503" lon="12.176589857883613"><ele>400.0</ele><time>2026-04-28T15:30:08.001Z</time></trkpt><trkpt lat="42.44283532801159" lon="12.176719406477812"><ele>400.75</ele><time>2026-04-28T15:30:09.001Z</time></trkpt><trkpt lat="42.44278643345745" lon="12.176860325915278"><ele>401.5</ele><time>2026-04-28T15:30:10.001Z</time></trkpt><trkpt lat="42.442752065318174" lon="12.177013790809102"><ele>402.25</ele><time>2026-04-28T15:30:11.001Z</time></trkpt><trkpt lat="42.44273003419428" lon="12.17717969571192"><ele>403.0</ele><time>2026-04-28T15:30:12.001Z</time></trkpt><trkpt lat="42.44271222111454" lon="12.177349642220102"><ele>402.75</ele><time>2026-04-28T15:30:13.001Z</time></trkpt><trkpt lat="42.442691664201334" lon="12.177521634902458"><ele>402.5</ele><time>2026-04-28T15:30:14.001Z</time></trkpt><trkpt lat="42.44267062949245" lon="12.177699208605823"><ele>402.25</ele><time>2026-04-28T15:30:15.001Z</time></trkpt><trkpt lat="42.44265095293344" lon="12.177885384390402"><ele>402.0</ele><time>2026-04-28T15:30:16.001Z</time></trkpt><trkpt lat="42.44263138416249" lon="12.178071029007851"><ele>401.5</ele><time>2026-04-28T15:30:17.001Z</time></trkpt><trkpt lat="42.44261481002757" lon="12.178249107309808"><ele>401.0</ele><time>2026-04-28T15:30:18.001Z</time></trkpt><trkpt lat="42.442597606399715" lon="12.178419657048561"><ele>400.5</ele><time>2026-04-28T15:30:19.001Z</time></trkpt><trkpt lat="42.442583056985455" lon="12.178572189252383"><ele>400.0</ele><time>2026-04-28T15:30:20.001Z</time></trkpt><trkpt lat="42.44256485598774" lon="12.17870726660707"><ele>400.0</ele><time>2026-04-28T15:30:21.001Z</time></trkpt><trkpt lat="42.44254445938414" lon="12.17883122866112"><ele>400.0</ele><time>2026-04-28T15:30:22.001Z</time></trkpt><trkpt lat="42.44250710619396" lon="12.178944436700897"><ele>400.0</ele><time>2026-04-28T15:30:23.001Z</time></trkpt><trkpt lat="42.44245881076886" lon="12.179049764865281"><ele>400.0</ele><time>2026-04-28T15:30:24.001Z</time></trkpt><trkpt lat="42.44239304112767" lon="12.179151475390025"><ele>400.0</ele><time>2026-04-28T15:30:25.001Z</time></trkpt><trkpt lat="42.44231816631907" lon="12.179242200926113"><ele>399.5</ele><time>2026-04-28T15:30:26.001Z</time></trkpt><trkpt lat="42.44223065540932" lon="12.179320176001111"><ele>399.0</ele><time>2026-04-28T15:30:27.001Z</time></trkpt><trkpt lat="42.44213222951486" lon="12.179393049114548"><ele>398.5</ele><time>2026-04-28T15:30:28.001Z</time></trkpt><trkpt lat="42.44202311658275" lon="12.179456931718834"><ele>398.0</ele><time>2026-04-28T15:30:29.001Z</time></trkpt><trkpt lat="42.441905212041796" lon="12.179513272032173"><ele>399.5</ele><time>2026-04-28T15:30:30.001Z</time></trkpt><trkpt lat="42.44177821655004" lon="12.179562456707732"><ele>401.0</ele><time>2026-04-28T15:30:31.001Z</time></trkpt><trkpt lat="42.44163593735708" lon="12.179615328774307"><ele>402.5</ele><time>2026-04-28T15:30:32.001Z</time></trkpt><trkpt lat="42.441487561807065" lon="12.1796786556819"><ele>404.0</ele><time>2026-04-28T15:30:33.001Z</time></trkpt><trkpt lat="42.44134155937832" lon="12.179739047274332"><ele>405.0</ele><time>2026-04-28T15:30:34.001Z</time></trkpt><trkpt lat="42.44120862765519" lon="12.17978428537456"><ele>406.0</ele><time>2026-04-28T15:30:35.001Z</time></trkpt><trkpt lat="42.44109292173452" lon="12.179814143986118"><ele>407.0</ele><time>2026-04-28T15:30:36.001Z</time></trkpt><trkpt lat="42.44099502894108" lon="12.17982709202134"><ele>408.0</ele><time>2026-04-28T15:30:37Z</time></trkpt><trkpt lat="42.44090888797358" lon="12.179825710631373"><ele>409.0</ele><time>2026-04-28T15:30:38Z</time></trkpt><trkpt lat="42.44084434249125" lon="12.179821083314655"><ele>409.0</ele><time>2026-04-28T15:30:39Z</time></trkpt><trkpt lat="42.44074728612906" lon="12.179819076976909"><ele>409.0</ele><time>2026-04-28T15:30:40Z</time></trkpt><trkpt lat="42.4406453967444" lon="12.179833937179437"><ele>409.0</ele><time>2026-04-28T15:30:41Z</time></trkpt><trkpt lat="42.44052844630496" lon="12.1798527175175"><ele>409.0</ele><time>2026-04-28T15:30:42Z</time></trkpt><trkpt lat="42.44040304964112" lon="12.179876330764936"><ele>409.0</ele><time>2026-04-28T15:30:43Z</time></trkpt><trkpt lat="42.44027643510203" lon="12.179902044390607"><ele>409.25</ele><time>2026-04-28T15:30:44Z</time></trkpt><trkpt lat="42.440149211891196" lon="12.179936331044065"><ele>409.5</ele><time>2026-04-28T15:30:45Z</time></trkpt><trkpt lat="42.44002398772064" lon="12.17998105776677"><ele>409.75</ele><time>2026-04-28T15:30:46Z</time></trkpt><trkpt lat="42.43989591553664" lon="12.180011697011667"><ele>410.0</ele><time>2026-04-28T15:30:47Z</time></trkpt><trkpt lat="42.43977750926744" lon="12.180096350793082"><ele>410.0</ele><time>2026-04-28T15:30:48Z</time></trkpt><trkpt lat="42.439635057033605" lon="12.180179073768787"><ele>410.0</ele><time>2026-04-28T15:30:49Z</time></trkpt><trkpt lat="42.4394945109668" lon="12.1802767489514"><ele>410.0</ele><time>2026-04-28T15:30:50Z</time></trkpt><trkpt lat="42.43934728259407" lon="12.180383561874915"><ele>412.3333333333333</ele><time>2026-04-28T15:30:51Z</time></trkpt><trkpt lat="42.43919827807198" lon="12.180487912874016"><ele>414.66666666666663</ele><time>2026-04-28T15:30:52Z</time></trkpt><trkpt lat="42.43904020445358" lon="12.18059114877726"><ele>417.0</ele><time>2026-04-28T15:30:53Z</time></trkpt><trkpt lat="42.438886349579406" lon="12.180685065299153"><ele>418.75</ele><time>2026-04-28T15:30:54Z</time></trkpt><trkpt lat="42.43874559516831" lon="12.180779416692904"><ele>420.5</ele><time>2026-04-28T15:30:55Z</time></trkpt><trkpt lat="42.438611245740276" lon="12.180872018422637"><ele>422.25</ele><time>2026-04-28T15:30:56Z</time></trkpt><trkpt lat="42.438491721712005" lon="12.180948128922445"><ele>424.0</ele><time>2026-04-28T15:30:57Z</time></trkpt><trkpt lat="42.43839656804644" lon="12.18100143385152"><ele>424.0</ele><time>2026-04-28T15:30:58Z</time></trkpt><trkpt lat="42.43830975412706" lon="12.181022961588123"><ele>424.0</ele><time>2026-04-28T15:30:59Z</time></trkpt><trkpt lat="42.438226359556346" lon="12.18100308388034"><ele>424.0</ele><time>2026-04-28T15:31:00Z</time></trkpt><trkpt lat="42.43815788259156" lon="12.180936337275238"><ele>424.0</ele><time>2026-04-28T15:31:01Z</time></trkpt><trkpt lat="42.43810795664085" lon="12.180828487041445"><ele>424.0</ele><time>2026-04-28T15:31:02Z</time></trkpt><trkpt lat="42.43804903259646" lon="12.180717831173766"><ele>425.6</ele><time>2026-04-28T15:31:03Z</time></trkpt><trkpt lat="42.43797819928257" lon="12.1806096469963"><ele>427.2</ele><time>2026-04-28T15:31:04Z</time></trkpt><trkpt lat="42.43790421059012" lon="12.180501841417794"><ele>428.80000000000007</ele><time>2026-04-28T15:31:05.001Z</time></trkpt><trkpt lat="42.437832874139026" lon="12.18039167892817"><ele>430.40000000000003</ele><time>2026-04-28T15:31:06.001Z</time></trkpt><trkpt lat="42.437767606095704" lon="12.180297055548932"><ele>432.0</ele><time>2026-04-28T15:31:07.001Z</time></trkpt><trkpt lat="42.43771016326705" lon="12.180223831222282"><ele>434.0</ele><time>2026-04-28T15:31:08.001Z</time></trkpt><trkpt lat="42.43764128022593" lon="12.18018689938394"><ele>436.00000000000006</ele><time>2026-04-28T15:31:09.001Z</time></trkpt><trkpt lat="42.437564757093114" lon="12.180197911122129"><ele>438.00000000000006</ele><time>2026-04-28T15:31:10.001Z</time></trkpt><trkpt lat="42.437482628501265" lon="12.180264039817692"><ele>440.0</ele><time>2026-04-28T15:31:11.001Z</time></trkpt><trkpt lat="42.437397898573444" lon="12.180348419500971"><ele>442.0</ele><time>2026-04-28T15:31:12.001Z</time></trkpt><trkpt lat="42.43729386166197" lon="12.180432790834637"><ele>442.0</ele><time>2026-04-28T15:31:13.001Z</time></trkpt><trkpt lat="42.4371752735167" lon="12.18052525742124"><ele>442.0</ele><time>2026-04-28T15:31:14.001Z</time></trkpt><trkpt lat="42.437039420741655" lon="12.180631450365206"><ele>442.0</ele><time>2026-04-28T15:31:15.001Z</time></trkpt><trkpt lat="42.436893682791684" lon="12.18075181726518"><ele>444.33333333333337</ele><time>2026-04-28T15:31:16.001Z</time></trkpt><trkpt lat="42.436746268592" lon="12.180877537135546"><ele>446.66666666666663</ele><time>2026-04-28T15:31:17.001Z</time></trkpt><trkpt lat="42.43659828751874" lon="12.181010637420957"><ele>449.0</ele><time>2026-04-28T15:31:18.001Z</time></trkpt><trkpt lat="42.43644821203658" lon="12.181146952766046"><ele>452.0</ele><time>2026-04-28T15:31:19.001Z</time></trkpt><trkpt lat="42.43629009641257" lon="12.181285898621153"><ele>455.0</ele><time>2026-04-28T15:31:20.001Z</time></trkpt><trkpt lat="42.43613311794863" lon="12.181427355994765"><ele>458.0</ele><time>2026-04-28T15:31:21.001Z</time></trkpt><trkpt lat="42.43597410650032" lon="12.181564367541116"><ele>458.0</ele><time>2026-04-28T15:31:22.001Z</time></trkpt><trkpt lat="42.435821637919034" lon="12.18169647944064"><ele>458.0</ele><time>2026-04-28T15:31:23.001Z</time></trkpt><trkpt lat="42.43566853493842" lon="12.181812642937695"><ele>458.0</ele><time>2026-04-28T15:31:24.001Z</time></trkpt><trkpt lat="42.43550470726044" lon="12.181902566740117"><ele>463.3333333333333</ele><time>2026-04-28T15:31:25.001Z</time></trkpt><trkpt lat="42.43533397631258" lon="12.181972067730905"><ele>468.66666666666663</ele><time>2026-04-28T15:31:26.001Z</time></trkpt><trkpt lat="42.43517190067551" lon="12.1820512534592"><ele>474.0</ele><time>2026-04-28T15:31:27.001Z</time></trkpt><trkpt lat="42.435021480386844" lon="12.182115536795928"><ele>474.0</ele><time>2026-04-28T15:31:28.001Z</time></trkpt><trkpt lat="42.43487323647261" lon="12.182162284622798"><ele>474.0</ele><time>2026-04-28T15:31:29.001Z</time></trkpt><trkpt lat="42.43472338155642" lon="12.182179967774868"><ele>474.0</ele><time>2026-04-28T15:31:30.001Z</time></trkpt><trkpt lat="42.43457554400894" lon="12.182175692264625"><ele>478.0</ele><time>2026-04-28T15:31:31.001Z</time></trkpt><trkpt lat="42.43443918705037" lon="12.182159745137637"><ele>482.0</ele><time>2026-04-28T15:31:32.001Z</time></trkpt><trkpt lat="42.434329901589365" lon="12.182144659220315"><ele>486.0</ele><time>2026-04-28T15:31:33.001Z</time></trkpt><trkpt lat="42.434240252204525" lon="12.182141964354463"><ele>490.0</ele><time>2026-04-28T15:31:34.001Z</time></trkpt><trkpt lat="42.434169092808865" lon="12.182171833986772"><ele>494.0</ele><time>2026-04-28T15:31:35.001Z</time></trkpt><trkpt lat="42.434112424139094" lon="12.1822495582289"><ele>491.66666666666663</ele><time>2026-04-28T15:31:36.001Z</time></trkpt><trkpt lat="42.43410064815162" lon="12.182349825902344"><ele>489.3333333333333</ele><time>2026-04-28T15:31:37.001Z</time></trkpt><trkpt lat="42.43411613778825" lon="12.182465084390493"><ele>487.0</ele><time>2026-04-28T15:31:38.001Z</time></trkpt><trkpt lat="42.43415819896032" lon="12.182585286410518"><ele>484.66666666666663</ele><time>2026-04-28T15:31:39.001Z</time></trkpt><trkpt lat="42.434180288511676" lon="12.182697025228466"><ele>482.3333333333333</ele><time>2026-04-28T15:31:40.001Z</time></trkpt><trkpt lat="42.43416428369786" lon="12.182797860622413"><ele>480.0</ele><time>2026-04-28T15:31:41.001Z</time></trkpt><trkpt lat="42.43412312873013" lon="12.182883837128012"><ele>480.0</ele><time>2026-04-28T15:31:42.001Z</time></trkpt><trkpt lat="42.43405787669881" lon="12.182956512915185"><ele>480.0</ele><time>2026-04-28T15:31:43.001Z</time></trkpt><trkpt lat="42.43399972819424" lon="12.183012068963043"><ele>480.0</ele><time>2026-04-28T15:31:44.001Z</time></trkpt><trkpt lat="42.43393735897135" lon="12.183075551018618"><ele>480.0</ele><time>2026-04-28T15:31:45.001Z</time></trkpt><trkpt lat="42.433865641800885" lon="12.183132360742574"><ele>480.0</ele><time>2026-04-28T15:31:46.001Z</time></trkpt><trkpt lat="42.43377835949954" lon="12.18318601774215"><ele>480.0</ele><time>2026-04-28T15:31:47.001Z</time></trkpt><trkpt lat="42.43367519208595" lon="12.183226165960015"><ele>484.8</ele><time>2026-04-28T15:31:48.001Z</time></trkpt><trkpt lat="42.43357266309109" lon="12.18326482582505"><ele>489.6</ele><time>2026-04-28T15:31:49.001Z</time></trkpt><trkpt lat="42.4334862163951" lon="12.183315489137147"><ele>494.4</ele><time>2026-04-28T15:31:50.001Z</time></trkpt><trkpt lat="42.43341114545981" lon="12.183362490957876"><ele>499.2</ele><time>2026-04-28T15:31:51.001Z</time></trkpt><trkpt lat="42.433387954936954" lon="12.1834848938461"><ele>504.0</ele><time>2026-04-28T15:31:52.001Z</time></trkpt><trkpt lat="42.43339150522907" lon="12.183602160359353"><ele>504.0</ele><time>2026-04-28T15:31:53.001Z</time></trkpt><trkpt lat="42.43342363659084" lon="12.183725493087067"><ele>504.0</ele><time>2026-04-28T15:31:54.001Z</time></trkpt><trkpt lat="42.43347003804819" lon="12.183855267003775"><ele>504.0</ele><time>2026-04-28T15:31:55.001Z</time></trkpt><trkpt lat="42.43352142625288" lon="12.183996577559462"><ele>504.0</ele><time>2026-04-28T15:31:56.001Z</time></trkpt><trkpt lat="42.43357679060866" lon="12.18416137232385"><ele>504.25</ele><time>2026-04-28T15:31:57.001Z</time></trkpt><trkpt lat="42.4336361859581" lon="12.184326406112849"><ele>504.5</ele><time>2026-04-28T15:31:58.001Z</time></trkpt><trkpt lat="42.43369247986077" lon="12.184481351559398"><ele>504.75</ele><time>2026-04-28T15:31:59.001Z</time></trkpt><trkpt lat="42.43374950892758" lon="12.184629510448806"><ele>505.0</ele><time>2026-04-28T15:32:00.001Z</time></trkpt><trkpt lat="42.43378556543614" lon="12.184758806891448"><ele>505.00000000000006</ele><time>2026-04-28T15:32:01.001Z</time></trkpt><trkpt lat="42.433783099744474" lon="12.184872470122768"><ele>505.0</ele><time>2026-04-28T15:32:02.001Z</time></trkpt><trkpt lat="42.433744791995295" lon="12.184958410801121"><ele>505.0</ele><time>2026-04-28T15:32:03.001Z</time></trkpt><trkpt lat="42.43368165900119" lon="12.18500491815244"><ele>505.0</ele><time>2026-04-28T15:32:04.001Z</time></trkpt><trkpt lat="42.43359040312597" lon="12.185007156155134"><ele>505.00000000000006</ele><time>2026-04-28T15:32:05.001Z</time></trkpt><trkpt lat="42.433495546636664" lon="12.185005029644705"><ele>505.0</ele><time>2026-04-28T15:32:06.001Z</time></trkpt><trkpt lat="42.43339144925737" lon="12.185009197856639"><ele>505.0</ele><time>2026-04-28T15:32:07.001Z</time></trkpt><trkpt lat="42.43327672454984" lon="12.185012312375425"><ele>505.0</ele><time>2026-04-28T15:32:08.001Z</time></trkpt><trkpt lat="42.43315694452979" lon="12.185015459539"><ele>505.0</ele><time>2026-04-28T15:32:09.001Z</time></trkpt><trkpt lat="42.43302779773776" lon="12.185015214617852"><ele>505.0</ele><time>2026-04-28T15:32:10Z</time></trkpt><trkpt lat="42.43289013207056" lon="12.185011372729699"><ele>507.6</ele><time>2026-04-28T15:32:11Z</time></trkpt><trkpt lat="42.43275569678918" lon="12.185018450219914"><ele>510.2</ele><time>2026-04-28T15:32:12Z</time></trkpt><trkpt lat="42.432648413584104" lon="12.185023970732951"><ele>512.8</ele><time>2026-04-28T15:32:13Z</time></trkpt><trkpt lat="42.43255816147866" lon="12.185022166980295"><ele>515.4</ele><time>2026-04-28T15:32:14Z</time></trkpt><trkpt lat="42.432493893089514" lon="12.184989462288737"><ele>518.0</ele><time>2026-04-28T15:32:15Z</time></trkpt><trkpt lat="42.4324443991604" lon="12.184870067047031"><ele>519.3333333333333</ele><time>2026-04-28T15:32:17Z</time></trkpt><trkpt lat="42.43247689069741" lon="12.184792817809656"><ele>520.6666666666666</ele><time>2026-04-28T15:32:18Z</time></trkpt><trkpt lat="42.432536940903546" lon="12.184727845601127"><ele>522.0</ele><time>2026-04-28T15:32:19Z</time></trkpt><trkpt lat="42.43258598793826" lon="12.184645437335119"><ele>523.3333333333334</ele><time>2026-04-28T15:32:20Z</time></trkpt><trkpt lat="42.43254207685263" lon="12.18451865994785"><ele>524.6666666666667</ele><time>2026-04-28T15:32:22Z</time></trkpt><trkpt lat="42.43247412068947" lon="12.184514560922135"><ele>526.0</ele><time>2026-04-28T15:32:23Z</time></trkpt><trkpt lat="42.432410835574316" lon="12.184560714883009"><ele>526.0</ele><time>2026-04-28T15:32:24Z</time></trkpt><trkpt lat="42.4323482979967" lon="12.184648082137922"><ele>526.0</ele><time>2026-04-28T15:32:25Z</time></trkpt><trkpt lat="42.4322634735943" lon="12.184705547429857"><ele>526.0</ele><time>2026-04-28T15:32:26Z</time></trkpt><trkpt lat="42.432176633268504" lon="12.184773492928553"><ele>526.0</ele><time>2026-04-28T15:32:27Z</time></trkpt><trkpt lat="42.43207787627397" lon="12.184833591958778"><ele>526.0</ele><time>2026-04-28T15:32:28Z</time></trkpt><trkpt lat="42.431955805749915" lon="12.184880131694873"><ele>528.25</ele><time>2026-04-28T15:32:29Z</time></trkpt><trkpt lat="42.43182547249444" lon="12.184944155266024"><ele>530.5</ele><time>2026-04-28T15:32:30Z</time></trkpt><trkpt lat="42.43168507637356" lon="12.184993602168678"><ele>532.75</ele><time>2026-04-28T15:32:31Z</time></trkpt><trkpt lat="42.43155809174861" lon="12.185054941712746"><ele>535.0</ele><time>2026-04-28T15:32:32Z</time></trkpt><trkpt lat="42.43142885408988" lon="12.185140257558306"><ele>536.6666666666667</ele><time>2026-04-28T15:32:33Z</time></trkpt><trkpt lat="42.43129377247704" lon="12.18524277719592"><ele>538.3333333333334</ele><time>2026-04-28T15:32:34Z</time></trkpt><trkpt lat="42.43115096247938" lon="12.18534777548846"><ele>540.0</ele><time>2026-04-28T15:32:35Z</time></trkpt><trkpt lat="42.431005945219006" lon="12.18544167431398"><ele>540.0</ele><time>2026-04-28T15:32:36Z</time></trkpt><trkpt lat="42.430853601934196" lon="12.185538706632986"><ele>540.0</ele><time>2026-04-28T15:32:37Z</time></trkpt><trkpt lat="42.430703394491545" lon="12.185636869636555"><ele>540.0</ele><time>2026-04-28T15:32:38Z</time></trkpt><trkpt lat="42.43055859742933" lon="12.185737436849996"><ele>540.75</ele><time>2026-04-28T15:32:39Z</time></trkpt><trkpt lat="42.43043272578543" lon="12.185820997947067"><ele>541.5</ele><time>2026-04-28T15:32:40Z</time></trkpt><trkpt lat="42.430312951567" lon="12.185873689216674"><ele>542.25</ele><time>2026-04-28T15:32:41Z</time></trkpt><trkpt lat="42.43019514142049" lon="12.185901002386544"><ele>543.0</ele><time>2026-04-28T15:32:42Z</time></trkpt><trkpt lat="42.43006553279174" lon="12.185908927711795"><ele>543.0</ele><time>2026-04-28T15:32:43Z</time></trkpt><trkpt lat="42.429929304570216" lon="12.185903499760231"><ele>543.0</ele><time>2026-04-28T15:32:44Z</time></trkpt><trkpt lat="42.42978347676091" lon="12.185901066765323"><ele>543.0</ele><time>2026-04-28T15:32:45Z</time></trkpt><trkpt lat="42.429632828255954" lon="12.185892973403245"><ele>543.0</ele><time>2026-04-28T15:32:46Z</time></trkpt><trkpt lat="42.429478177860084" lon="12.185885310186684"><ele>544.0</ele><time>2026-04-28T15:32:47Z</time></trkpt><trkpt lat="42.429321755455895" lon="12.185885960043864"><ele>545.0</ele><time>2026-04-28T15:32:48Z</time></trkpt><trkpt lat="42.42916224917407" lon="12.185890703858197"><ele>546.0</ele><time>2026-04-28T15:32:49Z</time></trkpt><trkpt lat="42.428997741869296" lon="12.185906057778048"><ele>546.0</ele><time>2026-04-28T15:32:50Z</time></trkpt><trkpt lat="42.42883751100794" lon="12.185935606336054"><ele>546.0</ele><time>2026-04-28T15:32:51Z</time></trkpt><trkpt lat="42.42869357556742" lon="12.18596831168722"><ele>546.0</ele><time>2026-04-28T15:32:52Z</time></trkpt><trkpt lat="42.42855854704759" lon="12.186013279966975"><ele>546.0</ele><time>2026-04-28T15:32:53Z</time></trkpt><trkpt lat="42.42842426795262" lon="12.186085045034712"><ele>547.25</ele><time>2026-04-28T15:32:54Z</time></trkpt><trkpt lat="42.428294925115125" lon="12.186168660027374"><ele>548.5</ele><time>2026-04-28T15:32:55Z</time></trkpt><trkpt lat="42.42816232799399" lon="12.1862443817593"><ele>549.75</ele><time>2026-04-28T15:32:56Z</time></trkpt><trkpt lat="42.4280243093599" lon="12.186305930374157"><ele>551.0</ele><time>2026-04-28T15:32:57Z</time></trkpt><trkpt lat="42.42788393502181" lon="12.186346325964402"><ele>554.3333333333333</ele><time>2026-04-28T15:32:58Z</time></trkpt><trkpt lat="42.42773735523009" lon="12.186377037744048"><ele>557.6666666666666</ele><time>2026-04-28T15:32:59Z</time></trkpt><trkpt lat="42.42759132448278" lon="12.186429535146507"><ele>561.0</ele><time>2026-04-28T15:33:00Z</time></trkpt><trkpt lat="42.42744678753314" lon="12.186508402432993"><ele>563.3333333333334</ele><time>2026-04-28T15:33:01Z</time></trkpt><trkpt lat="42.42729796659079" lon="12.18659459226901"><ele>565.6666666666667</ele><time>2026-04-28T15:33:02Z</time></trkpt><trkpt lat="42.42714461634024" lon="12.186695700687624"><ele>568.0</ele><time>2026-04-28T15:33:03Z</time></trkpt><trkpt lat="42.4269880837097" lon="12.186806452736752"><ele>568.0</ele><time>2026-04-28T15:33:04Z</time></trkpt><trkpt lat="42.426831138328126" lon="12.18691594234255"><ele>568.0</ele><time>2026-04-28T15:33:05Z</time></trkpt><trkpt lat="42.42667323795171" lon="12.187034805756285"><ele>568.0</ele><time>2026-04-28T15:33:06Z</time></trkpt><trkpt lat="42.426518208687654" lon="12.187155458138502"><ele>568.0</ele><time>2026-04-28T15:33:07Z</time></trkpt><trkpt lat="42.42636165804237" lon="12.187273879383229"><ele>568.0</ele><time>2026-04-28T15:33:08Z</time></trkpt><trkpt lat="42.4261959668266" lon="12.187391488745934"><ele>568.0</ele><time>2026-04-28T15:33:09Z</time></trkpt><trkpt lat="42.426018618388106" lon="12.187506555159324"><ele>570.0</ele><time>2026-04-28T15:33:10Z</time></trkpt><trkpt lat="42.42584011660491" lon="12.187615606560035"><ele>572.0</ele><time>2026-04-28T15:33:11Z</time></trkpt><trkpt lat="42.425660412970615" lon="12.187731734624494"><ele>574.0</ele><time>2026-04-28T15:33:12Z</time></trkpt><trkpt lat="42.42548844149486" lon="12.187847001482655"><ele>577.6666666666667</ele><time>2026-04-28T15:33:13Z</time></trkpt><trkpt lat="42.42531906509299" lon="12.18796463872644"><ele>581.3333333333334</ele><time>2026-04-28T15:33:14Z</time></trkpt><trkpt lat="42.42514562311188" lon="12.188076813661286"><ele>585.0</ele><time>2026-04-28T15:33:15Z</time></trkpt><trkpt lat="42.424963248651146" lon="12.188170803448346"><ele>584.3333333333334</ele><time>2026-04-28T15:33:16Z</time></trkpt><trkpt lat="42.424796140174806" lon="12.18830158636043"><ele>583.6666666666667</ele><time>2026-04-28T15:33:17Z</time></trkpt><trkpt lat="42.42461689925365" lon="12.188416132294746"><ele>583.0</ele><time>2026-04-28T15:33:18Z</time></trkpt><trkpt lat="42.42443210397595" lon="12.188532590790038"><ele>586.3333333333334</ele><time>2026-04-28T15:33:19Z</time></trkpt><trkpt lat="42.42424055494513" lon="12.188649258546741"><ele>589.6666666666666</ele><time>2026-04-28T15:33:20Z</time></trkpt><trkpt lat="42.42404957479873" lon="12.18875499102295"><ele>593.0</ele><time>2026-04-28T15:33:21Z</time></trkpt><trkpt lat="42.42386440203109" lon="12.188845710358674"><ele>592.3333333333333</ele><time>2026-04-28T15:33:22Z</time></trkpt><trkpt lat="42.42368708554073" lon="12.188923113484442"><ele>591.6666666666666</ele><time>2026-04-28T15:33:23Z</time></trkpt><trkpt lat="42.42352615320799" lon="12.18899481213426"><ele>591.0</ele><time>2026-04-28T15:33:24Z</time></trkpt><trkpt lat="42.423378707053814" lon="12.18904181375544"><ele>591.0</ele><time>2026-04-28T15:33:25Z</time></trkpt><trkpt lat="42.42324310511466" lon="12.189073577584436"><ele>591.0</ele><time>2026-04-28T15:33:26Z</time></trkpt><trkpt lat="42.42310979446171" lon="12.18907955577348"><ele>591.0</ele><time>2026-04-28T15:33:27Z</time></trkpt><trkpt lat="42.42297523573383" lon="12.189067774180497"><ele>591.0</ele><time>2026-04-28T15:33:28Z</time></trkpt><trkpt lat="42.422845781577394" lon="12.18903560341315"><ele>600.6666666666666</ele><time>2026-04-28T15:33:29Z</time></trkpt><trkpt lat="42.42271453687661" lon="12.188987385066392"><ele>610.3333333333333</ele><time>2026-04-28T15:33:30Z</time></trkpt><trkpt lat="42.42256471137434" lon="12.18892570446753"><ele>620.0</ele><time>2026-04-28T15:33:31Z</time></trkpt><trkpt lat="42.422408910239994" lon="12.188875725150018"><ele>620.0</ele><time>2026-04-28T15:33:32Z</time></trkpt><trkpt lat="42.422243526409765" lon="12.188857811884066"><ele>620.0</ele><time>2026-04-28T15:33:33Z</time></trkpt><trkpt lat="42.422071931708416" lon="12.188869388591444"><ele>620.0</ele><time>2026-04-28T15:33:34Z</time></trkpt><trkpt lat="42.42190515489634" lon="12.188897234379455"><ele>616.3333333333333</ele><time>2026-04-28T15:33:35Z</time></trkpt><trkpt lat="42.42173929033812" lon="12.188944463980995"><ele>612.6666666666666</ele><time>2026-04-28T15:33:36Z</time></trkpt><trkpt lat="42.421571206844106" lon="12.18900192476797"><ele>609.0</ele><time>2026-04-28T15:33:37Z</time></trkpt><trkpt lat="42.42140631301798" lon="12.189068331502291"><ele>613.75</ele><time>2026-04-28T15:33:38Z</time></trkpt><trkpt lat="42.4212651468716" lon="12.189129086535154"><ele>618.5</ele><time>2026-04-28T15:33:39Z</time></trkpt><trkpt lat="42.421142915758075" lon="12.189183229987087"><ele>623.25</ele><time>2026-04-28T15:33:40Z</time></trkpt><trkpt lat="42.421038556350894" lon="12.189232719260803"><ele>628.0</ele><time>2026-04-28T15:33:41Z</time></trkpt><trkpt lat="42.42092435098801" lon="12.189266165898815"><ele>628.0</ele><time>2026-04-28T15:33:42Z</time></trkpt><trkpt lat="42.420801899134126" lon="12.189278593223039"><ele>628.0</ele><time>2026-04-28T15:33:43Z</time></trkpt><trkpt lat="42.420671160575914" lon="12.18928106700145"><ele>628.0</ele><time>2026-04-28T15:33:44Z</time></trkpt><trkpt lat="42.42053419926867" lon="12.189282437914084"><ele>628.0</ele><time>2026-04-28T15:33:45Z</time></trkpt><trkpt lat="42.420392160859926" lon="12.189289293977076"><ele>631.25</ele><time>2026-04-28T15:33:46Z</time></trkpt><trkpt lat="42.420250460526844" lon="12.189307473165465"><ele>634.5</ele><time>2026-04-28T15:33:47Z</time></trkpt><trkpt lat="42.420111503415725" lon="12.189334156772624"><ele>637.75</ele><time>2026-04-28T15:33:48Z</time></trkpt><trkpt lat="42.41997242437584" lon="12.18937093416185"><ele>641.0</ele><time>2026-04-28T15:33:49Z</time></trkpt><trkpt lat="42.41983196814076" lon="12.189414837044335"><ele>641.0</ele><time>2026-04-28T15:33:50Z</time></trkpt><trkpt lat="42.41968646779904" lon="12.189449652993195"><ele>641.0</ele><time>2026-04-28T15:33:51Z</time></trkpt><trkpt lat="42.4195335303793" lon="12.189466195518545"><ele>641.0</ele><time>2026-04-28T15:33:52Z</time></trkpt><trkpt lat="42.41938051173178" lon="12.18946840854647"><ele>644.0</ele><time>2026-04-28T15:33:53Z</time></trkpt><trkpt lat="42.4192367921804" lon="12.18946742727467"><ele>647.0</ele><time>2026-04-28T15:33:54Z</time></trkpt><trkpt lat="42.41910174164991" lon="12.189459053354428"><ele>650.0</ele><time>2026-04-28T15:33:55Z</time></trkpt><trkpt lat="42.418964615728804" lon="12.189520447518467"><ele>653.0</ele><time>2026-04-28T15:33:56Z</time></trkpt><trkpt lat="42.418818632705396" lon="12.189570613710623"><ele>655.0</ele><time>2026-04-28T15:33:57Z</time></trkpt><trkpt lat="42.418667248901144" lon="12.189623212565875"><ele>657.0</ele><time>2026-04-28T15:33:58Z</time></trkpt><trkpt lat="42.41851058741304" lon="12.189664852975394"><ele>659.0</ele><time>2026-04-28T15:33:59Z</time></trkpt><trkpt lat="42.41835936731552" lon="12.189704198877685"><ele>659.0</ele><time>2026-04-28T15:34:00Z</time></trkpt><trkpt lat="42.4182362922846" lon="12.189746502042771"><ele>659.0</ele><time>2026-04-28T15:34:01Z</time></trkpt><trkpt lat="42.418134829145224" lon="12.189782840881096"><ele>659.0</ele><time>2026-04-28T15:34:02Z</time></trkpt><trkpt lat="42.41804491349988" lon="12.18981793729692"><ele>659.0</ele><time>2026-04-28T15:34:03Z</time></trkpt><trkpt lat="42.417952201976036" lon="12.189811041163933"><ele>659.0</ele><time>2026-04-28T15:34:04Z</time></trkpt><trkpt lat="42.41785532010657" lon="12.189770375189875"><ele>658.0</ele><time>2026-04-28T15:34:05Z</time></trkpt><trkpt lat="42.41775608287905" lon="12.189704897151266"><ele>657.0</ele><time>2026-04-28T15:34:06Z</time></trkpt><trkpt lat="42.417652060131005" lon="12.189633946886794"><ele>656.0</ele><time>2026-04-28T15:34:07Z</time></trkpt><trkpt lat="42.4175395048656" lon="12.189556868185702"><ele>655.0</ele><time>2026-04-28T15:34:08Z</time></trkpt><trkpt lat="42.41742342808029" lon="12.189457962088504"><ele>655.0</ele><time>2026-04-28T15:34:09Z</time></trkpt><trkpt lat="42.417292758376504" lon="12.189338482393833"><ele>655.0</ele><time>2026-04-28T15:34:10Z</time></trkpt><trkpt lat="42.41714896306027" lon="12.189215357450008"><ele>655.0</ele><time>2026-04-28T15:34:11Z</time></trkpt><trkpt lat="42.416988923991546" lon="12.189077131531683"><ele>658.6666666666667</ele><time>2026-04-28T15:34:12Z</time></trkpt><trkpt lat="42.416828471591934" lon="12.188937753797058"><ele>662.3333333333334</ele><time>2026-04-28T15:34:13Z</time></trkpt><trkpt lat="42.416659001871494" lon="12.188802271114954"><ele>666.0</ele><time>2026-04-28T15:34:14Z</time></trkpt><trkpt lat="42.41650829938734" lon="12.188675287406234"><ele>666.0</ele><time>2026-04-28T15:34:15Z</time></trkpt><trkpt lat="42.416370850866855" lon="12.188549183724652"><ele>666.0</ele><time>2026-04-28T15:34:16Z</time></trkpt><trkpt lat="42.41624207865335" lon="12.188407601610887"><ele>666.0</ele><time>2026-04-28T15:34:17Z</time></trkpt><trkpt lat="42.41613310669107" lon="12.18825443988683"><ele>668.6666666666666</ele><time>2026-04-28T15:34:18Z</time></trkpt><trkpt lat="42.416031712146285" lon="12.188105285407223"><ele>671.3333333333333</ele><time>2026-04-28T15:34:19Z</time></trkpt><trkpt lat="42.415912725432555" lon="12.187967484967642"><ele>674.0</ele><time>2026-04-28T15:34:20Z</time></trkpt><trkpt lat="42.41578535497066" lon="12.187858936602119"><ele>674.0</ele><time>2026-04-28T15:34:21Z</time></trkpt><trkpt lat="42.4156456123662" lon="12.187774264167476"><ele>674.0</ele><time>2026-04-28T15:34:22Z</time></trkpt><trkpt lat="42.41550594324305" lon="12.187702499166722"><ele>674.0</ele><time>2026-04-28T15:34:23Z</time></trkpt><trkpt lat="42.415366728180246" lon="12.18765585927529"><ele>674.0</ele><time>2026-04-28T15:34:24Z</time></trkpt><trkpt lat="42.41525267615812" lon="12.187631691916115"><ele>674.5</ele><time>2026-04-28T15:34:25Z</time></trkpt><trkpt lat="42.41514543464667" lon="12.18762153884837"><ele>675.0</ele><time>2026-04-28T15:34:26Z</time></trkpt><trkpt lat="42.415038723671" lon="12.187606468395007"><ele>675.5</ele><time>2026-04-28T15:34:27Z</time></trkpt><trkpt lat="42.41491882323355" lon="12.187569134434927"><ele>676.0</ele><time>2026-04-28T15:34:28Z</time></trkpt><trkpt lat="42.41478463287076" lon="12.187528142312242"><ele>676.0</ele><time>2026-04-28T15:34:29Z</time></trkpt><trkpt lat="42.41464077350535" lon="12.187477642622772"><ele>676.0</ele><time>2026-04-28T15:34:30Z</time></trkpt><trkpt lat="42.414489710269216" lon="12.187419258528731"><ele>676.0</ele><time>2026-04-28T15:34:31Z</time></trkpt><trkpt lat="42.41434454577076" lon="12.18736345246496"><ele>676.3333333333334</ele><time>2026-04-28T15:34:32Z</time></trkpt><trkpt lat="42.41418770298573" lon="12.187308804551238"><ele>676.6666666666666</ele><time>2026-04-28T15:34:33Z</time></trkpt><trkpt lat="42.41402138765185" lon="12.187247537933475"><ele>677.0</ele><time>2026-04-28T15:34:34Z</time></trkpt><trkpt lat="42.41384359632249" lon="12.18718399476021"><ele>675.6666666666666</ele><time>2026-04-28T15:34:35Z</time></trkpt><trkpt lat="42.41365387146723" lon="12.187122633564718"><ele>674.3333333333334</ele><time>2026-04-28T15:34:36Z</time></trkpt><trkpt lat="42.41345738580721" lon="12.187061812737655"><ele>673.0</ele><time>2026-04-28T15:34:37Z</time></trkpt><trkpt lat="42.41326480928716" lon="12.187004369974213"><ele>673.0</ele><time>2026-04-28T15:34:38Z</time></trkpt><trkpt lat="42.41307153440766" lon="12.18694513070606"><ele>673.0</ele><time>2026-04-28T15:34:39Z</time></trkpt><trkpt lat="42.412886375280344" lon="12.186876655269716"><ele>673.0</ele><time>2026-04-28T15:34:40Z</time></trkpt><trkpt lat="42.41271015878313" lon="12.186812965432857"><ele>673.0</ele><time>2026-04-28T15:34:41Z</time></trkpt><trkpt lat="42.41254533336652" lon="12.18675712021949"><ele>673.0</ele><time>2026-04-28T15:34:42Z</time></trkpt><trkpt lat="42.41240856291312" lon="12.186717021280884"><ele>673.0</ele><time>2026-04-28T15:34:43Z</time></trkpt><trkpt lat="42.41228320006478" lon="12.186700809401277"><ele>673.0</ele><time>2026-04-28T15:34:44Z</time></trkpt><trkpt lat="42.412171744307585" lon="12.186710046052259"><ele>672.5</ele><time>2026-04-28T15:34:45Z</time></trkpt><trkpt lat="42.412056952347484" lon="12.186737304053096"><ele>672.0</ele><time>2026-04-28T15:34:46Z</time></trkpt><trkpt lat="42.411943241686274" lon="12.18678591597343"><ele>671.5</ele><time>2026-04-28T15:34:47Z</time></trkpt><trkpt lat="42.411834647368636" lon="12.186860981877663"><ele>671.0</ele><time>2026-04-28T15:34:48Z</time></trkpt><trkpt lat="42.41173118620873" lon="12.186969561696067"><ele>671.0</ele><time>2026-04-28T15:34:49Z</time></trkpt><trkpt lat="42.41163422129928" lon="12.18710085449325"><ele>671.0</ele><time>2026-04-28T15:34:50Z</time></trkpt><trkpt lat="42.4115372548621" lon="12.187213614164419"><ele>671.0</ele><time>2026-04-28T15:34:51Z</time></trkpt><trkpt lat="42.41143372732999" lon="12.187282675993417"><ele>671.0</ele><time>2026-04-28T15:34:52Z</time></trkpt><trkpt lat="42.41132904423115" lon="12.187310155161532"><ele>672.1999999999999</ele><time>2026-04-28T15:34:53Z</time></trkpt><trkpt lat="42.411217022035665" lon="12.18730155112078"><ele>673.4</ele><time>2026-04-28T15:34:54Z</time></trkpt><trkpt lat="42.411119374281405" lon="12.187264010135028"><ele>674.6</ele><time>2026-04-28T15:34:55Z</time></trkpt><trkpt lat="42.41103206961359" lon="12.187235990148622"><ele>675.8</ele><time>2026-04-28T15:34:56Z</time></trkpt><trkpt lat="42.41096429113742" lon="12.18727284964338"><ele>677.0</ele><time>2026-04-28T15:34:57Z</time></trkpt><trkpt lat="42.41090275062402" lon="12.187362481251208"><ele>678.8</ele><time>2026-04-28T15:34:58Z</time></trkpt><trkpt lat="42.41084810807617" lon="12.187471966041224"><ele>680.6</ele><time>2026-04-28T15:34:59Z</time></trkpt><trkpt lat="42.4107820066341" lon="12.187581184857022"><ele>682.4</ele><time>2026-04-28T15:35:00Z</time></trkpt><trkpt lat="42.41071112717867" lon="12.187703596690406"><ele>684.1999999999999</ele><time>2026-04-28T15:35:01Z</time></trkpt><trkpt lat="42.41064031513203" lon="12.187840696597695"><ele>686.0</ele><time>2026-04-28T15:35:02Z</time></trkpt><trkpt lat="42.410577094201315" lon="12.187951720025815"><ele>686.0</ele><time>2026-04-28T15:35:03Z</time></trkpt><trkpt lat="42.41050315358148" lon="12.188033722958638"><ele>686.0</ele><time>2026-04-28T15:35:04Z</time></trkpt><trkpt lat="42.41040747069554" lon="12.188104755613912"><ele>686.0</ele><time>2026-04-28T15:35:05Z</time></trkpt><trkpt lat="42.41028218317219" lon="12.188161090932962"><ele>686.0</ele><time>2026-04-28T15:35:06Z</time></trkpt><trkpt lat="42.41014031782767" lon="12.188225305058051"><ele>688.3333333333333</ele><time>2026-04-28T15:35:07Z</time></trkpt><trkpt lat="42.40998910422094" lon="12.188291284498705"><ele>690.6666666666666</ele><time>2026-04-28T15:35:08Z</time></trkpt><trkpt lat="42.409830378635064" lon="12.188370953405103"><ele>693.0</ele><time>2026-04-28T15:35:09Z</time></trkpt><trkpt lat="42.409669904689075" lon="12.188483454088296"><ele>694.3333333333334</ele><time>2026-04-28T15:35:10Z</time></trkpt><trkpt lat="42.40950092140579" lon="12.188577942581656"><ele>695.6666666666667</ele><time>2026-04-28T15:35:11Z</time></trkpt><trkpt lat="42.40932784886667" lon="12.188642205732556"><ele>697.0</ele><time>2026-04-28T15:35:12Z</time></trkpt><trkpt lat="42.40914354547945" lon="12.18870123415164"><ele>697.0</ele><time>2026-04-28T15:35:13Z</time></trkpt><trkpt lat="42.40895420869477" lon="12.188772083024855"><ele>697.0</ele><time>2026-04-28T15:35:14Z</time></trkpt><trkpt lat="42.40876537578962" lon="12.188844961166945"><ele>697.0</ele><time>2026-04-28T15:35:15Z</time></trkpt><trkpt lat="42.40857576448278" lon="12.188895152730286"><ele>700.6666666666667</ele><time>2026-04-28T15:35:16Z</time></trkpt><trkpt lat="42.40840509221305" lon="12.188937861763867"><ele>704.3333333333334</ele><time>2026-04-28T15:35:17Z</time></trkpt><trkpt lat="42.40825463151696" lon="12.18897489870984"><ele>708.0</ele><time>2026-04-28T15:35:18Z</time></trkpt><trkpt lat="42.408112349383885" lon="12.188997917933131"><ele>708.2</ele><time>2026-04-28T15:35:19Z</time></trkpt><trkpt lat="42.40798934429362" lon="12.189004209144878"><ele>708.4</ele><time>2026-04-28T15:35:20Z</time></trkpt><trkpt lat="42.407883430600876" lon="12.189018948767172"><ele>708.6</ele><time>2026-04-28T15:35:21Z</time></trkpt><trkpt lat="42.40779246775541" lon="12.18904974803523"><ele>708.8000000000001</ele><time>2026-04-28T15:35:22Z</time></trkpt><trkpt lat="42.407712102291754" lon="12.189105306646821"><ele>709.0</ele><time>2026-04-28T15:35:23Z</time></trkpt><trkpt lat="42.40763992596027" lon="12.189197607917794"><ele>710.4000000000001</ele><time>2026-04-28T15:35:24Z</time></trkpt><trkpt lat="42.40757836034613" lon="12.189316304547575"><ele>711.8</ele><time>2026-04-28T15:35:25Z</time></trkpt><trkpt lat="42.40751164305213" lon="12.189444473964615"><ele>713.2</ele><time>2026-04-28T15:35:26Z</time></trkpt><trkpt lat="42.407434065252424" lon="12.189529014602392"><ele>714.5999999999999</ele><time>2026-04-28T15:35:27Z</time></trkpt><trkpt lat="42.40733851962026" lon="12.189588576596648"><ele>716.0</ele><time>2026-04-28T15:35:28Z</time></trkpt><trkpt lat="42.40721844091964" lon="12.189616866196445"><ele>716.25</ele><time>2026-04-28T15:35:29Z</time></trkpt><trkpt lat="42.40706629427032" lon="12.189630072660412"><ele>716.5</ele><time>2026-04-28T15:35:30Z</time></trkpt><trkpt lat="42.406911363619514" lon="12.189633878872314"><ele>716.75</ele><time>2026-04-28T15:35:31Z</time></trkpt><trkpt lat="42.40677327942254" lon="12.189622685611418"><ele>717.0</ele><time>2026-04-28T15:35:32Z</time></trkpt><trkpt lat="42.4066316211028" lon="12.189575802505338"><ele>717.0</ele><time>2026-04-28T15:35:33Z</time></trkpt><trkpt lat="42.40647604778364" lon="12.189496594965235"><ele>717.0</ele><time>2026-04-28T15:35:34Z</time></trkpt><trkpt lat="42.40631692402977" lon="12.189396043629674"><ele>717.0</ele><time>2026-04-28T15:35:35Z</time></trkpt><trkpt lat="42.40614215899916" lon="12.189296147245836"><ele>722.0</ele><time>2026-04-28T15:35:36Z</time></trkpt><trkpt lat="42.40596315643014" lon="12.189208758741614"><ele>727.0</ele><time>2026-04-28T15:35:37Z</time></trkpt><trkpt lat="42.40579770837527" lon="12.18913769212825"><ele>732.0</ele><time>2026-04-28T15:35:38Z</time></trkpt><trkpt lat="42.405641429339134" lon="12.189074318341047"><ele>730.25</ele><time>2026-04-28T15:35:39Z</time></trkpt><trkpt lat="42.40549054664112" lon="12.1889989366855"><ele>728.5</ele><time>2026-04-28T15:35:40Z</time></trkpt><trkpt lat="42.40536054131613" lon="12.188908882128821"><ele>726.75</ele><time>2026-04-28T15:35:41Z</time></trkpt><trkpt lat="42.40524371451945" lon="12.188812099776735"><ele>725.0</ele><time>2026-04-28T15:35:42Z</time></trkpt><trkpt lat="42.4051231167144" lon="12.18867998975233"><ele>725.0</ele><time>2026-04-28T15:35:43Z</time></trkpt><trkpt lat="42.40499758973521" lon="12.188515278927747"><ele>725.0</ele><time>2026-04-28T15:35:44Z</time></trkpt><trkpt lat="42.40486740303766" lon="12.188358264406746"><ele>725.0</ele><time>2026-04-28T15:35:45Z</time></trkpt><trkpt lat="42.40475573901112" lon="12.188235073718072"><ele>725.4</ele><time>2026-04-28T15:35:46Z</time></trkpt><trkpt lat="42.40465261223879" lon="12.188133757327824"><ele>725.8</ele><time>2026-04-28T15:35:47Z</time></trkpt><trkpt lat="42.404565710858456" lon="12.18806643882476"><ele>726.2</ele><time>2026-04-28T15:35:48Z</time></trkpt><trkpt lat="42.40448282050079" lon="12.188038970347762"><ele>726.6</ele><time>2026-04-28T15:35:49Z</time></trkpt><trkpt lat="42.40439594122401" lon="12.188042267630404"><ele>727.0</ele><time>2026-04-28T15:35:50Z</time></trkpt><trkpt lat="42.404290604927716" lon="12.188078742790566"><ele>727.0</ele><time>2026-04-28T15:35:51Z</time></trkpt><trkpt lat="42.40416927604872" lon="12.188146592013512"><ele>727.0</ele><time>2026-04-28T15:35:52Z</time></trkpt><trkpt lat="42.4040359788766" lon="12.188230843058045"><ele>727.0</ele><time>2026-04-28T15:35:53Z</time></trkpt><trkpt lat="42.40389198756446" lon="12.188320564807459"><ele>727.0</ele><time>2026-04-28T15:35:54Z</time></trkpt><trkpt lat="42.403731843185824" lon="12.188413380060535"><ele>729.3333333333334</ele><time>2026-04-28T15:35:55Z</time></trkpt><trkpt lat="42.403561148651896" lon="12.1885153226107"><ele>731.6666666666666</ele><time>2026-04-28T15:35:56Z</time></trkpt><trkpt lat="42.40338125181145" lon="12.188629177585156"><ele>734.0</ele><time>2026-04-28T15:35:57Z</time></trkpt><trkpt lat="42.403201373047104" lon="12.188735624852352"><ele>734.0</ele><time>2026-04-28T15:35:58Z</time></trkpt><trkpt lat="42.40304194122696" lon="12.188824350978253"><ele>734.0</ele><time>2026-04-28T15:35:59Z</time></trkpt><trkpt lat="42.402886066647724" lon="12.1889093591036"><ele>734.0</ele><time>2026-04-28T15:36:00Z</time></trkpt><trkpt lat="42.40275218331957" lon="12.188977003133955"><ele>738.25</ele><time>2026-04-28T15:36:01Z</time></trkpt><trkpt lat="42.40263750381203" lon="12.189054383858773"><ele>742.5</ele><time>2026-04-28T15:36:02Z</time></trkpt><trkpt lat="42.402542736740145" lon="12.189158738922194"><ele>746.75</ele><time>2026-04-28T15:36:03Z</time></trkpt><trkpt lat="42.402474030490666" lon="12.18929452139158"><ele>751.0</ele><time>2026-04-28T15:36:04Z</time></trkpt><trkpt lat="42.402424977720045" lon="12.189439410531131"><ele>751.0</ele><time>2026-04-28T15:36:05Z</time></trkpt><trkpt lat="42.40239635114305" lon="12.189574565024738"><ele>751.0</ele><time>2026-04-28T15:36:06Z</time></trkpt><trkpt lat="42.402401591389776" lon="12.189678457699674"><ele>751.0</ele><time>2026-04-28T15:36:07Z</time></trkpt><trkpt lat="42.402444952919296" lon="12.189810362156853"><ele>751.0</ele><time>2026-04-28T15:36:09Z</time></trkpt><trkpt lat="42.402492065324275" lon="12.189960953531966"><ele>751.0</ele><time>2026-04-28T15:36:11Z</time></trkpt><trkpt lat="42.40247557833389" lon="12.190047163757379"><ele>752.4</ele><time>2026-04-28T15:36:12Z</time></trkpt><trkpt lat="42.402412399717434" lon="12.190127189332005"><ele>753.8</ele><time>2026-04-28T15:36:13Z</time></trkpt><trkpt lat="42.402334507379884" lon="12.190170899600169"><ele>755.1999999999999</ele><time>2026-04-28T15:36:14Z</time></trkpt><trkpt lat="42.402239971834945" lon="12.190189600182636"><ele>756.5999999999999</ele><time>2026-04-28T15:36:15Z</time></trkpt><trkpt lat="42.402144209360266" lon="12.190229984076666"><ele>758.0</ele><time>2026-04-28T15:36:16Z</time></trkpt><trkpt lat="42.402075237759945" lon="12.190314660019261"><ele>760.25</ele><time>2026-04-28T15:36:17Z</time></trkpt><trkpt lat="42.402023056219726" lon="12.190444442530282"><ele>762.5</ele><time>2026-04-28T15:36:18Z</time></trkpt><trkpt lat="42.4019780438897" lon="12.19058622013407"><ele>764.75</ele><time>2026-04-28T15:36:19Z</time></trkpt><trkpt lat="42.40191051577773" lon="12.190720550545029"><ele>767.0</ele><time>2026-04-28T15:36:20Z</time></trkpt><trkpt lat="42.401812408509464" lon="12.190848049330366"><ele>767.5</ele><time>2026-04-28T15:36:21Z</time></trkpt><trkpt lat="42.40169188452723" lon="12.190969685276313"><ele>768.0</ele><time>2026-04-28T15:36:22Z</time></trkpt><trkpt lat="42.40157159695491" lon="12.191075362226723"><ele>768.5</ele><time>2026-04-28T15:36:23Z</time></trkpt><trkpt lat="42.40146727783055" lon="12.191133742120963"><ele>769.0</ele><time>2026-04-28T15:36:24Z</time></trkpt><trkpt lat="42.40136831111952" lon="12.191161635132522"><ele>769.5</ele><time>2026-04-28T15:36:25Z</time></trkpt><trkpt lat="42.40125902921826" lon="12.191163162484917"><ele>770.0</ele><time>2026-04-28T15:36:26Z</time></trkpt><trkpt lat="42.4011337635427" lon="12.191137615792453"><ele>770.5</ele><time>2026-04-28T15:36:27Z</time></trkpt><trkpt lat="42.40099963845719" lon="12.191111314391225"><ele>771.0</ele><time>2026-04-28T15:36:28Z</time></trkpt><trkpt lat="42.40087628082551" lon="12.191109122260414"><ele>771.0</ele><time>2026-04-28T15:36:29Z</time></trkpt><trkpt lat="42.40075525677584" lon="12.191151686460737"><ele>771.0</ele><time>2026-04-28T15:36:30Z</time></trkpt><trkpt lat="42.40063540955536" lon="12.191237370239701"><ele>771.0</ele><time>2026-04-28T15:36:31Z</time></trkpt><trkpt lat="42.400517138971274" lon="12.191368056741885"><ele>771.0</ele><time>2026-04-28T15:36:32Z</time></trkpt><trkpt lat="42.40040401795313" lon="12.191514517989253"><ele>770.0</ele><time>2026-04-28T15:36:33Z</time></trkpt><trkpt lat="42.400290779832446" lon="12.191678706828041"><ele>769.0</ele><time>2026-04-28T15:36:34Z</time></trkpt><trkpt lat="42.40015814695862" lon="12.191810070553261"><ele>768.0</ele><time>2026-04-28T15:36:35Z</time></trkpt><trkpt lat="42.4000083336275" lon="12.191911879392194"><ele>768.0</ele><time>2026-04-28T15:36:36Z</time></trkpt><trkpt lat="42.399843074257646" lon="12.19199339058078"><ele>768.0</ele><time>2026-04-28T15:36:37Z</time></trkpt><trkpt lat="42.39966958746722" lon="12.19205897489966"><ele>768.0</ele><time>2026-04-28T15:36:38Z</time></trkpt><trkpt lat="42.39949075881381" lon="12.192114369564674"><ele>768.6666666666667</ele><time>2026-04-28T15:36:39Z</time></trkpt><trkpt lat="42.399304542093226" lon="12.192157725065854"><ele>769.3333333333334</ele><time>2026-04-28T15:36:40Z</time></trkpt><trkpt lat="42.3991097133607" lon="12.192194662283187"><ele>770.0</ele><time>2026-04-28T15:36:41Z</time></trkpt><trkpt lat="42.39890784204101" lon="12.192232253793751"><ele>769.6666666666667</ele><time>2026-04-28T15:36:42Z</time></trkpt><trkpt lat="42.39870676326982" lon="12.192268144063183"><ele>769.3333333333333</ele><time>2026-04-28T15:36:43Z</time></trkpt><trkpt lat="42.39851784742656" lon="12.192305335312945"><ele>769.0</ele><time>2026-04-28T15:36:44Z</time></trkpt><trkpt lat="42.39833912432398" lon="12.192348437994585"><ele>770.3333333333333</ele><time>2026-04-28T15:36:45Z</time></trkpt><trkpt lat="42.39816540922003" lon="12.192410190200835"><ele>771.6666666666667</ele><time>2026-04-28T15:36:46Z</time></trkpt><trkpt lat="42.39800468584639" lon="12.192480279960282"><ele>773.0</ele><time>2026-04-28T15:36:47Z</time></trkpt><trkpt lat="42.397860827857876" lon="12.192547021810086"><ele>774.0</ele><time>2026-04-28T15:36:48Z</time></trkpt><trkpt lat="42.3977209860573" lon="12.192608327117275"><ele>775.0</ele><time>2026-04-28T15:36:49Z</time></trkpt><trkpt lat="42.39758761035508" lon="12.192663817930368"><ele>776.0</ele><time>2026-04-28T15:36:50Z</time></trkpt><trkpt lat="42.39745735117585" lon="12.192722248221688"><ele>777.0</ele><time>2026-04-28T15:36:51Z</time></trkpt><trkpt lat="42.397339046224744" lon="12.192780916153714"><ele>777.0</ele><time>2026-04-28T15:36:52Z</time></trkpt><trkpt lat="42.39722829161791" lon="12.19284163819638"><ele>777.0</ele><time>2026-04-28T15:36:53Z</time></trkpt><trkpt lat="42.397120690247036" lon="12.19292919276548"><ele>777.0</ele><time>2026-04-28T15:36:54Z</time></trkpt><trkpt lat="42.397026372894" lon="12.193045234342835"><ele>777.0</ele><time>2026-04-28T15:36:55Z</time></trkpt><trkpt lat="42.39693915307427" lon="12.193185845515877"><ele>776.75</ele><time>2026-04-28T15:36:56Z</time></trkpt><trkpt lat="42.39684968836886" lon="12.193317312813976"><ele>776.5</ele><time>2026-04-28T15:36:57Z</time></trkpt><trkpt lat="42.39675099234535" lon="12.193419250850999"><ele>776.25</ele><time>2026-04-28T15:36:58Z</time></trkpt><trkpt lat="42.396634518334174" lon="12.193493131606653"><ele>776.0</ele><time>2026-04-28T15:36:59Z</time></trkpt><trkpt lat="42.39650841033253" lon="12.193531621122663"><ele>776.0</ele><time>2026-04-28T15:37:00Z</time></trkpt><trkpt lat="42.39637002107382" lon="12.193527561336335"><ele>776.0</ele><time>2026-04-28T15:37:01Z</time></trkpt><trkpt lat="42.396214374553935" lon="12.193487842142305"><ele>776.0</ele><time>2026-04-28T15:37:02Z</time></trkpt><trkpt lat="42.39607032547914" lon="12.193439540892564"><ele>776.0</ele><time>2026-04-28T15:37:03Z</time></trkpt><trkpt lat="42.395949652383294" lon="12.193406351524935"><ele>776.0</ele><time>2026-04-28T15:37:04Z</time></trkpt><trkpt lat="42.39584140669523" lon="12.193415768177298"><ele>776.0</ele><time>2026-04-28T15:37:05Z</time></trkpt><trkpt lat="42.395729053032824" lon="12.193467158221129"><ele>776.0</ele><time>2026-04-28T15:37:06Z</time></trkpt><trkpt lat="42.39560738839854" lon="12.193549861889718"><ele>776.0</ele><time>2026-04-28T15:37:07Z</time></trkpt><trkpt lat="42.39547451252809" lon="12.193655963050448"><ele>776.0</ele><time>2026-04-28T15:37:08Z</time></trkpt><trkpt lat="42.3953303320921" lon="12.193764774891298"><ele>776.0</ele><time>2026-04-28T15:37:09Z</time></trkpt><trkpt lat="42.39517723287152" lon="12.193891788351024"><ele>776.0</ele><time>2026-04-28T15:37:10Z</time></trkpt><trkpt lat="42.39503891484193" lon="12.194036248590415"><ele>777.0</ele><time>2026-04-28T15:37:11Z</time></trkpt><trkpt lat="42.394905392329534" lon="12.194192790466373"><ele>778.0</ele><time>2026-04-28T15:37:12Z</time></trkpt><trkpt lat="42.39477719337886" lon="12.194346470193581"><ele>779.0</ele><time>2026-04-28T15:37:13Z</time></trkpt><trkpt lat="42.39463164123961" lon="12.194502516950847"><ele>779.0</ele><time>2026-04-28T15:37:14Z</time></trkpt><trkpt lat="42.39447196763349" lon="12.194651296517828"><ele>779.0</ele><time>2026-04-28T15:37:15Z</time></trkpt><trkpt lat="42.39430511188051" lon="12.194798352798234"><ele>779.0</ele><time>2026-04-28T15:37:16Z</time></trkpt><trkpt lat="42.39414977457596" lon="12.194936152885044"><ele>779.5</ele><time>2026-04-28T15:37:17Z</time></trkpt><trkpt lat="42.39401420330899" lon="12.195046472546684"><ele>780.0</ele><time>2026-04-28T15:37:18Z</time></trkpt><trkpt lat="42.39390260357003" lon="12.195109869762394"><ele>780.5</ele><time>2026-04-28T15:37:19Z</time></trkpt><trkpt lat="42.393791723337834" lon="12.195129443305262"><ele>781.0</ele><time>2026-04-28T15:37:20Z</time></trkpt><trkpt lat="42.393653646574634" lon="12.195119914412357"><ele>781.0</ele><time>2026-04-28T15:37:21Z</time></trkpt><trkpt lat="42.393502636981864" lon="12.195095465309974"><ele>781.0</ele><time>2026-04-28T15:37:22Z</time></trkpt><trkpt lat="42.39333396426344" lon="12.19507046753918"><ele>781.0</ele><time>2026-04-28T15:37:23Z</time></trkpt><trkpt lat="42.39314720534548" lon="12.195047293667448"><ele>781.0</ele><time>2026-04-28T15:37:24Z</time></trkpt><trkpt lat="42.392964873619825" lon="12.195025598487392"><ele>781.0</ele><time>2026-04-28T15:37:25Z</time></trkpt><trkpt lat="42.392799329593345" lon="12.195006329072926"><ele>781.0</ele><time>2026-04-28T15:37:26Z</time></trkpt><trkpt lat="42.392654381797385" lon="12.194986096291522"><ele>781.0</ele><time>2026-04-28T15:37:27Z</time></trkpt><trkpt lat="42.3925141035964" lon="12.194957790433666"><ele>781.0</ele><time>2026-04-28T15:37:28Z</time></trkpt><trkpt lat="42.39236916665421" lon="12.194920553138621"><ele>781.0</ele><time>2026-04-28T15:37:29Z</time></trkpt><trkpt lat="42.39222507261238" lon="12.19487145783525"><ele>781.0</ele><time>2026-04-28T15:37:30Z</time></trkpt><trkpt lat="42.39208425063817" lon="12.19481656310642"><ele>778.25</ele><time>2026-04-28T15:37:31Z</time></trkpt><trkpt lat="42.391953487747806" lon="12.194749801808497"><ele>775.5</ele><time>2026-04-28T15:37:32Z</time></trkpt><trkpt lat="42.39182870404559" lon="12.194676823376218"><ele>772.75</ele><time>2026-04-28T15:37:33Z</time></trkpt><trkpt lat="42.3917014494978" lon="12.19461307440395"><ele>770.0</ele><time>2026-04-28T15:37:34Z</time></trkpt><trkpt lat="42.39158619207127" lon="12.194558515957553"><ele>770.0000000000001</ele><time>2026-04-28T15:37:35Z</time></trkpt><trkpt lat="42.39148717359254" lon="12.194512855036159"><ele>770.0</ele><time>2026-04-28T15:37:36Z</time></trkpt><trkpt lat="42.391405173283474" lon="12.194480321606855"><ele>770.0</ele><time>2026-04-28T15:37:37Z</time></trkpt><trkpt lat="42.3913453101373" lon="12.19445028029026"><ele>770.0</ele><time>2026-04-28T15:37:38Z</time></trkpt><trkpt lat="42.39125800846239" lon="12.19439869913725"><ele>770.0000000000001</ele><time>2026-04-28T15:37:40Z</time></trkpt><trkpt lat="42.391177299801136" lon="12.194399212216457"><ele>770.0</ele><time>2026-04-28T15:37:43Z</time></trkpt><trkpt lat="42.391117722354416" lon="12.194428359261586"><ele>769.5000000000001</ele><time>2026-04-28T15:37:44Z</time></trkpt><trkpt lat="42.391058395419236" lon="12.194457173961839"><ele>769.0</ele><time>2026-04-28T15:37:45Z</time></trkpt><trkpt lat="42.39099361066522" lon="12.194491259296846"><ele>768.5</ele><time>2026-04-28T15:37:46Z</time></trkpt><trkpt lat="42.39092260642773" lon="12.194528872297232"><ele>768.0</ele><time>2026-04-28T15:37:47Z</time></trkpt><trkpt lat="42.390842912844384" lon="12.194568902642017"><ele>767.5</ele><time>2026-04-28T15:37:48Z</time></trkpt><trkpt lat="42.3907569240993" lon="12.194613870541668"><ele>767.0</ele><time>2026-04-28T15:37:49Z</time></trkpt><trkpt lat="42.390662137877165" lon="12.194662501792081"><ele>767.0</ele><time>2026-04-28T15:37:50Z</time></trkpt><trkpt lat="42.390553398956996" lon="12.19470887929342"><ele>767.0</ele><time>2026-04-28T15:37:51Z</time></trkpt><trkpt lat="42.390444900934014" lon="12.194729055312632"><ele>767.0</ele><time>2026-04-28T15:37:52Z</time></trkpt><trkpt lat="42.39032621490379" lon="12.194725665054671"><ele>767.0</ele><time>2026-04-28T15:37:53Z</time></trkpt><trkpt lat="42.39021228068954" lon="12.194692529348561"><ele>766.6666666666666</ele><time>2026-04-28T15:37:54Z</time></trkpt><trkpt lat="42.390088237896855" lon="12.194615351864863"><ele>766.3333333333334</ele><time>2026-04-28T15:37:55Z</time></trkpt><trkpt lat="42.38995167308958" lon="12.194511069145445"><ele>766.0</ele><time>2026-04-28T15:37:56Z</time></trkpt><trkpt lat="42.38980301385861" lon="12.19439934373911"><ele>765.0</ele><time>2026-04-28T15:37:57Z</time></trkpt><trkpt lat="42.38962471655243" lon="12.194272218031116"><ele>764.0</ele><time>2026-04-28T15:37:58Z</time></trkpt><trkpt lat="42.38944119778712" lon="12.194144970277875"><ele>763.0</ele><time>2026-04-28T15:37:59Z</time></trkpt><trkpt lat="42.389253214726104" lon="12.194015787538593"><ele>761.3333333333334</ele><time>2026-04-28T15:38:00Z</time></trkpt><trkpt lat="42.389059460911604" lon="12.193885199356494"><ele>759.6666666666666</ele><time>2026-04-28T15:38:01Z</time></trkpt><trkpt lat="42.388859088943285" lon="12.193750963123215"><ele>758.0</ele><time>2026-04-28T15:38:02Z</time></trkpt><trkpt lat="42.388664229699344" lon="12.193617092732854"><ele>757.6666666666666</ele><time>2026-04-28T15:38:03Z</time></trkpt><trkpt lat="42.38847839237567" lon="12.193489144750863"><ele>757.3333333333334</ele><time>2026-04-28T15:38:04Z</time></trkpt><trkpt lat="42.38830023760225" lon="12.193366532765522"><ele>757.0</ele><time>2026-04-28T15:38:05Z</time></trkpt><trkpt lat="42.3881254145425" lon="12.193232235923777"><ele>757.6666666666667</ele><time>2026-04-28T15:38:06Z</time></trkpt><trkpt lat="42.38795442583149" lon="12.19309708045946"><ele>758.3333333333334</ele><time>2026-04-28T15:38:07Z</time></trkpt><trkpt lat="42.38778189060133" lon="12.19296652873573"><ele>759.0</ele><time>2026-04-28T15:38:08Z</time></trkpt><trkpt lat="42.387608272860966" lon="12.192844621414341"><ele>759.0</ele><time>2026-04-28T15:38:09Z</time></trkpt><trkpt lat="42.38744412006024" lon="12.19272788558306"><ele>759.0</ele><time>2026-04-28T15:38:10Z</time></trkpt><trkpt lat="42.38728000236821" lon="12.19262005774806"><ele>759.0</ele><time>2026-04-28T15:38:11Z</time></trkpt><trkpt lat="42.38712020638411" lon="12.192521674236747"><ele>758.6666666666666</ele><time>2026-04-28T15:38:12Z</time></trkpt><trkpt lat="42.38694891213857" lon="12.19241104425815"><ele>758.3333333333333</ele><time>2026-04-28T15:38:13Z</time></trkpt><trkpt lat="42.38676692264878" lon="12.192290988521423"><ele>758.0</ele><time>2026-04-28T15:38:14Z</time></trkpt><trkpt lat="42.38657751547044" lon="12.192162653906905"><ele>758.6666666666666</ele><time>2026-04-28T15:38:15Z</time></trkpt><trkpt lat="42.38638760311934" lon="12.192032468099727"><ele>759.3333333333334</ele><time>2026-04-28T15:38:16Z</time></trkpt><trkpt lat="42.386205146771175" lon="12.191906901581065"><ele>760.0</ele><time>2026-04-28T15:38:17Z</time></trkpt><trkpt lat="42.386037779573385" lon="12.191781613920606"><ele>760.0</ele><time>2026-04-28T15:38:18Z</time></trkpt><trkpt lat="42.38589756741457" lon="12.191659133592431"><ele>760.0</ele><time>2026-04-28T15:38:19Z</time></trkpt><trkpt lat="42.385774536106645" lon="12.191531358596947"><ele>760.0</ele><time>2026-04-28T15:38:20Z</time></trkpt><trkpt lat="42.38565937193874" lon="12.191395160225735"><ele>761.0</ele><time>2026-04-28T15:38:21Z</time></trkpt><trkpt lat="42.3855498874689" lon="12.191238234358345"><ele>762.0</ele><time>2026-04-28T15:38:22Z</time></trkpt><trkpt lat="42.38543936802611" lon="12.19108498677704"><ele>763.0</ele><time>2026-04-28T15:38:23Z</time></trkpt><trkpt lat="42.385326333705486" lon="12.190923833157846"><ele>763.0</ele><time>2026-04-28T15:38:24Z</time></trkpt><trkpt lat="42.38521084914149" lon="12.190746213411932"><ele>763.0</ele><time>2026-04-28T15:38:25Z</time></trkpt><trkpt lat="42.38508620847735" lon="12.190553206721235"><ele>763.0</ele><time>2026-04-28T15:38:26Z</time></trkpt><trkpt lat="42.38495648424024" lon="12.190351194575957"><ele>763.3333333333334</ele><time>2026-04-28T15:38:27Z</time></trkpt><trkpt lat="42.38483265422002" lon="12.190172771963445"><ele>763.6666666666666</ele><time>2026-04-28T15:38:28Z</time></trkpt><trkpt lat="42.38471075450217" lon="12.190024173811548"><ele>764.0</ele><time>2026-04-28T15:38:29Z</time></trkpt><trkpt lat="42.38457667993905" lon="12.189880190867642"><ele>766.6666666666666</ele><time>2026-04-28T15:38:30Z</time></trkpt><trkpt lat="42.384425522500685" lon="12.189758260264544"><ele>769.3333333333333</ele><time>2026-04-28T15:38:31Z</time></trkpt><trkpt lat="42.38426132524871" lon="12.189648391637506"><ele>772.0</ele><time>2026-04-28T15:38:32Z</time></trkpt><trkpt lat="42.3840876219772" lon="12.189548730416343"><ele>772.0</ele><time>2026-04-28T15:38:33Z</time></trkpt><trkpt lat="42.38390433439414" lon="12.189456416155773"><ele>772.0</ele><time>2026-04-28T15:38:34Z</time></trkpt><trkpt lat="42.38373148281727" lon="12.189381348264035"><ele>772.0</ele><time>2026-04-28T15:38:35Z</time></trkpt><trkpt lat="42.383552107563006" lon="12.189324207415444"><ele>772.0</ele><time>2026-04-28T15:38:36Z</time></trkpt><trkpt lat="42.38337225689008" lon="12.18929661133694"><ele>772.0</ele><time>2026-04-28T15:38:37Z</time></trkpt><trkpt lat="42.38318227738206" lon="12.189292994438164"><ele>772.0</ele><time>2026-04-28T15:38:38Z</time></trkpt><trkpt lat="42.38298622060706" lon="12.189319120247069"><ele>771.3333333333333</ele><time>2026-04-28T15:38:39Z</time></trkpt><trkpt lat="42.38278195038065" lon="12.189349782863024"><ele>770.6666666666667</ele><time>2026-04-28T15:38:40Z</time></trkpt><trkpt lat="42.382573211762434" lon="12.18938313449533"><ele>770.0</ele><time>2026-04-28T15:38:41Z</time></trkpt><trkpt lat="42.382355917315266" lon="12.189417853155907"><ele>771.3333333333334</ele><time>2026-04-28T15:38:42Z</time></trkpt><trkpt lat="42.38213254933241" lon="12.189468197504311"><ele>772.6666666666667</ele><time>2026-04-28T15:38:43Z</time></trkpt><trkpt lat="42.38192209814683" lon="12.189473919616235"><ele>774.0</ele><time>2026-04-28T15:38:44Z</time></trkpt><trkpt lat="42.3817208240231" lon="12.189475139758125"><ele>774.0</ele><time>2026-04-28T15:38:45Z</time></trkpt><trkpt lat="42.381539881136554" lon="12.189488760264856"><ele>774.0</ele><time>2026-04-28T15:38:46Z</time></trkpt><trkpt lat="42.38137448061785" lon="12.189513956625879"><ele>774.0</ele><time>2026-04-28T15:38:47Z</time></trkpt><trkpt lat="42.38122129905756" lon="12.18954525074333"><ele>775.25</ele><time>2026-04-28T15:38:48Z</time></trkpt><trkpt lat="42.3810888772471" lon="12.189550163832152"><ele>776.5</ele><time>2026-04-28T15:38:49Z</time></trkpt><trkpt lat="42.38096418800043" lon="12.189521220027927"><ele>777.75</ele><time>2026-04-28T15:38:50Z</time></trkpt><trkpt lat="42.3808472222842" lon="12.189446886250469"><ele>779.0</ele><time>2026-04-28T15:38:51Z</time></trkpt><trkpt lat="42.38074115557808" lon="12.189331402565145"><ele>779.0</ele><time>2026-04-28T15:38:52Z</time></trkpt><trkpt lat="42.380635728527345" lon="12.18918664233126"><ele>779.0</ele><time>2026-04-28T15:38:53Z</time></trkpt><trkpt lat="42.38052005315612" lon="12.189048252846765"><ele>779.0</ele><time>2026-04-28T15:38:54Z</time></trkpt><trkpt lat="42.380400270763054" lon="12.188931683761464"><ele>779.0</ele><time>2026-04-28T15:38:55Z</time></trkpt><trkpt lat="42.380279092417254" lon="12.188845200674422"><ele>779.0</ele><time>2026-04-28T15:38:56Z</time></trkpt><trkpt lat="42.38012993155354" lon="12.188783796989437"><ele>779.0</ele><time>2026-04-28T15:38:57Z</time></trkpt><trkpt lat="42.379954233465426" lon="12.18873314759274"><ele>779.0</ele><time>2026-04-28T15:38:58Z</time></trkpt><trkpt lat="42.379759392858084" lon="12.188689137502235"><ele>779.0</ele><time>2026-04-28T15:38:59Z</time></trkpt><trkpt lat="42.37954879844226" lon="12.188645104222676"><ele>779.0</ele><time>2026-04-28T15:39:00Z</time></trkpt><trkpt lat="42.37932601869812" lon="12.188609265048386"><ele>780.6666666666667</ele><time>2026-04-28T15:39:01Z</time></trkpt><trkpt lat="42.379100488946705" lon="12.18857927901953"><ele>782.3333333333333</ele><time>2026-04-28T15:39:02Z</time></trkpt><trkpt lat="42.37888193409785" lon="12.188543050469772"><ele>784.0</ele><time>2026-04-28T15:39:03Z</time></trkpt><trkpt lat="42.37869695723039" lon="12.18849213470178"><ele>785.75</ele><time>2026-04-28T15:39:04Z</time></trkpt><trkpt lat="42.3785425156755" lon="12.188440896662325"><ele>787.5</ele><time>2026-04-28T15:39:05Z</time></trkpt><trkpt lat="42.37840979090115" lon="12.188389971048714"><ele>789.25</ele><time>2026-04-28T15:39:06Z</time></trkpt><trkpt lat="42.37826671850456" lon="12.188327386327696"><ele>791.0</ele><time>2026-04-28T15:39:07Z</time></trkpt><trkpt lat="42.37810670828381" lon="12.188235956564421"><ele>791.3333333333334</ele><time>2026-04-28T15:39:08Z</time></trkpt><trkpt lat="42.37793660278995" lon="12.188139975916014"><ele>791.6666666666667</ele><time>2026-04-28T15:39:09Z</time></trkpt><trkpt lat="42.37775857859953" lon="12.188037605782453"><ele>792.0</ele><time>2026-04-28T15:39:10Z</time></trkpt><trkpt lat="42.37759551545929" lon="12.187936653924144"><ele>792.0</ele><time>2026-04-28T15:39:11Z</time></trkpt><trkpt lat="42.377440164024655" lon="12.187838064516363"><ele>792.0</ele><time>2026-04-28T15:39:12Z</time></trkpt><trkpt lat="42.37726497788979" lon="12.187723415920168"><ele>792.0</ele><time>2026-04-28T15:39:13Z</time></trkpt><trkpt lat="42.3770820486862" lon="12.18759691308809"><ele>792.0</ele><time>2026-04-28T15:39:14Z</time></trkpt><trkpt lat="42.376897318898855" lon="12.187451767145777"><ele>792.0</ele><time>2026-04-28T15:39:15Z</time></trkpt><trkpt lat="42.37670808598047" lon="12.187294749399971"><ele>792.0</ele><time>2026-04-28T15:39:16Z</time></trkpt><trkpt lat="42.376546100467436" lon="12.18714671146216"><ele>793.3333333333333</ele><time>2026-04-28T15:39:17Z</time></trkpt><trkpt lat="42.3763985673151" lon="12.187011866929756"><ele>794.6666666666666</ele><time>2026-04-28T15:39:18Z</time></trkpt><trkpt lat="42.376245596733426" lon="12.186872459729448"><ele>796.0</ele><time>2026-04-28T15:39:19Z</time></trkpt><trkpt lat="42.37610219948437" lon="12.186732273249202"><ele>796.0</ele><time>2026-04-28T15:39:20Z</time></trkpt><trkpt lat="42.375980205972446" lon="12.186616063700793"><ele>796.0</ele><time>2026-04-28T15:39:21Z</time></trkpt><trkpt lat="42.37586186145855" lon="12.18652761358756"><ele>796.0</ele><time>2026-04-28T15:39:22Z</time></trkpt><trkpt lat="42.37572292618808" lon="12.186478777805819"><ele>796.0</ele><time>2026-04-28T15:39:23Z</time></trkpt><trkpt lat="42.37555967484895" lon="12.186465058620604"><ele>796.6666666666666</ele><time>2026-04-28T15:39:24Z</time></trkpt><trkpt lat="42.37539392503888" lon="12.18647296158587"><ele>797.3333333333333</ele><time>2026-04-28T15:39:25Z</time></trkpt><trkpt lat="42.37524374340415" lon="12.186504178880607"><ele>798.0</ele><time>2026-04-28T15:39:26Z</time></trkpt><trkpt lat="42.37511106193969" lon="12.186568811530204"><ele>798.6666666666667</ele><time>2026-04-28T15:39:27Z</time></trkpt><trkpt lat="42.3749841516841" lon="12.18667240702729"><ele>799.3333333333334</ele><time>2026-04-28T15:39:28Z</time></trkpt><trkpt lat="42.37486112389406" lon="12.18679555217388"><ele>800.0</ele><time>2026-04-28T15:39:29Z</time></trkpt><trkpt lat="42.37472594531096" lon="12.186904804989613"><ele>800.6666666666667</ele><time>2026-04-28T15:39:30Z</time></trkpt><trkpt lat="42.37457188820178" lon="12.186981135451353"><ele>801.3333333333333</ele><time>2026-04-28T15:39:31Z</time></trkpt><trkpt lat="42.37440086085107" lon="12.187034526310207"><ele>802.0</ele><time>2026-04-28T15:39:32Z</time></trkpt><trkpt lat="42.374214630467904" lon="12.187062876469046"><ele>802.0</ele><time>2026-04-28T15:39:33Z</time></trkpt><trkpt lat="42.37403538177713" lon="12.187081394446908"><ele>802.0</ele><time>2026-04-28T15:39:34Z</time></trkpt><trkpt lat="42.37389372236482" lon="12.187079275596032"><ele>802.0</ele><time>2026-04-28T15:39:35Z</time></trkpt><trkpt lat="42.37378773008254" lon="12.18705968192172"><ele>802.0</ele><time>2026-04-28T15:39:36Z</time></trkpt><trkpt lat="42.37371882771951" lon="12.187029582237773"><ele>801.9999999999999</ele><time>2026-04-28T15:39:37Z</time></trkpt><trkpt lat="42.373651709797436" lon="12.187000672033596"><ele>802.0</ele><time>2026-04-28T15:39:39Z</time></trkpt><trkpt lat="42.37358671946965" lon="12.187003793775704"><ele>802.0</ele><time>2026-04-28T15:39:43Z</time></trkpt><trkpt lat="42.37351062705091" lon="12.18702015997345"><ele>802.0</ele><time>2026-04-28T15:39:44Z</time></trkpt><trkpt lat="42.37341468701513" lon="12.187069715952138"><ele>801.9999999999999</ele><time>2026-04-28T15:39:45Z</time></trkpt><trkpt lat="42.37330253445232" lon="12.187127168057785"><ele>802.0</ele><time>2026-04-28T15:39:46Z</time></trkpt><trkpt lat="42.373157783759936" lon="12.187175396039525"><ele>801.0</ele><time>2026-04-28T15:39:47Z</time></trkpt><trkpt lat="42.37299018609137" lon="12.187214283892189"><ele>800.0</ele><time>2026-04-28T15:39:48Z</time></trkpt><trkpt lat="42.37281525333757" lon="12.187240626883256"><ele>799.0</ele><time>2026-04-28T15:39:49Z</time></trkpt><trkpt lat="42.37262589168228" lon="12.187276552451348"><ele>799.0</ele><time>2026-04-28T15:39:50Z</time></trkpt><trkpt lat="42.3724774580002" lon="12.187324248045162"><ele>799.0</ele><time>2026-04-28T15:39:51Z</time></trkpt><trkpt lat="42.37234290809762" lon="12.187376450724821"><ele>799.0</ele><time>2026-04-28T15:39:52Z</time></trkpt><trkpt lat="42.372215264460415" lon="12.187425417228493"><ele>799.0</ele><time>2026-04-28T15:39:53Z</time></trkpt><trkpt lat="42.372106795116125" lon="12.187461305921708"><ele>801.2</ele><time>2026-04-28T15:39:54Z</time></trkpt><trkpt lat="42.37199420153241" lon="12.187502415694349"><ele>803.4000000000001</ele><time>2026-04-28T15:39:55Z</time></trkpt><trkpt lat="42.37189343006839" lon="12.187536907195229"><ele>805.6</ele><time>2026-04-28T15:39:56Z</time></trkpt><trkpt lat="42.37180579608319" lon="12.187556608917141"><ele>807.8</ele><time>2026-04-28T15:39:57Z</time></trkpt><trkpt lat="42.3716890468043" lon="12.187570816485469"><ele>810.0</ele><time>2026-04-28T15:39:59Z</time></trkpt><trkpt lat="42.37161893840874" lon="12.187545148452406"><ele>810.0</ele><time>2026-04-28T15:40:00Z</time></trkpt><trkpt lat="42.371542232929" lon="12.187504232832472"><ele>810.0</ele><time>2026-04-28T15:40:01Z</time></trkpt><trkpt lat="42.371465237116126" lon="12.18745532760878"><ele>810.0</ele><time>2026-04-28T15:40:02Z</time></trkpt><trkpt lat="42.37138259693278" lon="12.187402132403333"><ele>810.0</ele><time>2026-04-28T15:40:03Z</time></trkpt><trkpt lat="42.37130835818397" lon="12.187350265410075"><ele>810.0</ele><time>2026-04-28T15:40:04Z</time></trkpt><trkpt lat="42.3712278695311" lon="12.1872896023305"><ele>810.0</ele><time>2026-04-28T15:40:05Z</time></trkpt><trkpt lat="42.37114540514924" lon="12.187227831799204"><ele>809.8</ele><time>2026-04-28T15:40:06Z</time></trkpt><trkpt lat="42.371060611647195" lon="12.187166225253268"><ele>809.6</ele><time>2026-04-28T15:40:07Z</time></trkpt><trkpt lat="42.37097230788065" lon="12.187104511384074"><ele>809.4000000000001</ele><time>2026-04-28T15:40:08Z</time></trkpt><trkpt lat="42.37088316349203" lon="12.187049173202983"><ele>809.2</ele><time>2026-04-28T15:40:09Z</time></trkpt><trkpt lat="42.370789518889495" lon="12.187012580280518"><ele>809.0</ele><time>2026-04-28T15:40:10Z</time></trkpt><trkpt lat="42.370704856310255" lon="12.186994382984158"><ele>809.0000000000001</ele><time>2026-04-28T15:40:11Z</time></trkpt><trkpt lat="42.37062878444633" lon="12.186984584964037"><ele>809.0</ele><time>2026-04-28T15:40:12Z</time></trkpt><trkpt lat="42.37055176113997" lon="12.186985483284865"><ele>809.0</ele><time>2026-04-28T15:40:13Z</time></trkpt><trkpt lat="42.370473070188034" lon="12.187007633097782"><ele>809.0</ele><time>2026-04-28T15:40:14Z</time></trkpt><trkpt lat="42.37040218928651" lon="12.187067263137713"><ele>809.0000000000001</ele><time>2026-04-28T15:40:15Z</time></trkpt><trkpt lat="42.37034136961443" lon="12.187156722184936"><ele>809.0</ele><time>2026-04-28T15:40:16Z</time></trkpt><trkpt lat="42.370295748073694" lon="12.187273340471622"><ele>813.4000000000001</ele><time>2026-04-28T15:40:17Z</time></trkpt><trkpt lat="42.37026923514736" lon="12.187408108679753"><ele>817.8</ele><time>2026-04-28T15:40:18Z</time></trkpt><trkpt lat="42.370252606747975" lon="12.187555501907976"><ele>822.2</ele><time>2026-04-28T15:40:19Z</time></trkpt><trkpt lat="42.37023424458765" lon="12.187703258306664"><ele>826.5999999999999</ele><time>2026-04-28T15:40:20Z</time></trkpt><trkpt lat="42.370224960803284" lon="12.187861391076598"><ele>831.0</ele><time>2026-04-28T15:40:21Z</time></trkpt><trkpt lat="42.370235074847066" lon="12.188050635481497"><ele>830.5</ele><time>2026-04-28T15:40:22Z</time></trkpt><trkpt lat="42.37026385698454" lon="12.188258814641953"><ele>830.0</ele><time>2026-04-28T15:40:23Z</time></trkpt><trkpt lat="42.370299175115406" lon="12.188436307965404"><ele>829.5</ele><time>2026-04-28T15:40:24Z</time></trkpt><trkpt lat="42.370331797550975" lon="12.188571681088094"><ele>829.0</ele><time>2026-04-28T15:40:25Z</time></trkpt><trkpt lat="42.370345834875934" lon="12.188674242501687"><ele>829.0</ele><time>2026-04-28T15:40:26Z</time></trkpt><trkpt lat="42.370336024302716" lon="12.188824740311619"><ele>829.0</ele><time>2026-04-28T15:40:28Z</time></trkpt><trkpt lat="42.370264569768054" lon="12.188927896368453"><ele>829.0</ele><time>2026-04-28T15:40:30Z</time></trkpt><trkpt lat="42.37015785789511" lon="12.188951436804963"><ele>829.0</ele><time>2026-04-28T15:40:32Z</time></trkpt><trkpt lat="42.370096753959636" lon="12.188921370830322"><ele>829.0</ele><time>2026-04-28T15:40:33Z</time></trkpt><trkpt lat="42.37003237875087" lon="12.188875137607306"><ele>828.9999999999999</ele><time>2026-04-28T15:40:34Z</time></trkpt><trkpt lat="42.36996732953968" lon="12.18882017327453"><ele>829.0</ele><time>2026-04-28T15:40:35Z</time></trkpt><trkpt lat="42.369905856246156" lon="12.188759741311973"><ele>829.0</ele><time>2026-04-28T15:40:36Z</time></trkpt><trkpt lat="42.369842991009044" lon="12.188681529884668"><ele>829.0</ele><time>2026-04-28T15:40:37Z</time></trkpt><trkpt lat="42.369790169027375" lon="12.188577674819642"><ele>828.9999999999999</ele><time>2026-04-28T15:40:38Z</time></trkpt><trkpt lat="42.369738257161686" lon="12.188464876318806"><ele>829.0</ele><time>2026-04-28T15:40:39Z</time></trkpt><trkpt lat="42.36968495186835" lon="12.188342965910676"><ele>829.8000000000001</ele><time>2026-04-28T15:40:40Z</time></trkpt><trkpt lat="42.36963239294162" lon="12.188222583806409"><ele>830.6</ele><time>2026-04-28T15:40:41Z</time></trkpt><trkpt lat="42.369585666850526" lon="12.188106426295311"><ele>831.4</ele><time>2026-04-28T15:40:42Z</time></trkpt><trkpt lat="42.369529920933154" lon="12.187973663820287"><ele>832.2</ele><time>2026-04-28T15:40:43Z</time></trkpt><trkpt lat="42.36946801724957" lon="12.187825186680195"><ele>833.0</ele><time>2026-04-28T15:40:44Z</time></trkpt><trkpt lat="42.36940085993355" lon="12.187670849438272"><ele>833.0</ele><time>2026-04-28T15:40:45Z</time></trkpt><trkpt lat="42.369338390474276" lon="12.18752221365398"><ele>833.0</ele><time>2026-04-28T15:40:46Z</time></trkpt><trkpt lat="42.36928051950633" lon="12.187386214289926"><ele>833.0</ele><time>2026-04-28T15:40:47Z</time></trkpt><trkpt lat="42.36921444013778" lon="12.18723894525735"><ele>833.0</ele><time>2026-04-28T15:40:48Z</time></trkpt><trkpt lat="42.3691418681562" lon="12.18709959978503"><ele>832.75</ele><time>2026-04-28T15:40:49Z</time></trkpt><trkpt lat="42.36905507747558" lon="12.186986012000553"><ele>832.5</ele><time>2026-04-28T15:40:50Z</time></trkpt><trkpt lat="42.36895434661145" lon="12.186886265952902"><ele>832.25</ele><time>2026-04-28T15:40:51Z</time></trkpt><trkpt lat="42.368833405752696" lon="12.186791146490473"><ele>832.0</ele><time>2026-04-28T15:40:52Z</time></trkpt><trkpt lat="42.36869796460384" lon="12.186702374528604"><ele>832.5</ele><time>2026-04-28T15:40:53Z</time></trkpt><trkpt lat="42.36856169641776" lon="12.186612619523775"><ele>833.0</ele><time>2026-04-28T15:40:54Z</time></trkpt><trkpt lat="42.368435563024754" lon="12.186529623585466"><ele>833.5</ele><time>2026-04-28T15:40:55Z</time></trkpt><trkpt lat="42.36831696924404" lon="12.186452540190832"><ele>834.0</ele><time>2026-04-28T15:40:56Z</time></trkpt><trkpt lat="42.368198976065976" lon="12.1863814942339"><ele>834.0</ele><time>2026-04-28T15:40:57Z</time></trkpt><trkpt lat="42.368074954166175" lon="12.186314166240821"><ele>834.0</ele><time>2026-04-28T15:40:58Z</time></trkpt><trkpt lat="42.36794662659024" lon="12.186259438877995"><ele>834.0</ele><time>2026-04-28T15:40:59Z</time></trkpt><trkpt lat="42.36781758385335" lon="12.18623263346747"><ele>834.0</ele><time>2026-04-28T15:41:00Z</time></trkpt><trkpt lat="42.367689223161044" lon="12.186235325635222"><ele>836.6</ele><time>2026-04-28T15:41:01Z</time></trkpt><trkpt lat="42.367571983311244" lon="12.186260897488872"><ele>839.2</ele><time>2026-04-28T15:41:02Z</time></trkpt><trkpt lat="42.36745212063162" lon="12.186285479901786"><ele>841.8000000000001</ele><time>2026-04-28T15:41:03Z</time></trkpt><trkpt lat="42.367342595627456" lon="12.186300846587994"><ele>844.4000000000001</ele><time>2026-04-28T15:41:04Z</time></trkpt><trkpt lat="42.36725074754676" lon="12.18631931272734"><ele>847.0</ele><time>2026-04-28T15:41:05Z</time></trkpt><trkpt lat="42.36715633580687" lon="12.186337905541286"><ele>848.2</ele><time>2026-04-28T15:41:06Z</time></trkpt><trkpt lat="42.367059540756856" lon="12.186337560962908"><ele>849.4000000000001</ele><time>2026-04-28T15:41:07Z</time></trkpt><trkpt lat="42.36695811708862" lon="12.186308076747547"><ele>850.5999999999999</ele><time>2026-04-28T15:41:08Z</time></trkpt><trkpt lat="42.36686106596775" lon="12.186250884746325"><ele>851.8</ele><time>2026-04-28T15:41:09Z</time></trkpt><trkpt lat="42.366770446157346" lon="12.186172827632431"><ele>853.0</ele><time>2026-04-28T15:41:10Z</time></trkpt><trkpt lat="42.366688682844654" lon="12.186075455077619"><ele>853.0</ele><time>2026-04-28T15:41:11Z</time></trkpt><trkpt lat="42.366618384883964" lon="12.185958341929624"><ele>853.0</ele><time>2026-04-28T15:41:12Z</time></trkpt><trkpt lat="42.366552607512915" lon="12.185823145461955"><ele>853.0</ele><time>2026-04-28T15:41:13Z</time></trkpt><trkpt lat="42.36649156256784" lon="12.185681046359962"><ele>853.0</ele><time>2026-04-28T15:41:14Z</time></trkpt><trkpt lat="42.36643118133619" lon="12.18553941479246"><ele>854.0</ele><time>2026-04-28T15:41:15Z</time></trkpt><trkpt lat="42.366371164238025" lon="12.185399273956458"><ele>855.0</ele><time>2026-04-28T15:41:16Z</time></trkpt><trkpt lat="42.36631457868526" lon="12.185272661430922"><ele>856.0</ele><time>2026-04-28T15:41:17Z</time></trkpt><trkpt lat="42.366256591410284" lon="12.185156211814691"><ele>857.0</ele><time>2026-04-28T15:41:18Z</time></trkpt><trkpt lat="42.3661974949723" lon="12.185034921247599"><ele>858.0</ele><time>2026-04-28T15:41:19Z</time></trkpt><trkpt lat="42.366122959933946" lon="12.18492184196907"><ele>858.25</ele><time>2026-04-28T15:41:20Z</time></trkpt><trkpt lat="42.36602746116467" lon="12.184821036732743"><ele>858.5</ele><time>2026-04-28T15:41:21Z</time></trkpt><trkpt lat="42.365900475653916" lon="12.184735338087062"><ele>858.75</ele><time>2026-04-28T15:41:22Z</time></trkpt><trkpt lat="42.365750834560274" lon="12.184670979424075"><ele>859.0</ele><time>2026-04-28T15:41:23Z</time></trkpt><trkpt lat="42.36560691033051" lon="12.18461020979205"><ele>859.0</ele><time>2026-04-28T15:41:24Z</time></trkpt><trkpt lat="42.3654798447683" lon="12.184545037038038"><ele>859.0</ele><time>2026-04-28T15:41:25Z</time></trkpt><trkpt lat="42.36536264230035" lon="12.184485156765586"><ele>859.0</ele><time>2026-04-28T15:41:26Z</time></trkpt><trkpt lat="42.36524497678626" lon="12.184422722837294"><ele>859.0</ele><time>2026-04-28T15:41:27Z</time></trkpt><trkpt lat="42.36513140458619" lon="12.184364499304"><ele>859.0</ele><time>2026-04-28T15:41:28Z</time></trkpt><trkpt lat="42.36500552639246" lon="12.184309113904906"><ele>859.0</ele><time>2026-04-28T15:41:29Z</time></trkpt><trkpt lat="42.364877712379645" lon="12.184251616492565"><ele>859.0</ele><time>2026-04-28T15:41:30Z</time></trkpt><trkpt lat="42.36475389097367" lon="12.184189899732573"><ele>859.0</ele><time>2026-04-28T15:41:31Z</time></trkpt><trkpt lat="42.36464200029384" lon="12.18413660537421"><ele>860.0</ele><time>2026-04-28T15:41:32Z</time></trkpt><trkpt lat="42.3645201831703" lon="12.184107284558186"><ele>861.0</ele><time>2026-04-28T15:41:33Z</time></trkpt><trkpt lat="42.36440100800773" lon="12.184112755249936"><ele>862.0</ele><time>2026-04-28T15:41:34Z</time></trkpt><trkpt lat="42.36429105416691" lon="12.184167102102151"><ele>863.0</ele><time>2026-04-28T15:41:35Z</time></trkpt><trkpt lat="42.36419653073668" lon="12.184257076431873"><ele>863.0</ele><time>2026-04-28T15:41:36Z</time></trkpt><trkpt lat="42.364111912163644" lon="12.18436208450979"><ele>863.0</ele><time>2026-04-28T15:41:37Z</time></trkpt><trkpt lat="42.364037459372256" lon="12.18447595749903"><ele>863.0</ele><time>2026-04-28T15:41:38Z</time></trkpt><trkpt lat="42.36397634383948" lon="12.184606884059844"><ele>863.0</ele><time>2026-04-28T15:41:39Z</time></trkpt><trkpt lat="42.363927567034885" lon="12.184706002724246"><ele>863.0</ele><time>2026-04-28T15:41:40Z</time></trkpt><trkpt lat="42.36386744544501" lon="12.184766835520659"><ele>862.1666666666667</ele><time>2026-04-28T15:41:41Z</time></trkpt><trkpt lat="42.363797678691405" lon="12.184767115292345"><ele>861.3333333333334</ele><time>2026-04-28T15:41:42Z</time></trkpt><trkpt lat="42.36373347418757" lon="12.18472587179947"><ele>860.5</ele><time>2026-04-28T15:41:43Z</time></trkpt><trkpt lat="42.36368914505544" lon="12.184635809036369"><ele>859.6666666666667</ele><time>2026-04-28T15:41:44Z</time></trkpt><trkpt lat="42.36368212634502" lon="12.184510322593685"><ele>858.8333333333334</ele><time>2026-04-28T15:41:45Z</time></trkpt><trkpt lat="42.36369121748233" lon="12.184359190638851"><ele>858.0</ele><time>2026-04-28T15:41:46Z</time></trkpt><trkpt lat="42.36370580418695" lon="12.184168774704563"><ele>859.0</ele><time>2026-04-28T15:41:47Z</time></trkpt><trkpt lat="42.36371492127646" lon="12.183952974381105"><ele>860.0</ele><time>2026-04-28T15:41:48Z</time></trkpt><trkpt lat="42.36372016916636" lon="12.183728005869094"><ele>861.0</ele><time>2026-04-28T15:41:49Z</time></trkpt><trkpt lat="42.36371909431704" lon="12.183492772866437"><ele>861.0</ele><time>2026-04-28T15:41:50Z</time></trkpt><trkpt lat="42.36372260863626" lon="12.18323471592304"><ele>861.0</ele><time>2026-04-28T15:41:51Z</time></trkpt><trkpt lat="42.3637294908132" lon="12.182958125421624"><ele>861.0</ele><time>2026-04-28T15:41:52Z</time></trkpt><trkpt lat="42.3637316995362" lon="12.182692588572023"><ele>861.0</ele><time>2026-04-28T15:41:53Z</time></trkpt><trkpt lat="42.363733891283125" lon="12.182443723242102"><ele>861.0</ele><time>2026-04-28T15:41:54Z</time></trkpt><trkpt lat="42.3637399773379" lon="12.182201895569417"><ele>861.0</ele><time>2026-04-28T15:41:55Z</time></trkpt><trkpt lat="42.363735776141866" lon="12.18196168692089"><ele>861.6666666666667</ele><time>2026-04-28T15:41:56Z</time></trkpt><trkpt lat="42.36371284244841" lon="12.181721522998705"><ele>862.3333333333334</ele><time>2026-04-28T15:41:57Z</time></trkpt><trkpt lat="42.36367092128772" lon="12.1814699194151"><ele>863.0</ele><time>2026-04-28T15:41:58Z</time></trkpt><trkpt lat="42.363608271524605" lon="12.181206865780315"><ele>866.0</ele><time>2026-04-28T15:41:59Z</time></trkpt><trkpt lat="42.36353403125461" lon="12.180934282826334"><ele>869.0</ele><time>2026-04-28T15:42:00Z</time></trkpt><trkpt lat="42.363459424792445" lon="12.18066635565297"><ele>872.0</ele><time>2026-04-28T15:42:01Z</time></trkpt><trkpt lat="42.36338382123771" lon="12.180393380835834"><ele>873.6666666666667</ele><time>2026-04-28T15:42:02Z</time></trkpt><trkpt lat="42.3633122550118" lon="12.180123715808557"><ele>875.3333333333333</ele><time>2026-04-28T15:42:03Z</time></trkpt><trkpt lat="42.36323924069905" lon="12.17983873322581"><ele>877.0</ele><time>2026-04-28T15:42:04Z</time></trkpt><trkpt lat="42.36316825188653" lon="12.179550220975624"><ele>877.5</ele><time>2026-04-28T15:42:05Z</time></trkpt><trkpt lat="42.36308602132016" lon="12.179249769162892"><ele>878.0</ele><time>2026-04-28T15:42:06Z</time></trkpt><trkpt lat="42.363000480233076" lon="12.17895495684172"><ele>876.5</ele><time>2026-04-28T15:42:07Z</time></trkpt><trkpt lat="42.36289782587876" lon="12.178658139470809"><ele>875.0</ele><time>2026-04-28T15:42:08Z</time></trkpt><trkpt lat="42.36278348358428" lon="12.178363966835242"><ele>880.0</ele><time>2026-04-28T15:42:09Z</time></trkpt><trkpt lat="42.362656984381445" lon="12.178067593665855"><ele>885.0</ele><time>2026-04-28T15:42:10Z</time></trkpt><trkpt lat="42.36252972415865" lon="12.177772242902588"><ele>885.0</ele><time>2026-04-28T15:42:11Z</time></trkpt><trkpt lat="42.36241223497309" lon="12.177489361475915"><ele>885.0</ele><time>2026-04-28T15:42:12Z</time></trkpt><trkpt lat="42.3622990206743" lon="12.177219828150987"><ele>884.0</ele><time>2026-04-28T15:42:13Z</time></trkpt><trkpt lat="42.36219383085496" lon="12.176959228388169"><ele>883.0</ele><time>2026-04-28T15:42:14Z</time></trkpt><trkpt lat="42.36209301654136" lon="12.17671133981137"><ele>882.0</ele><time>2026-04-28T15:42:15Z</time></trkpt><trkpt lat="42.361991855778165" lon="12.176469803436838"><ele>884.3333333333333</ele><time>2026-04-28T15:42:16Z</time></trkpt><trkpt lat="42.361889243021245" lon="12.176227250720851"><ele>886.6666666666666</ele><time>2026-04-28T15:42:17Z</time></trkpt><trkpt lat="42.36178747344763" lon="12.175983402891754"><ele>889.0</ele><time>2026-04-28T15:42:18Z</time></trkpt><trkpt lat="42.36168420681841" lon="12.175741422518428"><ele>889.0</ele><time>2026-04-28T15:42:19Z</time></trkpt><trkpt lat="42.36158174674862" lon="12.175498253663184"><ele>889.0</ele><time>2026-04-28T15:42:20Z</time></trkpt><trkpt lat="42.361477734995034" lon="12.175248201674798"><ele>889.0</ele><time>2026-04-28T15:42:21Z</time></trkpt><trkpt lat="42.36137165417079" lon="12.174998953205053"><ele>891.6666666666666</ele><time>2026-04-28T15:42:22Z</time></trkpt><trkpt lat="42.3612696751229" lon="12.174756320027045"><ele>894.3333333333333</ele><time>2026-04-28T15:42:23Z</time></trkpt><trkpt lat="42.36118068011323" lon="12.174538497637"><ele>897.0</ele><time>2026-04-28T15:42:24Z</time></trkpt><trkpt lat="42.36109864170465" lon="12.17433847051496"><ele>897.0</ele><time>2026-04-28T15:42:25Z</time></trkpt><trkpt lat="42.36102060703971" lon="12.174152673263162"><ele>897.0</ele><time>2026-04-28T15:42:26Z</time></trkpt><trkpt lat="42.360955502236145" lon="12.173958419384194"><ele>897.0</ele><time>2026-04-28T15:42:27Z</time></trkpt><trkpt lat="42.36091910978086" lon="12.1737593337829"><ele>896.0</ele><time>2026-04-28T15:42:28Z</time></trkpt><trkpt lat="42.3609111211869" lon="12.173557749405107"><ele>895.0</ele><time>2026-04-28T15:42:29Z</time></trkpt><trkpt lat="42.36092831472627" lon="12.173356727709168"><ele>894.0</ele><time>2026-04-28T15:42:30Z</time></trkpt><trkpt lat="42.3609675182144" lon="12.173138985540508"><ele>892.6666666666667</ele><time>2026-04-28T15:42:31Z</time></trkpt><trkpt lat="42.361036163847885" lon="12.17291271659729"><ele>891.3333333333334</ele><time>2026-04-28T15:42:32Z</time></trkpt><trkpt lat="42.36111139545639" lon="12.172657918780255"><ele>890.0</ele><time>2026-04-28T15:42:33Z</time></trkpt><trkpt lat="42.36118990473802" lon="12.172383982967565"><ele>887.6666666666667</ele><time>2026-04-28T15:42:34Z</time></trkpt><trkpt lat="42.361265916808506" lon="12.172104281064744"><ele>885.3333333333333</ele><time>2026-04-28T15:42:35Z</time></trkpt><trkpt lat="42.36133829790327" lon="12.171812843593626"><ele>883.0</ele><time>2026-04-28T15:42:36Z</time></trkpt><trkpt lat="42.3614034016637" lon="12.171505332689652"><ele>883.0</ele><time>2026-04-28T15:42:37Z</time></trkpt><trkpt lat="42.361456614129615" lon="12.171188869879197"><ele>883.0</ele><time>2026-04-28T15:42:38Z</time></trkpt><trkpt lat="42.361500565167354" lon="12.170874298611675"><ele>881.0</ele><time>2026-04-28T15:42:39Z</time></trkpt><trkpt lat="42.36153664649019" lon="12.170541372344575"><ele>879.0</ele><time>2026-04-28T15:42:40Z</time></trkpt><trkpt lat="42.361567031279826" lon="12.170189536162823"><ele>879.0</ele><time>2026-04-28T15:42:41Z</time></trkpt><trkpt lat="42.361604276502305" lon="12.169861154603598"><ele>879.0</ele><time>2026-04-28T15:42:42Z</time></trkpt><trkpt lat="42.361638374832395" lon="12.169530995557238"><ele>878.5</ele><time>2026-04-28T15:42:43Z</time></trkpt><trkpt lat="42.36167208123077" lon="12.169197370775484"><ele>878.0</ele><time>2026-04-28T15:42:44Z</time></trkpt><trkpt lat="42.36171127425482" lon="12.168868193807796"><ele>876.5</ele><time>2026-04-28T15:42:45Z</time></trkpt><trkpt lat="42.3617510934829" lon="12.168532208063738"><ele>875.0</ele><time>2026-04-28T15:42:46Z</time></trkpt><trkpt lat="42.36179055001115" lon="12.168192939678761"><ele>873.5</ele><time>2026-04-28T15:42:47Z</time></trkpt><trkpt lat="42.36183087896624" lon="12.16784327988937"><ele>872.0</ele><time>2026-04-28T15:42:48Z</time></trkpt><trkpt lat="42.36187092989241" lon="12.167495976211741"><ele>870.0</ele><time>2026-04-28T15:42:49Z</time></trkpt><trkpt lat="42.36191058249383" lon="12.167142127588576"><ele>868.0</ele><time>2026-04-28T15:42:50Z</time></trkpt><trkpt lat="42.361946323248716" lon="12.166792416840373"><ele>868.5</ele><time>2026-04-28T15:42:51Z</time></trkpt><trkpt lat="42.36198098839436" lon="12.166461058063867"><ele>869.0</ele><time>2026-04-28T15:42:52Z</time></trkpt><trkpt lat="42.36201368915279" lon="12.166149574646868"><ele>869.0</ele><time>2026-04-28T15:42:53Z</time></trkpt><trkpt lat="42.36204418255557" lon="12.165854442943207"><ele>869.0</ele><time>2026-04-28T15:42:54Z</time></trkpt><trkpt lat="42.3620717543026" lon="12.16555611287807"><ele>869.0</ele><time>2026-04-28T15:42:55Z</time></trkpt><trkpt lat="42.362100519765534" lon="12.165241879730583"><ele>868.0</ele><time>2026-04-28T15:42:56Z</time></trkpt><trkpt lat="42.36212253783974" lon="12.164909360142257"><ele>867.0</ele><time>2026-04-28T15:42:57Z</time></trkpt><trkpt lat="42.36214380067549" lon="12.164557717581452"><ele>862.5</ele><time>2026-04-28T15:42:58Z</time></trkpt><trkpt lat="42.3621675883907" lon="12.164192865518057"><ele>858.0</ele><time>2026-04-28T15:42:59Z</time></trkpt><trkpt lat="42.36218853450593" lon="12.16381386878923"><ele>857.5</ele><time>2026-04-28T15:43:00Z</time></trkpt><trkpt lat="42.36220429587371" lon="12.163419051247832"><ele>857.0</ele><time>2026-04-28T15:43:01Z</time></trkpt><trkpt lat="42.36222095946097" lon="12.163016707342747"><ele>855.0</ele><time>2026-04-28T15:43:02Z</time></trkpt><trkpt lat="42.36223333086442" lon="12.162630063171513"><ele>853.0</ele><time>2026-04-28T15:43:03Z</time></trkpt><trkpt lat="42.362244708742324" lon="12.16227218841177"><ele>852.0</ele><time>2026-04-28T15:43:04Z</time></trkpt><trkpt lat="42.36225597623657" lon="12.161934739331727"><ele>851.0</ele><time>2026-04-28T15:43:05Z</time></trkpt><trkpt lat="42.36226908873161" lon="12.16160628110546"><ele>851.5</ele><time>2026-04-28T15:43:06Z</time></trkpt><trkpt lat="42.36228332224837" lon="12.161277669437139"><ele>852.0</ele><time>2026-04-28T15:43:07Z</time></trkpt><trkpt lat="42.36229483555967" lon="12.160950433863345"><ele>854.0</ele><time>2026-04-28T15:43:08Z</time></trkpt><trkpt lat="42.362304442571585" lon="12.160626987044164"><ele>856.0</ele><time>2026-04-28T15:43:09Z</time></trkpt><trkpt lat="42.36231727595665" lon="12.160309858896388"><ele>856.0</ele><time>2026-04-28T15:43:10Z</time></trkpt><trkpt lat="42.362328872576036" lon="12.16000146654603"><ele>856.0</ele><time>2026-04-28T15:43:11Z</time></trkpt><trkpt lat="42.36234001867383" lon="12.159697724860305"><ele>854.5</ele><time>2026-04-28T15:43:12Z</time></trkpt><trkpt lat="42.36235330411776" lon="12.159393742307667"><ele>853.0</ele><time>2026-04-28T15:43:13Z</time></trkpt><trkpt lat="42.362367414840776" lon="12.159082268309149"><ele>852.3333333333333</ele><time>2026-04-28T15:43:14Z</time></trkpt><trkpt lat="42.362374737846146" lon="12.158781063081628"><ele>851.6666666666667</ele><time>2026-04-28T15:43:15Z</time></trkpt><trkpt lat="42.36236905707244" lon="12.15849824221638"><ele>851.0</ele><time>2026-04-28T15:43:16Z</time></trkpt><trkpt lat="42.36234890051935" lon="12.158215749645509"><ele>851.0</ele><time>2026-04-28T15:43:17Z</time></trkpt><trkpt lat="42.3623141858268" lon="12.157929704959248"><ele>851.0</ele><time>2026-04-28T15:43:18Z</time></trkpt><trkpt lat="42.362266307916336" lon="12.157641160988442"><ele>851.0</ele><time>2026-04-28T15:43:19Z</time></trkpt><trkpt lat="42.362198022085906" lon="12.157361211323733"><ele>850.6666666666667</ele><time>2026-04-28T15:43:20Z</time></trkpt><trkpt lat="42.362115319428156" lon="12.157089586713562"><ele>850.3333333333333</ele><time>2026-04-28T15:43:21Z</time></trkpt><trkpt lat="42.362019356196065" lon="12.15682030585664"><ele>850.0</ele><time>2026-04-28T15:43:22Z</time></trkpt><trkpt lat="42.36192755875385" lon="12.15654997055285"><ele>850.0</ele><time>2026-04-28T15:43:23Z</time></trkpt><trkpt lat="42.36184273643902" lon="12.156275703385072"><ele>850.0</ele><time>2026-04-28T15:43:24Z</time></trkpt><trkpt lat="42.36177456692163" lon="12.156007601106285"><ele>850.0</ele><time>2026-04-28T15:43:25Z</time></trkpt><trkpt lat="42.36172033704854" lon="12.155755615201505"><ele>850.0</ele><time>2026-04-28T15:43:26Z</time></trkpt><trkpt lat="42.361681300272416" lon="12.155487599515409"><ele>850.0</ele><time>2026-04-28T15:43:27Z</time></trkpt><trkpt lat="42.36165398183161" lon="12.155194802927438"><ele>850.0</ele><time>2026-04-28T15:43:28Z</time></trkpt><trkpt lat="42.36163800980669" lon="12.154888688683654"><ele>851.5</ele><time>2026-04-28T15:43:29Z</time></trkpt><trkpt lat="42.36162412025777" lon="12.154579908338393"><ele>853.0</ele><time>2026-04-28T15:43:30Z</time></trkpt><trkpt lat="42.361595077925536" lon="12.154276371124842"><ele>853.3333333333333</ele><time>2026-04-28T15:43:31Z</time></trkpt><trkpt lat="42.36154748913649" lon="12.15399253189123"><ele>853.6666666666667</ele><time>2026-04-28T15:43:32Z</time></trkpt><trkpt lat="42.36148457449599" lon="12.153713712300863"><ele>854.0</ele><time>2026-04-28T15:43:33Z</time></trkpt><trkpt lat="42.36141018711296" lon="12.1534387750541"><ele>852.6666666666667</ele><time>2026-04-28T15:43:34Z</time></trkpt><trkpt lat="42.36131718098622" lon="12.15317666349876"><ele>851.3333333333333</ele><time>2026-04-28T15:43:35Z</time></trkpt><trkpt lat="42.36120524581106" lon="12.152919873309152"><ele>850.0</ele><time>2026-04-28T15:43:36Z</time></trkpt><trkpt lat="42.36107428752346" lon="12.152655317371702"><ele>850.0</ele><time>2026-04-28T15:43:37Z</time></trkpt><trkpt lat="42.360935586338414" lon="12.152382848087967"><ele>850.0</ele><time>2026-04-28T15:43:38Z</time></trkpt><trkpt lat="42.36079447469017" lon="12.152105301282228"><ele>850.0</ele><time>2026-04-28T15:43:39Z</time></trkpt><trkpt lat="42.36065827018075" lon="12.151840607342484"><ele>850.0</ele><time>2026-04-28T15:43:40Z</time></trkpt><trkpt lat="42.36053406151639" lon="12.151594161312767"><ele>846.0</ele><time>2026-04-28T15:43:41Z</time></trkpt><trkpt lat="42.36041882211793" lon="12.151358487274663"><ele>842.0</ele><time>2026-04-28T15:43:42Z</time></trkpt><trkpt lat="42.360318107685835" lon="12.151132632180044"><ele>838.0</ele><time>2026-04-28T15:43:43Z</time></trkpt><trkpt lat="42.36024020269603" lon="12.150901405517008"><ele>836.3333333333333</ele><time>2026-04-28T15:43:44Z</time></trkpt><trkpt lat="42.36019616171931" lon="12.150633373937392"><ele>834.6666666666667</ele><time>2026-04-28T15:43:45Z</time></trkpt><trkpt lat="42.36014859636802" lon="12.150350618595933"><ele>833.0</ele><time>2026-04-28T15:43:46Z</time></trkpt><trkpt lat="42.36009075287785" lon="12.150057559299896"><ele>832.5</ele><time>2026-04-28T15:43:47Z</time></trkpt><trkpt lat="42.36004553569797" lon="12.149748690663882"><ele>832.0</ele><time>2026-04-28T15:43:48Z</time></trkpt><trkpt lat="42.35999559709913" lon="12.149425668146394"><ele>832.0</ele><time>2026-04-28T15:43:49Z</time></trkpt><trkpt lat="42.359943839598174" lon="12.14909759872205"><ele>832.0</ele><time>2026-04-28T15:43:50Z</time></trkpt><trkpt lat="42.35989590877521" lon="12.14879020769992"><ele>832.6666666666666</ele><time>2026-04-28T15:43:51Z</time></trkpt><trkpt lat="42.359849761411155" lon="12.148495232900993"><ele>833.3333333333333</ele><time>2026-04-28T15:43:52Z</time></trkpt><trkpt lat="42.35980299717593" lon="12.148200859407996"><ele>834.0</ele><time>2026-04-28T15:43:53Z</time></trkpt><trkpt lat="42.35976883459468" lon="12.14789137594022"><ele>834.0</ele><time>2026-04-28T15:43:54Z</time></trkpt><trkpt lat="42.35974847272466" lon="12.147578414551969"><ele>834.0</ele><time>2026-04-28T15:43:55Z</time></trkpt><trkpt lat="42.359740254415705" lon="12.147265328538712"><ele>833.0</ele><time>2026-04-28T15:43:56Z</time></trkpt><trkpt lat="42.35972374724585" lon="12.146948728860004"><ele>832.0</ele><time>2026-04-28T15:43:57Z</time></trkpt><trkpt lat="42.35969189442501" lon="12.146633754346526"><ele>823.0</ele><time>2026-04-28T15:43:58Z</time></trkpt><trkpt lat="42.35964753333329" lon="12.146333272884577"><ele>814.0</ele><time>2026-04-28T15:43:59Z</time></trkpt><trkpt lat="42.35959503505775" lon="12.146033084663495"><ele>814.0</ele><time>2026-04-28T15:44:00Z</time></trkpt><trkpt lat="42.35953421909753" lon="12.145732775965739"><ele>814.0</ele><time>2026-04-28T15:44:01Z</time></trkpt><trkpt lat="42.35947097655178" lon="12.145432733049761"><ele>816.0</ele><time>2026-04-28T15:44:02Z</time></trkpt><trkpt lat="42.35941466852444" lon="12.145136378443441"><ele>818.0</ele><time>2026-04-28T15:44:03Z</time></trkpt><trkpt lat="42.359353224258484" lon="12.144836314151494"><ele>818.5</ele><time>2026-04-28T15:44:04Z</time></trkpt><trkpt lat="42.359292275186874" lon="12.144531382035106"><ele>819.0</ele><time>2026-04-28T15:44:05Z</time></trkpt><trkpt lat="42.35923470093077" lon="12.144229193503595"><ele>817.3333333333333</ele><time>2026-04-28T15:44:06Z</time></trkpt><trkpt lat="42.35917885600014" lon="12.143948589997159"><ele>815.6666666666666</ele><time>2026-04-28T15:44:07Z</time></trkpt><trkpt lat="42.35912293487917" lon="12.143678984739372"><ele>814.0</ele><time>2026-04-28T15:44:08Z</time></trkpt><trkpt lat="42.35906703133424" lon="12.143400789348792"><ele>809.5</ele><time>2026-04-28T15:44:09Z</time></trkpt><trkpt lat="42.35899279570795" lon="12.14311014398693"><ele>805.0</ele><time>2026-04-28T15:44:10Z</time></trkpt><trkpt lat="42.358905894639435" lon="12.142816892483188"><ele>798.5</ele><time>2026-04-28T15:44:11Z</time></trkpt><trkpt lat="42.358812727461725" lon="12.142521600754367"><ele>792.0</ele><time>2026-04-28T15:44:12Z</time></trkpt><trkpt lat="42.358717667158594" lon="12.142225047808072"><ele>792.0</ele><time>2026-04-28T15:44:13Z</time></trkpt><trkpt lat="42.35861625413152" lon="12.141924831282486"><ele>792.0</ele><time>2026-04-28T15:44:14Z</time></trkpt><trkpt lat="42.35851406489949" lon="12.141619503027316"><ele>792.0</ele><time>2026-04-28T15:44:15Z</time></trkpt><trkpt lat="42.35841170626004" lon="12.141306025978256"><ele>792.0</ele><time>2026-04-28T15:44:16Z</time></trkpt><trkpt lat="42.35830802042629" lon="12.140997326582731"><ele>790.5</ele><time>2026-04-28T15:44:17Z</time></trkpt><trkpt lat="42.35820274150832" lon="12.140693382684514"><ele>789.0</ele><time>2026-04-28T15:44:18Z</time></trkpt><trkpt lat="42.358090076576886" lon="12.140392368723454"><ele>786.0</ele><time>2026-04-28T15:44:19Z</time></trkpt><trkpt lat="42.35797321810009" lon="12.140096557125593"><ele>783.0</ele><time>2026-04-28T15:44:20Z</time></trkpt><trkpt lat="42.35785470706551" lon="12.139809118364825"><ele>783.0</ele><time>2026-04-28T15:44:21Z</time></trkpt><trkpt lat="42.35772936463385" lon="12.139530044677455"><ele>783.0</ele><time>2026-04-28T15:44:22Z</time></trkpt><trkpt lat="42.3576086740214" lon="12.139266661862333"><ele>780.3333333333333</ele><time>2026-04-28T15:44:23Z</time></trkpt><trkpt lat="42.35748699262964" lon="12.13902405141489"><ele>777.6666666666666</ele><time>2026-04-28T15:44:24Z</time></trkpt><trkpt lat="42.35736779477175" lon="12.138797570082916"><ele>775.0</ele><time>2026-04-28T15:44:25Z</time></trkpt><trkpt lat="42.35724667862383" lon="12.138578170026657"><ele>772.6666666666666</ele><time>2026-04-28T15:44:26Z</time></trkpt><trkpt lat="42.35711247584219" lon="12.138354223121476"><ele>770.3333333333333</ele><time>2026-04-28T15:44:27Z</time></trkpt><trkpt lat="42.35695582569134" lon="12.13812659533496"><ele>768.0</ele><time>2026-04-28T15:44:28Z</time></trkpt><trkpt lat="42.35678523332717" lon="12.137890620069069"><ele>765.5</ele><time>2026-04-28T15:44:29Z</time></trkpt><trkpt lat="42.35659486057207" lon="12.137636881836237"><ele>763.0</ele><time>2026-04-28T15:44:30Z</time></trkpt><trkpt lat="42.356392927832594" lon="12.13737304795688"><ele>760.0</ele><time>2026-04-28T15:44:31Z</time></trkpt><trkpt lat="42.356182165978254" lon="12.137099383346088"><ele>757.0</ele><time>2026-04-28T15:44:32Z</time></trkpt><trkpt lat="42.3559679063578" lon="12.13682349843365"><ele>758.0</ele><time>2026-04-28T15:44:33Z</time></trkpt><trkpt lat="42.35574935813079" lon="12.136536491463046"><ele>759.0</ele><time>2026-04-28T15:44:34Z</time></trkpt><trkpt lat="42.35552476477462" lon="12.136236196622319"><ele>760.0</ele><time>2026-04-28T15:44:35Z</time></trkpt><trkpt lat="42.35529647306957" lon="12.13593539365416"><ele>761.0</ele><time>2026-04-28T15:44:36Z</time></trkpt><trkpt lat="42.35506040877591" lon="12.135622803520173"><ele>761.0</ele><time>2026-04-28T15:44:37Z</time></trkpt><trkpt lat="42.35484272903197" lon="12.135320023483569"><ele>761.0</ele><time>2026-04-28T15:44:38Z</time></trkpt><trkpt lat="42.354637355517504" lon="12.135044653081684"><ele>754.5</ele><time>2026-04-28T15:44:39Z</time></trkpt><trkpt lat="42.35444675539479" lon="12.134790347319676"><ele>748.0</ele><time>2026-04-28T15:44:40Z</time></trkpt><trkpt lat="42.3542695266181" lon="12.13456402581549"><ele>748.0</ele><time>2026-04-28T15:44:41Z</time></trkpt><trkpt lat="42.35411380318508" lon="12.134350043452597"><ele>748.0</ele><time>2026-04-28T15:44:42Z</time></trkpt><trkpt lat="42.35398495659068" lon="12.134149724876623"><ele>748.0</ele><time>2026-04-28T15:44:43Z</time></trkpt><trkpt lat="42.35387896455242" lon="12.133933450929325"><ele>746.6666666666667</ele><time>2026-04-28T15:44:44Z</time></trkpt><trkpt lat="42.35378022148047" lon="12.133712374437275"><ele>745.3333333333334</ele><time>2026-04-28T15:44:45Z</time></trkpt><trkpt lat="42.35370750638261" lon="12.133524115067335"><ele>744.0</ele><time>2026-04-28T15:44:46Z</time></trkpt><trkpt lat="42.353657097970554" lon="12.133383024309637"><ele>744.0</ele><time>2026-04-28T15:44:47Z</time></trkpt><trkpt lat="42.35362685057338" lon="12.13326814249485"><ele>744.0</ele><time>2026-04-28T15:44:48Z</time></trkpt><trkpt lat="42.35363116460982" lon="12.133180236940882"><ele>744.0</ele><time>2026-04-28T15:44:49Z</time></trkpt><trkpt lat="42.35373906035444" lon="12.133071135070002"><ele>744.0</ele><time>2026-04-28T15:44:51Z</time></trkpt><trkpt lat="42.35383630799527" lon="12.1330531930257"><ele>744.0</ele><time>2026-04-28T15:44:52Z</time></trkpt><trkpt lat="42.35396149819689" lon="12.133044790945684"><ele>739.6666666666666</ele><time>2026-04-28T15:44:53Z</time></trkpt><trkpt lat="42.35412145733301" lon="12.133008380607084"><ele>735.3333333333333</ele><time>2026-04-28T15:44:54Z</time></trkpt><trkpt lat="42.35428886227952" lon="12.132938687939175"><ele>731.0</ele><time>2026-04-28T15:44:55Z</time></trkpt><trkpt lat="42.35448063756594" lon="12.132845670836618"><ele>731.0</ele><time>2026-04-28T15:44:56Z</time></trkpt><trkpt lat="42.35469086461753" lon="12.132736733164228"><ele>731.0</ele><time>2026-04-28T15:44:57Z</time></trkpt><trkpt lat="42.354917906354956" lon="12.132642973467686"><ele>731.5</ele><time>2026-04-28T15:44:58Z</time></trkpt><trkpt lat="42.355163862576475" lon="12.132561653827915"><ele>732.0</ele><time>2026-04-28T15:44:59Z</time></trkpt><trkpt lat="42.35541964391256" lon="12.13249567428585"><ele>732.5</ele><time>2026-04-28T15:45:00Z</time></trkpt><trkpt lat="42.355685927568864" lon="12.132431574148377"><ele>733.0</ele><time>2026-04-28T15:45:01Z</time></trkpt><trkpt lat="42.3559311629182" lon="12.13237469590201"><ele>726.0</ele><time>2026-04-28T15:45:02Z</time></trkpt><trkpt lat="42.35615956971005" lon="12.132312046141685"><ele>719.0</ele><time>2026-04-28T15:45:03Z</time></trkpt><trkpt lat="42.35638278023228" lon="12.132258953627323"><ele>718.6666666666666</ele><time>2026-04-28T15:45:04Z</time></trkpt><trkpt lat="42.35659380327813" lon="12.132205411628854"><ele>718.3333333333334</ele><time>2026-04-28T15:45:05Z</time></trkpt><trkpt lat="42.35679842154675" lon="12.13214729822523"><ele>718.0</ele><time>2026-04-28T15:45:06Z</time></trkpt><trkpt lat="42.35699772780854" lon="12.132092928842674"><ele>718.0</ele><time>2026-04-28T15:45:07Z</time></trkpt><trkpt lat="42.3571937519896" lon="12.132053313846297"><ele>718.0</ele><time>2026-04-28T15:45:08Z</time></trkpt><trkpt lat="42.35737226121831" lon="12.132007359084627"><ele>718.0</ele><time>2026-04-28T15:45:09Z</time></trkpt><trkpt lat="42.357527603629826" lon="12.13196019604564"><ele>716.25</ele><time>2026-04-28T15:45:10Z</time></trkpt><trkpt lat="42.35768074670798" lon="12.131923987051035"><ele>714.5</ele><time>2026-04-28T15:45:11Z</time></trkpt><trkpt lat="42.35782209071118" lon="12.131892422836176"><ele>712.75</ele><time>2026-04-28T15:45:12Z</time></trkpt><trkpt lat="42.35795699023122" lon="12.131869750026166"><ele>711.0</ele><time>2026-04-28T15:45:13Z</time></trkpt><trkpt lat="42.35808397802271" lon="12.131863156004298"><ele>709.0</ele><time>2026-04-28T15:45:14Z</time></trkpt><trkpt lat="42.358220226174836" lon="12.13188705671471"><ele>707.0</ele><time>2026-04-28T15:45:15Z</time></trkpt><trkpt lat="42.3583454049683" lon="12.131934979013367"><ele>705.0</ele><time>2026-04-28T15:45:16Z</time></trkpt><trkpt lat="42.35847570380469" lon="12.132003667674706"><ele>703.0</ele><time>2026-04-28T15:45:17Z</time></trkpt><trkpt lat="42.35860507908493" lon="12.132101914537365"><ele>703.0</ele><time>2026-04-28T15:45:18Z</time></trkpt><trkpt lat="42.35872142649398" lon="12.132217099851312"><ele>703.0</ele><time>2026-04-28T15:45:19Z</time></trkpt><trkpt lat="42.3588271920376" lon="12.132327089374726"><ele>703.0</ele><time>2026-04-28T15:45:20Z</time></trkpt><trkpt lat="42.35891463434167" lon="12.132427554481815"><ele>703.0</ele><time>2026-04-28T15:45:21Z</time></trkpt><trkpt lat="42.358989707191625" lon="12.132542098346446"><ele>701.4</ele><time>2026-04-28T15:45:22Z</time></trkpt><trkpt lat="42.35904399180585" lon="12.132673434443076"><ele>699.8</ele><time>2026-04-28T15:45:23Z</time></trkpt><trkpt lat="42.359079707598895" lon="12.132810334030582"><ele>698.2</ele><time>2026-04-28T15:45:24Z</time></trkpt><trkpt lat="42.35909805445187" lon="12.13296409251548"><ele>696.6</ele><time>2026-04-28T15:45:25Z</time></trkpt><trkpt lat="42.35910461674394" lon="12.133117895964114"><ele>695.0</ele><time>2026-04-28T15:45:26Z</time></trkpt><trkpt lat="42.359106670416224" lon="12.133264471346989"><ele>694.6666666666666</ele><time>2026-04-28T15:45:27Z</time></trkpt><trkpt lat="42.35910041834388" lon="12.133402252222558"><ele>694.3333333333333</ele><time>2026-04-28T15:45:28Z</time></trkpt><trkpt lat="42.35909658399479" lon="12.133533325498759"><ele>694.0</ele><time>2026-04-28T15:45:29Z</time></trkpt><trkpt lat="42.35908994809593" lon="12.133642471045363"><ele>693.6666666666666</ele><time>2026-04-28T15:45:30Z</time></trkpt><trkpt lat="42.35908616692843" lon="12.133755480314884"><ele>693.3333333333334</ele><time>2026-04-28T15:45:31Z</time></trkpt><trkpt lat="42.35910580500206" lon="12.133865495469493"><ele>693.0</ele><time>2026-04-28T15:45:32Z</time></trkpt><trkpt lat="42.35917126393148" lon="12.133935082413906"><ele>693.0</ele><time>2026-04-28T15:45:33Z</time></trkpt><trkpt lat="42.359270559265035" lon="12.133960765109624"><ele>693.0</ele><time>2026-04-28T15:45:34Z</time></trkpt><trkpt lat="42.359369648553454" lon="12.13391928523773"><ele>693.0</ele><time>2026-04-28T15:45:35Z</time></trkpt><trkpt lat="42.359485424231714" lon="12.133851368338888"><ele>693.0</ele><time>2026-04-28T15:45:36Z</time></trkpt><trkpt lat="42.35962894933627" lon="12.133716274579662"><ele>688.6666666666666</ele><time>2026-04-28T15:45:37Z</time></trkpt><trkpt lat="42.359777837104616" lon="12.133512359695702"><ele>684.3333333333333</ele><time>2026-04-28T15:45:38Z</time></trkpt><trkpt lat="42.359932544381955" lon="12.133273042222164"><ele>680.0</ele><time>2026-04-28T15:45:39Z</time></trkpt><trkpt lat="42.360086980324894" lon="12.13300468354545"><ele>676.0</ele><time>2026-04-28T15:45:40Z</time></trkpt><trkpt lat="42.360250363612295" lon="12.13275015605867"><ele>672.0</ele><time>2026-04-28T15:45:41Z</time></trkpt><trkpt lat="42.360413151798674" lon="12.132534299462208"><ele>667.3333333333334</ele><time>2026-04-28T15:45:42Z</time></trkpt><trkpt lat="42.36055161139637" lon="12.132323691049564"><ele>662.6666666666667</ele><time>2026-04-28T15:45:43Z</time></trkpt><trkpt lat="42.36068056594155" lon="12.13213450684656"><ele>658.0</ele><time>2026-04-28T15:45:44Z</time></trkpt><trkpt lat="42.36083168952683" lon="12.13195663367523"><ele>658.0</ele><time>2026-04-28T15:45:45Z</time></trkpt><trkpt lat="42.3609916647022" lon="12.131797477061202"><ele>658.0</ele><time>2026-04-28T15:45:46Z</time></trkpt><trkpt lat="42.361149886104705" lon="12.131630546402892"><ele>658.0</ele><time>2026-04-28T15:45:47Z</time></trkpt><trkpt lat="42.36129772217572" lon="12.131439475519189"><ele>656.6666666666667</ele><time>2026-04-28T15:45:48Z</time></trkpt><trkpt lat="42.36144140804164" lon="12.131235659775049"><ele>655.3333333333334</ele><time>2026-04-28T15:45:49Z</time></trkpt><trkpt lat="42.36157737107884" lon="12.131033407548651"><ele>654.0</ele><time>2026-04-28T15:45:50Z</time></trkpt><trkpt lat="42.36170248631178" lon="12.130846028775869"><ele>649.0</ele><time>2026-04-28T15:45:51Z</time></trkpt><trkpt lat="42.36181610717808" lon="12.130654046318488"><ele>644.0</ele><time>2026-04-28T15:45:52Z</time></trkpt><trkpt lat="42.3619274929361" lon="12.130505930178177"><ele>639.0</ele><time>2026-04-28T15:45:53Z</time></trkpt><trkpt lat="42.36204115226996" lon="12.130384874172178"><ele>639.0</ele><time>2026-04-28T15:45:54Z</time></trkpt><trkpt lat="42.36216798227562" lon="12.130282781597847"><ele>639.0</ele><time>2026-04-28T15:45:55Z</time></trkpt><trkpt lat="42.36231045982519" lon="12.130206196461312"><ele>639.0</ele><time>2026-04-28T15:45:56Z</time></trkpt><trkpt lat="42.362477268479914" lon="12.130179477620837"><ele>640.0</ele><time>2026-04-28T15:45:57Z</time></trkpt><trkpt lat="42.36266344699764" lon="12.130149919102506"><ele>641.0</ele><time>2026-04-28T15:45:58Z</time></trkpt><trkpt lat="42.362867915634645" lon="12.130097990308904"><ele>642.0</ele><time>2026-04-28T15:45:59Z</time></trkpt><trkpt lat="42.36308717355181" lon="12.130066632644505"><ele>642.0</ele><time>2026-04-28T15:46:00Z</time></trkpt><trkpt lat="42.363296715452414" lon="12.130033179759936"><ele>642.0</ele><time>2026-04-28T15:46:01Z</time></trkpt><trkpt lat="42.36348292743758" lon="12.13000056615038"><ele>642.0</ele><time>2026-04-28T15:46:02Z</time></trkpt><trkpt lat="42.36365117415725" lon="12.129976424035014"><ele>642.0</ele><time>2026-04-28T15:46:03Z</time></trkpt><trkpt lat="42.363810417928455" lon="12.12995086782213"><ele>642.0</ele><time>2026-04-28T15:46:04Z</time></trkpt><trkpt lat="42.36395341609559" lon="12.129944312347567"><ele>642.0</ele><time>2026-04-28T15:46:05Z</time></trkpt><trkpt lat="42.36408359269256" lon="12.129977328522385"><ele>642.0</ele><time>2026-04-28T15:46:06Z</time></trkpt><trkpt lat="42.364192693034404" lon="12.130069164778318"><ele>638.75</ele><time>2026-04-28T15:46:07Z</time></trkpt><trkpt lat="42.36429368022656" lon="12.130197950934798"><ele>635.5</ele><time>2026-04-28T15:46:08Z</time></trkpt><trkpt lat="42.3644147846424" lon="12.130335010513019"><ele>632.25</ele><time>2026-04-28T15:46:09Z</time></trkpt><trkpt lat="42.3645500455352" lon="12.130412563200375"><ele>629.0</ele><time>2026-04-28T15:46:10Z</time></trkpt><trkpt lat="42.364681960719416" lon="12.130459207874104"><ele>626.0</ele><time>2026-04-28T15:46:11Z</time></trkpt><trkpt lat="42.364824312871626" lon="12.130451952214866"><ele>623.0</ele><time>2026-04-28T15:46:12Z</time></trkpt><trkpt lat="42.36496371138082" lon="12.130392679464366"><ele>620.0</ele><time>2026-04-28T15:46:13Z</time></trkpt><trkpt lat="42.36509972489066" lon="12.130292840813357"><ele>617.0</ele><time>2026-04-28T15:46:14Z</time></trkpt><trkpt lat="42.36523717322947" lon="12.130232286165723"><ele>617.0</ele><time>2026-04-28T15:46:15Z</time></trkpt><trkpt lat="42.3653530676096" lon="12.130203410709479"><ele>617.0</ele><time>2026-04-28T15:46:16Z</time></trkpt><trkpt lat="42.36547421981395" lon="12.130193415334944"><ele>617.0</ele><time>2026-04-28T15:46:17Z</time></trkpt><trkpt lat="42.36560224580321" lon="12.13018641502995"><ele>617.0</ele><time>2026-04-28T15:46:18Z</time></trkpt><trkpt lat="42.36570884134892" lon="12.1302214913892"><ele>614.6</ele><time>2026-04-28T15:46:19Z</time></trkpt><trkpt lat="42.36578265736681" lon="12.130296875735969"><ele>612.2</ele><time>2026-04-28T15:46:20Z</time></trkpt><trkpt lat="42.36583042745905" lon="12.130394269447425"><ele>609.8</ele><time>2026-04-28T15:46:21Z</time></trkpt><trkpt lat="42.365851261951214" lon="12.130498428287114"><ele>607.4</ele><time>2026-04-28T15:46:22Z</time></trkpt><trkpt lat="42.3658613969793" lon="12.130635491839433"><ele>605.0</ele><time>2026-04-28T15:46:23Z</time></trkpt><trkpt lat="42.36584786637903" lon="12.130792362668686"><ele>604.6</ele><time>2026-04-28T15:46:24Z</time></trkpt><trkpt lat="42.36583762972469" lon="12.130949789954354"><ele>604.2</ele><time>2026-04-28T15:46:25Z</time></trkpt><trkpt lat="42.36584168009651" lon="12.131105917260003"><ele>603.8</ele><time>2026-04-28T15:46:26Z</time></trkpt><trkpt lat="42.365890879980554" lon="12.131223936498861"><ele>603.4</ele><time>2026-04-28T15:46:27Z</time></trkpt><trkpt lat="42.3659347558153" lon="12.13133017446227"><ele>603.0</ele><time>2026-04-28T15:46:28Z</time></trkpt><trkpt lat="42.36602951766323" lon="12.131352393557806"><ele>603.0</ele><time>2026-04-28T15:46:29Z</time></trkpt><trkpt lat="42.366127253513476" lon="12.131329857056468"><ele>603.0</ele><time>2026-04-28T15:46:30Z</time></trkpt><trkpt lat="42.36624041496995" lon="12.131272532611831"><ele>603.0</ele><time>2026-04-28T15:46:31Z</time></trkpt><trkpt lat="42.36636173026118" lon="12.131196536657809"><ele>603.0</ele><time>2026-04-28T15:46:32Z</time></trkpt><trkpt lat="42.366480293056306" lon="12.131107977490625"><ele>599.5</ele><time>2026-04-28T15:46:33Z</time></trkpt><trkpt lat="42.366580759396875" lon="12.130995898417774"><ele>596.0</ele><time>2026-04-28T15:46:34Z</time></trkpt><trkpt lat="42.36666066002452" lon="12.130877311189773"><ele>592.5</ele><time>2026-04-28T15:46:35Z</time></trkpt><trkpt lat="42.36673734678321" lon="12.130757701347234"><ele>589.0</ele><time>2026-04-28T15:46:36Z</time></trkpt><trkpt lat="42.36681075132406" lon="12.130647623045723"><ele>588.6</ele><time>2026-04-28T15:46:37Z</time></trkpt><trkpt lat="42.366880747772875" lon="12.13053727320252"><ele>588.2</ele><time>2026-04-28T15:46:38Z</time></trkpt><trkpt lat="42.36694517315682" lon="12.13042568685503"><ele>587.8000000000001</ele><time>2026-04-28T15:46:39Z</time></trkpt><trkpt lat="42.36701135983165" lon="12.130320521907544"><ele>587.4</ele><time>2026-04-28T15:46:40Z</time></trkpt><trkpt lat="42.36707848486246" lon="12.1302210599349"><ele>587.0</ele><time>2026-04-28T15:46:41Z</time></trkpt><trkpt lat="42.367147361662944" lon="12.130126214586943"><ele>586.0</ele><time>2026-04-28T15:46:42Z</time></trkpt><trkpt lat="42.367213920508455" lon="12.13003664034249"><ele>585.0</ele><time>2026-04-28T15:46:43Z</time></trkpt><trkpt lat="42.36727314941811" lon="12.129944237515955"><ele>584.0</ele><time>2026-04-28T15:46:44Z</time></trkpt><trkpt lat="42.36733042832262" lon="12.129847962311663"><ele>583.0</ele><time>2026-04-28T15:46:45Z</time></trkpt><trkpt lat="42.36738683803041" lon="12.129756992893299"><ele>582.0</ele><time>2026-04-28T15:46:46Z</time></trkpt><trkpt lat="42.36745170967073" lon="12.129681415143233"><ele>581.0</ele><time>2026-04-28T15:46:47Z</time></trkpt><trkpt lat="42.36751140145557" lon="12.129600590651819"><ele>579.5</ele><time>2026-04-28T15:46:48Z</time></trkpt><trkpt lat="42.36756449221901" lon="12.129525062788332"><ele>578.0</ele><time>2026-04-28T15:46:49Z</time></trkpt><trkpt lat="42.36762827232695" lon="12.129404851065772"><ele>576.5</ele><time>2026-04-28T15:46:51Z</time></trkpt><trkpt lat="42.36772280634259" lon="12.129412431335991"><ele>575.0</ele><time>2026-04-28T15:46:53Z</time></trkpt><trkpt lat="42.36779970628164" lon="12.129384360554106"><ele>573.5</ele><time>2026-04-28T15:46:54Z</time></trkpt><trkpt lat="42.367887315977306" lon="12.129379336394638"><ele>572.0</ele><time>2026-04-28T15:46:55Z</time></trkpt><trkpt lat="42.36796973312658" lon="12.12934648255581"><ele>572.3333333333333</ele><time>2026-04-28T15:46:56Z</time></trkpt><trkpt lat="42.36804753548181" lon="12.12932148311625"><ele>572.6666666666666</ele><time>2026-04-28T15:46:57Z</time></trkpt><trkpt lat="42.368116640777565" lon="12.12937088963266"><ele>573.0</ele><time>2026-04-28T15:46:58Z</time></trkpt><trkpt lat="42.368218878252875" lon="12.129426838986182"><ele>573.3333333333334</ele><time>2026-04-28T15:47:00Z</time></trkpt><trkpt lat="42.36828423000582" lon="12.12947862443692"><ele>573.6666666666667</ele><time>2026-04-28T15:47:01Z</time></trkpt><trkpt lat="42.368353238040456" lon="12.12954658708959"><ele>574.0</ele><time>2026-04-28T15:47:02Z</time></trkpt><trkpt lat="42.3684263197609" lon="12.129630377601265"><ele>574.0</ele><time>2026-04-28T15:47:03Z</time></trkpt><trkpt lat="42.36850654383302" lon="12.12973348743136"><ele>574.0</ele><time>2026-04-28T15:47:04Z</time></trkpt><trkpt lat="42.36857630483714" lon="12.129815435793216"><ele>574.0</ele><time>2026-04-28T15:47:05Z</time></trkpt><trkpt lat="42.3686425608935" lon="12.129856083442256"><ele>574.0</ele><time>2026-04-28T15:47:06Z</time></trkpt><trkpt lat="42.368742115256325" lon="12.129928582425803"><ele>574.0</ele><time>2026-04-28T15:47:08Z</time></trkpt><trkpt lat="42.36880071182485" lon="12.129994781497526"><ele>574.0</ele><time>2026-04-28T15:47:10Z</time></trkpt><trkpt lat="42.368719638746455" lon="12.129932101637174"><ele>574.0</ele><time>2026-04-28T15:47:17Z</time></trkpt><trkpt lat="42.368672718246636" lon="12.129868240547113"><ele>574.0</ele><time>2026-04-28T15:47:18Z</time></trkpt><trkpt lat="42.3686156520648" lon="12.129814912020203"><ele>574.0</ele><time>2026-04-28T15:47:19Z</time></trkpt><trkpt lat="42.368556428778604" lon="12.129752329339123"><ele>574.0</ele><time>2026-04-28T15:47:20Z</time></trkpt><trkpt lat="42.36849708423731" lon="12.129671372741086"><ele>574.0</ele><time>2026-04-28T15:47:21Z</time></trkpt><trkpt lat="42.36843746389275" lon="12.129590718326305"><ele>574.0</ele><time>2026-04-28T15:47:22Z</time></trkpt><trkpt lat="42.36836889596678" lon="12.129510809766696"><ele>574.0</ele><time>2026-04-28T15:47:23Z</time></trkpt><trkpt lat="42.36829614033552" lon="12.129441440589392"><ele>574.0</ele><time>2026-04-28T15:47:24Z</time></trkpt><trkpt lat="42.368222600596056" lon="12.129391133858796"><ele>574.0</ele><time>2026-04-28T15:47:25Z</time></trkpt><trkpt lat="42.36815399573496" lon="12.129354440122938"><ele>574.0</ele><time>2026-04-28T15:47:26Z</time></trkpt><trkpt lat="42.36806395557612" lon="12.12932575756015"><ele>574.0</ele><time>2026-04-28T15:47:28Z</time></trkpt><trkpt lat="42.36797620117986" lon="12.129334506207288"><ele>573.6</ele><time>2026-04-28T15:47:30Z</time></trkpt><trkpt lat="42.3678572964044" lon="12.129365255652111"><ele>573.2</ele><time>2026-04-28T15:47:32Z</time></trkpt><trkpt lat="42.367742973503965" lon="12.129392982227587"><ele>572.8000000000001</ele><time>2026-04-28T15:47:34Z</time></trkpt><trkpt lat="42.36766086865919" lon="12.129366170691469"><ele>572.4</ele><time>2026-04-28T15:47:36Z</time></trkpt><trkpt lat="42.367627931680005" lon="12.129261097481022"><ele>572.0</ele><time>2026-04-28T15:47:41Z</time></trkpt><trkpt lat="42.36765669692506" lon="12.129134720751496"><ele>571.0</ele><time>2026-04-28T15:47:43Z</time></trkpt><trkpt lat="42.36769783768598" lon="12.129031343968231"><ele>570.0</ele><time>2026-04-28T15:47:45Z</time></trkpt><trkpt lat="42.36776003875153" lon="12.128943501902796"><ele>569.0</ele><time>2026-04-28T15:47:47Z</time></trkpt><trkpt lat="42.3678353954309" lon="12.128880917751578"><ele>568.0</ele><time>2026-04-28T15:47:49Z</time></trkpt><trkpt lat="42.36789576095331" lon="12.128828860838725"><ele>567.0</ele><time>2026-04-28T15:47:53Z</time></trkpt><trkpt lat="42.36799094069967" lon="12.128878896691393"><ele>566.0</ele><time>2026-04-28T15:48:02Z</time></trkpt><trkpt lat="42.36805889850137" lon="12.128907237891246"><ele>565.6</ele><time>2026-04-28T15:48:04Z</time></trkpt><trkpt lat="42.36816764844124" lon="12.128866054976541"><ele>565.2</ele><time>2026-04-28T15:48:07Z</time></trkpt><trkpt lat="42.36822130326156" lon="12.12873576128912"><ele>564.8</ele><time>2026-04-28T15:48:09Z</time></trkpt><trkpt lat="42.36824715207449" lon="12.128620441891702"><ele>564.4</ele><time>2026-04-28T15:48:10Z</time></trkpt><trkpt lat="42.36828493889647" lon="12.128511680162992"><ele>564.0</ele><time>2026-04-28T15:48:11Z</time></trkpt><trkpt lat="42.368331935688246" lon="12.12840674891035"><ele>564.0</ele><time>2026-04-28T15:48:12Z</time></trkpt><trkpt lat="42.36837687171802" lon="12.128300997544962"><ele>564.0</ele><time>2026-04-28T15:48:13Z</time></trkpt><trkpt lat="42.36841226309668" lon="12.128206649765877"><ele>564.0</ele><time>2026-04-28T15:48:14Z</time></trkpt><trkpt lat="42.36844441159185" lon="12.128125257712458"><ele>564.0</ele><time>2026-04-28T15:48:15Z</time></trkpt><trkpt lat="42.36848774487601" lon="12.127981397185888"><ele>564.0</ele><time>2026-04-28T15:48:17Z</time></trkpt><trkpt lat="42.36852225911583" lon="12.127878104220787"><ele>564.0</ele><time>2026-04-28T15:48:19Z</time></trkpt><trkpt lat="42.36854780664393" lon="12.127780688092836"><ele>562.0</ele><time>2026-04-28T15:48:22Z</time></trkpt><trkpt lat="42.36836416273918" lon="12.127638672836976"><ele>560.0</ele><time>2026-04-28T15:48:24Z</time></trkpt><trkpt lat="42.36828036160343" lon="12.127610523028011"><ele>558.0</ele><time>2026-04-28T15:48:26Z</time></trkpt><trkpt lat="42.3682183549343" lon="12.12748319697913"><ele>556.0</ele><time>2026-04-28T15:48:30Z</time></trkpt><trkpt lat="42.36818849810467" lon="12.127395695922177"><ele>555.8333333333334</ele><time>2026-04-28T15:48:32Z</time></trkpt><trkpt lat="42.3681337027472" lon="12.127332220565457"><ele>555.6666666666667</ele><time>2026-04-28T15:48:35Z</time></trkpt><trkpt lat="42.3680579681107" lon="12.127326533767157"><ele>555.5</ele><time>2026-04-28T15:48:37Z</time></trkpt><trkpt lat="42.3679810879617" lon="12.12729360182727"><ele>555.3333333333334</ele><time>2026-04-28T15:48:40Z</time></trkpt><trkpt lat="42.36791449129021" lon="12.127278163409123"><ele>555.1666666666666</ele><time>2026-04-28T15:48:43Z</time></trkpt><trkpt lat="42.36798846779475" lon="12.127298029495648"><ele>555.0</ele><time>2026-04-28T15:49:05Z</time></trkpt><trkpt lat="42.36796937226663" lon="12.127466837525485"><ele>555.0</ele><time>2026-04-28T15:49:09Z</time></trkpt><trkpt lat="42.36792653252435" lon="12.127548922726408"><ele>555.0</ele><time>2026-04-28T15:49:11Z</time></trkpt><trkpt lat="42.36788495787061" lon="12.12762858392356"><ele>555.0</ele><time>2026-04-28T15:49:13Z</time></trkpt><trkpt lat="42.36784505163576" lon="12.127719435058458"><ele>555.0</ele><time>2026-04-28T15:49:15Z</time></trkpt><trkpt lat="42.367799464774365" lon="12.127810073429622"><ele>555.0</ele><time>2026-04-28T15:49:18Z</time></trkpt><trkpt lat="42.367765608125936" lon="12.127700947603547"><ele>555.0</ele><time>2026-04-28T15:49:22Z</time></trkpt><trkpt lat="42.36781577342606" lon="12.127644836834731"><ele>555.0000000000001</ele><time>2026-04-28T15:49:24Z</time></trkpt><trkpt lat="42.36785415909555" lon="12.12757310793012"><ele>555.0</ele><time>2026-04-28T15:49:28Z</time></trkpt><trkpt lat="42.367891276241615" lon="12.127491445229126"><ele>555.0</ele><time>2026-04-28T15:51:25Z</time></trkpt><trkpt lat="42.36780656191051" lon="12.127486558438285"><ele>555.0</ele><time>2026-04-28T15:52:14.999Z</time></trkpt><trkpt lat="42.36782607836944" lon="12.127578135512838"><ele>555.0</ele><time>2026-04-28T15:53:13.999Z</time></trkpt><trkpt lat="42.3678563123803" lon="12.127662328589038"><ele>555.0000000000001</ele><time>2026-04-28T15:53:21Z</time></trkpt><trkpt lat="42.36792039062597" lon="12.127646804872052"><ele>555.0</ele><time>2026-04-28T15:53:29.999Z</time></trkpt><trkpt lat="42.36796124233519" lon="12.127577335633715"><ele>555.0000000000001</ele><time>2026-04-28T15:53:39.999Z</time></trkpt><trkpt lat="42.367898986763855" lon="12.127591225675587"><ele>555.0</ele><time>2026-04-28T15:54:15.999Z</time></trkpt><trkpt lat="42.36785311568741" lon="12.12766191683034"><ele>555.0</ele><time>2026-04-28T15:54:22.999Z</time></trkpt><trkpt lat="42.36785957366154" lon="12.127574526707015"><ele>555.0</ele><time>2026-04-28T15:54:36.999Z</time></trkpt><trkpt lat="42.36782557998052" lon="12.127679250111951"><ele>555.0</ele><time>2026-04-28T15:56:06.999Z</time></trkpt><trkpt lat="42.367853045682814" lon="12.127598701463416"><ele>555.0000000000001</ele><time>2026-04-28T15:56:15.999Z</time></trkpt><trkpt lat="42.367852107783136" lon="12.127500092426557"><ele>555.0</ele><time>2026-04-28T15:56:47.999Z</time></trkpt><trkpt lat="42.36776101178035" lon="12.127492253221114"><ele>555.0</ele><time>2026-04-28T15:56:50.999Z</time></trkpt><trkpt lat="42.367707295281946" lon="12.12756329504565"><ele>555.0</ele><time>2026-04-28T15:56:52.999Z</time></trkpt><trkpt lat="42.36767110833251" lon="12.127668861482459"><ele>555.0</ele><time>2026-04-28T15:56:54.999Z</time></trkpt><trkpt lat="42.36772309815286" lon="12.127750500910205"><ele>555.0</ele><time>2026-04-28T15:58:23.999Z</time></trkpt><trkpt lat="42.36781183658262" lon="12.127759345021245"><ele>555.0</ele><time>2026-04-28T15:58:25.999Z</time></trkpt><trkpt lat="42.36786510016755" lon="12.127863588194836"><ele>555.0</ele><time>2026-04-28T15:58:28.999Z</time></trkpt><trkpt lat="42.36782601333771" lon="12.127987389796766"><ele>555.0000000000001</ele><time>2026-04-28T15:58:30.999Z</time></trkpt><trkpt lat="42.3677941903962" lon="12.128074945206354"><ele>555.0</ele><time>2026-04-28T15:58:56.999Z</time></trkpt><trkpt lat="42.367778763920576" lon="12.12815949641582"><ele>555.0</ele><time>2026-04-28T15:59:02.999Z</time></trkpt><trkpt lat="42.3677655901649" lon="12.128253876629675"><ele>555.0</ele><time>2026-04-28T15:59:12.999Z</time></trkpt><trkpt lat="42.36778582536731" lon="12.128346689882216"><ele>555.0</ele><time>2026-04-28T15:59:17.999Z</time></trkpt><trkpt lat="42.367821404341925" lon="12.128430483275276"><ele>555.0000000000001</ele><time>2026-04-28T15:59:23.999Z</time></trkpt><trkpt lat="42.36784561205457" lon="12.128522419723263"><ele>555.0</ele><time>2026-04-28T15:59:28.999Z</time></trkpt><trkpt lat="42.367779900208966" lon="12.12865560071098"><ele>557.2</ele><time>2026-04-28T15:59:40.999Z</time></trkpt><trkpt lat="42.36775653655457" lon="12.128738241710556"><ele>559.4</ele><time>2026-04-28T15:59:46.999Z</time></trkpt><trkpt lat="42.36770180709212" lon="12.128791859481554"><ele>561.6</ele><time>2026-04-28T15:59:56.999Z</time></trkpt><trkpt lat="42.36775991729456" lon="12.128741628611108"><ele>563.8</ele><time>2026-04-28T16:00:43.999Z</time></trkpt><trkpt lat="42.3677885994238" lon="12.128655959515184"><ele>566.0</ele><time>2026-04-28T16:00:51.999Z</time></trkpt><trkpt lat="42.367863057230984" lon="12.128306468506864"><ele>566.0</ele><time>2026-04-28T16:00:59.999Z</time></trkpt><trkpt lat="42.367942982863035" lon="12.128311336924526"><ele>566.0</ele><time>2026-04-28T16:01:01.999Z</time></trkpt><trkpt lat="42.36789349723667" lon="12.128239665262875"><ele>566.0</ele><time>2026-04-28T16:01:28.999Z</time></trkpt><trkpt lat="42.36788147599698" lon="12.128153374606223"><ele>566.0</ele><time>2026-04-28T16:01:34.999Z</time></trkpt><trkpt lat="42.367817856584615" lon="12.128137539828915"><ele>566.0</ele><time>2026-04-28T16:02:13.999Z</time></trkpt><trkpt lat="42.36784546025326" lon="12.128222967220855"><ele>566.0</ele><time>2026-04-28T16:02:35.999Z</time></trkpt><trkpt lat="42.36781592649615" lon="12.128303645793038"><ele>566.0</ele><time>2026-04-28T16:02:44.999Z</time></trkpt><trkpt lat="42.36783824714783" lon="12.12838815095525"><ele>566.0</ele><time>2026-04-28T16:02:51.999Z</time></trkpt><trkpt lat="42.36789868203649" lon="12.128359605401165"><ele>566.0</ele><time>2026-04-28T16:03:25.999Z</time></trkpt><trkpt lat="42.36790998346116" lon="12.128275229275319"><ele>566.0</ele><time>2026-04-28T16:03:45.999Z</time></trkpt><trkpt lat="42.367933077424965" lon="12.128175499214047"><ele>566.0</ele><time>2026-04-28T16:03:51.999Z</time></trkpt><trkpt lat="42.367891169065736" lon="12.12810130493429"><ele>566.0</ele><time>2026-04-28T16:05:00Z</time></trkpt><trkpt lat="42.36792517027273" lon="12.127959186240943"><ele>566.0</ele><time>2026-04-28T16:05:14Z</time></trkpt><trkpt lat="42.367874676223835" lon="12.127887995452388"><ele>564.0</ele><time>2026-04-28T16:05:15Z</time></trkpt><trkpt lat="42.367889732444795" lon="12.127743979486002"><ele>562.0</ele><time>2026-04-28T16:05:17Z</time></trkpt><trkpt lat="42.36794905602301" lon="12.127622823206407"><ele>560.0</ele><time>2026-04-28T16:05:19Z</time></trkpt><trkpt lat="42.368008653512575" lon="12.12750879810804"><ele>558.0</ele><time>2026-04-28T16:05:21Z</time></trkpt><trkpt lat="42.36805419530851" lon="12.12742355614599"><ele>556.0</ele><time>2026-04-28T16:05:23Z</time></trkpt><trkpt lat="42.36810219820057" lon="12.127333707730182"><ele>556.0</ele><time>2026-04-28T16:05:26Z</time></trkpt><trkpt lat="42.36814609812695" lon="12.127248328511545"><ele>556.0</ele><time>2026-04-28T16:05:43.999Z</time></trkpt><trkpt lat="42.368172285691" lon="12.127169956295234"><ele>556.0</ele><time>2026-04-28T16:05:49.999Z</time></trkpt><trkpt lat="42.36811585552145" lon="12.127213840990319"><ele>556.0</ele><time>2026-04-28T16:06:27Z</time></trkpt><trkpt lat="42.36805369900613" lon="12.127255321875902"><ele>556.0</ele><time>2026-04-28T16:07:07Z</time></trkpt><trkpt lat="42.36812727311481" lon="12.127302023944887"><ele>556.0</ele><time>2026-04-28T16:07:12Z</time></trkpt><trkpt lat="42.36818881445449" lon="12.12740335038415"><ele>556.0</ele><time>2026-04-28T16:07:15Z</time></trkpt><trkpt lat="42.3682271514522" lon="12.12754666128069"><ele>556.0</ele><time>2026-04-28T16:07:17Z</time></trkpt><trkpt lat="42.36827311787162" lon="12.127662776065288"><ele>556.0</ele><time>2026-04-28T16:07:19Z</time></trkpt><trkpt lat="42.36837246313143" lon="12.127716596547444"><ele>556.0</ele><time>2026-04-28T16:07:21Z</time></trkpt><trkpt lat="42.368424751802344" lon="12.127644343735858"><ele>556.0</ele><time>2026-04-28T16:07:24Z</time></trkpt><trkpt lat="42.368392302280824" lon="12.127718608518935"><ele>556.0</ele><time>2026-04-28T16:08:05Z</time></trkpt><trkpt lat="42.36837499081085" lon="12.127622360349868"><ele>556.0</ele><time>2026-04-28T16:08:56Z</time></trkpt><trkpt lat="42.36845392119576" lon="12.127640205965925"><ele>556.0</ele><time>2026-04-28T16:09:51Z</time></trkpt><trkpt lat="42.3683806905629" lon="12.127607670557508"><ele>556.0</ele><time>2026-04-28T16:11:55.999Z</time></trkpt><trkpt lat="42.368314682160204" lon="12.127658786321097"><ele>556.0</ele><time>2026-04-28T16:13:11Z</time></trkpt><trkpt lat="42.36828496029899" lon="12.12778697918265"><ele>556.0</ele><time>2026-04-28T16:13:13Z</time></trkpt><trkpt lat="42.36829034441095" lon="12.127945904393975"><ele>556.0</ele><time>2026-04-28T16:13:15Z</time></trkpt><trkpt lat="42.368308230971856" lon="12.128097561744312"><ele>556.0</ele><time>2026-04-28T16:13:17Z</time></trkpt><trkpt lat="42.368320438962876" lon="12.128239022493178"><ele>556.0</ele><time>2026-04-28T16:13:19Z</time></trkpt><trkpt lat="42.368318455213185" lon="12.128389772681853"><ele>556.0</ele><time>2026-04-28T16:13:21Z</time></trkpt><trkpt lat="42.368274287086685" lon="12.12845140077435"><ele>556.0</ele><time>2026-04-28T16:13:22Z</time></trkpt><trkpt lat="42.368244534537936" lon="12.12853304470903"><ele>557.3333333333334</ele><time>2026-04-28T16:13:23Z</time></trkpt><trkpt lat="42.36821589195662" lon="12.128614444765843"><ele>558.6666666666667</ele><time>2026-04-28T16:13:24Z</time></trkpt><trkpt lat="42.36818711858184" lon="12.128696216528105"><ele>560.0</ele><time>2026-04-28T16:13:25Z</time></trkpt><trkpt lat="42.368159056292264" lon="12.128776532620916"><ele>561.3333333333334</ele><time>2026-04-28T16:13:26Z</time></trkpt><trkpt lat="42.36812705862259" lon="12.128890744711466"><ele>562.6666666666666</ele><time>2026-04-28T16:13:28Z</time></trkpt><trkpt lat="42.36798488488085" lon="12.128829161462248"><ele>564.0</ele><time>2026-04-28T16:13:32Z</time></trkpt><trkpt lat="42.36790424103361" lon="12.12879534013714"><ele>564.3333333333334</ele><time>2026-04-28T16:13:35Z</time></trkpt><trkpt lat="42.367826177246044" lon="12.128762600869164"><ele>564.6666666666666</ele><time>2026-04-28T16:13:38Z</time></trkpt><trkpt lat="42.36775846456862" lon="12.128734202768182"><ele>565.0</ele><time>2026-04-28T16:13:41Z</time></trkpt><trkpt lat="42.36769062200964" lon="12.12870590402924"><ele>565.3333333333333</ele><time>2026-04-28T16:13:45Z</time></trkpt><trkpt lat="42.36777528789362" lon="12.128752836240535"><ele>565.6666666666666</ele><time>2026-04-28T16:13:51Z</time></trkpt><trkpt lat="42.367834091125545" lon="12.128789215408544"><ele>566.0</ele><time>2026-04-28T16:13:57Z</time></trkpt><trkpt lat="42.36789969601438" lon="12.12882865274706"><ele>566.0</ele><time>2026-04-28T16:13:59.999Z</time></trkpt><trkpt lat="42.3679392333751" lon="12.128911063840658"><ele>566.0</ele><time>2026-04-28T16:14:02.999Z</time></trkpt><trkpt lat="42.36771588512636" lon="12.12887719836879"><ele>566.0</ele><time>2026-04-28T16:14:04.999Z</time></trkpt><trkpt lat="42.36787757959361" lon="12.12901524486874"><ele>566.0</ele><time>2026-04-28T16:15:33Z</time></trkpt><trkpt lat="42.3679569665522" lon="12.128913785352937"><ele>566.0</ele><time>2026-04-28T16:16:23Z</time></trkpt><trkpt lat="42.36794564869332" lon="12.129008431498189"><ele>566.0</ele><time>2026-04-28T16:16:52Z</time></trkpt><trkpt lat="42.36799936826211" lon="12.12896095761624"><ele>566.0</ele><time>2026-04-28T16:17:02Z</time></trkpt><trkpt lat="42.36803997221404" lon="12.128882505814827"><ele>566.0</ele><time>2026-04-28T16:17:04Z</time></trkpt><trkpt lat="42.36799161211116" lon="12.128816838225703"><ele>566.0</ele><time>2026-04-28T16:17:10Z</time></trkpt><trkpt lat="42.367911613497874" lon="12.128804515027452"><ele>566.0</ele><time>2026-04-28T16:17:12Z</time></trkpt><trkpt lat="42.36784727521547" lon="12.128771449180734"><ele>566.0</ele><time>2026-04-28T16:17:14Z</time></trkpt><trkpt lat="42.36770365677839" lon="12.128934206424645"><ele>566.0</ele><time>2026-04-28T16:17:17Z</time></trkpt><trkpt lat="42.36768419927238" lon="12.129024916794515"><ele>566.0</ele><time>2026-04-28T16:17:19Z</time></trkpt><trkpt lat="42.36766381162532" lon="12.129116421781564"><ele>566.0</ele><time>2026-04-28T16:17:21Z</time></trkpt><trkpt lat="42.36763996453012" lon="12.129209657300695"><ele>567.0</ele><time>2026-04-28T16:17:23Z</time></trkpt><trkpt lat="42.36761769590882" lon="12.129296721229565"><ele>568.0</ele><time>2026-04-28T16:17:25Z</time></trkpt><trkpt lat="42.36771892256767" lon="12.129410193532422"><ele>569.0</ele><time>2026-04-28T16:18:19Z</time></trkpt><trkpt lat="42.36783227631789" lon="12.129420281090033"><ele>570.0</ele><time>2026-04-28T16:18:21Z</time></trkpt><trkpt lat="42.36789621925291" lon="12.129416248669889"><ele>571.0</ele><time>2026-04-28T16:18:22Z</time></trkpt><trkpt lat="42.367965513644656" lon="12.129405012446636"><ele>572.0</ele><time>2026-04-28T16:18:23Z</time></trkpt><trkpt lat="42.36803607124644" lon="12.129391525849814"><ele>572.4</ele><time>2026-04-28T16:18:24Z</time></trkpt><trkpt lat="42.36814798712083" lon="12.12939605012821"><ele>572.8000000000001</ele><time>2026-04-28T16:18:26Z</time></trkpt><trkpt lat="42.368237981518334" lon="12.129451000056639"><ele>573.2</ele><time>2026-04-28T16:18:28Z</time></trkpt><trkpt lat="42.368322301449226" lon="12.129490811017831"><ele>573.6</ele><time>2026-04-28T16:18:30Z</time></trkpt><trkpt lat="42.36840110963752" lon="12.129573104675636"><ele>574.0</ele><time>2026-04-28T16:18:32Z</time></trkpt><trkpt lat="42.36847991233721" lon="12.12968080604477"><ele>574.0</ele><time>2026-04-28T16:18:34Z</time></trkpt><trkpt lat="42.368535953400304" lon="12.129756097463677"><ele>574.0</ele><time>2026-04-28T16:18:36Z</time></trkpt><trkpt lat="42.36862064052415" lon="12.129856558331245"><ele>574.0</ele><time>2026-04-28T16:18:38Z</time></trkpt><trkpt lat="42.36872231918566" lon="12.12994045968929"><ele>574.0</ele><time>2026-04-28T16:18:40Z</time></trkpt><trkpt lat="42.368832622137006" lon="12.129992808824573"><ele>574.0</ele><time>2026-04-28T16:18:42Z</time></trkpt><trkpt lat="42.368959873746654" lon="12.129986618760178"><ele>574.5714285714286</ele><time>2026-04-28T16:18:44Z</time></trkpt><trkpt lat="42.36906131058066" lon="12.129948773155546"><ele>575.1428571428571</ele><time>2026-04-28T16:18:46Z</time></trkpt><trkpt lat="42.369121707439206" lon="12.129921806311359"><ele>575.7142857142858</ele><time>2026-04-28T16:18:47Z</time></trkpt><trkpt lat="42.36918992780901" lon="12.129886074504652"><ele>576.2857142857142</ele><time>2026-04-28T16:18:48Z</time></trkpt><trkpt lat="42.36925430621208" lon="12.129851799134421"><ele>576.8571428571429</ele><time>2026-04-28T16:18:49Z</time></trkpt><trkpt lat="42.3693195825287" lon="12.129824748207705"><ele>577.4285714285714</ele><time>2026-04-28T16:18:50Z</time></trkpt><trkpt lat="42.36938067431743" lon="12.129797345389045"><ele>578.0</ele><time>2026-04-28T16:18:51Z</time></trkpt><trkpt lat="42.369444397245104" lon="12.129775732036803"><ele>578.0</ele><time>2026-04-28T16:18:52Z</time></trkpt><trkpt lat="42.3695203349364" lon="12.129757797198115"><ele>578.0</ele><time>2026-04-28T16:18:53Z</time></trkpt><trkpt lat="42.369599332474536" lon="12.129758523128428"><ele>578.0</ele><time>2026-04-28T16:18:54Z</time></trkpt><trkpt lat="42.36967955370175" lon="12.129760641890728"><ele>578.0</ele><time>2026-04-28T16:18:55Z</time></trkpt><trkpt lat="42.36976461931878" lon="12.129764890769678"><ele>578.0</ele><time>2026-04-28T16:18:56Z</time></trkpt><trkpt lat="42.36984728792737" lon="12.129768391922871"><ele>578.0</ele><time>2026-04-28T16:18:57Z</time></trkpt><trkpt lat="42.369931291756565" lon="12.12976985550754"><ele>578.1666666666666</ele><time>2026-04-28T16:18:58Z</time></trkpt><trkpt lat="42.37001754964061" lon="12.129772434885815"><ele>578.3333333333333</ele><time>2026-04-28T16:18:59Z</time></trkpt><trkpt lat="42.37010330370764" lon="12.129774501119368"><ele>578.5</ele><time>2026-04-28T16:19:00Z</time></trkpt><trkpt lat="42.37018908143138" lon="12.129773474250927"><ele>578.6666666666666</ele><time>2026-04-28T16:19:01Z</time></trkpt><trkpt lat="42.37027174642713" lon="12.129771353577448"><ele>578.8333333333334</ele><time>2026-04-28T16:19:02Z</time></trkpt><trkpt lat="42.37035083937296" lon="12.129760661878688"><ele>579.0</ele><time>2026-04-28T16:19:03Z</time></trkpt><trkpt lat="42.37042588112608" lon="12.129742377298243"><ele>579.0</ele><time>2026-04-28T16:19:04Z</time></trkpt><trkpt lat="42.370503567797044" lon="12.129728935059342"><ele>579.0</ele><time>2026-04-28T16:19:05Z</time></trkpt><trkpt lat="42.37058198439155" lon="12.129719433845437"><ele>579.0</ele><time>2026-04-28T16:19:06Z</time></trkpt><trkpt lat="42.370658818262605" lon="12.129713674247235"><ele>579.0</ele><time>2026-04-28T16:19:07Z</time></trkpt><trkpt lat="42.370730920461966" lon="12.129707059265534"><ele>579.0</ele><time>2026-04-28T16:19:08Z</time></trkpt><trkpt lat="42.37080331136014" lon="12.129699972137125"><ele>579.0</ele><time>2026-04-28T16:19:09Z</time></trkpt><trkpt lat="42.370882105489116" lon="12.129698139332385"><ele>578.8333333333334</ele><time>2026-04-28T16:19:10Z</time></trkpt><trkpt lat="42.37097416554281" lon="12.129700860106116"><ele>578.6666666666666</ele><time>2026-04-28T16:19:11Z</time></trkpt><trkpt lat="42.37106157585774" lon="12.129712092184745"><ele>578.5</ele><time>2026-04-28T16:19:12Z</time></trkpt><trkpt lat="42.3711484628902" lon="12.1297249441704"><ele>578.3333333333333</ele><time>2026-04-28T16:19:13Z</time></trkpt><trkpt lat="42.37123778964833" lon="12.129737991482086"><ele>578.1666666666666</ele><time>2026-04-28T16:19:14Z</time></trkpt><trkpt lat="42.37132690667683" lon="12.129752453359089"><ele>578.0</ele><time>2026-04-28T16:19:15Z</time></trkpt><trkpt lat="42.371415826579444" lon="12.129770089348526"><ele>576.8333333333333</ele><time>2026-04-28T16:19:16Z</time></trkpt><trkpt lat="42.37150443045271" lon="12.129787458756562"><ele>575.6666666666666</ele><time>2026-04-28T16:19:17Z</time></trkpt><trkpt lat="42.371586128707754" lon="12.129803286872065"><ele>574.5</ele><time>2026-04-28T16:19:18Z</time></trkpt><trkpt lat="42.371662243305686" lon="12.12981703832696"><ele>573.3333333333334</ele><time>2026-04-28T16:19:19Z</time></trkpt><trkpt lat="42.371733014450406" lon="12.12981609320552"><ele>572.1666666666667</ele><time>2026-04-28T16:19:20Z</time></trkpt><trkpt lat="42.37179785555145" lon="12.129779105030513"><ele>571.0</ele><time>2026-04-28T16:19:21Z</time></trkpt><trkpt lat="42.37185175658224" lon="12.129696491150339"><ele>571.0</ele><time>2026-04-28T16:19:22Z</time></trkpt><trkpt lat="42.371903520050545" lon="12.129585499431917"><ele>571.0</ele><time>2026-04-28T16:19:23Z</time></trkpt><trkpt lat="42.371935364939716" lon="12.129460335502449"><ele>571.0</ele><time>2026-04-28T16:19:24Z</time></trkpt><trkpt lat="42.37195490608603" lon="12.129323481108996"><ele>571.0</ele><time>2026-04-28T16:19:25Z</time></trkpt><trkpt lat="42.37197743339466" lon="12.12917147344318"><ele>571.0</ele><time>2026-04-28T16:19:26Z</time></trkpt><trkpt lat="42.3720139955467" lon="12.129012916034675"><ele>569.5</ele><time>2026-04-28T16:19:27Z</time></trkpt><trkpt lat="42.37204975248236" lon="12.128844440627915"><ele>568.0</ele><time>2026-04-28T16:19:28Z</time></trkpt><trkpt lat="42.37208853991889" lon="12.128672806371089"><ele>566.5</ele><time>2026-04-28T16:19:29Z</time></trkpt><trkpt lat="42.3721252149903" lon="12.128500462144052"><ele>565.0</ele><time>2026-04-28T16:19:30Z</time></trkpt><trkpt lat="42.3721637467164" lon="12.128326140230394"><ele>561.75</ele><time>2026-04-28T16:19:31Z</time></trkpt><trkpt lat="42.37219990767095" lon="12.128149162166025"><ele>558.5</ele><time>2026-04-28T16:19:32Z</time></trkpt><trkpt lat="42.3722391928133" lon="12.127969766989771"><ele>555.25</ele><time>2026-04-28T16:19:33Z</time></trkpt><trkpt lat="42.37227380481222" lon="12.127789608885562"><ele>552.0</ele><time>2026-04-28T16:19:34Z</time></trkpt><trkpt lat="42.372310437977355" lon="12.127620151893769"><ele>552.0</ele><time>2026-04-28T16:19:35Z</time></trkpt><trkpt lat="42.372348680644635" lon="12.127456666283628"><ele>552.0</ele><time>2026-04-28T16:19:36Z</time></trkpt><trkpt lat="42.37238622152326" lon="12.127295615735111"><ele>552.0</ele><time>2026-04-28T16:19:37Z</time></trkpt><trkpt lat="42.37242069520844" lon="12.127140796172325"><ele>552.0</ele><time>2026-04-28T16:19:38Z</time></trkpt><trkpt lat="42.372454561002584" lon="12.126991435120653"><ele>550.75</ele><time>2026-04-28T16:19:39Z</time></trkpt><trkpt lat="42.37248593207139" lon="12.12684179980367"><ele>549.5</ele><time>2026-04-28T16:19:40Z</time></trkpt><trkpt lat="42.37251266585" lon="12.126686626813509"><ele>548.25</ele><time>2026-04-28T16:19:41Z</time></trkpt><trkpt lat="42.3725460740051" lon="12.126533305859788"><ele>547.0</ele><time>2026-04-28T16:19:42Z</time></trkpt><trkpt lat="42.372579609747724" lon="12.126386058027922"><ele>544.8000000000001</ele><time>2026-04-28T16:19:43Z</time></trkpt><trkpt lat="42.37261012970967" lon="12.126239192966764"><ele>542.6</ele><time>2026-04-28T16:19:44Z</time></trkpt><trkpt lat="42.37263874046488" lon="12.12610409728964"><ele>540.4000000000001</ele><time>2026-04-28T16:19:45Z</time></trkpt><trkpt lat="42.372661401105134" lon="12.125977742841425"><ele>538.2</ele><time>2026-04-28T16:19:46Z</time></trkpt><trkpt lat="42.372677580080136" lon="12.125859637596971"><ele>536.0</ele><time>2026-04-28T16:19:47Z</time></trkpt><trkpt lat="42.37267457052027" lon="12.12574364064955"><ele>534.5</ele><time>2026-04-28T16:19:48Z</time></trkpt><trkpt lat="42.372656897444024" lon="12.125634924838739"><ele>533.0</ele><time>2026-04-28T16:19:49Z</time></trkpt><trkpt lat="42.37263117767022" lon="12.125541504626028"><ele>531.5</ele><time>2026-04-28T16:19:50Z</time></trkpt><trkpt lat="42.372601748410545" lon="12.125465351087765"><ele>530.0</ele><time>2026-04-28T16:19:51Z</time></trkpt><trkpt lat="42.3725412878745" lon="12.1253328590102"><ele>528.5</ele><time>2026-04-28T16:19:53Z</time></trkpt><trkpt lat="42.37248237416781" lon="12.125214332435315"><ele>527.0</ele><time>2026-04-28T16:19:55Z</time></trkpt><trkpt lat="42.372486554819794" lon="12.125113550903754"><ele>527.0</ele><time>2026-04-28T16:19:59Z</time></trkpt><trkpt lat="42.37262389979101" lon="12.12506231792671"><ele>527.0</ele><time>2026-04-28T16:20:01Z</time></trkpt><trkpt lat="42.37269518324623" lon="12.12502425691878"><ele>527.0</ele><time>2026-04-28T16:20:02Z</time></trkpt><trkpt lat="42.372783309883" lon="12.124988065887813"><ele>527.0</ele><time>2026-04-28T16:20:03Z</time></trkpt><trkpt lat="42.37287616446092" lon="12.124951424266506"><ele>527.0</ele><time>2026-04-28T16:20:04Z</time></trkpt><trkpt lat="42.37297781204638" lon="12.12491311614537"><ele>523.5</ele><time>2026-04-28T16:20:05Z</time></trkpt><trkpt lat="42.3730912896853" lon="12.124882658371394"><ele>520.0</ele><time>2026-04-28T16:20:06Z</time></trkpt><trkpt lat="42.373208945685356" lon="12.124854043604971"><ele>516.5</ele><time>2026-04-28T16:20:07.001Z</time></trkpt><trkpt lat="42.373333378924826" lon="12.124847609548198"><ele>513.0</ele><time>2026-04-28T16:20:08.001Z</time></trkpt><trkpt lat="42.37345449955244" lon="12.124849871658833"><ele>513.0</ele><time>2026-04-28T16:20:09.001Z</time></trkpt><trkpt lat="42.37357693662902" lon="12.124858765075018"><ele>513.0</ele><time>2026-04-28T16:20:10.001Z</time></trkpt><trkpt lat="42.373707474087716" lon="12.12486377944725"><ele>513.0</ele><time>2026-04-28T16:20:11.001Z</time></trkpt><trkpt lat="42.37384221925961" lon="12.124879010871165"><ele>513.0</ele><time>2026-04-28T16:20:12.001Z</time></trkpt><trkpt lat="42.37398536480338" lon="12.124906108800335"><ele>513.5</ele><time>2026-04-28T16:20:13.001Z</time></trkpt><trkpt lat="42.37412496057576" lon="12.12494523352446"><ele>514.0</ele><time>2026-04-28T16:20:14.001Z</time></trkpt><trkpt lat="42.3742670431904" lon="12.124993486271133"><ele>514.5</ele><time>2026-04-28T16:20:15.001Z</time></trkpt><trkpt lat="42.374412282667194" lon="12.125046720582725"><ele>515.0</ele><time>2026-04-28T16:20:16.001Z</time></trkpt><trkpt lat="42.374560509215435" lon="12.12510435564096"><ele>511.0</ele><time>2026-04-28T16:20:17.001Z</time></trkpt><trkpt lat="42.374706160936825" lon="12.125171138463092"><ele>507.0</ele><time>2026-04-28T16:20:18.001Z</time></trkpt><trkpt lat="42.37485051516776" lon="12.125253987713984"><ele>503.0</ele><time>2026-04-28T16:20:19.001Z</time></trkpt><trkpt lat="42.37499245359115" lon="12.125342917249226"><ele>503.0</ele><time>2026-04-28T16:20:20.001Z</time></trkpt><trkpt lat="42.37514251808801" lon="12.125429743516198"><ele>503.0</ele><time>2026-04-28T16:20:21.001Z</time></trkpt><trkpt lat="42.37529316514094" lon="12.125512745679792"><ele>503.0</ele><time>2026-04-28T16:20:22.001Z</time></trkpt><trkpt lat="42.37544895352692" lon="12.125601563569136"><ele>502.0</ele><time>2026-04-28T16:20:23.001Z</time></trkpt><trkpt lat="42.37560508845706" lon="12.125693119016367"><ele>501.0</ele><time>2026-04-28T16:20:24.001Z</time></trkpt><trkpt lat="42.375759143564466" lon="12.12577899614855"><ele>500.0</ele><time>2026-04-28T16:20:25.001Z</time></trkpt><trkpt lat="42.37591666743225" lon="12.125864721449902"><ele>500.0</ele><time>2026-04-28T16:20:26.001Z</time></trkpt><trkpt lat="42.37606899577339" lon="12.125948907934783"><ele>500.0</ele><time>2026-04-28T16:20:27.001Z</time></trkpt><trkpt lat="42.37622129258373" lon="12.12602539255743"><ele>500.0</ele><time>2026-04-28T16:20:28.001Z</time></trkpt><trkpt lat="42.37637994870607" lon="12.126089069326733"><ele>498.0</ele><time>2026-04-28T16:20:29.001Z</time></trkpt><trkpt lat="42.37654210024841" lon="12.126136828841394"><ele>496.0</ele><time>2026-04-28T16:20:30.001Z</time></trkpt><trkpt lat="42.37670938629891" lon="12.126163673046774"><ele>494.0</ele><time>2026-04-28T16:20:31.001Z</time></trkpt><trkpt lat="42.37687497336673" lon="12.126177303776364"><ele>494.0</ele><time>2026-04-28T16:20:32.001Z</time></trkpt><trkpt lat="42.377026940256094" lon="12.12617686420903"><ele>494.0</ele><time>2026-04-28T16:20:33.001Z</time></trkpt><trkpt lat="42.37716889172124" lon="12.126164531031323"><ele>494.0</ele><time>2026-04-28T16:20:34.001Z</time></trkpt><trkpt lat="42.37730443784906" lon="12.126140086327535"><ele>494.0</ele><time>2026-04-28T16:20:35.001Z</time></trkpt><trkpt lat="42.377437666980285" lon="12.126119587847386"><ele>492.75</ele><time>2026-04-28T16:20:36.001Z</time></trkpt><trkpt lat="42.37756591524096" lon="12.126091010607619"><ele>491.5</ele><time>2026-04-28T16:20:37.001Z</time></trkpt><trkpt lat="42.377688617236856" lon="12.126055337277226"><ele>490.25</ele><time>2026-04-28T16:20:38.001Z</time></trkpt><trkpt lat="42.37780721638857" lon="12.12602355825287"><ele>489.0</ele><time>2026-04-28T16:20:39.001Z</time></trkpt><trkpt lat="42.37792482864946" lon="12.125995944348592"><ele>489.25</ele><time>2026-04-28T16:20:40.001Z</time></trkpt><trkpt lat="42.378046788983454" lon="12.125967789716903"><ele>489.5</ele><time>2026-04-28T16:20:41.001Z</time></trkpt><trkpt lat="42.37816502499833" lon="12.125940332610197"><ele>489.75</ele><time>2026-04-28T16:20:42.001Z</time></trkpt><trkpt lat="42.37828759672385" lon="12.12591029350009"><ele>490.0</ele><time>2026-04-28T16:20:43.001Z</time></trkpt><trkpt lat="42.378414503267095" lon="12.125877905255537"><ele>490.0</ele><time>2026-04-28T16:20:44.001Z</time></trkpt><trkpt lat="42.37853912481572" lon="12.125850682019665"><ele>490.0</ele><time>2026-04-28T16:20:45.001Z</time></trkpt><trkpt lat="42.37865967554872" lon="12.125821228494578"><ele>490.0</ele><time>2026-04-28T16:20:46.001Z</time></trkpt><trkpt lat="42.378776742755385" lon="12.125791862032564"><ele>490.0</ele><time>2026-04-28T16:20:47.001Z</time></trkpt><trkpt lat="42.378891222270774" lon="12.125766726319696"><ele>489.8</ele><time>2026-04-28T16:20:48.001Z</time></trkpt><trkpt lat="42.37900264468782" lon="12.125740301496432"><ele>489.6</ele><time>2026-04-28T16:20:49.001Z</time></trkpt><trkpt lat="42.37911048425149" lon="12.12571104967246"><ele>489.4</ele><time>2026-04-28T16:20:50.001Z</time></trkpt><trkpt lat="42.37921732179255" lon="12.12568298343828"><ele>489.2</ele><time>2026-04-28T16:20:51.001Z</time></trkpt><trkpt lat="42.37932085035431" lon="12.12565779061521"><ele>489.0</ele><time>2026-04-28T16:20:52.001Z</time></trkpt><trkpt lat="42.37942360331633" lon="12.125635087799894"><ele>489.0</ele><time>2026-04-28T16:20:53.001Z</time></trkpt><trkpt lat="42.37952453228612" lon="12.125613189761241"><ele>489.0</ele><time>2026-04-28T16:20:54.001Z</time></trkpt><trkpt lat="42.379623390563886" lon="12.125593368989941"><ele>489.0</ele><time>2026-04-28T16:20:55.001Z</time></trkpt><trkpt lat="42.37971948443854" lon="12.125572513419188"><ele>489.0</ele><time>2026-04-28T16:20:56.001Z</time></trkpt><trkpt lat="42.379813812768944" lon="12.125542501982528"><ele>489.0</ele><time>2026-04-28T16:20:57.001Z</time></trkpt><trkpt lat="42.37990627448414" lon="12.125517236432431"><ele>488.6666666666667</ele><time>2026-04-28T16:20:58.001Z</time></trkpt><trkpt lat="42.37999881753984" lon="12.12549745997806"><ele>488.33333333333337</ele><time>2026-04-28T16:20:59.001Z</time></trkpt><trkpt lat="42.380088028068755" lon="12.125476046798724"><ele>488.0</ele><time>2026-04-28T16:21:00.001Z</time></trkpt><trkpt lat="42.38017173623668" lon="12.125452349093695"><ele>487.6666666666667</ele><time>2026-04-28T16:21:01.001Z</time></trkpt><trkpt lat="42.380253556918404" lon="12.125432706230802"><ele>487.33333333333337</ele><time>2026-04-28T16:21:02.001Z</time></trkpt><trkpt lat="42.380337868547244" lon="12.12542668881358"><ele>487.0</ele><time>2026-04-28T16:21:03.001Z</time></trkpt><trkpt lat="42.38042606674138" lon="12.125413888600068"><ele>486.20000000000005</ele><time>2026-04-28T16:21:04.001Z</time></trkpt><trkpt lat="42.380517990730446" lon="12.125381235923502"><ele>485.40000000000003</ele><time>2026-04-28T16:21:05.001Z</time></trkpt><trkpt lat="42.38062211369457" lon="12.12534810477216"><ele>484.59999999999997</ele><time>2026-04-28T16:21:06.001Z</time></trkpt><trkpt lat="42.38073470815709" lon="12.12531111399711"><ele>483.79999999999995</ele><time>2026-04-28T16:21:07.001Z</time></trkpt><trkpt lat="42.38085209754671" lon="12.125265705470367"><ele>483.0</ele><time>2026-04-28T16:21:08.001Z</time></trkpt><trkpt lat="42.38097321808398" lon="12.125216842096657"><ele>483.0</ele><time>2026-04-28T16:21:09.001Z</time></trkpt><trkpt lat="42.381092908405755" lon="12.125176542856465"><ele>483.0</ele><time>2026-04-28T16:21:10.001Z</time></trkpt><trkpt lat="42.38120317585035" lon="12.125136088992214"><ele>483.0</ele><time>2026-04-28T16:21:11.001Z</time></trkpt><trkpt lat="42.38130736289663" lon="12.125096043531752"><ele>483.0</ele><time>2026-04-28T16:21:12.001Z</time></trkpt><trkpt lat="42.38140856966803" lon="12.125055352623779"><ele>482.25</ele><time>2026-04-28T16:21:13.001Z</time></trkpt><trkpt lat="42.38151251464673" lon="12.125017112637172"><ele>481.5</ele><time>2026-04-28T16:21:14.001Z</time></trkpt><trkpt lat="42.38162237586056" lon="12.124975121237005"><ele>480.75</ele><time>2026-04-28T16:21:15.001Z</time></trkpt><trkpt lat="42.38173627903732" lon="12.124926549650288"><ele>480.0</ele><time>2026-04-28T16:21:16.001Z</time></trkpt><trkpt lat="42.38185993753921" lon="12.124878153891807"><ele>480.0</ele><time>2026-04-28T16:21:17.001Z</time></trkpt><trkpt lat="42.38198588535848" lon="12.124829943814158"><ele>480.0</ele><time>2026-04-28T16:21:18.001Z</time></trkpt><trkpt lat="42.382117031123535" lon="12.12477712960939"><ele>480.0</ele><time>2026-04-28T16:21:19.001Z</time></trkpt><trkpt lat="42.382259872584356" lon="12.124719325568035"><ele>480.0</ele><time>2026-04-28T16:21:20.001Z</time></trkpt><trkpt lat="42.38241278749146" lon="12.124662314328676"><ele>481.33333333333337</ele><time>2026-04-28T16:21:21.001Z</time></trkpt><trkpt lat="42.382581679133445" lon="12.124601394558308"><ele>482.6666666666667</ele><time>2026-04-28T16:21:22.001Z</time></trkpt><trkpt lat="42.38276279084938" lon="12.124532803809796"><ele>484.0</ele><time>2026-04-28T16:21:23.001Z</time></trkpt><trkpt lat="42.38295612076769" lon="12.124458671561799"><ele>483.6666666666667</ele><time>2026-04-28T16:21:24.001Z</time></trkpt><trkpt lat="42.38315584815106" lon="12.124377001712114"><ele>483.33333333333337</ele><time>2026-04-28T16:21:25.001Z</time></trkpt><trkpt lat="42.38335398318417" lon="12.12429926663606"><ele>483.0</ele><time>2026-04-28T16:21:26.001Z</time></trkpt><trkpt lat="42.383546799289235" lon="12.124222286296295"><ele>483.0</ele><time>2026-04-28T16:21:27.001Z</time></trkpt><trkpt lat="42.38374071651386" lon="12.124145047887211"><ele>483.0</ele><time>2026-04-28T16:21:28.001Z</time></trkpt><trkpt lat="42.38393369410846" lon="12.124070495867135"><ele>483.0</ele><time>2026-04-28T16:21:29.001Z</time></trkpt><trkpt lat="42.38411928138542" lon="12.123998401108366"><ele>480.66666666666663</ele><time>2026-04-28T16:21:30.001Z</time></trkpt><trkpt lat="42.3842947536643" lon="12.123932114468131"><ele>478.3333333333333</ele><time>2026-04-28T16:21:31.001Z</time></trkpt><trkpt lat="42.38447047483882" lon="12.123864285586203"><ele>476.0</ele><time>2026-04-28T16:21:32.001Z</time></trkpt><trkpt lat="42.38464379658929" lon="12.12380044582791"><ele>476.3333333333333</ele><time>2026-04-28T16:21:33.001Z</time></trkpt><trkpt lat="42.384808177929976" lon="12.123740095289262"><ele>476.66666666666663</ele><time>2026-04-28T16:21:34.001Z</time></trkpt><trkpt lat="42.38496821668831" lon="12.12367758610297"><ele>477.0</ele><time>2026-04-28T16:21:35.001Z</time></trkpt><trkpt lat="42.3851207498905" lon="12.123618417954727"><ele>477.0</ele><time>2026-04-28T16:21:36.001Z</time></trkpt><trkpt lat="42.38526048460922" lon="12.123564017630938"><ele>477.0</ele><time>2026-04-28T16:21:37.001Z</time></trkpt><trkpt lat="42.38538559704116" lon="12.123513341955743"><ele>477.0</ele><time>2026-04-28T16:21:38.001Z</time></trkpt><trkpt lat="42.38549422776822" lon="12.12347516799782"><ele>477.0</ele><time>2026-04-28T16:21:39.001Z</time></trkpt><trkpt lat="42.385595095998575" lon="12.123460304397232"><ele>475.20000000000005</ele><time>2026-04-28T16:21:40.001Z</time></trkpt><trkpt lat="42.38569308463269" lon="12.12347051481405"><ele>473.40000000000003</ele><time>2026-04-28T16:21:41.001Z</time></trkpt><trkpt lat="42.38578119696489" lon="12.123531224422848"><ele>471.59999999999997</ele><time>2026-04-28T16:21:42.001Z</time></trkpt><trkpt lat="42.38585276270351" lon="12.123632558744317"><ele>469.79999999999995</ele><time>2026-04-28T16:21:43.001Z</time></trkpt><trkpt lat="42.385916151899444" lon="12.123760053803514"><ele>468.0</ele><time>2026-04-28T16:21:44.001Z</time></trkpt><trkpt lat="42.385997740565344" lon="12.123866520325075"><ele>468.0</ele><time>2026-04-28T16:21:45.001Z</time></trkpt><trkpt lat="42.38610012931901" lon="12.123936553520004"><ele>468.0</ele><time>2026-04-28T16:21:46.001Z</time></trkpt><trkpt lat="42.386221018061214" lon="12.123964951757333"><ele>468.0</ele><time>2026-04-28T16:21:47.001Z</time></trkpt><trkpt lat="42.38635541544422" lon="12.123961347868653"><ele>468.0</ele><time>2026-04-28T16:21:48.001Z</time></trkpt><trkpt lat="42.38650387104998" lon="12.1239472330709"><ele>464.33333333333337</ele><time>2026-04-28T16:21:49.001Z</time></trkpt><trkpt lat="42.38666607271965" lon="12.123938615408926"><ele>460.6666666666667</ele><time>2026-04-28T16:21:50.001Z</time></trkpt><trkpt lat="42.38681985789003" lon="12.123933384847762"><ele>457.0</ele><time>2026-04-28T16:21:51.001Z</time></trkpt><trkpt lat="42.38695834089956" lon="12.12392296822887"><ele>457.0</ele><time>2026-04-28T16:21:52.001Z</time></trkpt><trkpt lat="42.387082428885" lon="12.123887023528404"><ele>457.0</ele><time>2026-04-28T16:21:53.001Z</time></trkpt><trkpt lat="42.38719306525553" lon="12.123817510941608"><ele>457.0</ele><time>2026-04-28T16:21:54.001Z</time></trkpt><trkpt lat="42.38728698168974" lon="12.12370657528217"><ele>457.0</ele><time>2026-04-28T16:21:55.001Z</time></trkpt><trkpt lat="42.38735700785498" lon="12.123558160031509"><ele>457.0</ele><time>2026-04-28T16:21:56.001Z</time></trkpt><trkpt lat="42.387410837873816" lon="12.123386291722053"><ele>457.0</ele><time>2026-04-28T16:21:57.001Z</time></trkpt><trkpt lat="42.38746958259332" lon="12.123186895959257"><ele>457.0</ele><time>2026-04-28T16:21:58.001Z</time></trkpt><trkpt lat="42.38753459027278" lon="12.122959362310409"><ele>457.0</ele><time>2026-04-28T16:21:59.001Z</time></trkpt><trkpt lat="42.38761062891888" lon="12.12270129884102"><ele>457.0</ele><time>2026-04-28T16:22:00.001Z</time></trkpt><trkpt lat="42.387689121188785" lon="12.122429228864055"><ele>457.0</ele><time>2026-04-28T16:22:01.001Z</time></trkpt><trkpt lat="42.38776255307447" lon="12.122180409891254"><ele>454.6666666666667</ele><time>2026-04-28T16:22:02.001Z</time></trkpt><trkpt lat="42.3878310329327" lon="12.121945410167617"><ele>452.33333333333337</ele><time>2026-04-28T16:22:03.001Z</time></trkpt><trkpt lat="42.38789555443113" lon="12.121732191482232"><ele>450.0</ele><time>2026-04-28T16:22:04.001Z</time></trkpt><trkpt lat="42.38795205342867" lon="12.121545618507383"><ele>447.8</ele><time>2026-04-28T16:22:05.001Z</time></trkpt><trkpt lat="42.3880105656482" lon="12.121410997851317"><ele>445.6</ele><time>2026-04-28T16:22:06.001Z</time></trkpt><trkpt lat="42.38807479667935" lon="12.121298864055493"><ele>443.4</ele><time>2026-04-28T16:22:07.001Z</time></trkpt><trkpt lat="42.38815026778756" lon="12.121224991805667"><ele>441.2</ele><time>2026-04-28T16:22:08.001Z</time></trkpt><trkpt lat="42.38823996226342" lon="12.121172773936426"><ele>439.0</ele><time>2026-04-28T16:22:09.001Z</time></trkpt><trkpt lat="42.38834639877436" lon="12.121156335604997"><ele>439.0</ele><time>2026-04-28T16:22:10.001Z</time></trkpt><trkpt lat="42.38845379346194" lon="12.121186805076292"><ele>439.0</ele><time>2026-04-28T16:22:11.001Z</time></trkpt><trkpt lat="42.388551787322776" lon="12.12126635262328"><ele>439.0</ele><time>2026-04-28T16:22:12.001Z</time></trkpt><trkpt lat="42.38864159895603" lon="12.121384559479173"><ele>439.0</ele><time>2026-04-28T16:22:13.001Z</time></trkpt><trkpt lat="42.38869390244406" lon="12.121514229730053"><ele>440.5</ele><time>2026-04-28T16:22:14.001Z</time></trkpt><trkpt lat="42.388701918223596" lon="12.12168291214254"><ele>442.0</ele><time>2026-04-28T16:22:15.001Z</time></trkpt><trkpt lat="42.388708041461825" lon="12.12188614395011"><ele>443.5</ele><time>2026-04-28T16:22:16.001Z</time></trkpt><trkpt lat="42.388712297662664" lon="12.122113889499014"><ele>445.0</ele><time>2026-04-28T16:22:17.001Z</time></trkpt><trkpt lat="42.388735452296295" lon="12.122296843146433"><ele>445.5</ele><time>2026-04-28T16:22:18.001Z</time></trkpt><trkpt lat="42.38876286303122" lon="12.12244478644373"><ele>446.0</ele><time>2026-04-28T16:22:19.001Z</time></trkpt><trkpt lat="42.388825274007836" lon="12.12256472074017"><ele>446.5</ele><time>2026-04-28T16:22:20.001Z</time></trkpt><trkpt lat="42.388915146906164" lon="12.12265597004441"><ele>447.0</ele><time>2026-04-28T16:22:21.001Z</time></trkpt><trkpt lat="42.38904120060074" lon="12.122714380252795"><ele>443.66666666666663</ele><time>2026-04-28T16:22:22.001Z</time></trkpt><trkpt lat="42.38919891571278" lon="12.12276008730748"><ele>440.3333333333333</ele><time>2026-04-28T16:22:23.001Z</time></trkpt><trkpt lat="42.38936969436984" lon="12.12281190845625"><ele>437.0</ele><time>2026-04-28T16:22:24.001Z</time></trkpt><trkpt lat="42.389541776189425" lon="12.122870278391154"><ele>437.5</ele><time>2026-04-28T16:22:25.001Z</time></trkpt><trkpt lat="42.389691896217286" lon="12.122914835957816"><ele>438.0</ele><time>2026-04-28T16:22:26.001Z</time></trkpt><trkpt lat="42.38983368024943" lon="12.12292704651947"><ele>438.5</ele><time>2026-04-28T16:22:27.001Z</time></trkpt><trkpt lat="42.38996985212294" lon="12.122885234104515"><ele>439.0</ele><time>2026-04-28T16:22:28.001Z</time></trkpt><trkpt lat="42.390091449838486" lon="12.122788723874123"><ele>439.0</ele><time>2026-04-28T16:22:29.001Z</time></trkpt><trkpt lat="42.39018956652437" lon="12.122661377709184"><ele>439.0</ele><time>2026-04-28T16:22:30.001Z</time></trkpt><trkpt lat="42.39026206770112" lon="12.122496022462371"><ele>439.0</ele><time>2026-04-28T16:22:31.001Z</time></trkpt><trkpt lat="42.390325457374914" lon="12.122312413435191"><ele>439.0</ele><time>2026-04-28T16:22:32.001Z</time></trkpt><trkpt lat="42.390390470726054" lon="12.122148328198547"><ele>438.25</ele><time>2026-04-28T16:22:33.001Z</time></trkpt><trkpt lat="42.390474544685034" lon="12.12203312312743"><ele>437.5</ele><time>2026-04-28T16:22:34.001Z</time></trkpt><trkpt lat="42.39058389688703" lon="12.121950026617666"><ele>436.75</ele><time>2026-04-28T16:22:35.001Z</time></trkpt><trkpt lat="42.39071027903307" lon="12.121906289290324"><ele>436.0</ele><time>2026-04-28T16:22:36.001Z</time></trkpt><trkpt lat="42.39084651703676" lon="12.12189772792166"><ele>440.6666666666667</ele><time>2026-04-28T16:22:37.001Z</time></trkpt><trkpt lat="42.390990691274155" lon="12.121921376390837"><ele>445.33333333333337</ele><time>2026-04-28T16:22:38.001Z</time></trkpt><trkpt lat="42.391148119302535" lon="12.121973605453945"><ele>450.0</ele><time>2026-04-28T16:22:39.001Z</time></trkpt><trkpt lat="42.39131419519542" lon="12.122040126736014"><ele>451.33333333333337</ele><time>2026-04-28T16:22:40.001Z</time></trkpt><trkpt lat="42.39148543813162" lon="12.12211264486136"><ele>452.6666666666667</ele><time>2026-04-28T16:22:41.001Z</time></trkpt><trkpt lat="42.391651208490366" lon="12.12218469450888"><ele>454.0</ele><time>2026-04-28T16:22:42.001Z</time></trkpt><trkpt lat="42.391806816018644" lon="12.122255414870741"><ele>454.0</ele><time>2026-04-28T16:22:43.001Z</time></trkpt><trkpt lat="42.39195402292839" lon="12.122306385050031"><ele>454.0</ele><time>2026-04-28T16:22:44.001Z</time></trkpt><trkpt lat="42.39210900499698" lon="12.122323944308302"><ele>454.0</ele><time>2026-04-28T16:22:45.001Z</time></trkpt><trkpt lat="42.39227664583245" lon="12.12230831578792"><ele>453.0</ele><time>2026-04-28T16:22:46.001Z</time></trkpt><trkpt lat="42.392443353720665" lon="12.122271144499486"><ele>452.0</ele><time>2026-04-28T16:22:47.001Z</time></trkpt><trkpt lat="42.392602318864526" lon="12.12220696966048"><ele>451.0</ele><time>2026-04-28T16:22:48.001Z</time></trkpt><trkpt lat="42.39276027642182" lon="12.12211878776456"><ele>451.0</ele><time>2026-04-28T16:22:49.001Z</time></trkpt><trkpt lat="42.392910570006315" lon="12.121996514988904"><ele>451.0</ele><time>2026-04-28T16:22:50.001Z</time></trkpt><trkpt lat="42.39305767528776" lon="12.1218523094968"><ele>451.0</ele><time>2026-04-28T16:22:51.001Z</time></trkpt><trkpt lat="42.393190193820985" lon="12.121706183684937"><ele>450.0</ele><time>2026-04-28T16:22:52.001Z</time></trkpt><trkpt lat="42.39331647686573" lon="12.121569662134347"><ele>449.0</ele><time>2026-04-28T16:22:53.001Z</time></trkpt><trkpt lat="42.393449939201105" lon="12.121450655304056"><ele>448.0</ele><time>2026-04-28T16:22:54.001Z</time></trkpt><trkpt lat="42.39360217386825" lon="12.121356147492122"><ele>444.6666666666667</ele><time>2026-04-28T16:22:55.001Z</time></trkpt><trkpt lat="42.39375110585787" lon="12.12130590779996"><ele>441.33333333333337</ele><time>2026-04-28T16:22:56.001Z</time></trkpt><trkpt lat="42.393897282579495" lon="12.121280605038669"><ele>438.0</ele><time>2026-04-28T16:22:57.001Z</time></trkpt><trkpt lat="42.39405153276712" lon="12.121287161411178"><ele>435.66666666666663</ele><time>2026-04-28T16:22:58.001Z</time></trkpt><trkpt lat="42.39421145881369" lon="12.121329788686607"><ele>433.3333333333333</ele><time>2026-04-28T16:22:59.001Z</time></trkpt><trkpt lat="42.39436321695503" lon="12.12139370759885"><ele>431.0</ele><time>2026-04-28T16:23:00.001Z</time></trkpt><trkpt lat="42.394497003564" lon="12.12145269995811"><ele>431.0</ele><time>2026-04-28T16:23:01.001Z</time></trkpt><trkpt lat="42.3946194501202" lon="12.121503084119555"><ele>431.0</ele><time>2026-04-28T16:23:02.001Z</time></trkpt><trkpt lat="42.394741145060536" lon="12.121543492662564"><ele>431.0</ele><time>2026-04-28T16:23:03.001Z</time></trkpt><trkpt lat="42.39486430368526" lon="12.121575256278126"><ele>431.0</ele><time>2026-04-28T16:23:04.001Z</time></trkpt><trkpt lat="42.394992491244615" lon="12.12158779814705"><ele>430.5</ele><time>2026-04-28T16:23:05.001Z</time></trkpt><trkpt lat="42.39512284984661" lon="12.121572818837038"><ele>430.0</ele><time>2026-04-28T16:23:06.001Z</time></trkpt><trkpt lat="42.395257871500604" lon="12.121534278176842"><ele>429.5</ele><time>2026-04-28T16:23:07.001Z</time></trkpt><trkpt lat="42.39537424102912" lon="12.121489120202602"><ele>429.0</ele><time>2026-04-28T16:23:08.001Z</time></trkpt><trkpt lat="42.395483463230505" lon="12.121449550825258"><ele>430.0</ele><time>2026-04-28T16:23:09.001Z</time></trkpt><trkpt lat="42.39559343345006" lon="12.121393260797367"><ele>431.0</ele><time>2026-04-28T16:23:10.001Z</time></trkpt><trkpt lat="42.39570127854391" lon="12.121330214265074"><ele>432.0</ele><time>2026-04-28T16:23:11.001Z</time></trkpt><trkpt lat="42.395810207264184" lon="12.121268225361847"><ele>433.0</ele><time>2026-04-28T16:23:12.001Z</time></trkpt><trkpt lat="42.39591958727763" lon="12.121208593139402"><ele>433.0</ele><time>2026-04-28T16:23:13.001Z</time></trkpt><trkpt lat="42.39602619318816" lon="12.121151072966214"><ele>432.99999999999994</ele><time>2026-04-28T16:23:14.001Z</time></trkpt><trkpt lat="42.396125816128716" lon="12.121095740433727"><ele>432.99999999999994</ele><time>2026-04-28T16:23:15.001Z</time></trkpt><trkpt lat="42.39622743017648" lon="12.121040235487252"><ele>433.0</ele><time>2026-04-28T16:23:16.001Z</time></trkpt><trkpt lat="42.39633606729736" lon="12.120983250966676"><ele>433.0</ele><time>2026-04-28T16:23:17.001Z</time></trkpt><trkpt lat="42.396448915797166" lon="12.12091604750055"><ele>433.5</ele><time>2026-04-28T16:23:18.001Z</time></trkpt><trkpt lat="42.396564203683575" lon="12.12084536788864"><ele>434.0</ele><time>2026-04-28T16:23:19.001Z</time></trkpt><trkpt lat="42.39667926170152" lon="12.120768599575849"><ele>434.5</ele><time>2026-04-28T16:23:20.001Z</time></trkpt><trkpt lat="42.396800259952684" lon="12.120670401697932"><ele>435.0</ele><time>2026-04-28T16:23:21.001Z</time></trkpt><trkpt lat="42.39693641049298" lon="12.120537666343147"><ele>435.33333333333337</ele><time>2026-04-28T16:23:22.001Z</time></trkpt><trkpt lat="42.39708779593467" lon="12.120369705025754"><ele>435.6666666666667</ele><time>2026-04-28T16:23:23.001Z</time></trkpt><trkpt lat="42.397251970318216" lon="12.120178990842872"><ele>436.0</ele><time>2026-04-28T16:23:24.001Z</time></trkpt><trkpt lat="42.397421646228025" lon="12.119981484502409"><ele>433.6666666666667</ele><time>2026-04-28T16:23:25.001Z</time></trkpt><trkpt lat="42.39759453013652" lon="12.11978186587616"><ele>431.33333333333337</ele><time>2026-04-28T16:23:26.001Z</time></trkpt><trkpt lat="42.397756371944354" lon="12.119594263114145"><ele>429.0</ele><time>2026-04-28T16:23:27.001Z</time></trkpt><trkpt lat="42.397912102609006" lon="12.119406033669227"><ele>429.33333333333337</ele><time>2026-04-28T16:23:28.001Z</time></trkpt><trkpt lat="42.39806467712052" lon="12.119224709956418"><ele>429.6666666666667</ele><time>2026-04-28T16:23:29.001Z</time></trkpt><trkpt lat="42.39821482816307" lon="12.119055232906021"><ele>430.0</ele><time>2026-04-28T16:23:30.001Z</time></trkpt><trkpt lat="42.39836536179076" lon="12.11889766681255"><ele>427.33333333333337</ele><time>2026-04-28T16:23:31.001Z</time></trkpt><trkpt lat="42.3985191470773" lon="12.118749453828773"><ele>424.66666666666663</ele><time>2026-04-28T16:23:32.001Z</time></trkpt><trkpt lat="42.39868887307289" lon="12.11860890124134"><ele>422.0</ele><time>2026-04-28T16:23:33.001Z</time></trkpt><trkpt lat="42.39886716074413" lon="12.118474150143898"><ele>422.0</ele><time>2026-04-28T16:23:34.001Z</time></trkpt><trkpt lat="42.39905799511694" lon="12.118339609022671"><ele>422.0</ele><time>2026-04-28T16:23:35.001Z</time></trkpt><trkpt lat="42.399247281118065" lon="12.118209945436138"><ele>422.0</ele><time>2026-04-28T16:23:36.001Z</time></trkpt><trkpt lat="42.39943413399881" lon="12.11807806328449"><ele>420.66666666666663</ele><time>2026-04-28T16:23:37.001Z</time></trkpt><trkpt lat="42.39962027395478" lon="12.117949790074778"><ele>419.33333333333337</ele><time>2026-04-28T16:23:38.001Z</time></trkpt><trkpt lat="42.399804276575935" lon="12.11781804563562"><ele>418.0</ele><time>2026-04-28T16:23:39.001Z</time></trkpt><trkpt lat="42.3999867155525" lon="12.117686177266584"><ele>418.0</ele><time>2026-04-28T16:23:40.001Z</time></trkpt><trkpt lat="42.40016324398729" lon="12.117561121625073"><ele>418.0</ele><time>2026-04-28T16:23:41.001Z</time></trkpt><trkpt lat="42.400325288289515" lon="12.11744479552867"><ele>418.0</ele><time>2026-04-28T16:23:42.001Z</time></trkpt><trkpt lat="42.40047003356632" lon="12.117341650063995"><ele>417.75</ele><time>2026-04-28T16:23:43.001Z</time></trkpt><trkpt lat="42.40060468908011" lon="12.117244549629214"><ele>417.5</ele><time>2026-04-28T16:23:44.001Z</time></trkpt><trkpt lat="42.400731416559246" lon="12.11715477482047"><ele>417.25</ele><time>2026-04-28T16:23:45.001Z</time></trkpt><trkpt lat="42.40085005792606" lon="12.1170732866692"><ele>417.0</ele><time>2026-04-28T16:23:46.001Z</time></trkpt><trkpt lat="42.4009612937995" lon="12.116998585870482"><ele>417.0</ele><time>2026-04-28T16:23:47.001Z</time></trkpt><trkpt lat="42.40106715486558" lon="12.116926798184323"><ele>417.0</ele><time>2026-04-28T16:23:48.001Z</time></trkpt><trkpt lat="42.40116864029782" lon="12.116858611557436"><ele>417.0</ele><time>2026-04-28T16:23:49.001Z</time></trkpt><trkpt lat="42.401275900838506" lon="12.116790136238986"><ele>417.0</ele><time>2026-04-28T16:23:50.001Z</time></trkpt><trkpt lat="42.40139700623132" lon="12.116712795753443"><ele>415.5</ele><time>2026-04-28T16:23:51.001Z</time></trkpt><trkpt lat="42.40153305992665" lon="12.116624467577411"><ele>414.0</ele><time>2026-04-28T16:23:52.001Z</time></trkpt><trkpt lat="42.401676391690685" lon="12.11653980359681"><ele>412.5</ele><time>2026-04-28T16:23:53.001Z</time></trkpt><trkpt lat="42.40180139314754" lon="12.116473339782154"><ele>411.0</ele><time>2026-04-28T16:23:54.001Z</time></trkpt><trkpt lat="42.40190974430615" lon="12.116417201398646"><ele>410.4</ele><time>2026-04-28T16:23:55.001Z</time></trkpt><trkpt lat="42.402001072587495" lon="12.116371694005819"><ele>409.8</ele><time>2026-04-28T16:23:56.001Z</time></trkpt><trkpt lat="42.40206877215317" lon="12.116338437622842"><ele>409.2</ele><time>2026-04-28T16:23:57.001Z</time></trkpt><trkpt lat="42.40216198835895" lon="12.116289484853665"><ele>408.59999999999997</ele><time>2026-04-28T16:23:59.001Z</time></trkpt><trkpt lat="42.40227144136583" lon="12.116234318487932"><ele>408.0</ele><time>2026-04-28T16:24:37.001Z</time></trkpt><trkpt lat="42.402333987531534" lon="12.116211826311659"><ele>406.59999999999997</ele><time>2026-04-28T16:24:38.001Z</time></trkpt><trkpt lat="42.40240413061479" lon="12.116185849069538"><ele>405.2</ele><time>2026-04-28T16:24:39.001Z</time></trkpt><trkpt lat="42.40248840856421" lon="12.11614815121652"><ele>403.8</ele><time>2026-04-28T16:24:40.001Z</time></trkpt><trkpt lat="42.40258523572472" lon="12.116103229721292"><ele>402.4</ele><time>2026-04-28T16:24:41.001Z</time></trkpt><trkpt lat="42.4026868325257" lon="12.116052704793042"><ele>401.0</ele><time>2026-04-28T16:24:42.001Z</time></trkpt><trkpt lat="42.402799776826534" lon="12.115993348568232"><ele>401.0</ele><time>2026-04-28T16:24:43.001Z</time></trkpt><trkpt lat="42.40291269122569" lon="12.115901383319725"><ele>401.0</ele><time>2026-04-28T16:24:44.001Z</time></trkpt><trkpt lat="42.403053542327235" lon="12.1158549110454"><ele>401.0</ele><time>2026-04-28T16:24:45.001Z</time></trkpt><trkpt lat="42.40319220818589" lon="12.115779490762364"><ele>401.0</ele><time>2026-04-28T16:24:46.001Z</time></trkpt><trkpt lat="42.40334749046505" lon="12.11570327537737"><ele>399.0</ele><time>2026-04-28T16:24:47.001Z</time></trkpt><trkpt lat="42.403484070577235" lon="12.115634013797207"><ele>397.0</ele><time>2026-04-28T16:24:48.001Z</time></trkpt><trkpt lat="42.40361808491092" lon="12.115562467672307"><ele>395.0</ele><time>2026-04-28T16:24:49.001Z</time></trkpt><trkpt lat="42.40376259696699" lon="12.115489965055668"><ele>393.0</ele><time>2026-04-28T16:24:50.001Z</time></trkpt><trkpt lat="42.40392157250457" lon="12.115410055641476"><ele>391.0</ele><time>2026-04-28T16:24:51.001Z</time></trkpt><trkpt lat="42.4040904634527" lon="12.115326199539153"><ele>389.0</ele><time>2026-04-28T16:24:52.001Z</time></trkpt><trkpt lat="42.40426183069718" lon="12.115237007617486"><ele>387.0</ele><time>2026-04-28T16:24:53.001Z</time></trkpt><trkpt lat="42.40443698687076" lon="12.115144539363333"><ele>387.0</ele><time>2026-04-28T16:24:54.001Z</time></trkpt><trkpt lat="42.404615342539465" lon="12.115052138951846"><ele>387.0</ele><time>2026-04-28T16:24:55.001Z</time></trkpt><trkpt lat="42.40479440212867" lon="12.11495577804563"><ele>387.0</ele><time>2026-04-28T16:24:56.001Z</time></trkpt><trkpt lat="42.40497362940374" lon="12.114859637055098"><ele>385.6666666666667</ele><time>2026-04-28T16:24:57.001Z</time></trkpt><trkpt lat="42.405154565570186" lon="12.114767121794365"><ele>384.33333333333337</ele><time>2026-04-28T16:24:58.001Z</time></trkpt><trkpt lat="42.40533866529133" lon="12.11467679379629"><ele>383.0</ele><time>2026-04-28T16:24:59.001Z</time></trkpt><trkpt lat="42.40552140485819" lon="12.114585183290842"><ele>383.0</ele><time>2026-04-28T16:25:00.001Z</time></trkpt><trkpt lat="42.40570230927161" lon="12.114493474348548"><ele>383.0</ele><time>2026-04-28T16:25:01.001Z</time></trkpt><trkpt lat="42.40587694048961" lon="12.114399844850901"><ele>383.0</ele><time>2026-04-28T16:25:02.001Z</time></trkpt><trkpt lat="42.406043839366276" lon="12.114310887890252"><ele>383.0</ele><time>2026-04-28T16:25:03.001Z</time></trkpt><trkpt lat="42.40621016031562" lon="12.114221855251925"><ele>383.0</ele><time>2026-04-28T16:25:04.001Z</time></trkpt><trkpt lat="42.40637033018847" lon="12.114132534431318"><ele>383.0</ele><time>2026-04-28T16:25:05.001Z</time></trkpt><trkpt lat="42.40652176035317" lon="12.11403252771815"><ele>382.0</ele><time>2026-04-28T16:25:06.001Z</time></trkpt><trkpt lat="42.40666915006559" lon="12.113915534601675"><ele>381.0</ele><time>2026-04-28T16:25:07.001Z</time></trkpt><trkpt lat="42.40681409692411" lon="12.113778691926283"><ele>380.0</ele><time>2026-04-28T16:25:08.001Z</time></trkpt><trkpt lat="42.40694912774937" lon="12.113626814133958"><ele>380.0</ele><time>2026-04-28T16:25:09.001Z</time></trkpt><trkpt lat="42.407077786243676" lon="12.113455221580105"><ele>380.0</ele><time>2026-04-28T16:25:10.001Z</time></trkpt><trkpt lat="42.40718835811282" lon="12.113269759083389"><ele>380.0</ele><time>2026-04-28T16:25:11.001Z</time></trkpt><trkpt lat="42.40728903550816" lon="12.113072389557717"><ele>376.0</ele><time>2026-04-28T16:25:12.001Z</time></trkpt><trkpt lat="42.40738797868262" lon="12.112862324995755"><ele>372.0</ele><time>2026-04-28T16:25:13.001Z</time></trkpt><trkpt lat="42.40748583098876" lon="12.112647705256752"><ele>368.0</ele><time>2026-04-28T16:25:14.001Z</time></trkpt><trkpt lat="42.40758387769777" lon="12.112435885157826"><ele>366.33333333333337</ele><time>2026-04-28T16:25:15.001Z</time></trkpt><trkpt lat="42.40768474844297" lon="12.112227300744875"><ele>364.6666666666667</ele><time>2026-04-28T16:25:16.001Z</time></trkpt><trkpt lat="42.40778503319287" lon="12.112025959779608"><ele>363.0</ele><time>2026-04-28T16:25:17.001Z</time></trkpt><trkpt lat="42.40788550745276" lon="12.111829068594849"><ele>363.0</ele><time>2026-04-28T16:25:18.001Z</time></trkpt><trkpt lat="42.40798072015333" lon="12.111639573845741"><ele>363.0</ele><time>2026-04-28T16:25:19.001Z</time></trkpt><trkpt lat="42.40806472197695" lon="12.111467916537524"><ele>363.0</ele><time>2026-04-28T16:25:20.001Z</time></trkpt><trkpt lat="42.40814454535223" lon="12.111323894991864"><ele>361.25</ele><time>2026-04-28T16:25:21.001Z</time></trkpt><trkpt lat="42.40822417508151" lon="12.11119060621047"><ele>359.5</ele><time>2026-04-28T16:25:22.001Z</time></trkpt><trkpt lat="42.40829854025931" lon="12.111054459826935"><ele>357.75</ele><time>2026-04-28T16:25:23.001Z</time></trkpt><trkpt lat="42.40836970743757" lon="12.110922908576406"><ele>356.0</ele><time>2026-04-28T16:25:24.001Z</time></trkpt><trkpt lat="42.408432971703164" lon="12.110797648471593"><ele>355.25</ele><time>2026-04-28T16:25:25.001Z</time></trkpt><trkpt lat="42.4084988004136" lon="12.110671763237459"><ele>354.5</ele><time>2026-04-28T16:25:26.001Z</time></trkpt><trkpt lat="42.40857068190322" lon="12.110533969771831"><ele>353.75</ele><time>2026-04-28T16:25:27.001Z</time></trkpt><trkpt lat="42.4086415659635" lon="12.110377345374859"><ele>353.0</ele><time>2026-04-28T16:25:28.001Z</time></trkpt><trkpt lat="42.40869799396252" lon="12.11023369735719"><ele>353.0</ele><time>2026-04-28T16:25:29.001Z</time></trkpt><trkpt lat="42.40874707748015" lon="12.110111425439795"><ele>353.0</ele><time>2026-04-28T16:25:30.001Z</time></trkpt><trkpt lat="42.4087883936842" lon="12.110013434499743"><ele>353.0</ele><time>2026-04-28T16:25:31.001Z</time></trkpt><trkpt lat="42.40884030809622" lon="12.109955187454238"><ele>353.0</ele><time>2026-04-28T16:25:32.001Z</time></trkpt><trkpt lat="42.40896444488247" lon="12.109990616236576"><ele>353.0</ele><time>2026-04-28T16:25:34.001Z</time></trkpt><trkpt lat="42.40902548425191" lon="12.110097566799503"><ele>352.79999999999995</ele><time>2026-04-28T16:25:35.001Z</time></trkpt><trkpt lat="42.4091001595782" lon="12.11022280060035"><ele>352.6</ele><time>2026-04-28T16:25:36.001Z</time></trkpt><trkpt lat="42.40918713252072" lon="12.11034558574592"><ele>352.4</ele><time>2026-04-28T16:25:37.001Z</time></trkpt><trkpt lat="42.4092689594811" lon="12.11045364937095"><ele>352.20000000000005</ele><time>2026-04-28T16:25:38.001Z</time></trkpt><trkpt lat="42.40933787938607" lon="12.110528376580618"><ele>352.0</ele><time>2026-04-28T16:25:39.001Z</time></trkpt><trkpt lat="42.40943476104164" lon="12.110560637568936"><ele>352.0</ele><time>2026-04-28T16:25:40.001Z</time></trkpt><trkpt lat="42.4095487018263" lon="12.110551774301946"><ele>352.0</ele><time>2026-04-28T16:25:41.001Z</time></trkpt><trkpt lat="42.409665865236725" lon="12.110524224067143"><ele>352.0</ele><time>2026-04-28T16:25:42.001Z</time></trkpt><trkpt lat="42.40980177356745" lon="12.110493111835948"><ele>352.0</ele><time>2026-04-28T16:25:43.001Z</time></trkpt><trkpt lat="42.409950877660485" lon="12.11047017760478"><ele>352.0</ele><time>2026-04-28T16:25:44.001Z</time></trkpt><trkpt lat="42.41010035863192" lon="12.110444021792096"><ele>352.0</ele><time>2026-04-28T16:25:45.001Z</time></trkpt><trkpt lat="42.41024722154716" lon="12.110417841625175"><ele>352.0</ele><time>2026-04-28T16:25:46.001Z</time></trkpt><trkpt lat="42.410380925754616" lon="12.110385217017926"><ele>352.0</ele><time>2026-04-28T16:25:47.001Z</time></trkpt><trkpt lat="42.41050957982453" lon="12.110363651696352"><ele>352.0</ele><time>2026-04-28T16:25:48.001Z</time></trkpt><trkpt lat="42.41064251067516" lon="12.110354038912002"><ele>352.0</ele><time>2026-04-28T16:25:49.001Z</time></trkpt><trkpt lat="42.41077939291791" lon="12.110335745764711"><ele>352.0</ele><time>2026-04-28T16:25:50.001Z</time></trkpt><trkpt lat="42.41091782535948" lon="12.110308254453127"><ele>352.0</ele><time>2026-04-28T16:25:51.001Z</time></trkpt><trkpt lat="42.411061669663354" lon="12.110286901101073"><ele>352.0</ele><time>2026-04-28T16:25:52.001Z</time></trkpt><trkpt lat="42.41120841346801" lon="12.110265838096318"><ele>352.0</ele><time>2026-04-28T16:25:53.001Z</time></trkpt><trkpt lat="42.4113553269128" lon="12.110241362109747"><ele>352.0</ele><time>2026-04-28T16:25:54.001Z</time></trkpt><trkpt lat="42.411501385691516" lon="12.110209810321543"><ele>352.0</ele><time>2026-04-28T16:25:55.001Z</time></trkpt><trkpt lat="42.41164634257825" lon="12.110178396492147"><ele>352.0</ele><time>2026-04-28T16:25:56.001Z</time></trkpt><trkpt lat="42.41178530565406" lon="12.110146751265221"><ele>352.0</ele><time>2026-04-28T16:25:57.001Z</time></trkpt><trkpt lat="42.411914866535255" lon="12.110123448938984"><ele>352.0</ele><time>2026-04-28T16:25:58.001Z</time></trkpt><trkpt lat="42.41202970502446" lon="12.11010854194618"><ele>352.0</ele><time>2026-04-28T16:25:59.001Z</time></trkpt><trkpt lat="42.412132272504266" lon="12.11010163965401"><ele>351.8333333333333</ele><time>2026-04-28T16:26:00.001Z</time></trkpt><trkpt lat="42.41222837140885" lon="12.110096907168233"><ele>351.66666666666663</ele><time>2026-04-28T16:26:01.001Z</time></trkpt><trkpt lat="42.41231325077827" lon="12.11009556829445"><ele>351.5</ele><time>2026-04-28T16:26:02.001Z</time></trkpt><trkpt lat="42.41239316993468" lon="12.110102289723839"><ele>351.3333333333333</ele><time>2026-04-28T16:26:03.001Z</time></trkpt><trkpt lat="42.41247210551521" lon="12.110112485657387"><ele>351.1666666666667</ele><time>2026-04-28T16:26:04.001Z</time></trkpt><trkpt lat="42.412577208631554" lon="12.11011981338431"><ele>351.0</ele><time>2026-04-28T16:26:05.001Z</time></trkpt><trkpt lat="42.41269380824372" lon="12.110125256961318"><ele>351.0</ele><time>2026-04-28T16:26:06.001Z</time></trkpt><trkpt lat="42.41281959155213" lon="12.11013224839892"><ele>351.0</ele><time>2026-04-28T16:26:07.001Z</time></trkpt><trkpt lat="42.412948173335806" lon="12.110107450941594"><ele>351.0</ele><time>2026-04-28T16:26:08.001Z</time></trkpt><trkpt lat="42.41308517794827" lon="12.110094157479638"><ele>351.0</ele><time>2026-04-28T16:26:09.001Z</time></trkpt><trkpt lat="42.41323059253191" lon="12.11012391214873"><ele>351.5</ele><time>2026-04-28T16:26:10.001Z</time></trkpt><trkpt lat="42.41337820142309" lon="12.110136425387042"><ele>352.0</ele><time>2026-04-28T16:26:11.001Z</time></trkpt><trkpt lat="42.41351979838677" lon="12.110128702506598"><ele>352.5</ele><time>2026-04-28T16:26:12.001Z</time></trkpt><trkpt lat="42.413649366321565" lon="12.1101296993717"><ele>353.0</ele><time>2026-04-28T16:26:13.001Z</time></trkpt><trkpt lat="42.41376719109843" lon="12.110132601850259"><ele>353.79999999999995</ele><time>2026-04-28T16:26:14.001Z</time></trkpt><trkpt lat="42.41387419053277" lon="12.110131514408067"><ele>354.6</ele><time>2026-04-28T16:26:15.001Z</time></trkpt><trkpt lat="42.41397316723805" lon="12.110128882328677"><ele>355.4</ele><time>2026-04-28T16:26:16.001Z</time></trkpt><trkpt lat="42.414061411505884" lon="12.110126649519927"><ele>356.20000000000005</ele><time>2026-04-28T16:26:17Z</time></trkpt><trkpt lat="42.4141464733611" lon="12.110123023230067"><ele>357.0</ele><time>2026-04-28T16:26:18Z</time></trkpt><trkpt lat="42.4142308523547" lon="12.110103772072382"><ele>357.0</ele><time>2026-04-28T16:26:19Z</time></trkpt><trkpt lat="42.4143182676451" lon="12.110119578465184"><ele>357.0</ele><time>2026-04-28T16:26:20Z</time></trkpt><trkpt lat="42.414407185849846" lon="12.110146527669135"><ele>357.0</ele><time>2026-04-28T16:26:21Z</time></trkpt><trkpt lat="42.414479462183806" lon="12.110168997643497"><ele>357.0</ele><time>2026-04-28T16:26:22Z</time></trkpt><trkpt lat="42.41454872118868" lon="12.110185218595472"><ele>357.0</ele><time>2026-04-28T16:26:23Z</time></trkpt><trkpt lat="42.41462252012534" lon="12.110203710686502"><ele>357.0</ele><time>2026-04-28T16:26:24Z</time></trkpt><trkpt lat="42.41469711260653" lon="12.11022216704058"><ele>357.3333333333333</ele><time>2026-04-28T16:26:25Z</time></trkpt><trkpt lat="42.41476104267464" lon="12.11023627388396"><ele>357.6666666666667</ele><time>2026-04-28T16:26:26Z</time></trkpt><trkpt lat="42.414827341457276" lon="12.110252889506484"><ele>358.0</ele><time>2026-04-28T16:26:27Z</time></trkpt><trkpt lat="42.41489681836058" lon="12.110266153942659"><ele>358.33333333333337</ele><time>2026-04-28T16:26:28Z</time></trkpt><trkpt lat="42.41496319717893" lon="12.11027911543508"><ele>358.6666666666667</ele><time>2026-04-28T16:26:29Z</time></trkpt><trkpt lat="42.415033094559" lon="12.110295847701614"><ele>359.0</ele><time>2026-04-28T16:26:30Z</time></trkpt><trkpt lat="42.415160605489824" lon="12.110316435496326"><ele>359.0</ele><time>2026-04-28T16:26:32Z</time></trkpt><trkpt lat="42.41528311732045" lon="12.110318599018148"><ele>359.0</ele><time>2026-04-28T16:26:34Z</time></trkpt><trkpt lat="42.415396426263236" lon="12.110310209559596"><ele>359.0</ele><time>2026-04-28T16:26:36.001Z</time></trkpt><trkpt lat="42.41546466118261" lon="12.110299992195637"><ele>359.0</ele><time>2026-04-28T16:26:37.001Z</time></trkpt><trkpt lat="42.415545120167444" lon="12.110287838127018"><ele>359.0</ele><time>2026-04-28T16:26:38.001Z</time></trkpt><trkpt lat="42.415637429785214" lon="12.110277335521817"><ele>358.6</ele><time>2026-04-28T16:26:39.001Z</time></trkpt><trkpt lat="42.41573150281367" lon="12.110274012049349"><ele>358.2</ele><time>2026-04-28T16:26:40.001Z</time></trkpt><trkpt lat="42.41583630101155" lon="12.110274331259438"><ele>357.8</ele><time>2026-04-28T16:26:41.001Z</time></trkpt><trkpt lat="42.41594372372115" lon="12.110272875533166"><ele>357.40000000000003</ele><time>2026-04-28T16:26:42.001Z</time></trkpt><trkpt lat="42.41605566392344" lon="12.11026816000052"><ele>357.0</ele><time>2026-04-28T16:26:43.001Z</time></trkpt><trkpt lat="42.416178502125696" lon="12.110256834621294"><ele>357.0</ele><time>2026-04-28T16:26:44.001Z</time></trkpt><trkpt lat="42.4163047068869" lon="12.110244601684668"><ele>357.0</ele><time>2026-04-28T16:26:45.001Z</time></trkpt><trkpt lat="42.416435775152685" lon="12.110241005564179"><ele>357.0</ele><time>2026-04-28T16:26:46.001Z</time></trkpt><trkpt lat="42.41656332637893" lon="12.110239309519201"><ele>357.0</ele><time>2026-04-28T16:26:47.001Z</time></trkpt><trkpt lat="42.416680547723665" lon="12.110237606134502"><ele>356.6</ele><time>2026-04-28T16:26:48.001Z</time></trkpt><trkpt lat="42.416786656262275" lon="12.110234543801987"><ele>356.20000000000005</ele><time>2026-04-28T16:26:49.001Z</time></trkpt><trkpt lat="42.41688651479068" lon="12.110226398001332"><ele>355.8</ele><time>2026-04-28T16:26:50.001Z</time></trkpt><trkpt lat="42.41699267211489" lon="12.110222029288138"><ele>355.4</ele><time>2026-04-28T16:26:51.001Z</time></trkpt><trkpt lat="42.41709677725049" lon="12.11022206840838"><ele>355.0</ele><time>2026-04-28T16:26:52.001Z</time></trkpt><trkpt lat="42.41719215274113" lon="12.11022049460167"><ele>354.6</ele><time>2026-04-28T16:26:53.001Z</time></trkpt><trkpt lat="42.4172872328494" lon="12.110217754187468"><ele>354.2</ele><time>2026-04-28T16:26:54.001Z</time></trkpt><trkpt lat="42.41737426833913" lon="12.11021281595123"><ele>353.79999999999995</ele><time>2026-04-28T16:26:55.001Z</time></trkpt><trkpt lat="42.4174565923475" lon="12.110231158673123"><ele>353.4</ele><time>2026-04-28T16:26:56.001Z</time></trkpt><trkpt lat="42.417542425039024" lon="12.110230245384288"><ele>353.0</ele><time>2026-04-28T16:26:57.001Z</time></trkpt><trkpt lat="42.4176396133967" lon="12.110210533397145"><ele>353.0</ele><time>2026-04-28T16:26:58.001Z</time></trkpt><trkpt lat="42.41775105730601" lon="12.11020548755894"><ele>353.0</ele><time>2026-04-28T16:26:59.001Z</time></trkpt><trkpt lat="42.41787357991068" lon="12.110205071795344"><ele>353.0</ele><time>2026-04-28T16:27:00.001Z</time></trkpt><trkpt lat="42.41800507082345" lon="12.110203424919025"><ele>353.0</ele><time>2026-04-28T16:27:01.001Z</time></trkpt><trkpt lat="42.418134929677905" lon="12.110195763093845"><ele>352.5</ele><time>2026-04-28T16:27:02.001Z</time></trkpt><trkpt lat="42.41825944986142" lon="12.110184452876672"><ele>352.0</ele><time>2026-04-28T16:27:03.001Z</time></trkpt><trkpt lat="42.41837950958473" lon="12.110168075005486"><ele>351.5</ele><time>2026-04-28T16:27:04.001Z</time></trkpt><trkpt lat="42.418501645046206" lon="12.110150731723467"><ele>351.0</ele><time>2026-04-28T16:27:05.001Z</time></trkpt><trkpt lat="42.41863610017627" lon="12.110130347454987"><ele>351.0</ele><time>2026-04-28T16:27:06.001Z</time></trkpt><trkpt lat="42.41878251691533" lon="12.110114425184518"><ele>351.0</ele><time>2026-04-28T16:27:07.001Z</time></trkpt><trkpt lat="42.41892437622076" lon="12.110104643718405"><ele>351.0</ele><time>2026-04-28T16:27:08.001Z</time></trkpt><trkpt lat="42.4190581368647" lon="12.110098050816884"><ele>351.0</ele><time>2026-04-28T16:27:09.001Z</time></trkpt><trkpt lat="42.41918656310918" lon="12.11009142146212"><ele>351.0</ele><time>2026-04-28T16:27:10.001Z</time></trkpt><trkpt lat="42.41931305041005" lon="12.110088340500077"><ele>351.0</ele><time>2026-04-28T16:27:11.001Z</time></trkpt><trkpt lat="42.419450430860934" lon="12.110092378716402"><ele>351.0</ele><time>2026-04-28T16:27:12.001Z</time></trkpt><trkpt lat="42.41958124373627" lon="12.110093068421483"><ele>351.0</ele><time>2026-04-28T16:27:13.001Z</time></trkpt><trkpt lat="42.4197105332108" lon="12.110097538926254"><ele>350.25</ele><time>2026-04-28T16:27:14.001Z</time></trkpt><trkpt lat="42.419839787788035" lon="12.110116149242348"><ele>349.5</ele><time>2026-04-28T16:27:15.001Z</time></trkpt><trkpt lat="42.41996097424448" lon="12.110141395978996"><ele>348.75</ele><time>2026-04-28T16:27:16.001Z</time></trkpt><trkpt lat="42.420079950961046" lon="12.110165245816994"><ele>348.0</ele><time>2026-04-28T16:27:17.001Z</time></trkpt><trkpt lat="42.42019681107564" lon="12.110176506348463"><ele>348.0</ele><time>2026-04-28T16:27:18.001Z</time></trkpt><trkpt lat="42.42031087905775" lon="12.110173780961118"><ele>348.0</ele><time>2026-04-28T16:27:19.001Z</time></trkpt><trkpt lat="42.42042161476742" lon="12.110161119488469"><ele>348.0</ele><time>2026-04-28T16:27:20.001Z</time></trkpt><trkpt lat="42.42053158653985" lon="12.110130582510607"><ele>348.0</ele><time>2026-04-28T16:27:21.001Z</time></trkpt><trkpt lat="42.42063670065314" lon="12.110082679790278"><ele>348.0</ele><time>2026-04-28T16:27:22.001Z</time></trkpt><trkpt lat="42.42071686195974" lon="12.110031918607257"><ele>347.1666666666667</ele><time>2026-04-28T16:27:23.001Z</time></trkpt><trkpt lat="42.420791088872626" lon="12.109981975286674"><ele>346.3333333333333</ele><time>2026-04-28T16:27:24.001Z</time></trkpt><trkpt lat="42.420862700569444" lon="12.109928728442869"><ele>345.5</ele><time>2026-04-28T16:27:25.001Z</time></trkpt><trkpt lat="42.42092858671285" lon="12.1098741047922"><ele>344.66666666666663</ele><time>2026-04-28T16:27:26.001Z</time></trkpt><trkpt lat="42.420996805230764" lon="12.109830333164114"><ele>343.8333333333333</ele><time>2026-04-28T16:27:27.001Z</time></trkpt><trkpt lat="42.421062962672984" lon="12.109786795534728"><ele>343.0</ele><time>2026-04-28T16:27:28.001Z</time></trkpt><trkpt lat="42.42112452093944" lon="12.10974483247214"><ele>342.79999999999995</ele><time>2026-04-28T16:27:29.001Z</time></trkpt><trkpt lat="42.4212370572276" lon="12.109675438052303"><ele>342.6</ele><time>2026-04-28T16:27:31.001Z</time></trkpt><trkpt lat="42.42134063694452" lon="12.109606750098568"><ele>342.4</ele><time>2026-04-28T16:27:33.001Z</time></trkpt><trkpt lat="42.421401409192896" lon="12.109574860855329"><ele>342.20000000000005</ele><time>2026-04-28T16:27:34.001Z</time></trkpt><trkpt lat="42.42147884750016" lon="12.109514085349758"><ele>342.0</ele><time>2026-04-28T16:27:35.001Z</time></trkpt><trkpt lat="42.42157082845653" lon="12.109453396078445"><ele>340.75</ele><time>2026-04-28T16:27:36.001Z</time></trkpt><trkpt lat="42.42166608436916" lon="12.109390559393058"><ele>339.5</ele><time>2026-04-28T16:27:37.001Z</time></trkpt><trkpt lat="42.42175554262909" lon="12.109298243877864"><ele>338.25</ele><time>2026-04-28T16:27:38.001Z</time></trkpt><trkpt lat="42.42185089537153" lon="12.10917870498161"><ele>337.0</ele><time>2026-04-28T16:27:39.001Z</time></trkpt><trkpt lat="42.42194175444607" lon="12.109057883136424"><ele>337.5</ele><time>2026-04-28T16:27:40.001Z</time></trkpt><trkpt lat="42.42204412128565" lon="12.108920724414224"><ele>338.0</ele><time>2026-04-28T16:27:41.001Z</time></trkpt><trkpt lat="42.422153957448685" lon="12.10878275318668"><ele>338.5</ele><time>2026-04-28T16:27:42.001Z</time></trkpt><trkpt lat="42.42226535768932" lon="12.108644407744524"><ele>339.0</ele><time>2026-04-28T16:27:43.001Z</time></trkpt><trkpt lat="42.42238003743824" lon="12.108500837912041"><ele>339.0</ele><time>2026-04-28T16:27:44.001Z</time></trkpt><trkpt lat="42.422485954882355" lon="12.108361482913157"><ele>339.0</ele><time>2026-04-28T16:27:45.001Z</time></trkpt><trkpt lat="42.42258657830987" lon="12.108239687259786"><ele>339.0</ele><time>2026-04-28T16:27:46.001Z</time></trkpt><trkpt lat="42.422682694377876" lon="12.108124707876469"><ele>339.0</ele><time>2026-04-28T16:27:47.001Z</time></trkpt><trkpt lat="42.422776596025074" lon="12.108010134091401"><ele>339.6</ele><time>2026-04-28T16:27:48.001Z</time></trkpt><trkpt lat="42.4228565978872" lon="12.107908815883656"><ele>340.2</ele><time>2026-04-28T16:27:49.001Z</time></trkpt><trkpt lat="42.422929763416676" lon="12.107818476155531"><ele>340.8</ele><time>2026-04-28T16:27:50.001Z</time></trkpt><trkpt lat="42.4229967263875" lon="12.107733476717925"><ele>341.40000000000003</ele><time>2026-04-28T16:27:51.001Z</time></trkpt><trkpt lat="42.42305334850502" lon="12.107657357847676"><ele>342.0</ele><time>2026-04-28T16:27:52.001Z</time></trkpt><trkpt lat="42.423107926199194" lon="12.1075945539886"><ele>342.1666666666667</ele><time>2026-04-28T16:27:53.001Z</time></trkpt><trkpt lat="42.423157061991546" lon="12.107539332892031"><ele>342.3333333333333</ele><time>2026-04-28T16:27:54.001Z</time></trkpt><trkpt lat="42.42320847163273" lon="12.107424148613054"><ele>342.5</ele><time>2026-04-28T16:27:56Z</time></trkpt><trkpt lat="42.42326138244547" lon="12.107346754147013"><ele>342.66666666666663</ele><time>2026-04-28T16:27:59Z</time></trkpt><trkpt lat="42.42334546377947" lon="12.107355688563642"><ele>342.8333333333333</ele><time>2026-04-28T16:28:01Z</time></trkpt><trkpt lat="42.42344231419661" lon="12.107423806291088"><ele>343.0</ele><time>2026-04-28T16:28:03Z</time></trkpt><trkpt lat="42.423488198307886" lon="12.107554522593711"><ele>343.0</ele><time>2026-04-28T16:28:05Z</time></trkpt><trkpt lat="42.42352413541175" lon="12.1076332347178"><ele>343.0</ele><time>2026-04-28T16:28:07Z</time></trkpt><trkpt lat="42.4235060964656" lon="12.107717927653988"><ele>343.0</ele><time>2026-04-28T16:28:08Z</time></trkpt><trkpt lat="42.42363507220214" lon="12.107694675218022"><ele>343.0</ele><time>2026-04-28T16:28:09Z</time></trkpt><trkpt lat="42.42372311781897" lon="12.107661918698982"><ele>343.0</ele><time>2026-04-28T16:28:10Z</time></trkpt><trkpt lat="42.42381767891305" lon="12.107627168430172"><ele>343.75</ele><time>2026-04-28T16:28:11Z</time></trkpt><trkpt lat="42.42391345949781" lon="12.107581946135124"><ele>344.5</ele><time>2026-04-28T16:28:12Z</time></trkpt><trkpt lat="42.42402590266006" lon="12.107550627981688"><ele>345.25</ele><time>2026-04-28T16:28:13Z</time></trkpt><trkpt lat="42.42415134446461" lon="12.107525560953338"><ele>346.0</ele><time>2026-04-28T16:28:14Z</time></trkpt><trkpt lat="42.424280846536725" lon="12.107503646074894"><ele>346.0</ele><time>2026-04-28T16:28:15Z</time></trkpt><trkpt lat="42.424409273833724" lon="12.107475868365153"><ele>346.0</ele><time>2026-04-28T16:28:16Z</time></trkpt><trkpt lat="42.42452908304593" lon="12.10744256684528"><ele>346.0</ele><time>2026-04-28T16:28:17Z</time></trkpt><trkpt lat="42.42465214046414" lon="12.107404943840887"><ele>346.0</ele><time>2026-04-28T16:28:18Z</time></trkpt><trkpt lat="42.42477460487516" lon="12.107368970817944"><ele>345.4</ele><time>2026-04-28T16:28:19Z</time></trkpt><trkpt lat="42.424889830681195" lon="12.107328905133654"><ele>344.8</ele><time>2026-04-28T16:28:20Z</time></trkpt><trkpt lat="42.424996983950216" lon="12.107286553284277"><ele>344.2</ele><time>2026-04-28T16:28:21Z</time></trkpt><trkpt lat="42.42509241185215" lon="12.107250641088896"><ele>343.59999999999997</ele><time>2026-04-28T16:28:22Z</time></trkpt><trkpt lat="42.42518207671579" lon="12.107216992777914"><ele>343.0</ele><time>2026-04-28T16:28:23Z</time></trkpt><trkpt lat="42.425264364605376" lon="12.107182744720024"><ele>343.0</ele><time>2026-04-28T16:28:24Z</time></trkpt><trkpt lat="42.42534447912367" lon="12.107159742204612"><ele>343.0</ele><time>2026-04-28T16:28:25Z</time></trkpt><trkpt lat="42.425413826173745" lon="12.107134291584398"><ele>343.0</ele><time>2026-04-28T16:28:26Z</time></trkpt><trkpt lat="42.425531560898605" lon="12.107095041084671"><ele>343.0</ele><time>2026-04-28T16:28:28Z</time></trkpt><trkpt lat="42.42561267512466" lon="12.107065687653341"><ele>343.0</ele><time>2026-04-28T16:28:29Z</time></trkpt><trkpt lat="42.425703679742824" lon="12.107031623595258"><ele>343.25</ele><time>2026-04-28T16:28:30Z</time></trkpt><trkpt lat="42.42580774007411" lon="12.106994538204958"><ele>343.5</ele><time>2026-04-28T16:28:31Z</time></trkpt><trkpt lat="42.42592530327695" lon="12.106950287659364"><ele>343.75</ele><time>2026-04-28T16:28:32Z</time></trkpt><trkpt lat="42.42605100390913" lon="12.106899195245084"><ele>344.0</ele><time>2026-04-28T16:28:33Z</time></trkpt><trkpt lat="42.426177568494175" lon="12.106848257143383"><ele>344.0</ele><time>2026-04-28T16:28:34Z</time></trkpt><trkpt lat="42.426308472376135" lon="12.106797970457695"><ele>344.0</ele><time>2026-04-28T16:28:35Z</time></trkpt><trkpt lat="42.42643289008759" lon="12.106749627092215"><ele>344.0</ele><time>2026-04-28T16:28:36Z</time></trkpt><trkpt lat="42.4265531490571" lon="12.106704341219372"><ele>344.0</ele><time>2026-04-28T16:28:37Z</time></trkpt><trkpt lat="42.42666398244889" lon="12.106660891925161"><ele>344.4</ele><time>2026-04-28T16:28:38Z</time></trkpt><trkpt lat="42.42676222985842" lon="12.106618317484243"><ele>344.79999999999995</ele><time>2026-04-28T16:28:39Z</time></trkpt><trkpt lat="42.42685646195877" lon="12.106582406073649"><ele>345.20000000000005</ele><time>2026-04-28T16:28:40.001Z</time></trkpt><trkpt lat="42.426946297382464" lon="12.106546474656696"><ele>345.6</ele><time>2026-04-28T16:28:41.001Z</time></trkpt><trkpt lat="42.427040407909494" lon="12.106509262000037"><ele>346.0</ele><time>2026-04-28T16:28:42.001Z</time></trkpt><trkpt lat="42.42713106306359" lon="12.106476279083324"><ele>345.20000000000005</ele><time>2026-04-28T16:28:43.001Z</time></trkpt><trkpt lat="42.427197113779606" lon="12.106443214219153"><ele>344.40000000000003</ele><time>2026-04-28T16:28:44.001Z</time></trkpt><trkpt lat="42.42728796263795" lon="12.106405438512471"><ele>343.6</ele><time>2026-04-28T16:28:46.001Z</time></trkpt><trkpt lat="42.42726461652366" lon="12.106249749573928"><ele>342.8</ele><time>2026-04-28T16:28:49.001Z</time></trkpt><trkpt lat="42.42714073845509" lon="12.106252740597512"><ele>342.0</ele><time>2026-04-28T16:28:54.001Z</time></trkpt><trkpt lat="42.42712126473522" lon="12.106339548719783"><ele>342.0</ele><time>2026-04-28T16:28:55.001Z</time></trkpt><trkpt lat="42.42705197803153" lon="12.10628237456391"><ele>342.0</ele><time>2026-04-28T16:28:57.001Z</time></trkpt><trkpt lat="42.42702516193767" lon="12.106362269499504"><ele>342.0</ele><time>2026-04-28T16:29:00.001Z</time></trkpt><trkpt lat="42.42710513816046" lon="12.106315282072975"><ele>342.0</ele><time>2026-04-28T16:29:05.001Z</time></trkpt><trkpt lat="42.42720497606111" lon="12.106332536859671"><ele>342.0</ele><time>2026-04-28T16:32:16Z</time></trkpt><trkpt lat="42.42727486557493" lon="12.106409531967474"><ele>342.0</ele><time>2026-04-28T16:32:21Z</time></trkpt><trkpt lat="42.42735437890655" lon="12.106400490418642"><ele>342.0</ele><time>2026-04-28T16:32:22Z</time></trkpt><trkpt lat="42.427444345624004" lon="12.106362842628581"><ele>342.0</ele><time>2026-04-28T16:32:23Z</time></trkpt><trkpt lat="42.42753595564701" lon="12.106326705497771"><ele>342.0</ele><time>2026-04-28T16:32:24Z</time></trkpt><trkpt lat="42.42763131435674" lon="12.106290603250477"><ele>342.0</ele><time>2026-04-28T16:32:25Z</time></trkpt><trkpt lat="42.42773612951343" lon="12.106260000875192"><ele>342.0</ele><time>2026-04-28T16:32:26Z</time></trkpt><trkpt lat="42.42785102245427" lon="12.10621884673028"><ele>342.0</ele><time>2026-04-28T16:32:27Z</time></trkpt><trkpt lat="42.42796233772795" lon="12.106171272435624"><ele>342.0</ele><time>2026-04-28T16:32:28Z</time></trkpt><trkpt lat="42.428066876155114" lon="12.106127918846187"><ele>342.0</ele><time>2026-04-28T16:32:29Z</time></trkpt><trkpt lat="42.42816681524586" lon="12.106092557243805"><ele>342.0</ele><time>2026-04-28T16:32:30Z</time></trkpt><trkpt lat="42.42825862899345" lon="12.106058979105338"><ele>342.0</ele><time>2026-04-28T16:32:31Z</time></trkpt><trkpt lat="42.42834701271019" lon="12.106025937604883"><ele>342.0</ele><time>2026-04-28T16:32:32Z</time></trkpt><trkpt lat="42.428432307172685" lon="12.105996987460609"><ele>342.0</ele><time>2026-04-28T16:32:33Z</time></trkpt><trkpt lat="42.42851148522026" lon="12.105963863686236"><ele>342.0</ele><time>2026-04-28T16:32:34Z</time></trkpt><trkpt lat="42.42859212296644" lon="12.105932862021023"><ele>342.0</ele><time>2026-04-28T16:32:35Z</time></trkpt><trkpt lat="42.428678583938826" lon="12.105900256369495"><ele>342.0</ele><time>2026-04-28T16:32:36Z</time></trkpt><trkpt lat="42.42877974798799" lon="12.105863946405577"><ele>342.0</ele><time>2026-04-28T16:32:37Z</time></trkpt><trkpt lat="42.428906870829906" lon="12.105815756868562"><ele>341.8</ele><time>2026-04-28T16:32:38Z</time></trkpt><trkpt lat="42.429037677163194" lon="12.105770988230663"><ele>341.6</ele><time>2026-04-28T16:32:39Z</time></trkpt><trkpt lat="42.429146598084564" lon="12.105727143930435"><ele>341.40000000000003</ele><time>2026-04-28T16:32:40Z</time></trkpt><trkpt lat="42.42925541439197" lon="12.105696917395068"><ele>341.20000000000005</ele><time>2026-04-28T16:32:41Z</time></trkpt><trkpt lat="42.42934088116631" lon="12.105679382883597"><ele>341.0</ele><time>2026-04-28T16:32:42Z</time></trkpt><trkpt lat="42.42940652442418" lon="12.105649390367626"><ele>340.8</ele><time>2026-04-28T16:32:43Z</time></trkpt><trkpt lat="42.4295054934623" lon="12.105613562944248"><ele>340.6</ele><time>2026-04-28T16:32:45Z</time></trkpt><trkpt lat="42.42962832378501" lon="12.105579161685403"><ele>340.4</ele><time>2026-04-28T16:32:47Z</time></trkpt><trkpt lat="42.429730174981685" lon="12.105528417586095"><ele>340.2</ele><time>2026-04-28T16:32:48Z</time></trkpt><trkpt lat="42.429834279055044" lon="12.105474100319558"><ele>340.0</ele><time>2026-04-28T16:32:49Z</time></trkpt><trkpt lat="42.42994620705154" lon="12.105422921183397"><ele>340.0</ele><time>2026-04-28T16:32:50.001Z</time></trkpt><trkpt lat="42.43005422061857" lon="12.105381067899103"><ele>340.0</ele><time>2026-04-28T16:32:51.001Z</time></trkpt><trkpt lat="42.43015707016748" lon="12.105337005070961"><ele>340.0</ele><time>2026-04-28T16:32:52.001Z</time></trkpt><trkpt lat="42.43025527078248" lon="12.105297513121803"><ele>340.0</ele><time>2026-04-28T16:32:53.001Z</time></trkpt><trkpt lat="42.43034659984036" lon="12.105261583502246"><ele>340.0</ele><time>2026-04-28T16:32:54.001Z</time></trkpt><trkpt lat="42.430431245801735" lon="12.105223750603962"><ele>339.6</ele><time>2026-04-28T16:32:55.001Z</time></trkpt><trkpt lat="42.4305097338315" lon="12.105192954715953"><ele>339.2</ele><time>2026-04-28T16:32:56.001Z</time></trkpt><trkpt lat="42.43058528974605" lon="12.105165401449058"><ele>338.79999999999995</ele><time>2026-04-28T16:32:57.001Z</time></trkpt><trkpt lat="42.43066494642091" lon="12.10513002995474"><ele>338.4</ele><time>2026-04-28T16:32:58.001Z</time></trkpt><trkpt lat="42.430770584070956" lon="12.10508587249755"><ele>338.0</ele><time>2026-04-28T16:32:59.001Z</time></trkpt><trkpt lat="42.43089587065696" lon="12.105039091186326"><ele>338.0</ele><time>2026-04-28T16:33:00.001Z</time></trkpt><trkpt lat="42.431008931758576" lon="12.104997900932773"><ele>338.0</ele><time>2026-04-28T16:33:01.001Z</time></trkpt><trkpt lat="42.43111419991717" lon="12.104955828771134"><ele>338.0</ele><time>2026-04-28T16:33:02.001Z</time></trkpt><trkpt lat="42.43117943458792" lon="12.104930771601968"><ele>338.0</ele><time>2026-04-28T16:33:03.001Z</time></trkpt><trkpt lat="42.43124879832082" lon="12.104905127315627"><ele>338.0</ele><time>2026-04-28T16:33:05.001Z</time></trkpt><trkpt lat="42.431369477621324" lon="12.104863225864094"><ele>337.59999999999997</ele><time>2026-04-28T16:33:07.001Z</time></trkpt><trkpt lat="42.43146854175634" lon="12.10483007305941"><ele>337.2</ele><time>2026-04-28T16:33:08.001Z</time></trkpt><trkpt lat="42.43158069808513" lon="12.104784487912221"><ele>336.8</ele><time>2026-04-28T16:33:09.001Z</time></trkpt><trkpt lat="42.43167045931737" lon="12.104755444888186"><ele>336.4</ele><time>2026-04-28T16:33:10.001Z</time></trkpt><trkpt lat="42.431749389246185" lon="12.104723586036567"><ele>336.0</ele><time>2026-04-28T16:33:11.001Z</time></trkpt><trkpt lat="42.43182473635277" lon="12.104695472754297"><ele>336.0</ele><time>2026-04-28T16:33:12.001Z</time></trkpt><trkpt lat="42.43191233895725" lon="12.104662781715962"><ele>336.0</ele><time>2026-04-28T16:33:13.001Z</time></trkpt><trkpt lat="42.43199832376849" lon="12.10463152852136"><ele>336.0</ele><time>2026-04-28T16:33:14Z</time></trkpt><trkpt lat="42.4320869231229" lon="12.104601597887505"><ele>336.0</ele><time>2026-04-28T16:33:15Z</time></trkpt><trkpt lat="42.43217438940484" lon="12.104568781043657"><ele>336.0</ele><time>2026-04-28T16:33:16Z</time></trkpt><trkpt lat="42.4322597744479" lon="12.104538000531711"><ele>336.1666666666667</ele><time>2026-04-28T16:33:17Z</time></trkpt><trkpt lat="42.43234697022248" lon="12.104504452758498"><ele>336.3333333333333</ele><time>2026-04-28T16:33:18Z</time></trkpt><trkpt lat="42.43243323375638" lon="12.104468076067972"><ele>336.5</ele><time>2026-04-28T16:33:19Z</time></trkpt><trkpt lat="42.432517501083915" lon="12.104430649724927"><ele>336.66666666666663</ele><time>2026-04-28T16:33:20Z</time></trkpt><trkpt lat="42.43259718406165" lon="12.104390048542127"><ele>336.8333333333333</ele><time>2026-04-28T16:33:21Z</time></trkpt><trkpt lat="42.43267577988089" lon="12.10435343872872"><ele>337.0</ele><time>2026-04-28T16:33:22Z</time></trkpt><trkpt lat="42.43276233665665" lon="12.104315172477246"><ele>337.0</ele><time>2026-04-28T16:33:23Z</time></trkpt><trkpt lat="42.43285269767364" lon="12.104271181266247"><ele>337.0</ele><time>2026-04-28T16:33:24Z</time></trkpt><trkpt lat="42.43294110894035" lon="12.104228129009384"><ele>337.0</ele><time>2026-04-28T16:33:25Z</time></trkpt><trkpt lat="42.4330087767591" lon="12.104192283395163"><ele>337.0</ele><time>2026-04-28T16:33:26Z</time></trkpt><trkpt lat="42.4330933398651" lon="12.10415869456986"><ele>337.0</ele><time>2026-04-28T16:33:28Z</time></trkpt><trkpt lat="42.433200339606536" lon="12.104115514948854"><ele>336.8333333333333</ele><time>2026-04-28T16:33:30Z</time></trkpt><trkpt lat="42.43330298042714" lon="12.104056544901814"><ele>336.66666666666663</ele><time>2026-04-28T16:33:32Z</time></trkpt><trkpt lat="42.43336827162559" lon="12.104025717604413"><ele>336.5</ele><time>2026-04-28T16:33:33Z</time></trkpt><trkpt lat="42.43345431613819" lon="12.10399229430101"><ele>336.3333333333333</ele><time>2026-04-28T16:33:34Z</time></trkpt><trkpt lat="42.433541849089956" lon="12.103962039334773"><ele>336.1666666666667</ele><time>2026-04-28T16:33:35Z</time></trkpt><trkpt lat="42.43361663418648" lon="12.103936311080256"><ele>336.0</ele><time>2026-04-28T16:33:36Z</time></trkpt><trkpt lat="42.43368819847865" lon="12.103913050177082"><ele>336.0</ele><time>2026-04-28T16:33:37Z</time></trkpt><trkpt lat="42.4337700523999" lon="12.103890106030184"><ele>336.0</ele><time>2026-04-28T16:33:38Z</time></trkpt><trkpt lat="42.4338579104356" lon="12.103867081605905"><ele>336.0</ele><time>2026-04-28T16:33:39Z</time></trkpt><trkpt lat="42.43393836747149" lon="12.103852588760168"><ele>336.0</ele><time>2026-04-28T16:33:40Z</time></trkpt><trkpt lat="42.434013418811446" lon="12.103841939483576"><ele>336.0</ele><time>2026-04-28T16:33:41Z</time></trkpt><trkpt lat="42.434085476218485" lon="12.103835195078547"><ele>336.0</ele><time>2026-04-28T16:33:42Z</time></trkpt><trkpt lat="42.43416532468394" lon="12.103828675562376"><ele>335.8333333333333</ele><time>2026-04-28T16:33:43Z</time></trkpt><trkpt lat="42.43424552374871" lon="12.103824869634163"><ele>335.6666666666667</ele><time>2026-04-28T16:33:44Z</time></trkpt><trkpt lat="42.43431678478782" lon="12.103822816583879"><ele>335.5</ele><time>2026-04-28T16:33:45Z</time></trkpt><trkpt lat="42.43443236622856" lon="12.103824877352597"><ele>335.33333333333337</ele><time>2026-04-28T16:33:47Z</time></trkpt><trkpt lat="42.434523067633975" lon="12.103826453636666"><ele>335.1666666666667</ele><time>2026-04-28T16:33:49Z</time></trkpt><trkpt lat="42.43459649532267" lon="12.103823540957634"><ele>335.0</ele><time>2026-04-28T16:33:50Z</time></trkpt><trkpt lat="42.434693122922894" lon="12.103827838095274"><ele>335.0</ele><time>2026-04-28T16:33:51Z</time></trkpt><trkpt lat="42.434795290971145" lon="12.103840247537924"><ele>335.0</ele><time>2026-04-28T16:33:52Z</time></trkpt><trkpt lat="42.434885978285216" lon="12.103843706923422"><ele>335.0</ele><time>2026-04-28T16:33:53Z</time></trkpt><trkpt lat="42.434977168258726" lon="12.103843587651445"><ele>335.0</ele><time>2026-04-28T16:33:54Z</time></trkpt><trkpt lat="42.43505968518999" lon="12.103844821778905"><ele>335.0</ele><time>2026-04-28T16:33:55Z</time></trkpt><trkpt lat="42.43512785679938" lon="12.103845613046687"><ele>335.0</ele><time>2026-04-28T16:33:56Z</time></trkpt><trkpt lat="42.43519214988089" lon="12.103850387980343"><ele>335.0</ele><time>2026-04-28T16:33:57Z</time></trkpt><trkpt lat="42.435270297405964" lon="12.103853856176197"><ele>335.0</ele><time>2026-04-28T16:33:58Z</time></trkpt><trkpt lat="42.435369816870576" lon="12.10385893063597"><ele>335.0</ele><time>2026-04-28T16:33:59Z</time></trkpt><trkpt lat="42.43548068747674" lon="12.103854200660589"><ele>335.0</ele><time>2026-04-28T16:34:00Z</time></trkpt><trkpt lat="42.4356079698873" lon="12.103853589820599"><ele>335.0</ele><time>2026-04-28T16:34:01Z</time></trkpt><trkpt lat="42.43574057930118" lon="12.103852437037503"><ele>335.0</ele><time>2026-04-28T16:34:02Z</time></trkpt><trkpt lat="42.43587840564003" lon="12.103843901606618"><ele>335.0</ele><time>2026-04-28T16:34:03Z</time></trkpt><trkpt lat="42.436010819399606" lon="12.103824671923286"><ele>335.0</ele><time>2026-04-28T16:34:04Z</time></trkpt><trkpt lat="42.43615726296801" lon="12.103790208805924"><ele>335.0</ele><time>2026-04-28T16:34:05Z</time></trkpt><trkpt lat="42.43632817012834" lon="12.103743957248344"><ele>335.0</ele><time>2026-04-28T16:34:06Z</time></trkpt><trkpt lat="42.43648006153235" lon="12.103693995816785"><ele>335.0</ele><time>2026-04-28T16:34:07Z</time></trkpt><trkpt lat="42.43661526420106" lon="12.103646849312465"><ele>335.0</ele><time>2026-04-28T16:34:08Z</time></trkpt><trkpt lat="42.43673347670376" lon="12.103608203301933"><ele>335.0</ele><time>2026-04-28T16:34:09Z</time></trkpt><trkpt lat="42.43684209878795" lon="12.103574649937384"><ele>335.0</ele><time>2026-04-28T16:34:10Z</time></trkpt><trkpt lat="42.43694446254859" lon="12.103541369717373"><ele>335.0</ele><time>2026-04-28T16:34:11Z</time></trkpt><trkpt lat="42.437038336699075" lon="12.103511519816493"><ele>335.0</ele><time>2026-04-28T16:34:12Z</time></trkpt><trkpt lat="42.43713015157909" lon="12.103476562743213"><ele>335.0</ele><time>2026-04-28T16:34:13Z</time></trkpt><trkpt lat="42.43721328315611" lon="12.10344772835192"><ele>335.0</ele><time>2026-04-28T16:34:14Z</time></trkpt><trkpt lat="42.43727487406689" lon="12.103414725565273"><ele>335.0</ele><time>2026-04-28T16:34:15Z</time></trkpt><trkpt lat="42.43740068187642" lon="12.103384074420006"><ele>335.0</ele><time>2026-04-28T16:34:17Z</time></trkpt><trkpt lat="42.43747142816745" lon="12.103409553222715"><ele>335.0</ele><time>2026-04-28T16:34:18Z</time></trkpt><trkpt lat="42.43754126441254" lon="12.10346350258171"><ele>335.0</ele><time>2026-04-28T16:34:19Z</time></trkpt><trkpt lat="42.437615186977666" lon="12.103500802726593"><ele>335.0</ele><time>2026-04-28T16:34:20Z</time></trkpt><trkpt lat="42.437684628773866" lon="12.103466612765171"><ele>335.0</ele><time>2026-04-28T16:34:21Z</time></trkpt><trkpt lat="42.43775279268373" lon="12.10337716169772"><ele>335.0</ele><time>2026-04-28T16:34:22Z</time></trkpt><trkpt lat="42.43781283705658" lon="12.103257257811608"><ele>334.25</ele><time>2026-04-28T16:34:23Z</time></trkpt><trkpt lat="42.43793889607701" lon="12.103195148915335"><ele>333.5</ele><time>2026-04-28T16:34:24Z</time></trkpt><trkpt lat="42.43807556039641" lon="12.103141503263192"><ele>332.75</ele><time>2026-04-28T16:34:25Z</time></trkpt><trkpt lat="42.43823508666978" lon="12.103090002228976"><ele>332.0</ele><time>2026-04-28T16:34:26Z</time></trkpt><trkpt lat="42.43840427549851" lon="12.10303413822389"><ele>331.6666666666667</ele><time>2026-04-28T16:34:27Z</time></trkpt><trkpt lat="42.438573760839944" lon="12.102976412743907"><ele>331.3333333333333</ele><time>2026-04-28T16:34:28Z</time></trkpt><trkpt lat="42.438748467023295" lon="12.102921520730971"><ele>331.0</ele><time>2026-04-28T16:34:29Z</time></trkpt><trkpt lat="42.438926262927204" lon="12.102861460136497"><ele>331.0</ele><time>2026-04-28T16:34:30Z</time></trkpt><trkpt lat="42.43910659827229" lon="12.102818304190667"><ele>331.0</ele><time>2026-04-28T16:34:31Z</time></trkpt><trkpt lat="42.439287637939" lon="12.102789137679528"><ele>331.0</ele><time>2026-04-28T16:34:32Z</time></trkpt><trkpt lat="42.43946714005358" lon="12.102771073625012"><ele>331.0</ele><time>2026-04-28T16:34:33Z</time></trkpt><trkpt lat="42.439642301674226" lon="12.102755207112475"><ele>331.0</ele><time>2026-04-28T16:34:34Z</time></trkpt><trkpt lat="42.43981361028694" lon="12.102753582774374"><ele>331.0</ele><time>2026-04-28T16:34:35Z</time></trkpt><trkpt lat="42.43998555604038" lon="12.10277195875465"><ele>331.0</ele><time>2026-04-28T16:34:36Z</time></trkpt><trkpt lat="42.440160085431636" lon="12.102799208487466"><ele>331.0</ele><time>2026-04-28T16:34:37Z</time></trkpt><trkpt lat="42.44033737024756" lon="12.102840574344897"><ele>331.0</ele><time>2026-04-28T16:34:38Z</time></trkpt><trkpt lat="42.44051570789888" lon="12.102896877427275"><ele>330.66666666666663</ele><time>2026-04-28T16:34:39Z</time></trkpt><trkpt lat="42.44069681553917" lon="12.102955875710599"><ele>330.3333333333333</ele><time>2026-04-28T16:34:40Z</time></trkpt><trkpt lat="42.4408711921187" lon="12.103015931000838"><ele>330.0</ele><time>2026-04-28T16:34:41Z</time></trkpt><trkpt lat="42.44103914230125" lon="12.103073213340314"><ele>330.0</ele><time>2026-04-28T16:34:42Z</time></trkpt><trkpt lat="42.441203018034734" lon="12.103129638446624"><ele>330.0</ele><time>2026-04-28T16:34:43Z</time></trkpt><trkpt lat="42.44136941998796" lon="12.10318787564933"><ele>330.0</ele><time>2026-04-28T16:34:44Z</time></trkpt><trkpt lat="42.44152661233838" lon="12.103245136959634"><ele>329.6666666666667</ele><time>2026-04-28T16:34:45Z</time></trkpt><trkpt lat="42.4416845148524" lon="12.103302740257533"><ele>329.33333333333337</ele><time>2026-04-28T16:34:46Z</time></trkpt><trkpt lat="42.441847741823" lon="12.103360916235255"><ele>329.0</ele><time>2026-04-28T16:34:47Z</time></trkpt><trkpt lat="42.44201052431234" lon="12.103417118631336"><ele>329.6666666666667</ele><time>2026-04-28T16:34:48Z</time></trkpt><trkpt lat="42.44217335644382" lon="12.103475800582535"><ele>330.3333333333333</ele><time>2026-04-28T16:34:49Z</time></trkpt><trkpt lat="42.44233589895437" lon="12.103535990053226"><ele>331.0</ele><time>2026-04-28T16:34:50Z</time></trkpt><trkpt lat="42.44249992748635" lon="12.103595305930586"><ele>331.0</ele><time>2026-04-28T16:34:51Z</time></trkpt><trkpt lat="42.442663892624616" lon="12.103657003844598"><ele>331.0</ele><time>2026-04-28T16:34:52Z</time></trkpt><trkpt lat="42.44282676443372" lon="12.103716810865377"><ele>331.0</ele><time>2026-04-28T16:34:53Z</time></trkpt><trkpt lat="42.44299373938014" lon="12.103773718082646"><ele>331.66666666666663</ele><time>2026-04-28T16:34:54Z</time></trkpt><trkpt lat="42.44315974219204" lon="12.10382930276831"><ele>332.3333333333333</ele><time>2026-04-28T16:34:55Z</time></trkpt><trkpt lat="42.4433253508264" lon="12.103886339437715"><ele>333.0</ele><time>2026-04-28T16:34:56.001Z</time></trkpt><trkpt lat="42.44349184509642" lon="12.10394635963201"><ele>333.0</ele><time>2026-04-28T16:34:57.001Z</time></trkpt><trkpt lat="42.44366021603623" lon="12.104006120044506"><ele>333.0</ele><time>2026-04-28T16:34:58.001Z</time></trkpt><trkpt lat="42.44382548989748" lon="12.104065666540588"><ele>333.0</ele><time>2026-04-28T16:34:59.001Z</time></trkpt><trkpt lat="42.4439923853684" lon="12.104126826562268"><ele>334.3333333333333</ele><time>2026-04-28T16:35:00.001Z</time></trkpt><trkpt lat="42.44415802741531" lon="12.104182275144689"><ele>335.66666666666663</ele><time>2026-04-28T16:35:01.001Z</time></trkpt><trkpt lat="42.44432248984528" lon="12.104237738737977"><ele>337.0</ele><time>2026-04-28T16:35:02.001Z</time></trkpt><trkpt lat="42.444485657858486" lon="12.104285471011746"><ele>337.0</ele><time>2026-04-28T16:35:03.001Z</time></trkpt><trkpt lat="42.444639011322174" lon="12.10432208814837"><ele>337.0</ele><time>2026-04-28T16:35:04Z</time></trkpt><trkpt lat="42.4447820119281" lon="12.104346571949652"><ele>337.0</ele><time>2026-04-28T16:35:05Z</time></trkpt><trkpt lat="42.44491585419776" lon="12.104370965177266"><ele>337.0</ele><time>2026-04-28T16:35:06Z</time></trkpt><trkpt lat="42.44502723520029" lon="12.104389280784648"><ele>337.0</ele><time>2026-04-28T16:35:07Z</time></trkpt><trkpt lat="42.44513109884793" lon="12.104404533717906"><ele>337.0</ele><time>2026-04-28T16:35:08Z</time></trkpt><trkpt lat="42.44525698343804" lon="12.104426593010324"><ele>337.0</ele><time>2026-04-28T16:35:09Z</time></trkpt><trkpt lat="42.44540999091498" lon="12.10444964499621"><ele>337.0</ele><time>2026-04-28T16:35:10Z</time></trkpt><trkpt lat="42.4455851798268" lon="12.104476462294715"><ele>337.66666666666663</ele><time>2026-04-28T16:35:11Z</time></trkpt><trkpt lat="42.445776978342806" lon="12.10450444147619"><ele>338.3333333333333</ele><time>2026-04-28T16:35:12Z</time></trkpt><trkpt lat="42.4459796098211" lon="12.104533939813916"><ele>339.0</ele><time>2026-04-28T16:35:13Z</time></trkpt><trkpt lat="42.446188452783936" lon="12.104559695615572"><ele>339.0</ele><time>2026-04-28T16:35:14Z</time></trkpt><trkpt lat="42.44639547811226" lon="12.104577127079216"><ele>339.0</ele><time>2026-04-28T16:35:15Z</time></trkpt><trkpt lat="42.4465970207894" lon="12.10459379593851"><ele>339.0</ele><time>2026-04-28T16:35:16Z</time></trkpt><trkpt lat="42.446797773110724" lon="12.104615085241829"><ele>339.0</ele><time>2026-04-28T16:35:17Z</time></trkpt><trkpt lat="42.44699588736268" lon="12.104636205826246"><ele>339.0</ele><time>2026-04-28T16:35:18Z</time></trkpt><trkpt lat="42.447208271102916" lon="12.104658431785795"><ele>339.0</ele><time>2026-04-28T16:35:19Z</time></trkpt><trkpt lat="42.44743726277475" lon="12.10468228370536"><ele>338.5</ele><time>2026-04-28T16:35:20Z</time></trkpt><trkpt lat="42.447665839367794" lon="12.10471363585607"><ele>338.0</ele><time>2026-04-28T16:35:21Z</time></trkpt><trkpt lat="42.44790155768438" lon="12.104744238563029"><ele>337.5</ele><time>2026-04-28T16:35:22Z</time></trkpt><trkpt lat="42.448133377932784" lon="12.104773149794546"><ele>337.0</ele><time>2026-04-28T16:35:23Z</time></trkpt><trkpt lat="42.44836123328037" lon="12.104802271995702"><ele>337.0</ele><time>2026-04-28T16:35:24Z</time></trkpt><trkpt lat="42.44858470883796" lon="12.10483459272747"><ele>337.0</ele><time>2026-04-28T16:35:25Z</time></trkpt><trkpt lat="42.4488029422358" lon="12.10486437820517"><ele>337.0</ele><time>2026-04-28T16:35:26Z</time></trkpt><trkpt lat="42.449021026174336" lon="12.10489478217137"><ele>337.66666666666663</ele><time>2026-04-28T16:35:27Z</time></trkpt><trkpt lat="42.44923799532826" lon="12.104921649683371"><ele>338.3333333333333</ele><time>2026-04-28T16:35:28Z</time></trkpt><trkpt lat="42.44945168150249" lon="12.104950652087242"><ele>339.0</ele><time>2026-04-28T16:35:29Z</time></trkpt><trkpt lat="42.44966354072125" lon="12.104976472933545"><ele>339.3333333333333</ele><time>2026-04-28T16:35:30Z</time></trkpt><trkpt lat="42.44987280934395" lon="12.105001662810249"><ele>339.66666666666663</ele><time>2026-04-28T16:35:31Z</time></trkpt><trkpt lat="42.45007890601785" lon="12.105025649104938"><ele>340.0</ele><time>2026-04-28T16:35:32Z</time></trkpt><trkpt lat="42.450271183409455" lon="12.105048261077991"><ele>340.0</ele><time>2026-04-28T16:35:33Z</time></trkpt><trkpt lat="42.45045507449504" lon="12.105071012409697"><ele>340.0</ele><time>2026-04-28T16:35:34Z</time></trkpt><trkpt lat="42.45064693975603" lon="12.105096463052641"><ele>340.0</ele><time>2026-04-28T16:35:35Z</time></trkpt><trkpt lat="42.450848947691405" lon="12.10512102843151"><ele>340.0</ele><time>2026-04-28T16:35:36Z</time></trkpt><trkpt lat="42.45104824848408" lon="12.105145415340472"><ele>340.0</ele><time>2026-04-28T16:35:37Z</time></trkpt><trkpt lat="42.45124668798512" lon="12.10516892900659"><ele>340.0</ele><time>2026-04-28T16:35:38Z</time></trkpt><trkpt lat="42.45144532539456" lon="12.105195988835213"><ele>340.66666666666663</ele><time>2026-04-28T16:35:39Z</time></trkpt><trkpt lat="42.45164255305962" lon="12.105231990757932"><ele>341.3333333333333</ele><time>2026-04-28T16:35:40Z</time></trkpt><trkpt lat="42.45183337832341" lon="12.105277496346629"><ele>342.0</ele><time>2026-04-28T16:35:41Z</time></trkpt><trkpt lat="42.45201493608742" lon="12.105330309413064"><ele>341.6666666666667</ele><time>2026-04-28T16:35:42Z</time></trkpt><trkpt lat="42.45218918473339" lon="12.105388019757921"><ele>341.33333333333337</ele><time>2026-04-28T16:35:43Z</time></trkpt><trkpt lat="42.45236036172244" lon="12.105452254961534"><ele>341.0</ele><time>2026-04-28T16:35:44Z</time></trkpt><trkpt lat="42.45252162287318" lon="12.105515193764651"><ele>341.0</ele><time>2026-04-28T16:35:45Z</time></trkpt><trkpt lat="42.452678028240186" lon="12.105574669322662"><ele>341.0</ele><time>2026-04-28T16:35:46Z</time></trkpt><trkpt lat="42.45283760429487" lon="12.10563732463919"><ele>341.0</ele><time>2026-04-28T16:35:47Z</time></trkpt><trkpt lat="42.45299661510414" lon="12.105704063721813"><ele>340.6666666666667</ele><time>2026-04-28T16:35:48Z</time></trkpt><trkpt lat="42.453150918159814" lon="12.105767776327959"><ele>340.3333333333333</ele><time>2026-04-28T16:35:49Z</time></trkpt><trkpt lat="42.45329873054222" lon="12.10582229552711"><ele>340.0</ele><time>2026-04-28T16:35:50Z</time></trkpt><trkpt lat="42.453448725657026" lon="12.105876015429468"><ele>340.0</ele><time>2026-04-28T16:35:51Z</time></trkpt><trkpt lat="42.45359526083322" lon="12.105936541601192"><ele>340.0</ele><time>2026-04-28T16:35:52Z</time></trkpt><trkpt lat="42.45373928676088" lon="12.10599748768514"><ele>340.0</ele><time>2026-04-28T16:35:53Z</time></trkpt><trkpt lat="42.453879470193115" lon="12.106055366484712"><ele>339.66666666666663</ele><time>2026-04-28T16:35:54Z</time></trkpt><trkpt lat="42.454026517733205" lon="12.106114244031401"><ele>339.3333333333333</ele><time>2026-04-28T16:35:55Z</time></trkpt><trkpt lat="42.45417531904241" lon="12.106170445287363"><ele>339.0</ele><time>2026-04-28T16:35:56Z</time></trkpt><trkpt lat="42.454325752062424" lon="12.106227264711544"><ele>339.0</ele><time>2026-04-28T16:35:57Z</time></trkpt><trkpt lat="42.45447582748875" lon="12.106279581144564"><ele>339.0</ele><time>2026-04-28T16:35:58Z</time></trkpt><trkpt lat="42.4546281595383" lon="12.106327880871197"><ele>339.0</ele><time>2026-04-28T16:35:59Z</time></trkpt><trkpt lat="42.45478505692696" lon="12.10636880121317"><ele>338.6666666666667</ele><time>2026-04-28T16:36:00Z</time></trkpt><trkpt lat="42.454947609886176" lon="12.10639877227339"><ele>338.33333333333337</ele><time>2026-04-28T16:36:01Z</time></trkpt><trkpt lat="42.45511621901761" lon="12.10642358529554"><ele>338.0</ele><time>2026-04-28T16:36:02Z</time></trkpt><trkpt lat="42.4552870233" lon="12.106447323136464"><ele>338.6666666666667</ele><time>2026-04-28T16:36:03Z</time></trkpt><trkpt lat="42.45545968503249" lon="12.106462433727653"><ele>339.3333333333333</ele><time>2026-04-28T16:36:04Z</time></trkpt><trkpt lat="42.4556350708767" lon="12.106465905925477"><ele>340.0</ele><time>2026-04-28T16:36:05Z</time></trkpt><trkpt lat="42.4558085934129" lon="12.106464346394969"><ele>340.0</ele><time>2026-04-28T16:36:06Z</time></trkpt><trkpt lat="42.455973844332206" lon="12.106462340520675"><ele>340.0</ele><time>2026-04-28T16:36:07Z</time></trkpt><trkpt lat="42.45613765786926" lon="12.106454474373667"><ele>340.0</ele><time>2026-04-28T16:36:08Z</time></trkpt><trkpt lat="42.45630416347886" lon="12.10644409705067"><ele>339.3333333333333</ele><time>2026-04-28T16:36:09Z</time></trkpt><trkpt lat="42.45647195470672" lon="12.106439089497337"><ele>338.6666666666667</ele><time>2026-04-28T16:36:10Z</time></trkpt><trkpt lat="42.45663517259548" lon="12.10643564361265"><ele>338.0</ele><time>2026-04-28T16:36:11Z</time></trkpt><trkpt lat="42.45679509523939" lon="12.106432307001766"><ele>338.0</ele><time>2026-04-28T16:36:12Z</time></trkpt><trkpt lat="42.45695626461757" lon="12.106429675706059"><ele>338.0</ele><time>2026-04-28T16:36:13Z</time></trkpt><trkpt lat="42.457120080599715" lon="12.106427086382523"><ele>338.0</ele><time>2026-04-28T16:36:14Z</time></trkpt><trkpt lat="42.45728504378516" lon="12.106426299948442"><ele>337.0</ele><time>2026-04-28T16:36:15Z</time></trkpt><trkpt lat="42.45744797710501" lon="12.106425217994554"><ele>336.0</ele><time>2026-04-28T16:36:16Z</time></trkpt><trkpt lat="42.45761424361885" lon="12.106429641804986"><ele>335.0</ele><time>2026-04-28T16:36:17Z</time></trkpt><trkpt lat="42.457781112721534" lon="12.106447003563256"><ele>335.0</ele><time>2026-04-28T16:36:18Z</time></trkpt><trkpt lat="42.457949057135735" lon="12.106475280974147"><ele>335.0</ele><time>2026-04-28T16:36:19Z</time></trkpt><trkpt lat="42.458115816125066" lon="12.106518885133175"><ele>335.0</ele><time>2026-04-28T16:36:20Z</time></trkpt><trkpt lat="42.45828338392789" lon="12.106577436023201"><ele>334.6666666666667</ele><time>2026-04-28T16:36:21Z</time></trkpt><trkpt lat="42.458449210321575" lon="12.106646159081112"><ele>334.3333333333333</ele><time>2026-04-28T16:36:22Z</time></trkpt><trkpt lat="42.4586173501421" lon="12.106723479573976"><ele>334.0</ele><time>2026-04-28T16:36:23Z</time></trkpt><trkpt lat="42.45878263147265" lon="12.106802224277548"><ele>333.3333333333333</ele><time>2026-04-28T16:36:24Z</time></trkpt><trkpt lat="42.4589444695766" lon="12.106879862664918"><ele>332.6666666666667</ele><time>2026-04-28T16:36:25Z</time></trkpt><trkpt lat="42.45911362810818" lon="12.106957747393233"><ele>332.0</ele><time>2026-04-28T16:36:26Z</time></trkpt><trkpt lat="42.45928298678799" lon="12.10703929060209"><ele>332.0</ele><time>2026-04-28T16:36:27Z</time></trkpt><trkpt lat="42.45946187544415" lon="12.107129656130063"><ele>332.0</ele><time>2026-04-28T16:36:28Z</time></trkpt><trkpt lat="42.45965477959304" lon="12.107221594176432"><ele>332.0</ele><time>2026-04-28T16:36:29Z</time></trkpt><trkpt lat="42.45985897914031" lon="12.10731582414008"><ele>331.5</ele><time>2026-04-28T16:36:30Z</time></trkpt><trkpt lat="42.46006959138792" lon="12.107415671840768"><ele>331.0</ele><time>2026-04-28T16:36:31Z</time></trkpt><trkpt lat="42.460293449521664" lon="12.107523210670728"><ele>330.5</ele><time>2026-04-28T16:36:32Z</time></trkpt><trkpt lat="42.46053415861058" lon="12.10764679033214"><ele>330.0</ele><time>2026-04-28T16:36:33Z</time></trkpt><trkpt lat="42.46078319331428" lon="12.10777733358227"><ele>330.0</ele><time>2026-04-28T16:36:34Z</time></trkpt><trkpt lat="42.461038671019345" lon="12.107911963282866"><ele>330.0</ele><time>2026-04-28T16:36:35Z</time></trkpt><trkpt lat="42.461274754194825" lon="12.10803617728825"><ele>329.0</ele><time>2026-04-28T16:36:36Z</time></trkpt><trkpt lat="42.46150924181433" lon="12.108152571167084"><ele>328.0</ele><time>2026-04-28T16:36:37Z</time></trkpt><trkpt lat="42.46174103669279" lon="12.10826962362353"><ele>328.0</ele><time>2026-04-28T16:36:38Z</time></trkpt><trkpt lat="42.46197338483245" lon="12.108397458369852"><ele>328.0</ele><time>2026-04-28T16:36:39Z</time></trkpt><trkpt lat="42.46219217966505" lon="12.108524919600184"><ele>327.0</ele><time>2026-04-28T16:36:40Z</time></trkpt><trkpt lat="42.462401395966666" lon="12.108670176859908"><ele>326.0</ele><time>2026-04-28T16:36:41Z</time></trkpt><trkpt lat="42.46259817864502" lon="12.108832961817082"><ele>326.0</ele><time>2026-04-28T16:36:42Z</time></trkpt><trkpt lat="42.46279079180458" lon="12.109014278302794"><ele>326.0</ele><time>2026-04-28T16:36:43Z</time></trkpt><trkpt lat="42.46298621635267" lon="12.109219951070285"><ele>324.5</ele><time>2026-04-28T16:36:44Z</time></trkpt><trkpt lat="42.4631857102924" lon="12.109448260456311"><ele>323.0</ele><time>2026-04-28T16:36:45Z</time></trkpt><trkpt lat="42.46338804259872" lon="12.109693182069186"><ele>323.5</ele><time>2026-04-28T16:36:46Z</time></trkpt><trkpt lat="42.46359860952381" lon="12.109948133057019"><ele>324.0</ele><time>2026-04-28T16:36:47Z</time></trkpt><trkpt lat="42.46381133367115" lon="12.110203912983897"><ele>321.0</ele><time>2026-04-28T16:36:48Z</time></trkpt><trkpt lat="42.464026316724905" lon="12.110460198284478"><ele>318.0</ele><time>2026-04-28T16:36:49Z</time></trkpt><trkpt lat="42.46424074806772" lon="12.110711605132042"><ele>319.0</ele><time>2026-04-28T16:36:50Z</time></trkpt><trkpt lat="42.464448005090425" lon="12.110956622265554"><ele>320.0</ele><time>2026-04-28T16:36:51Z</time></trkpt><trkpt lat="42.46464174369876" lon="12.111187488203205"><ele>320.0</ele><time>2026-04-28T16:36:52Z</time></trkpt><trkpt lat="42.46483554765698" lon="12.111413946003731"><ele>320.0</ele><time>2026-04-28T16:36:53Z</time></trkpt><trkpt lat="42.46503487423685" lon="12.111648239749766"><ele>321.0</ele><time>2026-04-28T16:36:54Z</time></trkpt><trkpt lat="42.46523267423759" lon="12.111886282714591"><ele>322.0</ele><time>2026-04-28T16:36:55Z</time></trkpt><trkpt lat="42.46543123343015" lon="12.112126618723664"><ele>322.0</ele><time>2026-04-28T16:36:56Z</time></trkpt><trkpt lat="42.46562871216103" lon="12.112362724677403"><ele>322.0</ele><time>2026-04-28T16:36:57Z</time></trkpt><trkpt lat="42.465826545796986" lon="12.112596122974333"><ele>322.0</ele><time>2026-04-28T16:36:58Z</time></trkpt><trkpt lat="42.46601878463577" lon="12.112827134716234"><ele>322.0</ele><time>2026-04-28T16:36:59Z</time></trkpt><trkpt lat="42.46620057852373" lon="12.113041602114953"><ele>320.0</ele><time>2026-04-28T16:37:00Z</time></trkpt><trkpt lat="42.466380972485624" lon="12.113243564520122"><ele>318.0</ele><time>2026-04-28T16:37:01Z</time></trkpt><trkpt lat="42.466563159267174" lon="12.113420774545435"><ele>318.0</ele><time>2026-04-28T16:37:02Z</time></trkpt><trkpt lat="42.46675721656776" lon="12.113572030295455"><ele>318.0</ele><time>2026-04-28T16:37:03Z</time></trkpt><trkpt lat="42.466959009423945" lon="12.113708488709543"><ele>318.0</ele><time>2026-04-28T16:37:04Z</time></trkpt><trkpt lat="42.46716749488853" lon="12.113828669438142"><ele>316.5</ele><time>2026-04-28T16:37:05Z</time></trkpt><trkpt lat="42.467383229005506" lon="12.113921842396092"><ele>315.0</ele><time>2026-04-28T16:37:06Z</time></trkpt><trkpt lat="42.46760706812322" lon="12.113992049563757"><ele>315.0</ele><time>2026-04-28T16:37:07Z</time></trkpt><trkpt lat="42.4678383922073" lon="12.114053441195455"><ele>315.0</ele><time>2026-04-28T16:37:08Z</time></trkpt><trkpt lat="42.468075300631575" lon="12.1141031437967"><ele>312.0</ele><time>2026-04-28T16:37:09Z</time></trkpt><trkpt lat="42.46832083752774" lon="12.114152696668114"><ele>309.0</ele><time>2026-04-28T16:37:10Z</time></trkpt><trkpt lat="42.46857151761308" lon="12.114202591710429"><ele>308.0</ele><time>2026-04-28T16:37:11Z</time></trkpt><trkpt lat="42.46882515678285" lon="12.114247597335652"><ele>307.0</ele><time>2026-04-28T16:37:12Z</time></trkpt><trkpt lat="42.46907918125673" lon="12.114296272583603"><ele>307.0</ele><time>2026-04-28T16:37:13Z</time></trkpt><trkpt lat="42.46933509359962" lon="12.114344302995681"><ele>307.0</ele><time>2026-04-28T16:37:14Z</time></trkpt><trkpt lat="42.469595361983345" lon="12.114393327828852"><ele>303.5</ele><time>2026-04-28T16:37:15Z</time></trkpt><trkpt lat="42.4698568542791" lon="12.114440268238068"><ele>300.0</ele><time>2026-04-28T16:37:16Z</time></trkpt><trkpt lat="42.4701212895908" lon="12.114486241156971"><ele>300.0</ele><time>2026-04-28T16:37:17Z</time></trkpt><trkpt lat="42.47039060173101" lon="12.114537006639331"><ele>300.0</ele><time>2026-04-28T16:37:18Z</time></trkpt><trkpt lat="42.47066856533895" lon="12.114588726495661"><ele>297.5</ele><time>2026-04-28T16:37:19Z</time></trkpt><trkpt lat="42.470951375709944" lon="12.114643697805342"><ele>295.0</ele><time>2026-04-28T16:37:20Z</time></trkpt><trkpt lat="42.471241893939805" lon="12.114700027946078"><ele>293.0</ele><time>2026-04-28T16:37:21Z</time></trkpt><trkpt lat="42.471536775685436" lon="12.114757299391819"><ele>291.0</ele><time>2026-04-28T16:37:22Z</time></trkpt><trkpt lat="42.47183481888701" lon="12.11481486810226"><ele>288.5</ele><time>2026-04-28T16:37:23Z</time></trkpt><trkpt lat="42.472134401949326" lon="12.114871691479328"><ele>286.0</ele><time>2026-04-28T16:37:24Z</time></trkpt><trkpt lat="42.47243526150902" lon="12.114929171006805"><ele>286.0</ele><time>2026-04-28T16:37:25Z</time></trkpt><trkpt lat="42.47273289808606" lon="12.114986630871854"><ele>286.0</ele><time>2026-04-28T16:37:26Z</time></trkpt><trkpt lat="42.4730262903249" lon="12.11504292745747"><ele>282.5</ele><time>2026-04-28T16:37:27Z</time></trkpt><trkpt lat="42.47330680141105" lon="12.115099820701346"><ele>279.0</ele><time>2026-04-28T16:37:28Z</time></trkpt><trkpt lat="42.47357829181436" lon="12.115156330590672"><ele>276.0</ele><time>2026-04-28T16:37:29Z</time></trkpt><trkpt lat="42.473853422150604" lon="12.115212638668043"><ele>273.0</ele><time>2026-04-28T16:37:30Z</time></trkpt><trkpt lat="42.47413593545077" lon="12.115268461125819"><ele>273.0</ele><time>2026-04-28T16:37:31Z</time></trkpt><trkpt lat="42.474427106449475" lon="12.115325543058368"><ele>273.0</ele><time>2026-04-28T16:37:32Z</time></trkpt><trkpt lat="42.47472280609383" lon="12.115379573419874"><ele>271.5</ele><time>2026-04-28T16:37:33Z</time></trkpt><trkpt lat="42.475018612571645" lon="12.115431834484085"><ele>270.0</ele><time>2026-04-28T16:37:34Z</time></trkpt><trkpt lat="42.47531071958628" lon="12.115487518432628"><ele>269.5</ele><time>2026-04-28T16:37:35Z</time></trkpt><trkpt lat="42.475597531915064" lon="12.115543124958538"><ele>269.0</ele><time>2026-04-28T16:37:36Z</time></trkpt><trkpt lat="42.475881252253515" lon="12.115597060264124"><ele>269.0</ele><time>2026-04-28T16:37:37Z</time></trkpt><trkpt lat="42.47616181035291" lon="12.115651166533574"><ele>269.0</ele><time>2026-04-28T16:37:38Z</time></trkpt><trkpt lat="42.47644117984295" lon="12.115705372686092"><ele>270.0</ele><time>2026-04-28T16:37:39Z</time></trkpt><trkpt lat="42.476717151722795" lon="12.115757686188477"><ele>271.0</ele><time>2026-04-28T16:37:40Z</time></trkpt><trkpt lat="42.47696813729429" lon="12.11580343651664"><ele>272.5</ele><time>2026-04-28T16:37:41Z</time></trkpt><trkpt lat="42.47719962620549" lon="12.115846766118345"><ele>274.0</ele><time>2026-04-28T16:37:42Z</time></trkpt><trkpt lat="42.477426706524575" lon="12.115891096629209"><ele>274.0</ele><time>2026-04-28T16:37:43Z</time></trkpt><trkpt lat="42.477670848727236" lon="12.115939154400392"><ele>274.0</ele><time>2026-04-28T16:37:44Z</time></trkpt><trkpt lat="42.47792214852023" lon="12.115986840296653"><ele>277.0</ele><time>2026-04-28T16:37:45Z</time></trkpt><trkpt lat="42.47817337215514" lon="12.116033322535898"><ele>280.0</ele><time>2026-04-28T16:37:46Z</time></trkpt><trkpt lat="42.478420529025506" lon="12.116083095867616"><ele>280.0</ele><time>2026-04-28T16:37:47Z</time></trkpt><trkpt lat="42.47866523312264" lon="12.116131963419086"><ele>280.0</ele><time>2026-04-28T16:37:48Z</time></trkpt><trkpt lat="42.47890288208695" lon="12.116178253013809"><ele>284.0</ele><time>2026-04-28T16:37:49Z</time></trkpt><trkpt lat="42.47913462458588" lon="12.116226430929647"><ele>288.0</ele><time>2026-04-28T16:37:50Z</time></trkpt><trkpt lat="42.479360003058595" lon="12.116270411078645"><ele>288.0</ele><time>2026-04-28T16:37:51Z</time></trkpt><trkpt lat="42.47958076822146" lon="12.116306472026768"><ele>288.0</ele><time>2026-04-28T16:37:52Z</time></trkpt><trkpt lat="42.47979227187059" lon="12.11634156017231"><ele>288.0</ele><time>2026-04-28T16:37:53Z</time></trkpt><trkpt lat="42.479998945878854" lon="12.116378330562036"><ele>289.25</ele><time>2026-04-28T16:37:54Z</time></trkpt><trkpt lat="42.48018601131268" lon="12.116412571141941"><ele>290.5</ele><time>2026-04-28T16:37:55Z</time></trkpt><trkpt lat="42.48032740336866" lon="12.116437233133952"><ele>291.75</ele><time>2026-04-28T16:37:56Z</time></trkpt><trkpt lat="42.48044188687108" lon="12.116457890350183"><ele>293.0</ele><time>2026-04-28T16:37:57Z</time></trkpt><trkpt lat="42.48054484887301" lon="12.1164795935769"><ele>293.0</ele><time>2026-04-28T16:37:58Z</time></trkpt><trkpt lat="42.480660860506035" lon="12.116504637558144"><ele>293.0</ele><time>2026-04-28T16:37:59Z</time></trkpt><trkpt lat="42.480809174067254" lon="12.116525993235793"><ele>293.0</ele><time>2026-04-28T16:38:00Z</time></trkpt><trkpt lat="42.480977955444125" lon="12.116552654188762"><ele>293.0</ele><time>2026-04-28T16:38:01Z</time></trkpt><trkpt lat="42.481146796620806" lon="12.11659276588"><ele>293.0</ele><time>2026-04-28T16:38:02Z</time></trkpt><trkpt lat="42.48134137250164" lon="12.116628149364576"><ele>293.0</ele><time>2026-04-28T16:38:03Z</time></trkpt><trkpt lat="42.481545060348054" lon="12.11666571836876"><ele>293.0</ele><time>2026-04-28T16:38:04Z</time></trkpt><trkpt lat="42.48174620453481" lon="12.116701593987719"><ele>293.0</ele><time>2026-04-28T16:38:05Z</time></trkpt><trkpt lat="42.48194680240514" lon="12.116741052551589"><ele>293.0</ele><time>2026-04-28T16:38:06Z</time></trkpt><trkpt lat="42.48212223701012" lon="12.116777547848038"><ele>293.0</ele><time>2026-04-28T16:38:07Z</time></trkpt><trkpt lat="42.48228812707173" lon="12.11681622079303"><ele>294.33333333333337</ele><time>2026-04-28T16:38:08Z</time></trkpt><trkpt lat="42.48245157478832" lon="12.11684550850779"><ele>295.6666666666667</ele><time>2026-04-28T16:38:09Z</time></trkpt><trkpt lat="42.4826208807841" lon="12.116870706346662"><ele>297.0</ele><time>2026-04-28T16:38:10Z</time></trkpt><trkpt lat="42.4827972943707" lon="12.116897483637615"><ele>296.0</ele><time>2026-04-28T16:38:11Z</time></trkpt><trkpt lat="42.482982787295214" lon="12.116930134113886"><ele>295.0</ele><time>2026-04-28T16:38:12Z</time></trkpt><trkpt lat="42.4831605287286" lon="12.116970481367963"><ele>294.0</ele><time>2026-04-28T16:38:13Z</time></trkpt><trkpt lat="42.48332423271511" lon="12.117003675498232"><ele>294.0</ele><time>2026-04-28T16:38:14Z</time></trkpt><trkpt lat="42.483475307946584" lon="12.117026978835462"><ele>294.0</ele><time>2026-04-28T16:38:15Z</time></trkpt><trkpt lat="42.4836461211713" lon="12.11703619430755"><ele>294.0</ele><time>2026-04-28T16:38:16Z</time></trkpt><trkpt lat="42.483812376949395" lon="12.11703420432669"><ele>292.3333333333333</ele><time>2026-04-28T16:38:17Z</time></trkpt><trkpt lat="42.483982449066005" lon="12.117017351312557"><ele>290.66666666666663</ele><time>2026-04-28T16:38:18Z</time></trkpt><trkpt lat="42.48415919359251" lon="12.116988881173754"><ele>289.0</ele><time>2026-04-28T16:38:19Z</time></trkpt><trkpt lat="42.484327342973785" lon="12.116942774350626"><ele>289.0</ele><time>2026-04-28T16:38:20Z</time></trkpt><trkpt lat="42.48448512040838" lon="12.116882855909386"><ele>289.0</ele><time>2026-04-28T16:38:21Z</time></trkpt><trkpt lat="42.484652092111396" lon="12.116818887326765"><ele>289.0</ele><time>2026-04-28T16:38:22Z</time></trkpt><trkpt lat="42.484827857462776" lon="12.116754631989021"><ele>288.3333333333333</ele><time>2026-04-28T16:38:23Z</time></trkpt><trkpt lat="42.48501441030925" lon="12.116687643196418"><ele>287.6666666666667</ele><time>2026-04-28T16:38:24Z</time></trkpt><trkpt lat="42.4852029046594" lon="12.116617074448405"><ele>287.0</ele><time>2026-04-28T16:38:25Z</time></trkpt><trkpt lat="42.485394319878154" lon="12.116544114772523"><ele>286.0</ele><time>2026-04-28T16:38:26Z</time></trkpt><trkpt lat="42.48558813802234" lon="12.116473747104633"><ele>285.0</ele><time>2026-04-28T16:38:27Z</time></trkpt><trkpt lat="42.4857813698381" lon="12.116405445384679"><ele>284.0</ele><time>2026-04-28T16:38:28Z</time></trkpt><trkpt lat="42.48597072810642" lon="12.116341697800973"><ele>284.0</ele><time>2026-04-28T16:38:29Z</time></trkpt><trkpt lat="42.486149838157125" lon="12.11628353589208"><ele>284.0</ele><time>2026-04-28T16:38:30Z</time></trkpt><trkpt lat="42.48632447682009" lon="12.116230988016216"><ele>284.0</ele><time>2026-04-28T16:38:31Z</time></trkpt><trkpt lat="42.4865011140831" lon="12.116188637753686"><ele>283.33333333333337</ele><time>2026-04-28T16:38:32Z</time></trkpt><trkpt lat="42.48667314291006" lon="12.116158382470193"><ele>282.6666666666667</ele><time>2026-04-28T16:38:33Z</time></trkpt><trkpt lat="42.48684199705917" lon="12.116142480639255"><ele>282.0</ele><time>2026-04-28T16:38:34Z</time></trkpt><trkpt lat="42.48700237449931" lon="12.11614044551258"><ele>282.2</ele><time>2026-04-28T16:38:35Z</time></trkpt><trkpt lat="42.487128859714645" lon="12.116150534440095"><ele>282.4</ele><time>2026-04-28T16:38:36Z</time></trkpt><trkpt lat="42.48722601939372" lon="12.116166671966129"><ele>282.6</ele><time>2026-04-28T16:38:37Z</time></trkpt><trkpt lat="42.48731001010143" lon="12.116184102983018"><ele>282.8</ele><time>2026-04-28T16:38:38Z</time></trkpt><trkpt lat="42.48738631969111" lon="12.116201947955483"><ele>283.0</ele><time>2026-04-28T16:38:39Z</time></trkpt><trkpt lat="42.48745712468636" lon="12.11621804851695"><ele>283.0</ele><time>2026-04-28T16:38:40Z</time></trkpt><trkpt lat="42.48753247835577" lon="12.116237098265037"><ele>283.0</ele><time>2026-04-28T16:38:41Z</time></trkpt><trkpt lat="42.48761375641034" lon="12.116260080481204"><ele>283.0</ele><time>2026-04-28T16:38:42Z</time></trkpt><trkpt lat="42.487720082272666" lon="12.11628532155956"><ele>283.0</ele><time>2026-04-28T16:38:43Z</time></trkpt><trkpt lat="42.487852661273244" lon="12.116306506161445"><ele>283.0</ele><time>2026-04-28T16:38:44Z</time></trkpt><trkpt lat="42.488003850787514" lon="12.116329846721655"><ele>284.0</ele><time>2026-04-28T16:38:45Z</time></trkpt><trkpt lat="42.48819452370935" lon="12.116365004883809"><ele>285.0</ele><time>2026-04-28T16:38:46Z</time></trkpt><trkpt lat="42.48839503884279" lon="12.116416449814249"><ele>286.0</ele><time>2026-04-28T16:38:47Z</time></trkpt><trkpt lat="42.48861336576349" lon="12.116476720743522"><ele>290.0</ele><time>2026-04-28T16:38:48Z</time></trkpt><trkpt lat="42.488846950525456" lon="12.11653864692809"><ele>294.0</ele><time>2026-04-28T16:38:49Z</time></trkpt><trkpt lat="42.48908546420132" lon="12.116597867819207"><ele>294.0</ele><time>2026-04-28T16:38:50Z</time></trkpt><trkpt lat="42.48933061286705" lon="12.116661438577601"><ele>294.0</ele><time>2026-04-28T16:38:51Z</time></trkpt><trkpt lat="42.48957664299131" lon="12.116724213431786"><ele>296.0</ele><time>2026-04-28T16:38:52Z</time></trkpt><trkpt lat="42.489816448413144" lon="12.116780452143125"><ele>298.0</ele><time>2026-04-28T16:38:53Z</time></trkpt><trkpt lat="42.49004435053774" lon="12.116839739818895"><ele>298.0</ele><time>2026-04-28T16:38:54Z</time></trkpt><trkpt lat="42.49026449554964" lon="12.116893624401396"><ele>298.0</ele><time>2026-04-28T16:38:55Z</time></trkpt><trkpt lat="42.490478402906874" lon="12.116949505901543"><ele>298.0</ele><time>2026-04-28T16:38:56Z</time></trkpt><trkpt lat="42.490687969225505" lon="12.116985267692565"><ele>298.66666666666663</ele><time>2026-04-28T16:38:57Z</time></trkpt><trkpt lat="42.490898413188845" lon="12.117004023406096"><ele>299.3333333333333</ele><time>2026-04-28T16:38:58Z</time></trkpt><trkpt lat="42.49110235170907" lon="12.117000520129194"><ele>300.0</ele><time>2026-04-28T16:38:59Z</time></trkpt><trkpt lat="42.491301593566604" lon="12.116977830864128"><ele>300.0</ele><time>2026-04-28T16:39:00Z</time></trkpt><trkpt lat="42.49149908114921" lon="12.116937870502582"><ele>300.0</ele><time>2026-04-28T16:39:01Z</time></trkpt><trkpt lat="42.49170156518293" lon="12.116881919735743"><ele>300.0</ele><time>2026-04-28T16:39:02Z</time></trkpt><trkpt lat="42.49191198969152" lon="12.116809562036048"><ele>300.0</ele><time>2026-04-28T16:39:03Z</time></trkpt><trkpt lat="42.49212653145482" lon="12.116728858731229"><ele>300.0</ele><time>2026-04-28T16:39:04Z</time></trkpt><trkpt lat="42.49234533744463" lon="12.116646269782468"><ele>302.5</ele><time>2026-04-28T16:39:05Z</time></trkpt><trkpt lat="42.49257105791998" lon="12.116558438647594"><ele>305.0</ele><time>2026-04-28T16:39:06Z</time></trkpt><trkpt lat="42.4928001330244" lon="12.116469403084912"><ele>304.5</ele><time>2026-04-28T16:39:07Z</time></trkpt><trkpt lat="42.49303608915565" lon="12.116379853941861"><ele>304.0</ele><time>2026-04-28T16:39:08Z</time></trkpt><trkpt lat="42.493273859311344" lon="12.116287513035262"><ele>304.0</ele><time>2026-04-28T16:39:09Z</time></trkpt><trkpt lat="42.49351605237321" lon="12.116193730535011"><ele>304.0</ele><time>2026-04-28T16:39:10Z</time></trkpt><trkpt lat="42.49376412276943" lon="12.11609984092338"><ele>304.5</ele><time>2026-04-28T16:39:11Z</time></trkpt><trkpt lat="42.494014881340036" lon="12.11600409134761"><ele>305.0</ele><time>2026-04-28T16:39:12Z</time></trkpt><trkpt lat="42.494264588086104" lon="12.115913915474284"><ele>305.0</ele><time>2026-04-28T16:39:13Z</time></trkpt><trkpt lat="42.49451474229837" lon="12.115823949649021"><ele>305.0</ele><time>2026-04-28T16:39:14Z</time></trkpt><trkpt lat="42.49476591236088" lon="12.115730690216937"><ele>307.5</ele><time>2026-04-28T16:39:15Z</time></trkpt><trkpt lat="42.495014852723465" lon="12.115637079281159"><ele>310.0</ele><time>2026-04-28T16:39:16Z</time></trkpt><trkpt lat="42.495262736146664" lon="12.115540766853487"><ele>311.5</ele><time>2026-04-28T16:39:17Z</time></trkpt><trkpt lat="42.49551246524428" lon="12.115447121767028"><ele>313.0</ele><time>2026-04-28T16:39:18Z</time></trkpt><trkpt lat="42.495765763604126" lon="12.115353969679845"><ele>313.0</ele><time>2026-04-28T16:39:19Z</time></trkpt><trkpt lat="42.49601752184333" lon="12.115261052496104"><ele>313.0</ele><time>2026-04-28T16:39:20Z</time></trkpt><trkpt lat="42.49626322321676" lon="12.115163797165305"><ele>314.5</ele><time>2026-04-28T16:39:21Z</time></trkpt><trkpt lat="42.49649526167209" lon="12.115077288639277"><ele>316.0</ele><time>2026-04-28T16:39:22Z</time></trkpt><trkpt lat="42.496709387882795" lon="12.115000851745828"><ele>316.0</ele><time>2026-04-28T16:39:23Z</time></trkpt><trkpt lat="42.49691432890333" lon="12.114924124264295"><ele>316.0</ele><time>2026-04-28T16:39:24Z</time></trkpt><trkpt lat="42.49712176042626" lon="12.114849533069611"><ele>316.0</ele><time>2026-04-28T16:39:25Z</time></trkpt><trkpt lat="42.49732964777537" lon="12.114791987512485"><ele>316.66666666666663</ele><time>2026-04-28T16:39:26Z</time></trkpt><trkpt lat="42.49753255729963" lon="12.114747590393598"><ele>317.3333333333333</ele><time>2026-04-28T16:39:27Z</time></trkpt><trkpt lat="42.497719839746836" lon="12.114716051582207"><ele>318.0</ele><time>2026-04-28T16:39:28Z</time></trkpt><trkpt lat="42.49789572935149" lon="12.114703477491409"><ele>318.6666666666667</ele><time>2026-04-28T16:39:29Z</time></trkpt><trkpt lat="42.49807043859058" lon="12.114698349824097"><ele>319.33333333333337</ele><time>2026-04-28T16:39:30Z</time></trkpt><trkpt lat="42.498254130297454" lon="12.114707822441753"><ele>320.0</ele><time>2026-04-28T16:39:31Z</time></trkpt><trkpt lat="42.49844378352359" lon="12.114729427407656"><ele>320.0</ele><time>2026-04-28T16:39:32Z</time></trkpt><trkpt lat="42.498639038687095" lon="12.114763462292487"><ele>320.0</ele><time>2026-04-28T16:39:33Z</time></trkpt><trkpt lat="42.49884061364294" lon="12.114808208812313"><ele>320.0</ele><time>2026-04-28T16:39:34Z</time></trkpt><trkpt lat="42.499044238393566" lon="12.114853296687613"><ele>321.0</ele><time>2026-04-28T16:39:35Z</time></trkpt><trkpt lat="42.49925657161536" lon="12.114897396838154"><ele>322.0</ele><time>2026-04-28T16:39:36Z</time></trkpt><trkpt lat="42.4994745625272" lon="12.114939341787183"><ele>323.0</ele><time>2026-04-28T16:39:37Z</time></trkpt><trkpt lat="42.499696037554344" lon="12.11498064078649"><ele>327.0</ele><time>2026-04-28T16:39:38Z</time></trkpt><trkpt lat="42.499922830079356" lon="12.115022549058864"><ele>331.0</ele><time>2026-04-28T16:39:39Z</time></trkpt><trkpt lat="42.50015162623199" lon="12.11507034093153"><ele>331.0</ele><time>2026-04-28T16:39:40Z</time></trkpt><trkpt lat="42.50038080394356" lon="12.1151126787092"><ele>331.0</ele><time>2026-04-28T16:39:41Z</time></trkpt><trkpt lat="42.500612321013215" lon="12.11515435686305"><ele>332.0</ele><time>2026-04-28T16:39:42Z</time></trkpt><trkpt lat="42.50084490666298" lon="12.11520304105161"><ele>333.0</ele><time>2026-04-28T16:39:43Z</time></trkpt><trkpt lat="42.50107761108755" lon="12.115253694047418"><ele>335.0</ele><time>2026-04-28T16:39:44Z</time></trkpt><trkpt lat="42.50131038626657" lon="12.115296441901831"><ele>337.0</ele><time>2026-04-28T16:39:45Z</time></trkpt><trkpt lat="42.50154379262708" lon="12.115334375344847"><ele>337.0</ele><time>2026-04-28T16:39:46Z</time></trkpt><trkpt lat="42.50177760190318" lon="12.115379211701077"><ele>337.0</ele><time>2026-04-28T16:39:47Z</time></trkpt><trkpt lat="42.502010689852234" lon="12.115436296518057"><ele>339.0</ele><time>2026-04-28T16:39:48Z</time></trkpt><trkpt lat="42.502243220766786" lon="12.115497493777376"><ele>341.0</ele><time>2026-04-28T16:39:49Z</time></trkpt><trkpt lat="42.5024718308214" lon="12.115565460812416"><ele>341.0</ele><time>2026-04-28T16:39:50Z</time></trkpt><trkpt lat="42.502687228646366" lon="12.115654913422627"><ele>341.0</ele><time>2026-04-28T16:39:51Z</time></trkpt><trkpt lat="42.50289666955378" lon="12.115773682498721"><ele>343.5</ele><time>2026-04-28T16:39:52Z</time></trkpt><trkpt lat="42.50310200375963" lon="12.115920003236107"><ele>346.0</ele><time>2026-04-28T16:39:53Z</time></trkpt><trkpt lat="42.50330386991395" lon="12.116095060753779"><ele>346.0</ele><time>2026-04-28T16:39:54Z</time></trkpt><trkpt lat="42.50350167638087" lon="12.116293846218046"><ele>346.0</ele><time>2026-04-28T16:39:55Z</time></trkpt><trkpt lat="42.5036954034014" lon="12.116505866175748"><ele>348.5</ele><time>2026-04-28T16:39:56Z</time></trkpt><trkpt lat="42.50388803160012" lon="12.116726322444615"><ele>351.0</ele><time>2026-04-28T16:39:57Z</time></trkpt><trkpt lat="42.50407976107022" lon="12.116943138515095"><ele>351.0</ele><time>2026-04-28T16:39:58Z</time></trkpt><trkpt lat="42.50426877775317" lon="12.117151839484926"><ele>351.0</ele><time>2026-04-28T16:39:59Z</time></trkpt><trkpt lat="42.50444743822477" lon="12.117347458789181"><ele>353.0</ele><time>2026-04-28T16:40:00Z</time></trkpt><trkpt lat="42.504616142650455" lon="12.117525877275916"><ele>355.0</ele><time>2026-04-28T16:40:01Z</time></trkpt><trkpt lat="42.504790005619206" lon="12.117708055098452"><ele>357.0</ele><time>2026-04-28T16:40:02Z</time></trkpt><trkpt lat="42.504968940783854" lon="12.117887630790856"><ele>357.0</ele><time>2026-04-28T16:40:03Z</time></trkpt><trkpt lat="42.505156927161366" lon="12.11806372297012"><ele>357.0</ele><time>2026-04-28T16:40:04Z</time></trkpt><trkpt lat="42.5053533112704" lon="12.118235556435971"><ele>355.5</ele><time>2026-04-28T16:40:05Z</time></trkpt><trkpt lat="42.505548641709034" lon="12.118400341208469"><ele>354.0</ele><time>2026-04-28T16:40:06Z</time></trkpt><trkpt lat="42.505741536688234" lon="12.11854589210493"><ele>354.0</ele><time>2026-04-28T16:40:07Z</time></trkpt><trkpt lat="42.505943075626696" lon="12.11868159567707"><ele>354.0</ele><time>2026-04-28T16:40:08Z</time></trkpt><trkpt lat="42.506153582399875" lon="12.118803345131239"><ele>352.0</ele><time>2026-04-28T16:40:09Z</time></trkpt><trkpt lat="42.50637923607274" lon="12.118914925564459"><ele>350.0</ele><time>2026-04-28T16:40:10Z</time></trkpt><trkpt lat="42.50661926113593" lon="12.119020420198883"><ele>350.0</ele><time>2026-04-28T16:40:11Z</time></trkpt><trkpt lat="42.50686629217245" lon="12.119119822608583"><ele>350.0</ele><time>2026-04-28T16:40:12Z</time></trkpt><trkpt lat="42.50711165964111" lon="12.119220800767122"><ele>348.0</ele><time>2026-04-28T16:40:13Z</time></trkpt><trkpt lat="42.507364201884236" lon="12.11932701382931"><ele>346.0</ele><time>2026-04-28T16:40:14Z</time></trkpt><trkpt lat="42.50762071069723" lon="12.119427894615749"><ele>346.0</ele><time>2026-04-28T16:40:15Z</time></trkpt><trkpt lat="42.50787770223436" lon="12.119529088083105"><ele>346.0</ele><time>2026-04-28T16:40:16Z</time></trkpt><trkpt lat="42.50813214808089" lon="12.119629125999005"><ele>345.0</ele><time>2026-04-28T16:40:17Z</time></trkpt><trkpt lat="42.508380471659564" lon="12.119727747563559"><ele>344.0</ele><time>2026-04-28T16:40:18Z</time></trkpt><trkpt lat="42.50862892906713" lon="12.119829448672158"><ele>345.0</ele><time>2026-04-28T16:40:19Z</time></trkpt><trkpt lat="42.508875965588246" lon="12.119931663485191"><ele>346.0</ele><time>2026-04-28T16:40:20Z</time></trkpt><trkpt lat="42.50912274380596" lon="12.120032790020769"><ele>346.0</ele><time>2026-04-28T16:40:21Z</time></trkpt><trkpt lat="42.509368788127944" lon="12.120131454700244"><ele>346.0</ele><time>2026-04-28T16:40:22Z</time></trkpt><trkpt lat="42.50961491305555" lon="12.12023071349364"><ele>345.5</ele><time>2026-04-28T16:40:23Z</time></trkpt><trkpt lat="42.509862186859934" lon="12.120332663084978"><ele>345.0</ele><time>2026-04-28T16:40:24Z</time></trkpt><trkpt lat="42.51011137682505" lon="12.120434983947783"><ele>345.0</ele><time>2026-04-28T16:40:25Z</time></trkpt><trkpt lat="42.51036229427442" lon="12.12053688072271"><ele>345.0</ele><time>2026-04-28T16:40:26Z</time></trkpt><trkpt lat="42.51061385412374" lon="12.120638125826337"><ele>343.0</ele><time>2026-04-28T16:40:27Z</time></trkpt><trkpt lat="42.51086483811202" lon="12.12073911656461"><ele>341.0</ele><time>2026-04-28T16:40:28Z</time></trkpt><trkpt lat="42.511115398792626" lon="12.120840670524322"><ele>343.0</ele><time>2026-04-28T16:40:29Z</time></trkpt><trkpt lat="42.51136497583554" lon="12.120939716738405"><ele>345.0</ele><time>2026-04-28T16:40:30Z</time></trkpt><trkpt lat="42.51161276631806" lon="12.12103862918805"><ele>345.0</ele><time>2026-04-28T16:40:31Z</time></trkpt><trkpt lat="42.51185874769969" lon="12.121137153037798"><ele>345.0</ele><time>2026-04-28T16:40:32Z</time></trkpt><trkpt lat="42.512103035950396" lon="12.121236283031939"><ele>349.0</ele><time>2026-04-28T16:40:33Z</time></trkpt><trkpt lat="42.512347399910645" lon="12.1213376789479"><ele>353.0</ele><time>2026-04-28T16:40:34Z</time></trkpt><trkpt lat="42.512592632259796" lon="12.12143640427736"><ele>353.0</ele><time>2026-04-28T16:40:35Z</time></trkpt><trkpt lat="42.512837143116215" lon="12.12153025221135"><ele>353.0</ele><time>2026-04-28T16:40:36Z</time></trkpt><trkpt lat="42.5130807409614" lon="12.121615990299441"><ele>351.5</ele><time>2026-04-28T16:40:37Z</time></trkpt><trkpt lat="42.51332475307701" lon="12.121691839533478"><ele>350.0</ele><time>2026-04-28T16:40:38Z</time></trkpt><trkpt lat="42.51357005122827" lon="12.121750099219167"><ele>351.0</ele><time>2026-04-28T16:40:39Z</time></trkpt><trkpt lat="42.5138191304564" lon="12.121794237023026"><ele>352.0</ele><time>2026-04-28T16:40:40Z</time></trkpt><trkpt lat="42.51407512322659" lon="12.121829104288881"><ele>352.0</ele><time>2026-04-28T16:40:41Z</time></trkpt><trkpt lat="42.51433003895659" lon="12.121860228964964"><ele>352.0</ele><time>2026-04-28T16:40:42Z</time></trkpt><trkpt lat="42.5145875864967" lon="12.121893134357363"><ele>351.5</ele><time>2026-04-28T16:40:43Z</time></trkpt><trkpt lat="42.514843716909354" lon="12.121921787031722"><ele>351.0</ele><time>2026-04-28T16:40:44Z</time></trkpt><trkpt lat="42.51509498040784" lon="12.121953430906819"><ele>351.0</ele><time>2026-04-28T16:40:45Z</time></trkpt><trkpt lat="42.51534818376543" lon="12.121986855634097"><ele>351.0</ele><time>2026-04-28T16:40:46Z</time></trkpt><trkpt lat="42.51560280085763" lon="12.122018986252138"><ele>350.0</ele><time>2026-04-28T16:40:47Z</time></trkpt><trkpt lat="42.51586354116487" lon="12.122054532027514"><ele>349.0</ele><time>2026-04-28T16:40:48Z</time></trkpt><trkpt lat="42.51612888639586" lon="12.12208689038761"><ele>343.5</ele><time>2026-04-28T16:40:49Z</time></trkpt><trkpt lat="42.51640139349627" lon="12.122121470622401"><ele>338.0</ele><time>2026-04-28T16:40:50Z</time></trkpt><trkpt lat="42.51667623426753" lon="12.122156942728036"><ele>338.0</ele><time>2026-04-28T16:40:51Z</time></trkpt><trkpt lat="42.516952097603195" lon="12.122192699164692"><ele>338.0</ele><time>2026-04-28T16:40:52Z</time></trkpt><trkpt lat="42.517230990618884" lon="12.12222669316012"><ele>333.0</ele><time>2026-04-28T16:40:53Z</time></trkpt><trkpt lat="42.51750803982583" lon="12.1222601059594"><ele>328.0</ele><time>2026-04-28T16:40:54Z</time></trkpt><trkpt lat="42.51778247205775" lon="12.122295276906275"><ele>325.0</ele><time>2026-04-28T16:40:55Z</time></trkpt><trkpt lat="42.51805859251068" lon="12.12233458939645"><ele>322.0</ele><time>2026-04-28T16:40:56Z</time></trkpt><trkpt lat="42.51833764657648" lon="12.122373338705671"><ele>320.5</ele><time>2026-04-28T16:40:57Z</time></trkpt><trkpt lat="42.51861727682922" lon="12.122413601266675"><ele>319.0</ele><time>2026-04-28T16:40:58Z</time></trkpt><trkpt lat="42.51889799442736" lon="12.122450579618643"><ele>319.0</ele><time>2026-04-28T16:40:59Z</time></trkpt><trkpt lat="42.519179057403704" lon="12.12248595624164"><ele>319.0</ele><time>2026-04-28T16:41:00Z</time></trkpt><trkpt lat="42.51945969049522" lon="12.122520358888806"><ele>319.0</ele><time>2026-04-28T16:41:01Z</time></trkpt><trkpt lat="42.51973951760158" lon="12.122554816403907"><ele>319.0</ele><time>2026-04-28T16:41:02Z</time></trkpt><trkpt lat="42.52001756664242" lon="12.122593615344657"><ele>319.0</ele><time>2026-04-28T16:41:03Z</time></trkpt><trkpt lat="42.52029352607492" lon="12.122630135014994"><ele>319.0</ele><time>2026-04-28T16:41:04Z</time></trkpt><trkpt lat="42.52056640498245" lon="12.122664922786305"><ele>320.5</ele><time>2026-04-28T16:41:05Z</time></trkpt><trkpt lat="42.52083461994735" lon="12.122698186609039"><ele>322.0</ele><time>2026-04-28T16:41:06Z</time></trkpt><trkpt lat="42.5210955433272" lon="12.122730394917701"><ele>326.0</ele><time>2026-04-28T16:41:07Z</time></trkpt><trkpt lat="42.52135189604428" lon="12.122765654133577"><ele>330.0</ele><time>2026-04-28T16:41:08Z</time></trkpt><trkpt lat="42.52160248572361" lon="12.122801530436197"><ele>330.0</ele><time>2026-04-28T16:41:09Z</time></trkpt><trkpt lat="42.52182566492432" lon="12.122828125897003"><ele>330.0</ele><time>2026-04-28T16:41:10Z</time></trkpt><trkpt lat="42.52203263703073" lon="12.122841569143695"><ele>330.0</ele><time>2026-04-28T16:41:11Z</time></trkpt><trkpt lat="42.52222894716416" lon="12.122840780819786"><ele>330.6666666666667</ele><time>2026-04-28T16:41:12Z</time></trkpt><trkpt lat="42.52242554624648" lon="12.122818841252652"><ele>331.33333333333337</ele><time>2026-04-28T16:41:13Z</time></trkpt><trkpt lat="42.52261670849236" lon="12.122791454040005"><ele>332.0</ele><time>2026-04-28T16:41:14Z</time></trkpt><trkpt lat="42.52280732979533" lon="12.122741296336907"><ele>332.0</ele><time>2026-04-28T16:41:15Z</time></trkpt><trkpt lat="42.52300320113573" lon="12.122684966903796"><ele>332.0</ele><time>2026-04-28T16:41:16Z</time></trkpt><trkpt lat="42.523202592293295" lon="12.122603583572586"><ele>332.0</ele><time>2026-04-28T16:41:17Z</time></trkpt><trkpt lat="42.523400962173504" lon="12.122506947351011"><ele>332.0</ele><time>2026-04-28T16:41:18Z</time></trkpt><trkpt lat="42.52359840233424" lon="12.122400482202362"><ele>332.0</ele><time>2026-04-28T16:41:19Z</time></trkpt><trkpt lat="42.523796653114616" lon="12.12228679222692"><ele>332.0</ele><time>2026-04-28T16:41:20Z</time></trkpt><trkpt lat="42.523994549505154" lon="12.122171470523732"><ele>333.0</ele><time>2026-04-28T16:41:21Z</time></trkpt><trkpt lat="42.524194638246826" lon="12.122058942757596"><ele>334.0</ele><time>2026-04-28T16:41:22Z</time></trkpt><trkpt lat="42.52439456046062" lon="12.12194826216815"><ele>335.0</ele><time>2026-04-28T16:41:23Z</time></trkpt><trkpt lat="42.52459435043284" lon="12.121835060412721"><ele>335.0</ele><time>2026-04-28T16:41:24Z</time></trkpt><trkpt lat="42.524793391596006" lon="12.121720770938195"><ele>335.0</ele><time>2026-04-28T16:41:25Z</time></trkpt><trkpt lat="42.52498897221971" lon="12.121608396142665"><ele>335.0</ele><time>2026-04-28T16:41:26Z</time></trkpt><trkpt lat="42.5251831976761" lon="12.12150095771709"><ele>335.0</ele><time>2026-04-28T16:41:27Z</time></trkpt><trkpt lat="42.525365353538106" lon="12.121394939648471"><ele>335.0</ele><time>2026-04-28T16:41:28Z</time></trkpt><trkpt lat="42.52554198187478" lon="12.12129672558385"><ele>335.0</ele><time>2026-04-28T16:41:29Z</time></trkpt><trkpt lat="42.525713657182486" lon="12.121196990804938"><ele>334.6666666666667</ele><time>2026-04-28T16:41:30Z</time></trkpt><trkpt lat="42.52588388635251" lon="12.121099721566308"><ele>334.3333333333333</ele><time>2026-04-28T16:41:31Z</time></trkpt><trkpt lat="42.52606187737252" lon="12.12099558445194"><ele>334.0</ele><time>2026-04-28T16:41:32Z</time></trkpt><trkpt lat="42.52625016467074" lon="12.120885240805206"><ele>331.66666666666663</ele><time>2026-04-28T16:41:33Z</time></trkpt><trkpt lat="42.52644669493589" lon="12.12077279710276"><ele>329.3333333333333</ele><time>2026-04-28T16:41:34Z</time></trkpt><trkpt lat="42.52665832569412" lon="12.120653850894243"><ele>327.0</ele><time>2026-04-28T16:41:35Z</time></trkpt><trkpt lat="42.526880399494615" lon="12.12053203985582"><ele>323.0</ele><time>2026-04-28T16:41:36Z</time></trkpt><trkpt lat="42.527098210866974" lon="12.120409630447348"><ele>319.0</ele><time>2026-04-28T16:41:37Z</time></trkpt><trkpt lat="42.527317819108404" lon="12.120283262695954"><ele>319.0</ele><time>2026-04-28T16:41:38Z</time></trkpt><trkpt lat="42.52753593501506" lon="12.120157945537724"><ele>319.0</ele><time>2026-04-28T16:41:39Z</time></trkpt><trkpt lat="42.52775597868255" lon="12.120034282373853"><ele>319.5</ele><time>2026-04-28T16:41:40Z</time></trkpt><trkpt lat="42.52797377171056" lon="12.119915015156133"><ele>320.0</ele><time>2026-04-28T16:41:41Z</time></trkpt><trkpt lat="42.528187605095816" lon="12.119796096119543"><ele>323.0</ele><time>2026-04-28T16:41:42Z</time></trkpt><trkpt lat="42.5283958362686" lon="12.119676586764179"><ele>326.0</ele><time>2026-04-28T16:41:43Z</time></trkpt><trkpt lat="42.528602934557746" lon="12.119554143652975"><ele>327.0</ele><time>2026-04-28T16:41:44Z</time></trkpt><trkpt lat="42.528812568395765" lon="12.119436088311762"><ele>328.0</ele><time>2026-04-28T16:41:45Z</time></trkpt><trkpt lat="42.52902321389239" lon="12.119318816689347"><ele>328.0</ele><time>2026-04-28T16:41:46Z</time></trkpt><trkpt lat="42.52923639896409" lon="12.119200978519144"><ele>328.0</ele><time>2026-04-28T16:41:47Z</time></trkpt><trkpt lat="42.52945132161726" lon="12.11908068281175"><ele>330.5</ele><time>2026-04-28T16:41:48Z</time></trkpt><trkpt lat="42.52966563335317" lon="12.118959796584134"><ele>333.0</ele><time>2026-04-28T16:41:49Z</time></trkpt><trkpt lat="42.52987736612678" lon="12.118842409014693"><ele>333.0</ele><time>2026-04-28T16:41:50Z</time></trkpt><trkpt lat="42.53008842113749" lon="12.118727237532186"><ele>333.0</ele><time>2026-04-28T16:41:51Z</time></trkpt><trkpt lat="42.530299924634186" lon="12.118615327244596"><ele>332.0</ele><time>2026-04-28T16:41:52Z</time></trkpt><trkpt lat="42.5305098795239" lon="12.1185084468704"><ele>331.0</ele><time>2026-04-28T16:41:53Z</time></trkpt><trkpt lat="42.5307119926979" lon="12.118403586657237"><ele>330.0</ele><time>2026-04-28T16:41:54Z</time></trkpt><trkpt lat="42.53090613540144" lon="12.118296733423193"><ele>330.0</ele><time>2026-04-28T16:41:55Z</time></trkpt><trkpt lat="42.531093823128785" lon="12.11818698887104"><ele>330.0</ele><time>2026-04-28T16:41:56Z</time></trkpt><trkpt lat="42.53128338311682" lon="12.118074401614713"><ele>330.0</ele><time>2026-04-28T16:41:57Z</time></trkpt><trkpt lat="42.53146930079364" lon="12.117961385229105"><ele>330.0</ele><time>2026-04-28T16:41:58Z</time></trkpt><trkpt lat="42.53164388018548" lon="12.117850088267183"><ele>330.0</ele><time>2026-04-28T16:41:59Z</time></trkpt><trkpt lat="42.53181585989445" lon="12.117736975388416"><ele>330.0</ele><time>2026-04-28T16:42:00Z</time></trkpt><trkpt lat="42.53198752922438" lon="12.117619157341881"><ele>330.0</ele><time>2026-04-28T16:42:01Z</time></trkpt><trkpt lat="42.53214991740003" lon="12.11750873503729"><ele>330.0</ele><time>2026-04-28T16:42:02Z</time></trkpt><trkpt lat="42.53231029104587" lon="12.117417236862881"><ele>330.0</ele><time>2026-04-28T16:42:03Z</time></trkpt><trkpt lat="42.53247766038688" lon="12.117342277796833"><ele>330.6666666666667</ele><time>2026-04-28T16:42:04Z</time></trkpt><trkpt lat="42.53265183639175" lon="12.11729827764791"><ele>331.33333333333337</ele><time>2026-04-28T16:42:05Z</time></trkpt><trkpt lat="42.532826022815556" lon="12.117296567063299"><ele>332.0</ele><time>2026-04-28T16:42:06Z</time></trkpt><trkpt lat="42.53300042610435" lon="12.117341765865193"><ele>332.6666666666667</ele><time>2026-04-28T16:42:07Z</time></trkpt><trkpt lat="42.53317876201038" lon="12.117417223206752"><ele>333.3333333333333</ele><time>2026-04-28T16:42:08Z</time></trkpt><trkpt lat="42.533367690127875" lon="12.117504061865278"><ele>334.0</ele><time>2026-04-28T16:42:09Z</time></trkpt><trkpt lat="42.53357330946141" lon="12.117590621249297"><ele>335.3333333333333</ele><time>2026-04-28T16:42:10Z</time></trkpt><trkpt lat="42.53377556150944" lon="12.117679653391338"><ele>336.6666666666667</ele><time>2026-04-28T16:42:11Z</time></trkpt><trkpt lat="42.53396879346592" lon="12.117761598068522"><ele>338.0</ele><time>2026-04-28T16:42:12Z</time></trkpt><trkpt lat="42.53416185601878" lon="12.117841484091967"><ele>338.0</ele><time>2026-04-28T16:42:13Z</time></trkpt><trkpt lat="42.534357241837526" lon="12.117929284194512"><ele>338.0</ele><time>2026-04-28T16:42:14Z</time></trkpt><trkpt lat="42.53455601007024" lon="12.118022208484172"><ele>338.0</ele><time>2026-04-28T16:42:15Z</time></trkpt><trkpt lat="42.534755622463024" lon="12.118099996813067"><ele>338.33333333333337</ele><time>2026-04-28T16:42:16Z</time></trkpt><trkpt lat="42.53494915911478" lon="12.118181142152112"><ele>338.6666666666667</ele><time>2026-04-28T16:42:17Z</time></trkpt><trkpt lat="42.535142762239424" lon="12.118267145448417"><ele>339.0</ele><time>2026-04-28T16:42:18Z</time></trkpt><trkpt lat="42.53533838681217" lon="12.118351079764048"><ele>336.3333333333333</ele><time>2026-04-28T16:42:19Z</time></trkpt><trkpt lat="42.53553595247712" lon="12.118438260869794"><ele>333.66666666666663</ele><time>2026-04-28T16:42:20Z</time></trkpt><trkpt lat="42.53574018737023" lon="12.118524838056572"><ele>331.0</ele><time>2026-04-28T16:42:21Z</time></trkpt><trkpt lat="42.53595028303045" lon="12.118611708206886"><ele>331.0</ele><time>2026-04-28T16:42:22Z</time></trkpt><trkpt lat="42.536159989152225" lon="12.118705272875973"><ele>331.0</ele><time>2026-04-28T16:42:23Z</time></trkpt><trkpt lat="42.53636880953581" lon="12.118791624302858"><ele>331.0</ele><time>2026-04-28T16:42:24Z</time></trkpt><trkpt lat="42.536564788670205" lon="12.11886105463788"><ele>330.66666666666663</ele><time>2026-04-28T16:42:25Z</time></trkpt><trkpt lat="42.536757751192184" lon="12.11890221813039"><ele>330.3333333333333</ele><time>2026-04-28T16:42:26Z</time></trkpt><trkpt lat="42.53696117303192" lon="12.118923022709927"><ele>330.0</ele><time>2026-04-28T16:42:27Z</time></trkpt><trkpt lat="42.53717913190214" lon="12.118943329872227"><ele>330.6666666666667</ele><time>2026-04-28T16:42:28Z</time></trkpt><trkpt lat="42.53739956944422" lon="12.118967883534916"><ele>331.33333333333337</ele><time>2026-04-28T16:42:29Z</time></trkpt><trkpt lat="42.53761201099276" lon="12.118991251437045"><ele>332.0</ele><time>2026-04-28T16:42:30Z</time></trkpt><trkpt lat="42.537811537137536" lon="12.119012566185031"><ele>332.6666666666667</ele><time>2026-04-28T16:42:31Z</time></trkpt><trkpt lat="42.53801333217923" lon="12.11902495145673"><ele>333.3333333333333</ele><time>2026-04-28T16:42:32Z</time></trkpt><trkpt lat="42.538218733424614" lon="12.119036331279144"><ele>334.0</ele><time>2026-04-28T16:42:33Z</time></trkpt><trkpt lat="42.53842460538122" lon="12.119045691811605"><ele>334.0</ele><time>2026-04-28T16:42:34Z</time></trkpt><trkpt lat="42.53863414404637" lon="12.11905782820429"><ele>334.0</ele><time>2026-04-28T16:42:35Z</time></trkpt><trkpt lat="42.538845143988624" lon="12.119074712421694"><ele>334.0</ele><time>2026-04-28T16:42:36Z</time></trkpt><trkpt lat="42.53905643618465" lon="12.11909107456827"><ele>337.66666666666663</ele><time>2026-04-28T16:42:37Z</time></trkpt><trkpt lat="42.539265535265706" lon="12.119111111318409"><ele>341.3333333333333</ele><time>2026-04-28T16:42:38Z</time></trkpt><trkpt lat="42.539476858429985" lon="12.119128985986107"><ele>345.0</ele><time>2026-04-28T16:42:39Z</time></trkpt><trkpt lat="42.53968745585291" lon="12.11914216266984"><ele>345.0</ele><time>2026-04-28T16:42:40Z</time></trkpt><trkpt lat="42.539893973369075" lon="12.119156143103835"><ele>345.0</ele><time>2026-04-28T16:42:41Z</time></trkpt><trkpt lat="42.5400857033662" lon="12.119175215449904"><ele>345.0</ele><time>2026-04-28T16:42:42Z</time></trkpt><trkpt lat="42.540278061602024" lon="12.119193818356473"><ele>345.6666666666667</ele><time>2026-04-28T16:42:43Z</time></trkpt><trkpt lat="42.540453132259614" lon="12.119208686609594"><ele>346.33333333333337</ele><time>2026-04-28T16:42:44Z</time></trkpt><trkpt lat="42.54061928920465" lon="12.119231896386777"><ele>347.0</ele><time>2026-04-28T16:42:45Z</time></trkpt><trkpt lat="42.54078101921077" lon="12.119286988453032"><ele>347.0</ele><time>2026-04-28T16:42:46Z</time></trkpt><trkpt lat="42.54092460428297" lon="12.11938318514768"><ele>347.0</ele><time>2026-04-28T16:42:47Z</time></trkpt><trkpt lat="42.54105134243215" lon="12.119513192300628"><ele>347.0</ele><time>2026-04-28T16:42:48Z</time></trkpt><trkpt lat="42.54117109724999" lon="12.119663716042577"><ele>349.0</ele><time>2026-04-28T16:42:49Z</time></trkpt><trkpt lat="42.54129710045535" lon="12.119817196947501"><ele>351.0</ele><time>2026-04-28T16:42:50Z</time></trkpt><trkpt lat="42.54144453733943" lon="12.1199581739069"><ele>353.0</ele><time>2026-04-28T16:42:51Z</time></trkpt><trkpt lat="42.54160543286932" lon="12.120092018739172"><ele>353.33333333333337</ele><time>2026-04-28T16:42:52Z</time></trkpt><trkpt lat="42.54177041386673" lon="12.120207012922279"><ele>353.6666666666667</ele><time>2026-04-28T16:42:53Z</time></trkpt><trkpt lat="42.54194416359129" lon="12.120305229926352"><ele>354.0</ele><time>2026-04-28T16:42:54Z</time></trkpt><trkpt lat="42.54212267977713" lon="12.120375713705963"><ele>355.6666666666667</ele><time>2026-04-28T16:42:55Z</time></trkpt><trkpt lat="42.54231277527994" lon="12.12042493547103"><ele>357.33333333333337</ele><time>2026-04-28T16:42:56Z</time></trkpt><trkpt lat="42.5425082123762" lon="12.120463520280177"><ele>359.0</ele><time>2026-04-28T16:42:57Z</time></trkpt><trkpt lat="42.54270434885302" lon="12.120490995078516"><ele>360.6666666666667</ele><time>2026-04-28T16:42:58Z</time></trkpt><trkpt lat="42.54289877310848" lon="12.120517579892345"><ele>362.3333333333333</ele><time>2026-04-28T16:42:59Z</time></trkpt><trkpt lat="42.543094446731075" lon="12.120539476875786"><ele>364.0</ele><time>2026-04-28T16:43:00Z</time></trkpt><trkpt lat="42.543286869688124" lon="12.120557923972418"><ele>364.0</ele><time>2026-04-28T16:43:01Z</time></trkpt><trkpt lat="42.54346330640304" lon="12.12057345001492"><ele>364.0</ele><time>2026-04-28T16:43:02Z</time></trkpt><trkpt lat="42.543627048998" lon="12.120586424506435"><ele>364.0</ele><time>2026-04-28T16:43:03Z</time></trkpt><trkpt lat="42.5438002393052" lon="12.120594114151231"><ele>365.66666666666663</ele><time>2026-04-28T16:43:04Z</time></trkpt><trkpt lat="42.543983550918405" lon="12.120603150788833"><ele>367.3333333333333</ele><time>2026-04-28T16:43:05Z</time></trkpt><trkpt lat="42.54415239312469" lon="12.120608897665269"><ele>369.0</ele><time>2026-04-28T16:43:06Z</time></trkpt><trkpt lat="42.54431296991025" lon="12.120615870344466"><ele>369.0</ele><time>2026-04-28T16:43:07Z</time></trkpt><trkpt lat="42.54446866351908" lon="12.120619136280645"><ele>369.0</ele><time>2026-04-28T16:43:08Z</time></trkpt><trkpt lat="42.54462438623599" lon="12.12062195659346"><ele>369.0</ele><time>2026-04-28T16:43:09Z</time></trkpt><trkpt lat="42.54479141880457" lon="12.120618529030642"><ele>367.6666666666667</ele><time>2026-04-28T16:43:10Z</time></trkpt><trkpt lat="42.54495157264009" lon="12.120604465639337"><ele>366.33333333333337</ele><time>2026-04-28T16:43:11Z</time></trkpt><trkpt lat="42.545117076435226" lon="12.120571025452476"><ele>365.0</ele><time>2026-04-28T16:43:12Z</time></trkpt><trkpt lat="42.54529277788059" lon="12.120522123801745"><ele>364.6666666666667</ele><time>2026-04-28T16:43:13Z</time></trkpt><trkpt lat="42.545489732266184" lon="12.120468407947856"><ele>364.3333333333333</ele><time>2026-04-28T16:43:14Z</time></trkpt><trkpt lat="42.54570009695903" lon="12.120422657778851"><ele>364.0</ele><time>2026-04-28T16:43:15Z</time></trkpt><trkpt lat="42.54590507181785" lon="12.12038568605884"><ele>364.0</ele><time>2026-04-28T16:43:16Z</time></trkpt><trkpt lat="42.54609546934967" lon="12.120349618727257"><ele>364.0</ele><time>2026-04-28T16:43:17Z</time></trkpt><trkpt lat="42.546256010342184" lon="12.120320898547757"><ele>364.0</ele><time>2026-04-28T16:43:18Z</time></trkpt><trkpt lat="42.54640998789162" lon="12.12030407242439"><ele>363.25</ele><time>2026-04-28T16:43:19Z</time></trkpt><trkpt lat="42.5465555316273" lon="12.12029861423782"><ele>362.5</ele><time>2026-04-28T16:43:20.001Z</time></trkpt><trkpt lat="42.54670811471402" lon="12.120305929504156"><ele>361.75</ele><time>2026-04-28T16:43:21.001Z</time></trkpt><trkpt lat="42.54685383985157" lon="12.120326103242315"><ele>361.0</ele><time>2026-04-28T16:43:22.001Z</time></trkpt><trkpt lat="42.5469821731004" lon="12.120352241615075"><ele>361.0</ele><time>2026-04-28T16:43:23.001Z</time></trkpt><trkpt lat="42.54710177241732" lon="12.120383026428598"><ele>361.0</ele><time>2026-04-28T16:43:24.001Z</time></trkpt><trkpt lat="42.54722464790022" lon="12.120414060816783"><ele>361.0</ele><time>2026-04-28T16:43:25Z</time></trkpt><trkpt lat="42.547335999127405" lon="12.120442478937287"><ele>361.0</ele><time>2026-04-28T16:43:26Z</time></trkpt><trkpt lat="42.54744054746487" lon="12.12047283045059"><ele>361.0</ele><time>2026-04-28T16:43:27.001Z</time></trkpt><trkpt lat="42.547535651762416" lon="12.120505452136246"><ele>361.0</ele><time>2026-04-28T16:43:28Z</time></trkpt><trkpt lat="42.54762292538175" lon="12.12053896251533"><ele>361.0</ele><time>2026-04-28T16:43:29Z</time></trkpt><trkpt lat="42.54771325267081" lon="12.120573642213108"><ele>361.0</ele><time>2026-04-28T16:43:30Z</time></trkpt><trkpt lat="42.54781088911521" lon="12.120613733560083"><ele>361.0</ele><time>2026-04-28T16:43:31Z</time></trkpt><trkpt lat="42.547922282173104" lon="12.12065813799829"><ele>361.3333333333333</ele><time>2026-04-28T16:43:32Z</time></trkpt><trkpt lat="42.5480547257122" lon="12.12070510265274"><ele>361.6666666666667</ele><time>2026-04-28T16:43:33Z</time></trkpt><trkpt lat="42.54820173934775" lon="12.120764849122287"><ele>362.0</ele><time>2026-04-28T16:43:34Z</time></trkpt><trkpt lat="42.54836037191658" lon="12.12083556093118"><ele>362.0</ele><time>2026-04-28T16:43:35Z</time></trkpt><trkpt lat="42.54852703889668" lon="12.120915883070236"><ele>362.0</ele><time>2026-04-28T16:43:36Z</time></trkpt><trkpt lat="42.54869868605981" lon="12.120995192952684"><ele>362.0</ele><time>2026-04-28T16:43:37Z</time></trkpt><trkpt lat="42.54888863809248" lon="12.121077492379042"><ele>362.0</ele><time>2026-04-28T16:43:38Z</time></trkpt><trkpt lat="42.549086858921264" lon="12.12116010790569"><ele>362.0</ele><time>2026-04-28T16:43:39Z</time></trkpt><trkpt lat="42.54929768732177" lon="12.12123598349252"><ele>362.0</ele><time>2026-04-28T16:43:40Z</time></trkpt><trkpt lat="42.54951753730045" lon="12.12130376980652"><ele>364.0</ele><time>2026-04-28T16:43:41Z</time></trkpt><trkpt lat="42.54974631356001" lon="12.12136007710277"><ele>366.0</ele><time>2026-04-28T16:43:42Z</time></trkpt><trkpt lat="42.54997945040701" lon="12.121409853501046"><ele>366.0</ele><time>2026-04-28T16:43:43Z</time></trkpt><trkpt lat="42.55021045547674" lon="12.121449707415419"><ele>366.0</ele><time>2026-04-28T16:43:44Z</time></trkpt><trkpt lat="42.550443039911535" lon="12.121480041243062"><ele>365.5</ele><time>2026-04-28T16:43:45Z</time></trkpt><trkpt lat="42.550673854203616" lon="12.121499950566243"><ele>365.0</ele><time>2026-04-28T16:43:46Z</time></trkpt><trkpt lat="42.55090207968871" lon="12.121517763981727"><ele>365.0</ele><time>2026-04-28T16:43:47Z</time></trkpt><trkpt lat="42.551121784701714" lon="12.121535529414672"><ele>365.0</ele><time>2026-04-28T16:43:48Z</time></trkpt><trkpt lat="42.55134523957572" lon="12.12155205095392"><ele>365.0</ele><time>2026-04-28T16:43:49Z</time></trkpt><trkpt lat="42.551573101172835" lon="12.121565236426989"><ele>364.0</ele><time>2026-04-28T16:43:50Z</time></trkpt><trkpt lat="42.55180150632684" lon="12.121564616549444"><ele>363.0</ele><time>2026-04-28T16:43:51Z</time></trkpt><trkpt lat="42.55203417823537" lon="12.12155663812538"><ele>363.5</ele><time>2026-04-28T16:43:52Z</time></trkpt><trkpt lat="42.552270826753684" lon="12.121544064644532"><ele>364.0</ele><time>2026-04-28T16:43:53Z</time></trkpt><trkpt lat="42.55251324613963" lon="12.121529001494913"><ele>364.0</ele><time>2026-04-28T16:43:54Z</time></trkpt><trkpt lat="42.55275858325768" lon="12.121515541547266"><ele>364.0</ele><time>2026-04-28T16:43:55Z</time></trkpt><trkpt lat="42.55301150916253" lon="12.121499778484749"><ele>364.5</ele><time>2026-04-28T16:43:56Z</time></trkpt><trkpt lat="42.553267021641936" lon="12.121480972991323"><ele>365.0</ele><time>2026-04-28T16:43:57Z</time></trkpt><trkpt lat="42.55352381750269" lon="12.121463643124523"><ele>366.0</ele><time>2026-04-28T16:43:58Z</time></trkpt><trkpt lat="42.55378163244619" lon="12.121447237353694"><ele>367.0</ele><time>2026-04-28T16:43:59Z</time></trkpt><trkpt lat="42.55403933907886" lon="12.121428470377124"><ele>367.0</ele><time>2026-04-28T16:44:00Z</time></trkpt><trkpt lat="42.55429818912355" lon="12.121413191197675"><ele>367.0</ele><time>2026-04-28T16:44:01Z</time></trkpt><trkpt lat="42.55455351659624" lon="12.121395084619897"><ele>369.0</ele><time>2026-04-28T16:44:02Z</time></trkpt><trkpt lat="42.55479808421225" lon="12.121370179412587"><ele>371.0</ele><time>2026-04-28T16:44:03Z</time></trkpt><trkpt lat="42.55502855528354" lon="12.12133872352553"><ele>371.0</ele><time>2026-04-28T16:44:04Z</time></trkpt><trkpt lat="42.55525607510794" lon="12.121299087948865"><ele>371.0</ele><time>2026-04-28T16:44:05Z</time></trkpt><trkpt lat="42.55547789280811" lon="12.121249639826761"><ele>372.6666666666667</ele><time>2026-04-28T16:44:06Z</time></trkpt><trkpt lat="42.55569365858746" lon="12.121190958946105"><ele>374.3333333333333</ele><time>2026-04-28T16:44:07Z</time></trkpt><trkpt lat="42.55590635492306" lon="12.121132130977001"><ele>376.0</ele><time>2026-04-28T16:44:08Z</time></trkpt><trkpt lat="42.5561202812573" lon="12.121073066656052"><ele>376.66666666666663</ele><time>2026-04-28T16:44:09Z</time></trkpt><trkpt lat="42.556331591938765" lon="12.12101523459356"><ele>377.3333333333333</ele><time>2026-04-28T16:44:10Z</time></trkpt><trkpt lat="42.55652745428858" lon="12.120959784595804"><ele>378.0</ele><time>2026-04-28T16:44:11Z</time></trkpt><trkpt lat="42.556705559048346" lon="12.120909178058271"><ele>378.0</ele><time>2026-04-28T16:44:12Z</time></trkpt><trkpt lat="42.55686970957236" lon="12.1208637044818"><ele>378.0</ele><time>2026-04-28T16:44:13Z</time></trkpt><trkpt lat="42.55703042729019" lon="12.120820934979912"><ele>378.0</ele><time>2026-04-28T16:44:14Z</time></trkpt><trkpt lat="42.557197595339304" lon="12.120777548863556"><ele>378.6666666666667</ele><time>2026-04-28T16:44:15Z</time></trkpt><trkpt lat="42.55737022530521" lon="12.120755097098987"><ele>379.33333333333337</ele><time>2026-04-28T16:44:16Z</time></trkpt><trkpt lat="42.55754777902783" lon="12.120754012067911"><ele>380.0</ele><time>2026-04-28T16:44:17Z</time></trkpt><trkpt lat="42.557728658446166" lon="12.120763035427766"><ele>382.33333333333337</ele><time>2026-04-28T16:44:18Z</time></trkpt><trkpt lat="42.55791092995719" lon="12.120769126111938"><ele>384.6666666666667</ele><time>2026-04-28T16:44:19Z</time></trkpt><trkpt lat="42.55809499988853" lon="12.120780769041515"><ele>387.0</ele><time>2026-04-28T16:44:20Z</time></trkpt><trkpt lat="42.55828195452156" lon="12.120795254981928"><ele>387.0</ele><time>2026-04-28T16:44:21Z</time></trkpt><trkpt lat="42.55847159653331" lon="12.120812952186297"><ele>387.0</ele><time>2026-04-28T16:44:22Z</time></trkpt><trkpt lat="42.558664244743795" lon="12.120832423433374"><ele>387.0</ele><time>2026-04-28T16:44:23Z</time></trkpt><trkpt lat="42.558859891609565" lon="12.120852685119441"><ele>389.0</ele><time>2026-04-28T16:44:24Z</time></trkpt><trkpt lat="42.5590482002627" lon="12.120874006557917"><ele>391.0</ele><time>2026-04-28T16:44:25Z</time></trkpt><trkpt lat="42.55922611438244" lon="12.1208994141246"><ele>393.0</ele><time>2026-04-28T16:44:26Z</time></trkpt><trkpt lat="42.559410174489045" lon="12.120938302765294"><ele>394.0</ele><time>2026-04-28T16:44:27Z</time></trkpt><trkpt lat="42.55959245452714" lon="12.120999110269514"><ele>395.0</ele><time>2026-04-28T16:44:28Z</time></trkpt><trkpt lat="42.559765196012165" lon="12.121082406847911"><ele>396.0</ele><time>2026-04-28T16:44:29Z</time></trkpt><trkpt lat="42.55993610518801" lon="12.121172804823892"><ele>396.0</ele><time>2026-04-28T16:44:30Z</time></trkpt><trkpt lat="42.5601069415687" lon="12.121263161097051"><ele>396.0</ele><time>2026-04-28T16:44:31Z</time></trkpt><trkpt lat="42.56027835666303" lon="12.121353751366014"><ele>396.0</ele><time>2026-04-28T16:44:32Z</time></trkpt><trkpt lat="42.56045026114995" lon="12.121444550655905"><ele>397.66666666666663</ele><time>2026-04-28T16:44:33Z</time></trkpt><trkpt lat="42.56061996341738" lon="12.12153407560316"><ele>399.3333333333333</ele><time>2026-04-28T16:44:34Z</time></trkpt><trkpt lat="42.560792239032" lon="12.121621778733486"><ele>401.0</ele><time>2026-04-28T16:44:35Z</time></trkpt><trkpt lat="42.560972603951285" lon="12.121702885209496"><ele>401.0</ele><time>2026-04-28T16:44:36Z</time></trkpt><trkpt lat="42.561158071628675" lon="12.121774425318417"><ele>401.0</ele><time>2026-04-28T16:44:37Z</time></trkpt><trkpt lat="42.56135589072013" lon="12.121843792106949"><ele>401.0</ele><time>2026-04-28T16:44:38Z</time></trkpt><trkpt lat="42.561563822725525" lon="12.121905755613865"><ele>403.0</ele><time>2026-04-28T16:44:39Z</time></trkpt><trkpt lat="42.5617698367831" lon="12.121963392879216"><ele>405.0</ele><time>2026-04-28T16:44:40Z</time></trkpt><trkpt lat="42.5619794076744" lon="12.122023882473968"><ele>407.0</ele><time>2026-04-28T16:44:41Z</time></trkpt><trkpt lat="42.56218203254612" lon="12.12208520273865"><ele>408.3333333333333</ele><time>2026-04-28T16:44:42Z</time></trkpt><trkpt lat="42.56236838501954" lon="12.122145949188443"><ele>409.66666666666663</ele><time>2026-04-28T16:44:43Z</time></trkpt><trkpt lat="42.562543653029984" lon="12.122210677584789"><ele>411.0</ele><time>2026-04-28T16:44:44Z</time></trkpt><trkpt lat="42.56271113065201" lon="12.122289363522336"><ele>411.33333333333337</ele><time>2026-04-28T16:44:45Z</time></trkpt><trkpt lat="42.56287145620799" lon="12.122382000644683"><ele>411.6666666666667</ele><time>2026-04-28T16:44:46Z</time></trkpt><trkpt lat="42.56302481682394" lon="12.122484579654802"><ele>412.0</ele><time>2026-04-28T16:44:47Z</time></trkpt><trkpt lat="42.56317107214488" lon="12.122604599592727"><ele>412.0</ele><time>2026-04-28T16:44:48Z</time></trkpt><trkpt lat="42.56332402710846" lon="12.122746044569576"><ele>412.0</ele><time>2026-04-28T16:44:49Z</time></trkpt><trkpt lat="42.563475651005284" lon="12.122906195988678"><ele>412.0</ele><time>2026-04-28T16:44:50Z</time></trkpt><trkpt lat="42.563630363964016" lon="12.123075936596944"><ele>413.0</ele><time>2026-04-28T16:44:51Z</time></trkpt><trkpt lat="42.56379105376448" lon="12.123249932303313"><ele>414.0</ele><time>2026-04-28T16:44:52Z</time></trkpt><trkpt lat="42.56394831634681" lon="12.123418003231691"><ele>415.0</ele><time>2026-04-28T16:44:53Z</time></trkpt><trkpt lat="42.56408822577998" lon="12.123573538527156"><ele>415.0</ele><time>2026-04-28T16:44:54Z</time></trkpt><trkpt lat="42.564220933341076" lon="12.123705636021691"><ele>415.0</ele><time>2026-04-28T16:44:55Z</time></trkpt><trkpt lat="42.56435473470835" lon="12.1238018548494"><ele>415.0</ele><time>2026-04-28T16:44:56Z</time></trkpt><trkpt lat="42.56449768116793" lon="12.123877760665739"><ele>416.33333333333337</ele><time>2026-04-28T16:44:57Z</time></trkpt><trkpt lat="42.5646500401068" lon="12.12392321994066"><ele>417.66666666666663</ele><time>2026-04-28T16:44:58Z</time></trkpt><trkpt lat="42.56480696241758" lon="12.12394500757764"><ele>419.0</ele><time>2026-04-28T16:44:59Z</time></trkpt><trkpt lat="42.56496353516527" lon="12.123940896274808"><ele>419.0</ele><time>2026-04-28T16:45:00Z</time></trkpt><trkpt lat="42.56512500337408" lon="12.123911146411443"><ele>419.0</ele><time>2026-04-28T16:45:01Z</time></trkpt><trkpt lat="42.56529858823137" lon="12.12386378094829"><ele>419.0</ele><time>2026-04-28T16:45:02Z</time></trkpt><trkpt lat="42.56548815308636" lon="12.123816178957902"><ele>421.0</ele><time>2026-04-28T16:45:03Z</time></trkpt><trkpt lat="42.565688712689706" lon="12.123767654827628"><ele>423.0</ele><time>2026-04-28T16:45:04Z</time></trkpt><trkpt lat="42.56590216778511" lon="12.12372207548357"><ele>425.0</ele><time>2026-04-28T16:45:05Z</time></trkpt><trkpt lat="42.566121715698756" lon="12.1236841674073"><ele>425.5</ele><time>2026-04-28T16:45:06Z</time></trkpt><trkpt lat="42.56634613134014" lon="12.12365912666125"><ele>426.0</ele><time>2026-04-28T16:45:07Z</time></trkpt><trkpt lat="42.566579173314125" lon="12.123637279642725"><ele>426.0</ele><time>2026-04-28T16:45:08Z</time></trkpt><trkpt lat="42.56681254471516" lon="12.123617811246673"><ele>426.0</ele><time>2026-04-28T16:45:09Z</time></trkpt><trkpt lat="42.56702765092101" lon="12.123604817424846"><ele>426.0</ele><time>2026-04-28T16:45:10Z</time></trkpt><trkpt lat="42.56722311095573" lon="12.12359213782167"><ele>425.33333333333337</ele><time>2026-04-28T16:45:11Z</time></trkpt><trkpt lat="42.567407253412384" lon="12.123584875457341"><ele>424.6666666666667</ele><time>2026-04-28T16:45:12Z</time></trkpt><trkpt lat="42.56760437081596" lon="12.123576834406379"><ele>424.0</ele><time>2026-04-28T16:45:13Z</time></trkpt><trkpt lat="42.56781627636" lon="12.123566762254521"><ele>424.0</ele><time>2026-04-28T16:45:14Z</time></trkpt><trkpt lat="42.56803478366628" lon="12.123563348467206"><ele>424.0</ele><time>2026-04-28T16:45:15Z</time></trkpt><trkpt lat="42.5682448326631" lon="12.123560333983608"><ele>424.0</ele><time>2026-04-28T16:45:16Z</time></trkpt><trkpt lat="42.56844242722655" lon="12.123553468297635"><ele>424.0</ele><time>2026-04-28T16:45:17Z</time></trkpt><trkpt lat="42.56862274802982" lon="12.123533418589778"><ele>424.0</ele><time>2026-04-28T16:45:18Z</time></trkpt><trkpt lat="42.56879020914513" lon="12.123500235075243"><ele>424.0</ele><time>2026-04-28T16:45:19Z</time></trkpt><trkpt lat="42.568959054569625" lon="12.123435807082377"><ele>422.0</ele><time>2026-04-28T16:45:20Z</time></trkpt><trkpt lat="42.56912531850481" lon="12.12333973988883"><ele>420.0</ele><time>2026-04-28T16:45:21Z</time></trkpt><trkpt lat="42.56929063931586" lon="12.123209630711138"><ele>418.0</ele><time>2026-04-28T16:45:22Z</time></trkpt><trkpt lat="42.56946106734698" lon="12.123051184016122"><ele>417.0</ele><time>2026-04-28T16:45:23Z</time></trkpt><trkpt lat="42.56963177908649" lon="12.122888291317363"><ele>416.0</ele><time>2026-04-28T16:45:24Z</time></trkpt><trkpt lat="42.5697947210267" lon="12.122734879313876"><ele>415.0</ele><time>2026-04-28T16:45:25Z</time></trkpt><trkpt lat="42.56994507962897" lon="12.122599267786184"><ele>415.0</ele><time>2026-04-28T16:45:26Z</time></trkpt><trkpt lat="42.57008235055185" lon="12.122463409082501"><ele>415.0</ele><time>2026-04-28T16:45:27Z</time></trkpt><trkpt lat="42.570207322478176" lon="12.122303057425338"><ele>415.0</ele><time>2026-04-28T16:45:28Z</time></trkpt><trkpt lat="42.57031461124822" lon="12.122103322211027"><ele>415.6666666666667</ele><time>2026-04-28T16:45:29Z</time></trkpt><trkpt lat="42.57041305779578" lon="12.121879526588666"><ele>416.33333333333337</ele><time>2026-04-28T16:45:30Z</time></trkpt><trkpt lat="42.57050407983185" lon="12.121634143338516"><ele>417.0</ele><time>2026-04-28T16:45:31Z</time></trkpt><trkpt lat="42.570594834644" lon="12.121381144820035"><ele>417.0</ele><time>2026-04-28T16:45:32Z</time></trkpt><trkpt lat="42.57069104075884" lon="12.121115272409876"><ele>417.0</ele><time>2026-04-28T16:45:33Z</time></trkpt><trkpt lat="42.570793719427506" lon="12.120839582552179"><ele>417.0</ele><time>2026-04-28T16:45:34Z</time></trkpt><trkpt lat="42.570894032288585" lon="12.12056410788457"><ele>417.33333333333337</ele><time>2026-04-28T16:45:35Z</time></trkpt><trkpt lat="42.5709915781347" lon="12.120320888813257"><ele>417.6666666666667</ele><time>2026-04-28T16:45:36Z</time></trkpt><trkpt lat="42.57109395827855" lon="12.120103673896647"><ele>418.0</ele><time>2026-04-28T16:45:37Z</time></trkpt><trkpt lat="42.57121275958519" lon="12.119929021214334"><ele>420.0</ele><time>2026-04-28T16:45:38Z</time></trkpt><trkpt lat="42.5713596908809" lon="12.11977054762428"><ele>422.0</ele><time>2026-04-28T16:45:39Z</time></trkpt><trkpt lat="42.57152815614959" lon="12.119616888513209"><ele>424.0</ele><time>2026-04-28T16:45:40Z</time></trkpt><trkpt lat="42.57170822801741" lon="12.119453765400923"><ele>424.0</ele><time>2026-04-28T16:45:41Z</time></trkpt><trkpt lat="42.57189740792477" lon="12.119281739873788"><ele>424.0</ele><time>2026-04-28T16:45:42Z</time></trkpt><trkpt lat="42.57208098075526" lon="12.11911069973117"><ele>424.6666666666667</ele><time>2026-04-28T16:45:43Z</time></trkpt><trkpt lat="42.57226557217162" lon="12.118937181231871"><ele>425.33333333333337</ele><time>2026-04-28T16:45:44Z</time></trkpt><trkpt lat="42.57244829539247" lon="12.118770044528388"><ele>426.0</ele><time>2026-04-28T16:45:45Z</time></trkpt><trkpt lat="42.572618759896436" lon="12.118614095935223"><ele>426.0</ele><time>2026-04-28T16:45:46Z</time></trkpt><trkpt lat="42.57278436523578" lon="12.118464022823817"><ele>426.0</ele><time>2026-04-28T16:45:47Z</time></trkpt><trkpt lat="42.5729517131303" lon="12.11831789429458"><ele>426.0</ele><time>2026-04-28T16:45:48Z</time></trkpt><trkpt lat="42.573118822081625" lon="12.118179570674881"><ele>426.66666666666663</ele><time>2026-04-28T16:45:49Z</time></trkpt><trkpt lat="42.57327977790626" lon="12.1180388187045"><ele>427.3333333333333</ele><time>2026-04-28T16:45:50Z</time></trkpt><trkpt lat="42.57342760802593" lon="12.117910926843086"><ele>428.0</ele><time>2026-04-28T16:45:51Z</time></trkpt><trkpt lat="42.57356826226045" lon="12.11780587584369"><ele>428.3333333333333</ele><time>2026-04-28T16:45:52Z</time></trkpt><trkpt lat="42.573721687633075" lon="12.117740937198937"><ele>428.66666666666663</ele><time>2026-04-28T16:45:53Z</time></trkpt><trkpt lat="42.57389384472422" lon="12.117715245635004"><ele>429.0</ele><time>2026-04-28T16:45:54Z</time></trkpt><trkpt lat="42.57407324672691" lon="12.117703745982938"><ele>429.0</ele><time>2026-04-28T16:45:55Z</time></trkpt><trkpt lat="42.57426245497831" lon="12.117700105918074"><ele>429.0</ele><time>2026-04-28T16:45:56Z</time></trkpt><trkpt lat="42.57444015863148" lon="12.11768709745705"><ele>429.0</ele><time>2026-04-28T16:45:57Z</time></trkpt><trkpt lat="42.57459786769348" lon="12.117634576090518"><ele>429.0</ele><time>2026-04-28T16:45:58Z</time></trkpt><trkpt lat="42.57475232717961" lon="12.117529367135377"><ele>429.0</ele><time>2026-04-28T16:45:59Z</time></trkpt><trkpt lat="42.57489504529367" lon="12.117377661733954"><ele>429.0</ele><time>2026-04-28T16:46:00Z</time></trkpt><trkpt lat="42.57502783495009" lon="12.117196532650071"><ele>429.0</ele><time>2026-04-28T16:46:01Z</time></trkpt><trkpt lat="42.575158347777126" lon="12.117000252642159"><ele>429.0</ele><time>2026-04-28T16:46:02Z</time></trkpt><trkpt lat="42.575277649613724" lon="12.116813671635972"><ele>429.0</ele><time>2026-04-28T16:46:03Z</time></trkpt><trkpt lat="42.57536856643516" lon="12.116634051714662"><ele>431.0</ele><time>2026-04-28T16:46:04Z</time></trkpt><trkpt lat="42.575441501719766" lon="12.116439679419639"><ele>433.0</ele><time>2026-04-28T16:46:05Z</time></trkpt><trkpt lat="42.57549465079955" lon="12.116233996739904"><ele>435.0</ele><time>2026-04-28T16:46:06Z</time></trkpt><trkpt lat="42.57552467505676" lon="12.116017605003032"><ele>435.0</ele><time>2026-04-28T16:46:07Z</time></trkpt><trkpt lat="42.57553413642506" lon="12.115796304000728"><ele>435.0</ele><time>2026-04-28T16:46:08Z</time></trkpt><trkpt lat="42.57553044419507" lon="12.115576664278485"><ele>435.0</ele><time>2026-04-28T16:46:09Z</time></trkpt><trkpt lat="42.575519195188924" lon="12.115349335267249"><ele>435.0</ele><time>2026-04-28T16:46:10Z</time></trkpt><trkpt lat="42.57551495060276" lon="12.11511735146701"><ele>435.0</ele><time>2026-04-28T16:46:11Z</time></trkpt><trkpt lat="42.575513406170366" lon="12.114874809846876"><ele>435.0</ele><time>2026-04-28T16:46:12Z</time></trkpt><trkpt lat="42.57550973717129" lon="12.114623080135315"><ele>436.33333333333337</ele><time>2026-04-28T16:46:13Z</time></trkpt><trkpt lat="42.575504039625514" lon="12.114361026626376"><ele>437.6666666666667</ele><time>2026-04-28T16:46:14Z</time></trkpt><trkpt lat="42.57549604019814" lon="12.114092107979074"><ele>439.0</ele><time>2026-04-28T16:46:15Z</time></trkpt><trkpt lat="42.57548752927976" lon="12.113816024819517"><ele>439.6666666666667</ele><time>2026-04-28T16:46:16Z</time></trkpt><trkpt lat="42.57548167015309" lon="12.113541146567806"><ele>440.33333333333337</ele><time>2026-04-28T16:46:17Z</time></trkpt><trkpt lat="42.575474126499216" lon="12.113259007702146"><ele>441.0</ele><time>2026-04-28T16:46:18Z</time></trkpt><trkpt lat="42.575471408030545" lon="12.112977285275319"><ele>442.66666666666663</ele><time>2026-04-28T16:46:19Z</time></trkpt><trkpt lat="42.57546696995926" lon="12.112704073276193"><ele>444.3333333333333</ele><time>2026-04-28T16:46:20Z</time></trkpt><trkpt lat="42.57546512266153" lon="12.112465130109824"><ele>446.0</ele><time>2026-04-28T16:46:21Z</time></trkpt><trkpt lat="42.575460581561046" lon="12.11225914231064"><ele>446.75</ele><time>2026-04-28T16:46:22Z</time></trkpt><trkpt lat="42.57546654958426" lon="12.112074099297041"><ele>447.5</ele><time>2026-04-28T16:46:23Z</time></trkpt><trkpt lat="42.57548936691143" lon="12.111907549203076"><ele>448.25</ele><time>2026-04-28T16:46:24Z</time></trkpt><trkpt lat="42.57552126237674" lon="12.111755087017027"><ele>449.0</ele><time>2026-04-28T16:46:25Z</time></trkpt><trkpt lat="42.57557022502148" lon="12.111603927855644"><ele>449.5</ele><time>2026-04-28T16:46:26Z</time></trkpt><trkpt lat="42.57563894440192" lon="12.11145996772083"><ele>450.0</ele><time>2026-04-28T16:46:27Z</time></trkpt><trkpt lat="42.575727166281766" lon="12.11132316476271"><ele>450.5</ele><time>2026-04-28T16:46:28Z</time></trkpt><trkpt lat="42.57582923849956" lon="12.11118321152235"><ele>451.0</ele><time>2026-04-28T16:46:29Z</time></trkpt><trkpt lat="42.5759491859895" lon="12.111047381530522"><ele>451.0</ele><time>2026-04-28T16:46:30Z</time></trkpt><trkpt lat="42.576078827802775" lon="12.110904967246485"><ele>451.0</ele><time>2026-04-28T16:46:31Z</time></trkpt><trkpt lat="42.5762194946066" lon="12.110756814930799"><ele>451.0</ele><time>2026-04-28T16:46:32Z</time></trkpt><trkpt lat="42.57637117329846" lon="12.110602206544426"><ele>450.0</ele><time>2026-04-28T16:46:33Z</time></trkpt><trkpt lat="42.57652613819136" lon="12.110437560073121"><ele>449.0</ele><time>2026-04-28T16:46:34Z</time></trkpt><trkpt lat="42.57668983927342" lon="12.110266527342276"><ele>448.0</ele><time>2026-04-28T16:46:35Z</time></trkpt><trkpt lat="42.57685336737383" lon="12.11010143978398"><ele>448.0</ele><time>2026-04-28T16:46:36Z</time></trkpt><trkpt lat="42.57702382751026" lon="12.109925205326453"><ele>448.0</ele><time>2026-04-28T16:46:37Z</time></trkpt><trkpt lat="42.57719254541223" lon="12.109745454938388"><ele>448.0</ele><time>2026-04-28T16:46:38Z</time></trkpt><trkpt lat="42.57736072664168" lon="12.109569498659573"><ele>448.0</ele><time>2026-04-28T16:46:39Z</time></trkpt><trkpt lat="42.57751277916586" lon="12.109404007738434"><ele>448.0</ele><time>2026-04-28T16:46:40Z</time></trkpt><trkpt lat="42.57765476894387" lon="12.109232237070058"><ele>448.0</ele><time>2026-04-28T16:46:41Z</time></trkpt><trkpt lat="42.577800485369906" lon="12.109032694959465"><ele>447.6666666666667</ele><time>2026-04-28T16:46:42Z</time></trkpt><trkpt lat="42.5779477329789" lon="12.108813272204852"><ele>447.33333333333337</ele><time>2026-04-28T16:46:43Z</time></trkpt><trkpt lat="42.578097935032275" lon="12.108576632061524"><ele>447.0</ele><time>2026-04-28T16:46:44Z</time></trkpt><trkpt lat="42.57825723872685" lon="12.108331644659671"><ele>447.5</ele><time>2026-04-28T16:46:45Z</time></trkpt><trkpt lat="42.57842234025236" lon="12.108078834196196"><ele>448.0</ele><time>2026-04-28T16:46:46Z</time></trkpt><trkpt lat="42.57858105064593" lon="12.107833591619444"><ele>447.6666666666667</ele><time>2026-04-28T16:46:47Z</time></trkpt><trkpt lat="42.57873127316242" lon="12.107607075979661"><ele>447.33333333333337</ele><time>2026-04-28T16:46:48Z</time></trkpt><trkpt lat="42.57886866989879" lon="12.107391042145464"><ele>447.0</ele><time>2026-04-28T16:46:49Z</time></trkpt><trkpt lat="42.5789986083088" lon="12.107167567262026"><ele>447.66666666666663</ele><time>2026-04-28T16:46:50Z</time></trkpt><trkpt lat="42.57912882944587" lon="12.106924959536618"><ele>448.3333333333333</ele><time>2026-04-28T16:46:51Z</time></trkpt><trkpt lat="42.579249514546646" lon="12.106663398831333"><ele>449.0</ele><time>2026-04-28T16:46:52Z</time></trkpt><trkpt lat="42.57936772508501" lon="12.106393084208797"><ele>449.0</ele><time>2026-04-28T16:46:53Z</time></trkpt><trkpt lat="42.579477912742156" lon="12.106136498860343"><ele>449.0</ele><time>2026-04-28T16:46:54Z</time></trkpt><trkpt lat="42.579573603850356" lon="12.105909613214838"><ele>449.0</ele><time>2026-04-28T16:46:55Z</time></trkpt><trkpt lat="42.57966047418031" lon="12.105704958910948"><ele>447.3333333333333</ele><time>2026-04-28T16:46:56Z</time></trkpt><trkpt lat="42.57975687489355" lon="12.105523467672704"><ele>445.66666666666663</ele><time>2026-04-28T16:46:57Z</time></trkpt><trkpt lat="42.57987624040114" lon="12.105374223427498"><ele>444.0</ele><time>2026-04-28T16:46:58Z</time></trkpt><trkpt lat="42.58001505278706" lon="12.105266144707466"><ele>444.0</ele><time>2026-04-28T16:46:59Z</time></trkpt><trkpt lat="42.58016648698212" lon="12.105210532327938"><ele>444.0</ele><time>2026-04-28T16:47:00Z</time></trkpt><trkpt lat="42.580329238493015" lon="12.105196931575417"><ele>444.0</ele><time>2026-04-28T16:47:01Z</time></trkpt><trkpt lat="42.580494399775056" lon="12.105238027181809"><ele>444.0</ele><time>2026-04-28T16:47:02Z</time></trkpt><trkpt lat="42.5806688707301" lon="12.10531768747048"><ele>444.0</ele><time>2026-04-28T16:47:03Z</time></trkpt><trkpt lat="42.58085380517287" lon="12.105421649966873"><ele>444.0</ele><time>2026-04-28T16:47:04Z</time></trkpt><trkpt lat="42.58105203123499" lon="12.1055351341481"><ele>445.0</ele><time>2026-04-28T16:47:05Z</time></trkpt><trkpt lat="42.58126267012391" lon="12.105656642852281"><ele>446.0</ele><time>2026-04-28T16:47:06Z</time></trkpt><trkpt lat="42.58148260727852" lon="12.105772372481805"><ele>446.0</ele><time>2026-04-28T16:47:07Z</time></trkpt><trkpt lat="42.58170890852666" lon="12.105888417019564"><ele>446.0</ele><time>2026-04-28T16:47:08Z</time></trkpt><trkpt lat="42.58192074496419" lon="12.106003335978402"><ele>448.3333333333333</ele><time>2026-04-28T16:47:09Z</time></trkpt><trkpt lat="42.582116401184116" lon="12.10610752149083"><ele>450.66666666666663</ele><time>2026-04-28T16:47:10Z</time></trkpt><trkpt lat="42.58230568029771" lon="12.106206216306825"><ele>453.0</ele><time>2026-04-28T16:47:11Z</time></trkpt><trkpt lat="42.58248589643958" lon="12.106304455573502"><ele>453.0</ele><time>2026-04-28T16:47:12Z</time></trkpt><trkpt lat="42.582649317462156" lon="12.106392285222297"><ele>453.0</ele><time>2026-04-28T16:47:13Z</time></trkpt><trkpt lat="42.58279814630355" lon="12.10645941991944"><ele>453.0</ele><time>2026-04-28T16:47:14Z</time></trkpt><trkpt lat="42.58294666537103" lon="12.106494143101493"><ele>455.33333333333337</ele><time>2026-04-28T16:47:15Z</time></trkpt><trkpt lat="42.58310257822504" lon="12.106485232837363"><ele>457.6666666666667</ele><time>2026-04-28T16:47:16Z</time></trkpt><trkpt lat="42.58326188152406" lon="12.106440750800846"><ele>460.0</ele><time>2026-04-28T16:47:17Z</time></trkpt><trkpt lat="42.58343202430244" lon="12.1063696144313"><ele>460.0</ele><time>2026-04-28T16:47:18Z</time></trkpt><trkpt lat="42.58360762951014" lon="12.106286948281237"><ele>460.0</ele><time>2026-04-28T16:47:19Z</time></trkpt><trkpt lat="42.58377809979481" lon="12.106204341698367"><ele>460.0</ele><time>2026-04-28T16:47:20Z</time></trkpt><trkpt lat="42.58394656458495" lon="12.106122240547696"><ele>459.33333333333337</ele><time>2026-04-28T16:47:21Z</time></trkpt><trkpt lat="42.58411406832716" lon="12.106041521023956"><ele>458.66666666666663</ele><time>2026-04-28T16:47:22Z</time></trkpt><trkpt lat="42.58428159168941" lon="12.105955300762032"><ele>458.0</ele><time>2026-04-28T16:47:23Z</time></trkpt><trkpt lat="42.58445046889115" lon="12.105867870081928"><ele>457.66666666666663</ele><time>2026-04-28T16:47:24Z</time></trkpt><trkpt lat="42.58463321161756" lon="12.105779071172726"><ele>457.33333333333337</ele><time>2026-04-28T16:47:25Z</time></trkpt><trkpt lat="42.58482794599818" lon="12.105686987412689"><ele>457.0</ele><time>2026-04-28T16:47:26Z</time></trkpt><trkpt lat="42.5850331202897" lon="12.105586065202274"><ele>456.33333333333337</ele><time>2026-04-28T16:47:27Z</time></trkpt><trkpt lat="42.58523489209212" lon="12.105491048247167"><ele>455.66666666666663</ele><time>2026-04-28T16:47:28Z</time></trkpt><trkpt lat="42.585445086511015" lon="12.10539125553869"><ele>455.0</ele><time>2026-04-28T16:47:29Z</time></trkpt><trkpt lat="42.58565223207739" lon="12.105288178104965"><ele>456.66666666666663</ele><time>2026-04-28T16:47:30Z</time></trkpt><trkpt lat="42.585842927500465" lon="12.105191427017584"><ele>458.33333333333337</ele><time>2026-04-28T16:47:31Z</time></trkpt><trkpt lat="42.58603393586382" lon="12.105097228058169"><ele>460.0</ele><time>2026-04-28T16:47:32Z</time></trkpt><trkpt lat="42.586210264474374" lon="12.105011000259955"><ele>461.6666666666667</ele><time>2026-04-28T16:47:33Z</time></trkpt><trkpt lat="42.58637951749642" lon="12.104947648988489"><ele>463.33333333333337</ele><time>2026-04-28T16:47:34Z</time></trkpt><trkpt lat="42.586557564812935" lon="12.104911110915312"><ele>465.0</ele><time>2026-04-28T16:47:35Z</time></trkpt><trkpt lat="42.586740470535304" lon="12.104895362834986"><ele>465.33333333333337</ele><time>2026-04-28T16:47:36Z</time></trkpt><trkpt lat="42.586931131966736" lon="12.104898250292129"><ele>465.6666666666667</ele><time>2026-04-28T16:47:37Z</time></trkpt><trkpt lat="42.58712848872815" lon="12.104902473144689"><ele>466.0</ele><time>2026-04-28T16:47:38Z</time></trkpt><trkpt lat="42.58732877602585" lon="12.104906143779791"><ele>467.0</ele><time>2026-04-28T16:47:39Z</time></trkpt><trkpt lat="42.58753454419516" lon="12.104915139051526"><ele>468.0</ele><time>2026-04-28T16:47:40Z</time></trkpt><trkpt lat="42.5877435087759" lon="12.104918026880958"><ele>469.0</ele><time>2026-04-28T16:47:41Z</time></trkpt><trkpt lat="42.58795885072595" lon="12.10491205845936"><ele>470.5</ele><time>2026-04-28T16:47:42Z</time></trkpt><trkpt lat="42.58818029103136" lon="12.104894035637686"><ele>472.0</ele><time>2026-04-28T16:47:43Z</time></trkpt><trkpt lat="42.5884087505353" lon="12.104869841087305"><ele>472.0</ele><time>2026-04-28T16:47:44Z</time></trkpt><trkpt lat="42.58864321350949" lon="12.104847454658834"><ele>472.0</ele><time>2026-04-28T16:47:45Z</time></trkpt><trkpt lat="42.58888517859135" lon="12.10482765852392"><ele>473.5</ele><time>2026-04-28T16:47:46Z</time></trkpt><trkpt lat="42.58913140557573" lon="12.104805186391951"><ele>475.0</ele><time>2026-04-28T16:47:47Z</time></trkpt><trkpt lat="42.58937187731933" lon="12.104785497437398"><ele>477.5</ele><time>2026-04-28T16:47:48Z</time></trkpt><trkpt lat="42.5896116018868" lon="12.104761428786777"><ele>480.0</ele><time>2026-04-28T16:47:49Z</time></trkpt><trkpt lat="42.58985601494701" lon="12.104734366905076"><ele>480.0</ele><time>2026-04-28T16:47:50Z</time></trkpt><trkpt lat="42.59009976651335" lon="12.104709784527449"><ele>480.0</ele><time>2026-04-28T16:47:51Z</time></trkpt><trkpt lat="42.59033948298207" lon="12.104687096581237"><ele>481.0</ele><time>2026-04-28T16:47:52Z</time></trkpt><trkpt lat="42.590565512043725" lon="12.104666295791645"><ele>482.0</ele><time>2026-04-28T16:47:53Z</time></trkpt><trkpt lat="42.5907693139791" lon="12.104646665364859"><ele>483.0</ele><time>2026-04-28T16:47:54Z</time></trkpt><trkpt lat="42.590956999257806" lon="12.104623915328094"><ele>483.0</ele><time>2026-04-28T16:47:55Z</time></trkpt><trkpt lat="42.59113039428119" lon="12.104592586993887"><ele>483.0</ele><time>2026-04-28T16:47:56Z</time></trkpt><trkpt lat="42.59129059727432" lon="12.104531437888287"><ele>483.0</ele><time>2026-04-28T16:47:57Z</time></trkpt><trkpt lat="42.591449919217006" lon="12.104438710633712"><ele>484.0</ele><time>2026-04-28T16:47:58Z</time></trkpt><trkpt lat="42.59160556461401" lon="12.104312387524017"><ele>485.0</ele><time>2026-04-28T16:47:59Z</time></trkpt><trkpt lat="42.59175878497508" lon="12.104170986618675"><ele>486.0</ele><time>2026-04-28T16:48:00Z</time></trkpt><trkpt lat="42.59190698697811" lon="12.104066316448815"><ele>487.0</ele><time>2026-04-28T16:48:01Z</time></trkpt><trkpt lat="42.59206320036198" lon="12.103988465643091"><ele>488.0</ele><time>2026-04-28T16:48:02Z</time></trkpt><trkpt lat="42.59224361906957" lon="12.10392215717435"><ele>489.0</ele><time>2026-04-28T16:48:03Z</time></trkpt><trkpt lat="42.59243578462172" lon="12.103874253508836"><ele>489.0</ele><time>2026-04-28T16:48:04Z</time></trkpt><trkpt lat="42.592638056091104" lon="12.103844070990954"><ele>489.0</ele><time>2026-04-28T16:48:05Z</time></trkpt><trkpt lat="42.5928511648606" lon="12.103827280718042"><ele>489.0</ele><time>2026-04-28T16:48:06Z</time></trkpt><trkpt lat="42.5930664304707" lon="12.10381399960552"><ele>489.5</ele><time>2026-04-28T16:48:07Z</time></trkpt><trkpt lat="42.59329135723643" lon="12.103803562540998"><ele>490.0</ele><time>2026-04-28T16:48:08Z</time></trkpt><trkpt lat="42.5935280710918" lon="12.103796344046986"><ele>491.0</ele><time>2026-04-28T16:48:09Z</time></trkpt><trkpt lat="42.59377413607225" lon="12.103797794966642"><ele>492.0</ele><time>2026-04-28T16:48:10Z</time></trkpt><trkpt lat="42.59402347276815" lon="12.103803807845047"><ele>492.0</ele><time>2026-04-28T16:48:11Z</time></trkpt><trkpt lat="42.59427049148423" lon="12.103814490515964"><ele>492.0</ele><time>2026-04-28T16:48:12Z</time></trkpt><trkpt lat="42.59450627814836" lon="12.103838456042093"><ele>492.66666666666663</ele><time>2026-04-28T16:48:13Z</time></trkpt><trkpt lat="42.594719650535666" lon="12.1038693871505"><ele>493.3333333333333</ele><time>2026-04-28T16:48:14Z</time></trkpt><trkpt lat="42.59491558491638" lon="12.103892452003786"><ele>494.0</ele><time>2026-04-28T16:48:15Z</time></trkpt><trkpt lat="42.5950959100248" lon="12.10390543044981"><ele>494.0</ele><time>2026-04-28T16:48:16Z</time></trkpt><trkpt lat="42.59526964708167" lon="12.103912886168805"><ele>494.0</ele><time>2026-04-28T16:48:17Z</time></trkpt><trkpt lat="42.59545536839007" lon="12.103905370544078"><ele>494.0</ele><time>2026-04-28T16:48:18Z</time></trkpt><trkpt lat="42.595650782413976" lon="12.10388423889072"><ele>493.0</ele><time>2026-04-28T16:48:19Z</time></trkpt><trkpt lat="42.59585450324241" lon="12.103860166893906"><ele>492.0</ele><time>2026-04-28T16:48:20Z</time></trkpt><trkpt lat="42.59606239826098" lon="12.103835282837267"><ele>491.0</ele><time>2026-04-28T16:48:21Z</time></trkpt><trkpt lat="42.59626304797098" lon="12.103816455168413"><ele>489.66666666666663</ele><time>2026-04-28T16:48:22Z</time></trkpt><trkpt lat="42.59645787096449" lon="12.103797265111819"><ele>488.33333333333337</ele><time>2026-04-28T16:48:23Z</time></trkpt><trkpt lat="42.59664577114344" lon="12.103783888584505"><ele>487.0</ele><time>2026-04-28T16:48:24Z</time></trkpt><trkpt lat="42.59682860913176" lon="12.10378452432766"><ele>486.33333333333337</ele><time>2026-04-28T16:48:25Z</time></trkpt><trkpt lat="42.59700530591655" lon="12.103800351671136"><ele>485.66666666666663</ele><time>2026-04-28T16:48:26Z</time></trkpt><trkpt lat="42.59717744109556" lon="12.103841772639884"><ele>485.0</ele><time>2026-04-28T16:48:27Z</time></trkpt><trkpt lat="42.597346949811545" lon="12.103909365356907"><ele>485.0</ele><time>2026-04-28T16:48:28Z</time></trkpt><trkpt lat="42.59751239131985" lon="12.103980498833078"><ele>485.0</ele><time>2026-04-28T16:48:29Z</time></trkpt><trkpt lat="42.59767800081101" lon="12.104027697885579"><ele>485.0</ele><time>2026-04-28T16:48:30Z</time></trkpt><trkpt lat="42.597845043723964" lon="12.104045558815013"><ele>484.66666666666663</ele><time>2026-04-28T16:48:31Z</time></trkpt><trkpt lat="42.59801510621499" lon="12.104036190595183"><ele>484.33333333333337</ele><time>2026-04-28T16:48:32Z</time></trkpt><trkpt lat="42.59818794122893" lon="12.103994135192986"><ele>484.0</ele><time>2026-04-28T16:48:33Z</time></trkpt><trkpt lat="42.598354848507554" lon="12.10392951948946"><ele>484.0</ele><time>2026-04-28T16:48:34Z</time></trkpt><trkpt lat="42.59851737140068" lon="12.103853635698956"><ele>484.0</ele><time>2026-04-28T16:48:35Z</time></trkpt><trkpt lat="42.59867617512844" lon="12.10377752570028"><ele>484.0</ele><time>2026-04-28T16:48:36Z</time></trkpt><trkpt lat="42.59883391023615" lon="12.10370437332197"><ele>484.6666666666667</ele><time>2026-04-28T16:48:37Z</time></trkpt><trkpt lat="42.59898962130951" lon="12.103634503784539"><ele>485.33333333333337</ele><time>2026-04-28T16:48:38Z</time></trkpt><trkpt lat="42.59913966530408" lon="12.103562695048604"><ele>486.0</ele><time>2026-04-28T16:48:39Z</time></trkpt><trkpt lat="42.59928251276161" lon="12.103484997836636"><ele>486.0</ele><time>2026-04-28T16:48:40Z</time></trkpt><trkpt lat="42.59941775688196" lon="12.10339434149493"><ele>486.0</ele><time>2026-04-28T16:48:41Z</time></trkpt><trkpt lat="42.59954635541787" lon="12.103288034273953"><ele>486.0</ele><time>2026-04-28T16:48:42Z</time></trkpt><trkpt lat="42.599670224038924" lon="12.103171896006977"><ele>489.5</ele><time>2026-04-28T16:48:43Z</time></trkpt><trkpt lat="42.599781955981356" lon="12.103049180108135"><ele>493.0</ele><time>2026-04-28T16:48:44Z</time></trkpt><trkpt lat="42.59989798585803" lon="12.102924523845653"><ele>496.5</ele><time>2026-04-28T16:48:45Z</time></trkpt><trkpt lat="42.60001457066642" lon="12.102798523161482"><ele>500.0</ele><time>2026-04-28T16:48:46Z</time></trkpt><trkpt lat="42.60013362512254" lon="12.102668770444728"><ele>500.0</ele><time>2026-04-28T16:48:47Z</time></trkpt><trkpt lat="42.60024936358186" lon="12.10253197694457"><ele>500.0</ele><time>2026-04-28T16:48:48Z</time></trkpt><trkpt lat="42.60036607202672" lon="12.102397009833991"><ele>500.0</ele><time>2026-04-28T16:48:49Z</time></trkpt><trkpt lat="42.6004850633102" lon="12.102255606733848"><ele>502.0</ele><time>2026-04-28T16:48:50Z</time></trkpt><trkpt lat="42.60060641829353" lon="12.102112074493826"><ele>504.0</ele><time>2026-04-28T16:48:51Z</time></trkpt><trkpt lat="42.600731162567754" lon="12.101973716866912"><ele>506.0</ele><time>2026-04-28T16:48:52Z</time></trkpt><trkpt lat="42.60086199021815" lon="12.101834180645401"><ele>506.0</ele><time>2026-04-28T16:48:53Z</time></trkpt><trkpt lat="42.60099601466571" lon="12.101692759306694"><ele>506.0</ele><time>2026-04-28T16:48:54Z</time></trkpt><trkpt lat="42.601131562578" lon="12.101548769628693"><ele>506.0</ele><time>2026-04-28T16:48:55Z</time></trkpt><trkpt lat="42.6012720883895" lon="12.101403688459264"><ele>506.66666666666663</ele><time>2026-04-28T16:48:56Z</time></trkpt><trkpt lat="42.60142047941658" lon="12.10125851786864"><ele>507.33333333333337</ele><time>2026-04-28T16:48:57Z</time></trkpt><trkpt lat="42.60157471844439" lon="12.101115365504077"><ele>508.0</ele><time>2026-04-28T16:48:58Z</time></trkpt><trkpt lat="42.60173052793651" lon="12.10097197563437"><ele>508.0</ele><time>2026-04-28T16:48:59Z</time></trkpt><trkpt lat="42.60189209835719" lon="12.10081336575597"><ele>508.0</ele><time>2026-04-28T16:49:00Z</time></trkpt><trkpt lat="42.60204940257905" lon="12.100662455680427"><ele>508.0</ele><time>2026-04-28T16:49:01Z</time></trkpt><trkpt lat="42.602213791078185" lon="12.100509230588926"><ele>508.33333333333337</ele><time>2026-04-28T16:49:02Z</time></trkpt><trkpt lat="42.60237474825299" lon="12.10035469466565"><ele>508.66666666666663</ele><time>2026-04-28T16:49:03Z</time></trkpt><trkpt lat="42.602530556195155" lon="12.100212470861019"><ele>509.0</ele><time>2026-04-28T16:49:04Z</time></trkpt><trkpt lat="42.60268778492793" lon="12.100065776179347"><ele>508.66666666666663</ele><time>2026-04-28T16:49:05Z</time></trkpt><trkpt lat="42.60284992469692" lon="12.099910859296344"><ele>508.33333333333337</ele><time>2026-04-28T16:49:06Z</time></trkpt><trkpt lat="42.60300750018571" lon="12.099760296579454"><ele>508.0</ele><time>2026-04-28T16:49:07Z</time></trkpt><trkpt lat="42.603163457361504" lon="12.099608297900035"><ele>508.0</ele><time>2026-04-28T16:49:08Z</time></trkpt><trkpt lat="42.6033208979576" lon="12.099448868827645"><ele>508.0</ele><time>2026-04-28T16:49:09Z</time></trkpt><trkpt lat="42.60347483257426" lon="12.099276721077871"><ele>508.0</ele><time>2026-04-28T16:49:10Z</time></trkpt><trkpt lat="42.603625026701394" lon="12.099103143103132"><ele>509.33333333333337</ele><time>2026-04-28T16:49:11Z</time></trkpt><trkpt lat="42.603774667961865" lon="12.098912588501594"><ele>510.66666666666663</ele><time>2026-04-28T16:49:12Z</time></trkpt><trkpt lat="42.60393306823736" lon="12.098692648089456"><ele>512.0</ele><time>2026-04-28T16:49:13Z</time></trkpt><trkpt lat="42.60410071039248" lon="12.098463363003354"><ele>511.0</ele><time>2026-04-28T16:49:14Z</time></trkpt><trkpt lat="42.604278214854965" lon="12.09822076682689"><ele>510.0</ele><time>2026-04-28T16:49:15Z</time></trkpt><trkpt lat="42.604457899110166" lon="12.097976653058424"><ele>513.5</ele><time>2026-04-28T16:49:16Z</time></trkpt><trkpt lat="42.604637605907776" lon="12.09772108451334"><ele>517.0</ele><time>2026-04-28T16:49:17Z</time></trkpt><trkpt lat="42.60482549943294" lon="12.097462784530588"><ele>516.0</ele><time>2026-04-28T16:49:18Z</time></trkpt><trkpt lat="42.605012217865564" lon="12.0972063621509"><ele>515.0</ele><time>2026-04-28T16:49:19Z</time></trkpt><trkpt lat="42.60518599738376" lon="12.096960634835522"><ele>517.0</ele><time>2026-04-28T16:49:20Z</time></trkpt><trkpt lat="42.60534979678556" lon="12.096735810049744"><ele>519.0</ele><time>2026-04-28T16:49:21Z</time></trkpt><trkpt lat="42.60550354899813" lon="12.096522969441514"><ele>519.0</ele><time>2026-04-28T16:49:22Z</time></trkpt><trkpt lat="42.60564742023964" lon="12.096324875157423"><ele>519.0</ele><time>2026-04-28T16:49:23Z</time></trkpt><trkpt lat="42.605783142064006" lon="12.096137905962216"><ele>519.0</ele><time>2026-04-28T16:49:24Z</time></trkpt><trkpt lat="42.60591780584214" lon="12.09596537444627"><ele>519.0</ele><time>2026-04-28T16:49:25Z</time></trkpt><trkpt lat="42.60606366909904" lon="12.095810251197964"><ele>519.0</ele><time>2026-04-28T16:49:26Z</time></trkpt><trkpt lat="42.60621848133677" lon="12.095660846850459"><ele>519.0</ele><time>2026-04-28T16:49:27Z</time></trkpt><trkpt lat="42.60638020426839" lon="12.095519378810987"><ele>517.3333333333334</ele><time>2026-04-28T16:49:28Z</time></trkpt><trkpt lat="42.60654615082363" lon="12.095367039311528"><ele>515.6666666666667</ele><time>2026-04-28T16:49:29Z</time></trkpt><trkpt lat="42.606715588061135" lon="12.09521293464339"><ele>514.0</ele><time>2026-04-28T16:49:30Z</time></trkpt><trkpt lat="42.606887164267576" lon="12.09505707792118"><ele>511.6666666666667</ele><time>2026-04-28T16:49:31Z</time></trkpt><trkpt lat="42.60706042978355" lon="12.094898916880346"><ele>509.33333333333337</ele><time>2026-04-28T16:49:32Z</time></trkpt><trkpt lat="42.607231948513906" lon="12.094736552680562"><ele>507.0</ele><time>2026-04-28T16:49:33Z</time></trkpt><trkpt lat="42.60740047225939" lon="12.09456405668956"><ele>507.0</ele><time>2026-04-28T16:49:34Z</time></trkpt><trkpt lat="42.6075628247634" lon="12.094382197034435"><ele>507.0</ele><time>2026-04-28T16:49:35Z</time></trkpt><trkpt lat="42.6077182046166" lon="12.094189572111873"><ele>507.0</ele><time>2026-04-28T16:49:36Z</time></trkpt><trkpt lat="42.607870545694254" lon="12.093993875844212"><ele>506.66666666666663</ele><time>2026-04-28T16:49:37Z</time></trkpt><trkpt lat="42.60802302234382" lon="12.093799643442438"><ele>506.3333333333333</ele><time>2026-04-28T16:49:38Z</time></trkpt><trkpt lat="42.60817475289093" lon="12.093610399810064"><ele>506.0</ele><time>2026-04-28T16:49:39Z</time></trkpt><trkpt lat="42.60832019371981" lon="12.093424325867524"><ele>506.66666666666663</ele><time>2026-04-28T16:49:40Z</time></trkpt><trkpt lat="42.60845744053381" lon="12.093242877874404"><ele>507.33333333333337</ele><time>2026-04-28T16:49:41Z</time></trkpt><trkpt lat="42.60858703678571" lon="12.093060734942652"><ele>508.0</ele><time>2026-04-28T16:49:42Z</time></trkpt><trkpt lat="42.6087087104274" lon="12.092861896198285"><ele>508.6666666666667</ele><time>2026-04-28T16:49:43Z</time></trkpt><trkpt lat="42.60881298917296" lon="12.092645409317889"><ele>509.33333333333337</ele><time>2026-04-28T16:49:44Z</time></trkpt><trkpt lat="42.608907165337406" lon="12.092412862229715"><ele>510.0</ele><time>2026-04-28T16:49:45Z</time></trkpt><trkpt lat="42.609000650216416" lon="12.092175795939735"><ele>511.33333333333337</ele><time>2026-04-28T16:49:46Z</time></trkpt><trkpt lat="42.60910347447073" lon="12.091936634601517"><ele>512.6666666666667</ele><time>2026-04-28T16:49:47Z</time></trkpt><trkpt lat="42.60921340968248" lon="12.091698698802697"><ele>514.0</ele><time>2026-04-28T16:49:48Z</time></trkpt><trkpt lat="42.609326314143416" lon="12.091483738924294"><ele>514.6666666666667</ele><time>2026-04-28T16:49:49Z</time></trkpt><trkpt lat="42.60943308526087" lon="12.091288645605527"><ele>515.3333333333334</ele><time>2026-04-28T16:49:50Z</time></trkpt><trkpt lat="42.60953479003262" lon="12.091110216879331"><ele>516.0</ele><time>2026-04-28T16:49:51Z</time></trkpt><trkpt lat="42.6096296972864" lon="12.090943593728603"><ele>517.3333333333334</ele><time>2026-04-28T16:49:52Z</time></trkpt><trkpt lat="42.609725155630876" lon="12.090769955589765"><ele>518.6666666666667</ele><time>2026-04-28T16:49:53Z</time></trkpt><trkpt lat="42.60982358684021" lon="12.090588416325888"><ele>520.0</ele><time>2026-04-28T16:49:54Z</time></trkpt><trkpt lat="42.60993117396625" lon="12.090410703672887"><ele>520.0</ele><time>2026-04-28T16:49:55Z</time></trkpt><trkpt lat="42.610051628406396" lon="12.090232232242753"><ele>520.0</ele><time>2026-04-28T16:49:56Z</time></trkpt><trkpt lat="42.61018719146676" lon="12.090062970994824"><ele>520.0</ele><time>2026-04-28T16:49:57Z</time></trkpt><trkpt lat="42.61033556314029" lon="12.089902439907425"><ele>521.0</ele><time>2026-04-28T16:49:58Z</time></trkpt><trkpt lat="42.61049574753996" lon="12.089753154426516"><ele>522.0</ele><time>2026-04-28T16:49:59Z</time></trkpt><trkpt lat="42.610666701348386" lon="12.089610408224015"><ele>523.0</ele><time>2026-04-28T16:50:00Z</time></trkpt><trkpt lat="42.61083635744247" lon="12.089465054299714"><ele>523.0</ele><time>2026-04-28T16:50:01Z</time></trkpt><trkpt lat="42.61100251999954" lon="12.08931042515807"><ele>523.0</ele><time>2026-04-28T16:50:02Z</time></trkpt><trkpt lat="42.61116432577547" lon="12.089132920691481"><ele>523.0</ele><time>2026-04-28T16:50:03Z</time></trkpt><trkpt lat="42.61132309004292" lon="12.08893502993486"><ele>524.0</ele><time>2026-04-28T16:50:04Z</time></trkpt><trkpt lat="42.611485845287945" lon="12.088723805732814"><ele>525.0</ele><time>2026-04-28T16:50:05Z</time></trkpt><trkpt lat="42.61164825706701" lon="12.088505675287264"><ele>525.0</ele><time>2026-04-28T16:50:06Z</time></trkpt><trkpt lat="42.61180978242731" lon="12.088288152552906"><ele>525.0</ele><time>2026-04-28T16:50:07Z</time></trkpt><trkpt lat="42.61197154356209" lon="12.088067269147157"><ele>527.5</ele><time>2026-04-28T16:50:08Z</time></trkpt><trkpt lat="42.61213520447944" lon="12.087846458011205"><ele>530.0</ele><time>2026-04-28T16:50:09Z</time></trkpt><trkpt lat="42.61230022731102" lon="12.08762939128141"><ele>530.5</ele><time>2026-04-28T16:50:10Z</time></trkpt><trkpt lat="42.6124663357988" lon="12.087415998923836"><ele>531.0</ele><time>2026-04-28T16:50:11Z</time></trkpt><trkpt lat="42.612635916554666" lon="12.087203146796956"><ele>531.0</ele><time>2026-04-28T16:50:12Z</time></trkpt><trkpt lat="42.612807321552985" lon="12.086992508071349"><ele>531.0</ele><time>2026-04-28T16:50:13Z</time></trkpt><trkpt lat="42.61298036147161" lon="12.086782262569525"><ele>534.5</ele><time>2026-04-28T16:50:14Z</time></trkpt><trkpt lat="42.613153296018496" lon="12.08656902615545"><ele>538.0</ele><time>2026-04-28T16:50:15Z</time></trkpt><trkpt lat="42.61332388680586" lon="12.086351832027384"><ele>538.0</ele><time>2026-04-28T16:50:16Z</time></trkpt><trkpt lat="42.61349500021668" lon="12.08613294754588"><ele>538.0</ele><time>2026-04-28T16:50:17Z</time></trkpt><trkpt lat="42.61366611873289" lon="12.085916056414222"><ele>538.5</ele><time>2026-04-28T16:50:18Z</time></trkpt><trkpt lat="42.61383903767746" lon="12.085707858466867"><ele>539.0</ele><time>2026-04-28T16:50:19Z</time></trkpt><trkpt lat="42.61401515177887" lon="12.085509322502164"><ele>539.0</ele><time>2026-04-28T16:50:20Z</time></trkpt><trkpt lat="42.61419271355115" lon="12.085319388099672"><ele>539.0</ele><time>2026-04-28T16:50:21Z</time></trkpt><trkpt lat="42.61436848451058" lon="12.085134579920291"><ele>539.0</ele><time>2026-04-28T16:50:22Z</time></trkpt><trkpt lat="42.614539201110624" lon="12.084960503242018"><ele>539.3333333333333</ele><time>2026-04-28T16:50:23Z</time></trkpt><trkpt lat="42.61470810591846" lon="12.084786768556736"><ele>539.6666666666666</ele><time>2026-04-28T16:50:24Z</time></trkpt><trkpt lat="42.614875570088174" lon="12.084611086845067"><ele>540.0</ele><time>2026-04-28T16:50:25Z</time></trkpt><trkpt lat="42.615041955173446" lon="12.08443601951455"><ele>540.0</ele><time>2026-04-28T16:50:26Z</time></trkpt><trkpt lat="42.61520458394179" lon="12.084267575477725"><ele>540.0</ele><time>2026-04-28T16:50:27Z</time></trkpt><trkpt lat="42.61535669846868" lon="12.08410913606597"><ele>540.0</ele><time>2026-04-28T16:50:28Z</time></trkpt><trkpt lat="42.615505754675354" lon="12.083945681542907"><ele>540.3333333333334</ele><time>2026-04-28T16:50:29Z</time></trkpt><trkpt lat="42.615646486311505" lon="12.083776595185666"><ele>540.6666666666667</ele><time>2026-04-28T16:50:30Z</time></trkpt><trkpt lat="42.615764984593376" lon="12.083610459015963"><ele>541.0</ele><time>2026-04-28T16:50:31Z</time></trkpt><trkpt lat="42.61587006502576" lon="12.08345057346798"><ele>541.0</ele><time>2026-04-28T16:50:32Z</time></trkpt><trkpt lat="42.615982972396175" lon="12.083300775127762"><ele>541.0</ele><time>2026-04-28T16:50:33Z</time></trkpt><trkpt lat="42.616116766026806" lon="12.083157915673128"><ele>541.0</ele><time>2026-04-28T16:50:34Z</time></trkpt><trkpt lat="42.61626498290701" lon="12.083030926608256"><ele>541.6666666666667</ele><time>2026-04-28T16:50:35Z</time></trkpt><trkpt lat="42.616430966331784" lon="12.082919818889572"><ele>542.3333333333334</ele><time>2026-04-28T16:50:36Z</time></trkpt><trkpt lat="42.61661524199571" lon="12.082813857276875"><ele>543.0</ele><time>2026-04-28T16:50:37Z</time></trkpt><trkpt lat="42.61680809471072" lon="12.0827124006102"><ele>543.0</ele><time>2026-04-28T16:50:38Z</time></trkpt><trkpt lat="42.616981373480186" lon="12.082618801868964"><ele>543.0</ele><time>2026-04-28T16:50:39Z</time></trkpt><trkpt lat="42.61714555670247" lon="12.082521698041095"><ele>543.0</ele><time>2026-04-28T16:50:40Z</time></trkpt><trkpt lat="42.61729843518736" lon="12.082431469357772"><ele>542.5</ele><time>2026-04-28T16:50:41Z</time></trkpt><trkpt lat="42.617445166589945" lon="12.082347583931407"><ele>542.0</ele><time>2026-04-28T16:50:42Z</time></trkpt><trkpt lat="42.617579141943445" lon="12.082261991228666"><ele>541.5</ele><time>2026-04-28T16:50:43Z</time></trkpt><trkpt lat="42.61768851359711" lon="12.082141007586618"><ele>541.0</ele><time>2026-04-28T16:50:44Z</time></trkpt><trkpt lat="42.61777603822181" lon="12.081976411359001"><ele>536.6666666666667</ele><time>2026-04-28T16:50:45Z</time></trkpt><trkpt lat="42.61783931493896" lon="12.081769475991372"><ele>532.3333333333334</ele><time>2026-04-28T16:50:46Z</time></trkpt><trkpt lat="42.61788657370073" lon="12.08152988197959"><ele>528.0</ele><time>2026-04-28T16:50:47Z</time></trkpt><trkpt lat="42.61793333642667" lon="12.081310605568602"><ele>528.0</ele><time>2026-04-28T16:50:48Z</time></trkpt><trkpt lat="42.617990389665486" lon="12.081118204807607"><ele>528.0</ele><time>2026-04-28T16:50:49Z</time></trkpt><trkpt lat="42.61805238781428" lon="12.080937722467255"><ele>528.0</ele><time>2026-04-28T16:50:50Z</time></trkpt><trkpt lat="42.61813294222055" lon="12.080781416434704"><ele>528.0</ele><time>2026-04-28T16:50:51Z</time></trkpt><trkpt lat="42.61823929581775" lon="12.080661131616102"><ele>526.3333333333334</ele><time>2026-04-28T16:50:52Z</time></trkpt><trkpt lat="42.61837176112544" lon="12.080600383990287"><ele>524.6666666666667</ele><time>2026-04-28T16:50:53Z</time></trkpt><trkpt lat="42.618528446135855" lon="12.08058552252785"><ele>523.0</ele><time>2026-04-28T16:50:54Z</time></trkpt><trkpt lat="42.618711893959755" lon="12.08059074127439"><ele>520.0</ele><time>2026-04-28T16:50:55Z</time></trkpt><trkpt lat="42.618909234149875" lon="12.080595170154794"><ele>517.0</ele><time>2026-04-28T16:50:56Z</time></trkpt><trkpt lat="42.61910457731069" lon="12.080591304508998"><ele>514.0</ele><time>2026-04-28T16:50:57Z</time></trkpt><trkpt lat="42.619281968527154" lon="12.080586012558499"><ele>514.0</ele><time>2026-04-28T16:50:58Z</time></trkpt><trkpt lat="42.61944240375038" lon="12.080573999348108"><ele>514.0</ele><time>2026-04-28T16:50:59Z</time></trkpt><trkpt lat="42.619582478404226" lon="12.08053164752698"><ele>514.0</ele><time>2026-04-28T16:51:00Z</time></trkpt><trkpt lat="42.619718867408515" lon="12.080435671000787"><ele>513.0</ele><time>2026-04-28T16:51:01Z</time></trkpt><trkpt lat="42.61985161714974" lon="12.0802989882936"><ele>512.0</ele><time>2026-04-28T16:51:02Z</time></trkpt><trkpt lat="42.61997420915012" lon="12.080150102606998"><ele>511.0</ele><time>2026-04-28T16:51:03Z</time></trkpt><trkpt lat="42.62006937420544" lon="12.080001762147633"><ele>512.0</ele><time>2026-04-28T16:51:04Z</time></trkpt><trkpt lat="42.620134680715786" lon="12.079839661673686"><ele>513.0</ele><time>2026-04-28T16:51:05Z</time></trkpt><trkpt lat="42.62017544196124" lon="12.079648059073293"><ele>514.0</ele><time>2026-04-28T16:51:06Z</time></trkpt><trkpt lat="42.62021373507382" lon="12.079457588267118"><ele>515.0</ele><time>2026-04-28T16:51:07Z</time></trkpt><trkpt lat="42.62026181872683" lon="12.079287395702448"><ele>515.0</ele><time>2026-04-28T16:51:08Z</time></trkpt><trkpt lat="42.620332816980465" lon="12.07914381426227"><ele>515.0</ele><time>2026-04-28T16:51:09Z</time></trkpt><trkpt lat="42.620420526316" lon="12.079035875254515"><ele>515.0</ele><time>2026-04-28T16:51:10Z</time></trkpt><trkpt lat="42.62050181782731" lon="12.078980678848854"><ele>515.0</ele><time>2026-04-28T16:51:11Z</time></trkpt><trkpt lat="42.62059265644122" lon="12.078986092865746"><ele>515.0</ele><time>2026-04-28T16:51:12Z</time></trkpt><trkpt lat="42.620692486576786" lon="12.07904603013491"><ele>515.0</ele><time>2026-04-28T16:51:13Z</time></trkpt><trkpt lat="42.62078786005694" lon="12.079148600847185"><ele>515.0</ele><time>2026-04-28T16:51:14Z</time></trkpt><trkpt lat="42.62089851176442" lon="12.079225628615163"><ele>515.0</ele><time>2026-04-28T16:51:15Z</time></trkpt><trkpt lat="42.621010408849386" lon="12.079231585549676"><ele>515.0</ele><time>2026-04-28T16:51:16Z</time></trkpt><trkpt lat="42.62111498045905" lon="12.079178878186758"><ele>513.75</ele><time>2026-04-28T16:51:17Z</time></trkpt><trkpt lat="42.6212123923428" lon="12.079062056646238"><ele>512.5</ele><time>2026-04-28T16:51:18Z</time></trkpt><trkpt lat="42.62130251366975" lon="12.078895389179358"><ele>511.25</ele><time>2026-04-28T16:51:19Z</time></trkpt><trkpt lat="42.62138492534123" lon="12.078713075665888"><ele>510.0</ele><time>2026-04-28T16:51:20Z</time></trkpt><trkpt lat="42.62146266277043" lon="12.078518423638847"><ele>510.0</ele><time>2026-04-28T16:51:21Z</time></trkpt><trkpt lat="42.621542173032" lon="12.078344193007966"><ele>510.0</ele><time>2026-04-28T16:51:22Z</time></trkpt><trkpt lat="42.62163471859036" lon="12.078185004956675"><ele>510.0</ele><time>2026-04-28T16:51:23Z</time></trkpt><trkpt lat="42.62175874113223" lon="12.078055221311052"><ele>511.0</ele><time>2026-04-28T16:51:24Z</time></trkpt><trkpt lat="42.62189122095475" lon="12.077955008600666"><ele>512.0</ele><time>2026-04-28T16:51:25Z</time></trkpt><trkpt lat="42.62200261731844" lon="12.077858689910302"><ele>513.0</ele><time>2026-04-28T16:51:26Z</time></trkpt><trkpt lat="42.62208367670215" lon="12.077744639365473"><ele>514.0</ele><time>2026-04-28T16:51:27Z</time></trkpt><trkpt lat="42.622128068211026" lon="12.077601504417949"><ele>511.75</ele><time>2026-04-28T16:51:28Z</time></trkpt><trkpt lat="42.622122073271846" lon="12.077422912865098"><ele>509.5</ele><time>2026-04-28T16:51:29Z</time></trkpt><trkpt lat="42.62208591310354" lon="12.077241429045817"><ele>507.25</ele><time>2026-04-28T16:51:30Z</time></trkpt><trkpt lat="42.6220213097414" lon="12.077064901287546"><ele>505.0</ele><time>2026-04-28T16:51:31Z</time></trkpt><trkpt lat="42.62195132399668" lon="12.076916105890739"><ele>505.0</ele><time>2026-04-28T16:51:32Z</time></trkpt><trkpt lat="42.62189055334633" lon="12.076785200171194"><ele>505.0</ele><time>2026-04-28T16:51:33Z</time></trkpt><trkpt lat="42.62187428578893" lon="12.076664533190284"><ele>505.0</ele><time>2026-04-28T16:51:34Z</time></trkpt><trkpt lat="42.6219052462749" lon="12.076546949585474"><ele>505.0</ele><time>2026-04-28T16:51:35Z</time></trkpt><trkpt lat="42.62197470723778" lon="12.076429408597628"><ele>505.0</ele><time>2026-04-28T16:51:36Z</time></trkpt><trkpt lat="42.62207601489801" lon="12.07632659024759"><ele>505.25</ele><time>2026-04-28T16:51:37Z</time></trkpt><trkpt lat="42.62219255767287" lon="12.076242477601587"><ele>505.5</ele><time>2026-04-28T16:51:38Z</time></trkpt><trkpt lat="42.62230120350411" lon="12.076195862065957"><ele>505.75</ele><time>2026-04-28T16:51:39Z</time></trkpt><trkpt lat="42.622405014475454" lon="12.07620428807469"><ele>506.0</ele><time>2026-04-28T16:51:40Z</time></trkpt><trkpt lat="42.622501365721" lon="12.076265406628375"><ele>506.0</ele><time>2026-04-28T16:51:41Z</time></trkpt><trkpt lat="42.622587950932065" lon="12.076387193857254"><ele>506.0</ele><time>2026-04-28T16:51:42Z</time></trkpt><trkpt lat="42.62266092822756" lon="12.076560008283563"><ele>506.0</ele><time>2026-04-28T16:51:43Z</time></trkpt><trkpt lat="42.622736200345074" lon="12.07676515993449"><ele>506.0</ele><time>2026-04-28T16:51:44Z</time></trkpt><trkpt lat="42.622823228352885" lon="12.076986738046344"><ele>509.0</ele><time>2026-04-28T16:51:45Z</time></trkpt><trkpt lat="42.622906511195964" lon="12.07721772729439"><ele>512.0</ele><time>2026-04-28T16:51:46Z</time></trkpt><trkpt lat="42.622942856103805" lon="12.077488469603125"><ele>515.0</ele><time>2026-04-28T16:51:47Z</time></trkpt><trkpt lat="42.62297445074861" lon="12.077774123425675"><ele>515.0</ele><time>2026-04-28T16:51:48Z</time></trkpt><trkpt lat="42.623000821039405" lon="12.07807773930422"><ele>515.0</ele><time>2026-04-28T16:51:49Z</time></trkpt><trkpt lat="42.62304506019901" lon="12.078389712105196"><ele>513.0</ele><time>2026-04-28T16:51:50Z</time></trkpt><trkpt lat="42.62307284721694" lon="12.078691749339631"><ele>511.0</ele><time>2026-04-28T16:51:51Z</time></trkpt><trkpt lat="42.62311131598713" lon="12.07898304032974"><ele>509.0</ele><time>2026-04-28T16:51:52Z</time></trkpt><trkpt lat="42.6231592537467" lon="12.079251548321011"><ele>507.0</ele><time>2026-04-28T16:51:53Z</time></trkpt><trkpt lat="42.623211182933844" lon="12.079480214636135"><ele>505.0</ele><time>2026-04-28T16:51:54Z</time></trkpt><trkpt lat="42.623264082086784" lon="12.079667244553777"><ele>503.0</ele><time>2026-04-28T16:51:55Z</time></trkpt><trkpt lat="42.62332673794762" lon="12.079817190884208"><ele>503.0</ele><time>2026-04-28T16:51:56Z</time></trkpt><trkpt lat="42.62342020805879" lon="12.079927090768884"><ele>503.0</ele><time>2026-04-28T16:51:57Z</time></trkpt><trkpt lat="42.62354273843063" lon="12.079988124985857"><ele>503.0</ele><time>2026-04-28T16:51:58Z</time></trkpt><trkpt lat="42.62367188666093" lon="12.080012655140328"><ele>503.0</ele><time>2026-04-28T16:51:59Z</time></trkpt><trkpt lat="42.62379037577889" lon="12.080054335027835"><ele>505.0</ele><time>2026-04-28T16:52:00Z</time></trkpt><trkpt lat="42.623871205670454" lon="12.08015021365244"><ele>507.0</ele><time>2026-04-28T16:52:01Z</time></trkpt><trkpt lat="42.62393787281722" lon="12.080288122470712"><ele>509.0</ele><time>2026-04-28T16:52:02Z</time></trkpt><trkpt lat="42.62392682487779" lon="12.080470954583042"><ele>511.0</ele><time>2026-04-28T16:52:03Z</time></trkpt><trkpt lat="42.62394064486708" lon="12.08066856274097"><ele>508.33333333333337</ele><time>2026-04-28T16:52:04Z</time></trkpt><trkpt lat="42.623979325092414" lon="12.080864289595906"><ele>505.66666666666663</ele><time>2026-04-28T16:52:05Z</time></trkpt><trkpt lat="42.62403968982765" lon="12.081056548785513"><ele>503.0</ele><time>2026-04-28T16:52:06Z</time></trkpt><trkpt lat="42.62412925759111" lon="12.081257740769209"><ele>503.0</ele><time>2026-04-28T16:52:07Z</time></trkpt><trkpt lat="42.62422868337491" lon="12.081456357296045"><ele>503.0</ele><time>2026-04-28T16:52:08Z</time></trkpt><trkpt lat="42.62430025770902" lon="12.081669372969086"><ele>503.0</ele><time>2026-04-28T16:52:09Z</time></trkpt><trkpt lat="42.624352238806395" lon="12.081885821685546"><ele>503.66666666666663</ele><time>2026-04-28T16:52:10Z</time></trkpt><trkpt lat="42.62434704744989" lon="12.082112848810441"><ele>504.33333333333337</ele><time>2026-04-28T16:52:11Z</time></trkpt><trkpt lat="42.624331442794336" lon="12.08234497045529"><ele>505.0</ele><time>2026-04-28T16:52:12Z</time></trkpt><trkpt lat="42.624333735229406" lon="12.08257384056862"><ele>505.0</ele><time>2026-04-28T16:52:13Z</time></trkpt><trkpt lat="42.624352704131184" lon="12.082797350953538"><ele>505.0</ele><time>2026-04-28T16:52:14Z</time></trkpt><trkpt lat="42.62440625648017" lon="12.083025294315291"><ele>505.0</ele><time>2026-04-28T16:52:15Z</time></trkpt><trkpt lat="42.624483406953125" lon="12.083256244384568"><ele>508.0</ele><time>2026-04-28T16:52:16Z</time></trkpt><trkpt lat="42.62456627017708" lon="12.083490760857702"><ele>511.0</ele><time>2026-04-28T16:52:17Z</time></trkpt><trkpt lat="42.62463689877883" lon="12.08370045245668"><ele>514.0</ele><time>2026-04-28T16:52:18Z</time></trkpt><trkpt lat="42.624698627163745" lon="12.083892413927332"><ele>514.0</ele><time>2026-04-28T16:52:19Z</time></trkpt><trkpt lat="42.62476029187632" lon="12.084059999652037"><ele>514.0</ele><time>2026-04-28T16:52:20Z</time></trkpt><trkpt lat="42.624832602656284" lon="12.084197415637517"><ele>514.0</ele><time>2026-04-28T16:52:21Z</time></trkpt><trkpt lat="42.62491574111243" lon="12.084326989576352"><ele>514.0</ele><time>2026-04-28T16:52:22Z</time></trkpt><trkpt lat="42.62501274726134" lon="12.084477629766756"><ele>514.0</ele><time>2026-04-28T16:52:23Z</time></trkpt><trkpt lat="42.625125343339946" lon="12.08463278975841"><ele>514.0</ele><time>2026-04-28T16:52:24Z</time></trkpt><trkpt lat="42.625255766891726" lon="12.084791772904298"><ele>514.0</ele><time>2026-04-28T16:52:25Z</time></trkpt><trkpt lat="42.625406522341606" lon="12.084957183722855"><ele>510.6666666666667</ele><time>2026-04-28T16:52:26Z</time></trkpt><trkpt lat="42.6255591464417" lon="12.085125580201199"><ele>507.33333333333337</ele><time>2026-04-28T16:52:27Z</time></trkpt><trkpt lat="42.625691447960946" lon="12.085279538122457"><ele>504.0</ele><time>2026-04-28T16:52:28Z</time></trkpt><trkpt lat="42.62579565346826" lon="12.085425048537692"><ele>504.0</ele><time>2026-04-28T16:52:29Z</time></trkpt><trkpt lat="42.62588495412694" lon="12.085596642052675"><ele>504.0</ele><time>2026-04-28T16:52:30Z</time></trkpt><trkpt lat="42.62595536638543" lon="12.085789864141445"><ele>504.0</ele><time>2026-04-28T16:52:31Z</time></trkpt><trkpt lat="42.62600189213131" lon="12.086006398207758"><ele>503.66666666666663</ele><time>2026-04-28T16:52:32Z</time></trkpt><trkpt lat="42.62603178412751" lon="12.086249037469608"><ele>503.3333333333333</ele><time>2026-04-28T16:52:33Z</time></trkpt><trkpt lat="42.62604361658809" lon="12.08648537791976"><ele>503.0</ele><time>2026-04-28T16:52:34Z</time></trkpt><trkpt lat="42.6260359613877" lon="12.086707325651638"><ele>502.5</ele><time>2026-04-28T16:52:35Z</time></trkpt><trkpt lat="42.62602789801465" lon="12.086917542688232"><ele>502.0</ele><time>2026-04-28T16:52:36Z</time></trkpt><trkpt lat="42.626041937226546" lon="12.087111286401662"><ele>501.5</ele><time>2026-04-28T16:52:37Z</time></trkpt><trkpt lat="42.626084322437194" lon="12.087299665332825"><ele>501.0</ele><time>2026-04-28T16:52:38Z</time></trkpt><trkpt lat="42.62614810279807" lon="12.087477474338966"><ele>501.0</ele><time>2026-04-28T16:52:39Z</time></trkpt><trkpt lat="42.62623716127327" lon="12.087629013778486"><ele>501.0</ele><time>2026-04-28T16:52:40Z</time></trkpt><trkpt lat="42.62632051059337" lon="12.087763320143992"><ele>501.0</ele><time>2026-04-28T16:52:41Z</time></trkpt><trkpt lat="42.62639570437942" lon="12.087898973776795"><ele>501.0</ele><time>2026-04-28T16:52:42Z</time></trkpt><trkpt lat="42.62646598064161" lon="12.088025183634853"><ele>501.0</ele><time>2026-04-28T16:52:43Z</time></trkpt><trkpt lat="42.626535290250814" lon="12.088145234539935"><ele>501.0</ele><time>2026-04-28T16:52:44Z</time></trkpt><trkpt lat="42.62660181319482" lon="12.088261084693732"><ele>501.0</ele><time>2026-04-28T16:52:45Z</time></trkpt><trkpt lat="42.62666291498826" lon="12.08838059360534"><ele>501.0</ele><time>2026-04-28T16:52:46Z</time></trkpt><trkpt lat="42.626719869696885" lon="12.088491251281281"><ele>501.0</ele><time>2026-04-28T16:52:47Z</time></trkpt><trkpt lat="42.626773565427044" lon="12.088591720097568"><ele>500.3333333333333</ele><time>2026-04-28T16:52:48Z</time></trkpt><trkpt lat="42.626831786440725" lon="12.088676679982834"><ele>499.66666666666663</ele><time>2026-04-28T16:52:49Z</time></trkpt><trkpt lat="42.62688753766213" lon="12.088751673094713"><ele>499.0</ele><time>2026-04-28T16:52:50Z</time></trkpt><trkpt lat="42.626938441798224" lon="12.088834353597974"><ele>498.3333333333333</ele><time>2026-04-28T16:52:51Z</time></trkpt><trkpt lat="42.62698221534213" lon="12.088912929612087"><ele>497.66666666666663</ele><time>2026-04-28T16:52:52Z</time></trkpt><trkpt lat="42.627026871615584" lon="12.088990095945226"><ele>497.0</ele><time>2026-04-28T16:52:53Z</time></trkpt><trkpt lat="42.627069131872545" lon="12.089068139692213"><ele>496.8571428571429</ele><time>2026-04-28T16:52:54Z</time></trkpt><trkpt lat="42.627107050068766" lon="12.089150604236988"><ele>496.7142857142857</ele><time>2026-04-28T16:52:55Z</time></trkpt><trkpt lat="42.62714051202254" lon="12.089235712432208"><ele>496.57142857142856</ele><time>2026-04-28T16:52:56Z</time></trkpt><trkpt lat="42.62716613647595" lon="12.089320157829365"><ele>496.42857142857144</ele><time>2026-04-28T16:52:57Z</time></trkpt><trkpt lat="42.627186149485354" lon="12.089405517117882"><ele>496.28571428571433</ele><time>2026-04-28T16:52:58Z</time></trkpt><trkpt lat="42.6271998193175" lon="12.089493817161719"><ele>496.14285714285717</ele><time>2026-04-28T16:52:59Z</time></trkpt><trkpt lat="42.62720402426353" lon="12.089583910418371"><ele>496.0</ele><time>2026-04-28T16:53:00Z</time></trkpt><trkpt lat="42.62720110627699" lon="12.089759500441664"><ele>496.0</ele><time>2026-04-28T16:53:02Z</time></trkpt><trkpt lat="42.62720404007366" lon="12.089856925652931"><ele>496.00000000000006</ele><time>2026-04-28T16:53:03Z</time></trkpt><trkpt lat="42.627201848968895" lon="12.089942493128513"><ele>496.0</ele><time>2026-04-28T16:53:04Z</time></trkpt><trkpt lat="42.62719426893822" lon="12.090029400741157"><ele>496.0</ele><time>2026-04-28T16:53:05Z</time></trkpt><trkpt lat="42.62718453969928" lon="12.090122167360192"><ele>496.00000000000006</ele><time>2026-04-28T16:53:06Z</time></trkpt><trkpt lat="42.62715512561663" lon="12.090211978198438"><ele>496.0</ele><time>2026-04-28T16:53:07Z</time></trkpt><trkpt lat="42.627138614337376" lon="12.090304285791364"><ele>496.0</ele><time>2026-04-28T16:53:08Z</time></trkpt><trkpt lat="42.627131812446954" lon="12.090399461026195"><ele>495.0</ele><time>2026-04-28T16:53:09Z</time></trkpt><trkpt lat="42.62710186606837" lon="12.090477979557257"><ele>494.00000000000006</ele><time>2026-04-28T16:53:10Z</time></trkpt><trkpt lat="42.627042510922344" lon="12.090590144147257"><ele>493.0</ele><time>2026-04-28T16:53:12Z</time></trkpt><trkpt lat="42.62702264988435" lon="12.090679217574724"><ele>492.0</ele><time>2026-04-28T16:58:13Z</time></trkpt><trkpt lat="42.62704923470598" lon="12.090766796784283"><ele>491.00000000000006</ele><time>2026-04-28T16:58:18Z</time></trkpt><trkpt lat="42.62702520085474" lon="12.090674852677623"><ele>490.0</ele><time>2026-04-28T16:58:59Z</time></trkpt><trkpt lat="42.626969025106455" lon="12.090728707065932"><ele>489.0</ele><time>2026-04-28T17:04:44Z</time></trkpt><trkpt lat="42.626908356331164" lon="12.090813179315111"><ele>486.0</ele><time>2026-04-28T17:04:46Z</time></trkpt><trkpt lat="42.62685031162852" lon="12.09090030324624"><ele>483.0</ele><time>2026-04-28T17:04:49Z</time></trkpt><trkpt lat="42.62681705094335" lon="12.091026733828713"><ele>480.0</ele><time>2026-04-28T17:04:51Z</time></trkpt><trkpt lat="42.62681269274002" lon="12.091134727373195"><ele>477.0</ele><time>2026-04-28T17:04:52Z</time></trkpt><trkpt lat="42.626806768022675" lon="12.09123863222991"><ele>474.0</ele><time>2026-04-28T17:04:53Z</time></trkpt><trkpt lat="42.62681209365464" lon="12.091344010491238"><ele>471.0</ele><time>2026-04-28T17:04:54Z</time></trkpt><trkpt lat="42.6268227495641" lon="12.091449550319297"><ele>471.0</ele><time>2026-04-28T17:04:55Z</time></trkpt><trkpt lat="42.62683642861936" lon="12.091544630642094"><ele>471.0</ele><time>2026-04-28T17:04:56Z</time></trkpt><trkpt lat="42.626846026220676" lon="12.09165136124124"><ele>471.0</ele><time>2026-04-28T17:04:57Z</time></trkpt><trkpt lat="42.62684938767472" lon="12.091762091117673"><ele>471.0</ele><time>2026-04-28T17:04:58Z</time></trkpt><trkpt lat="42.62684800089186" lon="12.091875929095037"><ele>471.0</ele><time>2026-04-28T17:04:59Z</time></trkpt><trkpt lat="42.62685307801087" lon="12.091997779389692"><ele>471.0</ele><time>2026-04-28T17:05:00Z</time></trkpt><trkpt lat="42.62685817834286" lon="12.092118522147564"><ele>471.8333333333333</ele><time>2026-04-28T17:05:01Z</time></trkpt><trkpt lat="42.6268604072437" lon="12.092240800037361"><ele>472.66666666666663</ele><time>2026-04-28T17:05:02Z</time></trkpt><trkpt lat="42.62685770589202" lon="12.092361924113526"><ele>473.5</ele><time>2026-04-28T17:05:03Z</time></trkpt><trkpt lat="42.626854254989" lon="12.092482193082311"><ele>474.3333333333333</ele><time>2026-04-28T17:05:04Z</time></trkpt><trkpt lat="42.62684896733641" lon="12.092597482735796"><ele>475.16666666666663</ele><time>2026-04-28T17:05:05Z</time></trkpt><trkpt lat="42.62684281335736" lon="12.092712231366352"><ele>476.0</ele><time>2026-04-28T17:05:06Z</time></trkpt><trkpt lat="42.626829526812635" lon="12.092817972635572"><ele>476.49999999999994</ele><time>2026-04-28T17:05:07Z</time></trkpt><trkpt lat="42.62680455480855" lon="12.092931190729482"><ele>477.0</ele><time>2026-04-28T17:05:08Z</time></trkpt><trkpt lat="42.62678022622235" lon="12.09305817236235"><ele>477.5</ele><time>2026-04-28T17:05:09Z</time></trkpt><trkpt lat="42.62676400660339" lon="12.093176119710925"><ele>478.0</ele><time>2026-04-28T17:05:10Z</time></trkpt><trkpt lat="42.626736400246784" lon="12.093292762264257"><ele>478.49999999999994</ele><time>2026-04-28T17:05:11Z</time></trkpt><trkpt lat="42.62671845371017" lon="12.093402319477946"><ele>479.0</ele><time>2026-04-28T17:05:12Z</time></trkpt><trkpt lat="42.62671020098478" lon="12.093516606551363"><ele>478.99999999999994</ele><time>2026-04-28T17:05:13Z</time></trkpt><trkpt lat="42.62670160861279" lon="12.0936217961955"><ele>479.0</ele><time>2026-04-28T17:05:14Z</time></trkpt><trkpt lat="42.62670184546395" lon="12.09371869468856"><ele>479.0</ele><time>2026-04-28T17:05:15Z</time></trkpt><trkpt lat="42.626701021058906" lon="12.093807324156359"><ele>479.0</ele><time>2026-04-28T17:05:16Z</time></trkpt><trkpt lat="42.626692586718846" lon="12.09390530868853"><ele>478.99999999999994</ele><time>2026-04-28T17:05:17Z</time></trkpt><trkpt lat="42.62668731765582" lon="12.094020258107957"><ele>479.0</ele><time>2026-04-28T17:05:18Z</time></trkpt><trkpt lat="42.62668639973153" lon="12.09413016956691"><ele>479.49999999999994</ele><time>2026-04-28T17:05:19Z</time></trkpt><trkpt lat="42.62668699199497" lon="12.09423644581712"><ele>480.0</ele><time>2026-04-28T17:05:20Z</time></trkpt><trkpt lat="42.62665899007125" lon="12.094382010436531"><ele>480.5</ele><time>2026-04-28T17:05:22Z</time></trkpt><trkpt lat="42.62665960427527" lon="12.094506640823912"><ele>481.0</ele><time>2026-04-28T17:05:24Z</time></trkpt><trkpt lat="42.62663982833486" lon="12.094595474921364"><ele>481.49999999999994</ele><time>2026-04-28T17:05:26Z</time></trkpt><trkpt lat="42.62667339651825" lon="12.0946736668656"><ele>482.0</ele><time>2026-04-28T17:05:29Z</time></trkpt><trkpt lat="42.626618221004904" lon="12.094784346816033"><ele>482.0</ele><time>2026-04-28T17:05:31Z</time></trkpt><trkpt lat="42.62660759512236" lon="12.094877226824448"><ele>482.00000000000006</ele><time>2026-04-28T17:05:33Z</time></trkpt><trkpt lat="42.6266930166642" lon="12.094914077804715"><ele>482.0</ele><time>2026-04-28T17:05:34Z</time></trkpt><trkpt lat="42.62660511248238" lon="12.094890883913708"><ele>482.0</ele><time>2026-04-28T17:05:38Z</time></trkpt><trkpt lat="42.62666207048122" lon="12.09493034979449"><ele>482.00000000000006</ele><time>2026-04-28T17:06:01Z</time></trkpt><trkpt lat="42.62660561422899" lon="12.094886638472794"><ele>482.0</ele><time>2026-04-28T17:06:40Z</time></trkpt><trkpt lat="42.62666950738743" lon="12.094883543012022"><ele>482.0</ele><time>2026-04-28T17:06:56Z</time></trkpt><trkpt lat="42.62662366010712" lon="12.09494421599117"><ele>482.0</ele><time>2026-04-28T17:07:19Z</time></trkpt><trkpt lat="42.62655391624261" lon="12.09493692196774"><ele>482.00000000000006</ele><time>2026-04-28T17:07:30Z</time></trkpt><trkpt lat="42.62669541972324" lon="12.094901385870726"><ele>482.00000000000006</ele><time>2026-04-28T17:08:53Z</time></trkpt><trkpt lat="42.62660487920764" lon="12.094922460635003"><ele>482.0</ele><time>2026-04-28T17:08:58Z</time></trkpt><trkpt lat="42.62654729973329" lon="12.095037450873578"><ele>482.0</ele><time>2026-04-28T17:09:00Z</time></trkpt><trkpt lat="42.62654196386258" lon="12.095125880048053"><ele>482.6</ele><time>2026-04-28T17:09:01Z</time></trkpt><trkpt lat="42.62654142078975" lon="12.095236781430295"><ele>483.20000000000005</ele><time>2026-04-28T17:09:02Z</time></trkpt><trkpt lat="42.62653194827476" lon="12.09535078579503"><ele>483.8</ele><time>2026-04-28T17:09:03Z</time></trkpt><trkpt lat="42.62651438280194" lon="12.095486835994084"><ele>484.4</ele><time>2026-04-28T17:09:04Z</time></trkpt><trkpt lat="42.626504388407255" lon="12.095643940876343"><ele>485.0</ele><time>2026-04-28T17:09:05Z</time></trkpt><trkpt lat="42.6264784048375" lon="12.095781610994413"><ele>485.0</ele><time>2026-04-28T17:09:06Z</time></trkpt><trkpt lat="42.626456934591026" lon="12.095905160798099"><ele>485.0</ele><time>2026-04-28T17:09:07Z</time></trkpt><trkpt lat="42.62644213958335" lon="12.096026888371323"><ele>485.0</ele><time>2026-04-28T17:09:08Z</time></trkpt><trkpt lat="42.62642334812901" lon="12.096161763328514"><ele>485.0</ele><time>2026-04-28T17:09:09Z</time></trkpt><trkpt lat="42.62639691199359" lon="12.09628769508421"><ele>485.0</ele><time>2026-04-28T17:09:10Z</time></trkpt><trkpt lat="42.62637661261483" lon="12.096404917975711"><ele>484.99999999999994</ele><time>2026-04-28T17:09:11Z</time></trkpt><trkpt lat="42.62636033061819" lon="12.096511283027436"><ele>485.0</ele><time>2026-04-28T17:09:12Z</time></trkpt><trkpt lat="42.62635361770719" lon="12.096618717527173"><ele>485.0</ele><time>2026-04-28T17:09:13Z</time></trkpt><trkpt lat="42.62632880662786" lon="12.09670263663828"><ele>485.0</ele><time>2026-04-28T17:09:14Z</time></trkpt><trkpt lat="42.62629609082478" lon="12.096849083275274"><ele>484.99999999999994</ele><time>2026-04-28T17:09:16Z</time></trkpt><trkpt lat="42.626281231333216" lon="12.096978925364938"><ele>485.0</ele><time>2026-04-28T17:09:18Z</time></trkpt><trkpt lat="42.62625139905722" lon="12.097127564737264"><ele>484.49999999999994</ele><time>2026-04-28T17:09:20Z</time></trkpt><trkpt lat="42.6262379626788" lon="12.097227725791813"><ele>484.0</ele><time>2026-04-28T17:09:21Z</time></trkpt><trkpt lat="42.62621573611705" lon="12.097331352674708"><ele>483.5</ele><time>2026-04-28T17:09:22Z</time></trkpt><trkpt lat="42.626197746196844" lon="12.097438890134642"><ele>483.0</ele><time>2026-04-28T17:09:23Z</time></trkpt><trkpt lat="42.62618494023372" lon="12.097534310755943"><ele>482.49999999999994</ele><time>2026-04-28T17:09:24Z</time></trkpt><trkpt lat="42.626143668811594" lon="12.097617605202371"><ele>482.0</ele><time>2026-04-28T17:09:25Z</time></trkpt><trkpt lat="42.62613637096575" lon="12.097741458841584"><ele>482.0</ele><time>2026-04-28T17:09:26Z</time></trkpt><trkpt lat="42.62611989820731" lon="12.097856408292332"><ele>482.00000000000006</ele><time>2026-04-28T17:09:27Z</time></trkpt><trkpt lat="42.626091727308086" lon="12.097974884600049"><ele>482.00000000000006</ele><time>2026-04-28T17:09:28Z</time></trkpt><trkpt lat="42.6260664751528" lon="12.098097307179982"><ele>482.0</ele><time>2026-04-28T17:09:29Z</time></trkpt><trkpt lat="42.62604058775795" lon="12.098220120471897"><ele>482.0</ele><time>2026-04-28T17:09:30Z</time></trkpt><trkpt lat="42.62601877776467" lon="12.098339362876107"><ele>481.99999999999994</ele><time>2026-04-28T17:09:31Z</time></trkpt><trkpt lat="42.626001071911084" lon="12.098456288879598"><ele>482.0</ele><time>2026-04-28T17:09:32Z</time></trkpt><trkpt lat="42.62599175194836" lon="12.098555092639158"><ele>482.0</ele><time>2026-04-28T17:09:33Z</time></trkpt><trkpt lat="42.62597801904438" lon="12.098646716031636"><ele>482.0</ele><time>2026-04-28T17:09:34Z</time></trkpt><trkpt lat="42.62596549762169" lon="12.098732022742624"><ele>481.99999999999994</ele><time>2026-04-28T17:09:35Z</time></trkpt><trkpt lat="42.62594048049323" lon="12.098873378419132"><ele>482.0</ele><time>2026-04-28T17:09:37Z</time></trkpt><trkpt lat="42.625927311467706" lon="12.098963220210512"><ele>481.99999999999994</ele><time>2026-04-28T17:09:40Z</time></trkpt><trkpt lat="42.62599952471417" lon="12.098931430049243"><ele>482.0</ele><time>2026-04-28T17:12:04Z</time></trkpt><trkpt lat="42.62602536276591" lon="12.09883821225831"><ele>482.0</ele><time>2026-04-28T17:12:08Z</time></trkpt><trkpt lat="42.62601411935941" lon="12.098923438884839"><ele>482.0</ele><time>2026-04-28T17:12:41Z</time></trkpt><trkpt lat="42.625956411391485" lon="12.098992973757744"><ele>481.99999999999994</ele><time>2026-04-28T17:12:50Z</time></trkpt><trkpt lat="42.625894392738495" lon="12.099165069076806"><ele>482.0</ele><time>2026-04-28T17:12:52Z</time></trkpt><trkpt lat="42.62585084558746" lon="12.099293364103602"><ele>482.0</ele><time>2026-04-28T17:12:54Z</time></trkpt><trkpt lat="42.62585051984626" lon="12.09942810170089"><ele>482.0</ele><time>2026-04-28T17:12:57Z</time></trkpt><trkpt lat="42.625845816116225" lon="12.099562367342338"><ele>482.0</ele><time>2026-04-28T17:13:00Z</time></trkpt><trkpt lat="42.62583952797183" lon="12.099768955878753"><ele>482.0</ele><time>2026-04-28T17:13:01Z</time></trkpt><trkpt lat="42.62584863269967" lon="12.099943071929651"><ele>480.75</ele><time>2026-04-28T17:13:02Z</time></trkpt><trkpt lat="42.62582541310765" lon="12.100152461518714"><ele>479.5</ele><time>2026-04-28T17:13:03Z</time></trkpt><trkpt lat="42.62579053828781" lon="12.100309462400833"><ele>478.25</ele><time>2026-04-28T17:13:04Z</time></trkpt><trkpt lat="42.62581669002294" lon="12.100430276142827"><ele>477.0</ele><time>2026-04-28T17:13:07Z</time></trkpt><trkpt lat="42.625787644578224" lon="12.100739981924372"><ele>477.0</ele><time>2026-04-28T17:13:08Z</time></trkpt><trkpt lat="42.625780170518894" lon="12.10086802837699"><ele>477.0</ele><time>2026-04-28T17:13:56Z</time></trkpt><trkpt lat="42.625784671133935" lon="12.1009586998467"><ele>477.0</ele><time>2026-04-28T17:13:58Z</time></trkpt><trkpt lat="42.625766294676595" lon="12.101105748810179"><ele>477.0</ele><time>2026-04-28T17:13:59Z</time></trkpt><trkpt lat="42.62576042720834" lon="12.101233244887627"><ele>477.0</ele><time>2026-04-28T17:14:00Z</time></trkpt><trkpt lat="42.62575635557912" lon="12.10134152230882"><ele>477.0</ele><time>2026-04-28T17:14:01Z</time></trkpt><trkpt lat="42.625752007604014" lon="12.101457144109094"><ele>477.20000000000005</ele><time>2026-04-28T17:14:02Z</time></trkpt><trkpt lat="42.625761894872284" lon="12.101597912552936"><ele>477.40000000000003</ele><time>2026-04-28T17:14:03Z</time></trkpt><trkpt lat="42.625752568036134" lon="12.101722984633232"><ele>477.59999999999997</ele><time>2026-04-28T17:14:04Z</time></trkpt><trkpt lat="42.625752618795914" lon="12.101830902627471"><ele>477.79999999999995</ele><time>2026-04-28T17:14:05Z</time></trkpt><trkpt lat="42.62573755541937" lon="12.10194626924792"><ele>478.0</ele><time>2026-04-28T17:14:06Z</time></trkpt><trkpt lat="42.62574706009516" lon="12.10209157031491"><ele>478.0</ele><time>2026-04-28T17:14:07Z</time></trkpt><trkpt lat="42.62573998391476" lon="12.102246582499452"><ele>477.99999999999994</ele><time>2026-04-28T17:14:08Z</time></trkpt><trkpt lat="42.62572894071054" lon="12.10240198391337"><ele>477.99999999999994</ele><time>2026-04-28T17:14:09Z</time></trkpt><trkpt lat="42.625727647386746" lon="12.102544877548072"><ele>478.0</ele><time>2026-04-28T17:14:10Z</time></trkpt><trkpt lat="42.62572764738426" lon="12.102684615956933"><ele>478.0</ele><time>2026-04-28T17:14:11Z</time></trkpt><trkpt lat="42.62572830865264" lon="12.10282148215161"><ele>478.0</ele><time>2026-04-28T17:14:12Z</time></trkpt><trkpt lat="42.625730453452434" lon="12.102942196637732"><ele>477.99999999999994</ele><time>2026-04-28T17:14:13Z</time></trkpt><trkpt lat="42.625733917990296" lon="12.1030782175532"><ele>477.99999999999994</ele><time>2026-04-28T17:14:14Z</time></trkpt><trkpt lat="42.6257386534248" lon="12.103216712990962"><ele>478.0</ele><time>2026-04-28T17:14:15Z</time></trkpt><trkpt lat="42.625746781512575" lon="12.10338486542947"><ele>478.0</ele><time>2026-04-28T17:14:16Z</time></trkpt><trkpt lat="42.625758056097034" lon="12.103554838847252"><ele>476.0</ele><time>2026-04-28T17:14:17Z</time></trkpt><trkpt lat="42.62577059628033" lon="12.103732942061905"><ele>474.0</ele><time>2026-04-28T17:14:18Z</time></trkpt><trkpt lat="42.62578239793684" lon="12.103916117580026"><ele>472.0</ele><time>2026-04-28T17:14:19Z</time></trkpt><trkpt lat="42.625791085290004" lon="12.104098287596061"><ele>470.0</ele><time>2026-04-28T17:14:20Z</time></trkpt><trkpt lat="42.62579909807333" lon="12.104266312116444"><ele>469.75</ele><time>2026-04-28T17:14:21Z</time></trkpt><trkpt lat="42.62580646300859" lon="12.10442627947182"><ele>469.5</ele><time>2026-04-28T17:14:22Z</time></trkpt><trkpt lat="42.62581332860446" lon="12.104580103273246"><ele>469.25</ele><time>2026-04-28T17:14:23Z</time></trkpt><trkpt lat="42.62581898647586" lon="12.104734682269177"><ele>469.0</ele><time>2026-04-28T17:14:24Z</time></trkpt><trkpt lat="42.62582529487522" lon="12.10490892368763"><ele>467.79999999999995</ele><time>2026-04-28T17:14:25Z</time></trkpt><trkpt lat="42.625831346685345" lon="12.105080519141968"><ele>466.59999999999997</ele><time>2026-04-28T17:14:26Z</time></trkpt><trkpt lat="42.62583471799887" lon="12.105225178626219"><ele>465.4</ele><time>2026-04-28T17:14:27Z</time></trkpt><trkpt lat="42.62583793671162" lon="12.105363474572934"><ele>464.2</ele><time>2026-04-28T17:14:28Z</time></trkpt><trkpt lat="42.62584051698882" lon="12.105474338689739"><ele>463.0</ele><time>2026-04-28T17:14:29Z</time></trkpt><trkpt lat="42.62584277476338" lon="12.105571346581009"><ele>463.0</ele><time>2026-04-28T17:14:30Z</time></trkpt><trkpt lat="42.62585551181332" lon="12.105682704671972"><ele>462.99999999999994</ele><time>2026-04-28T17:14:31Z</time></trkpt><trkpt lat="42.62584101291875" lon="12.105781491598709"><ele>463.0</ele><time>2026-04-28T17:14:33Z</time></trkpt><trkpt lat="42.62578142980092" lon="12.105749026515106"><ele>463.0</ele><time>2026-04-28T17:14:36Z</time></trkpt><trkpt lat="42.62584952596544" lon="12.105747082332421"><ele>462.99999999999994</ele><time>2026-04-28T17:14:43Z</time></trkpt><trkpt lat="42.62584037711372" lon="12.105839472360397"><ele>463.0</ele><time>2026-04-28T17:14:45Z</time></trkpt><trkpt lat="42.625847454381365" lon="12.105932098505516"><ele>463.0</ele><time>2026-04-28T17:15:01Z</time></trkpt><trkpt lat="42.62583047467018" lon="12.10584123538931"><ele>463.0</ele><time>2026-04-28T17:17:48Z</time></trkpt><trkpt lat="42.62584528189698" lon="12.105696886142836"><ele>462.99999999999994</ele><time>2026-04-28T17:17:51Z</time></trkpt><trkpt lat="42.62585952873257" lon="12.105526255976377"><ele>462.99999999999994</ele><time>2026-04-28T17:17:53Z</time></trkpt><trkpt lat="42.625864452310815" lon="12.105439631879355"><ele>463.0</ele><time>2026-04-28T17:17:54Z</time></trkpt><trkpt lat="42.625869324830106" lon="12.1052999987204"><ele>463.0</ele><time>2026-04-28T17:17:56Z</time></trkpt><trkpt lat="42.62586110468087" lon="12.105203150662515"><ele>463.00000000000006</ele><time>2026-04-28T17:17:58Z</time></trkpt><trkpt lat="42.62586841131592" lon="12.105103530382818"><ele>463.0</ele><time>2026-04-28T17:18:01Z</time></trkpt><trkpt lat="42.62585587706374" lon="12.104983714297099"><ele>463.0</ele><time>2026-04-28T17:18:23Z</time></trkpt><trkpt lat="42.62585536365242" lon="12.104884101217463"><ele>463.0</ele><time>2026-04-28T17:18:24Z</time></trkpt><trkpt lat="42.625849931005796" lon="12.104777280941457"><ele>463.00000000000006</ele><time>2026-04-28T17:18:25Z</time></trkpt><trkpt lat="42.625846931342124" lon="12.104653008274463"><ele>463.0</ele><time>2026-04-28T17:18:26Z</time></trkpt><trkpt lat="42.62584546947647" lon="12.104556869165975"><ele>464.2</ele><time>2026-04-28T17:18:27Z</time></trkpt><trkpt lat="42.625838841349825" lon="12.104397314334868"><ele>465.4</ele><time>2026-04-28T17:18:29Z</time></trkpt><trkpt lat="42.62582164727656" lon="12.104290879730517"><ele>466.59999999999997</ele><time>2026-04-28T17:18:31Z</time></trkpt><trkpt lat="42.62571383434755" lon="12.104265004621682"><ele>467.79999999999995</ele><time>2026-04-28T17:18:35Z</time></trkpt><trkpt lat="42.625642054865445" lon="12.104303015021154"><ele>469.0</ele><time>2026-04-28T17:18:54Z</time></trkpt><trkpt lat="42.62571554586805" lon="12.104307338294488"><ele>469.0</ele><time>2026-04-28T17:18:59Z</time></trkpt><trkpt lat="42.62578082871291" lon="12.104330891468567"><ele>469.0</ele><time>2026-04-28T17:19:01Z</time></trkpt><trkpt lat="42.62573224395702" lon="12.104404769548905"><ele>469.0</ele><time>2026-04-28T17:19:03Z</time></trkpt><trkpt lat="42.62563217610779" lon="12.104541383666492"><ele>469.0</ele><time>2026-04-28T17:19:05Z</time></trkpt><trkpt lat="42.62546308930409" lon="12.105015884159263"><ele>467.5</ele><time>2026-04-28T17:19:06Z</time></trkpt><trkpt lat="42.62548293972227" lon="12.105174613309908"><ele>466.0</ele><time>2026-04-28T17:19:07Z</time></trkpt><trkpt lat="42.625501132138375" lon="12.10532007271399"><ele>464.5</ele><time>2026-04-28T17:19:08Z</time></trkpt><trkpt lat="42.62551771573512" lon="12.105452668626958"><ele>463.0</ele><time>2026-04-28T17:19:09Z</time></trkpt><trkpt lat="42.62585705090899" lon="12.105483564078865"><ele>463.0</ele><time>2026-04-28T17:19:10Z</time></trkpt><trkpt lat="42.6258318275873" lon="12.105588542455296"><ele>462.99999999999994</ele><time>2026-04-28T17:19:12Z</time></trkpt><trkpt lat="42.625728415814706" lon="12.105613461868046"><ele>462.99999999999994</ele><time>2026-04-28T17:19:14Z</time></trkpt><trkpt lat="42.62565346403324" lon="12.105584500027803"><ele>463.0</ele><time>2026-04-28T17:19:15Z</time></trkpt><trkpt lat="42.62555835764045" lon="12.105631198348942"><ele>463.0</ele><time>2026-04-28T17:19:17Z</time></trkpt><trkpt lat="42.62556061403286" lon="12.105766839866398"><ele>460.79999999999995</ele><time>2026-04-28T17:19:19Z</time></trkpt><trkpt lat="42.62565124609674" lon="12.105781917554147"><ele>458.59999999999997</ele><time>2026-04-28T17:19:20Z</time></trkpt><trkpt lat="42.62573765382216" lon="12.105795384227157"><ele>456.40000000000003</ele><time>2026-04-28T17:19:22Z</time></trkpt><trkpt lat="42.62580227422509" lon="12.10579353925562"><ele>454.20000000000005</ele><time>2026-04-28T17:19:46Z</time></trkpt><trkpt lat="42.62582916347052" lon="12.105966867759438"><ele>452.0</ele><time>2026-04-28T17:19:59Z</time></trkpt><trkpt lat="42.62572589231979" lon="12.106158135160731"><ele>452.0</ele><time>2026-04-28T17:20:22Z</time></trkpt><trkpt lat="42.62572496373248" lon="12.106252816536369"><ele>452.0</ele><time>2026-04-28T17:20:28Z</time></trkpt><trkpt lat="42.62571985892907" lon="12.106343263084321"><ele>452.0</ele><time>2026-04-28T17:20:35Z</time></trkpt><trkpt lat="42.62572091028028" lon="12.106430144263571"><ele>452.0</ele><time>2026-04-28T17:20:41Z</time></trkpt><trkpt lat="42.6257201863223" lon="12.106519254195621"><ele>452.0</ele><time>2026-04-28T17:20:48Z</time></trkpt><trkpt lat="42.62571123339766" lon="12.106610732610692"><ele>452.0</ele><time>2026-04-28T17:20:54Z</time></trkpt><trkpt lat="42.62570202150411" lon="12.106697088710732"><ele>452.0</ele><time>2026-04-28T17:21:00Z</time></trkpt><trkpt lat="42.625691600035225" lon="12.106788253829526"><ele>450.2857142857143</ele><time>2026-04-28T17:21:06Z</time></trkpt><trkpt lat="42.625664695113315" lon="12.106866350190218"><ele>448.57142857142856</ele><time>2026-04-28T17:21:13Z</time></trkpt><trkpt lat="42.6256979578191" lon="12.106952494924336"><ele>446.85714285714283</ele><time>2026-04-28T17:23:58Z</time></trkpt><trkpt lat="42.62565435052216" lon="12.106890179925683"><ele>445.1428571428571</ele><time>2026-04-28T17:24:59Z</time></trkpt><trkpt lat="42.62571972170354" lon="12.106901217452004"><ele>443.42857142857144</ele><time>2026-04-28T17:25:10Z</time></trkpt><trkpt lat="42.62570776187616" lon="12.106813483306498"><ele>441.71428571428567</ele><time>2026-04-28T17:27:02.998Z</time></trkpt><trkpt lat="42.625706824814635" lon="12.106721245645526"><ele>440.0</ele><time>2026-04-28T17:27:10.998Z</time></trkpt><trkpt lat="42.62571221289597" lon="12.106630667848062"><ele>439.99999999999994</ele><time>2026-04-28T17:27:18.998Z</time></trkpt><trkpt lat="42.625652497068245" lon="12.106590203989544"><ele>440.0</ele><time>2026-04-28T17:28:47Z</time></trkpt><trkpt lat="42.62570305335548" lon="12.106467028911714"><ele>440.0</ele><time>2026-04-28T17:29:03Z</time></trkpt><trkpt lat="42.625712388991175" lon="12.106369127915539"><ele>440.0</ele><time>2026-04-28T17:29:08Z</time></trkpt><trkpt lat="42.62572385250896" lon="12.106272706434437"><ele>440.0</ele><time>2026-04-28T17:29:14Z</time></trkpt><trkpt lat="42.625722181264955" lon="12.106183492701408"><ele>439.99999999999994</ele><time>2026-04-28T17:29:20Z</time></trkpt><trkpt lat="42.625733367988545" lon="12.106098800860101"><ele>440.0</ele><time>2026-04-28T17:29:25Z</time></trkpt><trkpt lat="42.625773712525834" lon="12.106025215933245"><ele>441.71428571428567</ele><time>2026-04-28T17:29:31Z</time></trkpt><trkpt lat="42.625839350954934" lon="12.10598509123999"><ele>443.42857142857144</ele><time>2026-04-28T17:29:37Z</time></trkpt><trkpt lat="42.62582930696389" lon="12.105897761619733"><ele>445.1428571428571</ele><time>2026-04-28T17:29:59Z</time></trkpt><trkpt lat="42.62579668305722" lon="12.105813210211469"><ele>446.85714285714283</ele><time>2026-04-28T17:30:15Z</time></trkpt><trkpt lat="42.625860418651556" lon="12.105792289217042"><ele>448.57142857142856</ele><time>2026-04-28T17:30:56Z</time></trkpt><trkpt lat="42.62587428434035" lon="12.105677729793575"><ele>450.2857142857143</ele><time>2026-04-28T17:30:58Z</time></trkpt><trkpt lat="42.62586184499738" lon="12.105585841380806"><ele>452.0</ele><time>2026-04-28T17:32:30Z</time></trkpt><trkpt lat="42.625862546400946" lon="12.105498628420271"><ele>453.8333333333333</ele><time>2026-04-28T17:32:31Z</time></trkpt><trkpt lat="42.6258643835447" lon="12.105397992276725"><ele>455.66666666666663</ele><time>2026-04-28T17:32:32Z</time></trkpt><trkpt lat="42.625861584871465" lon="12.105297899392038"><ele>457.5</ele><time>2026-04-28T17:32:33Z</time></trkpt><trkpt lat="42.62585411049257" lon="12.105201130941047"><ele>459.33333333333337</ele><time>2026-04-28T17:32:34Z</time></trkpt><trkpt lat="42.62586024519742" lon="12.105088640801855"><ele>461.1666666666667</ele><time>2026-04-28T17:32:35Z</time></trkpt><trkpt lat="42.62585861014395" lon="12.104993664628267"><ele>463.0</ele><time>2026-04-28T17:32:36Z</time></trkpt><trkpt lat="42.62585413632045" lon="12.104817137985927"><ele>464.2</ele><time>2026-04-28T17:32:38Z</time></trkpt><trkpt lat="42.62585069182682" lon="12.104724241139603"><ele>465.4</ele><time>2026-04-28T17:32:39Z</time></trkpt><trkpt lat="42.62584373759982" lon="12.104612241992122"><ele>466.59999999999997</ele><time>2026-04-28T17:32:40Z</time></trkpt><trkpt lat="42.62583467078594" lon="12.104476820754636"><ele>467.79999999999995</ele><time>2026-04-28T17:32:41Z</time></trkpt><trkpt lat="42.62582822812172" lon="12.104315019041787"><ele>469.0</ele><time>2026-04-28T17:32:42Z</time></trkpt><trkpt lat="42.62582371724294" lon="12.104127860624068"><ele>469.33333333333337</ele><time>2026-04-28T17:32:43Z</time></trkpt><trkpt lat="42.62581633844276" lon="12.103914412239012"><ele>469.66666666666663</ele><time>2026-04-28T17:32:44Z</time></trkpt><trkpt lat="42.62581004849245" lon="12.10369882630627"><ele>470.0</ele><time>2026-04-28T17:32:45Z</time></trkpt><trkpt lat="42.62579728099133" lon="12.103471598042667"><ele>472.66666666666663</ele><time>2026-04-28T17:32:46Z</time></trkpt><trkpt lat="42.62578632163728" lon="12.103230351759148"><ele>475.33333333333337</ele><time>2026-04-28T17:32:47Z</time></trkpt><trkpt lat="42.62577560717497" lon="12.103017971951312"><ele>478.0</ele><time>2026-04-28T17:32:48Z</time></trkpt><trkpt lat="42.62576521756131" lon="12.102824390405077"><ele>478.0</ele><time>2026-04-28T17:32:49Z</time></trkpt><trkpt lat="42.62576094111394" lon="12.102654161012804"><ele>477.99999999999994</ele><time>2026-04-28T17:32:50Z</time></trkpt><trkpt lat="42.62575999272083" lon="12.102526483364658"><ele>477.99999999999994</ele><time>2026-04-28T17:32:51Z</time></trkpt><trkpt lat="42.6257572687812" lon="12.10237282384478"><ele>478.0</ele><time>2026-04-28T17:32:52Z</time></trkpt><trkpt lat="42.625763341281214" lon="12.10221842864894"><ele>478.0</ele><time>2026-04-28T17:32:53Z</time></trkpt><trkpt lat="42.62576502658862" lon="12.102048876534596"><ele>478.0</ele><time>2026-04-28T17:32:54Z</time></trkpt><trkpt lat="42.62576646293594" lon="12.101890964852382"><ele>478.0</ele><time>2026-04-28T17:32:55Z</time></trkpt><trkpt lat="42.62576759508989" lon="12.101723452436364"><ele>478.0</ele><time>2026-04-28T17:32:56Z</time></trkpt><trkpt lat="42.6257721194074" lon="12.101549125697469"><ele>478.0</ele><time>2026-04-28T17:32:57Z</time></trkpt><trkpt lat="42.625776860433454" lon="12.10138171850599"><ele>477.75</ele><time>2026-04-28T17:32:58Z</time></trkpt><trkpt lat="42.62578158631166" lon="12.10120211305228"><ele>477.5</ele><time>2026-04-28T17:32:59Z</time></trkpt><trkpt lat="42.62579051596754" lon="12.101020762954088"><ele>477.25</ele><time>2026-04-28T17:33:00Z</time></trkpt><trkpt lat="42.625807299746064" lon="12.100848543980533"><ele>477.0</ele><time>2026-04-28T17:33:01Z</time></trkpt><trkpt lat="42.625817822829596" lon="12.10067299347854"><ele>477.0</ele><time>2026-04-28T17:33:02Z</time></trkpt><trkpt lat="42.625824404187185" lon="12.100488872835092"><ele>477.0</ele><time>2026-04-28T17:33:03Z</time></trkpt><trkpt lat="42.62583730048194" lon="12.100298931972898"><ele>477.0</ele><time>2026-04-28T17:33:04Z</time></trkpt><trkpt lat="42.62584834497433" lon="12.100114306844462"><ele>477.0</ele><time>2026-04-28T17:33:05Z</time></trkpt><trkpt lat="42.625855366735465" lon="12.099945313684536"><ele>478.0</ele><time>2026-04-28T17:33:06Z</time></trkpt><trkpt lat="42.62587154558117" lon="12.09979103328847"><ele>479.00000000000006</ele><time>2026-04-28T17:33:07Z</time></trkpt><trkpt lat="42.625879421029005" lon="12.099645346493416"><ele>480.00000000000006</ele><time>2026-04-28T17:33:08Z</time></trkpt><trkpt lat="42.62588262517111" lon="12.099494548132569"><ele>481.0</ele><time>2026-04-28T17:33:09Z</time></trkpt><trkpt lat="42.625886379129376" lon="12.09935105821483"><ele>482.0</ele><time>2026-04-28T17:33:10Z</time></trkpt><trkpt lat="42.62590396574634" lon="12.099220078049102"><ele>482.0</ele><time>2026-04-28T17:33:11Z</time></trkpt><trkpt lat="42.62592878279005" lon="12.09908163927686"><ele>482.00000000000006</ele><time>2026-04-28T17:33:12Z</time></trkpt><trkpt lat="42.62595519181005" lon="12.09895533008116"><ele>482.00000000000006</ele><time>2026-04-28T17:33:13Z</time></trkpt><trkpt lat="42.62596846932478" lon="12.098827923069745"><ele>482.0</ele><time>2026-04-28T17:33:14Z</time></trkpt><trkpt lat="42.6259858882968" lon="12.098715844689332"><ele>482.0</ele><time>2026-04-28T17:33:15Z</time></trkpt><trkpt lat="42.626001471098924" lon="12.098617637979634"><ele>481.99999999999994</ele><time>2026-04-28T17:33:16Z</time></trkpt><trkpt lat="42.62601861188699" lon="12.098499379675816"><ele>482.0</ele><time>2026-04-28T17:33:18Z</time></trkpt><trkpt lat="42.62604608267133" lon="12.0984172796728"><ele>482.0</ele><time>2026-04-28T17:33:49Z</time></trkpt><trkpt lat="42.62616565592066" lon="12.098387689822701"><ele>482.0</ele><time>2026-04-28T17:33:52Z</time></trkpt><trkpt lat="42.62623473264809" lon="12.098392338843045"><ele>481.99999999999994</ele><time>2026-04-28T17:33:53Z</time></trkpt><trkpt lat="42.62630606628625" lon="12.098379269288202"><ele>482.0</ele><time>2026-04-28T17:33:55Z</time></trkpt><trkpt lat="42.626367737860306" lon="12.098333875481785"><ele>481.66666666666663</ele><time>2026-04-28T17:33:57Z</time></trkpt><trkpt lat="42.62642030936782" lon="12.098275439322494"><ele>481.3333333333333</ele><time>2026-04-28T17:33:58Z</time></trkpt><trkpt lat="42.62647492364195" lon="12.098221836793574"><ele>481.0</ele><time>2026-04-28T17:33:59Z</time></trkpt><trkpt lat="42.626538253996934" lon="12.098168152629563"><ele>480.66666666666663</ele><time>2026-04-28T17:34:00Z</time></trkpt><trkpt lat="42.626593459639935" lon="12.098121349266364"><ele>480.3333333333333</ele><time>2026-04-28T17:34:01Z</time></trkpt><trkpt lat="42.62669111293346" lon="12.098043172768794"><ele>480.0</ele><time>2026-04-28T17:34:03Z</time></trkpt><trkpt lat="42.6267684555651" lon="12.09794394480511"><ele>480.0</ele><time>2026-04-28T17:34:05Z</time></trkpt><trkpt lat="42.62679869704136" lon="12.097776316666762"><ele>480.0</ele><time>2026-04-28T17:34:07Z</time></trkpt><trkpt lat="42.626819320037264" lon="12.097672847278927"><ele>480.0</ele><time>2026-04-28T17:34:08Z</time></trkpt><trkpt lat="42.626848836365845" lon="12.097573667117588"><ele>480.0</ele><time>2026-04-28T17:34:09Z</time></trkpt><trkpt lat="42.626868321019884" lon="12.097476625145614"><ele>480.0</ele><time>2026-04-28T17:34:10Z</time></trkpt><trkpt lat="42.626885402878145" lon="12.09737182905881"><ele>480.0</ele><time>2026-04-28T17:34:11Z</time></trkpt><trkpt lat="42.626901245983106" lon="12.097279373072926"><ele>480.3333333333333</ele><time>2026-04-28T17:34:12Z</time></trkpt><trkpt lat="42.6269232506849" lon="12.097178774321112"><ele>480.66666666666663</ele><time>2026-04-28T17:34:13Z</time></trkpt><trkpt lat="42.62694359305146" lon="12.097082684737718"><ele>481.0</ele><time>2026-04-28T17:34:14Z</time></trkpt><trkpt lat="42.62696955264836" lon="12.096984181678971"><ele>481.3333333333333</ele><time>2026-04-28T17:34:15Z</time></trkpt><trkpt lat="42.62699741587277" lon="12.096888101351185"><ele>481.66666666666663</ele><time>2026-04-28T17:34:16Z</time></trkpt><trkpt lat="42.627034552806386" lon="12.096791399711277"><ele>482.0</ele><time>2026-04-28T17:34:17Z</time></trkpt><trkpt lat="42.62707776658553" lon="12.096689330185102"><ele>481.16666666666663</ele><time>2026-04-28T17:34:18Z</time></trkpt><trkpt lat="42.62712138046816" lon="12.096589154100299"><ele>480.3333333333333</ele><time>2026-04-28T17:34:19Z</time></trkpt><trkpt lat="42.627159697876905" lon="12.096493950301127"><ele>479.5</ele><time>2026-04-28T17:34:20Z</time></trkpt><trkpt lat="42.62719222071852" lon="12.096410891015845"><ele>478.66666666666663</ele><time>2026-04-28T17:34:21Z</time></trkpt><trkpt lat="42.627241198278455" lon="12.096275604511158"><ele>477.8333333333333</ele><time>2026-04-28T17:34:23Z</time></trkpt><trkpt lat="42.627276843733014" lon="12.09618113675388"><ele>477.0</ele><time>2026-04-28T17:34:25Z</time></trkpt><trkpt lat="42.627218520460076" lon="12.096305783534424"><ele>477.0</ele><time>2026-04-28T17:34:43Z</time></trkpt><trkpt lat="42.62727926002209" lon="12.096280128039304"><ele>476.99999999999994</ele><time>2026-04-28T17:35:39Z</time></trkpt><trkpt lat="42.627317330848946" lon="12.09619876937282"><ele>477.0</ele><time>2026-04-28T17:35:45Z</time></trkpt><trkpt lat="42.627372201148965" lon="12.096243650619694"><ele>477.0</ele><time>2026-04-28T17:35:56Z</time></trkpt><trkpt lat="42.627314507014646" lon="12.096187983249184"><ele>476.99999999999994</ele><time>2026-04-28T17:36:12Z</time></trkpt><trkpt lat="42.6272564424099" lon="12.096240369850559"><ele>477.0</ele><time>2026-04-28T17:36:33Z</time></trkpt><trkpt lat="42.627209312786476" lon="12.096297438892073"><ele>477.0</ele><time>2026-04-28T17:36:44Z</time></trkpt><trkpt lat="42.62727074700917" lon="12.09626187347434"><ele>477.0</ele><time>2026-04-28T17:36:56Z</time></trkpt><trkpt lat="42.62721797905079" lon="12.096315349724332"><ele>476.99999999999994</ele><time>2026-04-28T17:37:48Z</time></trkpt><trkpt lat="42.62719561293591" lon="12.096396689969886"><ele>477.0</ele><time>2026-04-28T17:37:51Z</time></trkpt><trkpt lat="42.627152503053686" lon="12.096470406984928"><ele>477.0</ele><time>2026-04-28T17:37:54Z</time></trkpt><trkpt lat="42.62721658652546" lon="12.096454108967274"><ele>476.99999999999994</ele><time>2026-04-28T17:46:23Z</time></trkpt><trkpt lat="42.62724899911115" lon="12.096369282055829"><ele>477.0</ele><time>2026-04-28T17:46:37Z</time></trkpt><trkpt lat="42.62719171750993" lon="12.096462398452323"><ele>477.0</ele><time>2026-04-28T17:51:29.021Z</time></trkpt><trkpt lat="42.62723776733349" lon="12.096332059529882"><ele>477.0</ele><time>2026-04-28T17:51:33.02Z</time></trkpt><trkpt lat="42.62729632334108" lon="12.096292211224235"><ele>477.0</ele><time>2026-04-28T17:55:05Z</time></trkpt><trkpt lat="42.62724770890643" lon="12.096213438787787"><ele>477.0</ele><time>2026-04-28T17:56:09Z</time></trkpt><trkpt lat="42.627289640721166" lon="12.096148488538649"><ele>477.0</ele><time>2026-04-28T17:56:42.066Z</time></trkpt><trkpt lat="42.627315509400376" lon="12.096048792084023"><ele>477.0</ele><time>2026-04-28T17:56:48.07Z</time></trkpt><trkpt lat="42.62738259195956" lon="12.096016841561578"><ele>477.0</ele><time>2026-04-28T17:56:49.073Z</time></trkpt><trkpt lat="42.627400666731994" lon="12.096298269145107"><ele>477.0</ele><time>2026-04-28T17:57:07.064Z</time></trkpt><trkpt lat="42.62728916956144" lon="12.096267355956252"><ele>477.00000000000006</ele><time>2026-04-28T17:57:19.034Z</time></trkpt><trkpt lat="42.62721914440594" lon="12.096309615679024"><ele>477.00000000000006</ele><time>2026-04-28T17:58:08.012Z</time></trkpt><trkpt lat="42.627190073057754" lon="12.096391743233537"><ele>477.0</ele><time>2026-04-28T17:58:54Z</time></trkpt><trkpt lat="42.62725947835515" lon="12.096296054289493"><ele>477.0</ele><time>2026-04-28T17:59:53Z</time></trkpt><trkpt lat="42.627360543168315" lon="12.096169781089914"><ele>477.0</ele><time>2026-04-28T17:59:55Z</time></trkpt><trkpt lat="42.62737969630297" lon="12.096033117004977"><ele>477.0</ele><time>2026-04-28T17:59:57Z</time></trkpt><trkpt lat="42.627342426813385" lon="12.095949144247228"><ele>477.0</ele><time>2026-04-28T17:59:58Z</time></trkpt><trkpt lat="42.62735006535908" lon="12.095846691049251"><ele>477.0</ele><time>2026-04-28T17:59:59Z</time></trkpt><trkpt lat="42.627353729340975" lon="12.095746071523381"><ele>477.0</ele><time>2026-04-28T18:00:00Z</time></trkpt><trkpt lat="42.62735798002033" lon="12.095638467279596"><ele>477.0</ele><time>2026-04-28T18:00:01Z</time></trkpt><trkpt lat="42.62735954686979" lon="12.09553018917015"><ele>476.8333333333333</ele><time>2026-04-28T18:00:02Z</time></trkpt><trkpt lat="42.62736010522214" lon="12.095414889249767"><ele>476.66666666666663</ele><time>2026-04-28T18:00:03Z</time></trkpt><trkpt lat="42.62735818070055" lon="12.095315681549252"><ele>476.5</ele><time>2026-04-28T18:00:04Z</time></trkpt><trkpt lat="42.62734720864434" lon="12.095219336591857"><ele>476.3333333333333</ele><time>2026-04-28T18:00:05Z</time></trkpt><trkpt lat="42.62733113369244" lon="12.095128467955012"><ele>476.16666666666663</ele><time>2026-04-28T18:00:06Z</time></trkpt><trkpt lat="42.627306932036156" lon="12.09503261814815"><ele>476.0</ele><time>2026-04-28T18:00:07Z</time></trkpt><trkpt lat="42.62724679086331" lon="12.094883650090168"><ele>475.16666666666663</ele><time>2026-04-28T18:00:09Z</time></trkpt><trkpt lat="42.627205503010565" lon="12.094812195081232"><ele>474.3333333333333</ele><time>2026-04-28T18:00:10Z</time></trkpt><trkpt lat="42.62715383605498" lon="12.094736793667932"><ele>473.5</ele><time>2026-04-28T18:00:11Z</time></trkpt><trkpt lat="42.62711138159063" lon="12.0946552391433"><ele>472.66666666666663</ele><time>2026-04-28T18:00:12Z</time></trkpt><trkpt lat="42.627097149293725" lon="12.094546044811084"><ele>471.8333333333333</ele><time>2026-04-28T18:00:13Z</time></trkpt><trkpt lat="42.62706089414413" lon="12.094456788962866"><ele>471.0</ele><time>2026-04-28T18:00:14Z</time></trkpt><trkpt lat="42.62703664569665" lon="12.094319473047541"><ele>471.0</ele><time>2026-04-28T18:00:16Z</time></trkpt><trkpt lat="42.62701983296865" lon="12.09422412852248"><ele>471.0</ele><time>2026-04-28T18:00:18Z</time></trkpt><trkpt lat="42.62709798429642" lon="12.09415765547665"><ele>471.0</ele><time>2026-04-28T18:00:20Z</time></trkpt><trkpt lat="42.62716280302486" lon="12.094130920359094"><ele>471.0</ele><time>2026-04-28T18:00:21Z</time></trkpt><trkpt lat="42.627230739152964" lon="12.094088026690171"><ele>471.0</ele><time>2026-04-28T18:00:22Z</time></trkpt><trkpt lat="42.62730164917627" lon="12.094043332667892"><ele>471.0</ele><time>2026-04-28T18:00:23Z</time></trkpt><trkpt lat="42.62737401007471" lon="12.09399628607742"><ele>471.8333333333333</ele><time>2026-04-28T18:00:24Z</time></trkpt><trkpt lat="42.627444507953875" lon="12.09394894038993"><ele>472.66666666666663</ele><time>2026-04-28T18:00:25Z</time></trkpt><trkpt lat="42.62751120760335" lon="12.093907294632398"><ele>473.5</ele><time>2026-04-28T18:00:26Z</time></trkpt><trkpt lat="42.62757299274127" lon="12.093867123029657"><ele>474.3333333333333</ele><time>2026-04-28T18:00:27Z</time></trkpt><trkpt lat="42.627657521446466" lon="12.093793241852655"><ele>475.16666666666663</ele><time>2026-04-28T18:00:29Z</time></trkpt><trkpt lat="42.62771232573843" lon="12.093734034494304"><ele>476.0</ele><time>2026-04-28T18:00:33Z</time></trkpt><trkpt lat="42.62771591559242" lon="12.093544692968946"><ele>476.0</ele><time>2026-04-28T18:00:36Z</time></trkpt><trkpt lat="42.62768688270181" lon="12.093368843310028"><ele>476.0</ele><time>2026-04-28T18:00:38Z</time></trkpt><trkpt lat="42.62767752283799" lon="12.093258870898984"><ele>476.0</ele><time>2026-04-28T18:00:39Z</time></trkpt><trkpt lat="42.62767425985927" lon="12.093144505678811"><ele>476.0</ele><time>2026-04-28T18:00:40Z</time></trkpt><trkpt lat="42.627678755462576" lon="12.093032883331132"><ele>476.0</ele><time>2026-04-28T18:00:41Z</time></trkpt><trkpt lat="42.62768332627525" lon="12.092931433303326"><ele>476.3333333333333</ele><time>2026-04-28T18:00:42Z</time></trkpt><trkpt lat="42.62768817500525" lon="12.092832619781932"><ele>476.66666666666663</ele><time>2026-04-28T18:00:42.999Z</time></trkpt><trkpt lat="42.62769039650372" lon="12.092737465326385"><ele>477.0</ele><time>2026-04-28T18:00:43.999Z</time></trkpt><trkpt lat="42.62769219812621" lon="12.092642513496552"><ele>477.33333333333337</ele><time>2026-04-28T18:00:44.999Z</time></trkpt><trkpt lat="42.62769702418673" lon="12.092550642524017"><ele>477.6666666666667</ele><time>2026-04-28T18:00:45.999Z</time></trkpt><trkpt lat="42.627698508960826" lon="12.092384050039627"><ele>478.0</ele><time>2026-04-28T18:00:47.999Z</time></trkpt><trkpt lat="42.62764792646459" lon="12.09223839508228"><ele>479.2</ele><time>2026-04-28T18:00:49.999Z</time></trkpt><trkpt lat="42.62760318094106" lon="12.092098140535724"><ele>480.4</ele><time>2026-04-28T18:00:51.999Z</time></trkpt><trkpt lat="42.627552332896386" lon="12.09194158929309"><ele>481.59999999999997</ele><time>2026-04-28T18:00:54Z</time></trkpt><trkpt lat="42.627522791295256" lon="12.091850636455375"><ele>482.79999999999995</ele><time>2026-04-28T18:00:55Z</time></trkpt><trkpt lat="42.62749239283106" lon="12.091757045492434"><ele>484.0</ele><time>2026-04-28T18:00:56Z</time></trkpt><trkpt lat="42.62746511708296" lon="12.091673068763178"><ele>484.2857142857143</ele><time>2026-04-28T18:00:57Z</time></trkpt><trkpt lat="42.62743725754823" lon="12.091587294673344"><ele>484.57142857142856</ele><time>2026-04-28T18:00:58Z</time></trkpt><trkpt lat="42.62741595848011" lon="12.091493556477905"><ele>484.85714285714283</ele><time>2026-04-28T18:00:59Z</time></trkpt><trkpt lat="42.62738656455194" lon="12.091396069887484"><ele>485.1428571428571</ele><time>2026-04-28T18:01:00Z</time></trkpt><trkpt lat="42.627352934078935" lon="12.091300428327884"><ele>485.42857142857144</ele><time>2026-04-28T18:01:01Z</time></trkpt><trkpt lat="42.62732168087934" lon="12.091214553389399"><ele>485.71428571428567</ele><time>2026-04-28T18:01:02Z</time></trkpt><trkpt lat="42.62729389211645" lon="12.091127631294356"><ele>486.0</ele><time>2026-04-28T18:01:03Z</time></trkpt><trkpt lat="42.62725782755734" lon="12.09104560106679"><ele>486.0</ele><time>2026-04-28T18:01:04Z</time></trkpt><trkpt lat="42.62722857550205" lon="12.090958044482715"><ele>486.0</ele><time>2026-04-28T18:01:05Z</time></trkpt><trkpt lat="42.62719981611114" lon="12.090874895448318"><ele>486.0</ele><time>2026-04-28T18:01:06Z</time></trkpt><trkpt lat="42.6271290851444" lon="12.090774892314295"><ele>486.0</ele><time>2026-04-28T18:01:08Z</time></trkpt><trkpt lat="42.62707102529878" lon="12.090727002022124"><ele>486.0</ele><time>2026-04-28T18:01:10Z</time></trkpt><trkpt lat="42.62695256700919" lon="12.090813623880157"><ele>486.0</ele><time>2026-04-28T18:01:12Z</time></trkpt><trkpt lat="42.6268929474353" lon="12.090876899504082"><ele>483.0</ele><time>2026-04-28T18:01:13Z</time></trkpt><trkpt lat="42.626853517532766" lon="12.090951677092661"><ele>480.0</ele><time>2026-04-28T18:01:14Z</time></trkpt><trkpt lat="42.62682734530467" lon="12.091134240442491"><ele>477.0</ele><time>2026-04-28T18:01:16Z</time></trkpt><trkpt lat="42.62683553501384" lon="12.09126615099181"><ele>474.0</ele><time>2026-04-28T18:01:17Z</time></trkpt><trkpt lat="42.62684346173652" lon="12.091415296882808"><ele>471.0</ele><time>2026-04-28T18:01:18Z</time></trkpt><trkpt lat="42.626857554641084" lon="12.091561027882197"><ele>472.0</ele><time>2026-04-28T18:01:19Z</time></trkpt><trkpt lat="42.626863736650265" lon="12.091707109246384"><ele>473.0</ele><time>2026-04-28T18:01:20Z</time></trkpt><trkpt lat="42.6268641347493" lon="12.09185022331345"><ele>474.0</ele><time>2026-04-28T18:01:21Z</time></trkpt><trkpt lat="42.62686576680387" lon="12.091995281430645"><ele>475.0</ele><time>2026-04-28T18:01:22Z</time></trkpt><trkpt lat="42.62686417703766" lon="12.092125641741276"><ele>476.0</ele><time>2026-04-28T18:01:23Z</time></trkpt><trkpt lat="42.626868366331756" lon="12.092246323130247"><ele>475.99999999999994</ele><time>2026-04-28T18:01:24Z</time></trkpt><trkpt lat="42.626875651539585" lon="12.092364089151742"><ele>476.0</ele><time>2026-04-28T18:01:25Z</time></trkpt><trkpt lat="42.62687340071909" lon="12.092475505515571"><ele>476.0</ele><time>2026-04-28T18:01:26Z</time></trkpt><trkpt lat="42.62686954029996" lon="12.092575741915127"><ele>476.0</ele><time>2026-04-28T18:01:27Z</time></trkpt><trkpt lat="42.62686196230969" lon="12.092673241826596"><ele>475.99999999999994</ele><time>2026-04-28T18:01:28Z</time></trkpt><trkpt lat="42.62684895914897" lon="12.092776486507455"><ele>476.0</ele><time>2026-04-28T18:01:29Z</time></trkpt><trkpt lat="42.62683593500615" lon="12.092886647839654"><ele>476.49999999999994</ele><time>2026-04-28T18:01:30Z</time></trkpt><trkpt lat="42.626823424127245" lon="12.092987725744951"><ele>477.0</ele><time>2026-04-28T18:01:31Z</time></trkpt><trkpt lat="42.62680088042583" lon="12.093076789251109"><ele>477.5</ele><time>2026-04-28T18:01:32Z</time></trkpt><trkpt lat="42.62677520924047" lon="12.093157138502955"><ele>478.0</ele><time>2026-04-28T18:01:33Z</time></trkpt><trkpt lat="42.62674732793956" lon="12.093317188993655"><ele>478.49999999999994</ele><time>2026-04-28T18:01:35Z</time></trkpt><trkpt lat="42.626734897786086" lon="12.093454570769033"><ele>479.0</ele><time>2026-04-28T18:01:37Z</time></trkpt><trkpt lat="42.626718716061895" lon="12.093571129288359"><ele>478.99999999999994</ele><time>2026-04-28T18:01:39Z</time></trkpt><trkpt lat="42.62671982554298" lon="12.093668199902686"><ele>479.0</ele><time>2026-04-28T18:01:42Z</time></trkpt><trkpt lat="42.62669723018217" lon="12.093775095161833"><ele>479.0</ele><time>2026-04-28T18:01:45Z</time></trkpt><trkpt lat="42.62668883073572" lon="12.093929932827013"><ele>479.0</ele><time>2026-04-28T18:01:47Z</time></trkpt><trkpt lat="42.626679913697416" lon="12.094031688621586"><ele>478.99999999999994</ele><time>2026-04-28T18:01:48Z</time></trkpt><trkpt lat="42.62667024449201" lon="12.094125224118155"><ele>479.0</ele><time>2026-04-28T18:01:49Z</time></trkpt><trkpt lat="42.62665880601921" lon="12.094270090383498"><ele>479.6</ele><time>2026-04-28T18:01:51Z</time></trkpt><trkpt lat="42.62665383828546" lon="12.094384476342606"><ele>480.2</ele><time>2026-04-28T18:01:53Z</time></trkpt><trkpt lat="42.626651101763066" lon="12.094516772422129"><ele>480.80000000000007</ele><time>2026-04-28T18:01:55Z</time></trkpt><trkpt lat="42.626620024372976" lon="12.094676648609791"><ele>481.40000000000003</ele><time>2026-04-28T18:01:57Z</time></trkpt><trkpt lat="42.62660357191483" lon="12.094792694129627"><ele>482.0</ele><time>2026-04-28T18:01:58Z</time></trkpt><trkpt lat="42.62659102541398" lon="12.09491100666083"><ele>482.8</ele><time>2026-04-28T18:01:59Z</time></trkpt><trkpt lat="42.62658149820124" lon="12.095040331686306"><ele>483.6</ele><time>2026-04-28T18:02:00Z</time></trkpt><trkpt lat="42.62657060952413" lon="12.095174611975866"><ele>484.40000000000003</ele><time>2026-04-28T18:02:01Z</time></trkpt><trkpt lat="42.62655600976263" lon="12.09530563990378"><ele>485.20000000000005</ele><time>2026-04-28T18:02:02Z</time></trkpt><trkpt lat="42.62654317521818" lon="12.095437679976579"><ele>486.0</ele><time>2026-04-28T18:02:03Z</time></trkpt><trkpt lat="42.62653091930446" lon="12.095559663776665"><ele>486.0</ele><time>2026-04-28T18:02:04Z</time></trkpt><trkpt lat="42.62651697264004" lon="12.0956677193688"><ele>486.0</ele><time>2026-04-28T18:02:05Z</time></trkpt><trkpt lat="42.626507741061964" lon="12.095766538313242"><ele>486.0</ele><time>2026-04-28T18:02:06Z</time></trkpt><trkpt lat="42.62650201323789" lon="12.095856593146092"><ele>486.0</ele><time>2026-04-28T18:02:07Z</time></trkpt><trkpt lat="42.62649675631482" lon="12.095949001210812"><ele>486.0</ele><time>2026-04-28T18:02:08Z</time></trkpt><trkpt lat="42.626490067548545" lon="12.096038982100977"><ele>486.0</ele><time>2026-04-28T18:02:09Z</time></trkpt><trkpt lat="42.62646777803039" lon="12.096204941219572"><ele>485.8333333333333</ele><time>2026-04-28T18:02:11Z</time></trkpt><trkpt lat="42.626457752998924" lon="12.096294414687273"><ele>485.66666666666663</ele><time>2026-04-28T18:02:12Z</time></trkpt><trkpt lat="42.62639505594539" lon="12.096379520624714"><ele>485.5</ele><time>2026-04-28T18:02:13Z</time></trkpt><trkpt lat="42.62637482237756" lon="12.096495383651094"><ele>485.3333333333333</ele><time>2026-04-28T18:02:14Z</time></trkpt><trkpt lat="42.626354675592715" lon="12.096610752504665"><ele>485.16666666666663</ele><time>2026-04-28T18:02:15Z</time></trkpt><trkpt lat="42.626334579467155" lon="12.096725831458073"><ele>485.0</ele><time>2026-04-28T18:02:16Z</time></trkpt><trkpt lat="42.626313681343305" lon="12.096845927643951"><ele>484.49999999999994</ele><time>2026-04-28T18:02:17Z</time></trkpt><trkpt lat="42.62630339997905" lon="12.096959369823262"><ele>484.0</ele><time>2026-04-28T18:02:18Z</time></trkpt><trkpt lat="42.62627704490202" lon="12.097042336255043"><ele>483.5</ele><time>2026-04-28T18:02:19Z</time></trkpt><trkpt lat="42.626259821208905" lon="12.097131717152601"><ele>483.0</ele><time>2026-04-28T18:02:20Z</time></trkpt><trkpt lat="42.626225196743576" lon="12.0973160370125"><ele>482.49999999999994</ele><time>2026-04-28T18:02:22Z</time></trkpt><trkpt lat="42.626208813074854" lon="12.097430100600953"><ele>482.0</ele><time>2026-04-28T18:02:23Z</time></trkpt><trkpt lat="42.62619869721666" lon="12.097547549945142"><ele>481.66666666666663</ele><time>2026-04-28T18:02:24Z</time></trkpt><trkpt lat="42.626165083652815" lon="12.097652651217349"><ele>481.3333333333333</ele><time>2026-04-28T18:02:25Z</time></trkpt><trkpt lat="42.626147983102676" lon="12.097773337404462"><ele>481.0</ele><time>2026-04-28T18:02:26Z</time></trkpt><trkpt lat="42.62612537678863" lon="12.097871699248213"><ele>480.66666666666663</ele><time>2026-04-28T18:02:27Z</time></trkpt><trkpt lat="42.62608549750402" lon="12.097971264257627"><ele>480.3333333333333</ele><time>2026-04-28T18:02:28Z</time></trkpt><trkpt lat="42.626058493656856" lon="12.098069496821774"><ele>480.0</ele><time>2026-04-28T18:02:29Z</time></trkpt><trkpt lat="42.62604396931593" lon="12.098161946262856"><ele>480.4</ele><time>2026-04-28T18:02:30Z</time></trkpt><trkpt lat="42.626030699264554" lon="12.098297653129055"><ele>480.8</ele><time>2026-04-28T18:02:32Z</time></trkpt><trkpt lat="42.62613548653393" lon="12.098356358049319"><ele>481.20000000000005</ele><time>2026-04-28T18:02:35Z</time></trkpt><trkpt lat="42.62620535600315" lon="12.098382489345195"><ele>481.6</ele><time>2026-04-28T18:02:36Z</time></trkpt><trkpt lat="42.62632472486195" lon="12.098339081153078"><ele>482.0</ele><time>2026-04-28T18:02:38Z</time></trkpt><trkpt lat="42.62638836227053" lon="12.098285365383449"><ele>481.7142857142857</ele><time>2026-04-28T18:02:39Z</time></trkpt><trkpt lat="42.62644781676257" lon="12.098241240367232"><ele>481.42857142857144</ele><time>2026-04-28T18:02:40Z</time></trkpt><trkpt lat="42.62651398004994" lon="12.098179280493751"><ele>481.14285714285717</ele><time>2026-04-28T18:02:41Z</time></trkpt><trkpt lat="42.626577877123374" lon="12.098125599046673"><ele>480.8571428571429</ele><time>2026-04-28T18:02:42Z</time></trkpt><trkpt lat="42.626640449542144" lon="12.098073853886156"><ele>480.57142857142856</ele><time>2026-04-28T18:02:43Z</time></trkpt><trkpt lat="42.62669464117287" lon="12.098015028799901"><ele>480.28571428571433</ele><time>2026-04-28T18:02:44Z</time></trkpt><trkpt lat="42.62674361994188" lon="12.097947552499127"><ele>480.0</ele><time>2026-04-28T18:02:45Z</time></trkpt><trkpt lat="42.626776298219276" lon="12.097857413819488"><ele>480.0</ele><time>2026-04-28T18:02:46Z</time></trkpt><trkpt lat="42.62680153002033" lon="12.097749355029471"><ele>480.0</ele><time>2026-04-28T18:02:47Z</time></trkpt><trkpt lat="42.62682381811124" lon="12.097632135797625"><ele>480.0</ele><time>2026-04-28T18:02:48Z</time></trkpt><trkpt lat="42.62684341487363" lon="12.097517142234588"><ele>480.0</ele><time>2026-04-28T18:02:49Z</time></trkpt><trkpt lat="42.62685910625584" lon="12.09741369466684"><ele>480.0</ele><time>2026-04-28T18:02:50Z</time></trkpt><trkpt lat="42.62688687935171" lon="12.097294048340775"><ele>480.0</ele><time>2026-04-28T18:02:51Z</time></trkpt><trkpt lat="42.626916786612206" lon="12.097173461758384"><ele>480.4</ele><time>2026-04-28T18:02:52Z</time></trkpt><trkpt lat="42.626943375897866" lon="12.097060345001317"><ele>480.8</ele><time>2026-04-28T18:02:53Z</time></trkpt><trkpt lat="42.62697438975819" lon="12.09695592431167"><ele>481.20000000000005</ele><time>2026-04-28T18:02:54Z</time></trkpt><trkpt lat="42.62701231818621" lon="12.09684411890169"><ele>481.6</ele><time>2026-04-28T18:02:55Z</time></trkpt><trkpt lat="42.627059830777156" lon="12.09671142823752"><ele>482.0</ele><time>2026-04-28T18:02:55.999Z</time></trkpt><trkpt lat="42.62711307377606" lon="12.096583734125264"><ele>481.0</ele><time>2026-04-28T18:02:56.999Z</time></trkpt><trkpt lat="42.62715322934138" lon="12.096469036313374"><ele>480.00000000000006</ele><time>2026-04-28T18:02:57.999Z</time></trkpt><trkpt lat="42.627209239924746" lon="12.096351526977257"><ele>479.00000000000006</ele><time>2026-04-28T18:02:58.999Z</time></trkpt><trkpt lat="42.62726613390157" lon="12.09624109697002"><ele>478.0</ele><time>2026-04-28T18:03:00Z</time></trkpt><trkpt lat="42.62730052562125" lon="12.096115543074843"><ele>477.0</ele><time>2026-04-28T18:03:01Z</time></trkpt><trkpt lat="42.62734123342077" lon="12.09599906437797"><ele>477.0</ele><time>2026-04-28T18:03:02Z</time></trkpt><trkpt lat="42.62735616857092" lon="12.095865444394914"><ele>477.00000000000006</ele><time>2026-04-28T18:03:03Z</time></trkpt><trkpt lat="42.627353817800476" lon="12.095743832261903"><ele>477.00000000000006</ele><time>2026-04-28T18:03:04Z</time></trkpt><trkpt lat="42.6273591871845" lon="12.09560790827564"><ele>477.0</ele><time>2026-04-28T18:03:05Z</time></trkpt><trkpt lat="42.62735984632559" lon="12.095468351482642"><ele>477.0</ele><time>2026-04-28T18:03:06Z</time></trkpt><trkpt lat="42.62735929118548" lon="12.095343221579727"><ele>476.8</ele><time>2026-04-28T18:03:07Z</time></trkpt><trkpt lat="42.627346194700635" lon="12.095219498744063"><ele>476.6</ele><time>2026-04-28T18:03:08Z</time></trkpt><trkpt lat="42.62731985190878" lon="12.095081480028423"><ele>476.40000000000003</ele><time>2026-04-28T18:03:09Z</time></trkpt><trkpt lat="42.627279816715706" lon="12.094954871344179"><ele>476.20000000000005</ele><time>2026-04-28T18:03:10Z</time></trkpt><trkpt lat="42.62723824670681" lon="12.094871274766732"><ele>476.0</ele><time>2026-04-28T18:03:11Z</time></trkpt><trkpt lat="42.62719157546622" lon="12.094786814889696"><ele>475.16666666666663</ele><time>2026-04-28T18:03:12Z</time></trkpt><trkpt lat="42.62713863580815" lon="12.094707594169797"><ele>474.3333333333333</ele><time>2026-04-28T18:03:13Z</time></trkpt><trkpt lat="42.62711988604652" lon="12.094611522332883"><ele>473.5</ele><time>2026-04-28T18:03:14Z</time></trkpt><trkpt lat="42.627081877141784" lon="12.09452096918186"><ele>472.66666666666663</ele><time>2026-04-28T18:03:15Z</time></trkpt><trkpt lat="42.62705819676069" lon="12.094440767248047"><ele>471.8333333333333</ele><time>2026-04-28T18:03:16Z</time></trkpt><trkpt lat="42.62703482538408" lon="12.094308224052137"><ele>471.0</ele><time>2026-04-28T18:03:18Z</time></trkpt><trkpt lat="42.62702419199939" lon="12.094210325023546"><ele>471.0</ele><time>2026-04-28T18:03:21Z</time></trkpt><trkpt lat="42.62712206541498" lon="12.094156851732208"><ele>471.0</ele><time>2026-04-28T18:03:22Z</time></trkpt><trkpt lat="42.627205588890575" lon="12.094102256246194"><ele>471.0</ele><time>2026-04-28T18:03:24Z</time></trkpt><trkpt lat="42.6273351663558" lon="12.094022316171513"><ele>471.0</ele><time>2026-04-28T18:03:26Z</time></trkpt><trkpt lat="42.6274063858055" lon="12.093976128049597"><ele>471.0</ele><time>2026-04-28T18:03:27Z</time></trkpt><trkpt lat="42.62748173089672" lon="12.093925485990443"><ele>472.0</ele><time>2026-04-28T18:03:28Z</time></trkpt><trkpt lat="42.62754250794558" lon="12.093890937083621"><ele>473.0</ele><time>2026-04-28T18:03:29Z</time></trkpt><trkpt lat="42.62763281131325" lon="12.093827765067312"><ele>474.0</ele><time>2026-04-28T18:03:31Z</time></trkpt><trkpt lat="42.62768797944996" lon="12.093759150271463"><ele>475.0</ele><time>2026-04-28T18:03:33Z</time></trkpt><trkpt lat="42.62771893001895" lon="12.09360259824946"><ele>476.0</ele><time>2026-04-28T18:03:36Z</time></trkpt><trkpt lat="42.62770062734991" lon="12.093430969612998"><ele>475.99999999999994</ele><time>2026-04-28T18:03:38Z</time></trkpt><trkpt lat="42.627693323963015" lon="12.09332720699258"><ele>476.0</ele><time>2026-04-28T18:03:39Z</time></trkpt><trkpt lat="42.627684455823335" lon="12.093216059577072"><ele>476.0</ele><time>2026-04-28T18:03:40Z</time></trkpt><trkpt lat="42.627683300436" lon="12.093111551301797"><ele>476.0</ele><time>2026-04-28T18:03:41Z</time></trkpt><trkpt lat="42.62768204708106" lon="12.093007481607064"><ele>475.99999999999994</ele><time>2026-04-28T18:03:42Z</time></trkpt><trkpt lat="42.62768333136578" lon="12.09291392762496"><ele>476.0</ele><time>2026-04-28T18:03:43Z</time></trkpt><trkpt lat="42.62768482045188" lon="12.092815293978356"><ele>476.3333333333333</ele><time>2026-04-28T18:03:44Z</time></trkpt><trkpt lat="42.62768413387544" lon="12.0927165643129"><ele>476.66666666666663</ele><time>2026-04-28T18:03:45Z</time></trkpt><trkpt lat="42.62768760876981" lon="12.092621546587148"><ele>477.0</ele><time>2026-04-28T18:03:46Z</time></trkpt><trkpt lat="42.627690651472605" lon="12.092531140251817"><ele>477.33333333333337</ele><time>2026-04-28T18:03:47Z</time></trkpt><trkpt lat="42.627704328279265" lon="12.09244558133584"><ele>477.6666666666667</ele><time>2026-04-28T18:03:48Z</time></trkpt><trkpt lat="42.6276909942324" lon="12.092295156019123"><ele>478.0</ele><time>2026-04-28T18:03:50Z</time></trkpt><trkpt lat="42.62762917322244" lon="12.092178021495675"><ele>479.2</ele><time>2026-04-28T18:03:52Z</time></trkpt><trkpt lat="42.62758926632152" lon="12.092055300134358"><ele>480.4</ele><time>2026-04-28T18:03:54Z</time></trkpt><trkpt lat="42.62756154617661" lon="12.09196995520508"><ele>481.59999999999997</ele><time>2026-04-28T18:03:56Z</time></trkpt><trkpt lat="42.627497647158705" lon="12.092137078662494"><ele>482.79999999999995</ele><time>2026-04-28T18:05:16.376Z</time></trkpt><trkpt lat="42.627444652666355" lon="12.092314491245885"><ele>484.0</ele><time>2026-04-28T18:05:22.374Z</time></trkpt><trkpt lat="42.62758371378212" lon="12.091861014414315"><ele>484.0</ele><time>2026-04-28T18:05:25.033Z</time></trkpt><trkpt lat="42.62762756210883" lon="12.091943996216118"><ele>484.0</ele><time>2026-04-28T18:10:59Z</time></trkpt><trkpt lat="42.6273439745069" lon="12.092487557483526"><ele>484.0</ele><time>2026-04-28T18:11:08Z</time></trkpt><trkpt lat="42.62734604337031" lon="12.092608520645902"><ele>484.0</ele><time>2026-04-28T18:11:10Z</time></trkpt><trkpt lat="42.62739441579505" lon="12.092686020181787"><ele>484.0</ele><time>2026-04-28T18:11:12Z</time></trkpt><trkpt lat="42.62748284402553" lon="12.092788787087676"><ele>484.0</ele><time>2026-04-28T18:11:14Z</time></trkpt><trkpt lat="42.6275188579987" lon="12.09289291998409"><ele>484.0</ele><time>2026-04-28T18:11:16Z</time></trkpt><trkpt lat="42.62768385649855" lon="12.092278022185221"><ele>484.0</ele><time>2026-04-28T18:11:19Z</time></trkpt><trkpt lat="42.62767222607246" lon="12.092062472402118"><ele>484.0</ele><time>2026-04-28T18:12:30Z</time></trkpt><trkpt lat="42.627730855056775" lon="12.09192621170085"><ele>484.0</ele><time>2026-04-28T18:12:33Z</time></trkpt><trkpt lat="42.6277083124502" lon="12.091841082035502"><ele>484.0</ele><time>2026-04-28T18:14:23Z</time></trkpt><trkpt lat="42.62761167804104" lon="12.091881806425558"><ele>484.0</ele><time>2026-04-28T18:14:42.999Z</time></trkpt><trkpt lat="42.627635211360314" lon="12.092277088581497"><ele>484.0</ele><time>2026-04-28T18:17:14.999Z</time></trkpt><trkpt lat="42.62764643956025" lon="12.092382218216258"><ele>484.0</ele><time>2026-04-28T18:17:26.999Z</time></trkpt><trkpt lat="42.62771346258298" lon="12.092350699287048"><ele>484.0</ele><time>2026-04-28T18:17:41.064Z</time></trkpt><trkpt lat="42.62759747500541" lon="12.092301105741551"><ele>484.0</ele><time>2026-04-28T18:17:43.035Z</time></trkpt><trkpt lat="42.62752284138025" lon="12.092234965690821"><ele>484.0</ele><time>2026-04-28T18:18:53.125Z</time></trkpt><trkpt lat="42.627429039253265" lon="12.092206735513162"><ele>484.0</ele><time>2026-04-28T18:39:25.008Z</time></trkpt><trkpt lat="42.627487666813074" lon="12.09216318187096"><ele>484.0</ele><time>2026-04-28T18:40:20.011Z</time></trkpt><trkpt lat="42.62751710847801" lon="12.092086060308956"><ele>484.0</ele><time>2026-04-28T18:40:32.998Z</time></trkpt><trkpt lat="42.627588709645465" lon="12.091916595180201"><ele>484.0</ele><time>2026-04-28T18:40:33.998Z</time></trkpt><trkpt lat="42.62757604919339" lon="12.092011796289546"><ele>484.0</ele><time>2026-04-28T18:42:12.015Z</time></trkpt><trkpt lat="42.62745990996554" lon="12.09218951503216"><ele>484.0</ele><time>2026-04-28T18:44:04.548Z</time></trkpt><trkpt lat="42.62750404783539" lon="12.092119818784836"><ele>484.0</ele><time>2026-04-28T18:44:32.015Z</time></trkpt><trkpt lat="42.62747773083532" lon="12.092236019367467"><ele>484.0</ele><time>2026-04-28T18:45:55.359Z</time></trkpt><trkpt lat="42.62745709525959" lon="12.092146383119868"><ele>484.0</ele><time>2026-04-28T18:53:29.559Z</time></trkpt><trkpt lat="42.62745287421757" lon="12.092237352739925"><ele>484.0</ele><time>2026-04-28T18:55:25.349Z</time></trkpt></trkseg><trkseg><trkpt lat="42.62675415337245" lon="12.094871683259381"><ele>482.0</ele><time>2026-04-29T08:07:37.999Z</time></trkpt><trkpt lat="42.62682213445064" lon="12.094848258098475"><ele>482.00000000000006</ele><time>2026-04-29T08:07:39.999Z</time></trkpt><trkpt lat="42.62688450391704" lon="12.094867774818738"><ele>482.0</ele><time>2026-04-29T08:07:41.999Z</time></trkpt><trkpt lat="42.626947190123445" lon="12.094831828707438"><ele>482.0</ele><time>2026-04-29T08:07:43.999Z</time></trkpt><trkpt lat="42.62699944838646" lon="12.0947819016874"><ele>482.00000000000006</ele><time>2026-04-29T08:07:45.999Z</time></trkpt><trkpt lat="42.62706328988777" lon="12.094748601659871"><ele>482.0</ele><time>2026-04-29T08:08:10Z</time></trkpt><trkpt lat="42.62711733949052" lon="12.094685968949653"><ele>482.0</ele><time>2026-04-29T08:08:14Z</time></trkpt><trkpt lat="42.62706580615103" lon="12.09456147376459"><ele>480.8</ele><time>2026-04-29T08:08:16Z</time></trkpt><trkpt lat="42.62703513818315" lon="12.094444505570902"><ele>479.6</ele><time>2026-04-29T08:08:17Z</time></trkpt><trkpt lat="42.627014649635925" lon="12.094363187897441"><ele>478.40000000000003</ele><time>2026-04-29T08:08:18Z</time></trkpt><trkpt lat="42.62702966488308" lon="12.094248551631946"><ele>477.20000000000005</ele><time>2026-04-29T08:08:20Z</time></trkpt><trkpt lat="42.627097856642585" lon="12.094171549745141"><ele>476.0</ele><time>2026-04-29T08:08:22Z</time></trkpt><trkpt lat="42.627210592063214" lon="12.094087160637644"><ele>476.0</ele><time>2026-04-29T08:08:24Z</time></trkpt><trkpt lat="42.62727173748416" lon="12.094046811977867"><ele>476.0</ele><time>2026-04-29T08:08:25Z</time></trkpt><trkpt lat="42.62733315154461" lon="12.094006495967731"><ele>476.0</ele><time>2026-04-29T08:08:26Z</time></trkpt><trkpt lat="42.62739521871154" lon="12.093967411953482"><ele>476.0</ele><time>2026-04-29T08:08:27Z</time></trkpt><trkpt lat="42.62745710300535" lon="12.093927835546562"><ele>476.0</ele><time>2026-04-29T08:08:28Z</time></trkpt><trkpt lat="42.627516767703895" lon="12.093889405141448"><ele>476.0</ele><time>2026-04-29T08:08:29Z</time></trkpt><trkpt lat="42.627612767051495" lon="12.093828718077917"><ele>476.0</ele><time>2026-04-29T08:08:31Z</time></trkpt><trkpt lat="42.62767733815248" lon="12.09379313725254"><ele>476.0</ele><time>2026-04-29T08:08:33Z</time></trkpt><trkpt lat="42.62779598094179" lon="12.093825599065134"><ele>476.0</ele><time>2026-04-29T08:08:36Z</time></trkpt><trkpt lat="42.62789615104053" lon="12.09392903931773"><ele>476.0</ele><time>2026-04-29T08:08:38Z</time></trkpt><trkpt lat="42.627964700801364" lon="12.093977722825263"><ele>476.0</ele><time>2026-04-29T08:08:39Z</time></trkpt><trkpt lat="42.62804172879779" lon="12.094029023799994"><ele>476.0</ele><time>2026-04-29T08:08:40Z</time></trkpt><trkpt lat="42.62813242211799" lon="12.094085092633273"><ele>475.4</ele><time>2026-04-29T08:08:41Z</time></trkpt><trkpt lat="42.62822127463165" lon="12.094138369189961"><ele>474.8</ele><time>2026-04-29T08:08:42Z</time></trkpt><trkpt lat="42.62831439018347" lon="12.09418252027996"><ele>474.19999999999993</ele><time>2026-04-29T08:08:43Z</time></trkpt><trkpt lat="42.62841104694596" lon="12.094228455706718"><ele>473.59999999999997</ele><time>2026-04-29T08:08:44Z</time></trkpt><trkpt lat="42.628499316168856" lon="12.094268343251429"><ele>473.0</ele><time>2026-04-29T08:08:45Z</time></trkpt><trkpt lat="42.62858708702809" lon="12.094272661522083"><ele>473.4</ele><time>2026-04-29T08:08:46Z</time></trkpt><trkpt lat="42.628673792031805" lon="12.094247846077776"><ele>473.79999999999995</ele><time>2026-04-29T08:08:47Z</time></trkpt><trkpt lat="42.62875619665927" lon="12.094176801483679"><ele>474.2</ele><time>2026-04-29T08:08:48Z</time></trkpt><trkpt lat="42.62882628577111" lon="12.094089865677969"><ele>474.6</ele><time>2026-04-29T08:08:49Z</time></trkpt><trkpt lat="42.62889659974021" lon="12.093981633612968"><ele>475.0</ele><time>2026-04-29T08:08:50Z</time></trkpt><trkpt lat="42.628955075398025" lon="12.093854674126314"><ele>476.5</ele><time>2026-04-29T08:08:51Z</time></trkpt><trkpt lat="42.62900851785127" lon="12.093713149890448"><ele>478.0</ele><time>2026-04-29T08:08:52Z</time></trkpt><trkpt lat="42.629069707858775" lon="12.093571859017056"><ele>479.5</ele><time>2026-04-29T08:08:53Z</time></trkpt><trkpt lat="42.62912593145684" lon="12.093437421760772"><ele>481.0</ele><time>2026-04-29T08:08:54Z</time></trkpt><trkpt lat="42.629183284766974" lon="12.093299650190856"><ele>482.5</ele><time>2026-04-29T08:08:55Z</time></trkpt><trkpt lat="42.629236974026234" lon="12.093160133048174"><ele>484.0</ele><time>2026-04-29T08:08:56Z</time></trkpt><trkpt lat="42.62928797579957" lon="12.093018056149894"><ele>485.5</ele><time>2026-04-29T08:08:57Z</time></trkpt><trkpt lat="42.62932756330114" lon="12.092874503778717"><ele>487.0</ele><time>2026-04-29T08:08:58Z</time></trkpt><trkpt lat="42.62935915928778" lon="12.092715518171062"><ele>487.0</ele><time>2026-04-29T08:08:59Z</time></trkpt><trkpt lat="42.629385751856226" lon="12.092554477601555"><ele>487.0</ele><time>2026-04-29T08:09:00Z</time></trkpt><trkpt lat="42.62940535432628" lon="12.092394727485715"><ele>487.0</ele><time>2026-04-29T08:09:01Z</time></trkpt><trkpt lat="42.62942511248248" lon="12.092233659047015"><ele>487.0</ele><time>2026-04-29T08:09:02Z</time></trkpt><trkpt lat="42.629447675994626" lon="12.09206558290694"><ele>487.0</ele><time>2026-04-29T08:09:03Z</time></trkpt><trkpt lat="42.629473145987504" lon="12.091901806722259"><ele>487.0</ele><time>2026-04-29T08:09:04Z</time></trkpt><trkpt lat="42.629507822278185" lon="12.091739500548963"><ele>487.0</ele><time>2026-04-29T08:09:05Z</time></trkpt><trkpt lat="42.62954314834585" lon="12.091578487704961"><ele>487.0</ele><time>2026-04-29T08:09:06Z</time></trkpt><trkpt lat="42.6295850047638" lon="12.09143076426051"><ele>487.0</ele><time>2026-04-29T08:09:07Z</time></trkpt><trkpt lat="42.62963579852917" lon="12.091301788960353"><ele>487.00000000000006</ele><time>2026-04-29T08:09:08Z</time></trkpt><trkpt lat="42.629700062281906" lon="12.0911981668046"><ele>487.00000000000006</ele><time>2026-04-29T08:09:09Z</time></trkpt><trkpt lat="42.629778592219175" lon="12.091131876783637"><ele>487.0</ele><time>2026-04-29T08:09:10Z</time></trkpt><trkpt lat="42.6298623814102" lon="12.091112937935236"><ele>487.0</ele><time>2026-04-29T08:09:11Z</time></trkpt><trkpt lat="42.62994344335962" lon="12.091163869532588"><ele>487.0</ele><time>2026-04-29T08:09:12Z</time></trkpt><trkpt lat="42.63002858303818" lon="12.091196329385182"><ele>487.00000000000006</ele><time>2026-04-29T08:09:13Z</time></trkpt><trkpt lat="42.630129872108824" lon="12.09121284679969"><ele>487.00000000000006</ele><time>2026-04-29T08:09:14Z</time></trkpt><trkpt lat="42.63022748833971" lon="12.091275196481329"><ele>487.0</ele><time>2026-04-29T08:09:15.001Z</time></trkpt><trkpt lat="42.63033788834111" lon="12.091295447681722"><ele>487.0</ele><time>2026-04-29T08:09:16.001Z</time></trkpt><trkpt lat="42.6304464308242" lon="12.091336178460386"><ele>487.8</ele><time>2026-04-29T08:09:17.001Z</time></trkpt><trkpt lat="42.63055307517499" lon="12.091376211193332"><ele>488.6</ele><time>2026-04-29T08:09:18.001Z</time></trkpt><trkpt lat="42.630656020783206" lon="12.091426492720197"><ele>489.40000000000003</ele><time>2026-04-29T08:09:19.001Z</time></trkpt><trkpt lat="42.63074625157986" lon="12.091489231341098"><ele>490.20000000000005</ele><time>2026-04-29T08:09:20.001Z</time></trkpt><trkpt lat="42.63083578616669" lon="12.091568111548671"><ele>491.0</ele><time>2026-04-29T08:09:20.999Z</time></trkpt><trkpt lat="42.63093391939619" lon="12.091641129647057"><ele>491.25</ele><time>2026-04-29T08:09:21.999Z</time></trkpt><trkpt lat="42.631045209524416" lon="12.091712026456765"><ele>491.5</ele><time>2026-04-29T08:09:22.999Z</time></trkpt><trkpt lat="42.6311279970748" lon="12.091830656516581"><ele>491.75</ele><time>2026-04-29T08:09:23.999Z</time></trkpt><trkpt lat="42.63122111460888" lon="12.09194072802827"><ele>492.0</ele><time>2026-04-29T08:09:24.999Z</time></trkpt><trkpt lat="42.63131163011075" lon="12.092043441779973"><ele>490.20000000000005</ele><time>2026-04-29T08:09:25.999Z</time></trkpt><trkpt lat="42.63139908951813" lon="12.092130484922976"><ele>488.40000000000003</ele><time>2026-04-29T08:09:26.999Z</time></trkpt><trkpt lat="42.63148540243466" lon="12.092176570547057"><ele>486.59999999999997</ele><time>2026-04-29T08:09:27.999Z</time></trkpt><trkpt lat="42.631571795912" lon="12.092224952291916"><ele>484.79999999999995</ele><time>2026-04-29T08:09:28.999Z</time></trkpt><trkpt lat="42.631655977168386" lon="12.09223714821009"><ele>483.0</ele><time>2026-04-29T08:09:30Z</time></trkpt><trkpt lat="42.631737833509156" lon="12.09221297355345"><ele>483.0</ele><time>2026-04-29T08:09:31Z</time></trkpt><trkpt lat="42.631812524390185" lon="12.092154962140464"><ele>482.99999999999994</ele><time>2026-04-29T08:09:32Z</time></trkpt><trkpt lat="42.63188962925024" lon="12.092075795181186"><ele>482.99999999999994</ele><time>2026-04-29T08:09:33Z</time></trkpt><trkpt lat="42.6319705176166" lon="12.091974543690403"><ele>483.0</ele><time>2026-04-29T08:09:34Z</time></trkpt><trkpt lat="42.63204637726794" lon="12.091871684580703"><ele>483.0</ele><time>2026-04-29T08:09:35Z</time></trkpt><trkpt lat="42.632120271072544" lon="12.091770753810051"><ele>481.2</ele><time>2026-04-29T08:09:36Z</time></trkpt><trkpt lat="42.63219229045543" lon="12.091680510088626"><ele>479.4</ele><time>2026-04-29T08:09:37Z</time></trkpt><trkpt lat="42.63224276304434" lon="12.09156545733121"><ele>477.59999999999997</ele><time>2026-04-29T08:09:38Z</time></trkpt><trkpt lat="42.63227143172592" lon="12.091446481646095"><ele>475.79999999999995</ele><time>2026-04-29T08:09:39Z</time></trkpt><trkpt lat="42.63226515503265" lon="12.091315083457015"><ele>474.0</ele><time>2026-04-29T08:09:40Z</time></trkpt><trkpt lat="42.63224008685516" lon="12.091200646302417"><ele>474.0</ele><time>2026-04-29T08:09:41Z</time></trkpt><trkpt lat="42.63219730535943" lon="12.09109205819798"><ele>474.0</ele><time>2026-04-29T08:09:42Z</time></trkpt><trkpt lat="42.632187326918434" lon="12.090980517058599"><ele>474.0</ele><time>2026-04-29T08:09:43Z</time></trkpt><trkpt lat="42.63222940212487" lon="12.090878143862785"><ele>474.0</ele><time>2026-04-29T08:09:44Z</time></trkpt><trkpt lat="42.632314576825756" lon="12.090804144951624"><ele>474.0</ele><time>2026-04-29T08:09:45Z</time></trkpt><trkpt lat="42.63242173594837" lon="12.090809394834329"><ele>474.0</ele><time>2026-04-29T08:09:46Z</time></trkpt><trkpt lat="42.63254107194403" lon="12.0907927851221"><ele>474.0</ele><time>2026-04-29T08:09:47Z</time></trkpt><trkpt lat="42.63265009857376" lon="12.090810746146959"><ele>474.0</ele><time>2026-04-29T08:09:48Z</time></trkpt><trkpt lat="42.63274817847693" lon="12.090804746495758"><ele>474.0</ele><time>2026-04-29T08:09:49Z</time></trkpt><trkpt lat="42.63283710697838" lon="12.090752693712638"><ele>474.0</ele><time>2026-04-29T08:09:50Z</time></trkpt><trkpt lat="42.63291861552821" lon="12.090670347437255"><ele>474.25</ele><time>2026-04-29T08:09:51Z</time></trkpt><trkpt lat="42.63299203235328" lon="12.090551691395587"><ele>474.5</ele><time>2026-04-29T08:09:52Z</time></trkpt><trkpt lat="42.633046321310054" lon="12.090421689059239"><ele>474.75</ele><time>2026-04-29T08:09:53Z</time></trkpt><trkpt lat="42.63310534686661" lon="12.090286921967458"><ele>475.0</ele><time>2026-04-29T08:09:54Z</time></trkpt><trkpt lat="42.63317844243324" lon="12.09017147913099"><ele>475.0</ele><time>2026-04-29T08:09:55Z</time></trkpt><trkpt lat="42.63327213886891" lon="12.09010227066208"><ele>475.0</ele><time>2026-04-29T08:09:56Z</time></trkpt><trkpt lat="42.63339530900244" lon="12.090064424312617"><ele>475.0</ele><time>2026-04-29T08:09:57Z</time></trkpt><trkpt lat="42.63352837143021" lon="12.090037794597718"><ele>475.0</ele><time>2026-04-29T08:09:58Z</time></trkpt><trkpt lat="42.633665860193574" lon="12.089999874704938"><ele>476.0</ele><time>2026-04-29T08:09:59Z</time></trkpt><trkpt lat="42.63377768746824" lon="12.08993284196769"><ele>477.0</ele><time>2026-04-29T08:10:00Z</time></trkpt><trkpt lat="42.63387749103967" lon="12.08983838145422"><ele>478.0</ele><time>2026-04-29T08:10:01Z</time></trkpt><trkpt lat="42.633982877533136" lon="12.089752554726637"><ele>479.0</ele><time>2026-04-29T08:10:02Z</time></trkpt><trkpt lat="42.63407791798654" lon="12.089659417932996"><ele>479.0</ele><time>2026-04-29T08:10:03Z</time></trkpt><trkpt lat="42.63417073080516" lon="12.089566527628792"><ele>479.0</ele><time>2026-04-29T08:10:04Z</time></trkpt><trkpt lat="42.63424612445341" lon="12.089448153294404"><ele>479.0</ele><time>2026-04-29T08:10:05Z</time></trkpt><trkpt lat="42.63432703794263" lon="12.08933661286269"><ele>479.0</ele><time>2026-04-29T08:10:06Z</time></trkpt><trkpt lat="42.63441353180721" lon="12.089242586192425"><ele>476.16666666666663</ele><time>2026-04-29T08:10:07Z</time></trkpt><trkpt lat="42.63450257126496" lon="12.08917175214433"><ele>473.3333333333333</ele><time>2026-04-29T08:10:08Z</time></trkpt><trkpt lat="42.634583483919535" lon="12.08911294126739"><ele>470.5</ele><time>2026-04-29T08:10:09Z</time></trkpt><trkpt lat="42.634654691175" lon="12.089071554060387"><ele>467.66666666666663</ele><time>2026-04-29T08:10:10Z</time></trkpt><trkpt lat="42.63473261558254" lon="12.089058403171357"><ele>464.8333333333333</ele><time>2026-04-29T08:10:11Z</time></trkpt><trkpt lat="42.63480538013754" lon="12.08908924666377"><ele>462.0</ele><time>2026-04-29T08:10:12Z</time></trkpt><trkpt lat="42.634876660388244" lon="12.089127471200584"><ele>460.5</ele><time>2026-04-29T08:10:13Z</time></trkpt><trkpt lat="42.63494846832462" lon="12.089166793579519"><ele>459.0</ele><time>2026-04-29T08:10:14Z</time></trkpt><trkpt lat="42.63502173128678" lon="12.089194623897535"><ele>457.5</ele><time>2026-04-29T08:10:15Z</time></trkpt><trkpt lat="42.63506560938914" lon="12.089276016343202"><ele>456.0</ele><time>2026-04-29T08:10:16Z</time></trkpt><trkpt lat="42.63508648796982" lon="12.089376452907715"><ele>454.5</ele><time>2026-04-29T08:10:17Z</time></trkpt><trkpt lat="42.635079377862674" lon="12.089485293854022"><ele>453.0</ele><time>2026-04-29T08:10:18Z</time></trkpt><trkpt lat="42.63504031730965" lon="12.089594290886179"><ele>453.0</ele><time>2026-04-29T08:10:19Z</time></trkpt><trkpt lat="42.634982682903384" lon="12.089709478617277"><ele>453.0</ele><time>2026-04-29T08:10:20Z</time></trkpt><trkpt lat="42.63491789388602" lon="12.089831329906858"><ele>453.0</ele><time>2026-04-29T08:10:21Z</time></trkpt><trkpt lat="42.634846935450476" lon="12.089961057966395"><ele>453.0</ele><time>2026-04-29T08:10:22.001Z</time></trkpt><trkpt lat="42.634777614419164" lon="12.09009536556402"><ele>453.0</ele><time>2026-04-29T08:10:23.001Z</time></trkpt><trkpt lat="42.63470696634727" lon="12.090231647667984"><ele>453.0</ele><time>2026-04-29T08:10:24.001Z</time></trkpt><trkpt lat="42.634622687636316" lon="12.090364733287046"><ele>453.0</ele><time>2026-04-29T08:10:25.001Z</time></trkpt><trkpt lat="42.634527107938034" lon="12.090492289555012"><ele>453.0</ele><time>2026-04-29T08:10:26.001Z</time></trkpt><trkpt lat="42.63442289224363" lon="12.09061268321623"><ele>453.0</ele><time>2026-04-29T08:10:27.001Z</time></trkpt><trkpt lat="42.63431993585144" lon="12.090735056554124"><ele>453.0</ele><time>2026-04-29T08:10:28.001Z</time></trkpt><trkpt lat="42.63422207368446" lon="12.090865296952463"><ele>453.0</ele><time>2026-04-29T08:10:29.001Z</time></trkpt><trkpt lat="42.63412791915985" lon="12.090998637715826"><ele>453.0</ele><time>2026-04-29T08:10:30.001Z</time></trkpt><trkpt lat="42.63403966335497" lon="12.091136443725272"><ele>454.25</ele><time>2026-04-29T08:10:31.001Z</time></trkpt><trkpt lat="42.63395350495595" lon="12.091277064529203"><ele>455.5</ele><time>2026-04-29T08:10:32.001Z</time></trkpt><trkpt lat="42.63386973439849" lon="12.09141405146087"><ele>456.75</ele><time>2026-04-29T08:10:33.001Z</time></trkpt><trkpt lat="42.63379047072688" lon="12.091544923168483"><ele>458.0</ele><time>2026-04-29T08:10:34.001Z</time></trkpt><trkpt lat="42.63372105761873" lon="12.091669448551603"><ele>456.0</ele><time>2026-04-29T08:10:35.001Z</time></trkpt><trkpt lat="42.63365586833459" lon="12.091797896562719"><ele>454.0</ele><time>2026-04-29T08:10:36.001Z</time></trkpt><trkpt lat="42.63359965310889" lon="12.091936969303514"><ele>452.0</ele><time>2026-04-29T08:10:37.001Z</time></trkpt><trkpt lat="42.633549691720155" lon="12.092089074465648"><ele>450.0</ele><time>2026-04-29T08:10:38.001Z</time></trkpt><trkpt lat="42.633506836377116" lon="12.092250357675237"><ele>450.0</ele><time>2026-04-29T08:10:39.001Z</time></trkpt><trkpt lat="42.63346503893134" lon="12.092414797600924"><ele>450.0</ele><time>2026-04-29T08:10:40.001Z</time></trkpt><trkpt lat="42.63341942958817" lon="12.092570893844018"><ele>450.0</ele><time>2026-04-29T08:10:41.001Z</time></trkpt><trkpt lat="42.63335751847413" lon="12.09271204918122"><ele>450.0</ele><time>2026-04-29T08:10:42.001Z</time></trkpt><trkpt lat="42.633280180905636" lon="12.092848918869912"><ele>453.75</ele><time>2026-04-29T08:10:43.001Z</time></trkpt><trkpt lat="42.63317770995172" lon="12.09295328303148"><ele>457.5</ele><time>2026-04-29T08:10:44.001Z</time></trkpt><trkpt lat="42.63307628300696" lon="12.093067645976435"><ele>461.25</ele><time>2026-04-29T08:10:45.001Z</time></trkpt><trkpt lat="42.6329691256046" lon="12.093182184883764"><ele>465.0</ele><time>2026-04-29T08:10:46.001Z</time></trkpt><trkpt lat="42.632871138986644" lon="12.093305941872703"><ele>462.0</ele><time>2026-04-29T08:10:47.001Z</time></trkpt><trkpt lat="42.63276857391329" lon="12.093412715192754"><ele>459.0</ele><time>2026-04-29T08:10:48.001Z</time></trkpt><trkpt lat="42.632672700909175" lon="12.09352274830806"><ele>456.0</ele><time>2026-04-29T08:10:49.001Z</time></trkpt><trkpt lat="42.63258342800568" lon="12.093641442495619"><ele>453.0</ele><time>2026-04-29T08:10:50.001Z</time></trkpt><trkpt lat="42.63250550765434" lon="12.093773790115419"><ele>453.0</ele><time>2026-04-29T08:10:51.001Z</time></trkpt><trkpt lat="42.632445974340484" lon="12.09392578351832"><ele>453.0</ele><time>2026-04-29T08:10:52.001Z</time></trkpt><trkpt lat="42.632401892514594" lon="12.094090045930434"><ele>453.0</ele><time>2026-04-29T08:10:53.001Z</time></trkpt><trkpt lat="42.63237184662707" lon="12.09426608300409"><ele>453.0</ele><time>2026-04-29T08:10:54.001Z</time></trkpt><trkpt lat="42.63235689382931" lon="12.094447821703833"><ele>456.75</ele><time>2026-04-29T08:10:55.001Z</time></trkpt><trkpt lat="42.632355839360756" lon="12.094632879600999"><ele>460.5</ele><time>2026-04-29T08:10:56.001Z</time></trkpt><trkpt lat="42.6323577264938" lon="12.094824465032177"><ele>464.25</ele><time>2026-04-29T08:10:57.001Z</time></trkpt><trkpt lat="42.63235506842835" lon="12.095022475247978"><ele>468.0</ele><time>2026-04-29T08:10:58.001Z</time></trkpt><trkpt lat="42.63234094680097" lon="12.095213834116954"><ele>468.25</ele><time>2026-04-29T08:10:59.001Z</time></trkpt><trkpt lat="42.63233144565763" lon="12.095401090208556"><ele>468.5</ele><time>2026-04-29T08:11:00.001Z</time></trkpt><trkpt lat="42.63233928535006" lon="12.095594110667037"><ele>468.75</ele><time>2026-04-29T08:11:01.001Z</time></trkpt><trkpt lat="42.63236512298156" lon="12.09578664500743"><ele>469.0</ele><time>2026-04-29T08:11:02.001Z</time></trkpt><trkpt lat="42.632399736403855" lon="12.095985141385155"><ele>469.0</ele><time>2026-04-29T08:11:03.001Z</time></trkpt><trkpt lat="42.63243420058691" lon="12.096155451688338"><ele>469.0</ele><time>2026-04-29T08:11:04.001Z</time></trkpt><trkpt lat="42.632480568783315" lon="12.096309988884236"><ele>469.0</ele><time>2026-04-29T08:11:05.001Z</time></trkpt><trkpt lat="42.63254578802213" lon="12.096439073178141"><ele>469.0</ele><time>2026-04-29T08:11:06.001Z</time></trkpt><trkpt lat="42.6326334463198" lon="12.0965413316089"><ele>471.0</ele><time>2026-04-29T08:11:07.001Z</time></trkpt><trkpt lat="42.63273648288991" lon="12.096600036185176"><ele>473.0</ele><time>2026-04-29T08:11:08.001Z</time></trkpt><trkpt lat="42.63285266031006" lon="12.096619253308065"><ele>475.0</ele><time>2026-04-29T08:11:09.001Z</time></trkpt><trkpt lat="42.632971815377" lon="12.096599052475565"><ele>477.0</ele><time>2026-04-29T08:11:10.001Z</time></trkpt><trkpt lat="42.63309145174542" lon="12.096535701682273"><ele>478.8</ele><time>2026-04-29T08:11:11.001Z</time></trkpt><trkpt lat="42.63319287875479" lon="12.096457628334646"><ele>480.6</ele><time>2026-04-29T08:11:12.001Z</time></trkpt><trkpt lat="42.63328232051585" lon="12.0964076574905"><ele>482.40000000000003</ele><time>2026-04-29T08:11:13.001Z</time></trkpt><trkpt lat="42.63336260903029" lon="12.09639142525889"><ele>484.20000000000005</ele><time>2026-04-29T08:11:14.001Z</time></trkpt><trkpt lat="42.63344000716971" lon="12.09642644557036"><ele>486.0</ele><time>2026-04-29T08:11:15.001Z</time></trkpt><trkpt lat="42.63350489207625" lon="12.096489960290715"><ele>484.20000000000005</ele><time>2026-04-29T08:11:16.001Z</time></trkpt><trkpt lat="42.633543948222425" lon="12.096595667997164"><ele>482.40000000000003</ele><time>2026-04-29T08:11:17.001Z</time></trkpt><trkpt lat="42.63352168323501" lon="12.09673262635638"><ele>480.6</ele><time>2026-04-29T08:11:18.001Z</time></trkpt><trkpt lat="42.633506879333126" lon="12.096874370069727"><ele>478.8</ele><time>2026-04-29T08:11:19.001Z</time></trkpt><trkpt lat="42.633499467115215" lon="12.097029757313729"><ele>477.0</ele><time>2026-04-29T08:11:20.001Z</time></trkpt><trkpt lat="42.6334776407069" lon="12.097183693870798"><ele>477.0</ele><time>2026-04-29T08:11:21.001Z</time></trkpt><trkpt lat="42.63345545004115" lon="12.097343239134748"><ele>477.0</ele><time>2026-04-29T08:11:22.001Z</time></trkpt><trkpt lat="42.63343839705516" lon="12.097510521618352"><ele>477.0</ele><time>2026-04-29T08:11:23.001Z</time></trkpt><trkpt lat="42.63342274321534" lon="12.097682409046486"><ele>477.0</ele><time>2026-04-29T08:11:24.001Z</time></trkpt><trkpt lat="42.63341230960291" lon="12.09785285133474"><ele>476.0</ele><time>2026-04-29T08:11:25.001Z</time></trkpt><trkpt lat="42.633421481237285" lon="12.098014405049383"><ele>475.0</ele><time>2026-04-29T08:11:26.001Z</time></trkpt><trkpt lat="42.63345832389852" lon="12.098175280059296"><ele>474.0</ele><time>2026-04-29T08:11:27.001Z</time></trkpt><trkpt lat="42.63352326075098" lon="12.098327773221445"><ele>473.0</ele><time>2026-04-29T08:11:28.001Z</time></trkpt><trkpt lat="42.63360842973774" lon="12.098463816286154"><ele>474.5</ele><time>2026-04-29T08:11:29.001Z</time></trkpt><trkpt lat="42.63370727805131" lon="12.09858213887481"><ele>476.0</ele><time>2026-04-29T08:11:30.001Z</time></trkpt><trkpt lat="42.63380805633377" lon="12.09867878297058"><ele>477.5</ele><time>2026-04-29T08:11:31.001Z</time></trkpt><trkpt lat="42.63390237938074" lon="12.098753886914318"><ele>479.0</ele><time>2026-04-29T08:11:32.001Z</time></trkpt><trkpt lat="42.63398581846515" lon="12.09880702064466"><ele>479.0</ele><time>2026-04-29T08:11:33.001Z</time></trkpt><trkpt lat="42.6340473417894" lon="12.098855980792226"><ele>479.0</ele><time>2026-04-29T08:11:34.001Z</time></trkpt><trkpt lat="42.634097606615455" lon="12.099037083671416"><ele>479.0</ele><time>2026-04-29T08:11:36.001Z</time></trkpt><trkpt lat="42.63407201894" lon="12.099140392899468"><ele>479.0</ele><time>2026-04-29T08:11:37.001Z</time></trkpt><trkpt lat="42.634012446288324" lon="12.099249925535547"><ele>479.0</ele><time>2026-04-29T08:11:38.001Z</time></trkpt><trkpt lat="42.63396978907997" lon="12.099410137614509"><ele>478.5</ele><time>2026-04-29T08:11:39.001Z</time></trkpt><trkpt lat="42.63392467161765" lon="12.099568048091612"><ele>478.0</ele><time>2026-04-29T08:11:40.001Z</time></trkpt><trkpt lat="42.633884930485344" lon="12.09973513835537"><ele>477.5</ele><time>2026-04-29T08:11:41.001Z</time></trkpt><trkpt lat="42.63385865288694" lon="12.099923393705229"><ele>477.0</ele><time>2026-04-29T08:11:42.001Z</time></trkpt><trkpt lat="42.63384894337779" lon="12.100118294410986"><ele>476.25</ele><time>2026-04-29T08:11:43.001Z</time></trkpt><trkpt lat="42.63385289908409" lon="12.100313980648835"><ele>475.5</ele><time>2026-04-29T08:11:44.001Z</time></trkpt><trkpt lat="42.63386751985209" lon="12.100506153622938"><ele>474.75</ele><time>2026-04-29T08:11:45.001Z</time></trkpt><trkpt lat="42.63389812973198" lon="12.100686202589905"><ele>474.0</ele><time>2026-04-29T08:11:46.001Z</time></trkpt><trkpt lat="42.63395142347981" lon="12.100862453459492"><ele>474.0</ele><time>2026-04-29T08:11:47.001Z</time></trkpt><trkpt lat="42.63401256209632" lon="12.10104152170599"><ele>474.0</ele><time>2026-04-29T08:11:48.001Z</time></trkpt><trkpt lat="42.634083787109134" lon="12.101223727894503"><ele>474.0</ele><time>2026-04-29T08:11:49.001Z</time></trkpt><trkpt lat="42.63414968666086" lon="12.101400539614064"><ele>474.0</ele><time>2026-04-29T08:11:50.001Z</time></trkpt><trkpt lat="42.634206912874866" lon="12.10158014914475"><ele>474.25</ele><time>2026-04-29T08:11:51.001Z</time></trkpt><trkpt lat="42.63425375183565" lon="12.1017545982663"><ele>474.5</ele><time>2026-04-29T08:11:52.001Z</time></trkpt><trkpt lat="42.63429655583061" lon="12.101935734528642"><ele>474.75</ele><time>2026-04-29T08:11:53.001Z</time></trkpt><trkpt lat="42.63433287094502" lon="12.10211367018201"><ele>475.0</ele><time>2026-04-29T08:11:54.001Z</time></trkpt><trkpt lat="42.634357066487425" lon="12.102292504707616"><ele>474.25</ele><time>2026-04-29T08:11:55.001Z</time></trkpt><trkpt lat="42.63437562604849" lon="12.10246693429615"><ele>473.5</ele><time>2026-04-29T08:11:56.001Z</time></trkpt><trkpt lat="42.634399635489864" lon="12.102639376020996"><ele>472.75</ele><time>2026-04-29T08:11:57.001Z</time></trkpt><trkpt lat="42.63442402587938" lon="12.102807067946747"><ele>472.0</ele><time>2026-04-29T08:11:58.001Z</time></trkpt><trkpt lat="42.63444903120687" lon="12.102973761503296"><ele>472.0</ele><time>2026-04-29T08:11:59.001Z</time></trkpt><trkpt lat="42.63447418004825" lon="12.10314092655157"><ele>472.0</ele><time>2026-04-29T08:12:00.001Z</time></trkpt><trkpt lat="42.634497647472976" lon="12.103294835028828"><ele>472.0</ele><time>2026-04-29T08:12:01.001Z</time></trkpt><trkpt lat="42.63451196538378" lon="12.103441519751023"><ele>472.0</ele><time>2026-04-29T08:12:02.001Z</time></trkpt><trkpt lat="42.634524566417305" lon="12.103581823962083"><ele>472.0</ele><time>2026-04-29T08:12:03.001Z</time></trkpt><trkpt lat="42.634542724965954" lon="12.103723759468393"><ele>472.0</ele><time>2026-04-29T08:12:04.001Z</time></trkpt><trkpt lat="42.63456545499225" lon="12.103874785238952"><ele>472.0</ele><time>2026-04-29T08:12:05.001Z</time></trkpt><trkpt lat="42.63458488363843" lon="12.104027525645275"><ele>472.0</ele><time>2026-04-29T08:12:06.001Z</time></trkpt><trkpt lat="42.63460438946136" lon="12.104189508954791"><ele>471.25</ele><time>2026-04-29T08:12:07.001Z</time></trkpt><trkpt lat="42.634625689705146" lon="12.10435545617298"><ele>470.5</ele><time>2026-04-29T08:12:08.001Z</time></trkpt><trkpt lat="42.634646359300646" lon="12.104527415731315"><ele>469.75</ele><time>2026-04-29T08:12:09.001Z</time></trkpt><trkpt lat="42.63466781939241" lon="12.10471077660269"><ele>469.0</ele><time>2026-04-29T08:12:10.001Z</time></trkpt><trkpt lat="42.634692555092606" lon="12.104899514162186"><ele>468.75</ele><time>2026-04-29T08:12:11.001Z</time></trkpt><trkpt lat="42.63471692853552" lon="12.10509166162943"><ele>468.5</ele><time>2026-04-29T08:12:12.001Z</time></trkpt><trkpt lat="42.63474017006777" lon="12.105279052412916"><ele>468.25</ele><time>2026-04-29T08:12:13.001Z</time></trkpt><trkpt lat="42.63476168818368" lon="12.105467849566612"><ele>468.0</ele><time>2026-04-29T08:12:14.001Z</time></trkpt><trkpt lat="42.63478230856492" lon="12.105654149653844"><ele>467.5</ele><time>2026-04-29T08:12:15.001Z</time></trkpt><trkpt lat="42.634803275728196" lon="12.105838213998426"><ele>467.0</ele><time>2026-04-29T08:12:16.001Z</time></trkpt><trkpt lat="42.634830713149114" lon="12.106022772681467"><ele>466.5</ele><time>2026-04-29T08:12:17.001Z</time></trkpt><trkpt lat="42.63486377496907" lon="12.106210423763216"><ele>466.0</ele><time>2026-04-29T08:12:18.001Z</time></trkpt><trkpt lat="42.634903831634226" lon="12.106397174727416"><ele>464.75</ele><time>2026-04-29T08:12:19.001Z</time></trkpt><trkpt lat="42.634952736784115" lon="12.106583621965736"><ele>463.5</ele><time>2026-04-29T08:12:20.001Z</time></trkpt><trkpt lat="42.6350073277919" lon="12.106768596592167"><ele>462.25</ele><time>2026-04-29T08:12:21.001Z</time></trkpt><trkpt lat="42.63506937457682" lon="12.106953402155876"><ele>461.0</ele><time>2026-04-29T08:12:22.001Z</time></trkpt><trkpt lat="42.63513112978423" lon="12.107127639649558"><ele>461.0</ele><time>2026-04-29T08:12:23.001Z</time></trkpt><trkpt lat="42.635194195936776" lon="12.107291763627611"><ele>461.0</ele><time>2026-04-29T08:12:24.001Z</time></trkpt><trkpt lat="42.63526589966484" lon="12.107462774827445"><ele>461.0</ele><time>2026-04-29T08:12:25.001Z</time></trkpt><trkpt lat="42.635333717002" lon="12.107619867454614"><ele>461.0</ele><time>2026-04-29T08:12:26.001Z</time></trkpt><trkpt lat="42.635399087909335" lon="12.107768953607067"><ele>460.8</ele><time>2026-04-29T08:12:27.001Z</time></trkpt><trkpt lat="42.635460233950496" lon="12.10791120239457"><ele>460.6</ele><time>2026-04-29T08:12:28.001Z</time></trkpt><trkpt lat="42.63551536713348" lon="12.10804486976087"><ele>460.4</ele><time>2026-04-29T08:12:29.001Z</time></trkpt><trkpt lat="42.63556081379214" lon="12.10816530945922"><ele>460.2</ele><time>2026-04-29T08:12:30.001Z</time></trkpt><trkpt lat="42.63559894099121" lon="12.108278021552845"><ele>460.0</ele><time>2026-04-29T08:12:31.001Z</time></trkpt><trkpt lat="42.635631595179206" lon="12.10838757203098"><ele>460.00000000000006</ele><time>2026-04-29T08:12:32.001Z</time></trkpt><trkpt lat="42.635658233360026" lon="12.108490111921364"><ele>460.0</ele><time>2026-04-29T08:12:33.001Z</time></trkpt><trkpt lat="42.63567979034061" lon="12.108587015532235"><ele>460.0</ele><time>2026-04-29T08:12:34.001Z</time></trkpt><trkpt lat="42.635717748813704" lon="12.10873039683034"><ele>460.0</ele><time>2026-04-29T08:12:36.001Z</time></trkpt><trkpt lat="42.63570734293679" lon="12.108847893361174"><ele>460.00000000000006</ele><time>2026-04-29T08:12:38.001Z</time></trkpt><trkpt lat="42.63568826511531" lon="12.108942952492203"><ele>460.0</ele><time>2026-04-29T08:12:40.001Z</time></trkpt><trkpt lat="42.63572663381522" lon="12.109049910804423"><ele>460.00000000000006</ele><time>2026-04-29T08:12:43.001Z</time></trkpt><trkpt lat="42.63566023917211" lon="12.109093560540494"><ele>460.0</ele><time>2026-04-29T08:15:23.002Z</time></trkpt><trkpt lat="42.63567139612656" lon="12.108980657513085"><ele>460.0</ele><time>2026-04-29T08:16:19.001Z</time></trkpt><trkpt lat="42.63561584074286" lon="12.108889230371648"><ele>460.0</ele><time>2026-04-29T08:16:38.001Z</time></trkpt><trkpt lat="42.63568942114236" lon="12.108850605134322"><ele>460.00000000000006</ele><time>2026-04-29T08:17:25.001Z</time></trkpt><trkpt lat="42.63563507433893" lon="12.108795680690017"><ele>460.0</ele><time>2026-04-29T08:18:37Z</time></trkpt><trkpt lat="42.635597402088806" lon="12.108866796448776"><ele>460.0</ele><time>2026-04-29T08:19:25.001Z</time></trkpt><trkpt lat="42.6356577417538" lon="12.109006222555657"><ele>460.0</ele><time>2026-04-29T08:20:53.001Z</time></trkpt><trkpt lat="42.63571731940436" lon="12.109113862286822"><ele>460.0</ele><time>2026-04-29T08:21:53.001Z</time></trkpt><trkpt lat="42.635781011750204" lon="12.109123767610344"><ele>460.0</ele><time>2026-04-29T08:22:02.001Z</time></trkpt><trkpt lat="42.63585010241469" lon="12.109170165166326"><ele>460.0</ele><time>2026-04-29T08:22:06.001Z</time></trkpt><trkpt lat="42.635905088158125" lon="12.109292651945731"><ele>457.33333333333337</ele><time>2026-04-29T08:22:08.001Z</time></trkpt><trkpt lat="42.63593311916372" lon="12.109374241285122"><ele>454.6666666666667</ele><time>2026-04-29T08:22:09.001Z</time></trkpt><trkpt lat="42.63597715262545" lon="12.109455240582111"><ele>452.0</ele><time>2026-04-29T08:22:10.001Z</time></trkpt><trkpt lat="42.63601674410895" lon="12.109558286770863"><ele>449.33333333333337</ele><time>2026-04-29T08:22:11.001Z</time></trkpt><trkpt lat="42.63605819095" lon="12.109641860633426"><ele>446.6666666666667</ele><time>2026-04-29T08:22:12.001Z</time></trkpt><trkpt lat="42.63609187096801" lon="12.109723187902674"><ele>444.0</ele><time>2026-04-29T08:22:13.001Z</time></trkpt><trkpt lat="42.636133096569296" lon="12.10989148071388"><ele>443.6</ele><time>2026-04-29T08:22:15.001Z</time></trkpt><trkpt lat="42.636164369534775" lon="12.110027537004964"><ele>443.2</ele><time>2026-04-29T08:22:17.001Z</time></trkpt><trkpt lat="42.63616583301987" lon="12.110134752490463"><ele>442.80000000000007</ele><time>2026-04-29T08:22:19.001Z</time></trkpt><trkpt lat="42.63621780659292" lon="12.110239351782585"><ele>442.40000000000003</ele><time>2026-04-29T08:22:22.001Z</time></trkpt><trkpt lat="42.636287745504525" lon="12.110241442513951"><ele>442.0</ele><time>2026-04-29T08:22:32.001Z</time></trkpt><trkpt lat="42.63624100496807" lon="12.110030318205151"><ele>442.00000000000006</ele><time>2026-04-29T08:22:36.001Z</time></trkpt><trkpt lat="42.636240835262264" lon="12.109933268253934"><ele>442.0</ele><time>2026-04-29T08:22:39.001Z</time></trkpt><trkpt lat="42.636308610757254" lon="12.109880339163954"><ele>442.0</ele><time>2026-04-29T08:22:41.001Z</time></trkpt><trkpt lat="42.63638696360646" lon="12.109833512173894"><ele>442.0</ele><time>2026-04-29T08:22:43.001Z</time></trkpt><trkpt lat="42.63645678439837" lon="12.10982166852102"><ele>442.00000000000006</ele><time>2026-04-29T08:22:45.001Z</time></trkpt><trkpt lat="42.63654880606965" lon="12.1097887594023"><ele>442.0</ele><time>2026-04-29T08:22:48.001Z</time></trkpt><trkpt lat="42.63661297370376" lon="12.109778208316937"><ele>442.00000000000006</ele><time>2026-04-29T08:22:54.001Z</time></trkpt><trkpt lat="42.636543955751044" lon="12.109766106974153"><ele>442.0</ele><time>2026-04-29T08:26:43Z</time></trkpt><trkpt lat="42.63645351264272" lon="12.109771573701376"><ele>442.0</ele><time>2026-04-29T08:26:45Z</time></trkpt><trkpt lat="42.63635811695852" lon="12.10980089599156"><ele>442.0</ele><time>2026-04-29T08:26:47Z</time></trkpt><trkpt lat="42.63629358244581" lon="12.109851637523947"><ele>442.00000000000006</ele><time>2026-04-29T08:26:49Z</time></trkpt><trkpt lat="42.63624518166411" lon="12.10991463317367"><ele>442.0</ele><time>2026-04-29T08:26:51.001Z</time></trkpt><trkpt lat="42.63624697644063" lon="12.110246757281868"><ele>442.00000000000006</ele><time>2026-04-29T08:27:03.001Z</time></trkpt><trkpt lat="42.63624315903766" lon="12.110397049971612"><ele>442.0</ele><time>2026-04-29T08:27:05.001Z</time></trkpt><trkpt lat="42.63625286517219" lon="12.110482009515664"><ele>442.0</ele><time>2026-04-29T08:27:06.001Z</time></trkpt><trkpt lat="42.63627011349997" lon="12.110600614302411"><ele>442.0</ele><time>2026-04-29T08:27:08.001Z</time></trkpt><trkpt lat="42.6362855035565" lon="12.110703986179088"><ele>442.00000000000006</ele><time>2026-04-29T08:27:12.001Z</time></trkpt><trkpt lat="42.63631179374953" lon="12.110809331737924"><ele>442.0</ele><time>2026-04-29T08:27:18.001Z</time></trkpt><trkpt lat="42.63629682172857" lon="12.11091529934614"><ele>440.40000000000003</ele><time>2026-04-29T08:27:21.001Z</time></trkpt><trkpt lat="42.636312452380736" lon="12.111050031014488"><ele>438.80000000000007</ele><time>2026-04-29T08:27:24.001Z</time></trkpt><trkpt lat="42.63632794552541" lon="12.111184965873408"><ele>437.2</ele><time>2026-04-29T08:27:26.001Z</time></trkpt><trkpt lat="42.636344926491894" lon="12.111332858837367"><ele>435.6</ele><time>2026-04-29T08:27:28.001Z</time></trkpt><trkpt lat="42.63636249709822" lon="12.111485887050387"><ele>434.0</ele><time>2026-04-29T08:27:30.001Z</time></trkpt><trkpt lat="42.63641100650645" lon="12.111571301840643"><ele>433.4</ele><time>2026-04-29T08:27:31.001Z</time></trkpt><trkpt lat="42.636415783090094" lon="12.111666095038148"><ele>432.79999999999995</ele><time>2026-04-29T08:27:32.001Z</time></trkpt><trkpt lat="42.6364164839255" lon="12.111754614510552"><ele>432.20000000000005</ele><time>2026-04-29T08:27:33.001Z</time></trkpt><trkpt lat="42.636416617913" lon="12.111915501175574"><ele>431.6</ele><time>2026-04-29T08:27:35.001Z</time></trkpt><trkpt lat="42.63640488604873" lon="12.112073513931124"><ele>431.0</ele><time>2026-04-29T08:27:37.001Z</time></trkpt><trkpt lat="42.63637834338196" lon="12.112239112330649"><ele>431.0</ele><time>2026-04-29T08:27:39.001Z</time></trkpt><trkpt lat="42.63633177497905" lon="12.112394505706998"><ele>431.0</ele><time>2026-04-29T08:27:41.001Z</time></trkpt><trkpt lat="42.636309921556915" lon="12.112549811203689"><ele>431.0</ele><time>2026-04-29T08:27:43.001Z</time></trkpt><trkpt lat="42.63629960854242" lon="12.112682045099547"><ele>431.0</ele><time>2026-04-29T08:27:45.001Z</time></trkpt><trkpt lat="42.63628192169607" lon="12.112779117191094"><ele>431.0</ele><time>2026-04-29T08:27:47.001Z</time></trkpt><trkpt lat="42.63627218108935" lon="12.112871730600864"><ele>431.3333333333333</ele><time>2026-04-29T08:27:49.001Z</time></trkpt><trkpt lat="42.63625543831991" lon="12.112956316157375"><ele>431.66666666666663</ele><time>2026-04-29T08:27:51.001Z</time></trkpt><trkpt lat="42.63624612709816" lon="12.113047043611317"><ele>432.0</ele><time>2026-04-29T08:27:53.001Z</time></trkpt><trkpt lat="42.636215222758736" lon="12.113126541745068"><ele>432.33333333333337</ele><time>2026-04-29T08:27:55.001Z</time></trkpt><trkpt lat="42.63619190030183" lon="12.113223544008656"><ele>432.6666666666667</ele><time>2026-04-29T08:27:57.001Z</time></trkpt><trkpt lat="42.63614512281193" lon="12.11333644696686"><ele>433.0</ele><time>2026-04-29T08:28:00.001Z</time></trkpt><trkpt lat="42.63609889940551" lon="12.113438616485748"><ele>428.79999999999995</ele><time>2026-04-29T08:28:03.001Z</time></trkpt><trkpt lat="42.636061019503316" lon="12.113516315076502"><ele>424.59999999999997</ele><time>2026-04-29T08:28:06.001Z</time></trkpt><trkpt lat="42.636038705387676" lon="12.113600445334972"><ele>420.4</ele><time>2026-04-29T08:28:09.001Z</time></trkpt><trkpt lat="42.635838443284015" lon="12.11356526207742"><ele>416.20000000000005</ele><time>2026-04-29T08:29:34.001Z</time></trkpt><trkpt lat="42.63589899729528" lon="12.113526981566073"><ele>412.0</ele><time>2026-04-29T08:30:04.001Z</time></trkpt><trkpt lat="42.63595088535029" lon="12.113605068781906"><ele>411.99999999999994</ele><time>2026-04-29T08:31:25.001Z</time></trkpt><trkpt lat="42.63593435124362" lon="12.113699197384609"><ele>412.0</ele><time>2026-04-29T08:32:17.001Z</time></trkpt><trkpt lat="42.63589450631674" lon="12.11376666854752"><ele>412.0</ele><time>2026-04-29T08:32:41.001Z</time></trkpt><trkpt lat="42.63594863149669" lon="12.113700493790924"><ele>412.0</ele><time>2026-04-29T08:33:13.001Z</time></trkpt><trkpt lat="42.63596519810387" lon="12.113612403416278"><ele>412.0</ele><time>2026-04-29T08:33:19.001Z</time></trkpt><trkpt lat="42.63599199385631" lon="12.1135316069822"><ele>411.99999999999994</ele><time>2026-04-29T08:34:01.001Z</time></trkpt><trkpt lat="42.636031653543775" lon="12.113434035668119"><ele>412.0</ele><time>2026-04-29T08:34:03.001Z</time></trkpt><trkpt lat="42.63609430526653" lon="12.113504410254135"><ele>412.00000000000006</ele><time>2026-04-29T08:34:08.001Z</time></trkpt><trkpt lat="42.63606179645343" lon="12.113584427475649"><ele>412.0</ele><time>2026-04-29T08:34:12.001Z</time></trkpt><trkpt lat="42.636044277345256" lon="12.1137008010164"><ele>412.0</ele><time>2026-04-29T08:34:15.001Z</time></trkpt><trkpt lat="42.636008537231746" lon="12.113777052512079"><ele>412.0</ele><time>2026-04-29T08:34:17.001Z</time></trkpt><trkpt lat="42.63598395996763" lon="12.113877928204287"><ele>412.00000000000006</ele><time>2026-04-29T08:34:19.001Z</time></trkpt><trkpt lat="42.63595418536232" lon="12.113982477254773"><ele>412.0</ele><time>2026-04-29T08:34:21.001Z</time></trkpt><trkpt lat="42.63591995070947" lon="12.114079410841287"><ele>414.6666666666667</ele><time>2026-04-29T08:34:23.001Z</time></trkpt><trkpt lat="42.63588796427207" lon="12.114175301465886"><ele>417.33333333333337</ele><time>2026-04-29T08:34:25.001Z</time></trkpt><trkpt lat="42.63587761343857" lon="12.114283983896925"><ele>420.0</ele><time>2026-04-29T08:34:27.001Z</time></trkpt><trkpt lat="42.63586189641862" lon="12.114375008486732"><ele>422.66666666666663</ele><time>2026-04-29T08:34:29.001Z</time></trkpt><trkpt lat="42.63583538306576" lon="12.114457946344599"><ele>425.3333333333333</ele><time>2026-04-29T08:35:12.001Z</time></trkpt><trkpt lat="42.63578897562202" lon="12.114522946725629"><ele>428.0</ele><time>2026-04-29T08:35:13.001Z</time></trkpt><trkpt lat="42.63573286903574" lon="12.114631419417698"><ele>427.99999999999994</ele><time>2026-04-29T08:35:15.001Z</time></trkpt><trkpt lat="42.635697611874605" lon="12.1147298522843"><ele>428.0</ele><time>2026-04-29T08:35:17.001Z</time></trkpt><trkpt lat="42.635661286749006" lon="12.11486130866064"><ele>428.0</ele><time>2026-04-29T08:35:19.001Z</time></trkpt><trkpt lat="42.6356399089788" lon="12.114950360242792"><ele>428.0</ele><time>2026-04-29T08:35:21.001Z</time></trkpt><trkpt lat="42.63560906720114" lon="12.115076492220203"><ele>427.99999999999994</ele><time>2026-04-29T08:35:24.001Z</time></trkpt><trkpt lat="42.63557722239842" lon="12.11519756457737"><ele>428.0</ele><time>2026-04-29T08:35:26.001Z</time></trkpt><trkpt lat="42.635563259695196" lon="12.115360504560348"><ele>428.79999999999995</ele><time>2026-04-29T08:35:28.001Z</time></trkpt><trkpt lat="42.63555505547851" lon="12.115516098803925"><ele>429.59999999999997</ele><time>2026-04-29T08:35:30.001Z</time></trkpt><trkpt lat="42.635520526690456" lon="12.115637526201471"><ele>430.40000000000003</ele><time>2026-04-29T08:35:32.001Z</time></trkpt><trkpt lat="42.63550555436047" lon="12.11574899266336"><ele>431.20000000000005</ele><time>2026-04-29T08:35:34.001Z</time></trkpt><trkpt lat="42.635504834203445" lon="12.115875950240271"><ele>432.0</ele><time>2026-04-29T08:35:36.001Z</time></trkpt><trkpt lat="42.635491314552134" lon="12.11597559298681"><ele>432.0</ele><time>2026-04-29T08:35:38.001Z</time></trkpt><trkpt lat="42.63546324425776" lon="12.116104119377006"><ele>432.0</ele><time>2026-04-29T08:35:40.001Z</time></trkpt><trkpt lat="42.63545359322344" lon="12.116239312048293"><ele>432.0</ele><time>2026-04-29T08:35:42.001Z</time></trkpt><trkpt lat="42.63543688543747" lon="12.116335607222748"><ele>432.0</ele><time>2026-04-29T08:35:44.001Z</time></trkpt><trkpt lat="42.63540547275754" lon="12.116418341043808"><ele>432.0</ele><time>2026-04-29T08:35:46.001Z</time></trkpt><trkpt lat="42.635404450229096" lon="12.11653213206249"><ele>432.0</ele><time>2026-04-29T08:35:49.001Z</time></trkpt><trkpt lat="42.63542597548449" lon="12.116664330024147"><ele>431.5</ele><time>2026-04-29T08:35:51.001Z</time></trkpt><trkpt lat="42.635465869380916" lon="12.116812057049643"><ele>431.0</ele><time>2026-04-29T08:35:53.001Z</time></trkpt><trkpt lat="42.63550154797921" lon="12.116900200265857"><ele>430.5</ele><time>2026-04-29T08:35:54.001Z</time></trkpt><trkpt lat="42.63554402014327" lon="12.11699183156384"><ele>430.0</ele><time>2026-04-29T08:35:55.001Z</time></trkpt><trkpt lat="42.63558488966733" lon="12.11708274847416"><ele>429.5</ele><time>2026-04-29T08:35:56.001Z</time></trkpt><trkpt lat="42.63563441835562" lon="12.117176159600973"><ele>429.0</ele><time>2026-04-29T08:35:57.001Z</time></trkpt><trkpt lat="42.63568598762627" lon="12.11727392274079"><ele>429.0</ele><time>2026-04-29T08:35:58.001Z</time></trkpt><trkpt lat="42.63573940033062" lon="12.117371261830915"><ele>429.0</ele><time>2026-04-29T08:35:59.001Z</time></trkpt><trkpt lat="42.63579287317264" lon="12.117474513276163"><ele>429.0</ele><time>2026-04-29T08:36:00.001Z</time></trkpt><trkpt lat="42.635836021073054" lon="12.117569010978432"><ele>429.0</ele><time>2026-04-29T08:36:01.001Z</time></trkpt><trkpt lat="42.63587621380651" lon="12.117662906141785"><ele>429.0</ele><time>2026-04-29T08:36:02.001Z</time></trkpt><trkpt lat="42.63591525165107" lon="12.117748340658295"><ele>429.0</ele><time>2026-04-29T08:36:03.001Z</time></trkpt><trkpt lat="42.63594787604564" lon="12.117822171363763"><ele>429.5</ele><time>2026-04-29T08:36:04.001Z</time></trkpt><trkpt lat="42.63597929731292" lon="12.117950407927202"><ele>430.0</ele><time>2026-04-29T08:36:06.001Z</time></trkpt><trkpt lat="42.63604634556328" lon="12.118030111205398"><ele>430.5</ele><time>2026-04-29T08:36:08.001Z</time></trkpt><trkpt lat="42.63610792954183" lon="12.118084955446157"><ele>431.0</ele><time>2026-04-29T08:36:11.001Z</time></trkpt><trkpt lat="42.63613462393042" lon="12.11818316980046"><ele>431.5</ele><time>2026-04-29T08:36:14.001Z</time></trkpt><trkpt lat="42.63616651424967" lon="12.118260316153059"><ele>432.0</ele><time>2026-04-29T08:36:17.001Z</time></trkpt><trkpt lat="42.63620810909897" lon="12.118334455434672"><ele>432.0</ele><time>2026-04-29T08:36:21.001Z</time></trkpt><trkpt lat="42.636203718242534" lon="12.11821217606025"><ele>432.00000000000006</ele><time>2026-04-29T08:36:25.001Z</time></trkpt><trkpt lat="42.636124903043935" lon="12.118143465288693"><ele>432.00000000000006</ele><time>2026-04-29T08:36:27.001Z</time></trkpt><trkpt lat="42.636072028956114" lon="12.11803676547331"><ele>432.0</ele><time>2026-04-29T08:36:29.001Z</time></trkpt><trkpt lat="42.636006269264115" lon="12.117911055971543"><ele>432.0</ele><time>2026-04-29T08:36:31.001Z</time></trkpt><trkpt lat="42.63593028331624" lon="12.117764609121823"><ele>432.0</ele><time>2026-04-29T08:36:33.001Z</time></trkpt><trkpt lat="42.635885805460035" lon="12.117678539284967"><ele>432.0</ele><time>2026-04-29T08:36:34.001Z</time></trkpt><trkpt lat="42.63584423045384" lon="12.11759734131508"><ele>432.0</ele><time>2026-04-29T08:36:35.001Z</time></trkpt><trkpt lat="42.635798745669355" lon="12.117488597989038"><ele>432.0</ele><time>2026-04-29T08:36:36.001Z</time></trkpt><trkpt lat="42.63575341150103" lon="12.117404631259308"><ele>432.0</ele><time>2026-04-29T08:36:37.001Z</time></trkpt><trkpt lat="42.635705953891566" lon="12.117329664004286"><ele>432.0</ele><time>2026-04-29T08:36:38.001Z</time></trkpt><trkpt lat="42.63566545543016" lon="12.117243500143507"><ele>431.5</ele><time>2026-04-29T08:36:39.001Z</time></trkpt><trkpt lat="42.635623813567214" lon="12.117169968284903"><ele>431.0</ele><time>2026-04-29T08:36:40.001Z</time></trkpt><trkpt lat="42.63558052962495" lon="12.11708661777175"><ele>430.5</ele><time>2026-04-29T08:36:41.001Z</time></trkpt><trkpt lat="42.63553947459265" lon="12.116990361393977"><ele>430.0</ele><time>2026-04-29T08:36:42.001Z</time></trkpt><trkpt lat="42.635495975986025" lon="12.116880108499117"><ele>429.5</ele><time>2026-04-29T08:36:43.001Z</time></trkpt><trkpt lat="42.635460215117334" lon="12.116757734677897"><ele>429.0</ele><time>2026-04-29T08:36:44.001Z</time></trkpt><trkpt lat="42.63544186596649" lon="12.116627033283464"><ele>429.6</ele><time>2026-04-29T08:36:45.001Z</time></trkpt><trkpt lat="42.63544080735504" lon="12.116490318858903"><ele>430.2</ele><time>2026-04-29T08:36:46.001Z</time></trkpt><trkpt lat="42.63545178620532" lon="12.116337885721041"><ele>430.80000000000007</ele><time>2026-04-29T08:36:47.001Z</time></trkpt><trkpt lat="42.635466275707856" lon="12.116209948889887"><ele>431.40000000000003</ele><time>2026-04-29T08:36:48.001Z</time></trkpt><trkpt lat="42.635475511815834" lon="12.11611117909346"><ele>432.0</ele><time>2026-04-29T08:36:49.001Z</time></trkpt><trkpt lat="42.635492421301045" lon="12.115965264880026"><ele>432.0</ele><time>2026-04-29T08:36:51.001Z</time></trkpt><trkpt lat="42.635514542677925" lon="12.115884859225513"><ele>432.0</ele><time>2026-04-29T08:36:54Z</time></trkpt><trkpt lat="42.63552927568158" lon="12.115797519784412"><ele>432.0</ele><time>2026-04-29T08:36:59Z</time></trkpt><trkpt lat="42.63559097558954" lon="12.11572139149523"><ele>432.0</ele><time>2026-04-29T08:37:41Z</time></trkpt><trkpt lat="42.63557875591757" lon="12.115570727295681"><ele>432.0</ele><time>2026-04-29T08:37:43Z</time></trkpt><trkpt lat="42.63561652672715" lon="12.115408195987605"><ele>432.0</ele><time>2026-04-29T08:37:45Z</time></trkpt><trkpt lat="42.63563035913298" lon="12.115298715575582"><ele>432.0</ele><time>2026-04-29T08:37:46Z</time></trkpt><trkpt lat="42.63564600029024" lon="12.11518496496479"><ele>432.00000000000006</ele><time>2026-04-29T08:37:47Z</time></trkpt><trkpt lat="42.63565495811183" lon="12.115063408112793"><ele>432.00000000000006</ele><time>2026-04-29T08:37:48Z</time></trkpt><trkpt lat="42.63568199011734" lon="12.114947654473518"><ele>432.0</ele><time>2026-04-29T08:37:49Z</time></trkpt><trkpt lat="42.63571174614414" lon="12.114825298919651"><ele>432.0</ele><time>2026-04-29T08:37:50Z</time></trkpt><trkpt lat="42.635745427089994" lon="12.114708298954382"><ele>431.20000000000005</ele><time>2026-04-29T08:37:51Z</time></trkpt><trkpt lat="42.63578825865567" lon="12.114603121581636"><ele>430.40000000000003</ele><time>2026-04-29T08:37:52Z</time></trkpt><trkpt lat="42.6358352508527" lon="12.11449373450848"><ele>429.59999999999997</ele><time>2026-04-29T08:37:53Z</time></trkpt><trkpt lat="42.635875976587954" lon="12.11438534435285"><ele>428.79999999999995</ele><time>2026-04-29T08:37:54Z</time></trkpt><trkpt lat="42.635912228478915" lon="12.114272062472734"><ele>428.0</ele><time>2026-04-29T08:37:55Z</time></trkpt><trkpt lat="42.63594396385694" lon="12.114153844299558"><ele>424.79999999999995</ele><time>2026-04-29T08:37:56Z</time></trkpt><trkpt lat="42.63597561238965" lon="12.114038043827545"><ele>421.59999999999997</ele><time>2026-04-29T08:37:57Z</time></trkpt><trkpt lat="42.636004356369256" lon="12.113915104379137"><ele>418.4</ele><time>2026-04-29T08:37:58Z</time></trkpt><trkpt lat="42.636034771229774" lon="12.113794333899852"><ele>415.20000000000005</ele><time>2026-04-29T08:37:59.001Z</time></trkpt><trkpt lat="42.636067801757456" lon="12.113677778175088"><ele>412.0</ele><time>2026-04-29T08:38:00Z</time></trkpt><trkpt lat="42.63610226156513" lon="12.113556749146255"><ele>412.00000000000006</ele><time>2026-04-29T08:38:01Z</time></trkpt><trkpt lat="42.63613447384185" lon="12.113442634595254"><ele>412.0</ele><time>2026-04-29T08:38:02Z</time></trkpt><trkpt lat="42.6361710948415" lon="12.113334310833547"><ele>412.0</ele><time>2026-04-29T08:38:03Z</time></trkpt><trkpt lat="42.636212544964195" lon="12.113226426105594"><ele>412.0</ele><time>2026-04-29T08:38:04Z</time></trkpt><trkpt lat="42.63624437806393" lon="12.113115384571069"><ele>412.00000000000006</ele><time>2026-04-29T08:38:05Z</time></trkpt><trkpt lat="42.6362724399214" lon="12.11300222724917"><ele>412.0</ele><time>2026-04-29T08:38:06.001Z</time></trkpt><trkpt lat="42.63629312038958" lon="12.112883803545039"><ele>415.8</ele><time>2026-04-29T08:38:07.001Z</time></trkpt><trkpt lat="42.63631658540421" lon="12.112763759360087"><ele>419.6</ele><time>2026-04-29T08:38:08.001Z</time></trkpt><trkpt lat="42.63633269315298" lon="12.112638094541948"><ele>423.40000000000003</ele><time>2026-04-29T08:38:09.001Z</time></trkpt><trkpt lat="42.636353084670965" lon="12.112517240500791"><ele>427.20000000000005</ele><time>2026-04-29T08:38:10.001Z</time></trkpt><trkpt lat="42.63636689894761" lon="12.112397495472601"><ele>431.0</ele><time>2026-04-29T08:38:11.001Z</time></trkpt><trkpt lat="42.636387258261664" lon="12.112275556926686"><ele>430.99999999999994</ele><time>2026-04-29T08:38:12.001Z</time></trkpt><trkpt lat="42.636406769144266" lon="12.11215530295461"><ele>431.0</ele><time>2026-04-29T08:38:13.001Z</time></trkpt><trkpt lat="42.636424550402744" lon="12.112037695169262"><ele>431.0</ele><time>2026-04-29T08:38:14.001Z</time></trkpt><trkpt lat="42.63643637047042" lon="12.111922991651092"><ele>431.0</ele><time>2026-04-29T08:38:15.001Z</time></trkpt><trkpt lat="42.63643974332849" lon="12.11181890289667"><ele>430.99999999999994</ele><time>2026-04-29T08:38:16.001Z</time></trkpt><trkpt lat="42.636434556705574" lon="12.1117224422494"><ele>431.0</ele><time>2026-04-29T08:38:17.001Z</time></trkpt><trkpt lat="42.63642776213073" lon="12.111632655091066"><ele>431.49999999999994</ele><time>2026-04-29T08:38:18.001Z</time></trkpt><trkpt lat="42.636424032126094" lon="12.111546987365132"><ele>432.0</ele><time>2026-04-29T08:38:19.001Z</time></trkpt><trkpt lat="42.63641544189717" lon="12.111450873518523"><ele>432.5</ele><time>2026-04-29T08:38:20.001Z</time></trkpt><trkpt lat="42.63640068809326" lon="12.111341630861013"><ele>433.0</ele><time>2026-04-29T08:38:21.001Z</time></trkpt><trkpt lat="42.63638503020003" lon="12.111226616707127"><ele>433.49999999999994</ele><time>2026-04-29T08:38:22.001Z</time></trkpt><trkpt lat="42.6363715596302" lon="12.111105135958592"><ele>434.0</ele><time>2026-04-29T08:38:23.001Z</time></trkpt><trkpt lat="42.63636193577698" lon="12.110984986554463"><ele>434.0</ele><time>2026-04-29T08:38:24.001Z</time></trkpt><trkpt lat="42.636353421939454" lon="12.110872548909942"><ele>434.0</ele><time>2026-04-29T08:38:25.001Z</time></trkpt><trkpt lat="42.63634267992015" lon="12.110771404052223"><ele>434.0</ele><time>2026-04-29T08:38:26.001Z</time></trkpt><trkpt lat="42.636334259806866" lon="12.110678149940847"><ele>434.0</ele><time>2026-04-29T08:38:27.001Z</time></trkpt><trkpt lat="42.63632030406174" lon="12.110586982580287"><ele>434.0</ele><time>2026-04-29T08:38:28.001Z</time></trkpt><trkpt lat="42.636307053334335" lon="12.11048907021908"><ele>434.0</ele><time>2026-04-29T08:38:29.001Z</time></trkpt><trkpt lat="42.63629048939727" lon="12.110386316981225"><ele>434.0</ele><time>2026-04-29T08:38:30.001Z</time></trkpt><trkpt lat="42.63628327327127" lon="12.1103003770725"><ele>435.6</ele><time>2026-04-29T08:38:31.001Z</time></trkpt><trkpt lat="42.63627154283329" lon="12.110194449956362"><ele>437.2</ele><time>2026-04-29T08:38:33.001Z</time></trkpt><trkpt lat="42.6364188826891" lon="12.110120747863975"><ele>438.80000000000007</ele><time>2026-04-29T08:38:35.001Z</time></trkpt><trkpt lat="42.636491751095406" lon="12.110097132226995"><ele>440.40000000000003</ele><time>2026-04-29T08:38:36.001Z</time></trkpt><trkpt lat="42.63657323092499" lon="12.110065945562386"><ele>442.0</ele><time>2026-04-29T08:38:37.001Z</time></trkpt><trkpt lat="42.636649639607114" lon="12.110019196177486"><ele>442.00000000000006</ele><time>2026-04-29T08:38:38.001Z</time></trkpt><trkpt lat="42.6367228690809" lon="12.1099532694494"><ele>442.0</ele><time>2026-04-29T08:38:39.001Z</time></trkpt><trkpt lat="42.63678195146921" lon="12.109876047839748"><ele>442.0</ele><time>2026-04-29T08:38:40.001Z</time></trkpt><trkpt lat="42.63682621209061" lon="12.109794201692608"><ele>442.0</ele><time>2026-04-29T08:38:41.001Z</time></trkpt><trkpt lat="42.63688950585572" lon="12.109689882066618"><ele>442.00000000000006</ele><time>2026-04-29T08:38:43.001Z</time></trkpt><trkpt lat="42.63692681420111" lon="12.109601022982659"><ele>442.0</ele><time>2026-04-29T08:38:46Z</time></trkpt><trkpt lat="42.63698966103859" lon="12.109495032009015"><ele>440.6</ele><time>2026-04-29T08:40:31Z</time></trkpt><trkpt lat="42.637052778376656" lon="12.109402316717558"><ele>439.20000000000005</ele><time>2026-04-29T08:40:33Z</time></trkpt><trkpt lat="42.637126068666404" lon="12.109318662057436"><ele>437.8</ele><time>2026-04-29T08:40:35Z</time></trkpt><trkpt lat="42.637185312634735" lon="12.109347945003135"><ele>436.4</ele><time>2026-04-29T08:40:36Z</time></trkpt><trkpt lat="42.63726071800175" lon="12.109399130284327"><ele>435.0</ele><time>2026-04-29T08:40:38Z</time></trkpt><trkpt lat="42.63736293098263" lon="12.109483892705413"><ele>435.00000000000006</ele><time>2026-04-29T08:40:40Z</time></trkpt><trkpt lat="42.637417501802766" lon="12.109529778225149"><ele>435.0</ele><time>2026-04-29T08:40:41Z</time></trkpt><trkpt lat="42.63747456420208" lon="12.109577758911419"><ele>435.0</ele><time>2026-04-29T08:40:42Z</time></trkpt><trkpt lat="42.6375300321269" lon="12.10962527190366"><ele>435.0</ele><time>2026-04-29T08:40:43Z</time></trkpt><trkpt lat="42.637586180961904" lon="12.10967351246195"><ele>435.0</ele><time>2026-04-29T08:40:44Z</time></trkpt><trkpt lat="42.6376463756042" lon="12.109725229046463"><ele>435.00000000000006</ele><time>2026-04-29T08:40:45Z</time></trkpt><trkpt lat="42.63771363767577" lon="12.109783355540578"><ele>435.0</ele><time>2026-04-29T08:40:46Z</time></trkpt><trkpt lat="42.63779270512674" lon="12.109853637687927"><ele>437.8</ele><time>2026-04-29T08:40:47Z</time></trkpt><trkpt lat="42.63785608883649" lon="12.10991761518759"><ele>440.6</ele><time>2026-04-29T08:40:48Z</time></trkpt><trkpt lat="42.637900976298255" lon="12.109979702032987"><ele>443.4</ele><time>2026-04-29T08:40:49Z</time></trkpt><trkpt lat="42.63791796104405" lon="12.110125537065503"><ele>446.2</ele><time>2026-04-29T08:40:51Z</time></trkpt><trkpt lat="42.63791393375422" lon="12.110258014202014"><ele>449.0</ele><time>2026-04-29T08:40:53Z</time></trkpt><trkpt lat="42.6379072103293" lon="12.110407738387137"><ele>448.99999999999994</ele><time>2026-04-29T08:40:55Z</time></trkpt><trkpt lat="42.63790123910836" lon="12.110501031730406"><ele>449.0</ele><time>2026-04-29T08:40:56Z</time></trkpt><trkpt lat="42.637896711993825" lon="12.110610800875472"><ele>449.0</ele><time>2026-04-29T08:40:57Z</time></trkpt><trkpt lat="42.63789816230678" lon="12.110740090532063"><ele>449.0</ele><time>2026-04-29T08:40:58Z</time></trkpt><trkpt lat="42.63790764562835" lon="12.110865101895522"><ele>448.99999999999994</ele><time>2026-04-29T08:40:59Z</time></trkpt><trkpt lat="42.63791741100541" lon="12.110980447961744"><ele>449.0</ele><time>2026-04-29T08:41:00Z</time></trkpt><trkpt lat="42.63792270168028" lon="12.111108026894776"><ele>449.0</ele><time>2026-04-29T08:41:01Z</time></trkpt><trkpt lat="42.637926956637955" lon="12.111239953024263"><ele>449.0</ele><time>2026-04-29T08:41:02Z</time></trkpt><trkpt lat="42.63793044733522" lon="12.111375757910801"><ele>449.0</ele><time>2026-04-29T08:41:03Z</time></trkpt><trkpt lat="42.63793885768152" lon="12.111515367740276"><ele>449.0</ele><time>2026-04-29T08:41:04Z</time></trkpt><trkpt lat="42.63792957182585" lon="12.111655755400996"><ele>449.0</ele><time>2026-04-29T08:41:05Z</time></trkpt><trkpt lat="42.637919017234275" lon="12.111796687653577"><ele>448.99999999999994</ele><time>2026-04-29T08:41:06Z</time></trkpt><trkpt lat="42.637914249979914" lon="12.111931588706181"><ele>449.0</ele><time>2026-04-29T08:41:07Z</time></trkpt><trkpt lat="42.63790476105605" lon="12.11205262460661"><ele>449.0</ele><time>2026-04-29T08:41:08Z</time></trkpt><trkpt lat="42.63792531221624" lon="12.112168515946124"><ele>449.0</ele><time>2026-04-29T08:41:09Z</time></trkpt><trkpt lat="42.63795060351576" lon="12.112270297806045"><ele>448.99999999999994</ele><time>2026-04-29T08:41:10Z</time></trkpt><trkpt lat="42.637994233392966" lon="12.11235353808265"><ele>449.0</ele><time>2026-04-29T08:41:11Z</time></trkpt><trkpt lat="42.638054244984424" lon="12.112422208148365"><ele>447.2</ele><time>2026-04-29T08:41:12Z</time></trkpt><trkpt lat="42.638130472547125" lon="12.112482245740773"><ele>445.4</ele><time>2026-04-29T08:41:13Z</time></trkpt><trkpt lat="42.63822035720327" lon="12.11253743685611"><ele>443.6</ele><time>2026-04-29T08:41:14Z</time></trkpt><trkpt lat="42.6383120573368" lon="12.112596286127454"><ele>441.8</ele><time>2026-04-29T08:41:15Z</time></trkpt><trkpt lat="42.63840803027165" lon="12.112657066884365"><ele>440.0</ele><time>2026-04-29T08:41:16Z</time></trkpt><trkpt lat="42.63850829741865" lon="12.112716186643803"><ele>440.0</ele><time>2026-04-29T08:41:17Z</time></trkpt><trkpt lat="42.638610371712396" lon="12.11277477298376"><ele>440.0</ele><time>2026-04-29T08:41:18Z</time></trkpt><trkpt lat="42.6387145212564" lon="12.112835242271302"><ele>440.0</ele><time>2026-04-29T08:41:19Z</time></trkpt><trkpt lat="42.638815439868544" lon="12.112896859489869"><ele>440.0</ele><time>2026-04-29T08:41:20Z</time></trkpt><trkpt lat="42.638913587596996" lon="12.112958990294205"><ele>440.0</ele><time>2026-04-29T08:41:21Z</time></trkpt><trkpt lat="42.639010238407145" lon="12.113022515024422"><ele>440.8</ele><time>2026-04-29T08:41:22Z</time></trkpt><trkpt lat="42.63910144613583" lon="12.113093070005517"><ele>441.6</ele><time>2026-04-29T08:41:23Z</time></trkpt><trkpt lat="42.63918250163485" lon="12.113174415106451"><ele>442.4</ele><time>2026-04-29T08:41:24Z</time></trkpt><trkpt lat="42.63925778454061" lon="12.11326687625785"><ele>443.2</ele><time>2026-04-29T08:41:25Z</time></trkpt><trkpt lat="42.6393293206422" lon="12.113363265928443"><ele>444.0</ele><time>2026-04-29T08:41:26Z</time></trkpt><trkpt lat="42.63939632403092" lon="12.113467069516746"><ele>444.0</ele><time>2026-04-29T08:41:27Z</time></trkpt><trkpt lat="42.6394558462179" lon="12.113574358210718"><ele>444.0</ele><time>2026-04-29T08:41:28Z</time></trkpt><trkpt lat="42.63950795072587" lon="12.113687978091647"><ele>444.0</ele><time>2026-04-29T08:41:29Z</time></trkpt><trkpt lat="42.639555054404454" lon="12.113807538190917"><ele>444.0</ele><time>2026-04-29T08:41:30Z</time></trkpt><trkpt lat="42.639601102716995" lon="12.113927889622355"><ele>444.0</ele><time>2026-04-29T08:41:31Z</time></trkpt><trkpt lat="42.63964479791424" lon="12.114051765375132"><ele>445.6</ele><time>2026-04-29T08:41:32Z</time></trkpt><trkpt lat="42.639690176219986" lon="12.114174273750535"><ele>447.2</ele><time>2026-04-29T08:41:33Z</time></trkpt><trkpt lat="42.639734712926824" lon="12.114296114802324"><ele>448.80000000000007</ele><time>2026-04-29T08:41:34Z</time></trkpt><trkpt lat="42.63977945506277" lon="12.114417584520703"><ele>450.40000000000003</ele><time>2026-04-29T08:41:35Z</time></trkpt><trkpt lat="42.63982396258432" lon="12.114540417929025"><ele>452.0</ele><time>2026-04-29T08:41:36Z</time></trkpt><trkpt lat="42.639868380860555" lon="12.11466384368021"><ele>452.0</ele><time>2026-04-29T08:41:37Z</time></trkpt><trkpt lat="42.63990924631777" lon="12.114781957018216"><ele>452.00000000000006</ele><time>2026-04-29T08:41:38Z</time></trkpt><trkpt lat="42.63994921003117" lon="12.114899020258683"><ele>452.00000000000006</ele><time>2026-04-29T08:41:39Z</time></trkpt><trkpt lat="42.63999064551122" lon="12.11501606385847"><ele>452.0</ele><time>2026-04-29T08:41:40Z</time></trkpt><trkpt lat="42.6400310952292" lon="12.115129935085696"><ele>452.0</ele><time>2026-04-29T08:41:41Z</time></trkpt><trkpt lat="42.64007442446551" lon="12.115251442559652"><ele>452.20000000000005</ele><time>2026-04-29T08:41:42Z</time></trkpt><trkpt lat="42.64011818410484" lon="12.115377844793395"><ele>452.40000000000003</ele><time>2026-04-29T08:41:43Z</time></trkpt><trkpt lat="42.64016335105918" lon="12.115509257435294"><ele>452.59999999999997</ele><time>2026-04-29T08:41:44Z</time></trkpt><trkpt lat="42.64021009620462" lon="12.115653766700198"><ele>452.79999999999995</ele><time>2026-04-29T08:41:45Z</time></trkpt><trkpt lat="42.640263539784975" lon="12.115794613390715"><ele>453.0</ele><time>2026-04-29T08:41:46Z</time></trkpt><trkpt lat="42.64032216498525" lon="12.11595044399149"><ele>453.0</ele><time>2026-04-29T08:41:47Z</time></trkpt><trkpt lat="42.64038355103726" lon="12.116108003613414"><ele>453.0</ele><time>2026-04-29T08:41:48Z</time></trkpt><trkpt lat="42.64044710272098" lon="12.116277708845173"><ele>453.0</ele><time>2026-04-29T08:41:49Z</time></trkpt><trkpt lat="42.64051303710589" lon="12.11645421826903"><ele>453.0</ele><time>2026-04-29T08:41:50Z</time></trkpt><trkpt lat="42.64058104487923" lon="12.116635723396401"><ele>452.0</ele><time>2026-04-29T08:41:51Z</time></trkpt><trkpt lat="42.64064829854247" lon="12.116815567309164"><ele>451.0</ele><time>2026-04-29T08:41:52Z</time></trkpt><trkpt lat="42.64071256353925" lon="12.116988710977134"><ele>450.0</ele><time>2026-04-29T08:41:53Z</time></trkpt><trkpt lat="42.64077397102327" lon="12.11715628621498"><ele>449.0</ele><time>2026-04-29T08:41:54Z</time></trkpt><trkpt lat="42.640833866954786" lon="12.117319463323419"><ele>448.5</ele><time>2026-04-29T08:41:55Z</time></trkpt><trkpt lat="42.64089127809313" lon="12.117478256071497"><ele>448.0</ele><time>2026-04-29T08:41:56Z</time></trkpt><trkpt lat="42.64094965682289" lon="12.117637580625267"><ele>447.5</ele><time>2026-04-29T08:41:57Z</time></trkpt><trkpt lat="42.641009401327025" lon="12.117799530757585"><ele>447.0</ele><time>2026-04-29T08:41:58Z</time></trkpt><trkpt lat="42.641071664055765" lon="12.117968898782383"><ele>446.75</ele><time>2026-04-29T08:41:59Z</time></trkpt><trkpt lat="42.64113477963863" lon="12.118145171191928"><ele>446.5</ele><time>2026-04-29T08:42:00Z</time></trkpt><trkpt lat="42.641199797603946" lon="12.118325230527432"><ele>446.25</ele><time>2026-04-29T08:42:01Z</time></trkpt><trkpt lat="42.64127050708274" lon="12.118506539143349"><ele>446.0</ele><time>2026-04-29T08:42:02Z</time></trkpt><trkpt lat="42.6413419952515" lon="12.118694655207184"><ele>445.3333333333333</ele><time>2026-04-29T08:42:03Z</time></trkpt><trkpt lat="42.641412427372806" lon="12.118890626654547"><ele>444.66666666666663</ele><time>2026-04-29T08:42:04Z</time></trkpt><trkpt lat="42.6414895184986" lon="12.119095157175899"><ele>444.0</ele><time>2026-04-29T08:42:05Z</time></trkpt><trkpt lat="42.64157153946122" lon="12.119314223418103"><ele>443.66666666666663</ele><time>2026-04-29T08:42:06Z</time></trkpt><trkpt lat="42.641651790490464" lon="12.119530238327426"><ele>443.3333333333333</ele><time>2026-04-29T08:42:07Z</time></trkpt><trkpt lat="42.64172861601333" lon="12.119739861544593"><ele>443.0</ele><time>2026-04-29T08:42:08Z</time></trkpt><trkpt lat="42.641805054636016" lon="12.11995286952369"><ele>442.66666666666663</ele><time>2026-04-29T08:42:09Z</time></trkpt><trkpt lat="42.64187773307834" lon="12.120164397600176"><ele>442.33333333333337</ele><time>2026-04-29T08:42:10Z</time></trkpt><trkpt lat="42.64194405093461" lon="12.120372541296765"><ele>442.0</ele><time>2026-04-29T08:42:11Z</time></trkpt><trkpt lat="42.641995786732636" lon="12.120580389742134"><ele>440.33333333333337</ele><time>2026-04-29T08:42:12Z</time></trkpt><trkpt lat="42.64203741546641" lon="12.120794336021113"><ele>438.66666666666663</ele><time>2026-04-29T08:42:13Z</time></trkpt><trkpt lat="42.642065179298775" lon="12.121012585714164"><ele>437.0</ele><time>2026-04-29T08:42:14Z</time></trkpt><trkpt lat="42.64208719883622" lon="12.121237872434833"><ele>437.0</ele><time>2026-04-29T08:42:15Z</time></trkpt><trkpt lat="42.64211095171061" lon="12.121470886187785"><ele>437.0</ele><time>2026-04-29T08:42:16Z</time></trkpt><trkpt lat="42.64212930082878" lon="12.12170640877567"><ele>437.0</ele><time>2026-04-29T08:42:17Z</time></trkpt><trkpt lat="42.64214626356466" lon="12.121944142580244"><ele>437.0</ele><time>2026-04-29T08:42:18Z</time></trkpt><trkpt lat="42.64216142012074" lon="12.122182799670595"><ele>437.0</ele><time>2026-04-29T08:42:19Z</time></trkpt><trkpt lat="42.64217466069769" lon="12.122412072561913"><ele>437.0</ele><time>2026-04-29T08:42:20Z</time></trkpt><trkpt lat="42.642187103354544" lon="12.122633433042632"><ele>436.66666666666663</ele><time>2026-04-29T08:42:21Z</time></trkpt><trkpt lat="42.64219868724253" lon="12.122851116808874"><ele>436.33333333333337</ele><time>2026-04-29T08:42:22Z</time></trkpt><trkpt lat="42.642211871863864" lon="12.123071404349941"><ele>436.0</ele><time>2026-04-29T08:42:23Z</time></trkpt><trkpt lat="42.642226150570664" lon="12.123293103449319"><ele>435.0</ele><time>2026-04-29T08:42:24Z</time></trkpt><trkpt lat="42.642240684019065" lon="12.123518841509219"><ele>434.0</ele><time>2026-04-29T08:42:25Z</time></trkpt><trkpt lat="42.64225459281787" lon="12.123746634918735"><ele>433.0</ele><time>2026-04-29T08:42:26Z</time></trkpt><trkpt lat="42.64227060345251" lon="12.123977785418761"><ele>432.0</ele><time>2026-04-29T08:42:27Z</time></trkpt><trkpt lat="42.64228642955399" lon="12.124207841531252"><ele>431.0</ele><time>2026-04-29T08:42:28Z</time></trkpt><trkpt lat="42.64229650765039" lon="12.124432355207352"><ele>430.0</ele><time>2026-04-29T08:42:29Z</time></trkpt><trkpt lat="42.642314440023576" lon="12.12464692001799"><ele>430.0</ele><time>2026-04-29T08:42:30Z</time></trkpt><trkpt lat="42.64232404783961" lon="12.124857629392285"><ele>430.0</ele><time>2026-04-29T08:42:31Z</time></trkpt><trkpt lat="42.64233427813063" lon="12.125058219076914"><ele>430.0</ele><time>2026-04-29T08:42:32Z</time></trkpt><trkpt lat="42.642357105438606" lon="12.12524954436472"><ele>430.0</ele><time>2026-04-29T08:42:33Z</time></trkpt><trkpt lat="42.64239933896905" lon="12.125432540708298"><ele>429.0</ele><time>2026-04-29T08:42:34Z</time></trkpt><trkpt lat="42.642465577983295" lon="12.125608605581563"><ele>428.0</ele><time>2026-04-29T08:42:35Z</time></trkpt><trkpt lat="42.64255193765206" lon="12.125783665643759"><ele>427.0</ele><time>2026-04-29T08:42:36Z</time></trkpt><trkpt lat="42.642650047717865" lon="12.125964921687496"><ele>426.33333333333337</ele><time>2026-04-29T08:42:37Z</time></trkpt><trkpt lat="42.64275050521796" lon="12.1261602048636"><ele>425.66666666666663</ele><time>2026-04-29T08:42:38Z</time></trkpt><trkpt lat="42.64285050897686" lon="12.126358156996972"><ele>425.0</ele><time>2026-04-29T08:42:39Z</time></trkpt><trkpt lat="42.642949542769685" lon="12.126560796299799"><ele>424.0</ele><time>2026-04-29T08:42:40Z</time></trkpt><trkpt lat="42.64304855022781" lon="12.126763015650358"><ele>423.0</ele><time>2026-04-29T08:42:41Z</time></trkpt><trkpt lat="42.64314759706042" lon="12.126964485554634"><ele>422.0</ele><time>2026-04-29T08:42:42Z</time></trkpt><trkpt lat="42.64324488958631" lon="12.127164638360078"><ele>422.0</ele><time>2026-04-29T08:42:43Z</time></trkpt><trkpt lat="42.643340880706525" lon="12.127357504822974"><ele>422.0</ele><time>2026-04-29T08:42:44Z</time></trkpt><trkpt lat="42.6434351013648" lon="12.12754494959024"><ele>422.0</ele><time>2026-04-29T08:42:45Z</time></trkpt><trkpt lat="42.64351261861029" lon="12.127697655152453"><ele>421.66666666666663</ele><time>2026-04-29T08:42:46Z</time></trkpt><trkpt lat="42.64355580960285" lon="12.127788300498084"><ele>421.3333333333333</ele><time>2026-04-29T08:42:47Z</time></trkpt><trkpt lat="42.643553209686715" lon="12.127876131073604"><ele>421.0</ele><time>2026-04-29T08:42:49Z</time></trkpt><trkpt lat="42.64346211661943" lon="12.127963100426587"><ele>420.66666666666663</ele><time>2026-04-29T08:42:51Z</time></trkpt><trkpt lat="42.64342146851972" lon="12.128059053055303"><ele>420.3333333333333</ele><time>2026-04-29T08:42:52Z</time></trkpt><trkpt lat="42.64335311082098" lon="12.128133763207279"><ele>420.0</ele><time>2026-04-29T08:42:53Z</time></trkpt><trkpt lat="42.64328906154337" lon="12.128239502177228"><ele>419.6</ele><time>2026-04-29T08:42:54Z</time></trkpt><trkpt lat="42.64321790952867" lon="12.128355535396773"><ele>419.2</ele><time>2026-04-29T08:42:55Z</time></trkpt><trkpt lat="42.64314226597876" lon="12.128476014400242"><ele>418.79999999999995</ele><time>2026-04-29T08:42:56Z</time></trkpt><trkpt lat="42.64308463916183" lon="12.128600215123928"><ele>418.4</ele><time>2026-04-29T08:42:57Z</time></trkpt><trkpt lat="42.643021499579625" lon="12.128703975040203"><ele>418.0</ele><time>2026-04-29T08:42:58Z</time></trkpt><trkpt lat="42.6430016836308" lon="12.128830188467365"><ele>418.0</ele><time>2026-04-29T08:42:59Z</time></trkpt><trkpt lat="42.64296742807607" lon="12.12893982126761"><ele>418.0</ele><time>2026-04-29T08:43:00Z</time></trkpt><trkpt lat="42.64293048115551" lon="12.129044281796082"><ele>418.0</ele><time>2026-04-29T08:43:01Z</time></trkpt><trkpt lat="42.64286785066822" lon="12.129146255870115"><ele>418.0</ele><time>2026-04-29T08:43:02Z</time></trkpt><trkpt lat="42.6427816937674" lon="12.12924481442636"><ele>418.0</ele><time>2026-04-29T08:43:03Z</time></trkpt><trkpt lat="42.642674737437844" lon="12.129340798881612"><ele>415.0</ele><time>2026-04-29T08:43:04Z</time></trkpt><trkpt lat="42.64254711155013" lon="12.129427786658017"><ele>412.0</ele><time>2026-04-29T08:43:05Z</time></trkpt><trkpt lat="42.64243267878799" lon="12.129564965219654"><ele>409.0</ele><time>2026-04-29T08:43:06Z</time></trkpt><trkpt lat="42.64229036054051" lon="12.129700987386322"><ele>409.0</ele><time>2026-04-29T08:43:07Z</time></trkpt><trkpt lat="42.64216176094147" lon="12.129819651376007"><ele>409.0</ele><time>2026-04-29T08:43:08Z</time></trkpt><trkpt lat="42.64204426327701" lon="12.129932999873947"><ele>409.0</ele><time>2026-04-29T08:43:09Z</time></trkpt><trkpt lat="42.64194381607486" lon="12.130021549976373"><ele>409.0</ele><time>2026-04-29T08:43:10Z</time></trkpt><trkpt lat="42.64184435399464" lon="12.130086472954623"><ele>408.1666666666667</ele><time>2026-04-29T08:43:11Z</time></trkpt><trkpt lat="42.641758656662425" lon="12.130146800193089"><ele>407.33333333333337</ele><time>2026-04-29T08:43:12Z</time></trkpt><trkpt lat="42.64167456364992" lon="12.130205352870494"><ele>406.5</ele><time>2026-04-29T08:43:13Z</time></trkpt><trkpt lat="42.64159965472586" lon="12.130260227052995"><ele>405.66666666666663</ele><time>2026-04-29T08:43:14Z</time></trkpt><trkpt lat="42.64154104195023" lon="12.130305880029788"><ele>404.8333333333333</ele><time>2026-04-29T08:43:15Z</time></trkpt><trkpt lat="42.64147557437616" lon="12.1303628545952"><ele>404.0</ele><time>2026-04-29T08:43:16Z</time></trkpt><trkpt lat="42.64140913439961" lon="12.130426371500567"><ele>403.99999999999994</ele><time>2026-04-29T08:43:17Z</time></trkpt><trkpt lat="42.6413433360284" lon="12.130477279840084"><ele>404.0</ele><time>2026-04-29T08:43:18Z</time></trkpt><trkpt lat="42.64128850437962" lon="12.13055299135751"><ele>404.0</ele><time>2026-04-29T08:43:19Z</time></trkpt><trkpt lat="42.6412133719279" lon="12.130591051840904"><ele>404.0</ele><time>2026-04-29T08:43:20Z</time></trkpt><trkpt lat="42.64114136866283" lon="12.130630805822552"><ele>403.99999999999994</ele><time>2026-04-29T08:43:21Z</time></trkpt><trkpt lat="42.64106469630247" lon="12.130660841904144"><ele>404.0</ele><time>2026-04-29T08:43:22Z</time></trkpt><trkpt lat="42.640984707569686" lon="12.13070138157423"><ele>401.0</ele><time>2026-04-29T08:43:23Z</time></trkpt><trkpt lat="42.6408971987028" lon="12.130733280919394"><ele>398.0</ele><time>2026-04-29T08:43:24Z</time></trkpt><trkpt lat="42.64079158751196" lon="12.130741564582427"><ele>395.0</ele><time>2026-04-29T08:43:25Z</time></trkpt><trkpt lat="42.640701840611676" lon="12.130759653857767"><ele>392.0</ele><time>2026-04-29T08:43:26Z</time></trkpt><trkpt lat="42.64061474818743" lon="12.130800889961906"><ele>389.0</ele><time>2026-04-29T08:43:27Z</time></trkpt><trkpt lat="42.64051513227515" lon="12.130817901961857"><ele>388.99999999999994</ele><time>2026-04-29T08:43:28Z</time></trkpt><trkpt lat="42.64042971072216" lon="12.130856666044332"><ele>389.0</ele><time>2026-04-29T08:43:29Z</time></trkpt><trkpt lat="42.64035004613893" lon="12.130892481622604"><ele>389.0</ele><time>2026-04-29T08:43:30Z</time></trkpt><trkpt lat="42.64027928681003" lon="12.13095194420363"><ele>389.0</ele><time>2026-04-29T08:43:31Z</time></trkpt><trkpt lat="42.64023418518168" lon="12.131040683361237"><ele>388.99999999999994</ele><time>2026-04-29T08:43:32Z</time></trkpt><trkpt lat="42.64017395087064" lon="12.131109501509739"><ele>389.0</ele><time>2026-04-29T08:43:33Z</time></trkpt><trkpt lat="42.640140273592856" lon="12.13120410534754"><ele>388.0</ele><time>2026-04-29T08:43:34Z</time></trkpt><trkpt lat="42.64010602367059" lon="12.131312070899376"><ele>387.0</ele><time>2026-04-29T08:43:35Z</time></trkpt><trkpt lat="42.640072481933686" lon="12.131432012482081"><ele>386.0</ele><time>2026-04-29T08:43:36Z</time></trkpt><trkpt lat="42.64004470039901" lon="12.131552751581626"><ele>385.0</ele><time>2026-04-29T08:43:37Z</time></trkpt><trkpt lat="42.64002661518111" lon="12.131678112030983"><ele>384.0</ele><time>2026-04-29T08:43:38Z</time></trkpt><trkpt lat="42.639999029793046" lon="12.131793421251244"><ele>383.0</ele><time>2026-04-29T08:43:39Z</time></trkpt><trkpt lat="42.63997604458907" lon="12.131906856560985"><ele>382.0</ele><time>2026-04-29T08:43:40Z</time></trkpt><trkpt lat="42.639973137655495" lon="12.132030030714594"><ele>381.0</ele><time>2026-04-29T08:43:41Z</time></trkpt><trkpt lat="42.63997231048016" lon="12.132159827996675"><ele>380.0</ele><time>2026-04-29T08:43:42Z</time></trkpt><trkpt lat="42.63998486081879" lon="12.132297604380838"><ele>379.0</ele><time>2026-04-29T08:43:43Z</time></trkpt><trkpt lat="42.64000917140695" lon="12.132445080273772"><ele>379.0</ele><time>2026-04-29T08:43:44Z</time></trkpt><trkpt lat="42.64002833219456" lon="12.132594121956087"><ele>379.0</ele><time>2026-04-29T08:43:45Z</time></trkpt><trkpt lat="42.64002810938958" lon="12.13275035423082"><ele>379.0</ele><time>2026-04-29T08:43:46Z</time></trkpt><trkpt lat="42.64005583962622" lon="12.132908735369272"><ele>379.0</ele><time>2026-04-29T08:43:47Z</time></trkpt><trkpt lat="42.64004693902774" lon="12.133072532608512"><ele>378.0</ele><time>2026-04-29T08:43:48Z</time></trkpt><trkpt lat="42.640059795831384" lon="12.133228344358152"><ele>377.0</ele><time>2026-04-29T08:43:49Z</time></trkpt><trkpt lat="42.64005041757288" lon="12.133388807411126"><ele>376.0</ele><time>2026-04-29T08:43:50Z</time></trkpt><trkpt lat="42.640045706485196" lon="12.133554357811356"><ele>375.0</ele><time>2026-04-29T08:43:51Z</time></trkpt><trkpt lat="42.640040555697865" lon="12.133718280805097"><ele>375.0</ele><time>2026-04-29T08:43:52Z</time></trkpt><trkpt lat="42.64002024716702" lon="12.133879242386985"><ele>375.0</ele><time>2026-04-29T08:43:53Z</time></trkpt><trkpt lat="42.64002607340825" lon="12.134045160024037"><ele>375.0</ele><time>2026-04-29T08:43:54Z</time></trkpt><trkpt lat="42.64004177913718" lon="12.134207621384283"><ele>375.0</ele><time>2026-04-29T08:43:55Z</time></trkpt><trkpt lat="42.640064028414436" lon="12.134362679189323"><ele>374.2</ele><time>2026-04-29T08:43:56Z</time></trkpt><trkpt lat="42.640108594662756" lon="12.134508836669335"><ele>373.4</ele><time>2026-04-29T08:43:57Z</time></trkpt><trkpt lat="42.64014023963131" lon="12.13465204031662"><ele>372.6</ele><time>2026-04-29T08:43:58Z</time></trkpt><trkpt lat="42.64017232439756" lon="12.134768078389689"><ele>371.8</ele><time>2026-04-29T08:43:59Z</time></trkpt><trkpt lat="42.64021092128634" lon="12.134861361171291"><ele>371.0</ele><time>2026-04-29T08:44:00Z</time></trkpt><trkpt lat="42.64025646522018" lon="12.134978534998583"><ele>371.83333333333337</ele><time>2026-04-29T08:44:02Z</time></trkpt><trkpt lat="42.64029091734941" lon="12.135066037774127"><ele>372.6666666666667</ele><time>2026-04-29T08:44:17Z</time></trkpt><trkpt lat="42.64032167040716" lon="12.135162338087623"><ele>373.5</ele><time>2026-04-29T08:45:09Z</time></trkpt><trkpt lat="42.64030554318892" lon="12.135286372185812"><ele>374.3333333333333</ele><time>2026-04-29T08:45:12Z</time></trkpt><trkpt lat="42.64025394700516" lon="12.13536576413603"><ele>375.16666666666663</ele><time>2026-04-29T08:45:14Z</time></trkpt><trkpt lat="42.6401983359907" lon="12.135437489395796"><ele>376.0</ele><time>2026-04-29T08:45:16Z</time></trkpt><trkpt lat="42.6401449425578" lon="12.13549474622051"><ele>374.16666666666663</ele><time>2026-04-29T08:45:18Z</time></trkpt><trkpt lat="42.640094775142146" lon="12.135550501768058"><ele>372.3333333333333</ele><time>2026-04-29T08:45:20Z</time></trkpt><trkpt lat="42.64003778564637" lon="12.135644934147534"><ele>370.5</ele><time>2026-04-29T08:45:23Z</time></trkpt><trkpt lat="42.640014387802104" lon="12.135731667055314"><ele>368.6666666666667</ele><time>2026-04-29T08:45:27Z</time></trkpt><trkpt lat="42.63999927830201" lon="12.135625483123397"><ele>366.83333333333337</ele><time>2026-04-29T08:46:22Z</time></trkpt><trkpt lat="42.64006886930762" lon="12.135571577551525"><ele>365.0</ele><time>2026-04-29T08:46:27Z</time></trkpt><trkpt lat="42.640143021532424" lon="12.135510796091475"><ele>365.0</ele><time>2026-04-29T08:46:30Z</time></trkpt><trkpt lat="42.64020250855755" lon="12.135447256679532"><ele>365.0</ele><time>2026-04-29T08:46:32Z</time></trkpt><trkpt lat="42.640258093540794" lon="12.135375291237732"><ele>365.0</ele><time>2026-04-29T08:46:34Z</time></trkpt><trkpt lat="42.64031448695443" lon="12.135285643978136"><ele>365.0</ele><time>2026-04-29T08:46:36Z</time></trkpt><trkpt lat="42.64035691250699" lon="12.135183886748804"><ele>365.0</ele><time>2026-04-29T08:46:38Z</time></trkpt><trkpt lat="42.640340964021306" lon="12.135081835210881"><ele>365.0</ele><time>2026-04-29T08:46:41Z</time></trkpt><trkpt lat="42.640359602864585" lon="12.135237854883545"><ele>365.0</ele><time>2026-04-29T08:47:07Z</time></trkpt><trkpt lat="42.640338546324095" lon="12.135335522544667"><ele>365.0</ele><time>2026-04-29T08:47:08Z</time></trkpt><trkpt lat="42.6402772154767" lon="12.13543786652405"><ele>365.0</ele><time>2026-04-29T08:47:09Z</time></trkpt><trkpt lat="42.640206311118725" lon="12.135478365502559"><ele>365.0</ele><time>2026-04-29T08:47:10Z</time></trkpt><trkpt lat="42.640153738626346" lon="12.135535789729753"><ele>365.0</ele><time>2026-04-29T08:47:11Z</time></trkpt><trkpt lat="42.63996788078175" lon="12.135422104879682"><ele>365.0</ele><time>2026-04-29T08:47:13Z</time></trkpt><trkpt lat="42.6398940784063" lon="12.135441525284245"><ele>365.0</ele><time>2026-04-29T08:47:15Z</time></trkpt><trkpt lat="42.63981524794143" lon="12.135454118737528"><ele>365.0</ele><time>2026-04-29T08:47:17Z</time></trkpt><trkpt lat="42.63973251630716" lon="12.135471043480074"><ele>365.0</ele><time>2026-04-29T08:47:19Z</time></trkpt><trkpt lat="42.639652401054626" lon="12.135489697410891"><ele>365.0</ele><time>2026-04-29T08:47:21Z</time></trkpt><trkpt lat="42.63957052442963" lon="12.135515240041059"><ele>365.0</ele><time>2026-04-29T08:47:23Z</time></trkpt><trkpt lat="42.639491535200555" lon="12.135548703750134"><ele>365.33333333333337</ele><time>2026-04-29T08:47:25Z</time></trkpt><trkpt lat="42.63941426042175" lon="12.13557622158505"><ele>365.6666666666667</ele><time>2026-04-29T08:47:27Z</time></trkpt><trkpt lat="42.63934596059107" lon="12.13561326051685"><ele>366.0</ele><time>2026-04-29T08:47:29Z</time></trkpt><trkpt lat="42.639283563347824" lon="12.135670560698747"><ele>366.3333333333333</ele><time>2026-04-29T08:47:32Z</time></trkpt><trkpt lat="42.63931156430262" lon="12.135805534895512"><ele>366.66666666666663</ele><time>2026-04-29T08:48:07Z</time></trkpt><trkpt lat="42.63931829888663" lon="12.135890721397613"><ele>367.0</ele><time>2026-04-29T08:48:18Z</time></trkpt><trkpt lat="42.63932579011867" lon="12.135780584771222"><ele>367.0</ele><time>2026-04-29T08:49:51Z</time></trkpt><trkpt lat="42.63929691786288" lon="12.13569767076803"><ele>367.0</ele><time>2026-04-29T08:50:00Z</time></trkpt><trkpt lat="42.639283106826596" lon="12.135788018079879"><ele>367.0</ele><time>2026-04-29T08:50:17Z</time></trkpt><trkpt lat="42.639237528999644" lon="12.135856197848947"><ele>367.0</ele><time>2026-04-29T08:50:23Z</time></trkpt><trkpt lat="42.63917428410117" lon="12.13590488865807"><ele>367.0</ele><time>2026-04-29T08:50:30Z</time></trkpt><trkpt lat="42.63910516728359" lon="12.135928423733514"><ele>367.0</ele><time>2026-04-29T08:50:36Z</time></trkpt><trkpt lat="42.63904183785978" lon="12.135938399533662"><ele>367.0</ele><time>2026-04-29T08:50:41Z</time></trkpt><trkpt lat="42.63897477985523" lon="12.135980551559548"><ele>367.0</ele><time>2026-04-29T08:50:47Z</time></trkpt><trkpt lat="42.6389062309917" lon="12.136021587964011"><ele>367.0</ele><time>2026-04-29T08:50:53Z</time></trkpt><trkpt lat="42.63884057909655" lon="12.13602259937"><ele>367.0</ele><time>2026-04-29T08:50:59Z</time></trkpt><trkpt lat="42.638774855591265" lon="12.136003457804252"><ele>367.0</ele><time>2026-04-29T08:51:05Z</time></trkpt><trkpt lat="42.638706057318" lon="12.135993259345506"><ele>367.0</ele><time>2026-04-29T08:51:10Z</time></trkpt><trkpt lat="42.63864167198445" lon="12.13601828529592"><ele>367.0</ele><time>2026-04-29T08:51:15Z</time></trkpt><trkpt lat="42.63858466821424" lon="12.136057518589562"><ele>367.0</ele><time>2026-04-29T08:51:20Z</time></trkpt><trkpt lat="42.63851459177994" lon="12.13605775260808"><ele>366.2857142857143</ele><time>2026-04-29T08:51:27Z</time></trkpt><trkpt lat="42.63845025188058" lon="12.136079615652417"><ele>365.5714285714286</ele><time>2026-04-29T08:51:33Z</time></trkpt><trkpt lat="42.63839449202668" lon="12.136030154560085"><ele>364.8571428571429</ele><time>2026-04-29T08:51:41Z</time></trkpt><trkpt lat="42.63838707787704" lon="12.135936614829951"><ele>364.1428571428571</ele><time>2026-04-29T08:51:47Z</time></trkpt><trkpt lat="42.63833979152709" lon="12.135873741488174"><ele>363.42857142857144</ele><time>2026-04-29T08:51:54Z</time></trkpt><trkpt lat="42.63830257431988" lon="12.135801924343243"><ele>362.7142857142857</ele><time>2026-04-29T08:52:01Z</time></trkpt><trkpt lat="42.63826498852569" lon="12.135720294197545"><ele>362.0</ele><time>2026-04-29T08:52:11Z</time></trkpt><trkpt lat="42.638229711690386" lon="12.135647942900585"><ele>363.7142857142857</ele><time>2026-04-29T08:52:22Z</time></trkpt><trkpt lat="42.63816553987439" lon="12.13559269656845"><ele>365.42857142857144</ele><time>2026-04-29T08:52:30Z</time></trkpt><trkpt lat="42.63809833071987" lon="12.135563645125028"><ele>367.1428571428571</ele><time>2026-04-29T08:52:37Z</time></trkpt><trkpt lat="42.638070875632025" lon="12.135484168893742"><ele>368.8571428571429</ele><time>2026-04-29T08:52:46Z</time></trkpt><trkpt lat="42.638011768719245" lon="12.135440890804315"><ele>370.5714285714286</ele><time>2026-04-29T08:52:51Z</time></trkpt><trkpt lat="42.63796617745256" lon="12.135381092409483"><ele>372.2857142857143</ele><time>2026-04-29T08:52:57Z</time></trkpt><trkpt lat="42.63796559449982" lon="12.13529334861955"><ele>374.0</ele><time>2026-04-29T08:53:05Z</time></trkpt><trkpt lat="42.637963228589356" lon="12.135202717372918"><ele>374.0</ele><time>2026-04-29T08:53:12Z</time></trkpt><trkpt lat="42.63795016476041" lon="12.135099024753915"><ele>374.0</ele><time>2026-04-29T08:53:35Z</time></trkpt><trkpt lat="42.63793149946541" lon="12.135016170588376"><ele>374.0</ele><time>2026-04-29T08:53:40Z</time></trkpt><trkpt lat="42.637909372964316" lon="12.134934487214343"><ele>374.0</ele><time>2026-04-29T08:53:45Z</time></trkpt><trkpt lat="42.63789486004445" lon="12.13484287839101"><ele>374.0</ele><time>2026-04-29T08:53:51Z</time></trkpt><trkpt lat="42.63793962374744" lon="12.134910680622642"><ele>374.0</ele><time>2026-04-29T08:54:21Z</time></trkpt><trkpt lat="42.6379334370475" lon="12.135002964669873"><ele>374.0</ele><time>2026-04-29T08:54:27Z</time></trkpt><trkpt lat="42.63793914531054" lon="12.135091846285137"><ele>374.0</ele><time>2026-04-29T08:54:35Z</time></trkpt><trkpt lat="42.63795353517248" lon="12.13518408743781"><ele>374.0</ele><time>2026-04-29T08:54:46Z</time></trkpt><trkpt lat="42.637983118387375" lon="12.135268742201552"><ele>374.0</ele><time>2026-04-29T08:55:03Z</time></trkpt><trkpt lat="42.638028768200556" lon="12.13534098481784"><ele>374.0</ele><time>2026-04-29T08:55:09Z</time></trkpt><trkpt lat="42.63807136672056" lon="12.13542311225097"><ele>374.0</ele><time>2026-04-29T08:55:15Z</time></trkpt><trkpt lat="42.638121688635636" lon="12.1354954984739"><ele>374.0</ele><time>2026-04-29T08:55:21Z</time></trkpt><trkpt lat="42.63817011651832" lon="12.135553366809361"><ele>374.0</ele><time>2026-04-29T08:55:26Z</time></trkpt><trkpt lat="42.63820553974638" lon="12.135630725859853"><ele>374.0</ele><time>2026-04-29T08:55:40Z</time></trkpt><trkpt lat="42.638299418094306" lon="12.135651419729847"><ele>374.0</ele><time>2026-04-29T08:55:55Z</time></trkpt><trkpt lat="42.63832179507209" lon="12.13556129385699"><ele>374.0</ele><time>2026-04-29T08:56:17Z</time></trkpt><trkpt lat="42.63829105120137" lon="12.135454321504334"><ele>374.0</ele><time>2026-04-29T08:56:31Z</time></trkpt><trkpt lat="42.638241749865216" lon="12.135388592616556"><ele>374.0</ele><time>2026-04-29T08:56:39Z</time></trkpt><trkpt lat="42.63817614237712" lon="12.135387657545603"><ele>374.0</ele><time>2026-04-29T08:56:48Z</time></trkpt><trkpt lat="42.63818193636479" lon="12.135298792084061"><ele>374.0</ele><time>2026-04-29T08:57:26Z</time></trkpt><trkpt lat="42.638164680806135" lon="12.135215243510295"><ele>374.0</ele><time>2026-04-29T08:57:34Z</time></trkpt><trkpt lat="42.6381796231681" lon="12.135130051739166"><ele>374.0</ele><time>2026-04-29T08:57:40Z</time></trkpt><trkpt lat="42.63814737530711" lon="12.135044160707487"><ele>374.0</ele><time>2026-04-29T08:57:46Z</time></trkpt><trkpt lat="42.63811785632529" lon="12.134955583036358"><ele>374.0</ele><time>2026-04-29T08:57:52Z</time></trkpt><trkpt lat="42.63808793548569" lon="12.134865698197183"><ele>374.0</ele><time>2026-04-29T08:57:59Z</time></trkpt><trkpt lat="42.638053548672055" lon="12.13479266002004"><ele>374.0</ele><time>2026-04-29T08:58:06Z</time></trkpt><trkpt lat="42.63801368246404" lon="12.134722359802348"><ele>374.57142857142856</ele><time>2026-04-29T08:58:12Z</time></trkpt><trkpt lat="42.63804166279143" lon="12.134645290413792"><ele>375.14285714285717</ele><time>2026-04-29T08:58:29Z</time></trkpt><trkpt lat="42.63808726067506" lon="12.134575691064862"><ele>375.7142857142857</ele><time>2026-04-29T08:58:38Z</time></trkpt><trkpt lat="42.6381202463229" lon="12.134493865974916"><ele>376.2857142857143</ele><time>2026-04-29T08:58:50Z</time></trkpt><trkpt lat="42.63814121812728" lon="12.134408720938204"><ele>376.8571428571429</ele><time>2026-04-29T08:59:00Z</time></trkpt><trkpt lat="42.63814108406339" lon="12.134319690904062"><ele>377.42857142857144</ele><time>2026-04-29T09:01:08Z</time></trkpt><trkpt lat="42.63813045989591" lon="12.134233755952595"><ele>378.0</ele><time>2026-04-29T09:01:28Z</time></trkpt><trkpt lat="42.63813887619207" lon="12.134140449112985"><ele>377.85714285714283</ele><time>2026-04-29T09:01:35Z</time></trkpt><trkpt lat="42.63813444024638" lon="12.134046523982537"><ele>377.7142857142857</ele><time>2026-04-29T09:01:57Z</time></trkpt><trkpt lat="42.638135260850305" lon="12.133945549235547"><ele>377.57142857142856</ele><time>2026-04-29T09:02:06Z</time></trkpt><trkpt lat="42.63816620451244" lon="12.133854742652382"><ele>377.42857142857144</ele><time>2026-04-29T09:02:12Z</time></trkpt><trkpt lat="42.63818253157253" lon="12.133766925956042"><ele>377.2857142857143</ele><time>2026-04-29T09:02:18Z</time></trkpt><trkpt lat="42.63820052289992" lon="12.133673954469728"><ele>377.1428571428571</ele><time>2026-04-29T09:02:25Z</time></trkpt><trkpt lat="42.63818654046958" lon="12.133586980235506"><ele>377.0</ele><time>2026-04-29T09:02:53Z</time></trkpt><trkpt lat="42.6381453044041" lon="12.133510445586573"><ele>376.99999999999994</ele><time>2026-04-29T09:02:59Z</time></trkpt><trkpt lat="42.638113474012954" lon="12.133430245434377"><ele>377.0</ele><time>2026-04-29T09:03:06Z</time></trkpt><trkpt lat="42.63807415344177" lon="12.133362351266046"><ele>377.0</ele><time>2026-04-29T09:03:14Z</time></trkpt><trkpt lat="42.638179008606656" lon="12.133378804791063"><ele>377.0</ele><time>2026-04-29T09:04:17Z</time></trkpt><trkpt lat="42.638140474436135" lon="12.13330841930569"><ele>377.0</ele><time>2026-04-29T09:04:57Z</time></trkpt><trkpt lat="42.6380877464679" lon="12.133356028899557"><ele>376.99999999999994</ele><time>2026-04-29T09:06:08Z</time></trkpt><trkpt lat="42.63806230851337" lon="12.133452298637044"><ele>377.0</ele><time>2026-04-29T09:06:29Z</time></trkpt><trkpt lat="42.638047244536935" lon="12.1335557612975"><ele>376.99999999999994</ele><time>2026-04-29T09:06:37Z</time></trkpt><trkpt lat="42.63803954695733" lon="12.133648212688941"><ele>377.0</ele><time>2026-04-29T09:06:43Z</time></trkpt><trkpt lat="42.63802543789879" lon="12.133737437332249"><ele>377.0</ele><time>2026-04-29T09:06:49Z</time></trkpt><trkpt lat="42.638018025282754" lon="12.133828525427713"><ele>377.0</ele><time>2026-04-29T09:06:56Z</time></trkpt><trkpt lat="42.63801671781579" lon="12.133917221412622"><ele>377.0</ele><time>2026-04-29T09:07:02Z</time></trkpt><trkpt lat="42.6379997116441" lon="12.13400736564537"><ele>376.99999999999994</ele><time>2026-04-29T09:07:10Z</time></trkpt><trkpt lat="42.63807721378054" lon="12.134057047199612"><ele>377.0</ele><time>2026-04-29T09:08:12.999Z</time></trkpt><trkpt lat="42.63809025803054" lon="12.134145952885032"><ele>377.1428571428571</ele><time>2026-04-29T09:08:22.999Z</time></trkpt><trkpt lat="42.63814722443089" lon="12.134202097561879"><ele>377.2857142857143</ele><time>2026-04-29T09:09:18.999Z</time></trkpt><trkpt lat="42.63813688525358" lon="12.134286847110578"><ele>377.42857142857144</ele><time>2026-04-29T09:09:27.999Z</time></trkpt><trkpt lat="42.63814185809223" lon="12.134378319714624"><ele>377.57142857142856</ele><time>2026-04-29T09:10:13.997Z</time></trkpt><trkpt lat="42.63812207964983" lon="12.134462818791953"><ele>377.7142857142857</ele><time>2026-04-29T09:10:21.997Z</time></trkpt><trkpt lat="42.63810196008868" lon="12.1345547824753"><ele>377.85714285714283</ele><time>2026-04-29T09:10:46.998Z</time></trkpt><trkpt lat="42.638086117075645" lon="12.134639508160141"><ele>378.0</ele><time>2026-04-29T09:10:55.998Z</time></trkpt><trkpt lat="42.63805703502979" lon="12.134728487489774"><ele>378.0</ele><time>2026-04-29T09:11:06.998Z</time></trkpt><trkpt lat="42.63810640104484" lon="12.134802877908802"><ele>378.0</ele><time>2026-04-29T09:11:15.999Z</time></trkpt><trkpt lat="42.63817833371516" lon="12.134827656420509"><ele>378.0</ele><time>2026-04-29T09:11:23.999Z</time></trkpt><trkpt lat="42.63822708409134" lon="12.134889598072876"><ele>378.0</ele><time>2026-04-29T09:11:30.999Z</time></trkpt><trkpt lat="42.63822054196077" lon="12.134975227953296"><ele>378.0</ele><time>2026-04-29T09:11:38.999Z</time></trkpt><trkpt lat="42.638231446020306" lon="12.135066853629311"><ele>378.0</ele><time>2026-04-29T09:11:47.999Z</time></trkpt><trkpt lat="42.63825021117204" lon="12.135148953547528"><ele>378.0</ele><time>2026-04-29T09:11:54.999Z</time></trkpt><trkpt lat="42.63827436767663" lon="12.135243487385294"><ele>377.42857142857144</ele><time>2026-04-29T09:12:03.999Z</time></trkpt><trkpt lat="42.638306319018504" lon="12.135329324267017"><ele>376.8571428571429</ele><time>2026-04-29T09:12:11.999Z</time></trkpt><trkpt lat="42.63836220376544" lon="12.135376368095901"><ele>376.2857142857143</ele><time>2026-04-29T09:12:23.996Z</time></trkpt><trkpt lat="42.638381645739486" lon="12.135469728991506"><ele>375.7142857142857</ele><time>2026-04-29T09:12:42.997Z</time></trkpt><trkpt lat="42.638394272679896" lon="12.135558687786352"><ele>375.14285714285717</ele><time>2026-04-29T09:12:54.998Z</time></trkpt><trkpt lat="42.63833054482223" lon="12.135566049247416"><ele>374.57142857142856</ele><time>2026-04-29T09:13:00.998Z</time></trkpt><trkpt lat="42.63837255275023" lon="12.135629845473975"><ele>374.0</ele><time>2026-04-29T09:13:34.999Z</time></trkpt><trkpt lat="42.63834195347733" lon="12.135719371816807"><ele>374.0</ele><time>2026-04-29T09:13:44.999Z</time></trkpt><trkpt lat="42.638284772692444" lon="12.135666115578518"><ele>374.0</ele><time>2026-04-29T09:13:49.999Z</time></trkpt><trkpt lat="42.63822184538447" lon="12.135674915766893"><ele>374.0</ele><time>2026-04-29T09:14:00.999Z</time></trkpt><trkpt lat="42.63826677319826" lon="12.135741523305946"><ele>374.0</ele><time>2026-04-29T09:14:07.999Z</time></trkpt><trkpt lat="42.63831109015634" lon="12.135807983475628"><ele>374.0</ele><time>2026-04-29T09:14:14.999Z</time></trkpt><trkpt lat="42.63835606630217" lon="12.135870119630404"><ele>374.0</ele><time>2026-04-29T09:14:21.999Z</time></trkpt><trkpt lat="42.638417779698806" lon="12.135923097542713"><ele>374.0</ele><time>2026-04-29T09:14:27.996Z</time></trkpt><trkpt lat="42.638480785709035" lon="12.135939332632256"><ele>373.0</ele><time>2026-04-29T09:14:32.996Z</time></trkpt><trkpt lat="42.63853935664891" lon="12.135975426718295"><ele>372.0</ele><time>2026-04-29T09:14:37.996Z</time></trkpt><trkpt lat="42.638603286742594" lon="12.135990687223616"><ele>371.0</ele><time>2026-04-29T09:14:42.997Z</time></trkpt><trkpt lat="42.63866543050649" lon="12.136007634509976"><ele>370.0</ele><time>2026-04-29T09:14:47.997Z</time></trkpt><trkpt lat="42.63873365023293" lon="12.136019619635846"><ele>369.0</ele><time>2026-04-29T09:14:53.998Z</time></trkpt><trkpt lat="42.63879791657583" lon="12.136006608542129"><ele>368.0</ele><time>2026-04-29T09:14:59.998Z</time></trkpt><trkpt lat="42.6388609467621" lon="12.136016098578025"><ele>367.0</ele><time>2026-04-29T09:15:10.998Z</time></trkpt><trkpt lat="42.638923572873864" lon="12.135980945684972"><ele>367.0</ele><time>2026-04-29T09:15:16.998Z</time></trkpt><trkpt lat="42.63899155094715" lon="12.135950929395804"><ele>367.0</ele><time>2026-04-29T09:15:22.999Z</time></trkpt><trkpt lat="42.63906285872607" lon="12.135927461312546"><ele>367.0</ele><time>2026-04-29T09:15:28.999Z</time></trkpt><trkpt lat="42.63912642020375" lon="12.135913786113278"><ele>367.0</ele><time>2026-04-29T09:15:35.999Z</time></trkpt><trkpt lat="42.639185368044544" lon="12.135882126441905"><ele>367.0</ele><time>2026-04-29T09:15:41.999Z</time></trkpt><trkpt lat="42.63924394173108" lon="12.135834540237108"><ele>367.0</ele><time>2026-04-29T09:15:47.999Z</time></trkpt><trkpt lat="42.639304653774204" lon="12.135787503724144"><ele>367.0</ele><time>2026-04-29T09:15:54.999Z</time></trkpt><trkpt lat="42.639366999886256" lon="12.135761160998134"><ele>367.0</ele><time>2026-04-29T09:16:01Z</time></trkpt><trkpt lat="42.63942992095706" lon="12.135766097681225"><ele>367.0</ele><time>2026-04-29T09:16:08Z</time></trkpt><trkpt lat="42.63936963290527" lon="12.13573656728836"><ele>367.0</ele><time>2026-04-29T09:18:06.001Z</time></trkpt><trkpt lat="42.639325826147015" lon="12.135666658779197"><ele>367.0</ele><time>2026-04-29T09:18:14.001Z</time></trkpt><trkpt lat="42.6392672867739" lon="12.135616995485618"><ele>367.0</ele><time>2026-04-29T09:18:22.001Z</time></trkpt><trkpt lat="42.63933447485289" lon="12.135617179819157"><ele>367.0</ele><time>2026-04-29T09:20:25.002Z</time></trkpt><trkpt lat="42.63944027469683" lon="12.135561184533247"><ele>367.0</ele><time>2026-04-29T09:20:28.002Z</time></trkpt><trkpt lat="42.639501493766524" lon="12.135534314584966"><ele>366.66666666666663</ele><time>2026-04-29T09:20:29.002Z</time></trkpt><trkpt lat="42.639590748319876" lon="12.135501374081114"><ele>366.3333333333333</ele><time>2026-04-29T09:20:31.002Z</time></trkpt><trkpt lat="42.6396724123529" lon="12.135485366344364"><ele>366.0</ele><time>2026-04-29T09:20:33.002Z</time></trkpt><trkpt lat="42.639757660721294" lon="12.135460721923279"><ele>365.6666666666667</ele><time>2026-04-29T09:20:35.002Z</time></trkpt><trkpt lat="42.63983578610577" lon="12.135445743990537"><ele>365.33333333333337</ele><time>2026-04-29T09:20:37.002Z</time></trkpt><trkpt lat="42.639913049674995" lon="12.135428852414599"><ele>365.0</ele><time>2026-04-29T09:20:39.002Z</time></trkpt><trkpt lat="42.63998350785112" lon="12.135403870099575"><ele>365.0</ele><time>2026-04-29T09:20:41.002Z</time></trkpt><trkpt lat="42.64005825925027" lon="12.135385883110748"><ele>365.0</ele><time>2026-04-29T09:20:57Z</time></trkpt><trkpt lat="42.640136727754616" lon="12.135334097921806"><ele>365.0</ele><time>2026-04-29T09:20:59Z</time></trkpt><trkpt lat="42.64019333345584" lon="12.135227708448724"><ele>365.0</ele><time>2026-04-29T09:21:01Z</time></trkpt><trkpt lat="42.64024955798693" lon="12.135113183917381"><ele>365.0</ele><time>2026-04-29T09:21:03Z</time></trkpt><trkpt lat="42.64027358177129" lon="12.135016832070326"><ele>365.0</ele><time>2026-04-29T09:21:05Z</time></trkpt><trkpt lat="42.64025980195799" lon="12.134920342839763"><ele>366.0</ele><time>2026-04-29T09:21:07Z</time></trkpt><trkpt lat="42.64023100312071" lon="12.134838470497964"><ele>367.0</ele><time>2026-04-29T09:21:08Z</time></trkpt><trkpt lat="42.6401931590181" lon="12.134734141050163"><ele>368.0</ele><time>2026-04-29T09:21:09Z</time></trkpt><trkpt lat="42.64015579431278" lon="12.134633640319572"><ele>369.0</ele><time>2026-04-29T09:21:10Z</time></trkpt><trkpt lat="42.64012393753917" lon="12.134537719786481"><ele>370.0</ele><time>2026-04-29T09:21:11Z</time></trkpt><trkpt lat="42.64010199532801" lon="12.134450775348306"><ele>371.0</ele><time>2026-04-29T09:21:12Z</time></trkpt><trkpt lat="42.64007141473468" lon="12.13429294980051"><ele>371.0</ele><time>2026-04-29T09:21:14Z</time></trkpt><trkpt lat="42.64005543469011" lon="12.134190263234874"><ele>371.0</ele><time>2026-04-29T09:21:15Z</time></trkpt><trkpt lat="42.64004269395535" lon="12.134072412015218"><ele>371.0</ele><time>2026-04-29T09:21:16Z</time></trkpt><trkpt lat="42.64003045181086" lon="12.13395973804879"><ele>371.0</ele><time>2026-04-29T09:21:17Z</time></trkpt><trkpt lat="42.64001964362825" lon="12.133847117385134"><ele>371.0</ele><time>2026-04-29T09:21:18Z</time></trkpt><trkpt lat="42.64002123042597" lon="12.13373730927459"><ele>371.0</ele><time>2026-04-29T09:21:19Z</time></trkpt><trkpt lat="42.64002750126355" lon="12.133626004740913"><ele>371.6666666666667</ele><time>2026-04-29T09:21:20Z</time></trkpt><trkpt lat="42.64002909875769" lon="12.13351907874737"><ele>372.33333333333337</ele><time>2026-04-29T09:21:21.001Z</time></trkpt><trkpt lat="42.64003475093019" lon="12.133414393509243"><ele>373.0</ele><time>2026-04-29T09:21:22.001Z</time></trkpt><trkpt lat="42.64007663818259" lon="12.133312523397368"><ele>373.6666666666667</ele><time>2026-04-29T09:21:23.001Z</time></trkpt><trkpt lat="42.64007993880511" lon="12.133210321209564"><ele>374.3333333333333</ele><time>2026-04-29T09:21:24.001Z</time></trkpt><trkpt lat="42.64008167589579" lon="12.133110942391005"><ele>375.0</ele><time>2026-04-29T09:21:25.001Z</time></trkpt><trkpt lat="42.64007775699433" lon="12.133004673664145"><ele>375.42857142857144</ele><time>2026-04-29T09:21:26.001Z</time></trkpt><trkpt lat="42.640072580428615" lon="12.132903302807211"><ele>375.85714285714283</ele><time>2026-04-29T09:21:27.001Z</time></trkpt><trkpt lat="42.6400662885574" lon="12.132810438515202"><ele>376.2857142857143</ele><time>2026-04-29T09:21:28.001Z</time></trkpt><trkpt lat="42.64005885782586" lon="12.132715202970736"><ele>376.7142857142857</ele><time>2026-04-29T09:21:29.001Z</time></trkpt><trkpt lat="42.640051230342" lon="12.1326215138085"><ele>377.1428571428571</ele><time>2026-04-29T09:21:30.001Z</time></trkpt><trkpt lat="42.64004297827047" lon="12.132531519799503"><ele>377.57142857142856</ele><time>2026-04-29T09:21:31.001Z</time></trkpt><trkpt lat="42.64003338524487" lon="12.13244309260488"><ele>378.0</ele><time>2026-04-29T09:21:32.001Z</time></trkpt><trkpt lat="42.64002021454342" lon="12.132350636382787"><ele>378.0</ele><time>2026-04-29T09:21:33.001Z</time></trkpt><trkpt lat="42.639990754357555" lon="12.132257684303507"><ele>378.0</ele><time>2026-04-29T09:21:34.001Z</time></trkpt><trkpt lat="42.63999452204086" lon="12.13216382813721"><ele>378.0</ele><time>2026-04-29T09:21:35.001Z</time></trkpt><trkpt lat="42.639977155453266" lon="12.132016417680381"><ele>378.0</ele><time>2026-04-29T09:21:37.001Z</time></trkpt><trkpt lat="42.6399886470285" lon="12.131927873796728"><ele>378.0</ele><time>2026-04-29T09:21:39.001Z</time></trkpt><trkpt lat="42.640015933006005" lon="12.131843256768036"><ele>378.0</ele><time>2026-04-29T09:21:41.001Z</time></trkpt><trkpt lat="42.640034360867624" lon="12.131756916078686"><ele>378.0</ele><time>2026-04-29T09:21:43.001Z</time></trkpt><trkpt lat="42.64005050362976" lon="12.13162382980895"><ele>378.0</ele><time>2026-04-29T09:21:45.001Z</time></trkpt><trkpt lat="42.64008796903329" lon="12.131454909326436"><ele>378.0</ele><time>2026-04-29T09:21:47.001Z</time></trkpt><trkpt lat="42.640135390569526" lon="12.13135167729817"><ele>378.0</ele><time>2026-04-29T09:21:48.001Z</time></trkpt><trkpt lat="42.640172223093714" lon="12.131239722163453"><ele>378.0</ele><time>2026-04-29T09:21:49.001Z</time></trkpt><trkpt lat="42.64020120283407" lon="12.131133734164683"><ele>379.0</ele><time>2026-04-29T09:21:50.001Z</time></trkpt><trkpt lat="42.64025271391689" lon="12.131048607052803"><ele>380.0</ele><time>2026-04-29T09:21:51.001Z</time></trkpt><trkpt lat="42.64031427228456" lon="12.130977788011048"><ele>381.0</ele><time>2026-04-29T09:21:52.001Z</time></trkpt><trkpt lat="42.64039575013344" lon="12.13093432315469"><ele>382.0</ele><time>2026-04-29T09:21:53.001Z</time></trkpt><trkpt lat="42.64046789309098" lon="12.130873354280594"><ele>383.0</ele><time>2026-04-29T09:21:54.001Z</time></trkpt><trkpt lat="42.64056674570785" lon="12.130839138317981"><ele>384.0</ele><time>2026-04-29T09:21:55.001Z</time></trkpt><trkpt lat="42.64066903115502" lon="12.130811858000277"><ele>385.0</ele><time>2026-04-29T09:21:56.001Z</time></trkpt><trkpt lat="42.64076563485895" lon="12.130775227568051"><ele>386.0</ele><time>2026-04-29T09:21:57.002Z</time></trkpt><trkpt lat="42.64087124923599" lon="12.130770540781311"><ele>387.0</ele><time>2026-04-29T09:21:58.002Z</time></trkpt><trkpt lat="42.64098195049471" lon="12.130738536668487"><ele>388.0</ele><time>2026-04-29T09:21:59.002Z</time></trkpt><trkpt lat="42.641084434900286" lon="12.130705223855427"><ele>389.0</ele><time>2026-04-29T09:22:00.002Z</time></trkpt><trkpt lat="42.64118433762934" lon="12.130660955539255"><ele>392.0</ele><time>2026-04-29T09:22:01.002Z</time></trkpt><trkpt lat="42.64127663879561" lon="12.1306179165304"><ele>395.0</ele><time>2026-04-29T09:22:02.002Z</time></trkpt><trkpt lat="42.64136075396814" lon="12.130548141269841"><ele>398.0</ele><time>2026-04-29T09:22:03.002Z</time></trkpt><trkpt lat="42.641433147785996" lon="12.130458637729076"><ele>401.0</ele><time>2026-04-29T09:22:04.002Z</time></trkpt><trkpt lat="42.641512286672445" lon="12.13040982641219"><ele>404.0</ele><time>2026-04-29T09:22:05.002Z</time></trkpt><trkpt lat="42.64156446621482" lon="12.130343281041013"><ele>403.99999999999994</ele><time>2026-04-29T09:22:06.002Z</time></trkpt><trkpt lat="42.641660673499715" lon="12.130265547971653"><ele>404.0</ele><time>2026-04-29T09:22:08.002Z</time></trkpt><trkpt lat="42.64172251191092" lon="12.13022286013195"><ele>404.0</ele><time>2026-04-29T09:22:09.002Z</time></trkpt><trkpt lat="42.64178195405674" lon="12.130181273581842"><ele>404.0</ele><time>2026-04-29T09:22:10.002Z</time></trkpt><trkpt lat="42.64185466919066" lon="12.130111066317134"><ele>403.99999999999994</ele><time>2026-04-29T09:22:12.002Z</time></trkpt><trkpt lat="42.64193686218446" lon="12.13020607296395"><ele>404.0</ele><time>2026-04-29T09:22:15.002Z</time></trkpt><trkpt lat="42.641975555030264" lon="12.130322573117782"><ele>404.99999999999994</ele><time>2026-04-29T09:22:17.002Z</time></trkpt><trkpt lat="42.642027458295246" lon="12.130439292262183"><ele>406.0</ele><time>2026-04-29T09:22:19.002Z</time></trkpt><trkpt lat="42.64206162060371" lon="12.130514416187394"><ele>407.0</ele><time>2026-04-29T09:22:20.002Z</time></trkpt><trkpt lat="42.642112707676205" lon="12.130578741349282"><ele>408.0</ele><time>2026-04-29T09:22:21.002Z</time></trkpt><trkpt lat="42.64216048578972" lon="12.13064289717212"><ele>408.99999999999994</ele><time>2026-04-29T09:22:22.002Z</time></trkpt><trkpt lat="42.64225790858778" lon="12.130749828217915"><ele>410.0</ele><time>2026-04-29T09:22:24.002Z</time></trkpt><trkpt lat="42.6422963824098" lon="12.130836395334184"><ele>410.16666666666663</ele><time>2026-04-29T09:22:25.002Z</time></trkpt><trkpt lat="42.642346918064185" lon="12.130911485200286"><ele>410.3333333333333</ele><time>2026-04-29T09:22:26.002Z</time></trkpt><trkpt lat="42.642393595693704" lon="12.13098084240974"><ele>410.5</ele><time>2026-04-29T09:22:27.002Z</time></trkpt><trkpt lat="42.642463189116754" lon="12.131088313232235"><ele>410.66666666666663</ele><time>2026-04-29T09:22:29.002Z</time></trkpt><trkpt lat="42.6425354882756" lon="12.131184325006815"><ele>410.8333333333333</ele><time>2026-04-29T09:22:31.002Z</time></trkpt><trkpt lat="42.64258220855373" lon="12.131244241600163"><ele>411.0</ele><time>2026-04-29T09:22:32.003Z</time></trkpt><trkpt lat="42.64263139188593" lon="12.13130325332146"><ele>411.0</ele><time>2026-04-29T09:22:33.003Z</time></trkpt><trkpt lat="42.642728641836555" lon="12.131415162797241"><ele>411.0</ele><time>2026-04-29T09:22:35.003Z</time></trkpt><trkpt lat="42.64282215159658" lon="12.13149253606079"><ele>411.0</ele><time>2026-04-29T09:22:37.003Z</time></trkpt><trkpt lat="42.64288692479233" lon="12.13157807852394"><ele>411.0</ele><time>2026-04-29T09:22:39.003Z</time></trkpt><trkpt lat="42.642977463361596" lon="12.131658113252277"><ele>411.0</ele><time>2026-04-29T09:22:41.003Z</time></trkpt><trkpt lat="42.643033303145735" lon="12.131707521654723"><ele>411.20000000000005</ele><time>2026-04-29T09:22:42.003Z</time></trkpt><trkpt lat="42.643132440969936" lon="12.131767495454165"><ele>411.40000000000003</ele><time>2026-04-29T09:22:44.003Z</time></trkpt><trkpt lat="42.64320907453419" lon="12.13182790866822"><ele>411.6</ele><time>2026-04-29T09:22:46.003Z</time></trkpt><trkpt lat="42.64330064709928" lon="12.131869049795991"><ele>411.8</ele><time>2026-04-29T09:22:48.003Z</time></trkpt><trkpt lat="42.64337727842144" lon="12.131949193002521"><ele>412.0</ele><time>2026-04-29T09:22:50.002Z</time></trkpt><trkpt lat="42.64346490996496" lon="12.132012307494092"><ele>412.00000000000006</ele><time>2026-04-29T09:22:52.002Z</time></trkpt><trkpt lat="42.64355610315279" lon="12.132054406279408"><ele>412.0</ele><time>2026-04-29T09:22:54.002Z</time></trkpt><trkpt lat="42.64363276331435" lon="12.132109965645505"><ele>412.0</ele><time>2026-04-29T09:22:56.002Z</time></trkpt><trkpt lat="42.64370846093336" lon="12.132152696946022"><ele>412.0</ele><time>2026-04-29T09:22:58.002Z</time></trkpt><trkpt lat="42.643788412368835" lon="12.132184479558676"><ele>412.00000000000006</ele><time>2026-04-29T09:23:00.002Z</time></trkpt><trkpt lat="42.64387933950895" lon="12.132211664295241"><ele>412.0</ele><time>2026-04-29T09:23:02.002Z</time></trkpt><trkpt lat="42.64395046373362" lon="12.132260485331495"><ele>412.00000000000006</ele><time>2026-04-29T09:23:04.002Z</time></trkpt><trkpt lat="42.643992586796486" lon="12.13235085418665"><ele>412.0</ele><time>2026-04-29T09:23:06.002Z</time></trkpt><trkpt lat="42.64399983821446" lon="12.132445917313959"><ele>412.0</ele><time>2026-04-29T09:23:08.002Z</time></trkpt><trkpt lat="42.64400081244224" lon="12.132579584082237"><ele>412.0</ele><time>2026-04-29T09:23:10.002Z</time></trkpt><trkpt lat="42.644007238489486" lon="12.132738429698312"><ele>412.00000000000006</ele><time>2026-04-29T09:23:12.002Z</time></trkpt><trkpt lat="42.64400635250574" lon="12.132825221144994"><ele>412.0</ele><time>2026-04-29T09:23:13.002Z</time></trkpt><trkpt lat="42.644004993122145" lon="12.1329121802026"><ele>411.99999999999994</ele><time>2026-04-29T09:23:14.002Z</time></trkpt><trkpt lat="42.64400703772286" lon="12.133004625034486"><ele>412.0</ele><time>2026-04-29T09:23:15.002Z</time></trkpt><trkpt lat="42.64401501985647" lon="12.133097054701642"><ele>412.0</ele><time>2026-04-29T09:23:16.002Z</time></trkpt><trkpt lat="42.64402061922353" lon="12.133192018695677"><ele>412.0</ele><time>2026-04-29T09:23:17.002Z</time></trkpt><trkpt lat="42.64402645578456" lon="12.133285441827868"><ele>412.0</ele><time>2026-04-29T09:23:18.002Z</time></trkpt><trkpt lat="42.644027408015674" lon="12.13338001956884"><ele>411.99999999999994</ele><time>2026-04-29T09:23:19.002Z</time></trkpt><trkpt lat="42.64402741351211" lon="12.133471004211517"><ele>412.0</ele><time>2026-04-29T09:23:20.002Z</time></trkpt><trkpt lat="42.64403034023033" lon="12.133563558161157"><ele>411.33333333333337</ele><time>2026-04-29T09:23:21.002Z</time></trkpt><trkpt lat="42.64402969151138" lon="12.133653247811719"><ele>410.6666666666667</ele><time>2026-04-29T09:23:22.002Z</time></trkpt><trkpt lat="42.64403159204426" lon="12.133742648608026"><ele>410.0</ele><time>2026-04-29T09:23:23.002Z</time></trkpt><trkpt lat="42.644040194588314" lon="12.13383909275648"><ele>409.33333333333337</ele><time>2026-04-29T09:23:24.002Z</time></trkpt><trkpt lat="42.644048209949396" lon="12.133933754200307"><ele>408.6666666666667</ele><time>2026-04-29T09:23:25.002Z</time></trkpt><trkpt lat="42.64405495803317" lon="12.134019373539257"><ele>408.0</ele><time>2026-04-29T09:23:26.002Z</time></trkpt><trkpt lat="42.64406775240253" lon="12.134172699220091"><ele>407.0</ele><time>2026-04-29T09:23:28.002Z</time></trkpt><trkpt lat="42.6440883648855" lon="12.134340875437454"><ele>406.0</ele><time>2026-04-29T09:23:30.002Z</time></trkpt><trkpt lat="42.64411524930859" lon="12.134477134484436"><ele>405.0</ele><time>2026-04-29T09:23:32.002Z</time></trkpt><trkpt lat="42.64410572660234" lon="12.13462653242292"><ele>404.0</ele><time>2026-04-29T09:23:34.002Z</time></trkpt><trkpt lat="42.64410751788336" lon="12.134718246820308"><ele>403.0</ele><time>2026-04-29T09:23:35.002Z</time></trkpt><trkpt lat="42.644095209114454" lon="12.134816607515653"><ele>402.4</ele><time>2026-04-29T09:23:36.002Z</time></trkpt><trkpt lat="42.64409310374696" lon="12.134921340251553"><ele>401.79999999999995</ele><time>2026-04-29T09:23:37.002Z</time></trkpt><trkpt lat="42.64410234957537" lon="12.135045901189619"><ele>401.2</ele><time>2026-04-29T09:23:38.002Z</time></trkpt><trkpt lat="42.644114211604915" lon="12.135166796209482"><ele>400.6</ele><time>2026-04-29T09:23:39.002Z</time></trkpt><trkpt lat="42.644135208833966" lon="12.135291438521575"><ele>400.0</ele><time>2026-04-29T09:23:40.002Z</time></trkpt><trkpt lat="42.644167183451955" lon="12.135431764026832"><ele>400.0</ele><time>2026-04-29T09:23:41.002Z</time></trkpt><trkpt lat="42.64420327382612" lon="12.135583529896493"><ele>400.0</ele><time>2026-04-29T09:23:42.002Z</time></trkpt><trkpt lat="42.64423697346716" lon="12.135727021190505"><ele>400.0</ele><time>2026-04-29T09:23:43.002Z</time></trkpt><trkpt lat="42.64427506564384" lon="12.135863639928132"><ele>400.0</ele><time>2026-04-29T09:23:44.002Z</time></trkpt><trkpt lat="42.644319922830775" lon="12.13599858290252"><ele>400.0</ele><time>2026-04-29T09:23:45.002Z</time></trkpt><trkpt lat="42.64437882333764" lon="12.136150429336189"><ele>399.75</ele><time>2026-04-29T09:23:46.002Z</time></trkpt><trkpt lat="42.644445245996415" lon="12.136309917458425"><ele>399.5</ele><time>2026-04-29T09:23:47.002Z</time></trkpt><trkpt lat="42.64452181768999" lon="12.136477195148668"><ele>399.25</ele><time>2026-04-29T09:23:48.002Z</time></trkpt><trkpt lat="42.64460566208652" lon="12.136647396287302"><ele>399.0</ele><time>2026-04-29T09:23:49.002Z</time></trkpt><trkpt lat="42.64468756055116" lon="12.136819238546448"><ele>396.75</ele><time>2026-04-29T09:23:50.002Z</time></trkpt><trkpt lat="42.644763200681716" lon="12.136981166664324"><ele>394.5</ele><time>2026-04-29T09:23:51.002Z</time></trkpt><trkpt lat="42.64483892040492" lon="12.13714217000423"><ele>392.25</ele><time>2026-04-29T09:23:52.002Z</time></trkpt><trkpt lat="42.644912927464446" lon="12.13730718928587"><ele>390.0</ele><time>2026-04-29T09:23:53.002Z</time></trkpt><trkpt lat="42.64498062705004" lon="12.137480109483315"><ele>389.75</ele><time>2026-04-29T09:23:54.002Z</time></trkpt><trkpt lat="42.64503831942292" lon="12.137659799534916"><ele>389.5</ele><time>2026-04-29T09:23:55.002Z</time></trkpt><trkpt lat="42.64507901114583" lon="12.13783260864688"><ele>389.25</ele><time>2026-04-29T09:23:56.002Z</time></trkpt><trkpt lat="42.64510515790465" lon="12.138021525840399"><ele>389.0</ele><time>2026-04-29T09:23:57.002Z</time></trkpt><trkpt lat="42.645121032422566" lon="12.138230706700128"><ele>389.0</ele><time>2026-04-29T09:23:58.002Z</time></trkpt><trkpt lat="42.64512572040571" lon="12.138438536851414"><ele>389.0</ele><time>2026-04-29T09:23:59.002Z</time></trkpt><trkpt lat="42.64511677969529" lon="12.138632418818581"><ele>389.0</ele><time>2026-04-29T09:24:00.002Z</time></trkpt><trkpt lat="42.645093783906034" lon="12.138824847663887"><ele>389.0</ele><time>2026-04-29T09:24:01.002Z</time></trkpt><trkpt lat="42.645057416791204" lon="12.139006634366694"><ele>389.3333333333333</ele><time>2026-04-29T09:24:02.002Z</time></trkpt><trkpt lat="42.64501148576492" lon="12.13920879529896"><ele>389.66666666666663</ele><time>2026-04-29T09:24:03.002Z</time></trkpt><trkpt lat="42.644954953660985" lon="12.139427806314968"><ele>390.0</ele><time>2026-04-29T09:24:04.003Z</time></trkpt><trkpt lat="42.64489691861883" lon="12.13963230120894"><ele>390.0</ele><time>2026-04-29T09:24:05.003Z</time></trkpt><trkpt lat="42.64484588260021" lon="12.139830725625348"><ele>390.0</ele><time>2026-04-29T09:24:06.003Z</time></trkpt><trkpt lat="42.64479881713002" lon="12.140038741868796"><ele>390.0</ele><time>2026-04-29T09:24:07.003Z</time></trkpt><trkpt lat="42.64475145082882" lon="12.140243520484104"><ele>389.33333333333337</ele><time>2026-04-29T09:24:08.003Z</time></trkpt><trkpt lat="42.64470233549879" lon="12.140456515709376"><ele>388.6666666666667</ele><time>2026-04-29T09:24:09.003Z</time></trkpt><trkpt lat="42.64465708047574" lon="12.140674065594185"><ele>388.0</ele><time>2026-04-29T09:24:10.003Z</time></trkpt><trkpt lat="42.64461665534065" lon="12.140887048583716"><ele>386.5</ele><time>2026-04-29T09:24:11.003Z</time></trkpt><trkpt lat="42.64458401388375" lon="12.141083234194033"><ele>385.0</ele><time>2026-04-29T09:24:12.003Z</time></trkpt><trkpt lat="42.64455932845237" lon="12.141277602003678"><ele>383.5</ele><time>2026-04-29T09:24:13.003Z</time></trkpt><trkpt lat="42.64454181850906" lon="12.141474210016995"><ele>382.0</ele><time>2026-04-29T09:24:14.003Z</time></trkpt><trkpt lat="42.64453215126001" lon="12.141671339282256"><ele>381.25</ele><time>2026-04-29T09:24:15.003Z</time></trkpt><trkpt lat="42.64452309316978" lon="12.14186957702143"><ele>380.5</ele><time>2026-04-29T09:24:16.003Z</time></trkpt><trkpt lat="42.64451590555824" lon="12.142051611437518"><ele>379.75</ele><time>2026-04-29T09:24:17.003Z</time></trkpt><trkpt lat="42.64451207039673" lon="12.142215737555988"><ele>379.0</ele><time>2026-04-29T09:24:18.003Z</time></trkpt><trkpt lat="42.644514909462416" lon="12.142362829868798"><ele>379.0</ele><time>2026-04-29T09:24:19.003Z</time></trkpt><trkpt lat="42.644534716139184" lon="12.14251236967224"><ele>379.0</ele><time>2026-04-29T09:24:20.003Z</time></trkpt><trkpt lat="42.6445723336673" lon="12.142673108066068"><ele>379.0</ele><time>2026-04-29T09:24:21.003Z</time></trkpt><trkpt lat="42.644629292079145" lon="12.142851012061332"><ele>379.0</ele><time>2026-04-29T09:24:22.003Z</time></trkpt><trkpt lat="42.64469688495459" lon="12.143047734747649"><ele>379.0</ele><time>2026-04-29T09:24:23.003Z</time></trkpt><trkpt lat="42.644759253217686" lon="12.143243920025052"><ele>379.0</ele><time>2026-04-29T09:24:24.003Z</time></trkpt><trkpt lat="42.644818679965226" lon="12.1434607172166"><ele>379.0</ele><time>2026-04-29T09:24:25.003Z</time></trkpt><trkpt lat="42.64487206224169" lon="12.143695025659985"><ele>379.0</ele><time>2026-04-29T09:24:26.003Z</time></trkpt><trkpt lat="42.64490950119611" lon="12.143926739214738"><ele>379.0</ele><time>2026-04-29T09:24:27.003Z</time></trkpt><trkpt lat="42.64493372067279" lon="12.144169250982292"><ele>379.0</ele><time>2026-04-29T09:24:28.003Z</time></trkpt><trkpt lat="42.644952264186024" lon="12.144425033492203"><ele>379.3333333333333</ele><time>2026-04-29T09:24:29.003Z</time></trkpt><trkpt lat="42.644979132133074" lon="12.144696193746745"><ele>379.6666666666667</ele><time>2026-04-29T09:24:30.003Z</time></trkpt><trkpt lat="42.645004402263034" lon="12.144956049820824"><ele>380.0</ele><time>2026-04-29T09:24:31.003Z</time></trkpt><trkpt lat="42.64502767236695" lon="12.145193095074978"><ele>379.33333333333337</ele><time>2026-04-29T09:24:32.003Z</time></trkpt><trkpt lat="42.64505100889553" lon="12.145418535112015"><ele>378.6666666666667</ele><time>2026-04-29T09:24:33.003Z</time></trkpt><trkpt lat="42.64506933882891" lon="12.145628404017138"><ele>378.0</ele><time>2026-04-29T09:24:34.003Z</time></trkpt><trkpt lat="42.645079734224495" lon="12.145823383034163"><ele>378.0</ele><time>2026-04-29T09:24:35.003Z</time></trkpt><trkpt lat="42.64508332252841" lon="12.14600177244181"><ele>378.0</ele><time>2026-04-29T09:24:36.003Z</time></trkpt><trkpt lat="42.64508556695387" lon="12.146152802757577"><ele>378.0</ele><time>2026-04-29T09:24:37.003Z</time></trkpt><trkpt lat="42.64507816219831" lon="12.14628501614841"><ele>378.0</ele><time>2026-04-29T09:24:38.003Z</time></trkpt><trkpt lat="42.64506011289858" lon="12.146421703943982"><ele>378.0</ele><time>2026-04-29T09:24:39.003Z</time></trkpt><trkpt lat="42.64503573207014" lon="12.14657987960171"><ele>378.0</ele><time>2026-04-29T09:24:40.003Z</time></trkpt><trkpt lat="42.6450070766876" lon="12.146759229572874"><ele>378.0</ele><time>2026-04-29T09:24:41.003Z</time></trkpt><trkpt lat="42.644966785645174" lon="12.146947082082903"><ele>378.0</ele><time>2026-04-29T09:24:42.003Z</time></trkpt><trkpt lat="42.644915091866515" lon="12.147145617915161"><ele>378.0</ele><time>2026-04-29T09:24:43.003Z</time></trkpt><trkpt lat="42.64485177850361" lon="12.147360441196003"><ele>377.6666666666667</ele><time>2026-04-29T09:24:44.003Z</time></trkpt><trkpt lat="42.64478157737548" lon="12.147585784483955"><ele>377.33333333333337</ele><time>2026-04-29T09:24:45.003Z</time></trkpt><trkpt lat="42.64472031669743" lon="12.147789019699761"><ele>377.0</ele><time>2026-04-29T09:24:46.004Z</time></trkpt><trkpt lat="42.64466556508289" lon="12.147959594059687"><ele>377.0</ele><time>2026-04-29T09:24:47.004Z</time></trkpt><trkpt lat="42.64461484040716" lon="12.148106643689083"><ele>377.0</ele><time>2026-04-29T09:24:48.004Z</time></trkpt><trkpt lat="42.64457436143199" lon="12.148244451927054"><ele>377.0</ele><time>2026-04-29T09:24:49.004Z</time></trkpt><trkpt lat="42.64454332064302" lon="12.148369068797876"><ele>377.0</ele><time>2026-04-29T09:24:50.004Z</time></trkpt><trkpt lat="42.64452198953673" lon="12.148480843969619"><ele>377.0</ele><time>2026-04-29T09:24:51.004Z</time></trkpt><trkpt lat="42.64450170783791" lon="12.14857718155643"><ele>376.1666666666667</ele><time>2026-04-29T09:24:52.004Z</time></trkpt><trkpt lat="42.64448554417597" lon="12.148667932527982"><ele>375.33333333333337</ele><time>2026-04-29T09:24:53.004Z</time></trkpt><trkpt lat="42.644468651675076" lon="12.148750874685742"><ele>374.5</ele><time>2026-04-29T09:24:54.004Z</time></trkpt><trkpt lat="42.644452969362206" lon="12.148833908501535"><ele>373.6666666666667</ele><time>2026-04-29T09:24:55.004Z</time></trkpt><trkpt lat="42.64444534684897" lon="12.148920032417506"><ele>372.8333333333333</ele><time>2026-04-29T09:24:56.003Z</time></trkpt><trkpt lat="42.64441890966741" lon="12.149073708546323"><ele>372.0</ele><time>2026-04-29T09:24:58.003Z</time></trkpt><trkpt lat="42.64439781691082" lon="12.149227485704998"><ele>370.8</ele><time>2026-04-29T09:25:00.003Z</time></trkpt><trkpt lat="42.64438017645744" lon="12.149317551245645"><ele>369.6</ele><time>2026-04-29T09:25:01.003Z</time></trkpt><trkpt lat="42.64434802345649" lon="12.149477109086957"><ele>368.40000000000003</ele><time>2026-04-29T09:25:03.003Z</time></trkpt><trkpt lat="42.64426224733407" lon="12.149561274332992"><ele>367.20000000000005</ele><time>2026-04-29T09:25:04.003Z</time></trkpt><trkpt lat="42.644210103087445" lon="12.149667070061547"><ele>366.0</ele><time>2026-04-29T09:25:05.003Z</time></trkpt><trkpt lat="42.644155620064524" lon="12.149780682455352"><ele>367.0</ele><time>2026-04-29T09:25:06.003Z</time></trkpt><trkpt lat="42.64410746770707" lon="12.149893627751629"><ele>368.0</ele><time>2026-04-29T09:25:07.003Z</time></trkpt><trkpt lat="42.644066427405384" lon="12.150011224674468"><ele>369.0</ele><time>2026-04-29T09:25:08.003Z</time></trkpt><trkpt lat="42.64403324778111" lon="12.150128483180714"><ele>370.0</ele><time>2026-04-29T09:25:09.003Z</time></trkpt><trkpt lat="42.644000008872304" lon="12.150248682657871"><ele>371.0</ele><time>2026-04-29T09:25:10.003Z</time></trkpt><trkpt lat="42.64397572408696" lon="12.15037103650002"><ele>371.0</ele><time>2026-04-29T09:25:11.003Z</time></trkpt><trkpt lat="42.64395296762886" lon="12.150500714576495"><ele>371.0</ele><time>2026-04-29T09:25:12.003Z</time></trkpt><trkpt lat="42.64393713910535" lon="12.150631276860889"><ele>371.0</ele><time>2026-04-29T09:25:13.003Z</time></trkpt><trkpt lat="42.64392385296687" lon="12.15076168358608"><ele>371.0</ele><time>2026-04-29T09:25:14.003Z</time></trkpt><trkpt lat="42.64391176977307" lon="12.150894653839229"><ele>371.0</ele><time>2026-04-29T09:25:15.003Z</time></trkpt><trkpt lat="42.64389087630669" lon="12.151010597284262"><ele>371.83333333333337</ele><time>2026-04-29T09:25:16.002Z</time></trkpt><trkpt lat="42.64387691938462" lon="12.15112011565096"><ele>372.6666666666667</ele><time>2026-04-29T09:25:17.002Z</time></trkpt><trkpt lat="42.64385658652608" lon="12.151225725501163"><ele>373.5</ele><time>2026-04-29T09:25:18.002Z</time></trkpt><trkpt lat="42.64383996523073" lon="12.15133618844704"><ele>374.3333333333333</ele><time>2026-04-29T09:25:19.002Z</time></trkpt><trkpt lat="42.64381913695652" lon="12.151441885434737"><ele>375.16666666666663</ele><time>2026-04-29T09:25:20.002Z</time></trkpt><trkpt lat="42.643799877286106" lon="12.15154834718121"><ele>376.0</ele><time>2026-04-29T09:25:21.002Z</time></trkpt><trkpt lat="42.64378380348611" lon="12.151658785011664"><ele>376.4</ele><time>2026-04-29T09:25:22.002Z</time></trkpt><trkpt lat="42.64376918641385" lon="12.151765090130057"><ele>376.8</ele><time>2026-04-29T09:25:23.002Z</time></trkpt><trkpt lat="42.64374914738067" lon="12.151867603718907"><ele>377.2</ele><time>2026-04-29T09:25:24.002Z</time></trkpt><trkpt lat="42.64371303976061" lon="12.151965841265651"><ele>377.59999999999997</ele><time>2026-04-29T09:25:25.002Z</time></trkpt><trkpt lat="42.643649017286315" lon="12.152086839668785"><ele>378.0</ele><time>2026-04-29T09:25:27.002Z</time></trkpt><trkpt lat="42.64360858304143" lon="12.152231359471358"><ele>378.2</ele><time>2026-04-29T09:25:29.002Z</time></trkpt><trkpt lat="42.643616932327596" lon="12.152387215271835"><ele>378.4</ele><time>2026-04-29T09:25:31.002Z</time></trkpt><trkpt lat="42.643628527040384" lon="12.152555458052955"><ele>378.59999999999997</ele><time>2026-04-29T09:25:33.002Z</time></trkpt><trkpt lat="42.64363329814353" lon="12.152681652792046"><ele>378.79999999999995</ele><time>2026-04-29T09:25:35.002Z</time></trkpt><trkpt lat="42.64361859637723" lon="12.152804047587889"><ele>379.0</ele><time>2026-04-29T09:26:53.003Z</time></trkpt><trkpt lat="42.64360473376896" lon="12.152958786639752"><ele>379.4</ele><time>2026-04-29T09:26:55.003Z</time></trkpt><trkpt lat="42.64359130039164" lon="12.153110908993398"><ele>379.79999999999995</ele><time>2026-04-29T09:26:57.003Z</time></trkpt><trkpt lat="42.64356557586933" lon="12.153224818932852"><ele>380.20000000000005</ele><time>2026-04-29T09:26:59.003Z</time></trkpt><trkpt lat="42.64355893132769" lon="12.153352612158693"><ele>380.6</ele><time>2026-04-29T09:27:01.004Z</time></trkpt><trkpt lat="42.643535830931775" lon="12.153500540975855"><ele>381.0</ele><time>2026-04-29T09:27:03.003Z</time></trkpt><trkpt lat="42.6435090936204" lon="12.153642216308189"><ele>381.1666666666667</ele><time>2026-04-29T09:27:05.003Z</time></trkpt><trkpt lat="42.64348267325215" lon="12.153787056342097"><ele>381.3333333333333</ele><time>2026-04-29T09:27:07.003Z</time></trkpt><trkpt lat="42.64346203619414" lon="12.15391190215812"><ele>381.5</ele><time>2026-04-29T09:27:09.003Z</time></trkpt><trkpt lat="42.64343961686237" lon="12.154028092643602"><ele>381.66666666666663</ele><time>2026-04-29T09:27:11.003Z</time></trkpt><trkpt lat="42.643412632467715" lon="12.15412931360863"><ele>381.8333333333333</ele><time>2026-04-29T09:27:13.003Z</time></trkpt><trkpt lat="42.64336735875991" lon="12.15420689799162"><ele>382.0</ele><time>2026-04-29T09:27:16.003Z</time></trkpt><trkpt lat="42.64338503928964" lon="12.154344311950279"><ele>382.0</ele><time>2026-04-29T09:33:19.001Z</time></trkpt><trkpt lat="42.64336134691427" lon="12.154264148104422"><ele>382.0</ele><time>2026-04-29T09:34:36Z</time></trkpt><trkpt lat="42.64339138496143" lon="12.154162700033584"><ele>382.0</ele><time>2026-04-29T09:34:41Z</time></trkpt><trkpt lat="42.643429869399995" lon="12.15404856461747"><ele>382.0</ele><time>2026-04-29T09:34:44Z</time></trkpt><trkpt lat="42.64345699223325" lon="12.153921141640566"><ele>382.0</ele><time>2026-04-29T09:34:46Z</time></trkpt><trkpt lat="42.64347661373749" lon="12.153801831841609"><ele>382.0</ele><time>2026-04-29T09:34:48Z</time></trkpt><trkpt lat="42.64349967340788" lon="12.153683152854544"><ele>382.0</ele><time>2026-04-29T09:34:50Z</time></trkpt><trkpt lat="42.64351436340986" lon="12.153594418767568"><ele>382.0</ele><time>2026-04-29T09:34:52Z</time></trkpt><trkpt lat="42.64353284857776" lon="12.153510481910327"><ele>382.0</ele><time>2026-04-29T09:34:54Z</time></trkpt><trkpt lat="42.643544438558685" lon="12.153424009618574"><ele>382.0</ele><time>2026-04-29T09:34:56Z</time></trkpt><trkpt lat="42.643560982202494" lon="12.153325256690424"><ele>382.0</ele><time>2026-04-29T09:34:58Z</time></trkpt><trkpt lat="42.64358177640993" lon="12.153212901796946"><ele>382.0</ele><time>2026-04-29T09:35:01Z</time></trkpt><trkpt lat="42.643617119209864" lon="12.153109443899417"><ele>382.0</ele><time>2026-04-29T09:35:27.999Z</time></trkpt><trkpt lat="42.64363222682899" lon="12.152997483226079"><ele>381.40000000000003</ele><time>2026-04-29T09:35:30.999Z</time></trkpt><trkpt lat="42.643645447082434" lon="12.152871223036863"><ele>380.8</ele><time>2026-04-29T09:35:32.999Z</time></trkpt><trkpt lat="42.643653214331934" lon="12.152735859834454"><ele>380.2</ele><time>2026-04-29T09:35:34.999Z</time></trkpt><trkpt lat="42.643654956753906" lon="12.152591667634422"><ele>379.6</ele><time>2026-04-29T09:35:36.999Z</time></trkpt><trkpt lat="42.64364319459113" lon="12.152471183839284"><ele>379.0</ele><time>2026-04-29T09:35:38.999Z</time></trkpt><trkpt lat="42.64363653895781" lon="12.15238385001826"><ele>378.8333333333333</ele><time>2026-04-29T09:35:40.999Z</time></trkpt><trkpt lat="42.643636052777666" lon="12.152292426941072"><ele>378.66666666666663</ele><time>2026-04-29T09:35:42.999Z</time></trkpt><trkpt lat="42.64364700857463" lon="12.152207028393985"><ele>378.5</ele><time>2026-04-29T09:35:45Z</time></trkpt><trkpt lat="42.64367044825832" lon="12.15212648134859"><ele>378.3333333333333</ele><time>2026-04-29T09:35:47Z</time></trkpt><trkpt lat="42.643712294179586" lon="12.152026337786907"><ele>378.1666666666667</ele><time>2026-04-29T09:35:49Z</time></trkpt><trkpt lat="42.64375582937401" lon="12.151913628753356"><ele>378.0</ele><time>2026-04-29T09:35:51Z</time></trkpt><trkpt lat="42.64378893345429" lon="12.151766574506189"><ele>378.0</ele><time>2026-04-29T09:35:53Z</time></trkpt><trkpt lat="42.64381467556616" lon="12.151605040617762"><ele>378.0</ele><time>2026-04-29T09:35:55Z</time></trkpt><trkpt lat="42.643827915346364" lon="12.151520549062706"><ele>378.0</ele><time>2026-04-29T09:35:56Z</time></trkpt><trkpt lat="42.643828691807244" lon="12.151425393063215"><ele>378.0</ele><time>2026-04-29T09:35:57Z</time></trkpt><trkpt lat="42.6438458362842" lon="12.151336913336863"><ele>378.0</ele><time>2026-04-29T09:35:58Z</time></trkpt><trkpt lat="42.64385932227125" lon="12.151246785174319"><ele>378.0</ele><time>2026-04-29T09:35:59Z</time></trkpt><trkpt lat="42.64388896010609" lon="12.151161344035637"><ele>377.6666666666667</ele><time>2026-04-29T09:36:00Z</time></trkpt><trkpt lat="42.64389082529184" lon="12.151064123658392"><ele>377.3333333333333</ele><time>2026-04-29T09:36:01Z</time></trkpt><trkpt lat="42.64390420567049" lon="12.150965530342324"><ele>377.0</ele><time>2026-04-29T09:36:02Z</time></trkpt><trkpt lat="42.64393450249279" lon="12.150868212879962"><ele>376.66666666666663</ele><time>2026-04-29T09:36:03Z</time></trkpt><trkpt lat="42.643947083405706" lon="12.150760128497774"><ele>376.3333333333333</ele><time>2026-04-29T09:36:04Z</time></trkpt><trkpt lat="42.64396024355858" lon="12.150647067802847"><ele>376.0</ele><time>2026-04-29T09:36:05Z</time></trkpt><trkpt lat="42.64395708197063" lon="12.150532031344731"><ele>375.16666666666663</ele><time>2026-04-29T09:36:06Z</time></trkpt><trkpt lat="42.643976386364876" lon="12.150422074626215"><ele>374.3333333333333</ele><time>2026-04-29T09:36:07Z</time></trkpt><trkpt lat="42.64399350968141" lon="12.150312947895067"><ele>373.5</ele><time>2026-04-29T09:36:08Z</time></trkpt><trkpt lat="42.644031323123194" lon="12.150215337422086"><ele>372.6666666666667</ele><time>2026-04-29T09:36:09Z</time></trkpt><trkpt lat="42.64404619733535" lon="12.150103337016075"><ele>371.83333333333337</ele><time>2026-04-29T09:36:10Z</time></trkpt><trkpt lat="42.644075889610995" lon="12.149999757658865"><ele>371.0</ele><time>2026-04-29T09:36:11Z</time></trkpt><trkpt lat="42.6441098848839" lon="12.14990777256359"><ele>370.1666666666667</ele><time>2026-04-29T09:36:12Z</time></trkpt><trkpt lat="42.64414620014737" lon="12.149819961770353"><ele>369.33333333333337</ele><time>2026-04-29T09:36:13Z</time></trkpt><trkpt lat="42.64418233564204" lon="12.14973727838307"><ele>368.5</ele><time>2026-04-29T09:36:14Z</time></trkpt><trkpt lat="42.644219988831146" lon="12.149655851968483"><ele>367.6666666666667</ele><time>2026-04-29T09:36:15Z</time></trkpt><trkpt lat="42.644298603907046" lon="12.149542357341863"><ele>366.8333333333333</ele><time>2026-04-29T09:36:17Z</time></trkpt><trkpt lat="42.644362804612236" lon="12.14944440734397"><ele>366.0</ele><time>2026-04-29T09:36:19Z</time></trkpt><trkpt lat="42.64443188444888" lon="12.149351054774261"><ele>366.0</ele><time>2026-04-29T09:36:21Z</time></trkpt><trkpt lat="42.64443149263201" lon="12.149214208551104"><ele>366.0</ele><time>2026-04-29T09:36:22Z</time></trkpt><trkpt lat="42.644447724150844" lon="12.149109310003695"><ele>366.0</ele><time>2026-04-29T09:36:23Z</time></trkpt><trkpt lat="42.64446775857103" lon="12.148976716056104"><ele>366.0</ele><time>2026-04-29T09:36:24Z</time></trkpt><trkpt lat="42.64447815688426" lon="12.14883187074047"><ele>366.0</ele><time>2026-04-29T09:36:25Z</time></trkpt><trkpt lat="42.6445031217565" lon="12.14868994146559"><ele>367.20000000000005</ele><time>2026-04-29T09:36:26Z</time></trkpt><trkpt lat="42.64453187275487" lon="12.148537537613423"><ele>368.40000000000003</ele><time>2026-04-29T09:36:27Z</time></trkpt><trkpt lat="42.64456188472397" lon="12.148400167716472"><ele>369.6</ele><time>2026-04-29T09:36:28Z</time></trkpt><trkpt lat="42.6445951543507" lon="12.148258190165965"><ele>370.8</ele><time>2026-04-29T09:36:29Z</time></trkpt><trkpt lat="42.64463884995832" lon="12.148113943481158"><ele>372.0</ele><time>2026-04-29T09:36:30Z</time></trkpt><trkpt lat="42.644684166431524" lon="12.147958456149185"><ele>373.25</ele><time>2026-04-29T09:36:31Z</time></trkpt><trkpt lat="42.64473550300141" lon="12.147800368021489"><ele>374.5</ele><time>2026-04-29T09:36:32Z</time></trkpt><trkpt lat="42.64478776551082" lon="12.147663511121824"><ele>375.75</ele><time>2026-04-29T09:36:33Z</time></trkpt><trkpt lat="42.64483971286719" lon="12.147493630033823"><ele>377.0</ele><time>2026-04-29T09:36:34Z</time></trkpt><trkpt lat="42.64488238680534" lon="12.147328216280926"><ele>377.25</ele><time>2026-04-29T09:36:35Z</time></trkpt><trkpt lat="42.64493236315825" lon="12.147156022683138"><ele>377.5</ele><time>2026-04-29T09:36:36Z</time></trkpt><trkpt lat="42.644981388024654" lon="12.146966210103658"><ele>377.75</ele><time>2026-04-29T09:36:37Z</time></trkpt><trkpt lat="42.6450196868811" lon="12.146783375679266"><ele>378.0</ele><time>2026-04-29T09:36:38Z</time></trkpt><trkpt lat="42.64505168974563" lon="12.146611812537516"><ele>378.0</ele><time>2026-04-29T09:36:39Z</time></trkpt><trkpt lat="42.645079889074836" lon="12.146467984062937"><ele>378.0</ele><time>2026-04-29T09:36:40Z</time></trkpt><trkpt lat="42.645095285921364" lon="12.146339976057602"><ele>378.0</ele><time>2026-04-29T09:36:41Z</time></trkpt><trkpt lat="42.64510640083433" lon="12.146223931223444"><ele>378.0</ele><time>2026-04-29T09:36:42Z</time></trkpt><trkpt lat="42.64512717069483" lon="12.14610279986605"><ele>378.0</ele><time>2026-04-29T09:36:43Z</time></trkpt><trkpt lat="42.645108391000655" lon="12.145965211144762"><ele>378.0</ele><time>2026-04-29T09:36:44Z</time></trkpt><trkpt lat="42.64510559707363" lon="12.145805774354415"><ele>378.0</ele><time>2026-04-29T09:36:45Z</time></trkpt><trkpt lat="42.64508828575459" lon="12.145617509083868"><ele>378.0</ele><time>2026-04-29T09:36:46Z</time></trkpt><trkpt lat="42.64507857105538" lon="12.145430171407833"><ele>378.0</ele><time>2026-04-29T09:36:47Z</time></trkpt><trkpt lat="42.64505902679017" lon="12.145226667401353"><ele>378.0</ele><time>2026-04-29T09:36:48Z</time></trkpt><trkpt lat="42.645041859680425" lon="12.14500825517501"><ele>378.0</ele><time>2026-04-29T09:36:49Z</time></trkpt><trkpt lat="42.64502353833235" lon="12.144784155212598"><ele>378.0</ele><time>2026-04-29T09:36:50Z</time></trkpt><trkpt lat="42.64500350303309" lon="12.144553729453225"><ele>378.3333333333333</ele><time>2026-04-29T09:36:51Z</time></trkpt><trkpt lat="42.644982928986025" lon="12.144333049386551"><ele>378.66666666666663</ele><time>2026-04-29T09:36:52Z</time></trkpt><trkpt lat="42.64496613977746" lon="12.144124188964257"><ele>379.0</ele><time>2026-04-29T09:36:53Z</time></trkpt><trkpt lat="42.64494633056248" lon="12.143920706456864"><ele>379.0</ele><time>2026-04-29T09:36:54Z</time></trkpt><trkpt lat="42.64491366753369" lon="12.143717133551124"><ele>379.0</ele><time>2026-04-29T09:36:55Z</time></trkpt><trkpt lat="42.644870546471104" lon="12.143515715743458"><ele>379.0</ele><time>2026-04-29T09:36:56Z</time></trkpt><trkpt lat="42.644813510040386" lon="12.143308085829132"><ele>379.0</ele><time>2026-04-29T09:36:57Z</time></trkpt><trkpt lat="42.64474774063064" lon="12.143099413303029"><ele>379.0</ele><time>2026-04-29T09:36:58Z</time></trkpt><trkpt lat="42.644678016214876" lon="12.142895229236272"><ele>379.0</ele><time>2026-04-29T09:36:59Z</time></trkpt><trkpt lat="42.64461040153758" lon="12.142698657472774"><ele>379.0</ele><time>2026-04-29T09:37:00Z</time></trkpt><trkpt lat="42.64456039784052" lon="12.14250300733657"><ele>379.0</ele><time>2026-04-29T09:37:01Z</time></trkpt><trkpt lat="42.644539847218915" lon="12.142304275503133"><ele>379.0</ele><time>2026-04-29T09:37:02Z</time></trkpt><trkpt lat="42.644538966927186" lon="12.142111096268664"><ele>379.0</ele><time>2026-04-29T09:37:03Z</time></trkpt><trkpt lat="42.64454577078734" lon="12.141915510065212"><ele>379.0</ele><time>2026-04-29T09:37:04Z</time></trkpt><trkpt lat="42.64455226838762" lon="12.141705573156413"><ele>379.0</ele><time>2026-04-29T09:37:05Z</time></trkpt><trkpt lat="42.64456469141869" lon="12.141481696673786"><ele>379.0</ele><time>2026-04-29T09:37:06Z</time></trkpt><trkpt lat="42.64458565463097" lon="12.141250388359937"><ele>380.0</ele><time>2026-04-29T09:37:07Z</time></trkpt><trkpt lat="42.64462145741231" lon="12.141006298111353"><ele>381.0</ele><time>2026-04-29T09:37:08Z</time></trkpt><trkpt lat="42.64466507193675" lon="12.14075772317075"><ele>382.0</ele><time>2026-04-29T09:37:09Z</time></trkpt><trkpt lat="42.64471841811846" lon="12.14049371995344"><ele>384.0</ele><time>2026-04-29T09:37:10Z</time></trkpt><trkpt lat="42.64477941432796" lon="12.140227490196022"><ele>386.0</ele><time>2026-04-29T09:37:11Z</time></trkpt><trkpt lat="42.64484202245901" lon="12.139980080590036"><ele>388.0</ele><time>2026-04-29T09:37:12Z</time></trkpt><trkpt lat="42.64490276616767" lon="12.13975193747119"><ele>388.6666666666667</ele><time>2026-04-29T09:37:13Z</time></trkpt><trkpt lat="42.64496066599435" lon="12.139529324048933"><ele>389.33333333333337</ele><time>2026-04-29T09:37:14Z</time></trkpt><trkpt lat="42.645015269521494" lon="12.139307021061166"><ele>390.0</ele><time>2026-04-29T09:37:15Z</time></trkpt><trkpt lat="42.645071134504974" lon="12.13909931385973"><ele>389.66666666666663</ele><time>2026-04-29T09:37:16Z</time></trkpt><trkpt lat="42.645114402817555" lon="12.138886554653698"><ele>389.3333333333333</ele><time>2026-04-29T09:37:17Z</time></trkpt><trkpt lat="42.64514025128996" lon="12.138677971280435"><ele>389.0</ele><time>2026-04-29T09:37:18Z</time></trkpt><trkpt lat="42.64515736948866" lon="12.138471560070426"><ele>389.0</ele><time>2026-04-29T09:37:19Z</time></trkpt><trkpt lat="42.64515715816711" lon="12.138255139068914"><ele>389.0</ele><time>2026-04-29T09:37:20Z</time></trkpt><trkpt lat="42.645138042261365" lon="12.138035858799022"><ele>389.0</ele><time>2026-04-29T09:37:21Z</time></trkpt><trkpt lat="42.645105845142595" lon="12.137822775607331"><ele>389.0</ele><time>2026-04-29T09:37:22Z</time></trkpt><trkpt lat="42.64506462722137" lon="12.137625449233632"><ele>389.0</ele><time>2026-04-29T09:37:23Z</time></trkpt><trkpt lat="42.64500727436009" lon="12.137440511729721"><ele>389.0</ele><time>2026-04-29T09:37:24Z</time></trkpt><trkpt lat="42.644933898240936" lon="12.137264914276027"><ele>389.0</ele><time>2026-04-29T09:37:25Z</time></trkpt><trkpt lat="42.64484511873652" lon="12.137079924603832"><ele>389.3333333333333</ele><time>2026-04-29T09:37:26Z</time></trkpt><trkpt lat="42.64475433798074" lon="12.13688641011081"><ele>389.66666666666663</ele><time>2026-04-29T09:37:27Z</time></trkpt><trkpt lat="42.64465697860258" lon="12.136682598488088"><ele>390.0</ele><time>2026-04-29T09:37:28Z</time></trkpt><trkpt lat="42.644556824055186" lon="12.136482016309316"><ele>390.66666666666663</ele><time>2026-04-29T09:37:29Z</time></trkpt><trkpt lat="42.64446495477427" lon="12.136296590368188"><ele>391.3333333333333</ele><time>2026-04-29T09:37:30Z</time></trkpt><trkpt lat="42.64438566194992" lon="12.136101971415398"><ele>392.0</ele><time>2026-04-29T09:37:31Z</time></trkpt><trkpt lat="42.64431491177033" lon="12.135904781459962"><ele>394.66666666666663</ele><time>2026-04-29T09:37:32Z</time></trkpt><trkpt lat="42.64425467780085" lon="12.135695337370294"><ele>397.33333333333337</ele><time>2026-04-29T09:37:33Z</time></trkpt><trkpt lat="42.64420660595475" lon="12.13548359741064"><ele>400.0</ele><time>2026-04-29T09:37:34Z</time></trkpt><trkpt lat="42.644161234815556" lon="12.135272068911085"><ele>400.0</ele><time>2026-04-29T09:37:35Z</time></trkpt><trkpt lat="42.644128583015465" lon="12.135071891265135"><ele>400.0</ele><time>2026-04-29T09:37:36Z</time></trkpt><trkpt lat="42.6441156014681" lon="12.134875817037123"><ele>400.0</ele><time>2026-04-29T09:37:37Z</time></trkpt><trkpt lat="42.64412448176166" lon="12.134712280215277"><ele>400.0</ele><time>2026-04-29T09:37:38Z</time></trkpt><trkpt lat="42.64416822204672" lon="12.134577211601187"><ele>400.75</ele><time>2026-04-29T09:37:39Z</time></trkpt><trkpt lat="42.64421343029223" lon="12.134473002462224"><ele>401.5</ele><time>2026-04-29T09:37:40Z</time></trkpt><trkpt lat="42.64427546687747" lon="12.134372970255685"><ele>402.25</ele><time>2026-04-29T09:37:41Z</time></trkpt><trkpt lat="42.64435853576557" lon="12.134246883600683"><ele>403.0</ele><time>2026-04-29T09:37:42Z</time></trkpt><trkpt lat="42.644469880499926" lon="12.134121529323524"><ele>404.33333333333337</ele><time>2026-04-29T09:37:43Z</time></trkpt><trkpt lat="42.64459040162893" lon="12.133984037485254"><ele>405.66666666666663</ele><time>2026-04-29T09:37:44Z</time></trkpt><trkpt lat="42.6447209367111" lon="12.133869019335593"><ele>407.0</ele><time>2026-04-29T09:37:45Z</time></trkpt><trkpt lat="42.644847122286784" lon="12.133743825380037"><ele>407.0</ele><time>2026-04-29T09:37:46Z</time></trkpt><trkpt lat="42.64498209385523" lon="12.133629489681255"><ele>407.0</ele><time>2026-04-29T09:37:47Z</time></trkpt><trkpt lat="42.64512771799591" lon="12.133506798777047"><ele>407.0</ele><time>2026-04-29T09:37:48Z</time></trkpt><trkpt lat="42.64530131076765" lon="12.133431807487641"><ele>407.0</ele><time>2026-04-29T09:37:49Z</time></trkpt><trkpt lat="42.645477285172475" lon="12.133335843522223"><ele>407.0</ele><time>2026-04-29T09:37:50Z</time></trkpt><trkpt lat="42.64566127970966" lon="12.133232032420752"><ele>407.0</ele><time>2026-04-29T09:37:51Z</time></trkpt><trkpt lat="42.645836357650566" lon="12.133123293662347"><ele>407.0</ele><time>2026-04-29T09:37:52Z</time></trkpt><trkpt lat="42.64599122157983" lon="12.133025851122891"><ele>407.0</ele><time>2026-04-29T09:37:53Z</time></trkpt><trkpt lat="42.646110312941616" lon="12.13292696700091"><ele>407.0</ele><time>2026-04-29T09:37:54Z</time></trkpt><trkpt lat="42.646214394167295" lon="12.132866309454963"><ele>407.0</ele><time>2026-04-29T09:37:55Z</time></trkpt><trkpt lat="42.64628932173437" lon="12.1328176730904"><ele>406.20000000000005</ele><time>2026-04-29T09:37:56Z</time></trkpt><trkpt lat="42.64637607726625" lon="12.132769403350867"><ele>405.4</ele><time>2026-04-29T09:37:58Z</time></trkpt><trkpt lat="42.6464464504627" lon="12.132728707787031"><ele>404.6</ele><time>2026-04-29T09:38:01Z</time></trkpt><trkpt lat="42.646513937035564" lon="12.132663505411594"><ele>403.79999999999995</ele><time>2026-04-29T09:38:04Z</time></trkpt><trkpt lat="42.64658160989647" lon="12.132645009083296"><ele>403.0</ele><time>2026-04-29T09:38:08Z</time></trkpt><trkpt lat="42.64646978949927" lon="12.132437509494086"><ele>403.4</ele><time>2026-04-29T09:38:10Z</time></trkpt><trkpt lat="42.64641502270641" lon="12.13236647741283"><ele>403.79999999999995</ele><time>2026-04-29T09:38:11Z</time></trkpt><trkpt lat="42.64635687463995" lon="12.132274710617539"><ele>404.2</ele><time>2026-04-29T09:38:12Z</time></trkpt><trkpt lat="42.64628545043139" lon="12.132167093370693"><ele>404.6</ele><time>2026-04-29T09:38:13Z</time></trkpt><trkpt lat="42.64620182586057" lon="12.132045933791519"><ele>405.0</ele><time>2026-04-29T09:38:14Z</time></trkpt><trkpt lat="42.64610445424837" lon="12.131902113051657"><ele>406.0</ele><time>2026-04-29T09:38:15Z</time></trkpt><trkpt lat="42.645995054198" lon="12.131740261270108"><ele>407.0</ele><time>2026-04-29T09:38:16Z</time></trkpt><trkpt lat="42.6458864857732" lon="12.13157145199954"><ele>408.0</ele><time>2026-04-29T09:38:17Z</time></trkpt><trkpt lat="42.64576481909617" lon="12.131386083681326"><ele>408.33333333333337</ele><time>2026-04-29T09:38:18Z</time></trkpt><trkpt lat="42.645630902241706" lon="12.13119140194718"><ele>408.6666666666667</ele><time>2026-04-29T09:38:19Z</time></trkpt><trkpt lat="42.645492854532435" lon="12.130986481900228"><ele>409.0</ele><time>2026-04-29T09:38:20Z</time></trkpt><trkpt lat="42.64535614326082" lon="12.130784603119428"><ele>410.33333333333337</ele><time>2026-04-29T09:38:21Z</time></trkpt><trkpt lat="42.645216125747304" lon="12.13057275020953"><ele>411.66666666666663</ele><time>2026-04-29T09:38:22Z</time></trkpt><trkpt lat="42.6450677918786" lon="12.130352454723338"><ele>413.0</ele><time>2026-04-29T09:38:23Z</time></trkpt><trkpt lat="42.64492019770457" lon="12.130134849452023"><ele>413.0</ele><time>2026-04-29T09:38:24Z</time></trkpt><trkpt lat="42.6447897835491" lon="12.12993562520806"><ele>413.0</ele><time>2026-04-29T09:38:25Z</time></trkpt><trkpt lat="42.64465967333051" lon="12.129727172733887"><ele>413.0</ele><time>2026-04-29T09:38:26Z</time></trkpt><trkpt lat="42.64453015296343" lon="12.12950506749514"><ele>414.3333333333333</ele><time>2026-04-29T09:38:27Z</time></trkpt><trkpt lat="42.644401214692486" lon="12.129273219666462"><ele>415.66666666666663</ele><time>2026-04-29T09:38:28Z</time></trkpt><trkpt lat="42.644265046120346" lon="12.129031801541077"><ele>417.0</ele><time>2026-04-29T09:38:29Z</time></trkpt><trkpt lat="42.64412254991827" lon="12.128787861007693"><ele>418.0</ele><time>2026-04-29T09:38:30Z</time></trkpt><trkpt lat="42.64398071746329" lon="12.128534600622503"><ele>419.0</ele><time>2026-04-29T09:38:31Z</time></trkpt><trkpt lat="42.64384224511268" lon="12.128275534051856"><ele>418.5</ele><time>2026-04-29T09:38:32Z</time></trkpt><trkpt lat="42.64370080421418" lon="12.128012590130469"><ele>418.0</ele><time>2026-04-29T09:38:33Z</time></trkpt><trkpt lat="42.64356368898602" lon="12.127746507255738"><ele>419.0</ele><time>2026-04-29T09:38:34Z</time></trkpt><trkpt lat="42.64342918477688" lon="12.127473664521776"><ele>420.0</ele><time>2026-04-29T09:38:35Z</time></trkpt><trkpt lat="42.643289672449484" lon="12.127193918586897"><ele>421.0</ele><time>2026-04-29T09:38:36Z</time></trkpt><trkpt lat="42.64314937933498" lon="12.126912639242555"><ele>422.0</ele><time>2026-04-29T09:38:37Z</time></trkpt><trkpt lat="42.64301326041771" lon="12.12663589982586"><ele>422.3333333333333</ele><time>2026-04-29T09:38:38Z</time></trkpt><trkpt lat="42.64288766248763" lon="12.126382082480063"><ele>422.66666666666663</ele><time>2026-04-29T09:38:39Z</time></trkpt><trkpt lat="42.64276313928507" lon="12.126147242025981"><ele>423.0</ele><time>2026-04-29T09:38:40Z</time></trkpt><trkpt lat="42.642646907427554" lon="12.125935667917906"><ele>423.66666666666663</ele><time>2026-04-29T09:38:41Z</time></trkpt><trkpt lat="42.64254999814484" lon="12.12573607184017"><ele>424.3333333333333</ele><time>2026-04-29T09:38:42Z</time></trkpt><trkpt lat="42.64246480139218" lon="12.125533679980425"><ele>425.0</ele><time>2026-04-29T09:38:43Z</time></trkpt><trkpt lat="42.642402214341395" lon="12.125327211887505"><ele>425.66666666666663</ele><time>2026-04-29T09:38:44Z</time></trkpt><trkpt lat="42.64235888989589" lon="12.125098549898633"><ele>426.33333333333337</ele><time>2026-04-29T09:38:45Z</time></trkpt><trkpt lat="42.64235313925613" lon="12.124849659613666"><ele>427.0</ele><time>2026-04-29T09:38:46Z</time></trkpt><trkpt lat="42.642325285022295" lon="12.124580277846984"><ele>428.0</ele><time>2026-04-29T09:38:47Z</time></trkpt><trkpt lat="42.64230940180213" lon="12.124293705711702"><ele>429.0</ele><time>2026-04-29T09:38:48Z</time></trkpt><trkpt lat="42.64228745415926" lon="12.123998893053178"><ele>430.0</ele><time>2026-04-29T09:38:49Z</time></trkpt><trkpt lat="42.642271161653916" lon="12.123702593662912"><ele>431.5</ele><time>2026-04-29T09:38:50Z</time></trkpt><trkpt lat="42.64225578475548" lon="12.123397105192916"><ele>433.0</ele><time>2026-04-29T09:38:51Z</time></trkpt><trkpt lat="42.64223395328191" lon="12.123093418346139"><ele>434.0</ele><time>2026-04-29T09:38:52Z</time></trkpt><trkpt lat="42.64221652958923" lon="12.122822195909585"><ele>435.0</ele><time>2026-04-29T09:38:53Z</time></trkpt><trkpt lat="42.64219878464705" lon="12.122568351659579"><ele>436.0</ele><time>2026-04-29T09:38:54Z</time></trkpt><trkpt lat="42.64218326080154" lon="12.1223176749699"><ele>436.33333333333337</ele><time>2026-04-29T09:38:55Z</time></trkpt><trkpt lat="42.642169631904956" lon="12.122078337766254"><ele>436.66666666666663</ele><time>2026-04-29T09:38:56Z</time></trkpt><trkpt lat="42.642155377219424" lon="12.12187264034654"><ele>437.0</ele><time>2026-04-29T09:38:57Z</time></trkpt><trkpt lat="42.64215631221811" lon="12.121679684425656"><ele>437.0</ele><time>2026-04-29T09:38:58Z</time></trkpt><trkpt lat="42.6421422849471" lon="12.1214706046183"><ele>437.0</ele><time>2026-04-29T09:38:59Z</time></trkpt><trkpt lat="42.64212672168096" lon="12.121251450010666"><ele>437.0</ele><time>2026-04-29T09:39:00Z</time></trkpt><trkpt lat="42.642097784934876" lon="12.121029275425775"><ele>437.0</ele><time>2026-04-29T09:39:01Z</time></trkpt><trkpt lat="42.6420684343266" lon="12.120796186630718"><ele>437.0</ele><time>2026-04-29T09:39:02Z</time></trkpt><trkpt lat="42.64201647472109" lon="12.120556319572103"><ele>437.0</ele><time>2026-04-29T09:39:03Z</time></trkpt><trkpt lat="42.64195175070775" lon="12.120311138585365"><ele>438.66666666666663</ele><time>2026-04-29T09:39:04Z</time></trkpt><trkpt lat="42.641871316905856" lon="12.120068088453554"><ele>440.33333333333337</ele><time>2026-04-29T09:39:05Z</time></trkpt><trkpt lat="42.64178402953542" lon="12.119826078435768"><ele>442.0</ele><time>2026-04-29T09:39:06Z</time></trkpt><trkpt lat="42.64169384028425" lon="12.119584165015509"><ele>442.33333333333337</ele><time>2026-04-29T09:39:07Z</time></trkpt><trkpt lat="42.641604299928815" lon="12.119339916235312"><ele>442.66666666666663</ele><time>2026-04-29T09:39:08Z</time></trkpt><trkpt lat="42.64151664139395" lon="12.1190918305583"><ele>443.0</ele><time>2026-04-29T09:39:09Z</time></trkpt><trkpt lat="42.64142881011035" lon="12.118842743143643"><ele>443.3333333333333</ele><time>2026-04-29T09:39:10Z</time></trkpt><trkpt lat="42.641341879752886" lon="12.118606207495029"><ele>443.66666666666663</ele><time>2026-04-29T09:39:11Z</time></trkpt><trkpt lat="42.641255098795845" lon="12.118383712027603"><ele>444.0</ele><time>2026-04-29T09:39:12Z</time></trkpt><trkpt lat="42.64117001569193" lon="12.118165046979236"><ele>445.0</ele><time>2026-04-29T09:39:13Z</time></trkpt><trkpt lat="42.64108937847394" lon="12.117961722745191"><ele>446.0</ele><time>2026-04-29T09:39:14Z</time></trkpt><trkpt lat="42.64101378007577" lon="12.117765694378619"><ele>447.0</ele><time>2026-04-29T09:39:15Z</time></trkpt><trkpt lat="42.640943427706624" lon="12.117563459126842"><ele>447.66666666666663</ele><time>2026-04-29T09:39:16Z</time></trkpt><trkpt lat="42.64086779635693" lon="12.117352483310265"><ele>448.3333333333333</ele><time>2026-04-29T09:39:17Z</time></trkpt><trkpt lat="42.64078587580144" lon="12.11712931693862"><ele>449.0</ele><time>2026-04-29T09:39:18Z</time></trkpt><trkpt lat="42.640701046129706" lon="12.116897611925705"><ele>449.0</ele><time>2026-04-29T09:39:19Z</time></trkpt><trkpt lat="42.640612470850286" lon="12.116656787241615"><ele>449.0</ele><time>2026-04-29T09:39:20Z</time></trkpt><trkpt lat="42.64052311935208" lon="12.11641255709099"><ele>449.0</ele><time>2026-04-29T09:39:21Z</time></trkpt><trkpt lat="42.64043421116834" lon="12.116164114379071"><ele>450.3333333333333</ele><time>2026-04-29T09:39:22Z</time></trkpt><trkpt lat="42.64034300947336" lon="12.115917820276833"><ele>451.66666666666663</ele><time>2026-04-29T09:39:23Z</time></trkpt><trkpt lat="42.64025874430269" lon="12.115691287199825"><ele>453.0</ele><time>2026-04-29T09:39:24Z</time></trkpt><trkpt lat="42.64018044894633" lon="12.11548135183236"><ele>452.66666666666663</ele><time>2026-04-29T09:39:25Z</time></trkpt><trkpt lat="42.64010821928252" lon="12.115280696047495"><ele>452.3333333333333</ele><time>2026-04-29T09:39:26Z</time></trkpt><trkpt lat="42.64003237859199" lon="12.11506711865429"><ele>452.0</ele><time>2026-04-29T09:39:27Z</time></trkpt><trkpt lat="42.63994958747517" lon="12.114832902596115"><ele>452.0</ele><time>2026-04-29T09:39:28Z</time></trkpt><trkpt lat="42.639862484704054" lon="12.114582766532006"><ele>452.0</ele><time>2026-04-29T09:39:29Z</time></trkpt><trkpt lat="42.63977358625657" lon="12.114337398330688"><ele>452.0</ele><time>2026-04-29T09:39:30Z</time></trkpt><trkpt lat="42.63969008542361" lon="12.114112747306514"><ele>452.0</ele><time>2026-04-29T09:39:31Z</time></trkpt><trkpt lat="42.639612847362365" lon="12.11390109230503"><ele>452.0</ele><time>2026-04-29T09:39:32Z</time></trkpt><trkpt lat="42.63953924858107" lon="12.113697897453694"><ele>452.0</ele><time>2026-04-29T09:39:33Z</time></trkpt><trkpt lat="42.63946414855063" lon="12.11352260282568"><ele>451.75</ele><time>2026-04-29T09:39:34Z</time></trkpt><trkpt lat="42.63937898399024" lon="12.113364675050017"><ele>451.5</ele><time>2026-04-29T09:39:35Z</time></trkpt><trkpt lat="42.639286965982315" lon="12.113225977240033"><ele>451.25</ele><time>2026-04-29T09:39:36Z</time></trkpt><trkpt lat="42.639189869182196" lon="12.113116180181382"><ele>451.0</ele><time>2026-04-29T09:39:37Z</time></trkpt><trkpt lat="42.639074478811736" lon="12.113017486112229"><ele>451.0</ele><time>2026-04-29T09:39:38Z</time></trkpt><trkpt lat="42.63893144191031" lon="12.112920723921894"><ele>451.0</ele><time>2026-04-29T09:39:39Z</time></trkpt><trkpt lat="42.638767872824076" lon="12.112827707623845"><ele>451.0</ele><time>2026-04-29T09:39:40Z</time></trkpt><trkpt lat="42.63859262086516" lon="12.112733393825245"><ele>447.33333333333337</ele><time>2026-04-29T09:39:41Z</time></trkpt><trkpt lat="42.63841948220843" lon="12.112632655165326"><ele>443.66666666666663</ele><time>2026-04-29T09:39:42Z</time></trkpt><trkpt lat="42.638266622066574" lon="12.112535214839678"><ele>440.0</ele><time>2026-04-29T09:39:43Z</time></trkpt><trkpt lat="42.63813749224796" lon="12.112437935348202"><ele>441.8</ele><time>2026-04-29T09:39:44Z</time></trkpt><trkpt lat="42.638047853705224" lon="12.112352109821854"><ele>443.6</ele><time>2026-04-29T09:39:45Z</time></trkpt><trkpt lat="42.63798582546427" lon="12.112268760223841"><ele>445.4</ele><time>2026-04-29T09:39:46Z</time></trkpt><trkpt lat="42.637939867302684" lon="12.112161873028672"><ele>447.2</ele><time>2026-04-29T09:39:47Z</time></trkpt><trkpt lat="42.63792365344614" lon="12.112038566373858"><ele>449.0</ele><time>2026-04-29T09:39:48Z</time></trkpt><trkpt lat="42.63794368472404" lon="12.11188997414577"><ele>449.0</ele><time>2026-04-29T09:39:49Z</time></trkpt><trkpt lat="42.63793751519672" lon="12.11173072035848"><ele>449.0</ele><time>2026-04-29T09:39:50Z</time></trkpt><trkpt lat="42.637952268933006" lon="12.111537280678563"><ele>449.0</ele><time>2026-04-29T09:39:51Z</time></trkpt><trkpt lat="42.63795843452184" lon="12.111332555382603"><ele>449.0</ele><time>2026-04-29T09:39:52Z</time></trkpt><trkpt lat="42.637955056612725" lon="12.111135187560592"><ele>449.0</ele><time>2026-04-29T09:39:53Z</time></trkpt><trkpt lat="42.63794775860207" lon="12.110948938091244"><ele>449.0</ele><time>2026-04-29T09:39:54Z</time></trkpt><trkpt lat="42.63793717255135" lon="12.110774874406863"><ele>449.0</ele><time>2026-04-29T09:39:55Z</time></trkpt><trkpt lat="42.637932054004665" lon="12.110588550662186"><ele>449.0</ele><time>2026-04-29T09:39:56Z</time></trkpt><trkpt lat="42.6379395771796" lon="12.110408938907609"><ele>449.0</ele><time>2026-04-29T09:39:57Z</time></trkpt><trkpt lat="42.637953902358845" lon="12.110241764831644"><ele>449.0</ele><time>2026-04-29T09:39:58Z</time></trkpt><trkpt lat="42.637959627156434" lon="12.11009714107765"><ele>449.0</ele><time>2026-04-29T09:39:59Z</time></trkpt><trkpt lat="42.63794271573061" lon="12.109978379710443"><ele>449.0</ele><time>2026-04-29T09:40:00Z</time></trkpt><trkpt lat="42.637907815811516" lon="12.109884138794841"><ele>449.0</ele><time>2026-04-29T09:40:01Z</time></trkpt><trkpt lat="42.637854436594445" lon="12.109810268496156"><ele>445.5</ele><time>2026-04-29T09:40:02Z</time></trkpt><trkpt lat="42.63777256613943" lon="12.109747747627983"><ele>442.0</ele><time>2026-04-29T09:40:03Z</time></trkpt><trkpt lat="42.63767387141529" lon="12.109680169349549"><ele>438.5</ele><time>2026-04-29T09:40:04Z</time></trkpt><trkpt lat="42.63756581667881" lon="12.109593001329895"><ele>435.0</ele><time>2026-04-29T09:40:05Z</time></trkpt><trkpt lat="42.637454463908355" lon="12.109498075116122"><ele>435.0</ele><time>2026-04-29T09:40:06Z</time></trkpt><trkpt lat="42.63735561594049" lon="12.109412426862606"><ele>435.0</ele><time>2026-04-29T09:40:07Z</time></trkpt><trkpt lat="42.63726765875431" lon="12.109335505198294"><ele>435.0</ele><time>2026-04-29T09:40:08Z</time></trkpt><trkpt lat="42.63719581542755" lon="12.109277417961874"><ele>435.0</ele><time>2026-04-29T09:40:09Z</time></trkpt><trkpt lat="42.63712659316526" lon="12.109250777988828"><ele>435.0</ele><time>2026-04-29T09:40:10Z</time></trkpt><trkpt lat="42.637043575854364" lon="12.10928933503934"><ele>439.2</ele><time>2026-04-29T09:40:11Z</time></trkpt><trkpt lat="42.636967872373624" lon="12.109386223731258"><ele>443.4</ele><time>2026-04-29T09:40:12Z</time></trkpt><trkpt lat="42.636901992356556" lon="12.109512096647878"><ele>447.6</ele><time>2026-04-29T09:40:13Z</time></trkpt><trkpt lat="42.636853576450555" lon="12.109648390504898"><ele>451.8</ele><time>2026-04-29T09:40:14Z</time></trkpt><trkpt lat="42.63680707480566" lon="12.10978367886425"><ele>456.0</ele><time>2026-04-29T09:40:15Z</time></trkpt><trkpt lat="42.63673955936097" lon="12.10989543251813"><ele>453.20000000000005</ele><time>2026-04-29T09:40:16Z</time></trkpt><trkpt lat="42.63665721685486" lon="12.109968754322688"><ele>450.40000000000003</ele><time>2026-04-29T09:40:17Z</time></trkpt><trkpt lat="42.63656902190875" lon="12.110042066166447"><ele>447.6</ele><time>2026-04-29T09:40:18Z</time></trkpt><trkpt lat="42.63646695644873" lon="12.110082354946885"><ele>444.8</ele><time>2026-04-29T09:40:19Z</time></trkpt><trkpt lat="42.6363720021307" lon="12.110097833538136"><ele>442.0</ele><time>2026-04-29T09:40:20Z</time></trkpt><trkpt lat="42.63629745952896" lon="12.11009781180983"><ele>442.0</ele><time>2026-04-29T09:40:21Z</time></trkpt><trkpt lat="42.63623752657872" lon="12.110057208398715"><ele>442.00000000000006</ele><time>2026-04-29T09:40:22Z</time></trkpt><trkpt lat="42.6361873300675" lon="12.109963212641574"><ele>442.00000000000006</ele><time>2026-04-29T09:40:23Z</time></trkpt><trkpt lat="42.63614662291375" lon="12.109844685066653"><ele>442.0</ele><time>2026-04-29T09:40:24Z</time></trkpt><trkpt lat="42.63609760454716" lon="12.109701812084118"><ele>442.0</ele><time>2026-04-29T09:40:25Z</time></trkpt><trkpt lat="42.636047918662236" lon="12.10955779507876"><ele>442.5</ele><time>2026-04-29T09:40:26Z</time></trkpt><trkpt lat="42.63598277039056" lon="12.109405785894591"><ele>443.0</ele><time>2026-04-29T09:40:27Z</time></trkpt><trkpt lat="42.635916016532484" lon="12.109237071827552"><ele>443.5</ele><time>2026-04-29T09:40:28Z</time></trkpt><trkpt lat="42.63584508055692" lon="12.109056410623577"><ele>444.0</ele><time>2026-04-29T09:40:29Z</time></trkpt><trkpt lat="42.635785915759215" lon="12.108864180375932"><ele>448.0</ele><time>2026-04-29T09:40:30Z</time></trkpt><trkpt lat="42.63572908049556" lon="12.10864941847467"><ele>452.0</ele><time>2026-04-29T09:40:31Z</time></trkpt><trkpt lat="42.63565785261098" lon="12.108404605075535"><ele>456.0</ele><time>2026-04-29T09:40:32Z</time></trkpt><trkpt lat="42.635580680920135" lon="12.108175684820935"><ele>456.0</ele><time>2026-04-29T09:40:33Z</time></trkpt><trkpt lat="42.63550196976848" lon="12.107954758567534"><ele>456.0</ele><time>2026-04-29T09:40:34Z</time></trkpt><trkpt lat="42.63541139852665" lon="12.107728419223207"><ele>456.0</ele><time>2026-04-29T09:40:35Z</time></trkpt><trkpt lat="42.63531287993862" lon="12.107505518515522"><ele>457.66666666666663</ele><time>2026-04-29T09:40:36Z</time></trkpt><trkpt lat="42.635223472368324" lon="12.107286502451242"><ele>459.3333333333333</ele><time>2026-04-29T09:40:37Z</time></trkpt><trkpt lat="42.635143770019035" lon="12.107088477149933"><ele>461.0</ele><time>2026-04-29T09:40:38Z</time></trkpt><trkpt lat="42.63508014918278" lon="12.1068900964797"><ele>461.0</ele><time>2026-04-29T09:40:39Z</time></trkpt><trkpt lat="42.63501641725386" lon="12.106703512932151"><ele>461.0</ele><time>2026-04-29T09:40:40Z</time></trkpt><trkpt lat="42.63496264093726" lon="12.10651618382476"><ele>461.0</ele><time>2026-04-29T09:40:41Z</time></trkpt><trkpt lat="42.63491976868566" lon="12.106307135924917"><ele>462.66666666666663</ele><time>2026-04-29T09:40:42Z</time></trkpt><trkpt lat="42.634875171429044" lon="12.106090149377875"><ele>464.33333333333337</ele><time>2026-04-29T09:40:43Z</time></trkpt><trkpt lat="42.63483695194443" lon="12.105844190626502"><ele>466.0</ele><time>2026-04-29T09:40:44Z</time></trkpt><trkpt lat="42.634805970635014" lon="12.10559902709089"><ele>466.6666666666667</ele><time>2026-04-29T09:40:45Z</time></trkpt><trkpt lat="42.634776106780144" lon="12.105350649804814"><ele>467.33333333333337</ele><time>2026-04-29T09:40:46Z</time></trkpt><trkpt lat="42.634740183170194" lon="12.10510149078724"><ele>468.0</ele><time>2026-04-29T09:40:47Z</time></trkpt><trkpt lat="42.63470319391166" lon="12.10485323440148"><ele>468.33333333333337</ele><time>2026-04-29T09:40:48Z</time></trkpt><trkpt lat="42.634672179340775" lon="12.104608888736877"><ele>468.6666666666667</ele><time>2026-04-29T09:40:49Z</time></trkpt><trkpt lat="42.63464300668449" lon="12.10435696199172"><ele>469.0</ele><time>2026-04-29T09:40:50Z</time></trkpt><trkpt lat="42.63461451723328" lon="12.104103453564639"><ele>470.0</ele><time>2026-04-29T09:40:51Z</time></trkpt><trkpt lat="42.634583918319535" lon="12.103855313789154"><ele>471.0</ele><time>2026-04-29T09:40:52Z</time></trkpt><trkpt lat="42.634552291286006" lon="12.103600823808613"><ele>472.0</ele><time>2026-04-29T09:40:53Z</time></trkpt><trkpt lat="42.634518840930056" lon="12.103349034826444"><ele>472.0</ele><time>2026-04-29T09:40:54Z</time></trkpt><trkpt lat="42.63448489722923" lon="12.10309795269734"><ele>472.0</ele><time>2026-04-29T09:40:55Z</time></trkpt><trkpt lat="42.63445360679502" lon="12.102846060722039"><ele>472.0</ele><time>2026-04-29T09:40:56Z</time></trkpt><trkpt lat="42.634421509218015" lon="12.102592131017682"><ele>473.0</ele><time>2026-04-29T09:40:57Z</time></trkpt><trkpt lat="42.63439077258537" lon="12.102337992050947"><ele>474.0</ele><time>2026-04-29T09:40:58Z</time></trkpt><trkpt lat="42.634353471092304" lon="12.102088187088633"><ele>475.0</ele><time>2026-04-29T09:40:59Z</time></trkpt><trkpt lat="42.634310583976294" lon="12.10184378290119"><ele>475.0</ele><time>2026-04-29T09:41:00Z</time></trkpt><trkpt lat="42.634254203852635" lon="12.101599911223865"><ele>475.0</ele><time>2026-04-29T09:41:01Z</time></trkpt><trkpt lat="42.63418284845638" lon="12.101365424462697"><ele>475.0</ele><time>2026-04-29T09:41:02Z</time></trkpt><trkpt lat="42.63410290150727" lon="12.101146515231303"><ele>474.6666666666667</ele><time>2026-04-29T09:41:03Z</time></trkpt><trkpt lat="42.63402493645986" lon="12.100927104789374"><ele>474.33333333333337</ele><time>2026-04-29T09:41:04Z</time></trkpt><trkpt lat="42.63396094000382" lon="12.100725960114922"><ele>474.0</ele><time>2026-04-29T09:41:05Z</time></trkpt><trkpt lat="42.63391465273634" lon="12.10053232154899"><ele>473.66666666666663</ele><time>2026-04-29T09:41:06Z</time></trkpt><trkpt lat="42.63389052644041" lon="12.100321979236272"><ele>473.3333333333333</ele><time>2026-04-29T09:41:07Z</time></trkpt><trkpt lat="42.63388553475243" lon="12.100099903345312"><ele>473.0</ele><time>2026-04-29T09:41:08Z</time></trkpt><trkpt lat="42.63389830182799" lon="12.099884290430763"><ele>474.0</ele><time>2026-04-29T09:41:09Z</time></trkpt><trkpt lat="42.633925461412375" lon="12.099678794986861"><ele>475.0</ele><time>2026-04-29T09:41:10Z</time></trkpt><trkpt lat="42.633962919892305" lon="12.099515785787302"><ele>476.0</ele><time>2026-04-29T09:41:11Z</time></trkpt><trkpt lat="42.63400240353024" lon="12.099386429947652"><ele>477.0</ele><time>2026-04-29T09:41:12Z</time></trkpt><trkpt lat="42.634034210937735" lon="12.099281657162964"><ele>477.0</ele><time>2026-04-29T09:41:13Z</time></trkpt><trkpt lat="42.634058313010854" lon="12.09919301357105"><ele>477.0</ele><time>2026-04-29T09:41:14Z</time></trkpt><trkpt lat="42.634082148345485" lon="12.099113772919692"><ele>477.0</ele><time>2026-04-29T09:41:15Z</time></trkpt><trkpt lat="42.63412244830377" lon="12.098974441227568"><ele>477.0</ele><time>2026-04-29T09:41:17Z</time></trkpt><trkpt lat="42.63414887551831" lon="12.09886419670574"><ele>477.0</ele><time>2026-04-29T09:41:19Z</time></trkpt><trkpt lat="42.63412639982549" lon="12.098759985786977"><ele>477.0</ele><time>2026-04-29T09:41:21Z</time></trkpt><trkpt lat="42.63401018980268" lon="12.098708029555489"><ele>477.3333333333333</ele><time>2026-04-29T09:41:23Z</time></trkpt><trkpt lat="42.633944515387476" lon="12.09870189805495"><ele>477.66666666666663</ele><time>2026-04-29T09:41:24Z</time></trkpt><trkpt lat="42.63386904813894" lon="12.09866552918107"><ele>478.0</ele><time>2026-04-29T09:41:25.001Z</time></trkpt><trkpt lat="42.633800757379774" lon="12.098613384368896"><ele>478.3333333333333</ele><time>2026-04-29T09:41:26.001Z</time></trkpt><trkpt lat="42.633731107322475" lon="12.098545312778406"><ele>478.66666666666663</ele><time>2026-04-29T09:41:27.001Z</time></trkpt><trkpt lat="42.63367109401142" lon="12.098473648188484"><ele>479.0</ele><time>2026-04-29T09:41:28.001Z</time></trkpt><trkpt lat="42.63361438642724" lon="12.098402155431614"><ele>477.79999999999995</ele><time>2026-04-29T09:41:29.001Z</time></trkpt><trkpt lat="42.63355976542946" lon="12.098313999207482"><ele>476.59999999999997</ele><time>2026-04-29T09:41:30.001Z</time></trkpt><trkpt lat="42.633510770750014" lon="12.098208723911942"><ele>475.4</ele><time>2026-04-29T09:41:31.001Z</time></trkpt><trkpt lat="42.63347087547568" lon="12.098091384540345"><ele>474.2</ele><time>2026-04-29T09:41:32.001Z</time></trkpt><trkpt lat="42.63345110221476" lon="12.09796817020035"><ele>473.0</ele><time>2026-04-29T09:41:33.001Z</time></trkpt><trkpt lat="42.63344749108288" lon="12.097828727844133"><ele>473.0</ele><time>2026-04-29T09:41:34.001Z</time></trkpt><trkpt lat="42.633453670923714" lon="12.09767605409438"><ele>473.0</ele><time>2026-04-29T09:41:35.001Z</time></trkpt><trkpt lat="42.63346295039431" lon="12.097510151963146"><ele>473.0</ele><time>2026-04-29T09:41:36.001Z</time></trkpt><trkpt lat="42.6334789124402" lon="12.09734568374071"><ele>473.0</ele><time>2026-04-29T09:41:37.001Z</time></trkpt><trkpt lat="42.633497139146094" lon="12.097182978023367"><ele>473.79999999999995</ele><time>2026-04-29T09:41:38.001Z</time></trkpt><trkpt lat="42.633514199838075" lon="12.097025653895361"><ele>474.59999999999997</ele><time>2026-04-29T09:41:39.001Z</time></trkpt><trkpt lat="42.63352854989141" lon="12.09687840853406"><ele>475.40000000000003</ele><time>2026-04-29T09:41:40.001Z</time></trkpt><trkpt lat="42.633541902411594" lon="12.096750153121695"><ele>476.20000000000005</ele><time>2026-04-29T09:41:41.001Z</time></trkpt><trkpt lat="42.6335534494046" lon="12.096640601423635"><ele>477.0</ele><time>2026-04-29T09:41:42.001Z</time></trkpt><trkpt lat="42.63354533339132" lon="12.096538996440223"><ele>478.5</ele><time>2026-04-29T09:41:43.001Z</time></trkpt><trkpt lat="42.633509430886605" lon="12.096448289103009"><ele>480.0</ele><time>2026-04-29T09:41:44Z</time></trkpt><trkpt lat="42.633447470280274" lon="12.096382317145707"><ele>481.5</ele><time>2026-04-29T09:41:45Z</time></trkpt><trkpt lat="42.63335967004257" lon="12.0963581701854"><ele>483.0</ele><time>2026-04-29T09:41:46Z</time></trkpt><trkpt lat="42.633263353226845" lon="12.096379438258156"><ele>484.5</ele><time>2026-04-29T09:41:47Z</time></trkpt><trkpt lat="42.63317709068775" lon="12.096428755874737"><ele>486.0</ele><time>2026-04-29T09:41:48Z</time></trkpt><trkpt lat="42.6330900023732" lon="12.09648914935886"><ele>486.0</ele><time>2026-04-29T09:41:49Z</time></trkpt><trkpt lat="42.63300161639734" lon="12.096540525147754"><ele>486.0</ele><time>2026-04-29T09:41:50Z</time></trkpt><trkpt lat="42.63290637592775" lon="12.096567959979494"><ele>486.0</ele><time>2026-04-29T09:41:51Z</time></trkpt><trkpt lat="42.63280819239697" lon="12.096569695146803"><ele>486.0</ele><time>2026-04-29T09:41:52Z</time></trkpt><trkpt lat="42.63270810801292" lon="12.096544712190132"><ele>486.0</ele><time>2026-04-29T09:41:53Z</time></trkpt><trkpt lat="42.63261935648341" lon="12.0964898782041"><ele>481.75</ele><time>2026-04-29T09:41:54Z</time></trkpt><trkpt lat="42.63255939115344" lon="12.096388835091359"><ele>477.5</ele><time>2026-04-29T09:41:55Z</time></trkpt><trkpt lat="42.632506856270766" lon="12.096263565052174"><ele>473.25</ele><time>2026-04-29T09:41:56Z</time></trkpt><trkpt lat="42.63246184413488" lon="12.096099639321864"><ele>469.0</ele><time>2026-04-29T09:41:57Z</time></trkpt><trkpt lat="42.632420212351114" lon="12.09591660078721"><ele>470.25</ele><time>2026-04-29T09:41:58Z</time></trkpt><trkpt lat="42.632384843997784" lon="12.095718446971054"><ele>471.5</ele><time>2026-04-29T09:41:59Z</time></trkpt><trkpt lat="42.63236482188933" lon="12.095516654928211"><ele>472.75</ele><time>2026-04-29T09:42:00Z</time></trkpt><trkpt lat="42.63236923783008" lon="12.095322133202014"><ele>474.0</ele><time>2026-04-29T09:42:01Z</time></trkpt><trkpt lat="42.63238480249379" lon="12.095128901499077"><ele>474.0</ele><time>2026-04-29T09:42:02Z</time></trkpt><trkpt lat="42.63239007230066" lon="12.094939590746845"><ele>474.0</ele><time>2026-04-29T09:42:03Z</time></trkpt><trkpt lat="42.632395565542126" lon="12.09476211358549"><ele>474.0</ele><time>2026-04-29T09:42:04Z</time></trkpt><trkpt lat="42.63238165743038" lon="12.094576116355846"><ele>474.0</ele><time>2026-04-29T09:42:05Z</time></trkpt><trkpt lat="42.63238470541101" lon="12.094390705789607"><ele>472.5</ele><time>2026-04-29T09:42:06Z</time></trkpt><trkpt lat="42.63241166679831" lon="12.09419987607712"><ele>471.0</ele><time>2026-04-29T09:42:07Z</time></trkpt><trkpt lat="42.632452621244475" lon="12.094030576093663"><ele>469.5</ele><time>2026-04-29T09:42:08Z</time></trkpt><trkpt lat="42.6325136825296" lon="12.093859949073813"><ele>468.0</ele><time>2026-04-29T09:42:09Z</time></trkpt><trkpt lat="42.63260727876527" lon="12.093699774517539"><ele>467.0</ele><time>2026-04-29T09:42:10Z</time></trkpt><trkpt lat="42.63272118897678" lon="12.093546814601513"><ele>466.0</ele><time>2026-04-29T09:42:11Z</time></trkpt><trkpt lat="42.63285618902711" lon="12.093390858149949"><ele>465.0</ele><time>2026-04-29T09:42:12Z</time></trkpt><trkpt lat="42.63299109887147" lon="12.093237067753043"><ele>465.0</ele><time>2026-04-29T09:42:13Z</time></trkpt><trkpt lat="42.6331140576745" lon="12.0931012506848"><ele>465.0</ele><time>2026-04-29T09:42:14Z</time></trkpt><trkpt lat="42.63323181165391" lon="12.092971017874834"><ele>465.0</ele><time>2026-04-29T09:42:15Z</time></trkpt><trkpt lat="42.6333325737047" lon="12.092833165877947"><ele>465.0</ele><time>2026-04-29T09:42:16Z</time></trkpt><trkpt lat="42.63342117071279" lon="12.092683493653421"><ele>465.0</ele><time>2026-04-29T09:42:17Z</time></trkpt><trkpt lat="42.633483860434545" lon="12.092517198157447"><ele>465.0</ele><time>2026-04-29T09:42:18Z</time></trkpt><trkpt lat="42.63352794614928" lon="12.092322242561474"><ele>465.0</ele><time>2026-04-29T09:42:19Z</time></trkpt><trkpt lat="42.63356245568407" lon="12.092127209716004"><ele>463.25</ele><time>2026-04-29T09:42:20Z</time></trkpt><trkpt lat="42.633613373738065" lon="12.091948974692217"><ele>461.5</ele><time>2026-04-29T09:42:21Z</time></trkpt><trkpt lat="42.633686840684305" lon="12.09177796659607"><ele>459.75</ele><time>2026-04-29T09:42:22Z</time></trkpt><trkpt lat="42.633771372541666" lon="12.091611310096873"><ele>458.0</ele><time>2026-04-29T09:42:23Z</time></trkpt><trkpt lat="42.633882523626106" lon="12.091451359948634"><ele>458.0</ele><time>2026-04-29T09:42:24Z</time></trkpt><trkpt lat="42.63396559050587" lon="12.091278531059055"><ele>458.0</ele><time>2026-04-29T09:42:25Z</time></trkpt><trkpt lat="42.63406850573877" lon="12.091144542295352"><ele>458.0</ele><time>2026-04-29T09:42:26Z</time></trkpt><trkpt lat="42.63416733938563" lon="12.090993976266196"><ele>458.0</ele><time>2026-04-29T09:42:27Z</time></trkpt><trkpt lat="42.63427111746525" lon="12.090848428017594"><ele>459.0</ele><time>2026-04-29T09:42:28Z</time></trkpt><trkpt lat="42.63437805547215" lon="12.090717726855864"><ele>460.0</ele><time>2026-04-29T09:42:29Z</time></trkpt><trkpt lat="42.63448453509067" lon="12.090588576684176"><ele>461.0</ele><time>2026-04-29T09:42:30Z</time></trkpt><trkpt lat="42.63458412929902" lon="12.090447510578668"><ele>462.0</ele><time>2026-04-29T09:42:31Z</time></trkpt><trkpt lat="42.634681806579096" lon="12.090309663744762"><ele>462.0</ele><time>2026-04-29T09:42:32Z</time></trkpt><trkpt lat="42.6347846045823" lon="12.090147395052895"><ele>462.0</ele><time>2026-04-29T09:42:33Z</time></trkpt><trkpt lat="42.634874163794734" lon="12.089967635741079"><ele>462.0</ele><time>2026-04-29T09:42:34Z</time></trkpt><trkpt lat="42.63494501048261" lon="12.08980432639595"><ele>460.20000000000005</ele><time>2026-04-29T09:42:35Z</time></trkpt><trkpt lat="42.635014104267206" lon="12.089668869121848"><ele>458.40000000000003</ele><time>2026-04-29T09:42:36Z</time></trkpt><trkpt lat="42.635078997626486" lon="12.08954501199397"><ele>456.59999999999997</ele><time>2026-04-29T09:42:37Z</time></trkpt><trkpt lat="42.63511742451757" lon="12.089425605207554"><ele>454.79999999999995</ele><time>2026-04-29T09:42:38Z</time></trkpt><trkpt lat="42.6351165699862" lon="12.089304079001483"><ele>453.0</ele><time>2026-04-29T09:42:39Z</time></trkpt><trkpt lat="42.63507687851468" lon="12.089202434091566"><ele>453.0</ele><time>2026-04-29T09:42:40Z</time></trkpt><trkpt lat="42.63500096012252" lon="12.089129299171733"><ele>452.99999999999994</ele><time>2026-04-29T09:42:41Z</time></trkpt><trkpt lat="42.63489570364822" lon="12.089079087090195"><ele>452.99999999999994</ele><time>2026-04-29T09:42:42Z</time></trkpt><trkpt lat="42.63478067735206" lon="12.08903908655265"><ele>453.0</ele><time>2026-04-29T09:42:43Z</time></trkpt><trkpt lat="42.63467311818288" lon="12.089027488956704"><ele>453.0</ele><time>2026-04-29T09:42:44Z</time></trkpt><trkpt lat="42.63456438756934" lon="12.08906477198877"><ele>459.5</ele><time>2026-04-29T09:42:45Z</time></trkpt><trkpt lat="42.634459938679" lon="12.089145861069255"><ele>466.0</ele><time>2026-04-29T09:42:46Z</time></trkpt><trkpt lat="42.63436050472918" lon="12.089258586723933"><ele>472.5</ele><time>2026-04-29T09:42:47Z</time></trkpt><trkpt lat="42.63426193788732" lon="12.089375455806728"><ele>479.0</ele><time>2026-04-29T09:42:48Z</time></trkpt><trkpt lat="42.63416896428037" lon="12.089489911423202"><ele>479.0</ele><time>2026-04-29T09:42:49Z</time></trkpt><trkpt lat="42.63407821827817" lon="12.089593686935796"><ele>479.0</ele><time>2026-04-29T09:42:50Z</time></trkpt><trkpt lat="42.633980542229956" lon="12.089681666846356"><ele>479.0</ele><time>2026-04-29T09:42:51Z</time></trkpt><trkpt lat="42.63387805188258" lon="12.089761829663642"><ele>479.0</ele><time>2026-04-29T09:42:52Z</time></trkpt><trkpt lat="42.6337661634415" lon="12.089839704636114"><ele>479.0</ele><time>2026-04-29T09:42:53Z</time></trkpt><trkpt lat="42.633643610483" lon="12.089912304576762"><ele>479.0</ele><time>2026-04-29T09:42:54Z</time></trkpt><trkpt lat="42.63351340777303" lon="12.08997316107609"><ele>479.0</ele><time>2026-04-29T09:42:55Z</time></trkpt><trkpt lat="42.6333784773734" lon="12.090019287493051"><ele>479.0</ele><time>2026-04-29T09:42:56Z</time></trkpt><trkpt lat="42.63325767218642" lon="12.090056601511805"><ele>478.0</ele><time>2026-04-29T09:42:57Z</time></trkpt><trkpt lat="42.63315209703001" lon="12.0901216095784"><ele>477.0</ele><time>2026-04-29T09:42:58Z</time></trkpt><trkpt lat="42.6330650379929" lon="12.090229298128286"><ele>476.0</ele><time>2026-04-29T09:42:59Z</time></trkpt><trkpt lat="42.633000186928186" lon="12.090361572410549"><ele>475.0</ele><time>2026-04-29T09:43:00Z</time></trkpt><trkpt lat="42.63293837929771" lon="12.090491946428697"><ele>475.0</ele><time>2026-04-29T09:43:01Z</time></trkpt><trkpt lat="42.6328608414902" lon="12.090596619486329"><ele>475.0</ele><time>2026-04-29T09:43:02Z</time></trkpt><trkpt lat="42.63277256995236" lon="12.090675921480814"><ele>475.0</ele><time>2026-04-29T09:43:03Z</time></trkpt><trkpt lat="42.63267281777002" lon="12.090731983376742"><ele>475.0</ele><time>2026-04-29T09:43:04Z</time></trkpt><trkpt lat="42.63256240706271" lon="12.090755579892528"><ele>475.0</ele><time>2026-04-29T09:43:05Z</time></trkpt><trkpt lat="42.632452260159496" lon="12.09074174882019"><ele>474.8</ele><time>2026-04-29T09:43:06Z</time></trkpt><trkpt lat="42.63235295860316" lon="12.090721337066501"><ele>474.6</ele><time>2026-04-29T09:43:07Z</time></trkpt><trkpt lat="42.63226791343794" lon="12.090742555419935"><ele>474.4</ele><time>2026-04-29T09:43:08Z</time></trkpt><trkpt lat="42.63220712060302" lon="12.090831218127203"><ele>474.2</ele><time>2026-04-29T09:43:09Z</time></trkpt><trkpt lat="42.632152456302045" lon="12.090934033656698"><ele>474.0</ele><time>2026-04-29T09:43:10Z</time></trkpt><trkpt lat="42.632136806622114" lon="12.091072245391718"><ele>474.0</ele><time>2026-04-29T09:43:11Z</time></trkpt><trkpt lat="42.63217320090249" lon="12.091204890671744"><ele>474.0</ele><time>2026-04-29T09:43:12Z</time></trkpt><trkpt lat="42.63220286100048" lon="12.091318200519293"><ele>474.0</ele><time>2026-04-29T09:43:13Z</time></trkpt><trkpt lat="42.63222847796447" lon="12.091429842104581"><ele>474.0</ele><time>2026-04-29T09:43:14Z</time></trkpt><trkpt lat="42.632199898477445" lon="12.091546077612081"><ele>474.0</ele><time>2026-04-29T09:43:15Z</time></trkpt><trkpt lat="42.63213293919062" lon="12.091657671941604"><ele>475.79999999999995</ele><time>2026-04-29T09:43:16Z</time></trkpt><trkpt lat="42.63204631185478" lon="12.091770987202242"><ele>477.59999999999997</ele><time>2026-04-29T09:43:17Z</time></trkpt><trkpt lat="42.63196470278629" lon="12.091876631186404"><ele>479.4</ele><time>2026-04-29T09:43:18Z</time></trkpt><trkpt lat="42.631885173238885" lon="12.091975764869265"><ele>481.2</ele><time>2026-04-29T09:43:19Z</time></trkpt><trkpt lat="42.631814250801035" lon="12.09207810133404"><ele>483.0</ele><time>2026-04-29T09:43:20Z</time></trkpt><trkpt lat="42.631722485903715" lon="12.092153913967428"><ele>483.0</ele><time>2026-04-29T09:43:21Z</time></trkpt><trkpt lat="42.63160771994935" lon="12.092183164715415"><ele>482.99999999999994</ele><time>2026-04-29T09:43:22Z</time></trkpt><trkpt lat="42.631496450987704" lon="12.092170046066823"><ele>482.99999999999994</ele><time>2026-04-29T09:43:23Z</time></trkpt><trkpt lat="42.63141284898119" lon="12.092090297266868"><ele>483.0</ele><time>2026-04-29T09:43:24Z</time></trkpt><trkpt lat="42.631324155573786" lon="12.092002605418836"><ele>483.0</ele><time>2026-04-29T09:43:25Z</time></trkpt><trkpt lat="42.63123036644842" lon="12.091891568268892"><ele>485.0</ele><time>2026-04-29T09:43:26Z</time></trkpt><trkpt lat="42.63111401600525" lon="12.09175653728143"><ele>487.0</ele><time>2026-04-29T09:43:27Z</time></trkpt><trkpt lat="42.631003202348914" lon="12.091645052528417"><ele>489.0</ele><time>2026-04-29T09:43:28Z</time></trkpt><trkpt lat="42.63088607683526" lon="12.091552847139699"><ele>491.0</ele><time>2026-04-29T09:43:29.001Z</time></trkpt><trkpt lat="42.63077186564321" lon="12.091473570635467"><ele>491.0</ele><time>2026-04-29T09:43:30.001Z</time></trkpt><trkpt lat="42.63065481085804" lon="12.091400854448542"><ele>491.0</ele><time>2026-04-29T09:43:31.001Z</time></trkpt><trkpt lat="42.63056194489432" lon="12.091355405999284"><ele>491.0</ele><time>2026-04-29T09:43:32.001Z</time></trkpt><trkpt lat="42.63046489768537" lon="12.091319279169586"><ele>491.0</ele><time>2026-04-29T09:43:33.001Z</time></trkpt><trkpt lat="42.630364358833205" lon="12.09128396296292"><ele>491.0</ele><time>2026-04-29T09:43:34.001Z</time></trkpt><trkpt lat="42.630259336608376" lon="12.091241695175821"><ele>490.20000000000005</ele><time>2026-04-29T09:43:35.001Z</time></trkpt><trkpt lat="42.630154614661485" lon="12.091199548533076"><ele>489.40000000000003</ele><time>2026-04-29T09:43:36.001Z</time></trkpt><trkpt lat="42.630051756926356" lon="12.091178666143632"><ele>488.6</ele><time>2026-04-29T09:43:37.001Z</time></trkpt><trkpt lat="42.62995831765795" lon="12.09113842351522"><ele>487.8</ele><time>2026-04-29T09:43:38.001Z</time></trkpt><trkpt lat="42.62986572160889" lon="12.091105810920523"><ele>487.0</ele><time>2026-04-29T09:43:39.001Z</time></trkpt><trkpt lat="42.629767842127535" lon="12.09110651105265"><ele>487.0</ele><time>2026-04-29T09:43:40.001Z</time></trkpt><trkpt lat="42.62967036556682" lon="12.091159561893951"><ele>487.00000000000006</ele><time>2026-04-29T09:43:41.001Z</time></trkpt><trkpt lat="42.6295959473488" lon="12.091256134288866"><ele>487.00000000000006</ele><time>2026-04-29T09:43:42.001Z</time></trkpt><trkpt lat="42.629545905371835" lon="12.091390259197999"><ele>487.0</ele><time>2026-04-29T09:43:43.001Z</time></trkpt><trkpt lat="42.62951304459007" lon="12.091547468640098"><ele>487.0</ele><time>2026-04-29T09:43:44.001Z</time></trkpt><trkpt lat="42.62948648761148" lon="12.09169871015302"><ele>488.0</ele><time>2026-04-29T09:43:45.001Z</time></trkpt><trkpt lat="42.62945447785821" lon="12.091832462558378"><ele>489.00000000000006</ele><time>2026-04-29T09:43:46.001Z</time></trkpt><trkpt lat="42.629422938915965" lon="12.091968074487022"><ele>490.00000000000006</ele><time>2026-04-29T09:43:47.001Z</time></trkpt><trkpt lat="42.629397219393695" lon="12.09210716861525"><ele>491.0</ele><time>2026-04-29T09:43:48.001Z</time></trkpt><trkpt lat="42.629376225710615" lon="12.09224152037301"><ele>492.0</ele><time>2026-04-29T09:43:49.001Z</time></trkpt><trkpt lat="42.62936148941891" lon="12.09236632547485"><ele>491.0</ele><time>2026-04-29T09:43:50.001Z</time></trkpt><trkpt lat="42.62934587181248" lon="12.092491550638197"><ele>490.00000000000006</ele><time>2026-04-29T09:43:51.001Z</time></trkpt><trkpt lat="42.6293289855824" lon="12.092622557833808"><ele>489.00000000000006</ele><time>2026-04-29T09:43:52.001Z</time></trkpt><trkpt lat="42.62931319666872" lon="12.09274951614321"><ele>488.0</ele><time>2026-04-29T09:43:53.001Z</time></trkpt><trkpt lat="42.62928647897085" lon="12.0928819778575"><ele>487.0</ele><time>2026-04-29T09:43:54.001Z</time></trkpt><trkpt lat="42.629247407916715" lon="12.093023559556693"><ele>487.0</ele><time>2026-04-29T09:43:55.001Z</time></trkpt><trkpt lat="42.62919218261545" lon="12.09315480468006"><ele>487.0</ele><time>2026-04-29T09:43:56.001Z</time></trkpt><trkpt lat="42.62913565506481" lon="12.093308071081617"><ele>487.0</ele><time>2026-04-29T09:43:57.001Z</time></trkpt><trkpt lat="42.62907805621337" lon="12.093447632213435"><ele>487.0</ele><time>2026-04-29T09:43:58.001Z</time></trkpt><trkpt lat="42.62902216943323" lon="12.093581596446562"><ele>485.8</ele><time>2026-04-29T09:43:59.001Z</time></trkpt><trkpt lat="42.62897370171879" lon="12.09371092018681"><ele>484.6</ele><time>2026-04-29T09:44:00.001Z</time></trkpt><trkpt lat="42.62892561797755" lon="12.093832111428421"><ele>483.40000000000003</ele><time>2026-04-29T09:44:01.001Z</time></trkpt><trkpt lat="42.62887174230536" lon="12.093945457685537"><ele>482.20000000000005</ele><time>2026-04-29T09:44:02.001Z</time></trkpt><trkpt lat="42.62880992936811" lon="12.0940430405108"><ele>481.0</ele><time>2026-04-29T09:44:03.001Z</time></trkpt><trkpt lat="42.62874779055927" lon="12.094124827559012"><ele>480.00000000000006</ele><time>2026-04-29T09:44:04.001Z</time></trkpt><trkpt lat="42.62867550637622" lon="12.094191461931372"><ele>479.0</ele><time>2026-04-29T09:44:05.001Z</time></trkpt><trkpt lat="42.62860336221045" lon="12.094239695744275"><ele>478.0</ele><time>2026-04-29T09:44:06Z</time></trkpt><trkpt lat="42.62852861238327" lon="12.094261861754966"><ele>477.0</ele><time>2026-04-29T09:44:07Z</time></trkpt><trkpt lat="42.628445442226685" lon="12.094241008550084"><ele>476.00000000000006</ele><time>2026-04-29T09:44:08Z</time></trkpt><trkpt lat="42.62836486370369" lon="12.094173911439132"><ele>475.0</ele><time>2026-04-29T09:44:09Z</time></trkpt><trkpt lat="42.6282626157451" lon="12.094129421063773"><ele>477.0</ele><time>2026-04-29T09:44:10Z</time></trkpt><trkpt lat="42.628170498034194" lon="12.094060964208223"><ele>479.0</ele><time>2026-04-29T09:44:11Z</time></trkpt><trkpt lat="42.62807863776075" lon="12.09400673491929"><ele>481.0</ele><time>2026-04-29T09:44:12Z</time></trkpt><trkpt lat="42.627993733077346" lon="12.093948224125548"><ele>483.0</ele><time>2026-04-29T09:44:13Z</time></trkpt><trkpt lat="42.6279180739707" lon="12.093895053852073"><ele>485.0</ele><time>2026-04-29T09:44:14Z</time></trkpt><trkpt lat="42.62784847457079" lon="12.093841211834086"><ele>483.49999999999994</ele><time>2026-04-29T09:44:15Z</time></trkpt><trkpt lat="42.627790815365664" lon="12.093776161088432"><ele>482.0</ele><time>2026-04-29T09:44:16Z</time></trkpt><trkpt lat="42.627750779860946" lon="12.093690693682246"><ele>480.5</ele><time>2026-04-29T09:44:17Z</time></trkpt><trkpt lat="42.62772433731677" lon="12.09358500165287"><ele>479.0</ele><time>2026-04-29T09:44:18Z</time></trkpt><trkpt lat="42.62770141585734" lon="12.093473923708775"><ele>477.49999999999994</ele><time>2026-04-29T09:44:19Z</time></trkpt><trkpt lat="42.62768390109254" lon="12.09336912637369"><ele>476.0</ele><time>2026-04-29T09:44:20Z</time></trkpt><trkpt lat="42.627676404005996" lon="12.093272803113202"><ele>476.2857142857143</ele><time>2026-04-29T09:44:21Z</time></trkpt><trkpt lat="42.627671153521185" lon="12.093180899495174"><ele>476.57142857142856</ele><time>2026-04-29T09:44:22Z</time></trkpt><trkpt lat="42.62766744405828" lon="12.09308702482009"><ele>476.8571428571429</ele><time>2026-04-29T09:44:23Z</time></trkpt><trkpt lat="42.62766382389164" lon="12.092995411838555"><ele>477.14285714285717</ele><time>2026-04-29T09:44:24Z</time></trkpt><trkpt lat="42.6276608369763" lon="12.092900012118896"><ele>477.42857142857144</ele><time>2026-04-29T09:44:25Z</time></trkpt><trkpt lat="42.6276647809618" lon="12.09280086010228"><ele>477.7142857142858</ele><time>2026-04-29T09:44:26Z</time></trkpt><trkpt lat="42.62766703900399" lon="12.092701195426654"><ele>478.00000000000006</ele><time>2026-04-29T09:44:27Z</time></trkpt><trkpt lat="42.627669095719746" lon="12.092605336211454"><ele>478.00000000000006</ele><time>2026-04-29T09:44:28Z</time></trkpt><trkpt lat="42.62766726099479" lon="12.092508099535602"><ele>478.0</ele><time>2026-04-29T09:44:29Z</time></trkpt><trkpt lat="42.62765844024051" lon="12.092408425390147"><ele>478.0</ele><time>2026-04-29T09:44:30Z</time></trkpt><trkpt lat="42.627643534544205" lon="12.092312439441253"><ele>478.0</ele><time>2026-04-29T09:44:31Z</time></trkpt><trkpt lat="42.627629090549156" lon="12.09222697211947"><ele>478.00000000000006</ele><time>2026-04-29T09:44:32Z</time></trkpt><trkpt lat="42.62759563240841" lon="12.092075813207169"><ele>478.0</ele><time>2026-04-29T09:44:34Z</time></trkpt><trkpt lat="42.627538920114155" lon="12.091916266054598"><ele>479.2</ele><time>2026-04-29T09:44:36Z</time></trkpt><trkpt lat="42.62751363940139" lon="12.091836464186567"><ele>480.4</ele><time>2026-04-29T09:44:37Z</time></trkpt><trkpt lat="42.62746871616013" lon="12.091711498244676"><ele>481.59999999999997</ele><time>2026-04-29T09:44:39Z</time></trkpt><trkpt lat="42.62743614166414" lon="12.09159818265722"><ele>482.79999999999995</ele><time>2026-04-29T09:44:41Z</time></trkpt><trkpt lat="42.62738461317247" lon="12.091441578080538"><ele>484.0</ele><time>2026-04-29T09:44:43Z</time></trkpt><trkpt lat="42.627330947451824" lon="12.091315492242956"><ele>484.4</ele><time>2026-04-29T09:44:45Z</time></trkpt><trkpt lat="42.627284897296605" lon="12.091176006723039"><ele>484.79999999999995</ele><time>2026-04-29T09:44:47Z</time></trkpt><trkpt lat="42.627245779062775" lon="12.091047510246543"><ele>485.20000000000005</ele><time>2026-04-29T09:44:49Z</time></trkpt><trkpt lat="42.62718725748184" lon="12.0909114247612"><ele>485.6</ele><time>2026-04-29T09:44:51Z</time></trkpt><trkpt lat="42.62714666662689" lon="12.09078970168661"><ele>486.0</ele><time>2026-04-29T09:44:53Z</time></trkpt><trkpt lat="42.627084620156005" lon="12.090719310131272"><ele>486.5</ele><time>2026-04-29T09:44:55Z</time></trkpt><trkpt lat="42.627012963683434" lon="12.090695110282109"><ele>487.0</ele><time>2026-04-29T09:44:57Z</time></trkpt><trkpt lat="42.626964400893314" lon="12.090782039933005"><ele>487.5</ele><time>2026-04-29T09:44:58Z</time></trkpt><trkpt lat="42.62688890811031" lon="12.090838620310196"><ele>488.0</ele><time>2026-04-29T09:45:00Z</time></trkpt><trkpt lat="42.62683739971799" lon="12.09093787390179"><ele>488.5</ele><time>2026-04-29T09:45:02Z</time></trkpt><trkpt lat="42.62682566716313" lon="12.0910642255893"><ele>489.0</ele><time>2026-04-29T09:45:04Z</time></trkpt><trkpt lat="42.62683417689351" lon="12.0911570579139"><ele>486.8333333333333</ele><time>2026-04-29T09:45:05Z</time></trkpt><trkpt lat="42.62684476865197" lon="12.091269188422201"><ele>484.66666666666663</ele><time>2026-04-29T09:45:06Z</time></trkpt><trkpt lat="42.62685302921984" lon="12.09137793201325"><ele>482.5</ele><time>2026-04-29T09:45:07Z</time></trkpt><trkpt lat="42.6268593142612" lon="12.09149814217854"><ele>480.3333333333333</ele><time>2026-04-29T09:45:08Z</time></trkpt><trkpt lat="42.62686419222824" lon="12.091624548019785"><ele>478.16666666666663</ele><time>2026-04-29T09:45:09Z</time></trkpt><trkpt lat="42.62686722018361" lon="12.091745312246895"><ele>476.0</ele><time>2026-04-29T09:45:10Z</time></trkpt><trkpt lat="42.626869565507704" lon="12.09186535051688"><ele>475.99999999999994</ele><time>2026-04-29T09:45:11Z</time></trkpt><trkpt lat="42.62686965776689" lon="12.091981499538115"><ele>476.0</ele><time>2026-04-29T09:45:12Z</time></trkpt><trkpt lat="42.62687037550391" lon="12.092100004090057"><ele>476.0</ele><time>2026-04-29T09:45:13Z</time></trkpt><trkpt lat="42.6268699642984" lon="12.092212931047241"><ele>476.0</ele><time>2026-04-29T09:45:14Z</time></trkpt><trkpt lat="42.626869634350705" lon="12.092323103096515"><ele>475.99999999999994</ele><time>2026-04-29T09:45:15Z</time></trkpt><trkpt lat="42.62686859846184" lon="12.092432974540909"><ele>476.0</ele><time>2026-04-29T09:45:16Z</time></trkpt><trkpt lat="42.62686281437237" lon="12.09253941272473"><ele>476.8333333333333</ele><time>2026-04-29T09:45:17Z</time></trkpt><trkpt lat="42.62685438510839" lon="12.092640608525995"><ele>477.66666666666663</ele><time>2026-04-29T09:45:18Z</time></trkpt><trkpt lat="42.62684111444132" lon="12.092742761081334"><ele>478.5</ele><time>2026-04-29T09:45:19Z</time></trkpt><trkpt lat="42.626826270332124" lon="12.092840327780138"><ele>479.33333333333337</ele><time>2026-04-29T09:45:20Z</time></trkpt><trkpt lat="42.62680758845006" lon="12.092940061625896"><ele>480.1666666666667</ele><time>2026-04-29T09:45:21Z</time></trkpt><trkpt lat="42.626784000788625" lon="12.093047791625455"><ele>481.0</ele><time>2026-04-29T09:45:22Z</time></trkpt><trkpt lat="42.62675848667995" lon="12.093150743483903"><ele>481.00000000000006</ele><time>2026-04-29T09:45:23Z</time></trkpt><trkpt lat="42.6267333675361" lon="12.093253936953587"><ele>481.0</ele><time>2026-04-29T09:45:24Z</time></trkpt><trkpt lat="42.62671377977552" lon="12.09335596520848"><ele>481.0</ele><time>2026-04-29T09:45:25Z</time></trkpt><trkpt lat="42.62670027994613" lon="12.093452658017789"><ele>481.0</ele><time>2026-04-29T09:45:26Z</time></trkpt><trkpt lat="42.62669349952293" lon="12.093553821106894"><ele>481.00000000000006</ele><time>2026-04-29T09:45:27Z</time></trkpt><trkpt lat="42.62669095645342" lon="12.093652207437218"><ele>481.0</ele><time>2026-04-29T09:45:28Z</time></trkpt><trkpt lat="42.626683006553456" lon="12.093777477770828"><ele>481.1666666666667</ele><time>2026-04-29T09:45:29Z</time></trkpt><trkpt lat="42.62667616847107" lon="12.093901341764372"><ele>481.33333333333337</ele><time>2026-04-29T09:45:30Z</time></trkpt><trkpt lat="42.62667362033553" lon="12.094016141413178"><ele>481.5</ele><time>2026-04-29T09:45:31Z</time></trkpt><trkpt lat="42.626670733494684" lon="12.094135972212957"><ele>481.66666666666663</ele><time>2026-04-29T09:45:32Z</time></trkpt><trkpt lat="42.62665784695232" lon="12.094245504343649"><ele>481.8333333333333</ele><time>2026-04-29T09:45:33Z</time></trkpt><trkpt lat="42.626649244047435" lon="12.094360181497779"><ele>482.0</ele><time>2026-04-29T09:45:34Z</time></trkpt><trkpt lat="42.626638467283975" lon="12.094457051288565"><ele>481.99999999999994</ele><time>2026-04-29T09:45:35Z</time></trkpt><trkpt lat="42.626619644521135" lon="12.094552492905612"><ele>482.0</ele><time>2026-04-29T09:45:36Z</time></trkpt><trkpt lat="42.62660864086074" lon="12.094660207615084"><ele>482.0</ele><time>2026-04-29T09:45:37Z</time></trkpt><trkpt lat="42.62659517752281" lon="12.0947724187561"><ele>482.0</ele><time>2026-04-29T09:45:38Z</time></trkpt><trkpt lat="42.62658090412798" lon="12.09488008422387"><ele>481.99999999999994</ele><time>2026-04-29T09:45:39Z</time></trkpt><trkpt lat="42.62657338023245" lon="12.09498181019272"><ele>482.0</ele><time>2026-04-29T09:45:40Z</time></trkpt><trkpt lat="42.62656898908685" lon="12.095079894934626"><ele>482.49999999999994</ele><time>2026-04-29T09:45:41Z</time></trkpt><trkpt lat="42.62656194795381" lon="12.095171251429418"><ele>483.0</ele><time>2026-04-29T09:45:42Z</time></trkpt><trkpt lat="42.626536834624396" lon="12.095348676609328"><ele>483.5</ele><time>2026-04-29T09:45:44Z</time></trkpt><trkpt lat="42.62652956104201" lon="12.095447798287417"><ele>484.0</ele><time>2026-04-29T09:45:45Z</time></trkpt><trkpt lat="42.626523371995646" lon="12.095538709691576"><ele>484.49999999999994</ele><time>2026-04-29T09:45:46Z</time></trkpt><trkpt lat="42.62651518464888" lon="12.095624119195017"><ele>485.0</ele><time>2026-04-29T09:45:47Z</time></trkpt><trkpt lat="42.6265039315116" lon="12.09577966830646"><ele>484.99999999999994</ele><time>2026-04-29T09:45:49Z</time></trkpt><trkpt lat="42.626493499656114" lon="12.095871957683855"><ele>485.0</ele><time>2026-04-29T09:45:50Z</time></trkpt><trkpt lat="42.626486689394504" lon="12.095965245941903"><ele>485.0</ele><time>2026-04-29T09:45:51Z</time></trkpt><trkpt lat="42.62644787872171" lon="12.096087664569769"><ele>485.0</ele><time>2026-04-29T09:45:53Z</time></trkpt><trkpt lat="42.62643300106307" lon="12.09622106447779"><ele>484.99999999999994</ele><time>2026-04-29T09:45:55Z</time></trkpt><trkpt lat="42.62641320553093" lon="12.096340227647346"><ele>485.0</ele><time>2026-04-29T09:45:57.001Z</time></trkpt><trkpt lat="42.626386391591446" lon="12.096434807290029"><ele>484.99999999999994</ele><time>2026-04-29T09:45:59.001Z</time></trkpt><trkpt lat="42.62635890535268" lon="12.096546565401422"><ele>485.0</ele><time>2026-04-29T09:46:02.001Z</time></trkpt><trkpt lat="42.626343962581785" lon="12.09663887504333"><ele>485.0</ele><time>2026-04-29T09:46:05.001Z</time></trkpt><trkpt lat="42.62632572489083" lon="12.096743751973507"><ele>485.0</ele><time>2026-04-29T09:46:08.001Z</time></trkpt><trkpt lat="42.62628924219552" lon="12.096824025080508"><ele>484.99999999999994</ele><time>2026-04-29T09:46:11.001Z</time></trkpt><trkpt lat="42.62627344039786" lon="12.096924570278448"><ele>485.0</ele><time>2026-04-29T09:46:17Z</time></trkpt><trkpt lat="42.62626156716972" lon="12.09702146231269"><ele>484.4</ele><time>2026-04-29T09:46:24Z</time></trkpt><trkpt lat="42.626259967244174" lon="12.097137232354449"><ele>483.8</ele><time>2026-04-29T09:46:28Z</time></trkpt><trkpt lat="42.62623497176654" lon="12.097243238853002"><ele>483.20000000000005</ele><time>2026-04-29T09:46:30Z</time></trkpt><trkpt lat="42.626193769526814" lon="12.097395204775355"><ele>482.6</ele><time>2026-04-29T09:46:32Z</time></trkpt><trkpt lat="42.6261597735281" lon="12.097521361993994"><ele>482.0</ele><time>2026-04-29T09:46:34Z</time></trkpt><trkpt lat="42.62615398978547" lon="12.097617025575097"><ele>482.0</ele><time>2026-04-29T09:46:36Z</time></trkpt><trkpt lat="42.626130503491275" lon="12.097742316578813"><ele>482.00000000000006</ele><time>2026-04-29T09:46:38Z</time></trkpt><trkpt lat="42.62608405860048" lon="12.097880200921725"><ele>482.00000000000006</ele><time>2026-04-29T09:46:40Z</time></trkpt><trkpt lat="42.62606823312327" lon="12.09801319087182"><ele>482.0</ele><time>2026-04-29T09:46:42Z</time></trkpt><trkpt lat="42.62604680961072" lon="12.098142889455536"><ele>482.0</ele><time>2026-04-29T09:46:44Z</time></trkpt><trkpt lat="42.62602738827017" lon="12.098284287963223"><ele>481.99999999999994</ele><time>2026-04-29T09:46:46Z</time></trkpt><trkpt lat="42.625999506228226" lon="12.098373265805435"><ele>482.0</ele><time>2026-04-29T09:46:47Z</time></trkpt><trkpt lat="42.6259883212178" lon="12.098473538360393"><ele>482.0</ele><time>2026-04-29T09:46:48Z</time></trkpt><trkpt lat="42.62597838457025" lon="12.098579560628865"><ele>482.0</ele><time>2026-04-29T09:46:49Z</time></trkpt><trkpt lat="42.6259598098755" lon="12.09869156359718"><ele>481.99999999999994</ele><time>2026-04-29T09:46:50Z</time></trkpt><trkpt lat="42.62593906726792" lon="12.098798751230214"><ele>482.0</ele><time>2026-04-29T09:46:51Z</time></trkpt><trkpt lat="42.62592702334414" lon="12.098928806103828"><ele>481.99999999999994</ele><time>2026-04-29T09:46:52Z</time></trkpt><trkpt lat="42.62590534592111" lon="12.099042679535433"><ele>482.0</ele><time>2026-04-29T09:46:53Z</time></trkpt><trkpt lat="42.6258811205141" lon="12.099148164669733"><ele>482.0</ele><time>2026-04-29T09:46:54Z</time></trkpt><trkpt lat="42.6258563644558" lon="12.099249239424138"><ele>482.0</ele><time>2026-04-29T09:46:55Z</time></trkpt><trkpt lat="42.62584183288559" lon="12.099333644680605"><ele>481.99999999999994</ele><time>2026-04-29T09:46:56Z</time></trkpt><trkpt lat="42.625823168772364" lon="12.099437853748542"><ele>482.0</ele><time>2026-04-29T09:46:58Z</time></trkpt><trkpt lat="42.62581485254752" lon="12.099535723244552"><ele>482.0</ele><time>2026-04-29T09:47:00Z</time></trkpt><trkpt lat="42.625846799117795" lon="12.099635619129659"><ele>482.00000000000006</ele><time>2026-04-29T09:47:02Z</time></trkpt><trkpt lat="42.6258471206031" lon="12.099784676354377"><ele>482.00000000000006</ele><time>2026-04-29T09:47:04Z</time></trkpt><trkpt lat="42.625844714910116" lon="12.099896337595984"><ele>482.0</ele><time>2026-04-29T09:47:05Z</time></trkpt><trkpt lat="42.62583874084004" lon="12.100019170206885"><ele>482.0</ele><time>2026-04-29T09:47:06Z</time></trkpt><trkpt lat="42.62582485186036" lon="12.100150346803147"><ele>480.75</ele><time>2026-04-29T09:47:07Z</time></trkpt><trkpt lat="42.625813585835694" lon="12.10031585859862"><ele>479.5</ele><time>2026-04-29T09:47:08Z</time></trkpt><trkpt lat="42.62580636014187" lon="12.10048735048132"><ele>478.25</ele><time>2026-04-29T09:47:09Z</time></trkpt><trkpt lat="42.625797962558586" lon="12.100649061717757"><ele>477.0</ele><time>2026-04-29T09:47:10Z</time></trkpt><trkpt lat="42.62578650245237" lon="12.100813430424486"><ele>477.0</ele><time>2026-04-29T09:47:11Z</time></trkpt><trkpt lat="42.625772888817224" lon="12.100971974521778"><ele>477.0</ele><time>2026-04-29T09:47:12Z</time></trkpt><trkpt lat="42.625766632975136" lon="12.101125186364877"><ele>477.0</ele><time>2026-04-29T09:47:13Z</time></trkpt><trkpt lat="42.62575736491388" lon="12.101275861989462"><ele>477.0</ele><time>2026-04-29T09:47:14Z</time></trkpt><trkpt lat="42.62575020458657" lon="12.10143629860379"><ele>477.25</ele><time>2026-04-29T09:47:15Z</time></trkpt><trkpt lat="42.625746321917916" lon="12.101595971788143"><ele>477.5</ele><time>2026-04-29T09:47:16Z</time></trkpt><trkpt lat="42.625743564879485" lon="12.101761180055432"><ele>477.75</ele><time>2026-04-29T09:47:17Z</time></trkpt><trkpt lat="42.62574368955769" lon="12.101932644080062"><ele>478.0</ele><time>2026-04-29T09:47:18Z</time></trkpt><trkpt lat="42.62574393277551" lon="12.102114724913829"><ele>478.0</ele><time>2026-04-29T09:47:19Z</time></trkpt><trkpt lat="42.62574381766" lon="12.102289250766615"><ele>478.0</ele><time>2026-04-29T09:47:20Z</time></trkpt><trkpt lat="42.62574324505891" lon="12.102472724652168"><ele>478.0</ele><time>2026-04-29T09:47:21Z</time></trkpt><trkpt lat="42.62573920320768" lon="12.102647686091423"><ele>478.0</ele><time>2026-04-29T09:47:22Z</time></trkpt><trkpt lat="42.625736027870914" lon="12.102818111159028"><ele>478.0</ele><time>2026-04-29T09:47:23Z</time></trkpt><trkpt lat="42.62573954288422" lon="12.102986286156193"><ele>478.0</ele><time>2026-04-29T09:47:24Z</time></trkpt><trkpt lat="42.6257475351238" lon="12.103149277570754"><ele>478.0</ele><time>2026-04-29T09:47:25Z</time></trkpt><trkpt lat="42.62575717501241" lon="12.103306708404862"><ele>478.0</ele><time>2026-04-29T09:47:26Z</time></trkpt><trkpt lat="42.625764228670825" lon="12.10346103236169"><ele>476.4</ele><time>2026-04-29T09:47:27Z</time></trkpt><trkpt lat="42.62577097292528" lon="12.103612455889552"><ele>474.79999999999995</ele><time>2026-04-29T09:47:28Z</time></trkpt><trkpt lat="42.62578148319258" lon="12.103759822077828"><ele>473.2</ele><time>2026-04-29T09:47:29Z</time></trkpt><trkpt lat="42.625796083010314" lon="12.103902353307593"><ele>471.6</ele><time>2026-04-29T09:47:30Z</time></trkpt><trkpt lat="42.62578821102885" lon="12.104038015404589"><ele>470.0</ele><time>2026-04-29T09:47:31Z</time></trkpt><trkpt lat="42.625794235321464" lon="12.10416434209736"><ele>469.8333333333333</ele><time>2026-04-29T09:47:32Z</time></trkpt><trkpt lat="42.62579985282389" lon="12.104282138503565"><ele>469.66666666666663</ele><time>2026-04-29T09:47:33Z</time></trkpt><trkpt lat="42.625818364643756" lon="12.104390213043853"><ele>469.5</ele><time>2026-04-29T09:47:34Z</time></trkpt><trkpt lat="42.625817215604236" lon="12.104495928320489"><ele>469.33333333333337</ele><time>2026-04-29T09:47:35Z</time></trkpt><trkpt lat="42.625820764566754" lon="12.104595097634505"><ele>469.1666666666667</ele><time>2026-04-29T09:47:36Z</time></trkpt><trkpt lat="42.62581912515975" lon="12.104686289085171"><ele>469.0</ele><time>2026-04-29T09:47:37Z</time></trkpt><trkpt lat="42.62582610856359" lon="12.1048446945507"><ele>468.00000000000006</ele><time>2026-04-29T09:47:39Z</time></trkpt><trkpt lat="42.62582882505413" lon="12.104992969343563"><ele>467.0</ele><time>2026-04-29T09:47:41Z</time></trkpt><trkpt lat="42.625828123968425" lon="12.105082677549909"><ele>466.0</ele><time>2026-04-29T09:47:42Z</time></trkpt><trkpt lat="42.62584030344482" lon="12.105196606392072"><ele>465.0</ele><time>2026-04-29T09:47:43Z</time></trkpt><trkpt lat="42.62583604525951" lon="12.10528220573818"><ele>464.00000000000006</ele><time>2026-04-29T09:47:44Z</time></trkpt><trkpt lat="42.62585222944613" lon="12.10539240049592"><ele>463.0</ele><time>2026-04-29T09:47:46Z</time></trkpt><trkpt lat="42.6258411820303" lon="12.105502912934925"><ele>463.0</ele><time>2026-04-29T09:47:49Z</time></trkpt><trkpt lat="42.62584347328713" lon="12.105601359120644"><ele>462.99999999999994</ele><time>2026-04-29T09:47:51Z</time></trkpt><trkpt lat="42.62584187857425" lon="12.105702544531816"><ele>463.0</ele><time>2026-04-29T09:47:57Z</time></trkpt><trkpt lat="42.625842968300816" lon="12.105603161634177"><ele>463.0</ele><time>2026-04-29T09:48:09Z</time></trkpt><trkpt lat="42.62586325598387" lon="12.105692566262075"><ele>462.99999999999994</ele><time>2026-04-29T09:50:35Z</time></trkpt><trkpt lat="42.625847544314276" lon="12.105793997415455"><ele>463.0</ele><time>2026-04-29T09:50:42Z</time></trkpt><trkpt lat="42.625855754175035" lon="12.10589897671229"><ele>463.0</ele><time>2026-04-29T09:50:56Z</time></trkpt><trkpt lat="42.62583203496533" lon="12.1059959418941"><ele>460.79999999999995</ele><time>2026-04-29T09:51:13Z</time></trkpt><trkpt lat="42.62570567793004" lon="12.105945207459628"><ele>458.59999999999997</ele><time>2026-04-29T09:51:34.045Z</time></trkpt><trkpt lat="42.625742820104755" lon="12.105845301834808"><ele>456.40000000000003</ele><time>2026-04-29T09:52:07.029Z</time></trkpt><trkpt lat="42.62573612846854" lon="12.105984768759532"><ele>454.20000000000005</ele><time>2026-04-29T09:52:18.02Z</time></trkpt><trkpt lat="42.62572789499029" lon="12.106078736938542"><ele>452.0</ele><time>2026-04-29T09:52:45Z</time></trkpt><trkpt lat="42.62572326895589" lon="12.106169058448264"><ele>452.0</ele><time>2026-04-29T09:52:52Z</time></trkpt><trkpt lat="42.62571462580611" lon="12.106261119402495"><ele>452.0</ele><time>2026-04-29T09:52:59Z</time></trkpt><trkpt lat="42.62570701854358" lon="12.1063568150722"><ele>452.0</ele><time>2026-04-29T09:53:05Z</time></trkpt><trkpt lat="42.625707994774054" lon="12.106449743139882"><ele>452.0</ele><time>2026-04-29T09:53:11Z</time></trkpt><trkpt lat="42.62567982790361" lon="12.106527247236311"><ele>452.0</ele><time>2026-04-29T09:53:19Z</time></trkpt><trkpt lat="42.62561377483263" lon="12.106576992556933"><ele>452.0</ele><time>2026-04-29T09:53:36Z</time></trkpt><trkpt lat="42.6256300743724" lon="12.106664482371855"><ele>452.0</ele><time>2026-04-29T09:53:48.999Z</time></trkpt><trkpt lat="42.62557704676117" lon="12.106582975687374"><ele>452.0</ele><time>2026-04-29T09:54:11Z</time></trkpt><trkpt lat="42.6255235994418" lon="12.106523214023753"><ele>452.0</ele><time>2026-04-29T09:54:18Z</time></trkpt><trkpt lat="42.62551553632587" lon="12.106426897901114"><ele>452.0</ele><time>2026-04-29T09:54:26Z</time></trkpt><trkpt lat="42.625459254182296" lon="12.10646901405678"><ele>452.0</ele><time>2026-04-29T09:54:38Z</time></trkpt><trkpt lat="42.62545419747603" lon="12.106560825906412"><ele>452.0</ele><time>2026-04-29T09:54:44Z</time></trkpt><trkpt lat="42.62544476289326" lon="12.106649731175947"><ele>452.0</ele><time>2026-04-29T09:54:49Z</time></trkpt><trkpt lat="42.625443413942435" lon="12.106743441911917"><ele>452.0</ele><time>2026-04-29T09:54:54Z</time></trkpt><trkpt lat="42.6254477409255" lon="12.106840307670298"><ele>450.2857142857143</ele><time>2026-04-29T09:54:59Z</time></trkpt><trkpt lat="42.62545640626634" lon="12.106936586695024"><ele>448.57142857142856</ele><time>2026-04-29T09:55:04Z</time></trkpt><trkpt lat="42.6254606741345" lon="12.107035956569197"><ele>446.85714285714283</ele><time>2026-04-29T09:55:09Z</time></trkpt><trkpt lat="42.62546730483085" lon="12.107127929067266"><ele>445.1428571428571</ele><time>2026-04-29T09:55:14Z</time></trkpt><trkpt lat="42.625475585861295" lon="12.107232260696808"><ele>443.42857142857144</ele><time>2026-04-29T09:55:19Z</time></trkpt><trkpt lat="42.62548452454472" lon="12.10732053338065"><ele>441.71428571428567</ele><time>2026-04-29T09:55:24Z</time></trkpt><trkpt lat="42.62549844533796" lon="12.107416789976224"><ele>440.0</ele><time>2026-04-29T09:55:29Z</time></trkpt><trkpt lat="42.625544697043736" lon="12.107491913229657"><ele>438.2857142857143</ele><time>2026-04-29T09:55:35Z</time></trkpt><trkpt lat="42.625562086515934" lon="12.107583858641352"><ele>436.57142857142856</ele><time>2026-04-29T09:55:40Z</time></trkpt><trkpt lat="42.62558830117219" lon="12.107671043182778"><ele>434.8571428571429</ele><time>2026-04-29T09:55:45Z</time></trkpt><trkpt lat="42.62561399983286" lon="12.107752111882702"><ele>433.1428571428571</ele><time>2026-04-29T09:55:50Z</time></trkpt><trkpt lat="42.625637670522885" lon="12.10783553132707"><ele>431.42857142857144</ele><time>2026-04-29T09:55:55Z</time></trkpt><trkpt lat="42.625659704070735" lon="12.107923417134202"><ele>429.7142857142857</ele><time>2026-04-29T09:56:00Z</time></trkpt><trkpt lat="42.62569133904343" lon="12.108012561811728"><ele>428.0</ele><time>2026-04-29T09:56:05Z</time></trkpt><trkpt lat="42.62572648972945" lon="12.10810051601642"><ele>428.00000000000006</ele><time>2026-04-29T09:56:11Z</time></trkpt><trkpt lat="42.62576872828101" lon="12.108168439980263"><ele>428.0</ele><time>2026-04-29T09:56:16Z</time></trkpt><trkpt lat="42.62580351177647" lon="12.108249403681658"><ele>428.0</ele><time>2026-04-29T09:56:22Z</time></trkpt><trkpt lat="42.62585049237792" lon="12.108327899716041"><ele>428.0</ele><time>2026-04-29T09:56:28Z</time></trkpt><trkpt lat="42.625878646416346" lon="12.108411943460267"><ele>428.0</ele><time>2026-04-29T09:56:33Z</time></trkpt><trkpt lat="42.6259071497994" lon="12.108503916382459"><ele>428.00000000000006</ele><time>2026-04-29T09:56:38Z</time></trkpt><trkpt lat="42.62592447193126" lon="12.108586925083522"><ele>428.0</ele><time>2026-04-29T09:56:42Z</time></trkpt><trkpt lat="42.62594673433726" lon="12.108675281513152"><ele>426.28571428571433</ele><time>2026-04-29T09:56:46Z</time></trkpt><trkpt lat="42.62596381632449" lon="12.108771044201925"><ele>424.57142857142856</ele><time>2026-04-29T09:56:51Z</time></trkpt><trkpt lat="42.62596969509282" lon="12.10887286365433"><ele>422.8571428571429</ele><time>2026-04-29T09:56:56Z</time></trkpt><trkpt lat="42.625992496507266" lon="12.108966382543688"><ele>421.14285714285717</ele><time>2026-04-29T09:57:02Z</time></trkpt><trkpt lat="42.62604800364498" lon="12.109030491351305"><ele>419.42857142857144</ele><time>2026-04-29T09:57:07Z</time></trkpt><trkpt lat="42.626081186887525" lon="12.109116534673923"><ele>417.7142857142857</ele><time>2026-04-29T09:57:13Z</time></trkpt><trkpt lat="42.626096599438654" lon="12.109199841326907"><ele>416.0</ele><time>2026-04-29T09:57:21Z</time></trkpt><trkpt lat="42.62609002555389" lon="12.109288642227675"><ele>414.4285714285714</ele><time>2026-04-29T09:57:28Z</time></trkpt><trkpt lat="42.62609097931957" lon="12.109379159868256"><ele>412.8571428571429</ele><time>2026-04-29T09:57:34Z</time></trkpt><trkpt lat="42.626098519318916" lon="12.109467169730603"><ele>411.2857142857143</ele><time>2026-04-29T09:57:40Z</time></trkpt><trkpt lat="42.6261359623572" lon="12.109538819303825"><ele>409.71428571428567</ele><time>2026-04-29T09:58:03Z</time></trkpt><trkpt lat="42.62617231256771" lon="12.109610869138425"><ele>408.1428571428571</ele><time>2026-04-29T09:58:08Z</time></trkpt><trkpt lat="42.62621349756532" lon="12.109684110631402"><ele>406.57142857142856</ele><time>2026-04-29T09:58:13Z</time></trkpt><trkpt lat="42.62626123332314" lon="12.109768176746893"><ele>405.0</ele><time>2026-04-29T09:58:18Z</time></trkpt><trkpt lat="42.62630526970359" lon="12.10983448735533"><ele>402.2857142857143</ele><time>2026-04-29T09:58:23Z</time></trkpt><trkpt lat="42.626356999674016" lon="12.109901070506787"><ele>399.57142857142856</ele><time>2026-04-29T09:58:28Z</time></trkpt><trkpt lat="42.62640713382909" lon="12.109974696404459"><ele>396.8571428571429</ele><time>2026-04-29T09:58:34Z</time></trkpt><trkpt lat="42.6264461364677" lon="12.110055558761204"><ele>394.1428571428571</ele><time>2026-04-29T09:58:39Z</time></trkpt><trkpt lat="42.62649553614781" lon="12.110132665725482"><ele>391.42857142857144</ele><time>2026-04-29T09:58:44Z</time></trkpt><trkpt lat="42.62654867610387" lon="12.1102031718929"><ele>388.7142857142857</ele><time>2026-04-29T09:58:50Z</time></trkpt><trkpt lat="42.626588693290586" lon="12.110298678746847"><ele>386.0</ele><time>2026-04-29T09:58:55Z</time></trkpt><trkpt lat="42.62662286578766" lon="12.110377218644025"><ele>385.5714285714286</ele><time>2026-04-29T09:59:00Z</time></trkpt><trkpt lat="42.626661005478894" lon="12.110471296771605"><ele>385.14285714285717</ele><time>2026-04-29T09:59:05Z</time></trkpt><trkpt lat="42.62669377876534" lon="12.110550082898426"><ele>384.7142857142857</ele><time>2026-04-29T09:59:10Z</time></trkpt><trkpt lat="42.62672647041676" lon="12.110627554871673"><ele>384.28571428571433</ele><time>2026-04-29T09:59:15Z</time></trkpt><trkpt lat="42.62676117267368" lon="12.110711102964139"><ele>383.85714285714283</ele><time>2026-04-29T09:59:20Z</time></trkpt><trkpt lat="42.626792235496715" lon="12.110792411597451"><ele>383.42857142857144</ele><time>2026-04-29T09:59:25Z</time></trkpt><trkpt lat="42.62682455306909" lon="12.110870748981872"><ele>383.0</ele><time>2026-04-29T09:59:30Z</time></trkpt><trkpt lat="42.62685556456027" lon="12.110950790319746"><ele>382.2857142857143</ele><time>2026-04-29T09:59:35Z</time></trkpt><trkpt lat="42.62688790221983" lon="12.111040741156641"><ele>381.57142857142856</ele><time>2026-04-29T09:59:41Z</time></trkpt><trkpt lat="42.626924973963376" lon="12.111115576659234"><ele>380.8571428571429</ele><time>2026-04-29T09:59:46Z</time></trkpt><trkpt lat="42.62696115508837" lon="12.111189977368044"><ele>380.1428571428571</ele><time>2026-04-29T09:59:52Z</time></trkpt><trkpt lat="42.626995536484166" lon="12.111261968359686"><ele>379.42857142857144</ele><time>2026-04-29T09:59:59Z</time></trkpt><trkpt lat="42.627030751671114" lon="12.111352795201736"><ele>378.7142857142857</ele><time>2026-04-29T10:00:06Z</time></trkpt><trkpt lat="42.62706946741409" lon="12.111423204557473"><ele>378.0</ele><time>2026-04-29T10:00:12Z</time></trkpt><trkpt lat="42.62710255010565" lon="12.11149875361519"><ele>378.14285714285717</ele><time>2026-04-29T10:00:18Z</time></trkpt><trkpt lat="42.62713713193752" lon="12.111581932974943"><ele>378.2857142857143</ele><time>2026-04-29T10:00:24Z</time></trkpt><trkpt lat="42.62717133768156" lon="12.111669569673069"><ele>378.42857142857144</ele><time>2026-04-29T10:00:35Z</time></trkpt><trkpt lat="42.62720340607688" lon="12.111759133479607"><ele>378.57142857142856</ele><time>2026-04-29T10:00:41Z</time></trkpt><trkpt lat="42.62723669833538" lon="12.111843102828985"><ele>378.7142857142857</ele><time>2026-04-29T10:00:50Z</time></trkpt><trkpt lat="42.62726833748273" lon="12.111922556059614"><ele>378.8571428571429</ele><time>2026-04-29T10:00:59Z</time></trkpt><trkpt lat="42.6272958485781" lon="12.112002202102252"><ele>379.0</ele><time>2026-04-29T10:01:11Z</time></trkpt><trkpt lat="42.62731232603844" lon="12.1120896197179"><ele>379.00000000000006</ele><time>2026-04-29T10:01:21Z</time></trkpt><trkpt lat="42.627326267165515" lon="12.112174558860987"><ele>379.0</ele><time>2026-04-29T10:01:30Z</time></trkpt><trkpt lat="42.627321031995024" lon="12.112270162307862"><ele>379.0</ele><time>2026-04-29T10:01:41Z</time></trkpt><trkpt lat="42.62733926154366" lon="12.112367235747003"><ele>379.0</ele><time>2026-04-29T10:01:52Z</time></trkpt><trkpt lat="42.62732074924634" lon="12.112459051084485"><ele>379.0</ele><time>2026-04-29T10:02:04Z</time></trkpt><trkpt lat="42.62731317961644" lon="12.112551040864933"><ele>379.00000000000006</ele><time>2026-04-29T10:02:20Z</time></trkpt><trkpt lat="42.62726271438586" lon="12.112613316799372"><ele>379.0</ele><time>2026-04-29T10:02:28Z</time></trkpt><trkpt lat="42.62723708365752" lon="12.112705683555241"><ele>384.5714285714286</ele><time>2026-04-29T10:02:44Z</time></trkpt><trkpt lat="42.6272627105055" lon="12.11278763021215"><ele>390.14285714285717</ele><time>2026-04-29T10:02:55Z</time></trkpt><trkpt lat="42.62733069309293" lon="12.11276024766352"><ele>395.7142857142857</ele><time>2026-04-29T10:03:01Z</time></trkpt><trkpt lat="42.62736712564275" lon="12.112688223211167"><ele>401.28571428571433</ele><time>2026-04-29T10:03:12Z</time></trkpt><trkpt lat="42.6274084405336" lon="12.11261069210131"><ele>406.85714285714283</ele><time>2026-04-29T10:03:21Z</time></trkpt><trkpt lat="42.62742783469088" lon="12.11269491798687"><ele>412.42857142857144</ele><time>2026-04-29T10:03:33Z</time></trkpt><trkpt lat="42.627448435393255" lon="12.112786044356401"><ele>418.0</ele><time>2026-04-29T10:03:39Z</time></trkpt><trkpt lat="42.62740235226603" lon="12.112929677198567"><ele>418.0</ele><time>2026-04-29T10:03:54Z</time></trkpt><trkpt lat="42.627358719425985" lon="12.113011554210363"><ele>418.0</ele><time>2026-04-29T10:03:57Z</time></trkpt><trkpt lat="42.627430959709166" lon="12.112979114253523"><ele>418.0</ele><time>2026-04-29T10:03:59Z</time></trkpt><trkpt lat="42.62749931196906" lon="12.112976587323653"><ele>418.0</ele><time>2026-04-29T10:04:33Z</time></trkpt><trkpt lat="42.62756062115009" lon="12.11302434106892"><ele>418.0</ele><time>2026-04-29T10:04:58Z</time></trkpt><trkpt lat="42.62763151765224" lon="12.113016676298013"><ele>418.0</ele><time>2026-04-29T10:05:04.999Z</time></trkpt><trkpt lat="42.62762228792769" lon="12.112924010176076"><ele>418.0</ele><time>2026-04-29T10:05:15Z</time></trkpt><trkpt lat="42.62761570619669" lon="12.112834800926997"><ele>418.0</ele><time>2026-04-29T10:05:22Z</time></trkpt><trkpt lat="42.627576929877996" lon="12.112748993235238"><ele>418.0</ele><time>2026-04-29T10:05:29Z</time></trkpt><trkpt lat="42.62752705008426" lon="12.112693233258028"><ele>418.0</ele><time>2026-04-29T10:05:36Z</time></trkpt><trkpt lat="42.627585446142454" lon="12.112729313666671"><ele>418.0</ele><time>2026-04-29T10:06:25Z</time></trkpt><trkpt lat="42.62760751766994" lon="12.112814442534116"><ele>418.0</ele><time>2026-04-29T10:06:31Z</time></trkpt><trkpt lat="42.62765039607449" lon="12.112896908103634"><ele>418.0</ele><time>2026-04-29T10:06:38Z</time></trkpt><trkpt lat="42.627650452867414" lon="12.113005118805535"><ele>418.0</ele><time>2026-04-29T10:08:44Z</time></trkpt><trkpt lat="42.627580369132744" lon="12.11303810549486"><ele>418.0</ele><time>2026-04-29T10:08:51Z</time></trkpt><trkpt lat="42.62751724449961" lon="12.113072863477264"><ele>418.0</ele><time>2026-04-29T10:08:58Z</time></trkpt><trkpt lat="42.627539503250375" lon="12.113165384111898"><ele>418.0</ele><time>2026-04-29T10:09:05Z</time></trkpt><trkpt lat="42.62754039782337" lon="12.113257391082156"><ele>418.0</ele><time>2026-04-29T10:09:12Z</time></trkpt><trkpt lat="42.62755838541731" lon="12.113344401463383"><ele>418.0</ele><time>2026-04-29T10:09:19Z</time></trkpt><trkpt lat="42.6275878929803" lon="12.113430692031846"><ele>418.0</ele><time>2026-04-29T10:09:26Z</time></trkpt><trkpt lat="42.62759770522292" lon="12.113516917715803"><ele>418.0</ele><time>2026-04-29T10:09:33Z</time></trkpt><trkpt lat="42.62765959153729" lon="12.113473530507221"><ele>419.7142857142857</ele><time>2026-04-29T10:09:53Z</time></trkpt><trkpt lat="42.627706169704325" lon="12.113554750082747"><ele>421.42857142857144</ele><time>2026-04-29T10:10:34Z</time></trkpt><trkpt lat="42.62777168121747" lon="12.11361261687853"><ele>423.1428571428571</ele><time>2026-04-29T10:10:41Z</time></trkpt><trkpt lat="42.62775689172971" lon="12.113705520569416"><ele>424.8571428571429</ele><time>2026-04-29T10:10:48Z</time></trkpt><trkpt lat="42.62772358315701" lon="12.11377831987418"><ele>426.5714285714286</ele><time>2026-04-29T10:10:54Z</time></trkpt><trkpt lat="42.62767333128846" lon="12.113832153757008"><ele>428.2857142857143</ele><time>2026-04-29T10:11:02.001Z</time></trkpt><trkpt lat="42.62767860518735" lon="12.113937317996914"><ele>430.0</ele><time>2026-04-29T10:11:13.001Z</time></trkpt><trkpt lat="42.62772310427841" lon="12.114002403326836"><ele>430.0</ele><time>2026-04-29T10:11:22Z</time></trkpt><trkpt lat="42.627743025507556" lon="12.114088417441069"><ele>430.0</ele><time>2026-04-29T10:11:29Z</time></trkpt><trkpt lat="42.62771898528946" lon="12.114169153720354"><ele>430.0</ele><time>2026-04-29T10:11:41Z</time></trkpt><trkpt lat="42.62765926661126" lon="12.114213208356661"><ele>430.0</ele><time>2026-04-29T10:11:52Z</time></trkpt><trkpt lat="42.627720295593605" lon="12.114177950368315"><ele>430.0</ele><time>2026-04-29T10:12:03Z</time></trkpt><trkpt lat="42.62774106995739" lon="12.114083317419624"><ele>430.0</ele><time>2026-04-29T10:12:14Z</time></trkpt><trkpt lat="42.62770488917732" lon="12.114008240285042"><ele>430.0</ele><time>2026-04-29T10:12:21Z</time></trkpt><trkpt lat="42.62766441464256" lon="12.113935745429023"><ele>430.00000000000006</ele><time>2026-04-29T10:13:00.001Z</time></trkpt><trkpt lat="42.62766658525149" lon="12.113841267038051"><ele>430.0</ele><time>2026-04-29T10:13:04.001Z</time></trkpt><trkpt lat="42.62766888477263" lon="12.113743789067403"><ele>430.0</ele><time>2026-04-29T10:13:11.001Z</time></trkpt><trkpt lat="42.62764863802083" lon="12.113647916128498"><ele>430.0</ele><time>2026-04-29T10:13:18.001Z</time></trkpt><trkpt lat="42.627624543822904" lon="12.113568279883511"><ele>430.00000000000006</ele><time>2026-04-29T10:13:23.001Z</time></trkpt><trkpt lat="42.62755987509656" lon="12.11358820462433"><ele>430.0</ele><time>2026-04-29T10:16:25.001Z</time></trkpt><trkpt lat="42.6275120725328" lon="12.113451192070913"><ele>430.0</ele><time>2026-04-29T10:18:03.001Z</time></trkpt><trkpt lat="42.62753942709889" lon="12.113576718039898"><ele>430.0</ele><time>2026-04-29T10:20:26.001Z</time></trkpt><trkpt lat="42.627516390792174" lon="12.113412916257776"><ele>430.0</ele><time>2026-04-29T10:21:12.062Z</time></trkpt><trkpt lat="42.62757037696225" lon="12.113484904449042"><ele>430.0</ele><time>2026-04-29T10:21:15.061Z</time></trkpt><trkpt lat="42.627679009023254" lon="12.113580000618368"><ele>430.0</ele><time>2026-04-29T10:22:30.415Z</time></trkpt><trkpt lat="42.62760115833137" lon="12.113555075022859"><ele>430.0</ele><time>2026-04-29T10:22:41.001Z</time></trkpt><trkpt lat="42.62769360128774" lon="12.113534928005338"><ele>430.0</ele><time>2026-04-29T10:23:02.001Z</time></trkpt><trkpt lat="42.62776053063692" lon="12.11354789469719"><ele>430.0</ele><time>2026-04-29T10:23:08.001Z</time></trkpt><trkpt lat="42.62782792793452" lon="12.113549992411118"><ele>430.0</ele><time>2026-04-29T10:23:17.001Z</time></trkpt><trkpt lat="42.62789531431845" lon="12.113532738513324"><ele>430.0</ele><time>2026-04-29T10:23:23.001Z</time></trkpt><trkpt lat="42.62796000836276" lon="12.113530470646714"><ele>430.0</ele><time>2026-04-29T10:23:30.001Z</time></trkpt><trkpt lat="42.62802705601542" lon="12.113527823354746"><ele>430.0</ele><time>2026-04-29T10:23:36.001Z</time></trkpt><trkpt lat="42.62808749424347" lon="12.113560101454416"><ele>430.0</ele><time>2026-04-29T10:23:43.001Z</time></trkpt><trkpt lat="42.62815060335255" lon="12.113565019902754"><ele>430.0</ele><time>2026-04-29T10:23:49.001Z</time></trkpt><trkpt lat="42.62807775414642" lon="12.113569167912148"><ele>430.0</ele><time>2026-04-29T10:24:11.001Z</time></trkpt><trkpt lat="42.62801916993025" lon="12.113532835664358"><ele>430.0</ele><time>2026-04-29T10:24:17.001Z</time></trkpt><trkpt lat="42.6279513112468" lon="12.113511021729652"><ele>430.0</ele><time>2026-04-29T10:24:25.001Z</time></trkpt><trkpt lat="42.62788308787313" lon="12.113542866401897"><ele>430.0</ele><time>2026-04-29T10:24:33.001Z</time></trkpt><trkpt lat="42.627818318783206" lon="12.113560404353336"><ele>430.0</ele><time>2026-04-29T10:24:40.001Z</time></trkpt><trkpt lat="42.62775149188332" lon="12.113552011432935"><ele>430.0</ele><time>2026-04-29T10:24:48.001Z</time></trkpt><trkpt lat="42.62768089973915" lon="12.113559074255106"><ele>430.0</ele><time>2026-04-29T10:24:55Z</time></trkpt><trkpt lat="42.627618169387176" lon="12.113550241470069"><ele>430.0</ele><time>2026-04-29T10:25:01Z</time></trkpt><trkpt lat="42.62755967751231" lon="12.113611832278503"><ele>430.0</ele><time>2026-04-29T10:25:12Z</time></trkpt><trkpt lat="42.62761880670655" lon="12.113563045055896"><ele>430.0</ele><time>2026-04-29T10:25:19Z</time></trkpt><trkpt lat="42.627624752671345" lon="12.113653338215116"><ele>430.0</ele><time>2026-04-29T10:25:25Z</time></trkpt><trkpt lat="42.62766823614112" lon="12.113727725536943"><ele>430.0</ele><time>2026-04-29T10:25:32Z</time></trkpt><trkpt lat="42.62767270123129" lon="12.113821051301453"><ele>430.0</ele><time>2026-04-29T10:25:38Z</time></trkpt><trkpt lat="42.62761308476651" lon="12.11384873407983"><ele>430.0</ele><time>2026-04-29T10:25:46Z</time></trkpt><trkpt lat="42.62754042041414" lon="12.113861649917398"><ele>430.0</ele><time>2026-04-29T10:25:50Z</time></trkpt><trkpt lat="42.62747242736245" lon="12.113902027681224"><ele>430.0</ele><time>2026-04-29T10:25:55Z</time></trkpt><trkpt lat="42.627411970416375" lon="12.113946118848965"><ele>430.0</ele><time>2026-04-29T10:26:04Z</time></trkpt><trkpt lat="42.627367144165085" lon="12.113882236994604"><ele>430.0</ele><time>2026-04-29T10:26:12Z</time></trkpt><trkpt lat="42.62731505085954" lon="12.1138151611014"><ele>430.0</ele><time>2026-04-29T10:26:19Z</time></trkpt><trkpt lat="42.62730198836945" lon="12.113722329359701"><ele>430.0</ele><time>2026-04-29T10:26:26Z</time></trkpt><trkpt lat="42.62730881918137" lon="12.113634372379892"><ele>430.0</ele><time>2026-04-29T10:26:33Z</time></trkpt><trkpt lat="42.62731549471517" lon="12.113541807920216"><ele>430.0</ele><time>2026-04-29T10:26:40Z</time></trkpt><trkpt lat="42.62733536861417" lon="12.113455058961039"><ele>430.0</ele><time>2026-04-29T10:26:48Z</time></trkpt><trkpt lat="42.627279710054864" lon="12.11355361669081"><ele>430.0</ele><time>2026-04-29T10:28:18Z</time></trkpt><trkpt lat="42.62728387766446" lon="12.11364630299779"><ele>430.0</ele><time>2026-04-29T10:28:23Z</time></trkpt><trkpt lat="42.62731089582624" lon="12.113568838978635"><ele>430.0</ele><time>2026-04-29T10:29:03Z</time></trkpt><trkpt lat="42.62732386522579" lon="12.113471815853801"><ele>430.0</ele><time>2026-04-29T10:29:08Z</time></trkpt><trkpt lat="42.627342510040705" lon="12.113384632065475"><ele>430.0</ele><time>2026-04-29T10:29:14Z</time></trkpt><trkpt lat="42.62739460425014" lon="12.113331373889892"><ele>430.0</ele><time>2026-04-29T10:29:22Z</time></trkpt><trkpt lat="42.62745310753761" lon="12.113271117445993"><ele>430.0</ele><time>2026-04-29T10:29:27Z</time></trkpt><trkpt lat="42.62750259483331" lon="12.113209632511438"><ele>430.0</ele><time>2026-04-29T10:29:32Z</time></trkpt><trkpt lat="42.627502806771815" lon="12.113121449640916"><ele>430.0</ele><time>2026-04-29T10:29:37Z</time></trkpt><trkpt lat="42.6274954035873" lon="12.113028587234242"><ele>430.0</ele><time>2026-04-29T10:29:44Z</time></trkpt><trkpt lat="42.62745258943722" lon="12.11296429808637"><ele>428.2857142857143</ele><time>2026-04-29T10:29:49Z</time></trkpt><trkpt lat="42.627379766974784" lon="12.112912829046326"><ele>426.5714285714286</ele><time>2026-04-29T10:29:53Z</time></trkpt><trkpt lat="42.6273989351384" lon="12.112803384231889"><ele>424.8571428571429</ele><time>2026-04-29T10:30:00Z</time></trkpt><trkpt lat="42.62742427350329" lon="12.112722455287065"><ele>423.1428571428571</ele><time>2026-04-29T10:30:04Z</time></trkpt><trkpt lat="42.627434668082564" lon="12.112630026018355"><ele>421.42857142857144</ele><time>2026-04-29T10:30:09Z</time></trkpt><trkpt lat="42.627375240281914" lon="12.112666536044033"><ele>419.7142857142857</ele><time>2026-04-29T10:33:07.001Z</time></trkpt><trkpt lat="42.62733658616147" lon="12.112741754399794"><ele>418.0</ele><time>2026-04-29T10:33:14.001Z</time></trkpt><trkpt lat="42.62727717025955" lon="12.112787408243042"><ele>418.0</ele><time>2026-04-29T10:33:21.001Z</time></trkpt><trkpt lat="42.627261456418786" lon="12.112698906873097"><ele>418.0</ele><time>2026-04-29T10:33:29.001Z</time></trkpt><trkpt lat="42.62728748101939" lon="12.112617717862374"><ele>418.0</ele><time>2026-04-29T10:33:36.001Z</time></trkpt><trkpt lat="42.62731771876615" lon="12.112536696495441"><ele>418.0</ele><time>2026-04-29T10:33:42.001Z</time></trkpt><trkpt lat="42.62734527312388" lon="12.112448430429117"><ele>418.0</ele><time>2026-04-29T10:33:49.001Z</time></trkpt><trkpt lat="42.62735900902909" lon="12.112350786734218"><ele>418.0</ele><time>2026-04-29T10:33:56.001Z</time></trkpt><trkpt lat="42.627335668730176" lon="12.112254719392308"><ele>418.0</ele><time>2026-04-29T10:34:02.001Z</time></trkpt><trkpt lat="42.62731046141018" lon="12.112167763300288"><ele>412.42857142857144</ele><time>2026-04-29T10:34:08.001Z</time></trkpt><trkpt lat="42.627278128191975" lon="12.112089152496292"><ele>406.85714285714283</ele><time>2026-04-29T10:34:14.001Z</time></trkpt><trkpt lat="42.627254338510916" lon="12.11199471983386"><ele>401.28571428571433</ele><time>2026-04-29T10:34:21.001Z</time></trkpt><trkpt lat="42.6272141839254" lon="12.111912156323584"><ele>395.7142857142857</ele><time>2026-04-29T10:34:29.001Z</time></trkpt><trkpt lat="42.62717896097696" lon="12.111828050795127"><ele>390.14285714285717</ele><time>2026-04-29T10:34:36.001Z</time></trkpt><trkpt lat="42.6271510699719" lon="12.11174897359672"><ele>384.5714285714286</ele><time>2026-04-29T10:34:42.001Z</time></trkpt><trkpt lat="42.62711936705769" lon="12.11166963970526"><ele>379.0</ele><time>2026-04-29T10:34:48.001Z</time></trkpt><trkpt lat="42.627077409555866" lon="12.111592270317887"><ele>378.8571428571429</ele><time>2026-04-29T10:34:56.001Z</time></trkpt><trkpt lat="42.62705482891456" lon="12.111511844015677"><ele>378.7142857142857</ele><time>2026-04-29T10:35:02.001Z</time></trkpt><trkpt lat="42.62701799014774" lon="12.111428875885112"><ele>378.57142857142856</ele><time>2026-04-29T10:35:09.001Z</time></trkpt><trkpt lat="42.62699160980473" lon="12.111331749541561"><ele>378.42857142857144</ele><time>2026-04-29T10:35:16.001Z</time></trkpt><trkpt lat="42.62696244400288" lon="12.111244874954828"><ele>378.2857142857143</ele><time>2026-04-29T10:35:22.001Z</time></trkpt><trkpt lat="42.62693106230071" lon="12.111159755172517"><ele>378.14285714285717</ele><time>2026-04-29T10:35:28.001Z</time></trkpt><trkpt lat="42.62689902385587" lon="12.111082601738282"><ele>378.0</ele><time>2026-04-29T10:35:32.001Z</time></trkpt><trkpt lat="42.62685994670813" lon="12.111004252316217"><ele>378.0</ele><time>2026-04-29T10:35:40.001Z</time></trkpt><trkpt lat="42.62683643097676" lon="12.110923164707241"><ele>378.0</ele><time>2026-04-29T10:36:08.001Z</time></trkpt><trkpt lat="42.626798377554266" lon="12.110842732476716"><ele>378.0</ele><time>2026-04-29T10:36:20.001Z</time></trkpt><trkpt lat="42.62676406547926" lon="12.110761527113288"><ele>378.0</ele><time>2026-04-29T10:36:29.001Z</time></trkpt><trkpt lat="42.62673236749199" lon="12.110685317769152"><ele>378.0</ele><time>2026-04-29T10:36:36.001Z</time></trkpt><trkpt lat="42.62669537204497" lon="12.110614767682595"><ele>378.0</ele><time>2026-04-29T10:36:43.001Z</time></trkpt><trkpt lat="42.626655416207626" lon="12.110502895484126"><ele>378.0</ele><time>2026-04-29T10:38:05Z</time></trkpt><trkpt lat="42.6266184194011" lon="12.110415570157821"><ele>378.7142857142857</ele><time>2026-04-29T10:38:10Z</time></trkpt><trkpt lat="42.6265797755515" lon="12.110337047827032"><ele>379.42857142857144</ele><time>2026-04-29T10:38:15Z</time></trkpt><trkpt lat="42.626536629066095" lon="12.110253174349603"><ele>380.1428571428571</ele><time>2026-04-29T10:38:20Z</time></trkpt><trkpt lat="42.626498074743495" lon="12.110175617156104"><ele>380.8571428571429</ele><time>2026-04-29T10:38:25Z</time></trkpt><trkpt lat="42.62645457066326" lon="12.110096815264779"><ele>381.57142857142856</ele><time>2026-04-29T10:38:30Z</time></trkpt><trkpt lat="42.62641290008064" lon="12.110026554184998"><ele>382.2857142857143</ele><time>2026-04-29T10:38:35Z</time></trkpt><trkpt lat="42.62637166948783" lon="12.109951038241315"><ele>383.0</ele><time>2026-04-29T10:38:40Z</time></trkpt><trkpt lat="42.626332426654564" lon="12.109875928830427"><ele>383.42857142857144</ele><time>2026-04-29T10:38:45Z</time></trkpt><trkpt lat="42.626290267784604" lon="12.109805158754567"><ele>383.85714285714283</ele><time>2026-04-29T10:38:50Z</time></trkpt><trkpt lat="42.62625225173491" lon="12.10973466251957"><ele>384.28571428571433</ele><time>2026-04-29T10:38:55Z</time></trkpt><trkpt lat="42.62621217349569" lon="12.109660716576997"><ele>384.7142857142857</ele><time>2026-04-29T10:39:00.001Z</time></trkpt><trkpt lat="42.626168185487714" lon="12.109591012270396"><ele>385.14285714285717</ele><time>2026-04-29T10:39:05.001Z</time></trkpt><trkpt lat="42.626120336507796" lon="12.109523127372185"><ele>385.5714285714286</ele><time>2026-04-29T10:39:10.001Z</time></trkpt><trkpt lat="42.62610571802384" lon="12.10942677594158"><ele>386.0</ele><time>2026-04-29T10:39:16.001Z</time></trkpt><trkpt lat="42.6261161631159" lon="12.10933355033837"><ele>388.7142857142857</ele><time>2026-04-29T10:39:22.001Z</time></trkpt><trkpt lat="42.626135666529926" lon="12.109244644647065"><ele>391.42857142857144</ele><time>2026-04-29T10:39:28.001Z</time></trkpt><trkpt lat="42.6261439745553" lon="12.109151179414212"><ele>394.1428571428571</ele><time>2026-04-29T10:39:36Z</time></trkpt><trkpt lat="42.62610043654762" lon="12.10908647717014"><ele>396.8571428571429</ele><time>2026-04-29T10:39:45Z</time></trkpt><trkpt lat="42.62605345550715" lon="12.109019434873067"><ele>399.57142857142856</ele><time>2026-04-29T10:39:52Z</time></trkpt><trkpt lat="42.625997753955595" lon="12.10897166032441"><ele>402.2857142857143</ele><time>2026-04-29T10:40:00Z</time></trkpt><trkpt lat="42.62595453703389" lon="12.108908210655468"><ele>405.0</ele><time>2026-04-29T10:40:11Z</time></trkpt><trkpt lat="42.62592979135146" lon="12.108815111244624"><ele>406.57142857142856</ele><time>2026-04-29T10:40:23Z</time></trkpt><trkpt lat="42.62593209837744" lon="12.108728641803316"><ele>408.1428571428571</ele><time>2026-04-29T10:40:27Z</time></trkpt><trkpt lat="42.62592757398982" lon="12.10864227263644"><ele>409.71428571428567</ele><time>2026-04-29T10:40:32Z</time></trkpt><trkpt lat="42.625921665044174" lon="12.10855400671255"><ele>411.2857142857143</ele><time>2026-04-29T10:40:39Z</time></trkpt><trkpt lat="42.625890948028136" lon="12.108472825632914"><ele>412.8571428571429</ele><time>2026-04-29T10:40:46Z</time></trkpt><trkpt lat="42.62586019447211" lon="12.108392904516492"><ele>414.4285714285714</ele><time>2026-04-29T10:40:53Z</time></trkpt><trkpt lat="42.62581912157637" lon="12.108316547604955"><ele>416.0</ele><time>2026-04-29T10:41:04Z</time></trkpt><trkpt lat="42.6258025271367" lon="12.108233506587476"><ele>417.7142857142857</ele><time>2026-04-29T10:41:12Z</time></trkpt><trkpt lat="42.625787751386056" lon="12.108149414750331"><ele>419.42857142857144</ele><time>2026-04-29T10:41:19Z</time></trkpt><trkpt lat="42.62574952322179" lon="12.108075565786507"><ele>421.14285714285717</ele><time>2026-04-29T10:41:27Z</time></trkpt><trkpt lat="42.62571154599853" lon="12.108006833350926"><ele>422.8571428571429</ele><time>2026-04-29T10:41:36Z</time></trkpt><trkpt lat="42.625673258848906" lon="12.10792579562461"><ele>424.57142857142856</ele><time>2026-04-29T10:41:46Z</time></trkpt><trkpt lat="42.62565553097739" lon="12.107840560924787"><ele>426.28571428571433</ele><time>2026-04-29T10:41:54Z</time></trkpt><trkpt lat="42.62562499728958" lon="12.107756541585774"><ele>428.0</ele><time>2026-04-29T10:42:04Z</time></trkpt><trkpt lat="42.62558354713947" lon="12.107680106086333"><ele>428.00000000000006</ele><time>2026-04-29T10:42:14Z</time></trkpt><trkpt lat="42.62554905739304" lon="12.107604317852244"><ele>428.0</ele><time>2026-04-29T10:42:22Z</time></trkpt><trkpt lat="42.62554811999552" lon="12.107509931456391"><ele>428.0</ele><time>2026-04-29T10:42:28Z</time></trkpt><trkpt lat="42.62553233470121" lon="12.107412322652271"><ele>428.0</ele><time>2026-04-29T10:42:34Z</time></trkpt><trkpt lat="42.625514131285556" lon="12.107323985395594"><ele>428.0</ele><time>2026-04-29T10:42:41Z</time></trkpt><trkpt lat="42.62551630397074" lon="12.107233232209445"><ele>428.00000000000006</ele><time>2026-04-29T10:42:47Z</time></trkpt><trkpt lat="42.62551181298419" lon="12.107142397115553"><ele>428.0</ele><time>2026-04-29T10:42:53Z</time></trkpt><trkpt lat="42.62550625895295" lon="12.107047463687708"><ele>429.7142857142857</ele><time>2026-04-29T10:42:59Z</time></trkpt><trkpt lat="42.62549563139247" lon="12.106953076580021"><ele>431.42857142857144</ele><time>2026-04-29T10:43:04Z</time></trkpt><trkpt lat="42.62549224579749" lon="12.106855517739906"><ele>433.1428571428571</ele><time>2026-04-29T10:43:12Z</time></trkpt><trkpt lat="42.62548347984849" lon="12.106756202923464"><ele>434.8571428571429</ele><time>2026-04-29T10:43:19Z</time></trkpt><trkpt lat="42.62547951573994" lon="12.10665894295315"><ele>436.57142857142856</ele><time>2026-04-29T10:43:27Z</time></trkpt><trkpt lat="42.625478409878575" lon="12.106566261791828"><ele>438.2857142857143</ele><time>2026-04-29T10:43:33Z</time></trkpt><trkpt lat="42.625469683715224" lon="12.106479850342383"><ele>440.0</ele><time>2026-04-29T10:43:38Z</time></trkpt><trkpt lat="42.62547784329183" lon="12.106391814280103"><ele>439.99999999999994</ele><time>2026-04-29T10:43:45Z</time></trkpt><trkpt lat="42.62550811779315" lon="12.106471301887577"><ele>440.0</ele><time>2026-04-29T10:44:01Z</time></trkpt><trkpt lat="42.62553445549154" lon="12.106549534465026"><ele>440.0</ele><time>2026-04-29T10:44:09Z</time></trkpt><trkpt lat="42.625577809442746" lon="12.106617802844134"><ele>440.0</ele><time>2026-04-29T10:44:26Z</time></trkpt><trkpt lat="42.625638961877925" lon="12.106589456576108"><ele>440.0</ele><time>2026-04-29T10:45:08Z</time></trkpt><trkpt lat="42.62569577415522" lon="12.1065418418527"><ele>439.99999999999994</ele><time>2026-04-29T10:45:23Z</time></trkpt><trkpt lat="42.62570530143486" lon="12.10645430582878"><ele>440.0</ele><time>2026-04-29T10:45:31Z</time></trkpt><trkpt lat="42.62570204322656" lon="12.10636090213274"><ele>441.71428571428567</ele><time>2026-04-29T10:45:39Z</time></trkpt><trkpt lat="42.625709605799" lon="12.106260449377737"><ele>443.42857142857144</ele><time>2026-04-29T10:45:47Z</time></trkpt><trkpt lat="42.62571634975667" lon="12.10616998218365"><ele>445.1428571428571</ele><time>2026-04-29T10:45:54Z</time></trkpt><trkpt lat="42.625728891943645" lon="12.106078144129022"><ele>446.85714285714283</ele><time>2026-04-29T10:46:01Z</time></trkpt><trkpt lat="42.62574735928571" lon="12.105992395505085"><ele>448.57142857142856</ele><time>2026-04-29T10:46:10Z</time></trkpt><trkpt lat="42.625749451995155" lon="12.10588137839696"><ele>450.2857142857143</ele><time>2026-04-29T10:46:14Z</time></trkpt><trkpt lat="42.62579238483183" lon="12.105805558207306"><ele>452.0</ele><time>2026-04-29T10:46:23Z</time></trkpt><trkpt lat="42.625872129702394" lon="12.105808861311674"><ele>453.57142857142856</ele><time>2026-04-29T10:47:29Z</time></trkpt><trkpt lat="42.625870040772156" lon="12.10571316544143"><ele>455.1428571428571</ele><time>2026-04-29T10:47:35Z</time></trkpt><trkpt lat="42.62587364407508" lon="12.105625666290107"><ele>456.71428571428567</ele><time>2026-04-29T10:47:41Z</time></trkpt><trkpt lat="42.62588374331948" lon="12.105513252326455"><ele>458.2857142857143</ele><time>2026-04-29T10:49:56Z</time></trkpt><trkpt lat="42.62588015248085" lon="12.105419257529302"><ele>459.8571428571428</ele><time>2026-04-29T10:49:58Z</time></trkpt><trkpt lat="42.625880580416954" lon="12.105308179876891"><ele>461.4285714285714</ele><time>2026-04-29T10:49:59Z</time></trkpt><trkpt lat="42.62587265922774" lon="12.105207545491355"><ele>463.0</ele><time>2026-04-29T10:50:00Z</time></trkpt><trkpt lat="42.62586677978651" lon="12.105055193873923"><ele>464.2</ele><time>2026-04-29T10:50:02Z</time></trkpt><trkpt lat="42.62585800126608" lon="12.104892755613733"><ele>465.4</ele><time>2026-04-29T10:50:04Z</time></trkpt><trkpt lat="42.62585065477063" lon="12.104726327948551"><ele>466.59999999999997</ele><time>2026-04-29T10:50:06Z</time></trkpt><trkpt lat="42.62584878178472" lon="12.104627984473415"><ele>467.79999999999995</ele><time>2026-04-29T10:50:07Z</time></trkpt><trkpt lat="42.62584745814955" lon="12.104517633820244"><ele>469.0</ele><time>2026-04-29T10:50:08Z</time></trkpt><trkpt lat="42.62584516365861" lon="12.104410589657265"><ele>469.00000000000006</ele><time>2026-04-29T10:50:09Z</time></trkpt><trkpt lat="42.62584305609657" lon="12.104299081459715"><ele>469.0</ele><time>2026-04-29T10:50:10Z</time></trkpt><trkpt lat="42.62583377765737" lon="12.104185889254781"><ele>469.0</ele><time>2026-04-29T10:50:11Z</time></trkpt><trkpt lat="42.625825825079666" lon="12.104080572710865"><ele>469.0</ele><time>2026-04-29T10:50:12Z</time></trkpt><trkpt lat="42.62581548842441" lon="12.103972046991554"><ele>469.00000000000006</ele><time>2026-04-29T10:50:13Z</time></trkpt><trkpt lat="42.62580893611164" lon="12.103853448756682"><ele>469.0</ele><time>2026-04-29T10:50:14Z</time></trkpt><trkpt lat="42.62580279180803" lon="12.10374975648041"><ele>469.1666666666667</ele><time>2026-04-29T10:50:15Z</time></trkpt><trkpt lat="42.62579904110304" lon="12.10365019085855"><ele>469.33333333333337</ele><time>2026-04-29T10:50:16Z</time></trkpt><trkpt lat="42.62578865174636" lon="12.103547707205735"><ele>469.5</ele><time>2026-04-29T10:50:17Z</time></trkpt><trkpt lat="42.62578215967107" lon="12.103449288913856"><ele>469.66666666666663</ele><time>2026-04-29T10:50:18Z</time></trkpt><trkpt lat="42.625775866887196" lon="12.10334020757703"><ele>469.8333333333333</ele><time>2026-04-29T10:50:19Z</time></trkpt><trkpt lat="42.62576581518406" lon="12.10323570684624"><ele>470.0</ele><time>2026-04-29T10:50:20Z</time></trkpt><trkpt lat="42.62576385087817" lon="12.10314088717342"><ele>471.1428571428571</ele><time>2026-04-29T10:50:21Z</time></trkpt><trkpt lat="42.6257597737604" lon="12.103040261176284"><ele>472.2857142857142</ele><time>2026-04-29T10:50:22Z</time></trkpt><trkpt lat="42.62576156764646" lon="12.102938762505024"><ele>473.42857142857144</ele><time>2026-04-29T10:50:23Z</time></trkpt><trkpt lat="42.62576192824576" lon="12.10284048879699"><ele>474.57142857142856</ele><time>2026-04-29T10:50:24Z</time></trkpt><trkpt lat="42.625764005704625" lon="12.102738556092486"><ele>475.7142857142857</ele><time>2026-04-29T10:50:25Z</time></trkpt><trkpt lat="42.625767062744394" lon="12.102634495036392"><ele>476.8571428571429</ele><time>2026-04-29T10:50:26Z</time></trkpt><trkpt lat="42.62577063458309" lon="12.102535499786375"><ele>478.00000000000006</ele><time>2026-04-29T10:50:27Z</time></trkpt><trkpt lat="42.625769580670045" lon="12.102435126981682"><ele>478.00000000000006</ele><time>2026-04-29T10:50:28Z</time></trkpt><trkpt lat="42.625765528869934" lon="12.102333285351754"><ele>478.0</ele><time>2026-04-29T10:50:29Z</time></trkpt><trkpt lat="42.62577514308241" lon="12.102221193119389"><ele>478.0</ele><time>2026-04-29T10:50:30Z</time></trkpt><trkpt lat="42.62577129030026" lon="12.10212135387609"><ele>478.0</ele><time>2026-04-29T10:50:31Z</time></trkpt><trkpt lat="42.62577802975377" lon="12.102016571686612"><ele>478.00000000000006</ele><time>2026-04-29T10:50:32Z</time></trkpt><trkpt lat="42.625769644037376" lon="12.101906298712288"><ele>478.0</ele><time>2026-04-29T10:50:33Z</time></trkpt><trkpt lat="42.6257767224229" lon="12.101799238621755"><ele>478.00000000000006</ele><time>2026-04-29T10:50:34Z</time></trkpt><trkpt lat="42.62577486001701" lon="12.10168385500864"><ele>478.0</ele><time>2026-04-29T10:50:35Z</time></trkpt><trkpt lat="42.62577848230481" lon="12.101572939600874"><ele>478.0</ele><time>2026-04-29T10:50:36Z</time></trkpt><trkpt lat="42.625778176866696" lon="12.101453620889918"><ele>478.0</ele><time>2026-04-29T10:50:37Z</time></trkpt><trkpt lat="42.62578113445256" lon="12.101338812781943"><ele>478.00000000000006</ele><time>2026-04-29T10:50:38Z</time></trkpt><trkpt lat="42.62578808132714" lon="12.10122612615998"><ele>478.0</ele><time>2026-04-29T10:50:39Z</time></trkpt><trkpt lat="42.625791974963505" lon="12.101109531022574"><ele>477.83333333333337</ele><time>2026-04-29T10:50:40Z</time></trkpt><trkpt lat="42.625797309682845" lon="12.100991889296875"><ele>477.6666666666667</ele><time>2026-04-29T10:50:41Z</time></trkpt><trkpt lat="42.625803838623945" lon="12.1008723576182"><ele>477.5</ele><time>2026-04-29T10:50:42Z</time></trkpt><trkpt lat="42.625814230050075" lon="12.100762325433147"><ele>477.33333333333337</ele><time>2026-04-29T10:50:43Z</time></trkpt><trkpt lat="42.62582424827536" lon="12.100643523466918"><ele>477.1666666666667</ele><time>2026-04-29T10:50:44Z</time></trkpt><trkpt lat="42.62583018602751" lon="12.10051702466794"><ele>477.0</ele><time>2026-04-29T10:50:45Z</time></trkpt><trkpt lat="42.62583438466739" lon="12.100393404752854"><ele>477.0</ele><time>2026-04-29T10:50:46Z</time></trkpt><trkpt lat="42.62583949966225" lon="12.10027336475362"><ele>477.0</ele><time>2026-04-29T10:50:47Z</time></trkpt><trkpt lat="42.62584266512582" lon="12.10016016531763"><ele>477.0</ele><time>2026-04-29T10:50:48Z</time></trkpt><trkpt lat="42.625848678963116" lon="12.100035611054723"><ele>477.0</ele><time>2026-04-29T10:50:49Z</time></trkpt><trkpt lat="42.625863594700256" lon="12.099916752153343"><ele>477.0</ele><time>2026-04-29T10:50:50Z</time></trkpt><trkpt lat="42.625864399472775" lon="12.09981299378791"><ele>477.0</ele><time>2026-04-29T10:50:51Z</time></trkpt><trkpt lat="42.6258689297735" lon="12.099709342238482"><ele>477.8333333333333</ele><time>2026-04-29T10:50:52Z</time></trkpt><trkpt lat="42.62586915782121" lon="12.099604653483407"><ele>478.66666666666663</ele><time>2026-04-29T10:50:53Z</time></trkpt><trkpt lat="42.625869391899656" lon="12.099500329356545"><ele>479.5</ele><time>2026-04-29T10:50:54Z</time></trkpt><trkpt lat="42.62589395951626" lon="12.099391682027658"><ele>480.3333333333333</ele><time>2026-04-29T10:50:55Z</time></trkpt><trkpt lat="42.62591136365827" lon="12.099278958206252"><ele>481.16666666666663</ele><time>2026-04-29T10:50:56Z</time></trkpt><trkpt lat="42.62593102556231" lon="12.099157694231456"><ele>482.0</ele><time>2026-04-29T10:50:57Z</time></trkpt><trkpt lat="42.62594957809632" lon="12.099042960073975"><ele>481.99999999999994</ele><time>2026-04-29T10:50:58Z</time></trkpt><trkpt lat="42.625950907318845" lon="12.098926565641266"><ele>482.0</ele><time>2026-04-29T10:50:59Z</time></trkpt><trkpt lat="42.6259690346757" lon="12.098831026415256"><ele>482.0</ele><time>2026-04-29T10:51:00Z</time></trkpt><trkpt lat="42.62597993873499" lon="12.098737395175293"><ele>482.0</ele><time>2026-04-29T10:51:01Z</time></trkpt><trkpt lat="42.62601274498136" lon="12.098600133874342"><ele>481.99999999999994</ele><time>2026-04-29T10:51:03Z</time></trkpt><trkpt lat="42.62602563591528" lon="12.09849926135646"><ele>482.0</ele><time>2026-04-29T10:51:05Z</time></trkpt><trkpt lat="42.62603861278587" lon="12.098395211334008"><ele>481.5</ele><time>2026-04-29T10:51:07Z</time></trkpt><trkpt lat="42.62623389513528" lon="12.098389709169442"><ele>481.0</ele><time>2026-04-29T10:51:12Z</time></trkpt><trkpt lat="42.62634668321528" lon="12.098324065392328"><ele>480.5</ele><time>2026-04-29T10:51:14Z</time></trkpt><trkpt lat="42.626411713483336" lon="12.098263312962649"><ele>480.0</ele><time>2026-04-29T10:51:15Z</time></trkpt><trkpt lat="42.626478690759775" lon="12.098174400180929"><ele>480.0</ele><time>2026-04-29T10:51:16Z</time></trkpt><trkpt lat="42.626560863047715" lon="12.098114338731872"><ele>480.0</ele><time>2026-04-29T10:51:17Z</time></trkpt><trkpt lat="42.6266440190445" lon="12.098064067065494"><ele>480.0</ele><time>2026-04-29T10:51:18Z</time></trkpt><trkpt lat="42.62669633620307" lon="12.098008312167302"><ele>480.0</ele><time>2026-04-29T10:51:19Z</time></trkpt><trkpt lat="42.62675211718619" lon="12.09789055833423"><ele>480.0</ele><time>2026-04-29T10:51:21Z</time></trkpt><trkpt lat="42.626783493612635" lon="12.097770264973297"><ele>480.0</ele><time>2026-04-29T10:51:23Z</time></trkpt><trkpt lat="42.62680296162278" lon="12.097663864974155"><ele>480.0</ele><time>2026-04-29T10:51:27Z</time></trkpt><trkpt lat="42.62678660689693" lon="12.097752792164345"><ele>480.0</ele><time>2026-04-29T10:51:57Z</time></trkpt><trkpt lat="42.626821937129876" lon="12.09767508398651"><ele>480.0</ele><time>2026-04-29T10:53:02Z</time></trkpt><trkpt lat="42.62679905402341" lon="12.097582667541191"><ele>480.0</ele><time>2026-04-29T10:56:16Z</time></trkpt><trkpt lat="42.6268437825628" lon="12.0974597733655"><ele>480.0</ele><time>2026-04-29T10:56:18Z</time></trkpt><trkpt lat="42.62686252983283" lon="12.09737156035033"><ele>480.0</ele><time>2026-04-29T10:56:19Z</time></trkpt><trkpt lat="42.626902173910594" lon="12.09722395931765"><ele>480.3333333333333</ele><time>2026-04-29T10:56:21Z</time></trkpt><trkpt lat="42.626923214942195" lon="12.097139821335492"><ele>480.66666666666663</ele><time>2026-04-29T10:56:21.999Z</time></trkpt><trkpt lat="42.62694535006394" lon="12.097041588269946"><ele>481.0</ele><time>2026-04-29T10:56:22.999Z</time></trkpt><trkpt lat="42.6269787327919" lon="12.096925940622835"><ele>481.3333333333333</ele><time>2026-04-29T10:56:23.999Z</time></trkpt><trkpt lat="42.627018948831804" lon="12.096810385411997"><ele>481.66666666666663</ele><time>2026-04-29T10:56:24.999Z</time></trkpt><trkpt lat="42.627064249561585" lon="12.096699143726333"><ele>482.0</ele><time>2026-04-29T10:56:25.999Z</time></trkpt><trkpt lat="42.62709969249768" lon="12.096613262622116"><ele>481.28571428571433</ele><time>2026-04-29T10:56:26.999Z</time></trkpt><trkpt lat="42.627136646067086" lon="12.096528707926897"><ele>480.5714285714286</ele><time>2026-04-29T10:56:27.999Z</time></trkpt><trkpt lat="42.62717330546114" lon="12.096445359857656"><ele>479.8571428571429</ele><time>2026-04-29T10:56:29.999Z</time></trkpt><trkpt lat="42.62721700868371" lon="12.096358315385592"><ele>479.1428571428571</ele><time>2026-04-29T10:56:44.999Z</time></trkpt><trkpt lat="42.62724014328968" lon="12.09627744942309"><ele>478.4285714285714</ele><time>2026-04-29T10:56:47.999Z</time></trkpt><trkpt lat="42.62717564493346" lon="12.096287599647628"><ele>477.71428571428567</ele><time>2026-04-29T10:57:25.024Z</time></trkpt><trkpt lat="42.627196198494836" lon="12.09620394927095"><ele>477.0</ele><time>2026-04-29T10:57:33Z</time></trkpt><trkpt lat="42.627251863539335" lon="12.096268947367703"><ele>477.0</ele><time>2026-04-29T10:57:37Z</time></trkpt><trkpt lat="42.6273004519569" lon="12.096060343244526"><ele>477.00000000000006</ele><time>2026-04-29T11:06:11.001Z</time></trkpt><trkpt lat="42.627320979464656" lon="12.095970885790997"><ele>477.00000000000006</ele><time>2026-04-29T11:06:12.001Z</time></trkpt><trkpt lat="42.62733172165883" lon="12.09586694391567"><ele>477.0</ele><time>2026-04-29T11:06:13.001Z</time></trkpt><trkpt lat="42.62733376426059" lon="12.095753224189085"><ele>477.0</ele><time>2026-04-29T11:06:14.001Z</time></trkpt><trkpt lat="42.62733542869205" lon="12.095636874970848"><ele>476.8333333333333</ele><time>2026-04-29T11:06:15.001Z</time></trkpt><trkpt lat="42.62734140354988" lon="12.095517594208347"><ele>476.66666666666663</ele><time>2026-04-29T11:06:16.001Z</time></trkpt><trkpt lat="42.627345929309314" lon="12.095405294525454"><ele>476.5</ele><time>2026-04-29T11:06:17.001Z</time></trkpt><trkpt lat="42.62734150003966" lon="12.095297675842026"><ele>476.3333333333333</ele><time>2026-04-29T11:06:18.001Z</time></trkpt><trkpt lat="42.62733141463886" lon="12.095182865175936"><ele>476.16666666666663</ele><time>2026-04-29T11:06:19.001Z</time></trkpt><trkpt lat="42.627304165055094" lon="12.095057808887024"><ele>476.0</ele><time>2026-04-29T11:06:20.001Z</time></trkpt><trkpt lat="42.62726810843475" lon="12.09494302594156"><ele>475.16666666666663</ele><time>2026-04-29T11:06:21.001Z</time></trkpt><trkpt lat="42.62721298025723" lon="12.094838773294212"><ele>474.3333333333333</ele><time>2026-04-29T11:06:22.001Z</time></trkpt><trkpt lat="42.627154975800536" lon="12.094752229347248"><ele>473.5</ele><time>2026-04-29T11:06:23.001Z</time></trkpt><trkpt lat="42.62709399488592" lon="12.094677290697657"><ele>472.66666666666663</ele><time>2026-04-29T11:06:24.001Z</time></trkpt><trkpt lat="42.62707585031614" lon="12.094555774580257"><ele>471.8333333333333</ele><time>2026-04-29T11:06:25.001Z</time></trkpt><trkpt lat="42.627038662018435" lon="12.094443497781237"><ele>471.0</ele><time>2026-04-29T11:06:26.001Z</time></trkpt><trkpt lat="42.6270214419725" lon="12.094330868637336"><ele>471.0</ele><time>2026-04-29T11:06:27.001Z</time></trkpt><trkpt lat="42.62699101101499" lon="12.094253520923003"><ele>471.0</ele><time>2026-04-29T11:06:28.001Z</time></trkpt><trkpt lat="42.62710216814753" lon="12.094160139205018"><ele>471.0</ele><time>2026-04-29T11:06:31.001Z</time></trkpt><trkpt lat="42.62716463759551" lon="12.094132914124213"><ele>471.0</ele><time>2026-04-29T11:06:32.001Z</time></trkpt><trkpt lat="42.627235591243085" lon="12.0940812492996"><ele>471.0</ele><time>2026-04-29T11:06:33.001Z</time></trkpt><trkpt lat="42.627308120264345" lon="12.094031526584498"><ele>471.0</ele><time>2026-04-29T11:06:34.001Z</time></trkpt><trkpt lat="42.627384435825995" lon="12.093980863723356"><ele>471.8333333333333</ele><time>2026-04-29T11:06:35.001Z</time></trkpt><trkpt lat="42.62745368571342" lon="12.093935245118237"><ele>472.66666666666663</ele><time>2026-04-29T11:06:36.001Z</time></trkpt><trkpt lat="42.62752546531199" lon="12.093895554382224"><ele>473.5</ele><time>2026-04-29T11:06:37.001Z</time></trkpt><trkpt lat="42.62758827398598" lon="12.093857770706038"><ele>474.3333333333333</ele><time>2026-04-29T11:06:38.001Z</time></trkpt><trkpt lat="42.62766953375657" lon="12.093797343466711"><ele>475.16666666666663</ele><time>2026-04-29T11:06:40.001Z</time></trkpt><trkpt lat="42.62772294948033" lon="12.093726439352675"><ele>476.0</ele><time>2026-04-29T11:06:43.001Z</time></trkpt><trkpt lat="42.62772510864919" lon="12.09357161895614"><ele>475.99999999999994</ele><time>2026-04-29T11:06:45.001Z</time></trkpt><trkpt lat="42.62770199735733" lon="12.093453843634524"><ele>476.0</ele><time>2026-04-29T11:06:46.001Z</time></trkpt><trkpt lat="42.62768664327418" lon="12.093351202920221"><ele>476.0</ele><time>2026-04-29T11:06:47.001Z</time></trkpt><trkpt lat="42.62767980156294" lon="12.09324900747289"><ele>476.0</ele><time>2026-04-29T11:06:48.001Z</time></trkpt><trkpt lat="42.62767655243649" lon="12.09314583360819"><ele>475.99999999999994</ele><time>2026-04-29T11:06:49.001Z</time></trkpt><trkpt lat="42.62767757036609" lon="12.093047010268709"><ele>476.0</ele><time>2026-04-29T11:06:50.001Z</time></trkpt><trkpt lat="42.62767686228157" lon="12.092953168796823"><ele>476.2857142857143</ele><time>2026-04-29T11:06:51.001Z</time></trkpt><trkpt lat="42.62767769788837" lon="12.09286156431067"><ele>476.57142857142856</ele><time>2026-04-29T11:06:52.001Z</time></trkpt><trkpt lat="42.62768096606409" lon="12.0927744059997"><ele>476.8571428571429</ele><time>2026-04-29T11:06:53.001Z</time></trkpt><trkpt lat="42.627685190739" lon="12.092677510866645"><ele>477.14285714285717</ele><time>2026-04-29T11:06:54.001Z</time></trkpt><trkpt lat="42.62768730569902" lon="12.092571393382336"><ele>477.42857142857144</ele><time>2026-04-29T11:06:55.001Z</time></trkpt><trkpt lat="42.62767830517213" lon="12.09246158358614"><ele>477.7142857142858</ele><time>2026-04-29T11:06:56.001Z</time></trkpt><trkpt lat="42.62766433927937" lon="12.092347606096242"><ele>478.00000000000006</ele><time>2026-04-29T11:06:57.001Z</time></trkpt><trkpt lat="42.62764408690566" lon="12.092235763262526"><ele>479.00000000000006</ele><time>2026-04-29T11:06:58.001Z</time></trkpt><trkpt lat="42.62760881993947" lon="12.092129780556563"><ele>480.0</ele><time>2026-04-29T11:06:59.001Z</time></trkpt><trkpt lat="42.62757785342104" lon="12.092021342064827"><ele>481.0</ele><time>2026-04-29T11:07:00.001Z</time></trkpt><trkpt lat="42.627543608462695" lon="12.0919176624528"><ele>482.0</ele><time>2026-04-29T11:07:01.001Z</time></trkpt><trkpt lat="42.62750974505101" lon="12.091819288794564"><ele>483.00000000000006</ele><time>2026-04-29T11:07:02.001Z</time></trkpt><trkpt lat="42.62747361431707" lon="12.091729739516285"><ele>484.0</ele><time>2026-04-29T11:07:03Z</time></trkpt><trkpt lat="42.62744469982814" lon="12.09164722459848"><ele>484.4</ele><time>2026-04-29T11:07:04Z</time></trkpt><trkpt lat="42.62740415746239" lon="12.091521159518473"><ele>484.79999999999995</ele><time>2026-04-29T11:07:06Z</time></trkpt><trkpt lat="42.627371718264655" lon="12.09140842051247"><ele>485.20000000000005</ele><time>2026-04-29T11:07:08Z</time></trkpt><trkpt lat="42.62732859672524" lon="12.09128850852611"><ele>485.6</ele><time>2026-04-29T11:07:10Z</time></trkpt><trkpt lat="42.62728140362208" lon="12.091147271459992"><ele>486.0</ele><time>2026-04-29T11:07:12Z</time></trkpt><trkpt lat="42.62724158186332" lon="12.090997237592449"><ele>486.0</ele><time>2026-04-29T11:07:14Z</time></trkpt><trkpt lat="42.62721470040882" lon="12.090919461535556"><ele>486.0</ele><time>2026-04-29T11:07:15Z</time></trkpt><trkpt lat="42.62714764400992" lon="12.090794934470924"><ele>486.0</ele><time>2026-04-29T11:07:17Z</time></trkpt><trkpt lat="42.62707371130606" lon="12.090705675603754"><ele>486.0</ele><time>2026-04-29T11:07:19Z</time></trkpt><trkpt lat="42.62714774530977" lon="12.09052853371955"><ele>486.0</ele><time>2026-04-29T11:07:20Z</time></trkpt><trkpt lat="42.62716159691371" lon="12.090413373047541"><ele>486.5</ele><time>2026-04-29T11:07:22Z</time></trkpt><trkpt lat="42.62718228338678" lon="12.090327676466902"><ele>487.0</ele><time>2026-04-29T11:07:24Z</time></trkpt><trkpt lat="42.62721171539569" lon="12.090206681595433"><ele>487.5</ele><time>2026-04-29T11:07:26Z</time></trkpt><trkpt lat="42.62722565005804" lon="12.090122089986664"><ele>488.0</ele><time>2026-04-29T11:07:27Z</time></trkpt><trkpt lat="42.62723621246233" lon="12.09002509016592"><ele>488.5</ele><time>2026-04-29T11:07:28Z</time></trkpt><trkpt lat="42.627246863293934" lon="12.089919181172858"><ele>489.0</ele><time>2026-04-29T11:07:29Z</time></trkpt><trkpt lat="42.62725228865529" lon="12.08980804302682"><ele>490.4</ele><time>2026-04-29T11:07:30Z</time></trkpt><trkpt lat="42.627249178463046" lon="12.089714938442546"><ele>491.79999999999995</ele><time>2026-04-29T11:07:31Z</time></trkpt><trkpt lat="42.62724382594463" lon="12.08955853436374"><ele>493.20000000000005</ele><time>2026-04-29T11:07:33Z</time></trkpt><trkpt lat="42.62724082432116" lon="12.089401288593017"><ele>494.6</ele><time>2026-04-29T11:07:35Z</time></trkpt><trkpt lat="42.62721919062044" lon="12.089237969541877"><ele>496.0</ele><time>2026-04-29T11:07:37Z</time></trkpt><trkpt lat="42.627200381385975" lon="12.089121792448024"><ele>496.1666666666667</ele><time>2026-04-29T11:07:39Z</time></trkpt><trkpt lat="42.62713006152991" lon="12.088998095721799"><ele>496.33333333333337</ele><time>2026-04-29T11:07:41Z</time></trkpt><trkpt lat="42.62708496192616" lon="12.08892532211545"><ele>496.5</ele><time>2026-04-29T11:07:42Z</time></trkpt><trkpt lat="42.627036203839346" lon="12.088847519366201"><ele>496.66666666666663</ele><time>2026-04-29T11:07:43Z</time></trkpt><trkpt lat="42.62698256117155" lon="12.088761765170077"><ele>496.8333333333333</ele><time>2026-04-29T11:07:44Z</time></trkpt><trkpt lat="42.62692451553018" lon="12.08867107057641"><ele>497.0</ele><time>2026-04-29T11:07:45Z</time></trkpt><trkpt lat="42.62686268489547" lon="12.08857310674258"><ele>497.8</ele><time>2026-04-29T11:07:46Z</time></trkpt><trkpt lat="42.62679611548623" lon="12.088471057318573"><ele>498.6</ele><time>2026-04-29T11:07:47Z</time></trkpt><trkpt lat="42.6267335704195" lon="12.088371016514007"><ele>499.40000000000003</ele><time>2026-04-29T11:07:48Z</time></trkpt><trkpt lat="42.62666848443479" lon="12.088267233286865"><ele>500.20000000000005</ele><time>2026-04-29T11:07:49Z</time></trkpt><trkpt lat="42.62660640887725" lon="12.088158386849623"><ele>501.0</ele><time>2026-04-29T11:07:50Z</time></trkpt><trkpt lat="42.626542631831704" lon="12.088049398207339"><ele>501.0</ele><time>2026-04-29T11:07:51Z</time></trkpt><trkpt lat="42.62648236664825" lon="12.08794001913041"><ele>501.0</ele><time>2026-04-29T11:07:52Z</time></trkpt><trkpt lat="42.62642054165017" lon="12.087831278972265"><ele>501.0</ele><time>2026-04-29T11:07:53Z</time></trkpt><trkpt lat="42.626359961098196" lon="12.087725123820167"><ele>501.0</ele><time>2026-04-29T11:07:54Z</time></trkpt><trkpt lat="42.62629767339214" lon="12.087616293034287"><ele>501.0</ele><time>2026-04-29T11:07:55Z</time></trkpt><trkpt lat="42.626237171154614" lon="12.087503144892278"><ele>500.8</ele><time>2026-04-29T11:07:56Z</time></trkpt><trkpt lat="42.62618363738038" lon="12.087386508519506"><ele>500.6</ele><time>2026-04-29T11:07:57Z</time></trkpt><trkpt lat="42.62613910005217" lon="12.087275831556859"><ele>500.4</ele><time>2026-04-29T11:07:58Z</time></trkpt><trkpt lat="42.626099334577304" lon="12.087164614395286"><ele>500.2</ele><time>2026-04-29T11:07:59Z</time></trkpt><trkpt lat="42.626077777752826" lon="12.08705997185701"><ele>500.0</ele><time>2026-04-29T11:08:00Z</time></trkpt><trkpt lat="42.62606500967635" lon="12.086944697088668"><ele>499.99999999999994</ele><time>2026-04-29T11:08:01Z</time></trkpt><trkpt lat="42.62606556169384" lon="12.086829273660308"><ele>500.0</ele><time>2026-04-29T11:08:02Z</time></trkpt><trkpt lat="42.62606553740716" lon="12.086708257993516"><ele>500.0</ele><time>2026-04-29T11:08:03Z</time></trkpt><trkpt lat="42.626068098307215" lon="12.086589938200667"><ele>500.0</ele><time>2026-04-29T11:08:04Z</time></trkpt><trkpt lat="42.62607674233559" lon="12.08648561725212"><ele>499.99999999999994</ele><time>2026-04-29T11:08:05Z</time></trkpt><trkpt lat="42.62608091853277" lon="12.086398934482103"><ele>500.0</ele><time>2026-04-29T11:08:06Z</time></trkpt><trkpt lat="42.62608485615631" lon="12.086285663354733"><ele>500.49999999999994</ele><time>2026-04-29T11:08:08Z</time></trkpt><trkpt lat="42.626054929764635" lon="12.08616917829851"><ele>501.0</ele><time>2026-04-29T11:08:31Z</time></trkpt><trkpt lat="42.626029219146304" lon="12.086021302026161"><ele>501.5</ele><time>2026-04-29T11:08:33.001Z</time></trkpt><trkpt lat="42.62601268619845" lon="12.08593603135888"><ele>502.0</ele><time>2026-04-29T11:08:34.001Z</time></trkpt><trkpt lat="42.62600054264047" lon="12.085847747592988"><ele>502.49999999999994</ele><time>2026-04-29T11:08:35.001Z</time></trkpt><trkpt lat="42.62597524047743" lon="12.085719735549148"><ele>503.0</ele><time>2026-04-29T11:08:37.001Z</time></trkpt><trkpt lat="42.62594953299635" lon="12.08562262388696"><ele>503.2</ele><time>2026-04-29T11:08:40.001Z</time></trkpt><trkpt lat="42.62587635005954" lon="12.085509106823363"><ele>503.4</ele><time>2026-04-29T11:10:16Z</time></trkpt><trkpt lat="42.62581239515829" lon="12.0853758354311"><ele>503.59999999999997</ele><time>2026-04-29T11:10:18Z</time></trkpt><trkpt lat="42.62574331800353" lon="12.085286914705598"><ele>503.79999999999995</ele><time>2026-04-29T11:10:19Z</time></trkpt><trkpt lat="42.62567980399208" lon="12.085187135763663"><ele>504.0</ele><time>2026-04-29T11:10:20Z</time></trkpt><trkpt lat="42.62559702978049" lon="12.085096698710023"><ele>504.0</ele><time>2026-04-29T11:10:21Z</time></trkpt><trkpt lat="42.62550109445839" lon="12.085024888731752"><ele>504.0</ele><time>2026-04-29T11:10:22Z</time></trkpt><trkpt lat="42.625414610511235" lon="12.084918246602259"><ele>504.0</ele><time>2026-04-29T11:10:23Z</time></trkpt><trkpt lat="42.62532040139792" lon="12.08480596105489"><ele>504.0</ele><time>2026-04-29T11:10:24Z</time></trkpt><trkpt lat="42.62523505126363" lon="12.084692769822707"><ele>506.5</ele><time>2026-04-29T11:10:25Z</time></trkpt><trkpt lat="42.625156028885186" lon="12.084574906332122"><ele>509.0</ele><time>2026-04-29T11:10:26Z</time></trkpt><trkpt lat="42.625073068251865" lon="12.084453768465004"><ele>511.5</ele><time>2026-04-29T11:10:27Z</time></trkpt><trkpt lat="42.62498776820708" lon="12.084338389213334"><ele>514.0</ele><time>2026-04-29T11:10:28Z</time></trkpt><trkpt lat="42.6249081790822" lon="12.084203114488302"><ele>514.0</ele><time>2026-04-29T11:10:29Z</time></trkpt><trkpt lat="42.624834958239376" lon="12.08406555639757"><ele>514.0</ele><time>2026-04-29T11:10:30Z</time></trkpt><trkpt lat="42.6247668484453" lon="12.0839305868263"><ele>514.0</ele><time>2026-04-29T11:10:31Z</time></trkpt><trkpt lat="42.62470843537074" lon="12.083789138389871"><ele>514.0</ele><time>2026-04-29T11:10:32Z</time></trkpt><trkpt lat="42.62464974079173" lon="12.08362815506029"><ele>514.0</ele><time>2026-04-29T11:10:33Z</time></trkpt><trkpt lat="42.62458962605776" lon="12.083464719124999"><ele>514.0</ele><time>2026-04-29T11:10:34Z</time></trkpt><trkpt lat="42.62453108027779" lon="12.083306272087405"><ele>514.0</ele><time>2026-04-29T11:10:35Z</time></trkpt><trkpt lat="42.624478482823044" lon="12.083150451337445"><ele>514.0</ele><time>2026-04-29T11:10:36Z</time></trkpt><trkpt lat="42.62442852871153" lon="12.082997015774115"><ele>511.75</ele><time>2026-04-29T11:10:37Z</time></trkpt><trkpt lat="42.624391967513134" lon="12.082837024430061"><ele>509.5</ele><time>2026-04-29T11:10:38Z</time></trkpt><trkpt lat="42.62436989868883" lon="12.082660750370492"><ele>507.25</ele><time>2026-04-29T11:10:39Z</time></trkpt><trkpt lat="42.624363170318276" lon="12.082476328601873"><ele>505.0</ele><time>2026-04-29T11:10:40Z</time></trkpt><trkpt lat="42.62436709448109" lon="12.082286862920034"><ele>504.5</ele><time>2026-04-29T11:10:41Z</time></trkpt><trkpt lat="42.62437782886374" lon="12.082095482152475"><ele>504.0</ele><time>2026-04-29T11:10:42Z</time></trkpt><trkpt lat="42.62437993573133" lon="12.081914768648117"><ele>503.5</ele><time>2026-04-29T11:10:43Z</time></trkpt><trkpt lat="42.624353083319555" lon="12.081739427333915"><ele>503.0</ele><time>2026-04-29T11:10:44Z</time></trkpt><trkpt lat="42.62430520448427" lon="12.081570860615024"><ele>503.0</ele><time>2026-04-29T11:10:45Z</time></trkpt><trkpt lat="42.624235584277116" lon="12.081415283503471"><ele>503.0</ele><time>2026-04-29T11:10:46Z</time></trkpt><trkpt lat="42.624158374579416" lon="12.081271098568363"><ele>503.0</ele><time>2026-04-29T11:10:47Z</time></trkpt><trkpt lat="42.62408575057075" lon="12.081135049877314"><ele>503.0</ele><time>2026-04-29T11:10:48Z</time></trkpt><trkpt lat="42.624032306173206" lon="12.081001212056233"><ele>503.0</ele><time>2026-04-29T11:10:49Z</time></trkpt><trkpt lat="42.62400109565085" lon="12.080849594294664"><ele>503.0</ele><time>2026-04-29T11:10:50Z</time></trkpt><trkpt lat="42.62397778053055" lon="12.080688178056839"><ele>503.0</ele><time>2026-04-29T11:10:51Z</time></trkpt><trkpt lat="42.623958897047864" lon="12.080524989426388"><ele>503.0</ele><time>2026-04-29T11:10:52Z</time></trkpt><trkpt lat="42.62395047063085" lon="12.080377662457522"><ele>503.0</ele><time>2026-04-29T11:10:53Z</time></trkpt><trkpt lat="42.623932957092805" lon="12.080245139224344"><ele>502.99999999999994</ele><time>2026-04-29T11:10:54Z</time></trkpt><trkpt lat="42.6238902938769" lon="12.080124708824805"><ele>502.99999999999994</ele><time>2026-04-29T11:10:55Z</time></trkpt><trkpt lat="42.62381823663584" lon="12.080023592641258"><ele>503.0</ele><time>2026-04-29T11:10:56Z</time></trkpt><trkpt lat="42.62372685367753" lon="12.07995645876369"><ele>503.0</ele><time>2026-04-29T11:10:57Z</time></trkpt><trkpt lat="42.62362286545626" lon="12.079926689490078"><ele>503.0</ele><time>2026-04-29T11:10:58Z</time></trkpt><trkpt lat="42.62351822509078" lon="12.0799061702909"><ele>502.99999999999994</ele><time>2026-04-29T11:10:59Z</time></trkpt><trkpt lat="42.623427952193474" lon="12.079853436311726"><ele>502.99999999999994</ele><time>2026-04-29T11:11:00Z</time></trkpt><trkpt lat="42.62335585272783" lon="12.07976103143334"><ele>503.0</ele><time>2026-04-29T11:11:01Z</time></trkpt><trkpt lat="42.62329711066241" lon="12.079644950768474"><ele>503.0</ele><time>2026-04-29T11:11:02Z</time></trkpt><trkpt lat="42.62325033776409" lon="12.079507630454358"><ele>503.0</ele><time>2026-04-29T11:11:03Z</time></trkpt><trkpt lat="42.623213646951484" lon="12.079358055229457"><ele>503.0</ele><time>2026-04-29T11:11:04Z</time></trkpt><trkpt lat="42.62317693644233" lon="12.079199756209405"><ele>503.0</ele><time>2026-04-29T11:11:05Z</time></trkpt><trkpt lat="42.623141484267265" lon="12.079031142824395"><ele>503.0</ele><time>2026-04-29T11:11:06Z</time></trkpt><trkpt lat="42.62311215614988" lon="12.078852147936809"><ele>505.0</ele><time>2026-04-29T11:11:07Z</time></trkpt><trkpt lat="42.62308821011031" lon="12.078655808900571"><ele>507.0</ele><time>2026-04-29T11:11:08Z</time></trkpt><trkpt lat="42.62306557785513" lon="12.078442014891818"><ele>509.0</ele><time>2026-04-29T11:11:09Z</time></trkpt><trkpt lat="42.62304252442218" lon="12.078215929377276"><ele>511.0</ele><time>2026-04-29T11:11:10Z</time></trkpt><trkpt lat="42.62302378522854" lon="12.077988547359116"><ele>513.0</ele><time>2026-04-29T11:11:11Z</time></trkpt><trkpt lat="42.623006524191815" lon="12.077770520724528"><ele>515.0</ele><time>2026-04-29T11:11:12Z</time></trkpt><trkpt lat="42.62298015816102" lon="12.077549594592641"><ele>515.3333333333333</ele><time>2026-04-29T11:11:13Z</time></trkpt><trkpt lat="42.62294185822067" lon="12.07733234825859"><ele>515.6666666666666</ele><time>2026-04-29T11:11:14Z</time></trkpt><trkpt lat="42.62289347996942" lon="12.077122942743246"><ele>516.0</ele><time>2026-04-29T11:11:15Z</time></trkpt><trkpt lat="42.622825802408904" lon="12.076926737593327"><ele>512.6666666666666</ele><time>2026-04-29T11:11:16Z</time></trkpt><trkpt lat="42.622746110754555" lon="12.076739666051962"><ele>509.3333333333333</ele><time>2026-04-29T11:11:17Z</time></trkpt><trkpt lat="42.622666341971346" lon="12.076559716831829"><ele>506.0</ele><time>2026-04-29T11:11:18Z</time></trkpt><trkpt lat="42.622599503665214" lon="12.07639737615242"><ele>506.0</ele><time>2026-04-29T11:11:19Z</time></trkpt><trkpt lat="42.62253834877496" lon="12.076265579834642"><ele>506.0</ele><time>2026-04-29T11:11:20Z</time></trkpt><trkpt lat="42.62245923459705" lon="12.076168568868324"><ele>506.0</ele><time>2026-04-29T11:11:21Z</time></trkpt><trkpt lat="42.62236616102842" lon="12.076111960862606"><ele>506.0</ele><time>2026-04-29T11:11:22Z</time></trkpt><trkpt lat="42.62226584971738" lon="12.076108271092602"><ele>506.0</ele><time>2026-04-29T11:11:23Z</time></trkpt><trkpt lat="42.622160569270335" lon="12.076157388962441"><ele>506.0</ele><time>2026-04-29T11:11:24Z</time></trkpt><trkpt lat="42.6220549361249" lon="12.076236299009151"><ele>506.0</ele><time>2026-04-29T11:11:25Z</time></trkpt><trkpt lat="42.62195353697163" lon="12.076333511437538"><ele>506.0</ele><time>2026-04-29T11:11:26Z</time></trkpt><trkpt lat="42.62187291716164" lon="12.0764395353945"><ele>506.0</ele><time>2026-04-29T11:11:27Z</time></trkpt><trkpt lat="42.621828636027026" lon="12.076565494094261"><ele>505.75</ele><time>2026-04-29T11:11:28Z</time></trkpt><trkpt lat="42.62182759315794" lon="12.076712418451773"><ele>505.5</ele><time>2026-04-29T11:11:29Z</time></trkpt><trkpt lat="42.62186967975013" lon="12.076854147792135"><ele>505.25</ele><time>2026-04-29T11:11:30Z</time></trkpt><trkpt lat="42.621938532436985" lon="12.076989396833588"><ele>505.0</ele><time>2026-04-29T11:11:31Z</time></trkpt><trkpt lat="42.62200847699816" lon="12.077125568044652"><ele>503.5</ele><time>2026-04-29T11:11:32Z</time></trkpt><trkpt lat="42.622059753259215" lon="12.077280767050594"><ele>502.0</ele><time>2026-04-29T11:11:33Z</time></trkpt><trkpt lat="42.62206866518583" lon="12.077455112707966"><ele>500.5</ele><time>2026-04-29T11:11:34Z</time></trkpt><trkpt lat="42.62205079048156" lon="12.077619636684343"><ele>499.0</ele><time>2026-04-29T11:11:35Z</time></trkpt><trkpt lat="42.622002384345585" lon="12.077754681514348"><ele>502.75</ele><time>2026-04-29T11:11:36Z</time></trkpt><trkpt lat="42.62190765709561" lon="12.077857940212576"><ele>506.5</ele><time>2026-04-29T11:11:37Z</time></trkpt><trkpt lat="42.62179565193796" lon="12.077925279273689"><ele>510.25</ele><time>2026-04-29T11:11:38Z</time></trkpt><trkpt lat="42.621689017043224" lon="12.077988294900273"><ele>514.0</ele><time>2026-04-29T11:11:39Z</time></trkpt><trkpt lat="42.621588131326995" lon="12.07809735529612"><ele>514.0</ele><time>2026-04-29T11:11:40Z</time></trkpt><trkpt lat="42.621498340978775" lon="12.078246483210469"><ele>514.0</ele><time>2026-04-29T11:11:41Z</time></trkpt><trkpt lat="42.621416038972725" lon="12.078426268125789"><ele>514.0</ele><time>2026-04-29T11:11:42Z</time></trkpt><trkpt lat="42.62134277286871" lon="12.078615122686934"><ele>513.0</ele><time>2026-04-29T11:11:43Z</time></trkpt><trkpt lat="42.621274643375095" lon="12.07878335872855"><ele>512.0</ele><time>2026-04-29T11:11:44Z</time></trkpt><trkpt lat="42.6212057754775" lon="12.078916720213876"><ele>511.0</ele><time>2026-04-29T11:11:45Z</time></trkpt><trkpt lat="42.62113226770688" lon="12.079020615508124"><ele>510.0</ele><time>2026-04-29T11:11:46Z</time></trkpt><trkpt lat="42.62106062481129" lon="12.079099272744172"><ele>510.8333333333333</ele><time>2026-04-29T11:11:47Z</time></trkpt><trkpt lat="42.62099190849846" lon="12.079150060030548"><ele>511.66666666666663</ele><time>2026-04-29T11:11:48Z</time></trkpt><trkpt lat="42.62091729254355" lon="12.079170980234439"><ele>512.5</ele><time>2026-04-29T11:11:49Z</time></trkpt><trkpt lat="42.6208335798401" lon="12.079147490245367"><ele>513.3333333333333</ele><time>2026-04-29T11:11:50Z</time></trkpt><trkpt lat="42.620753559821495" lon="12.079091138943822"><ele>514.1666666666666</ele><time>2026-04-29T11:11:51Z</time></trkpt><trkpt lat="42.620676988383416" lon="12.079013348747669"><ele>515.0</ele><time>2026-04-29T11:11:52Z</time></trkpt><trkpt lat="42.62059926789502" lon="12.078949981927453"><ele>515.0</ele><time>2026-04-29T11:11:53Z</time></trkpt><trkpt lat="42.62053082705032" lon="12.07890915700919"><ele>515.0</ele><time>2026-04-29T11:11:54Z</time></trkpt><trkpt lat="42.62045055016308" lon="12.078922311615417"><ele>515.0</ele><time>2026-04-29T11:11:55Z</time></trkpt><trkpt lat="42.6203667626231" lon="12.07897039934302"><ele>515.0</ele><time>2026-04-29T11:11:56Z</time></trkpt><trkpt lat="42.62029544708601" lon="12.079055464152027"><ele>515.0</ele><time>2026-04-29T11:11:57Z</time></trkpt><trkpt lat="42.62023974411384" lon="12.079163176495511"><ele>515.0</ele><time>2026-04-29T11:11:58Z</time></trkpt><trkpt lat="42.62019455953541" lon="12.079292373170444"><ele>515.0</ele><time>2026-04-29T11:11:59Z</time></trkpt><trkpt lat="42.62016362708716" lon="12.079430019053648"><ele>515.0</ele><time>2026-04-29T11:12:00Z</time></trkpt><trkpt lat="42.62013198165177" lon="12.079577005733944"><ele>515.0</ele><time>2026-04-29T11:12:01Z</time></trkpt><trkpt lat="42.620098674200975" lon="12.079722015634324"><ele>515.0</ele><time>2026-04-29T11:12:02Z</time></trkpt><trkpt lat="42.62005880407991" lon="12.079858354830954"><ele>515.0</ele><time>2026-04-29T11:12:03Z</time></trkpt><trkpt lat="42.62000935442603" lon="12.079973213828218"><ele>514.2</ele><time>2026-04-29T11:12:04Z</time></trkpt><trkpt lat="42.619944219212286" lon="12.080078498094986"><ele>513.4</ele><time>2026-04-29T11:12:05Z</time></trkpt><trkpt lat="42.61986938501729" lon="12.080173389565891"><ele>512.6</ele><time>2026-04-29T11:12:06Z</time></trkpt><trkpt lat="42.61979118174902" lon="12.080261566730856"><ele>511.8</ele><time>2026-04-29T11:12:07Z</time></trkpt><trkpt lat="42.61971108812478" lon="12.080346025080207"><ele>511.0</ele><time>2026-04-29T11:12:08Z</time></trkpt><trkpt lat="42.619621632566286" lon="12.080416909921759"><ele>511.0</ele><time>2026-04-29T11:12:09Z</time></trkpt><trkpt lat="42.619524842772755" lon="12.080474077288597"><ele>511.0</ele><time>2026-04-29T11:12:10Z</time></trkpt><trkpt lat="42.61942268130376" lon="12.08050905634302"><ele>511.0</ele><time>2026-04-29T11:12:11Z</time></trkpt><trkpt lat="42.61931480707513" lon="12.080522685111541"><ele>511.0</ele><time>2026-04-29T11:12:12Z</time></trkpt><trkpt lat="42.61920216884389" lon="12.080517518269879"><ele>511.0</ele><time>2026-04-29T11:12:13Z</time></trkpt><trkpt lat="42.61908816585401" lon="12.080516319568"><ele>511.75</ele><time>2026-04-29T11:12:14Z</time></trkpt><trkpt lat="42.61896897546913" lon="12.08051826987128"><ele>512.5</ele><time>2026-04-29T11:12:15Z</time></trkpt><trkpt lat="42.618847889491505" lon="12.080521295791408"><ele>513.25</ele><time>2026-04-29T11:12:16Z</time></trkpt><trkpt lat="42.618724786060724" lon="12.08052397882658"><ele>514.0</ele><time>2026-04-29T11:12:17Z</time></trkpt><trkpt lat="42.61860179939154" lon="12.08052677516829"><ele>515.8</ele><time>2026-04-29T11:12:18Z</time></trkpt><trkpt lat="42.618477471781496" lon="12.080528046690366"><ele>517.5999999999999</ele><time>2026-04-29T11:12:19Z</time></trkpt><trkpt lat="42.618367494946646" lon="12.080528328444872"><ele>519.4</ele><time>2026-04-29T11:12:20Z</time></trkpt><trkpt lat="42.61826695473341" lon="12.080554183370094"><ele>521.1999999999999</ele><time>2026-04-29T11:12:21Z</time></trkpt><trkpt lat="42.61816910262077" lon="12.080625718066589"><ele>523.0</ele><time>2026-04-29T11:12:22Z</time></trkpt><trkpt lat="42.61809028416836" lon="12.080734942119866"><ele>524.25</ele><time>2026-04-29T11:12:23Z</time></trkpt><trkpt lat="42.61802329549628" lon="12.08087539552773"><ele>525.5</ele><time>2026-04-29T11:12:24Z</time></trkpt><trkpt lat="42.61796467082904" lon="12.08104507853302"><ele>526.75</ele><time>2026-04-29T11:12:25Z</time></trkpt><trkpt lat="42.61791687774063" lon="12.081226123922894"><ele>528.0</ele><time>2026-04-29T11:12:26Z</time></trkpt><trkpt lat="42.61787370401055" lon="12.081409938296048"><ele>528.0</ele><time>2026-04-29T11:12:27Z</time></trkpt><trkpt lat="42.617827981604144" lon="12.08158624183272"><ele>528.0</ele><time>2026-04-29T11:12:28Z</time></trkpt><trkpt lat="42.617781636140634" lon="12.081749461511837"><ele>528.0</ele><time>2026-04-29T11:12:29Z</time></trkpt><trkpt lat="42.61773215489379" lon="12.081907461232221"><ele>528.0</ele><time>2026-04-29T11:12:30Z</time></trkpt><trkpt lat="42.61766352443304" lon="12.082044878876744"><ele>528.5</ele><time>2026-04-29T11:12:31Z</time></trkpt><trkpt lat="42.617575905157295" lon="12.08216033132365"><ele>529.0</ele><time>2026-04-29T11:12:32Z</time></trkpt><trkpt lat="42.617464858572916" lon="12.082264961248942"><ele>529.5</ele><time>2026-04-29T11:12:33Z</time></trkpt><trkpt lat="42.617330996112116" lon="12.082362725024403"><ele>530.0</ele><time>2026-04-29T11:12:34Z</time></trkpt><trkpt lat="42.61717195524331" lon="12.082457163997864"><ele>530.0</ele><time>2026-04-29T11:12:35Z</time></trkpt><trkpt lat="42.61699583183811" lon="12.082559950442601"><ele>530.0</ele><time>2026-04-29T11:12:36Z</time></trkpt><trkpt lat="42.61682750645548" lon="12.082653348995828"><ele>530.0</ele><time>2026-04-29T11:12:37Z</time></trkpt><trkpt lat="42.61667721491043" lon="12.082731347113738"><ele>533.25</ele><time>2026-04-29T11:12:38Z</time></trkpt><trkpt lat="42.61653372202569" lon="12.082803345545733"><ele>536.5</ele><time>2026-04-29T11:12:39Z</time></trkpt><trkpt lat="42.61640222618001" lon="12.082872766011025"><ele>539.75</ele><time>2026-04-29T11:12:40Z</time></trkpt><trkpt lat="42.61628201239961" lon="12.08293743013289"><ele>543.0</ele><time>2026-04-29T11:12:41Z</time></trkpt><trkpt lat="42.61616348578676" lon="12.083014154761354"><ele>542.5</ele><time>2026-04-29T11:12:42Z</time></trkpt><trkpt lat="42.61604743497795" lon="12.083118184470814"><ele>542.0</ele><time>2026-04-29T11:12:43Z</time></trkpt><trkpt lat="42.6159397902236" lon="12.083249587415802"><ele>541.5</ele><time>2026-04-29T11:12:44Z</time></trkpt><trkpt lat="42.615840476773094" lon="12.083398746186122"><ele>541.0</ele><time>2026-04-29T11:12:45Z</time></trkpt><trkpt lat="42.61574042541429" lon="12.08355822222788"><ele>541.0</ele><time>2026-04-29T11:12:46Z</time></trkpt><trkpt lat="42.61562720020296" lon="12.083714224367387"><ele>541.0</ele><time>2026-04-29T11:12:47Z</time></trkpt><trkpt lat="42.61550456570009" lon="12.083865176921472"><ele>541.0</ele><time>2026-04-29T11:12:48Z</time></trkpt><trkpt lat="42.615363331621815" lon="12.084026497574714"><ele>540.6666666666667</ele><time>2026-04-29T11:12:49Z</time></trkpt><trkpt lat="42.6152011492051" lon="12.084211570691508"><ele>540.3333333333334</ele><time>2026-04-29T11:12:50Z</time></trkpt><trkpt lat="42.61502433288638" lon="12.084405124406208"><ele>540.0</ele><time>2026-04-29T11:12:51Z</time></trkpt><trkpt lat="42.61483258846527" lon="12.084597865138432"><ele>540.0</ele><time>2026-04-29T11:12:52Z</time></trkpt><trkpt lat="42.61463723516355" lon="12.084786656729232"><ele>540.0</ele><time>2026-04-29T11:12:53Z</time></trkpt><trkpt lat="42.61445781678432" lon="12.08496723025152"><ele>539.5</ele><time>2026-04-29T11:12:54Z</time></trkpt><trkpt lat="42.614272448016095" lon="12.08515352937486"><ele>539.0</ele><time>2026-04-29T11:12:55Z</time></trkpt><trkpt lat="42.61408840103517" lon="12.085345584602578"><ele>539.0</ele><time>2026-04-29T11:12:56Z</time></trkpt><trkpt lat="42.61390508427301" lon="12.085549216094844"><ele>539.0</ele><time>2026-04-29T11:12:57Z</time></trkpt><trkpt lat="42.61372732186178" lon="12.08576198977475"><ele>538.5</ele><time>2026-04-29T11:12:58Z</time></trkpt><trkpt lat="42.61355330776105" lon="12.085981352804907"><ele>538.0</ele><time>2026-04-29T11:12:59Z</time></trkpt><trkpt lat="42.613381319716694" lon="12.086204579713547"><ele>538.0</ele><time>2026-04-29T11:13:00Z</time></trkpt><trkpt lat="42.61320674984776" lon="12.086427077807114"><ele>538.0</ele><time>2026-04-29T11:13:01Z</time></trkpt><trkpt lat="42.61303078612818" lon="12.086649125139566"><ele>535.0</ele><time>2026-04-29T11:13:02Z</time></trkpt><trkpt lat="42.61285374348256" lon="12.086872811914104"><ele>532.0</ele><time>2026-04-29T11:13:03Z</time></trkpt><trkpt lat="42.612678821512745" lon="12.087097974332586"><ele>531.5</ele><time>2026-04-29T11:13:04Z</time></trkpt><trkpt lat="42.61250286880102" lon="12.08732582620259"><ele>531.0</ele><time>2026-04-29T11:13:05Z</time></trkpt><trkpt lat="42.61232314416091" lon="12.087555791108398"><ele>530.5</ele><time>2026-04-29T11:13:06Z</time></trkpt><trkpt lat="42.61214146586522" lon="12.08778506924297"><ele>530.0</ele><time>2026-04-29T11:13:07Z</time></trkpt><trkpt lat="42.611959653957" lon="12.088016759125532"><ele>528.0</ele><time>2026-04-29T11:13:08Z</time></trkpt><trkpt lat="42.61177930240812" lon="12.088252062309001"><ele>526.0</ele><time>2026-04-29T11:13:09Z</time></trkpt><trkpt lat="42.611605051695484" lon="12.088479862416172"><ele>525.6666666666667</ele><time>2026-04-29T11:13:10Z</time></trkpt><trkpt lat="42.611442237522766" lon="12.0886954972222"><ele>525.3333333333334</ele><time>2026-04-29T11:13:11Z</time></trkpt><trkpt lat="42.61128998339973" lon="12.088896079972965"><ele>525.0</ele><time>2026-04-29T11:13:12Z</time></trkpt><trkpt lat="42.611142869265755" lon="12.08907406308777"><ele>524.3333333333334</ele><time>2026-04-29T11:13:13Z</time></trkpt><trkpt lat="42.61099716655507" lon="12.089230509007304"><ele>523.6666666666667</ele><time>2026-04-29T11:13:14Z</time></trkpt><trkpt lat="42.61084446830376" lon="12.089370573445402"><ele>523.0</ele><time>2026-04-29T11:13:15Z</time></trkpt><trkpt lat="42.61067829515733" lon="12.08950433053268"><ele>523.0</ele><time>2026-04-29T11:13:16Z</time></trkpt><trkpt lat="42.61051086593197" lon="12.089644989553237"><ele>523.0</ele><time>2026-04-29T11:13:17Z</time></trkpt><trkpt lat="42.61035442958528" lon="12.089784036887787"><ele>523.0</ele><time>2026-04-29T11:13:18Z</time></trkpt><trkpt lat="42.61021011496075" lon="12.08993175862569"><ele>522.0</ele><time>2026-04-29T11:13:19Z</time></trkpt><trkpt lat="42.61007307817967" lon="12.090106258761713"><ele>521.0</ele><time>2026-04-29T11:13:20Z</time></trkpt><trkpt lat="42.60994645167006" lon="12.090300734439296"><ele>520.0</ele><time>2026-04-29T11:13:21Z</time></trkpt><trkpt lat="42.60982641472001" lon="12.09051123889707"><ele>520.0</ele><time>2026-04-29T11:13:22Z</time></trkpt><trkpt lat="42.609708662709934" lon="12.090726829471565"><ele>520.0</ele><time>2026-04-29T11:13:23Z</time></trkpt><trkpt lat="42.60959457325536" lon="12.090933097124715"><ele>520.0</ele><time>2026-04-29T11:13:24Z</time></trkpt><trkpt lat="42.609480411289844" lon="12.091125276916806"><ele>518.6666666666667</ele><time>2026-04-29T11:13:25Z</time></trkpt><trkpt lat="42.609363882651685" lon="12.091324424423146"><ele>517.3333333333334</ele><time>2026-04-29T11:13:26Z</time></trkpt><trkpt lat="42.609246483166636" lon="12.091541679822365"><ele>516.0</ele><time>2026-04-29T11:13:27Z</time></trkpt><trkpt lat="42.60913070684799" lon="12.09178223662854"><ele>515.3333333333334</ele><time>2026-04-29T11:13:28Z</time></trkpt><trkpt lat="42.60901849539487" lon="12.092030349569622"><ele>514.6666666666667</ele><time>2026-04-29T11:13:29Z</time></trkpt><trkpt lat="42.608912634989274" lon="12.092282271649466"><ele>514.0</ele><time>2026-04-29T11:13:30Z</time></trkpt><trkpt lat="42.60880939435221" lon="12.092533993332474"><ele>512.6666666666667</ele><time>2026-04-29T11:13:31Z</time></trkpt><trkpt lat="42.60869347244179" lon="12.092769749649637"><ele>511.33333333333337</ele><time>2026-04-29T11:13:32Z</time></trkpt><trkpt lat="42.60855736445384" lon="12.092993518715828"><ele>510.0</ele><time>2026-04-29T11:13:33Z</time></trkpt><trkpt lat="42.608408473442395" lon="12.093210836538157"><ele>508.0</ele><time>2026-04-29T11:13:34Z</time></trkpt><trkpt lat="42.60824710523092" lon="12.093422657195505"><ele>506.0</ele><time>2026-04-29T11:13:35Z</time></trkpt><trkpt lat="42.608074478198105" lon="12.093637463482619"><ele>506.0</ele><time>2026-04-29T11:13:36Z</time></trkpt><trkpt lat="42.607898028481145" lon="12.093865546094008"><ele>506.0</ele><time>2026-04-29T11:13:37Z</time></trkpt><trkpt lat="42.60771803389437" lon="12.094095925672256"><ele>506.5</ele><time>2026-04-29T11:13:38Z</time></trkpt><trkpt lat="42.60753408650076" lon="12.094311182254202"><ele>507.0</ele><time>2026-04-29T11:13:39Z</time></trkpt><trkpt lat="42.60735352930315" lon="12.094507726445489"><ele>507.0</ele><time>2026-04-29T11:13:40Z</time></trkpt><trkpt lat="42.60717935751792" lon="12.094680105933685"><ele>507.0</ele><time>2026-04-29T11:13:41Z</time></trkpt><trkpt lat="42.60700585389793" lon="12.09484159144104"><ele>507.0</ele><time>2026-04-29T11:13:42Z</time></trkpt><trkpt lat="42.60682721915119" lon="12.095003392639292"><ele>509.33333333333337</ele><time>2026-04-29T11:13:43Z</time></trkpt><trkpt lat="42.60664763877031" lon="12.095164359317907"><ele>511.6666666666667</ele><time>2026-04-29T11:13:44Z</time></trkpt><trkpt lat="42.60646974040435" lon="12.095325311140458"><ele>514.0</ele><time>2026-04-29T11:13:45Z</time></trkpt><trkpt lat="42.60629558867796" lon="12.095486717188098"><ele>515.0</ele><time>2026-04-29T11:13:46Z</time></trkpt><trkpt lat="42.60613100427551" lon="12.095643227061151"><ele>516.0</ele><time>2026-04-29T11:13:47Z</time></trkpt><trkpt lat="42.60598063741611" lon="12.09579808387242"><ele>517.0</ele><time>2026-04-29T11:13:48Z</time></trkpt><trkpt lat="42.605827985986906" lon="12.095974241614137"><ele>517.6666666666667</ele><time>2026-04-29T11:13:49Z</time></trkpt><trkpt lat="42.60567801801873" lon="12.09616838974873"><ele>518.3333333333334</ele><time>2026-04-29T11:13:50Z</time></trkpt><trkpt lat="42.60552278313367" lon="12.096379917486773"><ele>519.0</ele><time>2026-04-29T11:13:51Z</time></trkpt><trkpt lat="42.605363724525915" lon="12.09660011681833"><ele>517.0</ele><time>2026-04-29T11:13:52Z</time></trkpt><trkpt lat="42.605198137895655" lon="12.096821570948741"><ele>515.0</ele><time>2026-04-29T11:13:53Z</time></trkpt><trkpt lat="42.605030732530544" lon="12.09704907539389"><ele>515.0</ele><time>2026-04-29T11:13:54Z</time></trkpt><trkpt lat="42.60485966931642" lon="12.097281855145162"><ele>515.0</ele><time>2026-04-29T11:13:55Z</time></trkpt><trkpt lat="42.60468711405774" lon="12.09751824842172"><ele>516.0</ele><time>2026-04-29T11:13:56Z</time></trkpt><trkpt lat="42.60451307394637" lon="12.097756805761492"><ele>517.0</ele><time>2026-04-29T11:13:57Z</time></trkpt><trkpt lat="42.60433832281362" lon="12.097994697802644"><ele>514.5</ele><time>2026-04-29T11:13:58Z</time></trkpt><trkpt lat="42.60416570138243" lon="12.098228772828906"><ele>512.0</ele><time>2026-04-29T11:13:59Z</time></trkpt><trkpt lat="42.604002852107605" lon="12.098453101823836"><ele>512.0</ele><time>2026-04-29T11:14:00Z</time></trkpt><trkpt lat="42.60384241679049" lon="12.098676109046057"><ele>512.0</ele><time>2026-04-29T11:14:01Z</time></trkpt><trkpt lat="42.603680108541845" lon="12.098894883796339"><ele>510.0</ele><time>2026-04-29T11:14:02Z</time></trkpt><trkpt lat="42.60351258715637" lon="12.099104418359348"><ele>508.0</ele><time>2026-04-29T11:14:03Z</time></trkpt><trkpt lat="42.60333724696577" lon="12.09930565661433"><ele>508.0</ele><time>2026-04-29T11:14:04Z</time></trkpt><trkpt lat="42.60315005221895" lon="12.099501144690572"><ele>508.0</ele><time>2026-04-29T11:14:05Z</time></trkpt><trkpt lat="42.6029579005084" lon="12.099694584231322"><ele>508.5</ele><time>2026-04-29T11:14:06Z</time></trkpt><trkpt lat="42.602759960961876" lon="12.099883644984349"><ele>509.0</ele><time>2026-04-29T11:14:07Z</time></trkpt><trkpt lat="42.60255772088235" lon="12.100072575121638"><ele>509.0</ele><time>2026-04-29T11:14:08Z</time></trkpt><trkpt lat="42.602354598745826" lon="12.100269959803885"><ele>509.0</ele><time>2026-04-29T11:14:09Z</time></trkpt><trkpt lat="42.60215233972257" lon="12.100466938250912"><ele>508.5</ele><time>2026-04-29T11:14:10Z</time></trkpt><trkpt lat="42.60195067327654" lon="12.100659273230013"><ele>508.0</ele><time>2026-04-29T11:14:11Z</time></trkpt><trkpt lat="42.60174862023841" lon="12.100855728692888"><ele>508.0</ele><time>2026-04-29T11:14:12Z</time></trkpt><trkpt lat="42.60154844963924" lon="12.1010446177638"><ele>508.0</ele><time>2026-04-29T11:14:13Z</time></trkpt><trkpt lat="42.601358956481214" lon="12.101225406836258"><ele>508.0</ele><time>2026-04-29T11:14:14Z</time></trkpt><trkpt lat="42.60117187175889" lon="12.10140971132712"><ele>508.0</ele><time>2026-04-29T11:14:15Z</time></trkpt><trkpt lat="42.600984679372345" lon="12.101593299194036"><ele>507.0</ele><time>2026-04-29T11:14:16Z</time></trkpt><trkpt lat="42.60079803650938" lon="12.101786284582404"><ele>506.0</ele><time>2026-04-29T11:14:17Z</time></trkpt><trkpt lat="42.60061255822012" lon="12.101998794902743"><ele>506.0</ele><time>2026-04-29T11:14:18Z</time></trkpt><trkpt lat="42.60042357014302" lon="12.102226780206509"><ele>506.0</ele><time>2026-04-29T11:14:19Z</time></trkpt><trkpt lat="42.60023047115499" lon="12.102458911996285"><ele>503.0</ele><time>2026-04-29T11:14:20Z</time></trkpt><trkpt lat="42.6000351559683" lon="12.102688973555987"><ele>500.0</ele><time>2026-04-29T11:14:21Z</time></trkpt><trkpt lat="42.59984286542363" lon="12.102901212644616"><ele>500.0</ele><time>2026-04-29T11:14:22Z</time></trkpt><trkpt lat="42.599669061173074" lon="12.103084018888646"><ele>500.0</ele><time>2026-04-29T11:14:23Z</time></trkpt><trkpt lat="42.599503282292964" lon="12.103239494722626"><ele>500.0</ele><time>2026-04-29T11:14:24Z</time></trkpt><trkpt lat="42.599317408598324" lon="12.10338581382431"><ele>493.0</ele><time>2026-04-29T11:14:25Z</time></trkpt><trkpt lat="42.599112464964506" lon="12.10351155862964"><ele>486.0</ele><time>2026-04-29T11:14:26Z</time></trkpt><trkpt lat="42.59889045679854" lon="12.103621897549038"><ele>485.0</ele><time>2026-04-29T11:14:27Z</time></trkpt><trkpt lat="42.59866502961991" lon="12.103719516451154"><ele>484.0</ele><time>2026-04-29T11:14:28Z</time></trkpt><trkpt lat="42.59845571014018" lon="12.103808916519494"><ele>484.0</ele><time>2026-04-29T11:14:29Z</time></trkpt><trkpt lat="42.59825646674127" lon="12.103893747551517"><ele>484.0</ele><time>2026-04-29T11:14:30Z</time></trkpt><trkpt lat="42.59805767346359" lon="12.103955356054755"><ele>484.0</ele><time>2026-04-29T11:14:31Z</time></trkpt><trkpt lat="42.59785732327679" lon="12.10397726307742"><ele>484.33333333333337</ele><time>2026-04-29T11:14:32Z</time></trkpt><trkpt lat="42.597650925420844" lon="12.103957639801925"><ele>484.66666666666663</ele><time>2026-04-29T11:14:33Z</time></trkpt><trkpt lat="42.597448753655094" lon="12.103902657791945"><ele>485.0</ele><time>2026-04-29T11:14:34Z</time></trkpt><trkpt lat="42.597247590915096" lon="12.103825380008344"><ele>485.0</ele><time>2026-04-29T11:14:35Z</time></trkpt><trkpt lat="42.59705632033239" lon="12.103749713860362"><ele>485.0</ele><time>2026-04-29T11:14:36Z</time></trkpt><trkpt lat="42.596863088130995" lon="12.103704488709942"><ele>485.0</ele><time>2026-04-29T11:14:37Z</time></trkpt><trkpt lat="42.59666828696637" lon="12.103698937956871"><ele>485.66666666666663</ele><time>2026-04-29T11:14:38Z</time></trkpt><trkpt lat="42.59647419123015" lon="12.103720407472942"><ele>486.33333333333337</ele><time>2026-04-29T11:14:39Z</time></trkpt><trkpt lat="42.59627981059806" lon="12.103747363629932"><ele>487.0</ele><time>2026-04-29T11:14:40Z</time></trkpt><trkpt lat="42.596086164940004" lon="12.103775070502227"><ele>488.33333333333337</ele><time>2026-04-29T11:14:41Z</time></trkpt><trkpt lat="42.59589616698036" lon="12.103795691129678"><ele>489.66666666666663</ele><time>2026-04-29T11:14:42Z</time></trkpt><trkpt lat="42.59571673944068" lon="12.103810471687906"><ele>491.0</ele><time>2026-04-29T11:14:43Z</time></trkpt><trkpt lat="42.59554833495187" lon="12.10382433994631"><ele>491.0</ele><time>2026-04-29T11:14:44Z</time></trkpt><trkpt lat="42.59538071445577" lon="12.10383705774472"><ele>491.0</ele><time>2026-04-29T11:14:45Z</time></trkpt><trkpt lat="42.59521290689386" lon="12.103843561560867"><ele>491.0</ele><time>2026-04-29T11:14:46Z</time></trkpt><trkpt lat="42.595040915344036" lon="12.103833831406792"><ele>491.3333333333333</ele><time>2026-04-29T11:14:47Z</time></trkpt><trkpt lat="42.594855271472184" lon="12.103815329894715"><ele>491.66666666666663</ele><time>2026-04-29T11:14:48Z</time></trkpt><trkpt lat="42.5946607558082" lon="12.103797621231697"><ele>492.0</ele><time>2026-04-29T11:14:49Z</time></trkpt><trkpt lat="42.59445659203875" lon="12.10377916587808"><ele>492.0</ele><time>2026-04-29T11:14:50Z</time></trkpt><trkpt lat="42.5942469784187" lon="12.10375296566762"><ele>492.0</ele><time>2026-04-29T11:14:51Z</time></trkpt><trkpt lat="42.59403150842673" lon="12.103735598022112"><ele>492.0</ele><time>2026-04-29T11:14:52Z</time></trkpt><trkpt lat="42.5938128933574" lon="12.103728635666052"><ele>491.0</ele><time>2026-04-29T11:14:53Z</time></trkpt><trkpt lat="42.59358560535439" lon="12.103728738989831"><ele>490.0</ele><time>2026-04-29T11:14:54Z</time></trkpt><trkpt lat="42.59334775528184" lon="12.103737301862827"><ele>490.0</ele><time>2026-04-29T11:14:55Z</time></trkpt><trkpt lat="42.593110983361704" lon="12.103748809488424"><ele>490.0</ele><time>2026-04-29T11:14:56Z</time></trkpt><trkpt lat="42.59288127214919" lon="12.103757802337338"><ele>489.6666666666667</ele><time>2026-04-29T11:14:57Z</time></trkpt><trkpt lat="42.59266625987024" lon="12.103770596752002"><ele>489.33333333333337</ele><time>2026-04-29T11:14:58Z</time></trkpt><trkpt lat="42.59245586325431" lon="12.1037933564366"><ele>489.0</ele><time>2026-04-29T11:14:59Z</time></trkpt><trkpt lat="42.592262566267756" lon="12.103828971620892"><ele>489.0</ele><time>2026-04-29T11:15:00Z</time></trkpt><trkpt lat="42.592080966126446" lon="12.103891470148202"><ele>489.0</ele><time>2026-04-29T11:15:01Z</time></trkpt><trkpt lat="42.5919220798979" lon="12.10396770369921"><ele>489.0</ele><time>2026-04-29T11:15:02Z</time></trkpt><trkpt lat="42.591763788564926" lon="12.104075681843169"><ele>488.0</ele><time>2026-04-29T11:15:03Z</time></trkpt><trkpt lat="42.591611300015636" lon="12.104202795951384"><ele>487.0</ele><time>2026-04-29T11:15:04Z</time></trkpt><trkpt lat="42.59146616032816" lon="12.10432851459478"><ele>486.0</ele><time>2026-04-29T11:15:05Z</time></trkpt><trkpt lat="42.59131974271613" lon="12.104428217605042"><ele>485.0</ele><time>2026-04-29T11:15:06Z</time></trkpt><trkpt lat="42.59115556145324" lon="12.104502753734504"><ele>484.0</ele><time>2026-04-29T11:15:07Z</time></trkpt><trkpt lat="42.59097463006363" lon="12.10455398067627"><ele>483.0</ele><time>2026-04-29T11:15:08Z</time></trkpt><trkpt lat="42.590779771896095" lon="12.1045860632817"><ele>483.0</ele><time>2026-04-29T11:15:09Z</time></trkpt><trkpt lat="42.59056880257558" lon="12.104606451940167"><ele>483.0</ele><time>2026-04-29T11:15:10Z</time></trkpt><trkpt lat="42.59033915549197" lon="12.10462639956341"><ele>483.0</ele><time>2026-04-29T11:15:11Z</time></trkpt><trkpt lat="42.59009224484177" lon="12.104652662140472"><ele>481.5</ele><time>2026-04-29T11:15:12Z</time></trkpt><trkpt lat="42.589848829956" lon="12.104677763613687"><ele>480.0</ele><time>2026-04-29T11:15:13Z</time></trkpt><trkpt lat="42.58961380270209" lon="12.104700527073042"><ele>477.5</ele><time>2026-04-29T11:15:14Z</time></trkpt><trkpt lat="42.58937712214719" lon="12.104723634921118"><ele>475.0</ele><time>2026-04-29T11:15:15Z</time></trkpt><trkpt lat="42.589141191102215" lon="12.104747548044312"><ele>475.0</ele><time>2026-04-29T11:15:16.001Z</time></trkpt><trkpt lat="42.588914288393994" lon="12.10476827243631"><ele>475.0</ele><time>2026-04-29T11:15:17.001Z</time></trkpt><trkpt lat="42.58869912484399" lon="12.104787282528893"><ele>475.0</ele><time>2026-04-29T11:15:18Z</time></trkpt><trkpt lat="42.58849322508003" lon="12.104806926504727"><ele>474.0</ele><time>2026-04-29T11:15:19Z</time></trkpt><trkpt lat="42.58829446636775" lon="12.104825599491532"><ele>473.0</ele><time>2026-04-29T11:15:20Z</time></trkpt><trkpt lat="42.58810107561007" lon="12.10484218467832"><ele>472.0</ele><time>2026-04-29T11:15:21Z</time></trkpt><trkpt lat="42.58790983501842" lon="12.104854338168074"><ele>471.0</ele><time>2026-04-29T11:15:22Z</time></trkpt><trkpt lat="42.58772118749439" lon="12.104858895583385"><ele>470.0</ele><time>2026-04-29T11:15:23Z</time></trkpt><trkpt lat="42.58754603617713" lon="12.10485652045239"><ele>469.0</ele><time>2026-04-29T11:15:24Z</time></trkpt><trkpt lat="42.58737589127006" lon="12.104852083456768"><ele>469.0</ele><time>2026-04-29T11:15:25Z</time></trkpt><trkpt lat="42.58719977763911" lon="12.104844000585258"><ele>469.0</ele><time>2026-04-29T11:15:26Z</time></trkpt><trkpt lat="42.587020008932924" lon="12.104834848814116"><ele>469.0</ele><time>2026-04-29T11:15:27Z</time></trkpt><trkpt lat="42.586841234755695" lon="12.104829209483288"><ele>468.0</ele><time>2026-04-29T11:15:28Z</time></trkpt><trkpt lat="42.58667486208553" lon="12.104829110372798"><ele>467.0</ele><time>2026-04-29T11:15:29Z</time></trkpt><trkpt lat="42.58650993237943" lon="12.104847470037514"><ele>466.0</ele><time>2026-04-29T11:15:30Z</time></trkpt><trkpt lat="42.586340355448264" lon="12.104830085022822"><ele>465.6666666666667</ele><time>2026-04-29T11:15:31Z</time></trkpt><trkpt lat="42.58618244680175" lon="12.104953106763947"><ele>465.33333333333337</ele><time>2026-04-29T11:15:32Z</time></trkpt><trkpt lat="42.58602906029585" lon="12.105028500939046"><ele>465.0</ele><time>2026-04-29T11:15:33Z</time></trkpt><trkpt lat="42.58586970943741" lon="12.105110092694527"><ele>463.33333333333337</ele><time>2026-04-29T11:15:34Z</time></trkpt><trkpt lat="42.585702912604475" lon="12.105194132637843"><ele>461.6666666666667</ele><time>2026-04-29T11:15:35Z</time></trkpt><trkpt lat="42.585526642132315" lon="12.105280745703618"><ele>460.0</ele><time>2026-04-29T11:15:36Z</time></trkpt><trkpt lat="42.585344385384126" lon="12.105369555749572"><ele>458.33333333333337</ele><time>2026-04-29T11:15:37Z</time></trkpt><trkpt lat="42.58515604924085" lon="12.105458811841167"><ele>456.66666666666663</ele><time>2026-04-29T11:15:38Z</time></trkpt><trkpt lat="42.58496879425039" lon="12.105548071029538"><ele>455.0</ele><time>2026-04-29T11:15:39Z</time></trkpt><trkpt lat="42.58478507236934" lon="12.105639757399107"><ele>455.0</ele><time>2026-04-29T11:15:40Z</time></trkpt><trkpt lat="42.58460228235308" lon="12.105731287174471"><ele>455.0</ele><time>2026-04-29T11:15:41Z</time></trkpt><trkpt lat="42.58442150543453" lon="12.105821619918645"><ele>455.0</ele><time>2026-04-29T11:15:42Z</time></trkpt><trkpt lat="42.58425249359808" lon="12.105905666479053"><ele>456.0</ele><time>2026-04-29T11:15:43Z</time></trkpt><trkpt lat="42.58408541075036" lon="12.105985981482435"><ele>457.0</ele><time>2026-04-29T11:15:44Z</time></trkpt><trkpt lat="42.58391809997926" lon="12.106067589175524"><ele>458.0</ele><time>2026-04-29T11:15:45Z</time></trkpt><trkpt lat="42.58375560517198" lon="12.106148668575626"><ele>458.66666666666663</ele><time>2026-04-29T11:15:46Z</time></trkpt><trkpt lat="42.58359692036103" lon="12.106224898950261"><ele>459.33333333333337</ele><time>2026-04-29T11:15:47Z</time></trkpt><trkpt lat="42.58343588312339" lon="12.10629658726896"><ele>460.0</ele><time>2026-04-29T11:15:48Z</time></trkpt><trkpt lat="42.58327744642582" lon="12.106355859509957"><ele>460.0</ele><time>2026-04-29T11:15:49Z</time></trkpt><trkpt lat="42.58312476720216" lon="12.106394872453086"><ele>460.0</ele><time>2026-04-29T11:15:50Z</time></trkpt><trkpt lat="42.582979546438324" lon="12.106413273424515"><ele>460.0</ele><time>2026-04-29T11:15:51Z</time></trkpt><trkpt lat="42.58283991886361" lon="12.106400931986675"><ele>460.0</ele><time>2026-04-29T11:15:52Z</time></trkpt><trkpt lat="42.5827007608338" lon="12.106355416724497"><ele>457.6666666666667</ele><time>2026-04-29T11:15:53Z</time></trkpt><trkpt lat="42.582554173782384" lon="12.106287886825463"><ele>455.33333333333337</ele><time>2026-04-29T11:15:54Z</time></trkpt><trkpt lat="42.58239226579703" lon="12.106204401668158"><ele>453.0</ele><time>2026-04-29T11:15:55Z</time></trkpt><trkpt lat="42.58221743907614" lon="12.106106294899213"><ele>453.0</ele><time>2026-04-29T11:15:56Z</time></trkpt><trkpt lat="42.58203729002468" lon="12.10600450087257"><ele>453.0</ele><time>2026-04-29T11:15:57Z</time></trkpt><trkpt lat="42.58184652854694" lon="12.105904481682586"><ele>453.0</ele><time>2026-04-29T11:15:58Z</time></trkpt><trkpt lat="42.58164727214243" lon="12.10580282399294"><ele>450.66666666666663</ele><time>2026-04-29T11:15:59Z</time></trkpt><trkpt lat="42.581442653034244" lon="12.105702447446927"><ele>448.3333333333333</ele><time>2026-04-29T11:16:00Z</time></trkpt><trkpt lat="42.58124781462292" lon="12.105597176047715"><ele>446.0</ele><time>2026-04-29T11:16:01Z</time></trkpt><trkpt lat="42.58106534430439" lon="12.10549917440652"><ele>445.3333333333333</ele><time>2026-04-29T11:16:02Z</time></trkpt><trkpt lat="42.58089125535793" lon="12.105406288092869"><ele>444.66666666666663</ele><time>2026-04-29T11:16:03Z</time></trkpt><trkpt lat="42.58073053255784" lon="12.105316374252453"><ele>444.0</ele><time>2026-04-29T11:16:04Z</time></trkpt><trkpt lat="42.58058714553127" lon="12.105238391045914"><ele>444.0</ele><time>2026-04-29T11:16:05Z</time></trkpt><trkpt lat="42.580447360149826" lon="12.10517254272388"><ele>444.0</ele><time>2026-04-29T11:16:06Z</time></trkpt><trkpt lat="42.580312277071776" lon="12.105140166420533"><ele>444.0</ele><time>2026-04-29T11:16:07Z</time></trkpt><trkpt lat="42.58017349980998" lon="12.105140849069938"><ele>444.0</ele><time>2026-04-29T11:16:08Z</time></trkpt><trkpt lat="42.58003365437249" lon="12.10518343615329"><ele>444.0</ele><time>2026-04-29T11:16:09Z</time></trkpt><trkpt lat="42.579900184988226" lon="12.105269896970398"><ele>444.0</ele><time>2026-04-29T11:16:10Z</time></trkpt><trkpt lat="42.57977370073964" lon="12.105395213012187"><ele>444.0</ele><time>2026-04-29T11:16:11Z</time></trkpt><trkpt lat="42.57966341107787" lon="12.105554637220669"><ele>444.0</ele><time>2026-04-29T11:16:12Z</time></trkpt><trkpt lat="42.579571493971585" lon="12.105744001594934"><ele>444.0</ele><time>2026-04-29T11:16:13Z</time></trkpt><trkpt lat="42.57949452304345" lon="12.105949859862147"><ele>444.0</ele><time>2026-04-29T11:16:14Z</time></trkpt><trkpt lat="42.5794172755343" lon="12.10615437246992"><ele>445.66666666666663</ele><time>2026-04-29T11:16:15Z</time></trkpt><trkpt lat="42.57933395615982" lon="12.106364660112748"><ele>447.3333333333333</ele><time>2026-04-29T11:16:16Z</time></trkpt><trkpt lat="42.5792420122311" lon="12.106580083062399"><ele>449.0</ele><time>2026-04-29T11:16:17Z</time></trkpt><trkpt lat="42.579142803005546" lon="12.106795619529406"><ele>449.0</ele><time>2026-04-29T11:16:18Z</time></trkpt><trkpt lat="42.579036165350516" lon="12.10700642892368"><ele>449.0</ele><time>2026-04-29T11:16:19Z</time></trkpt><trkpt lat="42.578919408251245" lon="12.107211999055977"><ele>449.0</ele><time>2026-04-29T11:16:20Z</time></trkpt><trkpt lat="42.57879484634083" lon="12.107417089957387"><ele>448.66666666666663</ele><time>2026-04-29T11:16:21Z</time></trkpt><trkpt lat="42.57866466714419" lon="12.107623566191934"><ele>448.33333333333337</ele><time>2026-04-29T11:16:22Z</time></trkpt><trkpt lat="42.57853030442584" lon="12.107833368394383"><ele>448.0</ele><time>2026-04-29T11:16:23Z</time></trkpt><trkpt lat="42.578393555076694" lon="12.10804471114543"><ele>447.6666666666667</ele><time>2026-04-29T11:16:24Z</time></trkpt><trkpt lat="42.57825621334531" lon="12.108256889447086"><ele>447.33333333333337</ele><time>2026-04-29T11:16:25Z</time></trkpt><trkpt lat="42.57811968693585" lon="12.108469215243288"><ele>447.0</ele><time>2026-04-29T11:16:26Z</time></trkpt><trkpt lat="42.5779803648852" lon="12.108680642982208"><ele>447.33333333333337</ele><time>2026-04-29T11:16:27Z</time></trkpt><trkpt lat="42.57783990151278" lon="12.108892197016107"><ele>447.6666666666667</ele><time>2026-04-29T11:16:28Z</time></trkpt><trkpt lat="42.577702566928956" lon="12.109094289325082"><ele>448.0</ele><time>2026-04-29T11:16:29Z</time></trkpt><trkpt lat="42.577556235696676" lon="12.109283571689863"><ele>448.0</ele><time>2026-04-29T11:16:30Z</time></trkpt><trkpt lat="42.577396785544465" lon="12.109465276662512"><ele>448.0</ele><time>2026-04-29T11:16:31Z</time></trkpt><trkpt lat="42.577228007774494" lon="12.1096440293885"><ele>448.0</ele><time>2026-04-29T11:16:32Z</time></trkpt><trkpt lat="42.57705306942055" lon="12.1098262436991"><ele>448.0</ele><time>2026-04-29T11:16:33Z</time></trkpt><trkpt lat="42.57687535623692" lon="12.110010234827131"><ele>448.0</ele><time>2026-04-29T11:16:34Z</time></trkpt><trkpt lat="42.576699247861605" lon="12.110193447917062"><ele>448.0</ele><time>2026-04-29T11:16:35Z</time></trkpt><trkpt lat="42.5765311403791" lon="12.11036612643993"><ele>448.0</ele><time>2026-04-29T11:16:36Z</time></trkpt><trkpt lat="42.576373751706235" lon="12.110526637239238"><ele>448.0</ele><time>2026-04-29T11:16:37Z</time></trkpt><trkpt lat="42.57621637626806" lon="12.110688587187884"><ele>448.0</ele><time>2026-04-29T11:16:38Z</time></trkpt><trkpt lat="42.57606342909453" lon="12.110849947861402"><ele>449.0</ele><time>2026-04-29T11:16:39Z</time></trkpt><trkpt lat="42.57591523153483" lon="12.11100678231597"><ele>450.0</ele><time>2026-04-29T11:16:40Z</time></trkpt><trkpt lat="42.57577811910068" lon="12.111159885617086"><ele>451.0</ele><time>2026-04-29T11:16:41Z</time></trkpt><trkpt lat="42.575660769041626" lon="12.111317074189271"><ele>451.0</ele><time>2026-04-29T11:16:42Z</time></trkpt><trkpt lat="42.57556478309779" lon="12.11148116765612"><ele>451.0</ele><time>2026-04-29T11:16:43Z</time></trkpt><trkpt lat="42.57549576027665" lon="12.111656833753912"><ele>451.0</ele><time>2026-04-29T11:16:44Z</time></trkpt><trkpt lat="42.57545331428714" lon="12.111847832580866"><ele>451.0</ele><time>2026-04-29T11:16:45Z</time></trkpt><trkpt lat="42.5754325369183" lon="12.112066003717382"><ele>450.33333333333337</ele><time>2026-04-29T11:16:46Z</time></trkpt><trkpt lat="42.575425902802316" lon="12.112310874729742"><ele>449.66666666666663</ele><time>2026-04-29T11:16:47Z</time></trkpt><trkpt lat="42.57542656034071" lon="12.112577051739388"><ele>449.0</ele><time>2026-04-29T11:16:48Z</time></trkpt><trkpt lat="42.57543263624452" lon="12.112856140073623"><ele>448.0</ele><time>2026-04-29T11:16:49Z</time></trkpt><trkpt lat="42.575442955038056" lon="12.113148630103323"><ele>447.0</ele><time>2026-04-29T11:16:50Z</time></trkpt><trkpt lat="42.575449805322954" lon="12.113450613864897"><ele>446.0</ele><time>2026-04-29T11:16:51Z</time></trkpt><trkpt lat="42.575455936959514" lon="12.113754827895884"><ele>444.3333333333333</ele><time>2026-04-29T11:16:52Z</time></trkpt><trkpt lat="42.575460578858895" lon="12.114055394185982"><ele>442.66666666666663</ele><time>2026-04-29T11:16:53Z</time></trkpt><trkpt lat="42.575463052096175" lon="12.11433588928707"><ele>441.0</ele><time>2026-04-29T11:16:54Z</time></trkpt><trkpt lat="42.5754706815969" lon="12.11461498803407"><ele>440.33333333333337</ele><time>2026-04-29T11:16:55Z</time></trkpt><trkpt lat="42.57547919849398" lon="12.114897366335338"><ele>439.6666666666667</ele><time>2026-04-29T11:16:56Z</time></trkpt><trkpt lat="42.575485594469995" lon="12.115168091500372"><ele>439.0</ele><time>2026-04-29T11:16:57Z</time></trkpt><trkpt lat="42.575493394553256" lon="12.11542535808507"><ele>437.6666666666667</ele><time>2026-04-29T11:16:58Z</time></trkpt><trkpt lat="42.57549728744093" lon="12.115671369730865"><ele>436.33333333333337</ele><time>2026-04-29T11:16:59Z</time></trkpt><trkpt lat="42.575492148564194" lon="12.115906762510802"><ele>435.0</ele><time>2026-04-29T11:17:00Z</time></trkpt><trkpt lat="42.575463623265726" lon="12.116130901609953"><ele>435.0</ele><time>2026-04-29T11:17:01Z</time></trkpt><trkpt lat="42.575414613823284" lon="12.116348848743021"><ele>435.0</ele><time>2026-04-29T11:17:02Z</time></trkpt><trkpt lat="42.57534389579891" lon="12.11655239199483"><ele>435.0</ele><time>2026-04-29T11:17:03Z</time></trkpt><trkpt lat="42.575251107516706" lon="12.116746247040076"><ele>433.0</ele><time>2026-04-29T11:17:04Z</time></trkpt><trkpt lat="42.57513895386128" lon="12.116928130093997"><ele>431.0</ele><time>2026-04-29T11:17:05Z</time></trkpt><trkpt lat="42.5750117826759" lon="12.117105236877816"><ele>429.0</ele><time>2026-04-29T11:17:06Z</time></trkpt><trkpt lat="42.5748847241863" lon="12.117271178603453"><ele>429.0</ele><time>2026-04-29T11:17:07Z</time></trkpt><trkpt lat="42.574764619710784" lon="12.117410976377668"><ele>429.0</ele><time>2026-04-29T11:17:08Z</time></trkpt><trkpt lat="42.57462603632212" lon="12.117521853012795"><ele>429.0</ele><time>2026-04-29T11:17:09Z</time></trkpt><trkpt lat="42.57447014326546" lon="12.117594945977268"><ele>429.0</ele><time>2026-04-29T11:17:10Z</time></trkpt><trkpt lat="42.574298319563695" lon="12.117630826802973"><ele>429.0</ele><time>2026-04-29T11:17:11Z</time></trkpt><trkpt lat="42.57411878727342" lon="12.117635353619129"><ele>429.0</ele><time>2026-04-29T11:17:12Z</time></trkpt><trkpt lat="42.5739370315293" lon="12.1176324951577"><ele>429.0</ele><time>2026-04-29T11:17:13Z</time></trkpt><trkpt lat="42.57377105248185" lon="12.1176536305295"><ele>429.0</ele><time>2026-04-29T11:17:14Z</time></trkpt><trkpt lat="42.5736144418592" lon="12.117709141798715"><ele>429.0</ele><time>2026-04-29T11:17:15Z</time></trkpt><trkpt lat="42.57345474618405" lon="12.117801153034817"><ele>428.66666666666663</ele><time>2026-04-29T11:17:16Z</time></trkpt><trkpt lat="42.57329610634963" lon="12.117928789516577"><ele>428.3333333333333</ele><time>2026-04-29T11:17:17Z</time></trkpt><trkpt lat="42.573141195338444" lon="12.118071436800477"><ele>428.0</ele><time>2026-04-29T11:17:18Z</time></trkpt><trkpt lat="42.572988991797274" lon="12.118217705172267"><ele>427.3333333333333</ele><time>2026-04-29T11:17:19Z</time></trkpt><trkpt lat="42.57282808679029" lon="12.118363591713935"><ele>426.66666666666663</ele><time>2026-04-29T11:17:20Z</time></trkpt><trkpt lat="42.57266210439229" lon="12.118510186075467"><ele>426.0</ele><time>2026-04-29T11:17:21.001Z</time></trkpt><trkpt lat="42.57249149827719" lon="12.118669818729378"><ele>426.0</ele><time>2026-04-29T11:17:22.001Z</time></trkpt><trkpt lat="42.57230686482386" lon="12.11884929701324"><ele>426.0</ele><time>2026-04-29T11:17:23.001Z</time></trkpt><trkpt lat="42.57210747419503" lon="12.119042382660398"><ele>425.0</ele><time>2026-04-29T11:17:24.001Z</time></trkpt><trkpt lat="42.57190088553231" lon="12.11922999051662"><ele>424.0</ele><time>2026-04-29T11:17:25.001Z</time></trkpt><trkpt lat="42.57170383570002" lon="12.119395396356866"><ele>424.0</ele><time>2026-04-29T11:17:26.001Z</time></trkpt><trkpt lat="42.571514915157316" lon="12.119551829356864"><ele>424.0</ele><time>2026-04-29T11:17:27.001Z</time></trkpt><trkpt lat="42.57135304646477" lon="12.11969847120497"><ele>424.0</ele><time>2026-04-29T11:17:28Z</time></trkpt><trkpt lat="42.5712089574825" lon="12.119839444325992"><ele>423.0</ele><time>2026-04-29T11:17:29Z</time></trkpt><trkpt lat="42.571080338094376" lon="12.11999128509053"><ele>422.0</ele><time>2026-04-29T11:17:30Z</time></trkpt><trkpt lat="42.57097531534022" lon="12.120176828211372"><ele>421.0</ele><time>2026-04-29T11:17:31Z</time></trkpt><trkpt lat="42.57089361246248" lon="12.120404939916547"><ele>421.0</ele><time>2026-04-29T11:17:32Z</time></trkpt><trkpt lat="42.57081395399999" lon="12.120654805492356"><ele>421.0</ele><time>2026-04-29T11:17:33Z</time></trkpt><trkpt lat="42.57072231007927" lon="12.120910133990227"><ele>421.0</ele><time>2026-04-29T11:17:34Z</time></trkpt><trkpt lat="42.57062925795555" lon="12.121160022303869"><ele>419.6666666666667</ele><time>2026-04-29T11:17:35Z</time></trkpt><trkpt lat="42.57054092423133" lon="12.1213909168314"><ele>418.33333333333337</ele><time>2026-04-29T11:17:36Z</time></trkpt><trkpt lat="42.5704612335109" lon="12.121602409610365"><ele>417.0</ele><time>2026-04-29T11:17:37Z</time></trkpt><trkpt lat="42.57038677274971" lon="12.121802975393479"><ele>415.0</ele><time>2026-04-29T11:17:38Z</time></trkpt><trkpt lat="42.570310469401356" lon="12.122001725231822"><ele>413.0</ele><time>2026-04-29T11:17:39Z</time></trkpt><trkpt lat="42.57021503216825" lon="12.122183269928627"><ele>411.0</ele><time>2026-04-29T11:17:40Z</time></trkpt><trkpt lat="42.57009475012517" lon="12.122352546968015"><ele>412.33333333333337</ele><time>2026-04-29T11:17:41Z</time></trkpt><trkpt lat="42.56995663749637" lon="12.12250635466419"><ele>413.6666666666667</ele><time>2026-04-29T11:17:42Z</time></trkpt><trkpt lat="42.56980130461312" lon="12.12266151503804"><ele>415.0</ele><time>2026-04-29T11:17:43Z</time></trkpt><trkpt lat="42.56962951463558" lon="12.12281854655124"><ele>414.6666666666667</ele><time>2026-04-29T11:17:44Z</time></trkpt><trkpt lat="42.56945763797069" lon="12.12297631409138"><ele>414.33333333333337</ele><time>2026-04-29T11:17:45Z</time></trkpt><trkpt lat="42.569292614220814" lon="12.12313274855826"><ele>414.0</ele><time>2026-04-29T11:17:46Z</time></trkpt><trkpt lat="42.56913175902392" lon="12.12326591254245"><ele>415.33333333333337</ele><time>2026-04-29T11:17:47Z</time></trkpt><trkpt lat="42.56896529637087" lon="12.123355664629425"><ele>416.6666666666667</ele><time>2026-04-29T11:17:48Z</time></trkpt><trkpt lat="42.56878788625702" lon="12.123422164147327"><ele>418.0</ele><time>2026-04-29T11:17:49Z</time></trkpt><trkpt lat="42.56860234578346" lon="12.123466526827224"><ele>420.0</ele><time>2026-04-29T11:17:50Z</time></trkpt><trkpt lat="42.5684037116608" lon="12.123491332725697"><ele>422.0</ele><time>2026-04-29T11:17:51Z</time></trkpt><trkpt lat="42.56819963032517" lon="12.123502519252929"><ele>424.0</ele><time>2026-04-29T11:17:52Z</time></trkpt><trkpt lat="42.56798876330381" lon="12.123507153500938"><ele>424.0</ele><time>2026-04-29T11:17:53Z</time></trkpt><trkpt lat="42.56777874048194" lon="12.12350981833391"><ele>424.0</ele><time>2026-04-29T11:17:54Z</time></trkpt><trkpt lat="42.56756866599362" lon="12.123514078272125"><ele>424.0</ele><time>2026-04-29T11:17:55Z</time></trkpt><trkpt lat="42.567364248001425" lon="12.12351880204071"><ele>424.0</ele><time>2026-04-29T11:17:56Z</time></trkpt><trkpt lat="42.56716239355174" lon="12.123529858292367"><ele>424.0</ele><time>2026-04-29T11:17:57Z</time></trkpt><trkpt lat="42.566955112484514" lon="12.12353975253499"><ele>424.0</ele><time>2026-04-29T11:17:58Z</time></trkpt><trkpt lat="42.566745452850206" lon="12.123552949677691"><ele>424.33333333333337</ele><time>2026-04-29T11:17:59Z</time></trkpt><trkpt lat="42.56653377921095" lon="12.12356982432558"><ele>424.66666666666663</ele><time>2026-04-29T11:18:00Z</time></trkpt><trkpt lat="42.56633853996025" lon="12.123584767083571"><ele>425.0</ele><time>2026-04-29T11:18:01Z</time></trkpt><trkpt lat="42.56615665434283" lon="12.123603221354623"><ele>425.0</ele><time>2026-04-29T11:18:02Z</time></trkpt><trkpt lat="42.56598560606041" lon="12.123635149004267"><ele>425.0</ele><time>2026-04-29T11:18:03Z</time></trkpt><trkpt lat="42.56582585123627" lon="12.123670061493298"><ele>425.0</ele><time>2026-04-29T11:18:04Z</time></trkpt><trkpt lat="42.56567750731913" lon="12.123712331302404"><ele>425.0</ele><time>2026-04-29T11:18:05Z</time></trkpt><trkpt lat="42.565536665639236" lon="12.123744398855067"><ele>425.0</ele><time>2026-04-29T11:18:06Z</time></trkpt><trkpt lat="42.56539886572712" lon="12.123775088423056"><ele>425.0</ele><time>2026-04-29T11:18:07Z</time></trkpt><trkpt lat="42.565256018497486" lon="12.123810946310181"><ele>425.0</ele><time>2026-04-29T11:18:08Z</time></trkpt><trkpt lat="42.56511239362574" lon="12.1238431259942"><ele>423.5</ele><time>2026-04-29T11:18:09Z</time></trkpt><trkpt lat="42.56497307210408" lon="12.123867805688077"><ele>422.0</ele><time>2026-04-29T11:18:10Z</time></trkpt><trkpt lat="42.56483305386476" lon="12.12387659635759"><ele>420.5</ele><time>2026-04-29T11:18:11Z</time></trkpt><trkpt lat="42.564687686160454" lon="12.123860132219916"><ele>419.0</ele><time>2026-04-29T11:18:12Z</time></trkpt><trkpt lat="42.56453434434503" lon="12.12381189410947"><ele>417.66666666666663</ele><time>2026-04-29T11:18:13Z</time></trkpt><trkpt lat="42.5643835919209" lon="12.123739697216553"><ele>416.33333333333337</ele><time>2026-04-29T11:18:14Z</time></trkpt><trkpt lat="42.56423221590288" lon="12.123634258373986"><ele>415.0</ele><time>2026-04-29T11:18:15Z</time></trkpt><trkpt lat="42.5640724738729" lon="12.123497358144354"><ele>415.0</ele><time>2026-04-29T11:18:16Z</time></trkpt><trkpt lat="42.563923597646124" lon="12.123340534347864"><ele>415.0</ele><time>2026-04-29T11:18:17Z</time></trkpt><trkpt lat="42.563765507775585" lon="12.12315818245781"><ele>415.0</ele><time>2026-04-29T11:18:18Z</time></trkpt><trkpt lat="42.56359618001287" lon="12.122972611870892"><ele>414.0</ele><time>2026-04-29T11:18:19Z</time></trkpt><trkpt lat="42.56343762212028" lon="12.122807724289146"><ele>413.0</ele><time>2026-04-29T11:18:20Z</time></trkpt><trkpt lat="42.56328991847956" lon="12.122651071996518"><ele>412.0</ele><time>2026-04-29T11:18:21Z</time></trkpt><trkpt lat="42.563146957297135" lon="12.122508599716276"><ele>411.6666666666667</ele><time>2026-04-29T11:18:22Z</time></trkpt><trkpt lat="42.56299329462319" lon="12.122386461671042"><ele>411.33333333333337</ele><time>2026-04-29T11:18:23Z</time></trkpt><trkpt lat="42.56282364672489" lon="12.122283424344365"><ele>411.0</ele><time>2026-04-29T11:18:24Z</time></trkpt><trkpt lat="42.56264298696003" lon="12.122189950212608"><ele>411.0</ele><time>2026-04-29T11:18:25Z</time></trkpt><trkpt lat="42.562445629360575" lon="12.122111498085358"><ele>411.0</ele><time>2026-04-29T11:18:26Z</time></trkpt><trkpt lat="42.56223878679369" lon="12.12204461362598"><ele>411.0</ele><time>2026-04-29T11:18:27Z</time></trkpt><trkpt lat="42.5620422367781" lon="12.1219866785234"><ele>409.66666666666663</ele><time>2026-04-29T11:18:28Z</time></trkpt><trkpt lat="42.56185382692613" lon="12.121930062478803"><ele>408.3333333333333</ele><time>2026-04-29T11:18:29Z</time></trkpt><trkpt lat="42.56167298914385" lon="12.121873660047436"><ele>407.0</ele><time>2026-04-29T11:18:30Z</time></trkpt><trkpt lat="42.56149973715356" lon="12.12181867151919"><ele>407.0</ele><time>2026-04-29T11:18:31Z</time></trkpt><trkpt lat="42.56133402483719" lon="12.121758980345893"><ele>407.0</ele><time>2026-04-29T11:18:32Z</time></trkpt><trkpt lat="42.56117495753298" lon="12.121696833955493"><ele>407.0</ele><time>2026-04-29T11:18:33Z</time></trkpt><trkpt lat="42.56102042625366" lon="12.121639841937048"><ele>405.66666666666663</ele><time>2026-04-29T11:18:34Z</time></trkpt><trkpt lat="42.560870902763135" lon="12.12158727546932"><ele>404.33333333333337</ele><time>2026-04-29T11:18:35Z</time></trkpt><trkpt lat="42.560727708202826" lon="12.12152817367457"><ele>403.0</ele><time>2026-04-29T11:18:36Z</time></trkpt><trkpt lat="42.560591170259016" lon="12.121460045027291"><ele>403.0</ele><time>2026-04-29T11:18:37Z</time></trkpt><trkpt lat="42.560460422503944" lon="12.121389250379487"><ele>403.0</ele><time>2026-04-29T11:18:38Z</time></trkpt><trkpt lat="42.560333389251596" lon="12.12131841484744"><ele>403.0</ele><time>2026-04-29T11:18:39Z</time></trkpt><trkpt lat="42.56020343192017" lon="12.12124859821463"><ele>403.0</ele><time>2026-04-29T11:18:40Z</time></trkpt><trkpt lat="42.560073945199406" lon="12.121183054451725"><ele>401.25</ele><time>2026-04-29T11:18:41Z</time></trkpt><trkpt lat="42.559944421019246" lon="12.121117673476302"><ele>399.5</ele><time>2026-04-29T11:18:42Z</time></trkpt><trkpt lat="42.55981690305867" lon="12.12104577566161"><ele>397.75</ele><time>2026-04-29T11:18:43Z</time></trkpt><trkpt lat="42.55968745138109" lon="12.120975100240315"><ele>396.0</ele><time>2026-04-29T11:18:44Z</time></trkpt><trkpt lat="42.5595570079516" lon="12.120914226537105"><ele>395.25</ele><time>2026-04-29T11:18:45Z</time></trkpt><trkpt lat="42.55942014861982" lon="12.12086412153282"><ele>394.5</ele><time>2026-04-29T11:18:46Z</time></trkpt><trkpt lat="42.559275509142026" lon="12.12082938542345"><ele>393.75</ele><time>2026-04-29T11:18:47Z</time></trkpt><trkpt lat="42.559130991685436" lon="12.120810639237446"><ele>393.0</ele><time>2026-04-29T11:18:48Z</time></trkpt><trkpt lat="42.55898402835174" lon="12.120795123949405"><ele>393.0</ele><time>2026-04-29T11:18:49Z</time></trkpt><trkpt lat="42.55883822115777" lon="12.120780711260103"><ele>393.0</ele><time>2026-04-29T11:18:50Z</time></trkpt><trkpt lat="42.558693923278824" lon="12.120767621912982"><ele>393.0</ele><time>2026-04-29T11:18:51Z</time></trkpt><trkpt lat="42.55854802274906" lon="12.12075578436152"><ele>393.0</ele><time>2026-04-29T11:18:52Z</time></trkpt><trkpt lat="42.55840107743641" lon="12.120742066098224"><ele>392.0</ele><time>2026-04-29T11:18:53Z</time></trkpt><trkpt lat="42.55824645016589" lon="12.120728361631206"><ele>391.0</ele><time>2026-04-29T11:18:54Z</time></trkpt><trkpt lat="42.55808381026201" lon="12.120717678472904"><ele>390.0</ele><time>2026-04-29T11:18:55Z</time></trkpt><trkpt lat="42.55791175560946" lon="12.120706711763793"><ele>387.0</ele><time>2026-04-29T11:18:56Z</time></trkpt><trkpt lat="42.557732662591384" lon="12.12069572171954"><ele>384.0</ele><time>2026-04-29T11:18:57Z</time></trkpt><trkpt lat="42.557556461373586" lon="12.120694488845995"><ele>381.0</ele><time>2026-04-29T11:18:58Z</time></trkpt><trkpt lat="42.55737865808047" lon="12.12070674637931"><ele>381.0</ele><time>2026-04-29T11:18:59Z</time></trkpt><trkpt lat="42.55720959704674" lon="12.120727093321248"><ele>381.0</ele><time>2026-04-29T11:19:00Z</time></trkpt><trkpt lat="42.55703962679979" lon="12.12075727982095"><ele>381.0</ele><time>2026-04-29T11:19:01Z</time></trkpt><trkpt lat="42.55686734698366" lon="12.120798742841757"><ele>380.0</ele><time>2026-04-29T11:19:02Z</time></trkpt><trkpt lat="42.55669412183819" lon="12.120843543182438"><ele>379.0</ele><time>2026-04-29T11:19:03Z</time></trkpt><trkpt lat="42.55652078506585" lon="12.120889061095335"><ele>378.0</ele><time>2026-04-29T11:19:04Z</time></trkpt><trkpt lat="42.55634793019174" lon="12.120937274488515"><ele>377.3333333333333</ele><time>2026-04-29T11:19:05Z</time></trkpt><trkpt lat="42.556175596177404" lon="12.12098461669258"><ele>376.66666666666663</ele><time>2026-04-29T11:19:06Z</time></trkpt><trkpt lat="42.55600792026835" lon="12.121033161316728"><ele>376.0</ele><time>2026-04-29T11:19:07Z</time></trkpt><trkpt lat="42.555837085298236" lon="12.121080024971105"><ele>376.0</ele><time>2026-04-29T11:19:08Z</time></trkpt><trkpt lat="42.55565306636595" lon="12.121124987065894"><ele>376.0</ele><time>2026-04-29T11:19:09Z</time></trkpt><trkpt lat="42.55546779312515" lon="12.121167616425335"><ele>376.0</ele><time>2026-04-29T11:19:10Z</time></trkpt><trkpt lat="42.5552757478657" lon="12.121208827461778"><ele>374.3333333333333</ele><time>2026-04-29T11:19:11Z</time></trkpt><trkpt lat="42.555079798285824" lon="12.121247394926522"><ele>372.6666666666667</ele><time>2026-04-29T11:19:12Z</time></trkpt><trkpt lat="42.554879991105956" lon="12.121281307822906"><ele>371.0</ele><time>2026-04-29T11:19:13Z</time></trkpt><trkpt lat="42.55467753531987" lon="12.12130730373127"><ele>369.6666666666667</ele><time>2026-04-29T11:19:14Z</time></trkpt><trkpt lat="42.55446864846318" lon="12.121329309936952"><ele>368.3333333333333</ele><time>2026-04-29T11:19:15Z</time></trkpt><trkpt lat="42.55425493079321" lon="12.121350556369393"><ele>367.0</ele><time>2026-04-29T11:19:16Z</time></trkpt><trkpt lat="42.554037697348555" lon="12.121367170645266"><ele>367.0</ele><time>2026-04-29T11:19:17Z</time></trkpt><trkpt lat="42.55381807524169" lon="12.121380687262773"><ele>367.0</ele><time>2026-04-29T11:19:18Z</time></trkpt><trkpt lat="42.55360726036759" lon="12.121392857487363"><ele>367.0</ele><time>2026-04-29T11:19:19Z</time></trkpt><trkpt lat="42.55341043630295" lon="12.121402469492734"><ele>366.3333333333333</ele><time>2026-04-29T11:19:20Z</time></trkpt><trkpt lat="42.553226638384984" lon="12.121415384186944"><ele>365.6666666666667</ele><time>2026-04-29T11:19:21Z</time></trkpt><trkpt lat="42.55304856390614" lon="12.121430243407106"><ele>365.0</ele><time>2026-04-29T11:19:22Z</time></trkpt><trkpt lat="42.55286641320448" lon="12.12144714257893"><ele>364.6666666666667</ele><time>2026-04-29T11:19:23Z</time></trkpt><trkpt lat="42.552681279045856" lon="12.121459007027537"><ele>364.3333333333333</ele><time>2026-04-29T11:19:24Z</time></trkpt><trkpt lat="42.55249291967716" lon="12.12146614914602"><ele>364.0</ele><time>2026-04-29T11:19:25Z</time></trkpt><trkpt lat="42.55230091655694" lon="12.121475634880492"><ele>364.0</ele><time>2026-04-29T11:19:26Z</time></trkpt><trkpt lat="42.55210594871125" lon="12.12148514753978"><ele>364.0</ele><time>2026-04-29T11:19:27Z</time></trkpt><trkpt lat="42.551908053356996" lon="12.121492614152"><ele>364.0</ele><time>2026-04-29T11:19:28Z</time></trkpt><trkpt lat="42.55170739819683" lon="12.121498172295182"><ele>363.66666666666663</ele><time>2026-04-29T11:19:29Z</time></trkpt><trkpt lat="42.551503397913635" lon="12.121496672399989"><ele>363.3333333333333</ele><time>2026-04-29T11:19:30Z</time></trkpt><trkpt lat="42.55129822837242" lon="12.12148531959649"><ele>363.0</ele><time>2026-04-29T11:19:31Z</time></trkpt><trkpt lat="42.551091453605494" lon="12.121465739511613"><ele>363.6666666666667</ele><time>2026-04-29T11:19:32Z</time></trkpt><trkpt lat="42.55088257116174" lon="12.121445807959782"><ele>364.33333333333337</ele><time>2026-04-29T11:19:33Z</time></trkpt><trkpt lat="42.5506703100779" lon="12.121431232157668"><ele>365.0</ele><time>2026-04-29T11:19:34Z</time></trkpt><trkpt lat="42.55045554408176" lon="12.12141966495437"><ele>365.33333333333337</ele><time>2026-04-29T11:19:35Z</time></trkpt><trkpt lat="42.55023915297988" lon="12.12140030042765"><ele>365.6666666666667</ele><time>2026-04-29T11:19:36Z</time></trkpt><trkpt lat="42.55002174490976" lon="12.12136851778633"><ele>366.0</ele><time>2026-04-29T11:19:37Z</time></trkpt><trkpt lat="42.54980462820077" lon="12.121324014039267"><ele>366.0</ele><time>2026-04-29T11:19:38Z</time></trkpt><trkpt lat="42.549587208719586" lon="12.121267833570823"><ele>366.0</ele><time>2026-04-29T11:19:39Z</time></trkpt><trkpt lat="42.54936993106284" lon="12.121202960602146"><ele>366.0</ele><time>2026-04-29T11:19:40Z</time></trkpt><trkpt lat="42.54915396885404" lon="12.121130972416431"><ele>364.6666666666667</ele><time>2026-04-29T11:19:41Z</time></trkpt><trkpt lat="42.548940349761374" lon="12.121046986850729"><ele>363.33333333333337</ele><time>2026-04-29T11:19:42Z</time></trkpt><trkpt lat="42.548728043668504" lon="12.120954727657725"><ele>362.0</ele><time>2026-04-29T11:19:43Z</time></trkpt><trkpt lat="42.54851401982097" lon="12.120861568089374"><ele>362.0</ele><time>2026-04-29T11:19:44Z</time></trkpt><trkpt lat="42.548299646541686" lon="12.120768527799994"><ele>362.0</ele><time>2026-04-29T11:19:45Z</time></trkpt><trkpt lat="42.548086881251585" lon="12.120676843967795"><ele>362.0</ele><time>2026-04-29T11:19:46Z</time></trkpt><trkpt lat="42.547874524346575" lon="12.120588856260765"><ele>361.6666666666667</ele><time>2026-04-29T11:19:47Z</time></trkpt><trkpt lat="42.54766115504358" lon="12.120506051527073"><ele>361.3333333333333</ele><time>2026-04-29T11:19:48Z</time></trkpt><trkpt lat="42.547445465672276" lon="12.120435284772588"><ele>361.0</ele><time>2026-04-29T11:19:49Z</time></trkpt><trkpt lat="42.54722661901898" lon="12.12037479044691"><ele>361.0</ele><time>2026-04-29T11:19:50Z</time></trkpt><trkpt lat="42.54700861575071" lon="12.120316486431474"><ele>361.0</ele><time>2026-04-29T11:19:51Z</time></trkpt><trkpt lat="42.546789282380345" lon="12.120267806669899"><ele>361.0</ele><time>2026-04-29T11:19:52Z</time></trkpt><trkpt lat="42.54656927337426" lon="12.120238161496895"><ele>361.0</ele><time>2026-04-29T11:19:53Z</time></trkpt><trkpt lat="42.546353442144564" lon="12.120244071054447"><ele>361.0</ele><time>2026-04-29T11:19:54Z</time></trkpt><trkpt lat="42.546125849903184" lon="12.120284214622309"><ele>361.0</ele><time>2026-04-29T11:19:55Z</time></trkpt><trkpt lat="42.54588919399041" lon="12.120345405135152"><ele>362.5</ele><time>2026-04-29T11:19:56Z</time></trkpt><trkpt lat="42.54564838942246" lon="12.12040624738472"><ele>364.0</ele><time>2026-04-29T11:19:57Z</time></trkpt><trkpt lat="42.54541167324312" lon="12.12046043883903"><ele>364.5</ele><time>2026-04-29T11:19:58Z</time></trkpt><trkpt lat="42.54517775311842" lon="12.120511314921186"><ele>365.0</ele><time>2026-04-29T11:19:59Z</time></trkpt><trkpt lat="42.5449461847296" lon="12.120544691515802"><ele>365.0</ele><time>2026-04-29T11:20:00Z</time></trkpt><trkpt lat="42.54470552782766" lon="12.120562547337618"><ele>365.0</ele><time>2026-04-29T11:20:01Z</time></trkpt><trkpt lat="42.54446316115865" lon="12.12056806895583"><ele>367.0</ele><time>2026-04-29T11:20:02Z</time></trkpt><trkpt lat="42.54422765684569" lon="12.120564279595087"><ele>369.0</ele><time>2026-04-29T11:20:03Z</time></trkpt><trkpt lat="42.54400717468139" lon="12.120559405316946"><ele>369.0</ele><time>2026-04-29T11:20:04Z</time></trkpt><trkpt lat="42.543802048923176" lon="12.120551896733799"><ele>369.0</ele><time>2026-04-29T11:20:05Z</time></trkpt><trkpt lat="42.54361168701695" lon="12.120542039224047"><ele>369.0</ele><time>2026-04-29T11:20:06Z</time></trkpt><trkpt lat="42.54341496502445" lon="12.1205232011717"><ele>367.3333333333333</ele><time>2026-04-29T11:20:07Z</time></trkpt><trkpt lat="42.543206731362275" lon="12.120502653650247"><ele>365.66666666666663</ele><time>2026-04-29T11:20:08Z</time></trkpt><trkpt lat="42.54298894405948" lon="12.12047899021578"><ele>364.0</ele><time>2026-04-29T11:20:09Z</time></trkpt><trkpt lat="42.54276141149557" lon="12.120448351689797"><ele>361.5</ele><time>2026-04-29T11:20:10Z</time></trkpt><trkpt lat="42.542527185760896" lon="12.120408083879534"><ele>359.0</ele><time>2026-04-29T11:20:11Z</time></trkpt><trkpt lat="42.54230544448096" lon="12.120362639767789"><ele>359.0</ele><time>2026-04-29T11:20:12Z</time></trkpt><trkpt lat="42.54210323006293" lon="12.120306323753656"><ele>359.0</ele><time>2026-04-29T11:20:13Z</time></trkpt><trkpt lat="42.541915329539194" lon="12.120227251687815"><ele>359.0</ele><time>2026-04-29T11:20:14Z</time></trkpt><trkpt lat="42.541734842539" lon="12.120122869434152"><ele>357.33333333333337</ele><time>2026-04-29T11:20:15Z</time></trkpt><trkpt lat="42.5415563994636" lon="12.119989742259976"><ele>355.6666666666667</ele><time>2026-04-29T11:20:16Z</time></trkpt><trkpt lat="42.5413821928659" lon="12.119832009825956"><ele>354.0</ele><time>2026-04-29T11:20:17Z</time></trkpt><trkpt lat="42.541214793703965" lon="12.119654931969551"><ele>351.6666666666667</ele><time>2026-04-29T11:20:18Z</time></trkpt><trkpt lat="42.541071036807686" lon="12.11948703365943"><ele>349.33333333333337</ele><time>2026-04-29T11:20:19Z</time></trkpt><trkpt lat="42.540940457333626" lon="12.11933945216493"><ele>347.0</ele><time>2026-04-29T11:20:20Z</time></trkpt><trkpt lat="42.54079991074981" lon="12.119224907319557"><ele>347.0</ele><time>2026-04-29T11:20:21Z</time></trkpt><trkpt lat="42.54063638134455" lon="12.119160003885144"><ele>347.0</ele><time>2026-04-29T11:20:22Z</time></trkpt><trkpt lat="42.54044568382804" lon="12.119133037502314"><ele>347.0</ele><time>2026-04-29T11:20:23Z</time></trkpt><trkpt lat="42.5402315593961" lon="12.119121273772743"><ele>346.0</ele><time>2026-04-29T11:20:24Z</time></trkpt><trkpt lat="42.54000278784661" lon="12.119107263817877"><ele>345.0</ele><time>2026-04-29T11:20:25Z</time></trkpt><trkpt lat="42.539771068468006" lon="12.119085470147006"><ele>341.5</ele><time>2026-04-29T11:20:26Z</time></trkpt><trkpt lat="42.539528401079735" lon="12.119060294217892"><ele>338.0</ele><time>2026-04-29T11:20:27Z</time></trkpt><trkpt lat="42.53927669707483" lon="12.119040837320915"><ele>338.0</ele><time>2026-04-29T11:20:28Z</time></trkpt><trkpt lat="42.53902236543582" lon="12.119024027836092"><ele>338.0</ele><time>2026-04-29T11:20:29Z</time></trkpt><trkpt lat="42.53876623198656" lon="12.119005542360842"><ele>336.0</ele><time>2026-04-29T11:20:30Z</time></trkpt><trkpt lat="42.538523929108464" lon="12.118988158757535"><ele>334.0</ele><time>2026-04-29T11:20:31Z</time></trkpt><trkpt lat="42.53828782486959" lon="12.118973781905751"><ele>334.0</ele><time>2026-04-29T11:20:32Z</time></trkpt><trkpt lat="42.538049223295154" lon="12.118962334277677"><ele>334.0</ele><time>2026-04-29T11:20:33Z</time></trkpt><trkpt lat="42.53780911424253" lon="12.118950460446207"><ele>333.0</ele><time>2026-04-29T11:20:34Z</time></trkpt><trkpt lat="42.53757109317869" lon="12.118931346372953"><ele>332.0</ele><time>2026-04-29T11:20:35Z</time></trkpt><trkpt lat="42.53733343015745" lon="12.118903770548336"><ele>332.0</ele><time>2026-04-29T11:20:36Z</time></trkpt><trkpt lat="42.53710179672533" lon="12.118877190765867"><ele>332.0</ele><time>2026-04-29T11:20:37Z</time></trkpt><trkpt lat="42.53687877298666" lon="12.118846185886607"><ele>331.33333333333337</ele><time>2026-04-29T11:20:38Z</time></trkpt><trkpt lat="42.536667789902204" lon="12.118815363642463"><ele>330.6666666666667</ele><time>2026-04-29T11:20:39Z</time></trkpt><trkpt lat="42.53645003741449" lon="12.118756792086456"><ele>330.0</ele><time>2026-04-29T11:20:40Z</time></trkpt><trkpt lat="42.53623753459759" lon="12.118676836187879"><ele>330.5</ele><time>2026-04-29T11:20:41Z</time></trkpt><trkpt lat="42.53602169691193" lon="12.11857438670775"><ele>331.0</ele><time>2026-04-29T11:20:42Z</time></trkpt><trkpt lat="42.5358014980367" lon="12.118479121952628"><ele>331.0</ele><time>2026-04-29T11:20:43Z</time></trkpt><trkpt lat="42.535584771093895" lon="12.118388859201128"><ele>331.0</ele><time>2026-04-29T11:20:44Z</time></trkpt><trkpt lat="42.53536660974657" lon="12.118296834557603"><ele>335.0</ele><time>2026-04-29T11:20:45Z</time></trkpt><trkpt lat="42.5351484459809" lon="12.118204871468407"><ele>339.0</ele><time>2026-04-29T11:20:46Z</time></trkpt><trkpt lat="42.53493395185276" lon="12.118113664029721"><ele>339.0</ele><time>2026-04-29T11:20:47Z</time></trkpt><trkpt lat="42.53473074416733" lon="12.118027042727748"><ele>339.0</ele><time>2026-04-29T11:20:48Z</time></trkpt><trkpt lat="42.534541037436675" lon="12.11794528390653"><ele>339.0</ele><time>2026-04-29T11:20:49Z</time></trkpt><trkpt lat="42.53436257892514" lon="12.117866137174161"><ele>338.6666666666667</ele><time>2026-04-29T11:20:50Z</time></trkpt><trkpt lat="42.53419318277146" lon="12.117789351808268"><ele>338.33333333333337</ele><time>2026-04-29T11:20:51Z</time></trkpt><trkpt lat="42.534031134346904" lon="12.117720955977818"><ele>338.0</ele><time>2026-04-29T11:20:52Z</time></trkpt><trkpt lat="42.53386895825317" lon="12.117656787233873"><ele>336.6666666666667</ele><time>2026-04-29T11:20:53Z</time></trkpt><trkpt lat="42.53370522989494" lon="12.11758803684114"><ele>335.3333333333333</ele><time>2026-04-29T11:20:54Z</time></trkpt><trkpt lat="42.533538269579644" lon="12.117515547917652"><ele>334.0</ele><time>2026-04-29T11:20:55Z</time></trkpt><trkpt lat="42.533365652277745" lon="12.11743778410317"><ele>334.66666666666663</ele><time>2026-04-29T11:20:56Z</time></trkpt><trkpt lat="42.53320222054535" lon="12.117368269864013"><ele>335.3333333333333</ele><time>2026-04-29T11:20:57Z</time></trkpt><trkpt lat="42.533054069589184" lon="12.117309567609384"><ele>336.0</ele><time>2026-04-29T11:20:58Z</time></trkpt><trkpt lat="42.532908444675094" lon="12.117258963393656"><ele>334.6666666666667</ele><time>2026-04-29T11:20:59Z</time></trkpt><trkpt lat="42.532760993988674" lon="12.117225124856104"><ele>333.33333333333337</ele><time>2026-04-29T11:21:00Z</time></trkpt><trkpt lat="42.532607879423445" lon="12.117218214541065"><ele>332.0</ele><time>2026-04-29T11:21:01Z</time></trkpt><trkpt lat="42.53246193269886" lon="12.117244345542364"><ele>332.0</ele><time>2026-04-29T11:21:02Z</time></trkpt><trkpt lat="42.53231380240257" lon="12.117308296255953"><ele>332.0</ele><time>2026-04-29T11:21:03Z</time></trkpt><trkpt lat="42.53216565676883" lon="12.117396226932046"><ele>332.0</ele><time>2026-04-29T11:21:04Z</time></trkpt><trkpt lat="42.53201550086314" lon="12.117500880735893"><ele>331.33333333333337</ele><time>2026-04-29T11:21:05Z</time></trkpt><trkpt lat="42.531856292780404" lon="12.117616861822201"><ele>330.6666666666667</ele><time>2026-04-29T11:21:06Z</time></trkpt><trkpt lat="42.53168400008777" lon="12.117734390981123"><ele>330.0</ele><time>2026-04-29T11:21:07Z</time></trkpt><trkpt lat="42.53149820976017" lon="12.11785533654426"><ele>330.0</ele><time>2026-04-29T11:21:08Z</time></trkpt><trkpt lat="42.53131452603512" lon="12.117968723476322"><ele>330.0</ele><time>2026-04-29T11:21:09Z</time></trkpt><trkpt lat="42.53113168434365" lon="12.118079608977363"><ele>330.0</ele><time>2026-04-29T11:21:10Z</time></trkpt><trkpt lat="42.53094159154151" lon="12.118188735817908"><ele>330.0</ele><time>2026-04-29T11:21:11Z</time></trkpt><trkpt lat="42.53074837936432" lon="12.118292074520486"><ele>330.0</ele><time>2026-04-29T11:21:12Z</time></trkpt><trkpt lat="42.53055314806912" lon="12.118398658500944"><ele>330.0</ele><time>2026-04-29T11:21:13Z</time></trkpt><trkpt lat="42.530354061148806" lon="12.118506102550235"><ele>331.0</ele><time>2026-04-29T11:21:14Z</time></trkpt><trkpt lat="42.530151379241026" lon="12.11861094534704"><ele>332.0</ele><time>2026-04-29T11:21:15Z</time></trkpt><trkpt lat="42.529948486310836" lon="12.118721167646147"><ele>333.0</ele><time>2026-04-29T11:21:16Z</time></trkpt><trkpt lat="42.529743000731116" lon="12.118831943781608"><ele>333.0</ele><time>2026-04-29T11:21:17Z</time></trkpt><trkpt lat="42.529546938272766" lon="12.118938617088885"><ele>333.0</ele><time>2026-04-29T11:21:18Z</time></trkpt><trkpt lat="42.52934985848639" lon="12.119045891945085"><ele>333.0</ele><time>2026-04-29T11:21:19Z</time></trkpt><trkpt lat="42.52915969740402" lon="12.119153257038011"><ele>331.3333333333333</ele><time>2026-04-29T11:21:20Z</time></trkpt><trkpt lat="42.5289833787461" lon="12.119255210967351"><ele>329.66666666666663</ele><time>2026-04-29T11:21:21Z</time></trkpt><trkpt lat="42.52881468285176" lon="12.119351116357171"><ele>328.0</ele><time>2026-04-29T11:21:22Z</time></trkpt><trkpt lat="42.528649194626745" lon="12.119441278826857"><ele>327.3333333333333</ele><time>2026-04-29T11:21:23Z</time></trkpt><trkpt lat="42.52849197761827" lon="12.119529124756403"><ele>326.6666666666667</ele><time>2026-04-29T11:21:24Z</time></trkpt><trkpt lat="42.528341014846994" lon="12.119614593958513"><ele>326.0</ele><time>2026-04-29T11:21:25Z</time></trkpt><trkpt lat="42.52819415354599" lon="12.119697803178138"><ele>326.0</ele><time>2026-04-29T11:21:26Z</time></trkpt><trkpt lat="42.52805372358962" lon="12.119780766547997"><ele>326.0</ele><time>2026-04-29T11:21:27Z</time></trkpt><trkpt lat="42.527917988229994" lon="12.119859209987393"><ele>326.0</ele><time>2026-04-29T11:21:28Z</time></trkpt><trkpt lat="42.52778667453751" lon="12.119934842214736"><ele>326.0</ele><time>2026-04-29T11:21:29Z</time></trkpt><trkpt lat="42.52765522041354" lon="12.120009756563304"><ele>324.25</ele><time>2026-04-29T11:21:30Z</time></trkpt><trkpt lat="42.5275221296634" lon="12.120085300755534"><ele>322.5</ele><time>2026-04-29T11:21:31Z</time></trkpt><trkpt lat="42.527391776347876" lon="12.120159845829392"><ele>320.75</ele><time>2026-04-29T11:21:32Z</time></trkpt><trkpt lat="42.527259496219294" lon="12.12023709790766"><ele>319.0</ele><time>2026-04-29T11:21:33Z</time></trkpt><trkpt lat="42.52712431272964" lon="12.12031290337752"><ele>320.66666666666663</ele><time>2026-04-29T11:21:34Z</time></trkpt><trkpt lat="42.52698229587518" lon="12.12039004921147"><ele>322.3333333333333</ele><time>2026-04-29T11:21:35Z</time></trkpt><trkpt lat="42.526839365524964" lon="12.120468595297817"><ele>324.0</ele><time>2026-04-29T11:21:36Z</time></trkpt><trkpt lat="42.52669665022838" lon="12.120549012600394"><ele>324.0</ele><time>2026-04-29T11:21:37Z</time></trkpt><trkpt lat="42.52655586420112" lon="12.12063129213802"><ele>324.0</ele><time>2026-04-29T11:21:38Z</time></trkpt><trkpt lat="42.52641452831539" lon="12.120709286756625"><ele>324.0</ele><time>2026-04-29T11:21:39Z</time></trkpt><trkpt lat="42.5262764246616" lon="12.120783468531446"><ele>326.5</ele><time>2026-04-29T11:21:40Z</time></trkpt><trkpt lat="42.52614189114112" lon="12.120860901956467"><ele>329.0</ele><time>2026-04-29T11:21:41Z</time></trkpt><trkpt lat="42.526007512182794" lon="12.120938267796312"><ele>331.5</ele><time>2026-04-29T11:21:42Z</time></trkpt><trkpt lat="42.52587632667732" lon="12.121015574767473"><ele>334.0</ele><time>2026-04-29T11:21:43Z</time></trkpt><trkpt lat="42.52574760940947" lon="12.121089466830309"><ele>334.0</ele><time>2026-04-29T11:21:44Z</time></trkpt><trkpt lat="42.525614115210765" lon="12.121163515516038"><ele>334.0</ele><time>2026-04-29T11:21:45Z</time></trkpt><trkpt lat="42.52547944382151" lon="12.121242354902739"><ele>334.0</ele><time>2026-04-29T11:21:46Z</time></trkpt><trkpt lat="42.52533848731801" lon="12.121328269413688"><ele>334.0</ele><time>2026-04-29T11:21:47Z</time></trkpt><trkpt lat="42.5251935849353" lon="12.121414625478716"><ele>334.3333333333333</ele><time>2026-04-29T11:21:48Z</time></trkpt><trkpt lat="42.52504439450833" lon="12.121500117085262"><ele>334.6666666666667</ele><time>2026-04-29T11:21:49Z</time></trkpt><trkpt lat="42.524886591994864" lon="12.121586461620778"><ele>335.0</ele><time>2026-04-29T11:21:50Z</time></trkpt><trkpt lat="42.5247232347504" lon="12.121675958664515"><ele>335.33333333333337</ele><time>2026-04-29T11:21:51Z</time></trkpt><trkpt lat="42.524555164956546" lon="12.1217665536764"><ele>335.6666666666667</ele><time>2026-04-29T11:21:52Z</time></trkpt><trkpt lat="42.52437949028095" lon="12.12186269519041"><ele>336.0</ele><time>2026-04-29T11:21:53Z</time></trkpt><trkpt lat="42.52419966616239" lon="12.12196462803855"><ele>336.0</ele><time>2026-04-29T11:21:54Z</time></trkpt><trkpt lat="42.52401435755933" lon="12.122071639570063"><ele>336.0</ele><time>2026-04-29T11:21:55Z</time></trkpt><trkpt lat="42.52382546389192" lon="12.122179766525187"><ele>336.0</ele><time>2026-04-29T11:21:56Z</time></trkpt><trkpt lat="42.52363116106331" lon="12.122285209629643"><ele>335.3333333333333</ele><time>2026-04-29T11:21:57Z</time></trkpt><trkpt lat="42.523433023700846" lon="12.122385593082555"><ele>334.66666666666663</ele><time>2026-04-29T11:21:58Z</time></trkpt><trkpt lat="42.523236036516714" lon="12.122482072632726"><ele>334.0</ele><time>2026-04-29T11:21:59Z</time></trkpt><trkpt lat="42.52303938858018" lon="12.12256430271749"><ele>333.3333333333333</ele><time>2026-04-29T11:22:00Z</time></trkpt><trkpt lat="42.52284579379119" lon="12.122627328372857"><ele>332.6666666666667</ele><time>2026-04-29T11:22:01Z</time></trkpt><trkpt lat="42.5226498895473" lon="12.122682122480136"><ele>332.0</ele><time>2026-04-29T11:22:02Z</time></trkpt><trkpt lat="42.52245213326203" lon="12.122719796446974"><ele>332.0</ele><time>2026-04-29T11:22:03Z</time></trkpt><trkpt lat="42.52225387975116" lon="12.122746789732032"><ele>332.0</ele><time>2026-04-29T11:22:04Z</time></trkpt><trkpt lat="42.52205425274301" lon="12.122754438305629"><ele>332.0</ele><time>2026-04-29T11:22:05Z</time></trkpt><trkpt lat="42.521853165198195" lon="12.122747575677133"><ele>331.33333333333337</ele><time>2026-04-29T11:22:06Z</time></trkpt><trkpt lat="42.52164768085566" lon="12.122728511335525"><ele>330.6666666666667</ele><time>2026-04-29T11:22:07Z</time></trkpt><trkpt lat="42.52143199872678" lon="12.122700960731981"><ele>330.0</ele><time>2026-04-29T11:22:08Z</time></trkpt><trkpt lat="42.52120857869822" lon="12.12267029586729"><ele>326.0</ele><time>2026-04-29T11:22:09Z</time></trkpt><trkpt lat="42.520979290238344" lon="12.122638246856798"><ele>322.0</ele><time>2026-04-29T11:22:10Z</time></trkpt><trkpt lat="42.52075068061749" lon="12.122606981512726"><ele>322.0</ele><time>2026-04-29T11:22:11Z</time></trkpt><trkpt lat="42.52051912994153" lon="12.122574945848712"><ele>322.0</ele><time>2026-04-29T11:22:12Z</time></trkpt><trkpt lat="42.520289128269226" lon="12.122545847139916"><ele>320.5</ele><time>2026-04-29T11:22:13Z</time></trkpt><trkpt lat="42.5200529442971" lon="12.12251699197095"><ele>319.0</ele><time>2026-04-29T11:22:14Z</time></trkpt><trkpt lat="42.519816550720996" lon="12.122490104592154"><ele>319.0</ele><time>2026-04-29T11:22:15Z</time></trkpt><trkpt lat="42.519579282047566" lon="12.12246091785622"><ele>319.0</ele><time>2026-04-29T11:22:16Z</time></trkpt><trkpt lat="42.51933736884998" lon="12.122429179812093"><ele>318.5</ele><time>2026-04-29T11:22:17Z</time></trkpt><trkpt lat="42.51909735357927" lon="12.122395618917635"><ele>318.0</ele><time>2026-04-29T11:22:18Z</time></trkpt><trkpt lat="42.51887841255916" lon="12.122359550782319"><ele>319.3333333333333</ele><time>2026-04-29T11:22:19Z</time></trkpt><trkpt lat="42.518668227021976" lon="12.122327627271304"><ele>320.66666666666663</ele><time>2026-04-29T11:22:20Z</time></trkpt><trkpt lat="42.518453023290554" lon="12.12230262131527"><ele>322.0</ele><time>2026-04-29T11:22:21Z</time></trkpt><trkpt lat="42.518232737144885" lon="12.122276306449422"><ele>322.0</ele><time>2026-04-29T11:22:22Z</time></trkpt><trkpt lat="42.518011932453184" lon="12.122249962589962"><ele>322.0</ele><time>2026-04-29T11:22:23Z</time></trkpt><trkpt lat="42.517792885353956" lon="12.12221919839253"><ele>322.0</ele><time>2026-04-29T11:22:24Z</time></trkpt><trkpt lat="42.517575088155006" lon="12.122189676593175"><ele>324.0</ele><time>2026-04-29T11:22:25Z</time></trkpt><trkpt lat="42.51735710151367" lon="12.122162145587078"><ele>326.0</ele><time>2026-04-29T11:22:26Z</time></trkpt><trkpt lat="42.51713979228434" lon="12.122133681980726"><ele>328.0</ele><time>2026-04-29T11:22:27Z</time></trkpt><trkpt lat="42.51692259736309" lon="12.122103288529042"><ele>331.3333333333333</ele><time>2026-04-29T11:22:28Z</time></trkpt><trkpt lat="42.516706780442874" lon="12.122073509886693"><ele>334.6666666666667</ele><time>2026-04-29T11:22:29Z</time></trkpt><trkpt lat="42.51648895995985" lon="12.122043738382509"><ele>338.0</ele><time>2026-04-29T11:22:30Z</time></trkpt><trkpt lat="42.51626949792085" lon="12.122015577348341"><ele>341.6666666666667</ele><time>2026-04-29T11:22:31Z</time></trkpt><trkpt lat="42.5160496069403" lon="12.121989994377468"><ele>345.3333333333333</ele><time>2026-04-29T11:22:32Z</time></trkpt><trkpt lat="42.51582913713004" lon="12.121963433731969"><ele>349.0</ele><time>2026-04-29T11:22:33Z</time></trkpt><trkpt lat="42.51560799057719" lon="12.121938001852858"><ele>350.0</ele><time>2026-04-29T11:22:34Z</time></trkpt><trkpt lat="42.51538440058867" lon="12.12191166360896"><ele>351.0</ele><time>2026-04-29T11:22:35Z</time></trkpt><trkpt lat="42.515159213179345" lon="12.12188363122356"><ele>351.0</ele><time>2026-04-29T11:22:36Z</time></trkpt><trkpt lat="42.51493221998187" lon="12.121853199380418"><ele>351.0</ele><time>2026-04-29T11:22:37Z</time></trkpt><trkpt lat="42.51471031041972" lon="12.121825350388672"><ele>351.3333333333333</ele><time>2026-04-29T11:22:38Z</time></trkpt><trkpt lat="42.51449178825504" lon="12.121799408778772"><ele>351.66666666666663</ele><time>2026-04-29T11:22:39Z</time></trkpt><trkpt lat="42.51427315822552" lon="12.121774178548462"><ele>352.0</ele><time>2026-04-29T11:22:40Z</time></trkpt><trkpt lat="42.51405653071636" lon="12.121746696849316"><ele>352.0</ele><time>2026-04-29T11:22:41Z</time></trkpt><trkpt lat="42.51383992541406" lon="12.12171272876544"><ele>352.0</ele><time>2026-04-29T11:22:42Z</time></trkpt><trkpt lat="42.513624806362216" lon="12.12167017708233"><ele>352.0</ele><time>2026-04-29T11:22:43Z</time></trkpt><trkpt lat="42.513406530260816" lon="12.12161914681796"><ele>356.0</ele><time>2026-04-29T11:22:44Z</time></trkpt><trkpt lat="42.51318512233062" lon="12.121560568986808"><ele>360.0</ele><time>2026-04-29T11:22:45Z</time></trkpt><trkpt lat="42.51296267890708" lon="12.121491704550564"><ele>356.5</ele><time>2026-04-29T11:22:46Z</time></trkpt><trkpt lat="42.51273684825285" lon="12.121415307841998"><ele>353.0</ele><time>2026-04-29T11:22:47Z</time></trkpt><trkpt lat="42.51251246785796" lon="12.121332786572781"><ele>353.0</ele><time>2026-04-29T11:22:48Z</time></trkpt><trkpt lat="42.51228453488288" lon="12.121240613920738"><ele>353.0</ele><time>2026-04-29T11:22:49Z</time></trkpt><trkpt lat="42.51205292716161" lon="12.121146667908477"><ele>349.0</ele><time>2026-04-29T11:22:50Z</time></trkpt><trkpt lat="42.51181976758111" lon="12.121053670251978"><ele>345.0</ele><time>2026-04-29T11:22:51Z</time></trkpt><trkpt lat="42.511586306395486" lon="12.120959403636078"><ele>345.0</ele><time>2026-04-29T11:22:52Z</time></trkpt><trkpt lat="42.511352878970506" lon="12.120862922008001"><ele>345.0</ele><time>2026-04-29T11:22:53Z</time></trkpt><trkpt lat="42.51111763243328" lon="12.120764475355967"><ele>345.5</ele><time>2026-04-29T11:22:54Z</time></trkpt><trkpt lat="42.51087871780645" lon="12.120667317973062"><ele>346.0</ele><time>2026-04-29T11:22:55Z</time></trkpt><trkpt lat="42.510636568721175" lon="12.120570717786629"><ele>345.5</ele><time>2026-04-29T11:22:56Z</time></trkpt><trkpt lat="42.510396245966184" lon="12.12047410743416"><ele>345.0</ele><time>2026-04-29T11:22:57Z</time></trkpt><trkpt lat="42.51015663816818" lon="12.12037686821188"><ele>345.0</ele><time>2026-04-29T11:22:58Z</time></trkpt><trkpt lat="42.50991913350022" lon="12.120280521215932"><ele>345.0</ele><time>2026-04-29T11:22:59Z</time></trkpt><trkpt lat="42.50968245943917" lon="12.12018381201393"><ele>345.5</ele><time>2026-04-29T11:23:00Z</time></trkpt><trkpt lat="42.509447317957736" lon="12.120086621936402"><ele>346.0</ele><time>2026-04-29T11:23:01Z</time></trkpt><trkpt lat="42.509214084051095" lon="12.119989380126512"><ele>347.0</ele><time>2026-04-29T11:23:02Z</time></trkpt><trkpt lat="42.50898314862209" lon="12.119892534389253"><ele>348.0</ele><time>2026-04-29T11:23:03Z</time></trkpt><trkpt lat="42.508752802962334" lon="12.119800280382082"><ele>346.0</ele><time>2026-04-29T11:23:04Z</time></trkpt><trkpt lat="42.50852309455552" lon="12.119709771922196"><ele>344.0</ele><time>2026-04-29T11:23:05Z</time></trkpt><trkpt lat="42.50829281326525" lon="12.119617569604824"><ele>344.0</ele><time>2026-04-29T11:23:06Z</time></trkpt><trkpt lat="42.50806186519858" lon="12.11952427476332"><ele>344.0</ele><time>2026-04-29T11:23:07Z</time></trkpt><trkpt lat="42.50783012974349" lon="12.119433393561582"><ele>345.0</ele><time>2026-04-29T11:23:08Z</time></trkpt><trkpt lat="42.50759799332075" lon="12.119339724781284"><ele>346.0</ele><time>2026-04-29T11:23:09Z</time></trkpt><trkpt lat="42.50736582258095" lon="12.11924306760478"><ele>346.0</ele><time>2026-04-29T11:23:10Z</time></trkpt><trkpt lat="42.50713164753162" lon="12.11914926203363"><ele>346.0</ele><time>2026-04-29T11:23:11Z</time></trkpt><trkpt lat="42.50689627210011" lon="12.119057082839893"><ele>348.0</ele><time>2026-04-29T11:23:12Z</time></trkpt><trkpt lat="42.506662898988" lon="12.118963886376026"><ele>350.0</ele><time>2026-04-29T11:23:13Z</time></trkpt><trkpt lat="42.50643748447909" lon="12.118867502208985"><ele>352.0</ele><time>2026-04-29T11:23:14Z</time></trkpt><trkpt lat="42.50622304023626" lon="12.118764567157367"><ele>354.0</ele><time>2026-04-29T11:23:15Z</time></trkpt><trkpt lat="42.50601448880476" lon="12.118645921312462"><ele>354.0</ele><time>2026-04-29T11:23:16Z</time></trkpt><trkpt lat="42.50580774379386" lon="12.118512548314124"><ele>354.0</ele><time>2026-04-29T11:23:17Z</time></trkpt><trkpt lat="42.505600324436514" lon="12.118366566315526"><ele>355.5</ele><time>2026-04-29T11:23:18Z</time></trkpt><trkpt lat="42.50539648261231" lon="12.118209148315726"><ele>357.0</ele><time>2026-04-29T11:23:19Z</time></trkpt><trkpt lat="42.50520200118765" lon="12.118042436314864"><ele>357.0</ele><time>2026-04-29T11:23:20Z</time></trkpt><trkpt lat="42.50501181391681" lon="12.117857687069852"><ele>357.0</ele><time>2026-04-29T11:23:21Z</time></trkpt><trkpt lat="42.504820184048285" lon="12.11766570093009"><ele>357.0</ele><time>2026-04-29T11:23:22Z</time></trkpt><trkpt lat="42.50463544919121" lon="12.11747413817491"><ele>357.0</ele><time>2026-04-29T11:23:23Z</time></trkpt><trkpt lat="42.50445004650849" lon="12.117280617919407"><ele>354.0</ele><time>2026-04-29T11:23:24Z</time></trkpt><trkpt lat="42.504260441690306" lon="12.117076012665065"><ele>351.0</ele><time>2026-04-29T11:23:25Z</time></trkpt><trkpt lat="42.504068328110975" lon="12.116865248212662"><ele>351.0</ele><time>2026-04-29T11:23:26Z</time></trkpt><trkpt lat="42.503876819951" lon="12.116654462798499"><ele>351.0</ele><time>2026-04-29T11:23:27Z</time></trkpt><trkpt lat="42.503690888723845" lon="12.116451533701625"><ele>349.3333333333333</ele><time>2026-04-29T11:23:28Z</time></trkpt><trkpt lat="42.503516132723156" lon="12.116258832046627"><ele>347.66666666666663</ele><time>2026-04-29T11:23:29Z</time></trkpt><trkpt lat="42.50334555386573" lon="12.116077529804372"><ele>346.0</ele><time>2026-04-29T11:23:30Z</time></trkpt><trkpt lat="42.5031677404067" lon="12.11590915889663"><ele>346.0</ele><time>2026-04-29T11:23:31Z</time></trkpt><trkpt lat="42.50298037603061" lon="12.115764366485054"><ele>346.0</ele><time>2026-04-29T11:23:32Z</time></trkpt><trkpt lat="42.502788980704075" lon="12.115644687776197"><ele>346.0</ele><time>2026-04-29T11:23:33Z</time></trkpt><trkpt lat="42.502596130742475" lon="12.115545522128038"><ele>344.3333333333333</ele><time>2026-04-29T11:23:34Z</time></trkpt><trkpt lat="42.502398305541774" lon="12.11546518447586"><ele>342.6666666666667</ele><time>2026-04-29T11:23:35Z</time></trkpt><trkpt lat="42.502195875409946" lon="12.115407153465961"><ele>341.0</ele><time>2026-04-29T11:23:36Z</time></trkpt><trkpt lat="42.50198812345366" lon="12.115361243433693"><ele>339.6666666666667</ele><time>2026-04-29T11:23:37Z</time></trkpt><trkpt lat="42.501774266357366" lon="12.115321099853114"><ele>338.3333333333333</ele><time>2026-04-29T11:23:38Z</time></trkpt><trkpt lat="42.50155544655206" lon="12.115281069853472"><ele>337.0</ele><time>2026-04-29T11:23:39Z</time></trkpt><trkpt lat="42.50133033668385" lon="12.11523682064257"><ele>335.0</ele><time>2026-04-29T11:23:40Z</time></trkpt><trkpt lat="42.5011045175752" lon="12.115186557614072"><ele>333.0</ele><time>2026-04-29T11:23:41Z</time></trkpt><trkpt lat="42.50087893710941" lon="12.115136100960429"><ele>333.0</ele><time>2026-04-29T11:23:42Z</time></trkpt><trkpt lat="42.50064501058635" lon="12.115088860079805"><ele>333.0</ele><time>2026-04-29T11:23:43Z</time></trkpt><trkpt lat="42.500403899488674" lon="12.115043284767252"><ele>332.0</ele><time>2026-04-29T11:23:44Z</time></trkpt><trkpt lat="42.50015533446684" lon="12.114995238995633"><ele>331.0</ele><time>2026-04-29T11:23:45Z</time></trkpt><trkpt lat="42.499898470105755" lon="12.114945182907013"><ele>329.0</ele><time>2026-04-29T11:23:46Z</time></trkpt><trkpt lat="42.499640234142646" lon="12.114894539134632"><ele>327.0</ele><time>2026-04-29T11:23:47Z</time></trkpt><trkpt lat="42.49938778651581" lon="12.114844783457519"><ele>325.0</ele><time>2026-04-29T11:23:48Z</time></trkpt><trkpt lat="42.499147622556826" lon="12.114797993111898"><ele>323.0</ele><time>2026-04-29T11:23:49Z</time></trkpt><trkpt lat="42.49890804819815" lon="12.114749688154964"><ele>321.5</ele><time>2026-04-29T11:23:50Z</time></trkpt><trkpt lat="42.49867603486311" lon="12.114698620298535"><ele>320.0</ele><time>2026-04-29T11:23:51Z</time></trkpt><trkpt lat="42.498448417115" lon="12.114654627055405"><ele>320.0</ele><time>2026-04-29T11:23:52Z</time></trkpt><trkpt lat="42.49822173960492" lon="12.114624339322534"><ele>320.0</ele><time>2026-04-29T11:23:53Z</time></trkpt><trkpt lat="42.49799729631311" lon="12.114614813742426"><ele>319.0</ele><time>2026-04-29T11:23:54Z</time></trkpt><trkpt lat="42.49777330789164" lon="12.114625052636192"><ele>318.0</ele><time>2026-04-29T11:23:55Z</time></trkpt><trkpt lat="42.49754757749943" lon="12.114655515613855"><ele>318.0</ele><time>2026-04-29T11:23:56Z</time></trkpt><trkpt lat="42.49731922905021" lon="12.114704059767071"><ele>318.0</ele><time>2026-04-29T11:23:57Z</time></trkpt><trkpt lat="42.497089578846975" lon="12.114768679799942"><ele>317.0</ele><time>2026-04-29T11:23:58Z</time></trkpt><trkpt lat="42.49685832150621" lon="12.11484692577351"><ele>316.0</ele><time>2026-04-29T11:23:59Z</time></trkpt><trkpt lat="42.49662243974313" lon="12.114936868653588"><ele>316.0</ele><time>2026-04-29T11:24:00Z</time></trkpt><trkpt lat="42.49637999194458" lon="12.11503030823919"><ele>316.0</ele><time>2026-04-29T11:24:01Z</time></trkpt><trkpt lat="42.496133848337024" lon="12.115125210800258"><ele>314.5</ele><time>2026-04-29T11:24:02Z</time></trkpt><trkpt lat="42.49588199386539" lon="12.115219196762402"><ele>313.0</ele><time>2026-04-29T11:24:03Z</time></trkpt><trkpt lat="42.49562722804701" lon="12.115316457218297"><ele>311.5</ele><time>2026-04-29T11:24:04Z</time></trkpt><trkpt lat="42.495368832560956" lon="12.115415982687574"><ele>310.0</ele><time>2026-04-29T11:24:05Z</time></trkpt><trkpt lat="42.49510913010189" lon="12.11551406048648"><ele>310.0</ele><time>2026-04-29T11:24:06Z</time></trkpt><trkpt lat="42.49484998706266" lon="12.115613055456558"><ele>310.0</ele><time>2026-04-29T11:24:07Z</time></trkpt><trkpt lat="42.49459130716933" lon="12.115714211807125"><ele>307.5</ele><time>2026-04-29T11:24:08Z</time></trkpt><trkpt lat="42.494332120985824" lon="12.115813425173226"><ele>305.0</ele><time>2026-04-29T11:24:09Z</time></trkpt><trkpt lat="42.49407362970596" lon="12.115910380581544"><ele>305.0</ele><time>2026-04-29T11:24:10Z</time></trkpt><trkpt lat="42.493817764380516" lon="12.116009387200856"><ele>305.0</ele><time>2026-04-29T11:24:11Z</time></trkpt><trkpt lat="42.49356567550062" lon="12.116104641538964"><ele>304.5</ele><time>2026-04-29T11:24:12Z</time></trkpt><trkpt lat="42.493318235349165" lon="12.116198056948368"><ele>304.0</ele><time>2026-04-29T11:24:13Z</time></trkpt><trkpt lat="42.49307632956865" lon="12.11628960049848"><ele>304.5</ele><time>2026-04-29T11:24:14Z</time></trkpt><trkpt lat="42.49283940161668" lon="12.11637894586257"><ele>305.0</ele><time>2026-04-29T11:24:15Z</time></trkpt><trkpt lat="42.49260083289002" lon="12.116469396203557"><ele>305.0</ele><time>2026-04-29T11:24:16Z</time></trkpt><trkpt lat="42.49236611590632" lon="12.116557954520081"><ele>305.0</ele><time>2026-04-29T11:24:17Z</time></trkpt><trkpt lat="42.49213810783742" lon="12.116643253174198"><ele>303.33333333333337</ele><time>2026-04-29T11:24:18Z</time></trkpt><trkpt lat="42.49192354316594" lon="12.116721175975709"><ele>301.6666666666667</ele><time>2026-04-29T11:24:19Z</time></trkpt><trkpt lat="42.49171721268774" lon="12.116790299688017"><ele>300.0</ele><time>2026-04-29T11:24:20Z</time></trkpt><trkpt lat="42.49151687606146" lon="12.116846968731885"><ele>300.0</ele><time>2026-04-29T11:24:21Z</time></trkpt><trkpt lat="42.49131226836275" lon="12.116886323711594"><ele>300.0</ele><time>2026-04-29T11:24:22Z</time></trkpt><trkpt lat="42.49110395437177" lon="12.116907873744477"><ele>300.0</ele><time>2026-04-29T11:24:23Z</time></trkpt><trkpt lat="42.49089214526201" lon="12.11691270497649"><ele>300.3333333333333</ele><time>2026-04-29T11:24:24Z</time></trkpt><trkpt lat="42.49067474623073" lon="12.11689892330707"><ele>300.66666666666663</ele><time>2026-04-29T11:24:25Z</time></trkpt><trkpt lat="42.49045678160336" lon="12.116866321069244"><ele>301.0</ele><time>2026-04-29T11:24:26Z</time></trkpt><trkpt lat="42.49024233815082" lon="12.116818146194051"><ele>300.0</ele><time>2026-04-29T11:24:27Z</time></trkpt><trkpt lat="42.49002526275026" lon="12.11675973693185"><ele>299.0</ele><time>2026-04-29T11:24:28Z</time></trkpt><trkpt lat="42.489803291724925" lon="12.116700003179519"><ele>298.0</ele><time>2026-04-29T11:24:29Z</time></trkpt><trkpt lat="42.48957696184405" lon="12.116644971866316"><ele>296.0</ele><time>2026-04-29T11:24:30Z</time></trkpt><trkpt lat="42.489350333406165" lon="12.11659058222183"><ele>294.0</ele><time>2026-04-29T11:24:31Z</time></trkpt><trkpt lat="42.48912175290672" lon="12.116535031325439"><ele>294.0</ele><time>2026-04-29T11:24:32Z</time></trkpt><trkpt lat="42.488888097844224" lon="12.116478492521004"><ele>294.0</ele><time>2026-04-29T11:24:33Z</time></trkpt><trkpt lat="42.48864850429528" lon="12.116417746116936"><ele>290.0</ele><time>2026-04-29T11:24:34Z</time></trkpt><trkpt lat="42.48840666990134" lon="12.116359078605608"><ele>286.0</ele><time>2026-04-29T11:24:35Z</time></trkpt><trkpt lat="42.48816544284821" lon="12.116301386263348"><ele>284.5</ele><time>2026-04-29T11:24:36Z</time></trkpt><trkpt lat="42.48792365640361" lon="12.116246383648402"><ele>283.0</ele><time>2026-04-29T11:24:37Z</time></trkpt><trkpt lat="42.487683088630895" lon="12.11619533257998"><ele>283.0</ele><time>2026-04-29T11:24:38Z</time></trkpt><trkpt lat="42.487457491194334" lon="12.116146877558977"><ele>283.0</ele><time>2026-04-29T11:24:39Z</time></trkpt><trkpt lat="42.48724170594501" lon="12.116101317527656"><ele>283.0</ele><time>2026-04-29T11:24:40Z</time></trkpt><trkpt lat="42.48703721144293" lon="12.11607478162614"><ele>282.66666666666663</ele><time>2026-04-29T11:24:41Z</time></trkpt><trkpt lat="42.48682874703522" lon="12.116072979429866"><ele>282.3333333333333</ele><time>2026-04-29T11:24:42Z</time></trkpt><trkpt lat="42.486614154672054" lon="12.116099857021497"><ele>282.0</ele><time>2026-04-29T11:24:43Z</time></trkpt><trkpt lat="42.486389262266954" lon="12.116150842178316"><ele>283.0</ele><time>2026-04-29T11:24:44Z</time></trkpt><trkpt lat="42.4861542165052" lon="12.116218370675073"><ele>284.0</ele><time>2026-04-29T11:24:45Z</time></trkpt><trkpt lat="42.48591132309588" lon="12.116299256750624"><ele>284.0</ele><time>2026-04-29T11:24:46Z</time></trkpt><trkpt lat="42.4856596298685" lon="12.116386701792967"><ele>284.0</ele><time>2026-04-29T11:24:47Z</time></trkpt><trkpt lat="42.48540841722986" lon="12.116473578358605"><ele>285.5</ele><time>2026-04-29T11:24:48Z</time></trkpt><trkpt lat="42.48515267260456" lon="12.116564237296496"><ele>287.0</ele><time>2026-04-29T11:24:49Z</time></trkpt><trkpt lat="42.484901005097186" lon="12.11665165723582"><ele>287.0</ele><time>2026-04-29T11:24:50Z</time></trkpt><trkpt lat="42.48466824310382" lon="12.11673181408544"><ele>287.0</ele><time>2026-04-29T11:24:51Z</time></trkpt><trkpt lat="42.48445178686493" lon="12.116805971630688"><ele>287.6666666666667</ele><time>2026-04-29T11:24:52Z</time></trkpt><trkpt lat="42.48423890395306" lon="12.116875825838088"><ele>288.3333333333333</ele><time>2026-04-29T11:24:53Z</time></trkpt><trkpt lat="42.48403209983286" lon="12.116928227919246"><ele>289.0</ele><time>2026-04-29T11:24:54Z</time></trkpt><trkpt lat="42.48383549020311" lon="12.11695534799405"><ele>290.66666666666663</ele><time>2026-04-29T11:24:55Z</time></trkpt><trkpt lat="42.48364073236937" lon="12.116960235200299"><ele>292.3333333333333</ele><time>2026-04-29T11:24:56Z</time></trkpt><trkpt lat="42.483463386924214" lon="12.11695220826666"><ele>294.0</ele><time>2026-04-29T11:24:57Z</time></trkpt><trkpt lat="42.48328685260005" lon="12.11693282580033"><ele>294.0</ele><time>2026-04-29T11:24:58Z</time></trkpt><trkpt lat="42.48309607298765" lon="12.116899968424526"><ele>294.0</ele><time>2026-04-29T11:24:59Z</time></trkpt><trkpt lat="42.482896479539505" lon="12.11686297402855"><ele>294.0</ele><time>2026-04-29T11:25:00Z</time></trkpt><trkpt lat="42.48268948256196" lon="12.116825563699145"><ele>293.6666666666667</ele><time>2026-04-29T11:25:01Z</time></trkpt><trkpt lat="42.48247497088089" lon="12.116788054947433"><ele>293.33333333333337</ele><time>2026-04-29T11:25:02Z</time></trkpt><trkpt lat="42.48225055675225" lon="12.11674693583956"><ele>293.0</ele><time>2026-04-29T11:25:03Z</time></trkpt><trkpt lat="42.48201856410604" lon="12.11670276899114"><ele>293.0</ele><time>2026-04-29T11:25:04Z</time></trkpt><trkpt lat="42.481780933700804" lon="12.11665642141719"><ele>293.0</ele><time>2026-04-29T11:25:05Z</time></trkpt><trkpt lat="42.4815368739026" lon="12.116609053349949"><ele>293.0</ele><time>2026-04-29T11:25:06Z</time></trkpt><trkpt lat="42.48128683071858" lon="12.116562076188645"><ele>293.0</ele><time>2026-04-29T11:25:07Z</time></trkpt><trkpt lat="42.48103385938794" lon="12.116512984649313"><ele>293.0</ele><time>2026-04-29T11:25:08Z</time></trkpt><trkpt lat="42.48078732826323" lon="12.116463673929925"><ele>293.0</ele><time>2026-04-29T11:25:09Z</time></trkpt><trkpt lat="42.48053855123813" lon="12.116412505919625"><ele>293.5</ele><time>2026-04-29T11:25:10Z</time></trkpt><trkpt lat="42.48028331624367" lon="12.116359562084929"><ele>294.0</ele><time>2026-04-29T11:25:11Z</time></trkpt><trkpt lat="42.480024756597736" lon="12.116307941611156"><ele>294.0</ele><time>2026-04-29T11:25:12Z</time></trkpt><trkpt lat="42.47976713062707" lon="12.116258031803435"><ele>294.0</ele><time>2026-04-29T11:25:13Z</time></trkpt><trkpt lat="42.47951489564507" lon="12.116212867384782"><ele>291.0</ele><time>2026-04-29T11:25:14Z</time></trkpt><trkpt lat="42.479273423338164" lon="12.116168489000719"><ele>288.0</ele><time>2026-04-29T11:25:15Z</time></trkpt><trkpt lat="42.479042176317805" lon="12.116123882166512"><ele>288.0</ele><time>2026-04-29T11:25:16Z</time></trkpt><trkpt lat="42.4788200143939" lon="12.116078245724736"><ele>288.0</ele><time>2026-04-29T11:25:17Z</time></trkpt><trkpt lat="42.478617399181594" lon="12.116037586518052"><ele>288.0</ele><time>2026-04-29T11:25:18Z</time></trkpt><trkpt lat="42.47843331739706" lon="12.11600300700268"><ele>285.3333333333333</ele><time>2026-04-29T11:25:19Z</time></trkpt><trkpt lat="42.478264206602724" lon="12.115973585671886"><ele>282.66666666666663</ele><time>2026-04-29T11:25:20Z</time></trkpt><trkpt lat="42.47810742345331" lon="12.115945203903927"><ele>280.0</ele><time>2026-04-29T11:25:21Z</time></trkpt><trkpt lat="42.47796674862128" lon="12.11591564222392"><ele>278.8</ele><time>2026-04-29T11:25:22Z</time></trkpt><trkpt lat="42.47783928210685" lon="12.115887006405103"><ele>277.6</ele><time>2026-04-29T11:25:23Z</time></trkpt><trkpt lat="42.477725411949415" lon="12.115865344916704"><ele>276.4</ele><time>2026-04-29T11:25:24Z</time></trkpt><trkpt lat="42.47762208534545" lon="12.115847377936522"><ele>275.2</ele><time>2026-04-29T11:25:25Z</time></trkpt><trkpt lat="42.4775313173011" lon="12.115836557748917"><ele>274.0</ele><time>2026-04-29T11:25:26Z</time></trkpt><trkpt lat="42.47746390306848" lon="12.115851137182618"><ele>274.0</ele><time>2026-04-29T11:25:27Z</time></trkpt><trkpt lat="42.47742288869541" lon="12.116001205269733"><ele>274.0</ele><time>2026-04-29T11:25:29Z</time></trkpt><trkpt lat="42.47745311204022" lon="12.116101304949801"><ele>274.0</ele><time>2026-04-29T11:25:30Z</time></trkpt><trkpt lat="42.4774898846825" lon="12.116220887132094"><ele>274.0</ele><time>2026-04-29T11:25:31Z</time></trkpt><trkpt lat="42.47752855342928" lon="12.116366304998081"><ele>274.0</ele><time>2026-04-29T11:25:32Z</time></trkpt><trkpt lat="42.47756735408632" lon="12.116536962559623"><ele>272.25</ele><time>2026-04-29T11:25:33Z</time></trkpt><trkpt lat="42.47760876737121" lon="12.116720285005096"><ele>270.5</ele><time>2026-04-29T11:25:34Z</time></trkpt><trkpt lat="42.477653972889755" lon="12.116910046130139"><ele>268.75</ele><time>2026-04-29T11:25:35Z</time></trkpt><trkpt lat="42.477704273931735" lon="12.117105369783998"><ele>267.0</ele><time>2026-04-29T11:25:36Z</time></trkpt><trkpt lat="42.47775478389142" lon="12.117306720089633"><ele>266.75</ele><time>2026-04-29T11:25:37Z</time></trkpt><trkpt lat="42.47780318134545" lon="12.117507995040622"><ele>266.5</ele><time>2026-04-29T11:25:38Z</time></trkpt><trkpt lat="42.47785755586185" lon="12.11769842743864"><ele>266.25</ele><time>2026-04-29T11:25:39Z</time></trkpt><trkpt lat="42.477925068868984" lon="12.117864685849323"><ele>266.0</ele><time>2026-04-29T11:25:40Z</time></trkpt><trkpt lat="42.47801090846831" lon="12.118005583750254"><ele>266.5</ele><time>2026-04-29T11:25:41Z</time></trkpt><trkpt lat="42.478121587639805" lon="12.11812070388675"><ele>267.0</ele><time>2026-04-29T11:25:42Z</time></trkpt><trkpt lat="42.478251582447065" lon="12.118204338551816"><ele>267.5</ele><time>2026-04-29T11:25:43Z</time></trkpt><trkpt lat="42.478396507903255" lon="12.118272688287881"><ele>268.0</ele><time>2026-04-29T11:25:44Z</time></trkpt><trkpt lat="42.4785486701856" lon="12.118343978708053"><ele>268.0</ele><time>2026-04-29T11:25:45Z</time></trkpt><trkpt lat="42.47869050011611" lon="12.118439417102401"><ele>268.0</ele><time>2026-04-29T11:25:46Z</time></trkpt><trkpt lat="42.47881383838643" lon="12.118553024965449"><ele>268.0</ele><time>2026-04-29T11:25:47Z</time></trkpt><trkpt lat="42.47892563013551" lon="12.11869141331632"><ele>267.0</ele><time>2026-04-29T11:25:48Z</time></trkpt><trkpt lat="42.47902008608187" lon="12.118847614343837"><ele>266.0</ele><time>2026-04-29T11:25:49Z</time></trkpt><trkpt lat="42.479103249318456" lon="12.11902483861838"><ele>265.0</ele><time>2026-04-29T11:25:50Z</time></trkpt><trkpt lat="42.47918937568436" lon="12.119215383363397"><ele>265.0</ele><time>2026-04-29T11:25:51Z</time></trkpt><trkpt lat="42.47928260309771" lon="12.119412117855079"><ele>265.0</ele><time>2026-04-29T11:25:52Z</time></trkpt><trkpt lat="42.47937911276508" lon="12.119608749735498"><ele>265.0</ele><time>2026-04-29T11:25:53Z</time></trkpt><trkpt lat="42.47947396316028" lon="12.119808520491459"><ele>264.75</ele><time>2026-04-29T11:25:54Z</time></trkpt><trkpt lat="42.47956531809391" lon="12.119995784515872"><ele>264.5</ele><time>2026-04-29T11:25:55Z</time></trkpt><trkpt lat="42.479645759989495" lon="12.120165689150562"><ele>264.25</ele><time>2026-04-29T11:25:56Z</time></trkpt><trkpt lat="42.479715298042635" lon="12.120303055048595"><ele>264.0</ele><time>2026-04-29T11:25:57Z</time></trkpt><trkpt lat="42.479747629748395" lon="12.120424536146338"><ele>264.0</ele><time>2026-04-29T11:25:58Z</time></trkpt><trkpt lat="42.47973829153506" lon="12.120537632327505"><ele>264.0</ele><time>2026-04-29T11:25:59Z</time></trkpt><trkpt lat="42.47968405312939" lon="12.120640894893056"><ele>264.0</ele><time>2026-04-29T11:26:00Z</time></trkpt><trkpt lat="42.479596696728095" lon="12.120728014543841"><ele>264.0</ele><time>2026-04-29T11:26:01Z</time></trkpt><trkpt lat="42.47950177546683" lon="12.120844884685148"><ele>264.0</ele><time>2026-04-29T11:26:02Z</time></trkpt><trkpt lat="42.47940611438729" lon="12.120959209794478"><ele>264.25</ele><time>2026-04-29T11:26:03Z</time></trkpt><trkpt lat="42.479296553626575" lon="12.121060081524444"><ele>264.5</ele><time>2026-04-29T11:26:04Z</time></trkpt><trkpt lat="42.47917730174332" lon="12.121109899936002"><ele>264.75</ele><time>2026-04-29T11:26:05Z</time></trkpt><trkpt lat="42.47905390211903" lon="12.121098281289873"><ele>265.0</ele><time>2026-04-29T11:26:06Z</time></trkpt><trkpt lat="42.4789364901293" lon="12.121029649042974"><ele>265.0</ele><time>2026-04-29T11:26:07Z</time></trkpt><trkpt lat="42.47881339449384" lon="12.120937693548901"><ele>265.0</ele><time>2026-04-29T11:26:08Z</time></trkpt><trkpt lat="42.47868527715864" lon="12.12082713288498"><ele>265.0</ele><time>2026-04-29T11:26:09Z</time></trkpt><trkpt lat="42.478564669941385" lon="12.120708763726963"><ele>265.0</ele><time>2026-04-29T11:26:10Z</time></trkpt><trkpt lat="42.47845584244219" lon="12.120587095229894"><ele>264.0</ele><time>2026-04-29T11:26:11Z</time></trkpt><trkpt lat="42.47835069223386" lon="12.12048431573469"><ele>263.0</ele><time>2026-04-29T11:26:12Z</time></trkpt><trkpt lat="42.478236712606105" lon="12.12040205146771"><ele>262.0</ele><time>2026-04-29T11:26:13Z</time></trkpt><trkpt lat="42.47811535665607" lon="12.120377803930415"><ele>261.0</ele><time>2026-04-29T11:26:14Z</time></trkpt><trkpt lat="42.478006168095106" lon="12.120399931956529"><ele>261.0</ele><time>2026-04-29T11:26:15Z</time></trkpt><trkpt lat="42.47786659844926" lon="12.120463250794998"><ele>261.0</ele><time>2026-04-29T11:26:16Z</time></trkpt><trkpt lat="42.47772676221406" lon="12.120551916545343"><ele>261.0</ele><time>2026-04-29T11:26:17Z</time></trkpt><trkpt lat="42.47757550068251" lon="12.120632366422122"><ele>261.0</ele><time>2026-04-29T11:26:18Z</time></trkpt><trkpt lat="42.47742477676906" lon="12.120690960367327"><ele>261.0</ele><time>2026-04-29T11:26:19Z</time></trkpt><trkpt lat="42.47725957142889" lon="12.120764353221391"><ele>261.0</ele><time>2026-04-29T11:26:20Z</time></trkpt><trkpt lat="42.47709935664279" lon="12.120861270230405"><ele>268.6666666666667</ele><time>2026-04-29T11:26:21Z</time></trkpt><trkpt lat="42.47694954979821" lon="12.120982303533234"><ele>276.33333333333337</ele><time>2026-04-29T11:26:22Z</time></trkpt><trkpt lat="42.47682069415737" lon="12.121098874474374"><ele>284.0</ele><time>2026-04-29T11:26:23Z</time></trkpt><trkpt lat="42.47667312552386" lon="12.121154664599052"><ele>284.0</ele><time>2026-04-29T11:26:24Z</time></trkpt><trkpt lat="42.476523098577424" lon="12.121172897442962"><ele>284.0</ele><time>2026-04-29T11:26:25Z</time></trkpt><trkpt lat="42.476369055175354" lon="12.121175231139283"><ele>284.0</ele><time>2026-04-29T11:26:26Z</time></trkpt><trkpt lat="42.476220578494996" lon="12.121207869471604"><ele>287.33333333333337</ele><time>2026-04-29T11:26:27Z</time></trkpt><trkpt lat="42.47607017465713" lon="12.121277091930114"><ele>290.6666666666667</ele><time>2026-04-29T11:26:28Z</time></trkpt><trkpt lat="42.47589837706232" lon="12.121363826662964"><ele>294.0</ele><time>2026-04-29T11:26:29Z</time></trkpt><trkpt lat="42.475729267565505" lon="12.12148699190533"><ele>295.6666666666667</ele><time>2026-04-29T11:26:30Z</time></trkpt><trkpt lat="42.47555738526066" lon="12.121623721610295"><ele>297.33333333333337</ele><time>2026-04-29T11:26:31Z</time></trkpt><trkpt lat="42.47538562668862" lon="12.121756760582562"><ele>299.0</ele><time>2026-04-29T11:26:32Z</time></trkpt><trkpt lat="42.47519610469036" lon="12.121859604193537"><ele>300.33333333333337</ele><time>2026-04-29T11:26:33Z</time></trkpt><trkpt lat="42.475022961130776" lon="12.121976133099754"><ele>301.6666666666667</ele><time>2026-04-29T11:26:34Z</time></trkpt><trkpt lat="42.4748400975896" lon="12.122094114927858"><ele>303.0</ele><time>2026-04-29T11:26:35Z</time></trkpt><trkpt lat="42.47464618540439" lon="12.12218704650343"><ele>304.6666666666667</ele><time>2026-04-29T11:26:36Z</time></trkpt><trkpt lat="42.47444795954563" lon="12.12230014857893"><ele>306.33333333333337</ele><time>2026-04-29T11:26:37Z</time></trkpt><trkpt lat="42.474255164955125" lon="12.122435404130547"><ele>308.0</ele><time>2026-04-29T11:26:38Z</time></trkpt><trkpt lat="42.47406545223251" lon="12.122563536902215"><ele>308.33333333333337</ele><time>2026-04-29T11:26:39Z</time></trkpt><trkpt lat="42.473876945615444" lon="12.122672794699932"><ele>308.6666666666667</ele><time>2026-04-29T11:26:40Z</time></trkpt><trkpt lat="42.47369336674581" lon="12.122778750472612"><ele>309.0</ele><time>2026-04-29T11:26:41Z</time></trkpt><trkpt lat="42.47351789518483" lon="12.122876615481722"><ele>309.6666666666667</ele><time>2026-04-29T11:26:42Z</time></trkpt><trkpt lat="42.47334663176159" lon="12.122977516139372"><ele>310.33333333333337</ele><time>2026-04-29T11:26:43Z</time></trkpt><trkpt lat="42.47317216439308" lon="12.123084039215327"><ele>311.0</ele><time>2026-04-29T11:26:44Z</time></trkpt><trkpt lat="42.47298989065888" lon="12.123192550317357"><ele>312.6666666666667</ele><time>2026-04-29T11:26:45Z</time></trkpt><trkpt lat="42.47280738025337" lon="12.123293786166904"><ele>314.3333333333333</ele><time>2026-04-29T11:26:46Z</time></trkpt><trkpt lat="42.472639733505495" lon="12.12338293644512"><ele>316.0</ele><time>2026-04-29T11:26:47Z</time></trkpt><trkpt lat="42.472480435438825" lon="12.123448565282466"><ele>316.0</ele><time>2026-04-29T11:26:48Z</time></trkpt><trkpt lat="42.472323744703594" lon="12.123492556040905"><ele>316.0</ele><time>2026-04-29T11:26:49Z</time></trkpt><trkpt lat="42.47216079834889" lon="12.123520207474185"><ele>316.0</ele><time>2026-04-29T11:26:50Z</time></trkpt><trkpt lat="42.47198895783321" lon="12.123533403575657"><ele>317.3333333333333</ele><time>2026-04-29T11:26:51Z</time></trkpt><trkpt lat="42.471808616154284" lon="12.12353604411485"><ele>318.6666666666667</ele><time>2026-04-29T11:26:52Z</time></trkpt><trkpt lat="42.47161976034394" lon="12.123525880872025"><ele>320.0</ele><time>2026-04-29T11:26:53Z</time></trkpt><trkpt lat="42.471420545920964" lon="12.123509407987006"><ele>320.33333333333337</ele><time>2026-04-29T11:26:54Z</time></trkpt><trkpt lat="42.47121229173309" lon="12.123494267315643"><ele>320.6666666666667</ele><time>2026-04-29T11:26:55Z</time></trkpt><trkpt lat="42.4709946583551" lon="12.123473209169992"><ele>321.0</ele><time>2026-04-29T11:26:56Z</time></trkpt><trkpt lat="42.470774089522024" lon="12.123446319758594"><ele>321.0</ele><time>2026-04-29T11:26:57Z</time></trkpt><trkpt lat="42.47054455524977" lon="12.123422608261487"><ele>321.0</ele><time>2026-04-29T11:26:58Z</time></trkpt><trkpt lat="42.470314227885275" lon="12.123398944570358"><ele>321.0</ele><time>2026-04-29T11:26:59Z</time></trkpt><trkpt lat="42.47007992592436" lon="12.123378450118981"><ele>321.0</ele><time>2026-04-29T11:27:00Z</time></trkpt><trkpt lat="42.46984684075388" lon="12.12336099769667"><ele>321.0</ele><time>2026-04-29T11:27:01Z</time></trkpt><trkpt lat="42.46961317503017" lon="12.123351836474026"><ele>321.0</ele><time>2026-04-29T11:27:02Z</time></trkpt><trkpt lat="42.46937622877986" lon="12.123352056088924"><ele>322.5</ele><time>2026-04-29T11:27:03Z</time></trkpt><trkpt lat="42.469140403500155" lon="12.12335918141525"><ele>324.0</ele><time>2026-04-29T11:27:04Z</time></trkpt><trkpt lat="42.46889981998293" lon="12.123371913826743"><ele>323.5</ele><time>2026-04-29T11:27:05Z</time></trkpt><trkpt lat="42.46865673672124" lon="12.123388807020053"><ele>323.0</ele><time>2026-04-29T11:27:06Z</time></trkpt><trkpt lat="42.46841568619069" lon="12.123408399689769"><ele>323.0</ele><time>2026-04-29T11:27:07Z</time></trkpt><trkpt lat="42.46818441892645" lon="12.123427238704402"><ele>323.0</ele><time>2026-04-29T11:27:08Z</time></trkpt><trkpt lat="42.467950016281485" lon="12.123441722723527"><ele>324.5</ele><time>2026-04-29T11:27:09Z</time></trkpt><trkpt lat="42.46771458026124" lon="12.123456088030379"><ele>326.0</ele><time>2026-04-29T11:27:10Z</time></trkpt><trkpt lat="42.46747239632053" lon="12.123472284997893"><ele>326.0</ele><time>2026-04-29T11:27:11Z</time></trkpt><trkpt lat="42.46722405805285" lon="12.123479737021947"><ele>326.0</ele><time>2026-04-29T11:27:12Z</time></trkpt><trkpt lat="42.46697391709144" lon="12.123478758224637"><ele>327.5</ele><time>2026-04-29T11:27:13Z</time></trkpt><trkpt lat="42.466725372184065" lon="12.123469101116537"><ele>329.0</ele><time>2026-04-29T11:27:14Z</time></trkpt><trkpt lat="42.466480777804705" lon="12.12345377177242"><ele>329.5</ele><time>2026-04-29T11:27:15Z</time></trkpt><trkpt lat="42.46624150337352" lon="12.123437956760597"><ele>330.0</ele><time>2026-04-29T11:27:16Z</time></trkpt><trkpt lat="42.4660026078298" lon="12.123435557191714"><ele>330.0</ele><time>2026-04-29T11:27:17Z</time></trkpt><trkpt lat="42.46576350381751" lon="12.123448101080712"><ele>330.0</ele><time>2026-04-29T11:27:18Z</time></trkpt><trkpt lat="42.46552417675816" lon="12.123474713322361"><ele>331.5</ele><time>2026-04-29T11:27:19Z</time></trkpt><trkpt lat="42.465283812431196" lon="12.12350909506522"><ele>333.0</ele><time>2026-04-29T11:27:20Z</time></trkpt><trkpt lat="42.46504347943805" lon="12.123546538664359"><ele>333.0</ele><time>2026-04-29T11:27:21Z</time></trkpt><trkpt lat="42.464801063005346" lon="12.12358242914629"><ele>333.0</ele><time>2026-04-29T11:27:22Z</time></trkpt><trkpt lat="42.46455538507769" lon="12.123610495058724"><ele>335.0</ele><time>2026-04-29T11:27:23Z</time></trkpt><trkpt lat="42.464309414213886" lon="12.123639564286309"><ele>337.0</ele><time>2026-04-29T11:27:24Z</time></trkpt><trkpt lat="42.46406240922245" lon="12.123671478760249"><ele>337.0</ele><time>2026-04-29T11:27:25Z</time></trkpt><trkpt lat="42.463816677195624" lon="12.123702926947265"><ele>337.0</ele><time>2026-04-29T11:27:26Z</time></trkpt><trkpt lat="42.46357685865765" lon="12.12373214439378"><ele>337.3333333333333</ele><time>2026-04-29T11:27:27Z</time></trkpt><trkpt lat="42.46335762023852" lon="12.12375809891151"><ele>337.6666666666667</ele><time>2026-04-29T11:27:28Z</time></trkpt><trkpt lat="42.463154716268285" lon="12.123781105402069"><ele>338.0</ele><time>2026-04-29T11:27:29Z</time></trkpt><trkpt lat="42.462964977508086" lon="12.123810137360007"><ele>339.0</ele><time>2026-04-29T11:27:30Z</time></trkpt><trkpt lat="42.462790122917454" lon="12.123859251416679"><ele>340.0</ele><time>2026-04-29T11:27:31Z</time></trkpt><trkpt lat="42.462613142826356" lon="12.123941462489164"><ele>341.0</ele><time>2026-04-29T11:27:32Z</time></trkpt><trkpt lat="42.46244029578276" lon="12.1240581329651"><ele>341.33333333333337</ele><time>2026-04-29T11:27:33Z</time></trkpt><trkpt lat="42.46226343907724" lon="12.124199756039474"><ele>341.6666666666667</ele><time>2026-04-29T11:27:34Z</time></trkpt><trkpt lat="42.462077355749386" lon="12.124358781922872"><ele>342.0</ele><time>2026-04-29T11:27:35Z</time></trkpt><trkpt lat="42.461880236539265" lon="12.124526354453526"><ele>342.0</ele><time>2026-04-29T11:27:36Z</time></trkpt><trkpt lat="42.4616693919919" lon="12.12469744431386"><ele>342.0</ele><time>2026-04-29T11:27:37Z</time></trkpt><trkpt lat="42.46145165562651" lon="12.124875870689833"><ele>343.0</ele><time>2026-04-29T11:27:38Z</time></trkpt><trkpt lat="42.46123507283521" lon="12.125054516678569"><ele>344.0</ele><time>2026-04-29T11:27:39Z</time></trkpt><trkpt lat="42.46100732795922" lon="12.125242189542183"><ele>344.0</ele><time>2026-04-29T11:27:40Z</time></trkpt><trkpt lat="42.46077174297241" lon="12.125433166310348"><ele>344.0</ele><time>2026-04-29T11:27:41Z</time></trkpt><trkpt lat="42.460529537409364" lon="12.125616407532636"><ele>344.0</ele><time>2026-04-29T11:27:42Z</time></trkpt><trkpt lat="42.46028199862232" lon="12.125792716813695"><ele>344.0</ele><time>2026-04-29T11:27:43Z</time></trkpt><trkpt lat="42.46003588709489" lon="12.125968678228281"><ele>344.0</ele><time>2026-04-29T11:27:44Z</time></trkpt><trkpt lat="42.45979214678289" lon="12.126144255439547"><ele>344.0</ele><time>2026-04-29T11:27:45Z</time></trkpt><trkpt lat="42.45955309404656" lon="12.126313952992517"><ele>343.5</ele><time>2026-04-29T11:27:46Z</time></trkpt><trkpt lat="42.459319864427925" lon="12.12648174765022"><ele>343.0</ele><time>2026-04-29T11:27:47Z</time></trkpt><trkpt lat="42.45909453125456" lon="12.12664487791708"><ele>344.0</ele><time>2026-04-29T11:27:48Z</time></trkpt><trkpt lat="42.458882245397014" lon="12.126799452768287"><ele>345.0</ele><time>2026-04-29T11:27:49Z</time></trkpt><trkpt lat="42.458673679899896" lon="12.126952627177111"><ele>345.0</ele><time>2026-04-29T11:27:50Z</time></trkpt><trkpt lat="42.45848179526787" lon="12.127100811053795"><ele>345.0</ele><time>2026-04-29T11:27:51Z</time></trkpt><trkpt lat="42.45830820050469" lon="12.127255654687808"><ele>345.0</ele><time>2026-04-29T11:27:52Z</time></trkpt><trkpt lat="42.45814810627055" lon="12.127429252762381"><ele>345.0</ele><time>2026-04-29T11:27:53Z</time></trkpt><trkpt lat="42.457996681465865" lon="12.127625477976757"><ele>345.0</ele><time>2026-04-29T11:27:54Z</time></trkpt><trkpt lat="42.45785098973711" lon="12.127836055078038"><ele>345.0</ele><time>2026-04-29T11:27:55Z</time></trkpt><trkpt lat="42.457704987001726" lon="12.128062889369728"><ele>344.5</ele><time>2026-04-29T11:27:56Z</time></trkpt><trkpt lat="42.45756074677882" lon="12.12830579500396"><ele>344.0</ele><time>2026-04-29T11:27:57Z</time></trkpt><trkpt lat="42.45741400711159" lon="12.128558097814489"><ele>344.0</ele><time>2026-04-29T11:27:58Z</time></trkpt><trkpt lat="42.4572739032717" lon="12.128791395321567"><ele>344.0</ele><time>2026-04-29T11:27:59Z</time></trkpt><trkpt lat="42.45714432158776" lon="12.129005597621468"><ele>344.0</ele><time>2026-04-29T11:28:00Z</time></trkpt><trkpt lat="42.45702874939505" lon="12.129193887437689"><ele>344.6666666666667</ele><time>2026-04-29T11:28:01Z</time></trkpt><trkpt lat="42.45690810175425" lon="12.129356136499721"><ele>345.3333333333333</ele><time>2026-04-29T11:28:02Z</time></trkpt><trkpt lat="42.45679790025091" lon="12.129525143574126"><ele>346.0</ele><time>2026-04-29T11:28:03Z</time></trkpt><trkpt lat="42.45662404039383" lon="12.129627876710376"><ele>346.0</ele><time>2026-04-29T11:28:04Z</time></trkpt><trkpt lat="42.456454779068814" lon="12.129736290115009"><ele>346.0</ele><time>2026-04-29T11:28:05Z</time></trkpt><trkpt lat="42.45626767895385" lon="12.129830657766085"><ele>346.0</ele><time>2026-04-29T11:28:06Z</time></trkpt><trkpt lat="42.4560694827744" lon="12.129930873386199"><ele>347.3333333333333</ele><time>2026-04-29T11:28:07Z</time></trkpt><trkpt lat="42.45587308494582" lon="12.130056654738441"><ele>348.6666666666667</ele><time>2026-04-29T11:28:08Z</time></trkpt><trkpt lat="42.45567830335805" lon="12.130209603449616"><ele>350.0</ele><time>2026-04-29T11:28:09Z</time></trkpt><trkpt lat="42.455483991140696" lon="12.130390028307088"><ele>351.5</ele><time>2026-04-29T11:28:10Z</time></trkpt><trkpt lat="42.45529182883718" lon="12.130594378486125"><ele>353.0</ele><time>2026-04-29T11:28:11Z</time></trkpt><trkpt lat="42.455096452696075" lon="12.13081549730778"><ele>353.0</ele><time>2026-04-29T11:28:12Z</time></trkpt><trkpt lat="42.45489883071546" lon="12.131045644414659"><ele>353.0</ele><time>2026-04-29T11:28:13Z</time></trkpt><trkpt lat="42.45469529997918" lon="12.131285620938"><ele>354.0</ele><time>2026-04-29T11:28:14Z</time></trkpt><trkpt lat="42.45448757901434" lon="12.13153472414885"><ele>355.0</ele><time>2026-04-29T11:28:15Z</time></trkpt><trkpt lat="42.45428354333333" lon="12.131791070831417"><ele>355.0</ele><time>2026-04-29T11:28:16Z</time></trkpt><trkpt lat="42.454087344547524" lon="12.132048318004953"><ele>355.0</ele><time>2026-04-29T11:28:17Z</time></trkpt><trkpt lat="42.4539027186183" lon="12.132310761054416"><ele>356.5</ele><time>2026-04-29T11:28:18Z</time></trkpt><trkpt lat="42.45373995632429" lon="12.132552987290202"><ele>358.0</ele><time>2026-04-29T11:28:19Z</time></trkpt><trkpt lat="42.45358855921555" lon="12.132786287186697"><ele>358.0</ele><time>2026-04-29T11:28:20Z</time></trkpt><trkpt lat="42.45343895922644" lon="12.133021689517411"><ele>358.0</ele><time>2026-04-29T11:28:21Z</time></trkpt><trkpt lat="42.453286863851126" lon="12.1332652241381"><ele>360.0</ele><time>2026-04-29T11:28:22Z</time></trkpt><trkpt lat="42.45312878058705" lon="12.133511872147634"><ele>362.0</ele><time>2026-04-29T11:28:23Z</time></trkpt><trkpt lat="42.452973358223595" lon="12.133741833539798"><ele>362.6666666666667</ele><time>2026-04-29T11:28:24Z</time></trkpt><trkpt lat="42.452836054612284" lon="12.133949501103066"><ele>363.3333333333333</ele><time>2026-04-29T11:28:25Z</time></trkpt><trkpt lat="42.45270277699902" lon="12.134138522658116"><ele>364.0</ele><time>2026-04-29T11:28:26Z</time></trkpt><trkpt lat="42.45255099052141" lon="12.13431247225246"><ele>364.0</ele><time>2026-04-29T11:28:27Z</time></trkpt><trkpt lat="42.45237802888087" lon="12.134465141216818"><ele>364.0</ele><time>2026-04-29T11:28:28Z</time></trkpt><trkpt lat="42.45219010260215" lon="12.134598232796453"><ele>364.0</ele><time>2026-04-29T11:28:29Z</time></trkpt><trkpt lat="42.45198880218893" lon="12.134720636432483"><ele>364.66666666666663</ele><time>2026-04-29T11:28:30Z</time></trkpt><trkpt lat="42.451781433221925" lon="12.13483287763132"><ele>365.3333333333333</ele><time>2026-04-29T11:28:31Z</time></trkpt><trkpt lat="42.45157140517312" lon="12.134943332329318"><ele>366.0</ele><time>2026-04-29T11:28:32Z</time></trkpt><trkpt lat="42.45135766562108" lon="12.13506071660712"><ele>367.0</ele><time>2026-04-29T11:28:33Z</time></trkpt><trkpt lat="42.45114234434003" lon="12.135181081433219"><ele>368.0</ele><time>2026-04-29T11:28:34Z</time></trkpt><trkpt lat="42.45093122781064" lon="12.13529940656087"><ele>368.0</ele><time>2026-04-29T11:28:35Z</time></trkpt><trkpt lat="42.450728000952964" lon="12.135412362258153"><ele>368.0</ele><time>2026-04-29T11:28:36Z</time></trkpt><trkpt lat="42.4505359088253" lon="12.135517319021087"><ele>368.0</ele><time>2026-04-29T11:28:37Z</time></trkpt><trkpt lat="42.45036137593051" lon="12.135608452457065"><ele>368.0</ele><time>2026-04-29T11:28:38Z</time></trkpt><trkpt lat="42.450197845951855" lon="12.135691778702148"><ele>368.0</ele><time>2026-04-29T11:28:39Z</time></trkpt><trkpt lat="42.45006216179651" lon="12.135754934514866"><ele>368.0</ele><time>2026-04-29T11:28:40Z</time></trkpt><trkpt lat="42.449964219755216" lon="12.135795761446914"><ele>368.0</ele><time>2026-04-29T11:28:41Z</time></trkpt><trkpt lat="42.44989409334841" lon="12.135819255560794"><ele>368.0</ele><time>2026-04-29T11:28:42Z</time></trkpt><trkpt lat="42.44979010202026" lon="12.135835023661912"><ele>368.0</ele><time>2026-04-29T11:28:44Z</time></trkpt><trkpt lat="42.449702422079135" lon="12.135863228065737"><ele>368.0</ele><time>2026-04-29T11:28:46Z</time></trkpt><trkpt lat="42.449695650221166" lon="12.135961481111135"><ele>368.0</ele><time>2026-04-29T11:28:48Z</time></trkpt><trkpt lat="42.44978488695645" lon="12.135975794914618"><ele>368.0</ele><time>2026-04-29T11:28:51Z</time></trkpt><trkpt lat="42.44984197084086" lon="12.135911810658268"><ele>368.0</ele><time>2026-04-29T11:28:53Z</time></trkpt><trkpt lat="42.44988059861904" lon="12.13579651587294"><ele>367.79999999999995</ele><time>2026-04-29T11:28:56Z</time></trkpt><trkpt lat="42.44979310328224" lon="12.135672857558747"><ele>367.6</ele><time>2026-04-29T11:28:58Z</time></trkpt><trkpt lat="42.44974668643932" lon="12.135609342300015"><ele>367.4</ele><time>2026-04-29T11:28:59Z</time></trkpt><trkpt lat="42.449709454700354" lon="12.135519504940355"><ele>367.20000000000005</ele><time>2026-04-29T11:29:00Z</time></trkpt><trkpt lat="42.44965884137223" lon="12.135418646179648"><ele>367.0</ele><time>2026-04-29T11:29:01Z</time></trkpt><trkpt lat="42.449576747332586" lon="12.135338331176078"><ele>366.8</ele><time>2026-04-29T11:29:02Z</time></trkpt><trkpt lat="42.44948444695531" lon="12.135275474018789"><ele>366.6</ele><time>2026-04-29T11:29:03Z</time></trkpt><trkpt lat="42.449377756485376" lon="12.135235625988416"><ele>366.40000000000003</ele><time>2026-04-29T11:29:04Z</time></trkpt><trkpt lat="42.449262507875375" lon="12.135226621324227"><ele>366.20000000000005</ele><time>2026-04-29T11:29:05Z</time></trkpt><trkpt lat="42.44915541274485" lon="12.135257685322454"><ele>366.0</ele><time>2026-04-29T11:29:06Z</time></trkpt><trkpt lat="42.44905772496976" lon="12.135322177652673"><ele>366.0</ele><time>2026-04-29T11:29:07Z</time></trkpt><trkpt lat="42.44897731002347" lon="12.135416128377969"><ele>366.0</ele><time>2026-04-29T11:29:08Z</time></trkpt><trkpt lat="42.44890984202139" lon="12.135523165755645"><ele>366.0</ele><time>2026-04-29T11:29:09Z</time></trkpt><trkpt lat="42.4488339781032" lon="12.135609389934347"><ele>366.0</ele><time>2026-04-29T11:29:10Z</time></trkpt><trkpt lat="42.44873972098544" lon="12.135645225854766"><ele>366.0</ele><time>2026-04-29T11:29:11Z</time></trkpt><trkpt lat="42.448645480527794" lon="12.135631866321111"><ele>366.6</ele><time>2026-04-29T11:29:12Z</time></trkpt><trkpt lat="42.44856801430355" lon="12.135574034782362"><ele>367.20000000000005</ele><time>2026-04-29T11:29:13Z</time></trkpt><trkpt lat="42.44850212756205" lon="12.135480147484962"><ele>367.79999999999995</ele><time>2026-04-29T11:29:14Z</time></trkpt><trkpt lat="42.44844632108555" lon="12.135352710409375"><ele>368.4</ele><time>2026-04-29T11:29:15Z</time></trkpt><trkpt lat="42.44838258550777" lon="12.135198671471585"><ele>369.0</ele><time>2026-04-29T11:29:16Z</time></trkpt><trkpt lat="42.448305925778335" lon="12.135025289688869"><ele>368.3333333333333</ele><time>2026-04-29T11:29:17Z</time></trkpt><trkpt lat="42.448218650939204" lon="12.134841320838028"><ele>367.66666666666663</ele><time>2026-04-29T11:29:18Z</time></trkpt><trkpt lat="42.448125375154476" lon="12.134659326444979"><ele>367.0</ele><time>2026-04-29T11:29:19Z</time></trkpt><trkpt lat="42.448022539398" lon="12.134464065615123"><ele>365.66666666666663</ele><time>2026-04-29T11:29:20Z</time></trkpt><trkpt lat="42.4479169073266" lon="12.134259925572415"><ele>364.3333333333333</ele><time>2026-04-29T11:29:21Z</time></trkpt><trkpt lat="42.447809208527126" lon="12.134046549153496"><ele>363.0</ele><time>2026-04-29T11:29:22Z</time></trkpt><trkpt lat="42.447703199896694" lon="12.133827882320926"><ele>359.3333333333333</ele><time>2026-04-29T11:29:23Z</time></trkpt><trkpt lat="42.447602325427674" lon="12.133614115177233"><ele>355.66666666666663</ele><time>2026-04-29T11:29:24Z</time></trkpt><trkpt lat="42.44749744033321" lon="12.133388990412245"><ele>352.0</ele><time>2026-04-29T11:29:25Z</time></trkpt><trkpt lat="42.44738809644538" lon="12.133160594881632"><ele>352.0</ele><time>2026-04-29T11:29:26Z</time></trkpt><trkpt lat="42.44727885765111" lon="12.132924158719"><ele>352.0</ele><time>2026-04-29T11:29:27Z</time></trkpt><trkpt lat="42.44716565509129" lon="12.132682648505366"><ele>352.0</ele><time>2026-04-29T11:29:28Z</time></trkpt><trkpt lat="42.447049875990004" lon="12.132434063749459"><ele>348.5</ele><time>2026-04-29T11:29:29Z</time></trkpt><trkpt lat="42.44693106949421" lon="12.13217891113722"><ele>345.0</ele><time>2026-04-29T11:29:30Z</time></trkpt><trkpt lat="42.44680870245656" lon="12.131918818647373"><ele>345.0</ele><time>2026-04-29T11:29:31Z</time></trkpt><trkpt lat="42.44668326634035" lon="12.131654892947495"><ele>345.0</ele><time>2026-04-29T11:29:32Z</time></trkpt><trkpt lat="42.446556743770174" lon="12.13138366145607"><ele>344.0</ele><time>2026-04-29T11:29:33Z</time></trkpt><trkpt lat="42.446427479088435" lon="12.13110763322566"><ele>343.0</ele><time>2026-04-29T11:29:34Z</time></trkpt><trkpt lat="42.44629826986377" lon="12.130831007207577"><ele>350.5</ele><time>2026-04-29T11:29:35Z</time></trkpt><trkpt lat="42.4461673316341" lon="12.130552928512335"><ele>358.0</ele><time>2026-04-29T11:29:36Z</time></trkpt><trkpt lat="42.44603468052028" lon="12.130270575083893"><ele>358.0</ele><time>2026-04-29T11:29:37Z</time></trkpt><trkpt lat="42.44590126861622" lon="12.129983991491427"><ele>358.0</ele><time>2026-04-29T11:29:38Z</time></trkpt><trkpt lat="42.44576624374249" lon="12.129696170626426"><ele>363.0</ele><time>2026-04-29T11:29:39Z</time></trkpt><trkpt lat="42.445630180831316" lon="12.129406531232407"><ele>368.0</ele><time>2026-04-29T11:29:40Z</time></trkpt><trkpt lat="42.445492274688924" lon="12.129114956526395"><ele>370.0</ele><time>2026-04-29T11:29:41Z</time></trkpt><trkpt lat="42.4453544226317" lon="12.128820776830997"><ele>372.0</ele><time>2026-04-29T11:29:42Z</time></trkpt><trkpt lat="42.44521688205731" lon="12.128525559640517"><ele>372.0</ele><time>2026-04-29T11:29:43Z</time></trkpt><trkpt lat="42.445078318443" lon="12.128229570929042"><ele>372.0</ele><time>2026-04-29T11:29:44Z</time></trkpt><trkpt lat="42.444937809091385" lon="12.127932569261036"><ele>371.0</ele><time>2026-04-29T11:29:45Z</time></trkpt><trkpt lat="42.44479693930001" lon="12.12763430820771"><ele>370.0</ele><time>2026-04-29T11:29:46Z</time></trkpt><trkpt lat="42.44465628907107" lon="12.12733208961528"><ele>369.5</ele><time>2026-04-29T11:29:47Z</time></trkpt><trkpt lat="42.444516962720876" lon="12.127028192299731"><ele>369.0</ele><time>2026-04-29T11:29:48Z</time></trkpt><trkpt lat="42.44437916821609" lon="12.126729126249332"><ele>368.5</ele><time>2026-04-29T11:29:49Z</time></trkpt><trkpt lat="42.4442449037265" lon="12.126430591011815"><ele>368.0</ele><time>2026-04-29T11:29:50Z</time></trkpt><trkpt lat="42.44411645445361" lon="12.12612765780474"><ele>368.0</ele><time>2026-04-29T11:29:51Z</time></trkpt><trkpt lat="42.443996289351645" lon="12.125820249449504"><ele>368.0</ele><time>2026-04-29T11:29:51.999Z</time></trkpt><trkpt lat="42.44388430711979" lon="12.125512391289371"><ele>365.0</ele><time>2026-04-29T11:29:52.999Z</time></trkpt><trkpt lat="42.443778415605706" lon="12.125194260399393"><ele>362.0</ele><time>2026-04-29T11:29:53.999Z</time></trkpt><trkpt lat="42.44367728981121" lon="12.12486554614196"><ele>361.5</ele><time>2026-04-29T11:29:54.999Z</time></trkpt><trkpt lat="42.443583294062265" lon="12.124534305738901"><ele>361.0</ele><time>2026-04-29T11:29:55.999Z</time></trkpt><trkpt lat="42.44349466577457" lon="12.124196754770201"><ele>359.5</ele><time>2026-04-29T11:29:57Z</time></trkpt><trkpt lat="42.44341079989173" lon="12.12385285580166"><ele>358.0</ele><time>2026-04-29T11:29:58Z</time></trkpt><trkpt lat="42.44333308536579" lon="12.123503523472213"><ele>355.0</ele><time>2026-04-29T11:29:59Z</time></trkpt><trkpt lat="42.443260339172525" lon="12.123146707246558"><ele>352.0</ele><time>2026-04-29T11:30:00Z</time></trkpt><trkpt lat="42.443187758305655" lon="12.122783785804762"><ele>352.0</ele><time>2026-04-29T11:30:01Z</time></trkpt><trkpt lat="42.443114966256104" lon="12.122418440535364"><ele>352.0</ele><time>2026-04-29T11:30:02Z</time></trkpt><trkpt lat="42.44304325638255" lon="12.122043789938534"><ele>352.5</ele><time>2026-04-29T11:30:03Z</time></trkpt><trkpt lat="42.44296981526374" lon="12.1216603803815"><ele>353.0</ele><time>2026-04-29T11:30:04Z</time></trkpt><trkpt lat="42.44289838410937" lon="12.121283121979507"><ele>353.0</ele><time>2026-04-29T11:30:05Z</time></trkpt><trkpt lat="42.44282401468542" lon="12.120895763235737"><ele>353.0</ele><time>2026-04-29T11:30:06Z</time></trkpt><trkpt lat="42.44274920653947" lon="12.1205117936857"><ele>356.5</ele><time>2026-04-29T11:30:07Z</time></trkpt><trkpt lat="42.44267290106087" lon="12.120129013954102"><ele>360.0</ele><time>2026-04-29T11:30:08Z</time></trkpt><trkpt lat="42.44259555627077" lon="12.119745445541971"><ele>360.5</ele><time>2026-04-29T11:30:09Z</time></trkpt><trkpt lat="42.44251522247533" lon="12.119353909177901"><ele>361.0</ele><time>2026-04-29T11:30:10Z</time></trkpt><trkpt lat="42.44243623890915" lon="12.118971995581582"><ele>361.0</ele><time>2026-04-29T11:30:11Z</time></trkpt><trkpt lat="42.44236345650706" lon="12.118586037424324"><ele>361.0</ele><time>2026-04-29T11:30:12Z</time></trkpt><trkpt lat="42.44229054054626" lon="12.11820180816771"><ele>360.5</ele><time>2026-04-29T11:30:13Z</time></trkpt><trkpt lat="42.44221632303446" lon="12.11782143641964"><ele>360.0</ele><time>2026-04-29T11:30:14Z</time></trkpt><trkpt lat="42.44214319140754" lon="12.117443105962876"><ele>360.0</ele><time>2026-04-29T11:30:15Z</time></trkpt><trkpt lat="42.44206937249055" lon="12.117066370388587"><ele>360.0</ele><time>2026-04-29T11:30:16Z</time></trkpt><trkpt lat="42.44199470697639" lon="12.116688560315675"><ele>359.5</ele><time>2026-04-29T11:30:17Z</time></trkpt><trkpt lat="42.44192141540486" lon="12.116310984149042"><ele>359.0</ele><time>2026-04-29T11:30:18Z</time></trkpt><trkpt lat="42.44185358217096" lon="12.115938786425698"><ele>359.0</ele><time>2026-04-29T11:30:19Z</time></trkpt><trkpt lat="42.44178829721141" lon="12.115568120808089"><ele>359.0</ele><time>2026-04-29T11:30:20Z</time></trkpt><trkpt lat="42.44172271376705" lon="12.115198005869686"><ele>359.0</ele><time>2026-04-29T11:30:21Z</time></trkpt><trkpt lat="42.441658091405046" lon="12.114828921579564"><ele>359.0</ele><time>2026-04-29T11:30:22Z</time></trkpt><trkpt lat="42.441593062066055" lon="12.11446458733739"><ele>359.0</ele><time>2026-04-29T11:30:23Z</time></trkpt><trkpt lat="42.441525742662186" lon="12.114101559501544"><ele>359.0</ele><time>2026-04-29T11:30:24Z</time></trkpt><trkpt lat="42.44145740250703" lon="12.113739085694972"><ele>357.0</ele><time>2026-04-29T11:30:25Z</time></trkpt><trkpt lat="42.441389798331265" lon="12.11337569178954"><ele>355.0</ele><time>2026-04-29T11:30:26Z</time></trkpt><trkpt lat="42.441320747715636" lon="12.113016548311567"><ele>354.0</ele><time>2026-04-29T11:30:27Z</time></trkpt><trkpt lat="42.44125260075128" lon="12.112659942981798"><ele>353.0</ele><time>2026-04-29T11:30:28Z</time></trkpt><trkpt lat="42.44118522945208" lon="12.112304770381863"><ele>351.0</ele><time>2026-04-29T11:30:29Z</time></trkpt><trkpt lat="42.44112315885322" lon="12.111952460619047"><ele>349.0</ele><time>2026-04-29T11:30:30Z</time></trkpt><trkpt lat="42.441068138761295" lon="12.111602317670075"><ele>347.5</ele><time>2026-04-29T11:30:31Z</time></trkpt><trkpt lat="42.44101933380603" lon="12.111254667327424"><ele>346.0</ele><time>2026-04-29T11:30:32Z</time></trkpt><trkpt lat="42.44097664446937" lon="12.11090524501738"><ele>345.5</ele><time>2026-04-29T11:30:33Z</time></trkpt><trkpt lat="42.440939893249" lon="12.110554820267772"><ele>345.0</ele><time>2026-04-29T11:30:34Z</time></trkpt><trkpt lat="42.440904688792706" lon="12.110201615676107"><ele>343.5</ele><time>2026-04-29T11:30:35Z</time></trkpt><trkpt lat="42.44087427389383" lon="12.109849198137761"><ele>342.0</ele><time>2026-04-29T11:30:36Z</time></trkpt><trkpt lat="42.44085085738016" lon="12.109499861340488"><ele>342.0</ele><time>2026-04-29T11:30:37Z</time></trkpt><trkpt lat="42.4408336763615" lon="12.109152905209674"><ele>342.0</ele><time>2026-04-29T11:30:38Z</time></trkpt><trkpt lat="42.440821185787875" lon="12.108801656776514"><ele>340.5</ele><time>2026-04-29T11:30:39Z</time></trkpt><trkpt lat="42.44081239292069" lon="12.108443447883028"><ele>339.0</ele><time>2026-04-29T11:30:40Z</time></trkpt><trkpt lat="42.44080372353581" lon="12.108081873750466"><ele>337.5</ele><time>2026-04-29T11:30:41Z</time></trkpt><trkpt lat="42.44079563720656" lon="12.107715758175594"><ele>336.0</ele><time>2026-04-29T11:30:42Z</time></trkpt><trkpt lat="42.44078895524442" lon="12.107348106799419"><ele>336.0</ele><time>2026-04-29T11:30:43Z</time></trkpt><trkpt lat="42.44078529366643" lon="12.10697560175143"><ele>336.0</ele><time>2026-04-29T11:30:44Z</time></trkpt><trkpt lat="42.4407798221837" lon="12.106597114398578"><ele>336.0</ele><time>2026-04-29T11:30:45Z</time></trkpt><trkpt lat="42.44077133408133" lon="12.106211346950847"><ele>336.0</ele><time>2026-04-29T11:30:46Z</time></trkpt><trkpt lat="42.44076581754566" lon="12.10582224450761"><ele>334.5</ele><time>2026-04-29T11:30:47Z</time></trkpt><trkpt lat="42.44076396487027" lon="12.105431395330497"><ele>333.0</ele><time>2026-04-29T11:30:48Z</time></trkpt><trkpt lat="42.4407634156777" lon="12.105042757492344"><ele>333.0</ele><time>2026-04-29T11:30:49Z</time></trkpt><trkpt lat="42.44076341975414" lon="12.104656714888453"><ele>333.0</ele><time>2026-04-29T11:30:50Z</time></trkpt><trkpt lat="42.440766689701086" lon="12.104274333767338"><ele>331.5</ele><time>2026-04-29T11:30:51Z</time></trkpt><trkpt lat="42.44077262055872" lon="12.10389654197199"><ele>330.0</ele><time>2026-04-29T11:30:52Z</time></trkpt><trkpt lat="42.440778214300856" lon="12.10351974270041"><ele>330.0</ele><time>2026-04-29T11:30:53Z</time></trkpt><trkpt lat="42.44077940286165" lon="12.103146082686072"><ele>330.0</ele><time>2026-04-29T11:30:54Z</time></trkpt><trkpt lat="42.44077564207561" lon="12.1027793296788"><ele>330.5</ele><time>2026-04-29T11:30:55Z</time></trkpt><trkpt lat="42.44077289287691" lon="12.102413881250929"><ele>331.0</ele><time>2026-04-29T11:30:56Z</time></trkpt><trkpt lat="42.44076647686061" lon="12.102051951007004"><ele>331.0</ele><time>2026-04-29T11:30:57Z</time></trkpt><trkpt lat="42.44075531398433" lon="12.101693331582776"><ele>331.0</ele><time>2026-04-29T11:30:58Z</time></trkpt><trkpt lat="42.440738880513315" lon="12.101335321129174"><ele>331.0</ele><time>2026-04-29T11:30:59Z</time></trkpt><trkpt lat="42.44071595753107" lon="12.100982642274817"><ele>331.0</ele><time>2026-04-29T11:31:00Z</time></trkpt><trkpt lat="42.4406874439545" lon="12.10062795017426"><ele>330.0</ele><time>2026-04-29T11:31:01Z</time></trkpt><trkpt lat="42.44065627760509" lon="12.100269229230786"><ele>329.0</ele><time>2026-04-29T11:31:02Z</time></trkpt><trkpt lat="42.440617624097065" lon="12.099908219867052"><ele>328.5</ele><time>2026-04-29T11:31:03Z</time></trkpt><trkpt lat="42.44057415410984" lon="12.099546857640902"><ele>328.0</ele><time>2026-04-29T11:31:04Z</time></trkpt><trkpt lat="42.44052648748446" lon="12.099190745858971"><ele>327.5</ele><time>2026-04-29T11:31:05Z</time></trkpt><trkpt lat="42.44047450665779" lon="12.098840111701872"><ele>327.0</ele><time>2026-04-29T11:31:06Z</time></trkpt><trkpt lat="42.44041338260448" lon="12.09849273913417"><ele>327.0</ele><time>2026-04-29T11:31:07Z</time></trkpt><trkpt lat="42.44034687612416" lon="12.098144290120166"><ele>327.0</ele><time>2026-04-29T11:31:08Z</time></trkpt><trkpt lat="42.440275546479974" lon="12.097793240404792"><ele>327.0</ele><time>2026-04-29T11:31:09Z</time></trkpt><trkpt lat="42.44020116314309" lon="12.097441846757643"><ele>327.0</ele><time>2026-04-29T11:31:10Z</time></trkpt><trkpt lat="42.4401217540091" lon="12.097090629250228"><ele>326.0</ele><time>2026-04-29T11:31:11Z</time></trkpt><trkpt lat="42.44003340645978" lon="12.09674065832653"><ele>325.0</ele><time>2026-04-29T11:31:12Z</time></trkpt><trkpt lat="42.43993720781788" lon="12.096391521089418"><ele>324.5</ele><time>2026-04-29T11:31:13Z</time></trkpt><trkpt lat="42.43983497792252" lon="12.096045916735358"><ele>324.0</ele><time>2026-04-29T11:31:14Z</time></trkpt><trkpt lat="42.439726794487676" lon="12.09569291357884"><ele>324.0</ele><time>2026-04-29T11:31:15Z</time></trkpt><trkpt lat="42.439611239631326" lon="12.095337513982736"><ele>324.0</ele><time>2026-04-29T11:31:16Z</time></trkpt><trkpt lat="42.43949315302953" lon="12.094982609848982"><ele>323.5</ele><time>2026-04-29T11:31:17Z</time></trkpt><trkpt lat="42.439367923021024" lon="12.0946303152416"><ele>323.0</ele><time>2026-04-29T11:31:18Z</time></trkpt><trkpt lat="42.43924102167674" lon="12.09429139258672"><ele>323.5</ele><time>2026-04-29T11:31:19Z</time></trkpt><trkpt lat="42.43911076334427" lon="12.093959736243916"><ele>324.0</ele><time>2026-04-29T11:31:20Z</time></trkpt><trkpt lat="42.43897925228293" lon="12.093636180139102"><ele>324.0</ele><time>2026-04-29T11:31:21Z</time></trkpt><trkpt lat="42.43884509111065" lon="12.093321137252044"><ele>324.0</ele><time>2026-04-29T11:31:22Z</time></trkpt><trkpt lat="42.43870593717901" lon="12.093016510644523"><ele>324.5</ele><time>2026-04-29T11:31:23Z</time></trkpt><trkpt lat="42.43856213469798" lon="12.092719633447619"><ele>325.0</ele><time>2026-04-29T11:31:24Z</time></trkpt><trkpt lat="42.43841851086876" lon="12.092427408648991"><ele>323.5</ele><time>2026-04-29T11:31:25Z</time></trkpt><trkpt lat="42.438273855529246" lon="12.092133089099423"><ele>322.0</ele><time>2026-04-29T11:31:26Z</time></trkpt><trkpt lat="42.438126842436105" lon="12.091841324442727"><ele>321.5</ele><time>2026-04-29T11:31:27Z</time></trkpt><trkpt lat="42.43797466194823" lon="12.091565766645536"><ele>321.0</ele><time>2026-04-29T11:31:28Z</time></trkpt><trkpt lat="42.43781817800338" lon="12.091321631503675"><ele>322.5</ele><time>2026-04-29T11:31:29Z</time></trkpt><trkpt lat="42.43764780575476" lon="12.091091242239957"><ele>324.0</ele><time>2026-04-29T11:31:30Z</time></trkpt><trkpt lat="42.43746764649009" lon="12.090862748717814"><ele>323.0</ele><time>2026-04-29T11:31:31Z</time></trkpt><trkpt lat="42.43728327238704" lon="12.090642584385716"><ele>322.0</ele><time>2026-04-29T11:31:32Z</time></trkpt><trkpt lat="42.437088302004746" lon="12.09042759130247"><ele>322.0</ele><time>2026-04-29T11:31:33Z</time></trkpt><trkpt lat="42.436886429034935" lon="12.090214215397465"><ele>322.0</ele><time>2026-04-29T11:31:34Z</time></trkpt><trkpt lat="42.436679615401665" lon="12.090000115830428"><ele>321.0</ele><time>2026-04-29T11:31:35Z</time></trkpt><trkpt lat="42.4364705517736" lon="12.089779174343086"><ele>320.0</ele><time>2026-04-29T11:31:36Z</time></trkpt><trkpt lat="42.43626361251256" lon="12.089559527083168"><ele>319.5</ele><time>2026-04-29T11:31:37Z</time></trkpt><trkpt lat="42.43605635435975" lon="12.08934295171663"><ele>319.0</ele><time>2026-04-29T11:31:38Z</time></trkpt><trkpt lat="42.435847913094236" lon="12.089124922043897"><ele>318.0</ele><time>2026-04-29T11:31:39Z</time></trkpt><trkpt lat="42.435638213548145" lon="12.08890554313137"><ele>317.0</ele><time>2026-04-29T11:31:40Z</time></trkpt><trkpt lat="42.43542905138692" lon="12.088684459795264"><ele>317.0</ele><time>2026-04-29T11:31:41Z</time></trkpt><trkpt lat="42.43522017512042" lon="12.08845969611529"><ele>317.0</ele><time>2026-04-29T11:31:42Z</time></trkpt><trkpt lat="42.435012342914334" lon="12.088238920406136"><ele>316.0</ele><time>2026-04-29T11:31:43Z</time></trkpt><trkpt lat="42.434815667236855" lon="12.08803533238789"><ele>315.0</ele><time>2026-04-29T11:31:44Z</time></trkpt><trkpt lat="42.43463047094323" lon="12.08784359898239"><ele>315.0</ele><time>2026-04-29T11:31:45Z</time></trkpt><trkpt lat="42.434451816617965" lon="12.087654419174186"><ele>315.0</ele><time>2026-04-29T11:31:46Z</time></trkpt><trkpt lat="42.43426811935463" lon="12.087464528024443"><ele>314.0</ele><time>2026-04-29T11:31:47Z</time></trkpt><trkpt lat="42.434082239737556" lon="12.087276612507296"><ele>313.0</ele><time>2026-04-29T11:31:47.999Z</time></trkpt><trkpt lat="42.433888610670884" lon="12.08708133802009"><ele>314.5</ele><time>2026-04-29T11:31:48.999Z</time></trkpt><trkpt lat="42.433689333847724" lon="12.086879102380035"><ele>316.0</ele><time>2026-04-29T11:31:49.999Z</time></trkpt><trkpt lat="42.43348475534499" lon="12.08667214187988"><ele>316.0</ele><time>2026-04-29T11:31:50.999Z</time></trkpt><trkpt lat="42.43327886211458" lon="12.086455456309132"><ele>316.0</ele><time>2026-04-29T11:31:51.999Z</time></trkpt><trkpt lat="42.43307467106839" lon="12.08623450032051"><ele>317.0</ele><time>2026-04-29T11:31:52.999Z</time></trkpt><trkpt lat="42.43287119012607" lon="12.08600875534118"><ele>318.0</ele><time>2026-04-29T11:31:53.999Z</time></trkpt><trkpt lat="42.432664899347394" lon="12.085779170985871"><ele>316.5</ele><time>2026-04-29T11:31:54.999Z</time></trkpt><trkpt lat="42.432455699534245" lon="12.085550305156621"><ele>315.0</ele><time>2026-04-29T11:31:55.999Z</time></trkpt><trkpt lat="42.4322441428513" lon="12.085324886508083"><ele>315.0</ele><time>2026-04-29T11:31:56.999Z</time></trkpt><trkpt lat="42.432032525063455" lon="12.085102117993003"><ele>315.0</ele><time>2026-04-29T11:31:57.999Z</time></trkpt><trkpt lat="42.431821744983495" lon="12.084884498009904"><ele>315.0</ele><time>2026-04-29T11:31:58.999Z</time></trkpt><trkpt lat="42.431610803073134" lon="12.08467351144185"><ele>315.0</ele><time>2026-04-29T11:31:59.999Z</time></trkpt><trkpt lat="42.43140115465326" lon="12.084467530295226"><ele>315.0</ele><time>2026-04-29T11:32:00.999Z</time></trkpt><trkpt lat="42.431191143955736" lon="12.08426705653561"><ele>315.0</ele><time>2026-04-29T11:32:02Z</time></trkpt><trkpt lat="42.43097761206444" lon="12.084069950617922"><ele>315.0</ele><time>2026-04-29T11:32:03Z</time></trkpt><trkpt lat="42.43076399073389" lon="12.083876111295389"><ele>315.0</ele><time>2026-04-29T11:32:04Z</time></trkpt><trkpt lat="42.43055192520285" lon="12.083687283477948"><ele>315.0</ele><time>2026-04-29T11:32:05Z</time></trkpt><trkpt lat="42.43033729780645" lon="12.08350224642981"><ele>315.0</ele><time>2026-04-29T11:32:06Z</time></trkpt><trkpt lat="42.43012187197646" lon="12.083323089077155"><ele>313.5</ele><time>2026-04-29T11:32:07Z</time></trkpt><trkpt lat="42.429906582252926" lon="12.083152059461302"><ele>312.0</ele><time>2026-04-29T11:32:08Z</time></trkpt><trkpt lat="42.42968971351846" lon="12.082986523989586"><ele>312.5</ele><time>2026-04-29T11:32:09Z</time></trkpt><trkpt lat="42.42947424733697" lon="12.082826175863778"><ele>313.0</ele><time>2026-04-29T11:32:10Z</time></trkpt><trkpt lat="42.42925806329149" lon="12.08266689543571"><ele>313.0</ele><time>2026-04-29T11:32:11Z</time></trkpt><trkpt lat="42.42904202604776" lon="12.082513683441539"><ele>313.0</ele><time>2026-04-29T11:32:12Z</time></trkpt><trkpt lat="42.42881980421519" lon="12.08236251991814"><ele>310.5</ele><time>2026-04-29T11:32:13Z</time></trkpt><trkpt lat="42.428589091036024" lon="12.08220913222732"><ele>308.0</ele><time>2026-04-29T11:32:14Z</time></trkpt><trkpt lat="42.428352942917705" lon="12.082058510791216"><ele>308.0</ele><time>2026-04-29T11:32:15Z</time></trkpt><trkpt lat="42.4281104260436" lon="12.081910753272181"><ele>308.0</ele><time>2026-04-29T11:32:16Z</time></trkpt><trkpt lat="42.427862734639106" lon="12.081767867758176"><ele>308.0</ele><time>2026-04-29T11:32:17Z</time></trkpt><trkpt lat="42.42760844250418" lon="12.081626289009122"><ele>308.0</ele><time>2026-04-29T11:32:18Z</time></trkpt><trkpt lat="42.42735123926875" lon="12.08148745837768"><ele>306.5</ele><time>2026-04-29T11:32:19Z</time></trkpt><trkpt lat="42.42709090385462" lon="12.081350477326072"><ele>305.0</ele><time>2026-04-29T11:32:20Z</time></trkpt><trkpt lat="42.42682919449364" lon="12.081220489855735"><ele>305.0</ele><time>2026-04-29T11:32:21Z</time></trkpt><trkpt lat="42.42657616779125" lon="12.081098246419739"><ele>305.0</ele><time>2026-04-29T11:32:22Z</time></trkpt><trkpt lat="42.42632722627962" lon="12.080988642976724"><ele>304.5</ele><time>2026-04-29T11:32:23Z</time></trkpt><trkpt lat="42.426079076980805" lon="12.08088688367712"><ele>304.0</ele><time>2026-04-29T11:32:24Z</time></trkpt><trkpt lat="42.42583283416764" lon="12.08078643910335"><ele>303.5</ele><time>2026-04-29T11:32:25Z</time></trkpt><trkpt lat="42.425589648635956" lon="12.080688659964515"><ele>303.0</ele><time>2026-04-29T11:32:26Z</time></trkpt><trkpt lat="42.42534593246599" lon="12.080592151014782"><ele>302.0</ele><time>2026-04-29T11:32:27Z</time></trkpt><trkpt lat="42.425100562191666" lon="12.080497000452695"><ele>301.0</ele><time>2026-04-29T11:32:28Z</time></trkpt><trkpt lat="42.42485592041096" lon="12.080399354127719"><ele>300.5</ele><time>2026-04-29T11:32:29Z</time></trkpt><trkpt lat="42.4246103499766" lon="12.080301351299141"><ele>300.0</ele><time>2026-04-29T11:32:30Z</time></trkpt><trkpt lat="42.42436205632769" lon="12.080204650551662"><ele>300.0</ele><time>2026-04-29T11:32:31Z</time></trkpt><trkpt lat="42.42411123764795" lon="12.08010623482582"><ele>300.0</ele><time>2026-04-29T11:32:32Z</time></trkpt><trkpt lat="42.42385705661702" lon="12.080007947945806"><ele>299.5</ele><time>2026-04-29T11:32:33Z</time></trkpt><trkpt lat="42.42360161741511" lon="12.079905786728522"><ele>299.0</ele><time>2026-04-29T11:32:34Z</time></trkpt><trkpt lat="42.42334323324266" lon="12.079797205466756"><ele>299.0</ele><time>2026-04-29T11:32:35Z</time></trkpt><trkpt lat="42.423084253253876" lon="12.079690723082948"><ele>299.0</ele><time>2026-04-29T11:32:36Z</time></trkpt><trkpt lat="42.422824288757965" lon="12.079587501628781"><ele>297.5</ele><time>2026-04-29T11:32:37Z</time></trkpt><trkpt lat="42.422563880502764" lon="12.079485314190372"><ele>296.0</ele><time>2026-04-29T11:32:38Z</time></trkpt><trkpt lat="42.42230840714501" lon="12.07938701405323"><ele>296.5</ele><time>2026-04-29T11:32:39Z</time></trkpt><trkpt lat="42.42206305289891" lon="12.079291428612443"><ele>297.0</ele><time>2026-04-29T11:32:40Z</time></trkpt><trkpt lat="42.42183093327329" lon="12.079199441028162"><ele>297.0</ele><time>2026-04-29T11:32:41Z</time></trkpt><trkpt lat="42.421607102420175" lon="12.079110946420501"><ele>297.0</ele><time>2026-04-29T11:32:42Z</time></trkpt><trkpt lat="42.421380321262106" lon="12.07902625990274"><ele>295.3333333333333</ele><time>2026-04-29T11:32:43Z</time></trkpt><trkpt lat="42.421163667448475" lon="12.078942866047598"><ele>293.66666666666663</ele><time>2026-04-29T11:32:44Z</time></trkpt><trkpt lat="42.42095606621267" lon="12.078862701016034"><ele>292.0</ele><time>2026-04-29T11:32:45Z</time></trkpt><trkpt lat="42.420756647643366" lon="12.078787216708877"><ele>292.0</ele><time>2026-04-29T11:32:46Z</time></trkpt><trkpt lat="42.42055424870917" lon="12.078712745070552"><ele>292.0</ele><time>2026-04-29T11:32:47Z</time></trkpt><trkpt lat="42.42035558741871" lon="12.078640036174082"><ele>292.0</ele><time>2026-04-29T11:32:48Z</time></trkpt><trkpt lat="42.420173146137095" lon="12.07856980723957"><ele>292.3333333333333</ele><time>2026-04-29T11:32:49Z</time></trkpt><trkpt lat="42.42001495827696" lon="12.07850629893763"><ele>292.6666666666667</ele><time>2026-04-29T11:32:50Z</time></trkpt><trkpt lat="42.41986498462952" lon="12.078445610039077"><ele>293.0</ele><time>2026-04-29T11:32:51Z</time></trkpt><trkpt lat="42.419714507972486" lon="12.078386283372634"><ele>292.5</ele><time>2026-04-29T11:32:52Z</time></trkpt><trkpt lat="42.4195698704454" lon="12.078331142401963"><ele>292.0</ele><time>2026-04-29T11:32:53Z</time></trkpt><trkpt lat="42.41943127395475" lon="12.078277973949167"><ele>291.5</ele><time>2026-04-29T11:32:54Z</time></trkpt><trkpt lat="42.41928689296822" lon="12.078219623152306"><ele>291.0</ele><time>2026-04-29T11:32:55Z</time></trkpt><trkpt lat="42.41913113224425" lon="12.07815591559772"><ele>290.3333333333333</ele><time>2026-04-29T11:32:56Z</time></trkpt><trkpt lat="42.41896479614304" lon="12.078088398458743"><ele>289.66666666666663</ele><time>2026-04-29T11:32:57Z</time></trkpt><trkpt lat="42.41879073760793" lon="12.078019241120069"><ele>289.0</ele><time>2026-04-29T11:32:58Z</time></trkpt><trkpt lat="42.41861156347151" lon="12.077947069908216"><ele>288.3333333333333</ele><time>2026-04-29T11:32:59Z</time></trkpt><trkpt lat="42.41844307712617" lon="12.077879521543005"><ele>287.6666666666667</ele><time>2026-04-29T11:33:00Z</time></trkpt><trkpt lat="42.418279469112335" lon="12.077813550822244"><ele>287.0</ele><time>2026-04-29T11:33:01Z</time></trkpt><trkpt lat="42.41811850521959" lon="12.077747238918512"><ele>284.6666666666667</ele><time>2026-04-29T11:33:02Z</time></trkpt><trkpt lat="42.417950517438626" lon="12.077679714704562"><ele>282.3333333333333</ele><time>2026-04-29T11:33:03Z</time></trkpt><trkpt lat="42.41776830429034" lon="12.077606214640877"><ele>280.0</ele><time>2026-04-29T11:33:04Z</time></trkpt><trkpt lat="42.417589889175495" lon="12.077536201632492"><ele>280.0</ele><time>2026-04-29T11:33:05Z</time></trkpt><trkpt lat="42.41741417613359" lon="12.077468373770657"><ele>280.0</ele><time>2026-04-29T11:33:06Z</time></trkpt><trkpt lat="42.417234933294914" lon="12.077390984744886"><ele>280.0</ele><time>2026-04-29T11:33:07Z</time></trkpt><trkpt lat="42.417051826276825" lon="12.07731488399723"><ele>276.66666666666663</ele><time>2026-04-29T11:33:08Z</time></trkpt><trkpt lat="42.41686801308216" lon="12.077237507385282"><ele>273.3333333333333</ele><time>2026-04-29T11:33:09Z</time></trkpt><trkpt lat="42.416682713938606" lon="12.077151128568662"><ele>270.0</ele><time>2026-04-29T11:33:10Z</time></trkpt><trkpt lat="42.41649726571535" lon="12.077054552129203"><ele>272.0</ele><time>2026-04-29T11:33:11Z</time></trkpt><trkpt lat="42.41631059674761" lon="12.076954470986069"><ele>274.0</ele><time>2026-04-29T11:33:12Z</time></trkpt><trkpt lat="42.41612350998204" lon="12.076856310194371"><ele>276.0</ele><time>2026-04-29T11:33:13Z</time></trkpt><trkpt lat="42.41594020733944" lon="12.07675816814113"><ele>276.0</ele><time>2026-04-29T11:33:14Z</time></trkpt><trkpt lat="42.41575663324512" lon="12.076658136877217"><ele>276.0</ele><time>2026-04-29T11:33:15Z</time></trkpt><trkpt lat="42.41557380935954" lon="12.076555225604107"><ele>276.0</ele><time>2026-04-29T11:33:16Z</time></trkpt><trkpt lat="42.415389260400545" lon="12.076450196190885"><ele>279.0</ele><time>2026-04-29T11:33:17Z</time></trkpt><trkpt lat="42.41520441107159" lon="12.076340556403574"><ele>282.0</ele><time>2026-04-29T11:33:18Z</time></trkpt><trkpt lat="42.41501747720337" lon="12.07622416365086"><ele>285.0</ele><time>2026-04-29T11:33:19Z</time></trkpt><trkpt lat="42.414831717183525" lon="12.076104893351612"><ele>284.6666666666667</ele><time>2026-04-29T11:33:20Z</time></trkpt><trkpt lat="42.414642834861134" lon="12.075983640364234"><ele>284.33333333333337</ele><time>2026-04-29T11:33:21Z</time></trkpt><trkpt lat="42.41445252785933" lon="12.075857275727357"><ele>284.0</ele><time>2026-04-29T11:33:22Z</time></trkpt><trkpt lat="42.41426088208707" lon="12.075726063745883"><ele>284.0</ele><time>2026-04-29T11:33:23Z</time></trkpt><trkpt lat="42.41406738205028" lon="12.075593547162024"><ele>284.0</ele><time>2026-04-29T11:33:24Z</time></trkpt><trkpt lat="42.41387507585455" lon="12.075461571707864"><ele>284.0</ele><time>2026-04-29T11:33:25Z</time></trkpt><trkpt lat="42.41368000473973" lon="12.075323340003788"><ele>282.0</ele><time>2026-04-29T11:33:26Z</time></trkpt><trkpt lat="42.41348227695126" lon="12.075182360327599"><ele>280.0</ele><time>2026-04-29T11:33:27Z</time></trkpt><trkpt lat="42.41328308212945" lon="12.075041412343902"><ele>278.0</ele><time>2026-04-29T11:33:28Z</time></trkpt><trkpt lat="42.41308256320362" lon="12.074898884896141"><ele>276.0</ele><time>2026-04-29T11:33:29Z</time></trkpt><trkpt lat="42.41288062757199" lon="12.074753810914695"><ele>274.0</ele><time>2026-04-29T11:33:30Z</time></trkpt><trkpt lat="42.41267679860827" lon="12.074610886161514"><ele>274.0</ele><time>2026-04-29T11:33:31Z</time></trkpt><trkpt lat="42.412471705244094" lon="12.074465564346049"><ele>274.0</ele><time>2026-04-29T11:33:32Z</time></trkpt><trkpt lat="42.412266280648986" lon="12.074320892239916"><ele>273.66666666666663</ele><time>2026-04-29T11:33:33Z</time></trkpt><trkpt lat="42.41206439208107" lon="12.074178432625352"><ele>273.3333333333333</ele><time>2026-04-29T11:33:34Z</time></trkpt><trkpt lat="42.41187049629234" lon="12.074040236386859"><ele>273.0</ele><time>2026-04-29T11:33:35Z</time></trkpt><trkpt lat="42.411677654068434" lon="12.073903150982977"><ele>273.0</ele><time>2026-04-29T11:33:36Z</time></trkpt><trkpt lat="42.41148348726749" lon="12.073765637520237"><ele>273.0</ele><time>2026-04-29T11:33:37Z</time></trkpt><trkpt lat="42.41128969019318" lon="12.073629349372307"><ele>273.0</ele><time>2026-04-29T11:33:38Z</time></trkpt><trkpt lat="42.41109574440131" lon="12.07349457385885"><ele>272.5</ele><time>2026-04-29T11:33:39Z</time></trkpt><trkpt lat="42.410896284010896" lon="12.07335607539278"><ele>272.0</ele><time>2026-04-29T11:33:40Z</time></trkpt><trkpt lat="42.41069404310098" lon="12.073216696680731"><ele>272.0</ele><time>2026-04-29T11:33:41Z</time></trkpt><trkpt lat="42.4104890867578" lon="12.073075670473116"><ele>272.0</ele><time>2026-04-29T11:33:42Z</time></trkpt><trkpt lat="42.41028327175493" lon="12.072927871248892"><ele>272.0</ele><time>2026-04-29T11:33:43Z</time></trkpt><trkpt lat="42.410074259463705" lon="12.072777037105869"><ele>272.0</ele><time>2026-04-29T11:33:44Z</time></trkpt><trkpt lat="42.40986517028299" lon="12.072628484044843"><ele>272.0</ele><time>2026-04-29T11:33:45Z</time></trkpt><trkpt lat="42.409664621628984" lon="12.072488448067295"><ele>272.0</ele><time>2026-04-29T11:33:46Z</time></trkpt><trkpt lat="42.40946159709825" lon="12.0723485977481"><ele>271.0</ele><time>2026-04-29T11:33:47Z</time></trkpt><trkpt lat="42.40925730791081" lon="12.072207686227138"><ele>270.0</ele><time>2026-04-29T11:33:48Z</time></trkpt><trkpt lat="42.40904990769694" lon="12.072062873706763"><ele>270.0</ele><time>2026-04-29T11:33:49Z</time></trkpt><trkpt lat="42.4088384710804" lon="12.071912590900697"><ele>270.0</ele><time>2026-04-29T11:33:50Z</time></trkpt><trkpt lat="42.4086235401298" lon="12.071759131277558"><ele>266.5</ele><time>2026-04-29T11:33:51Z</time></trkpt><trkpt lat="42.408407047361855" lon="12.071601662460681"><ele>263.0</ele><time>2026-04-29T11:33:51.999Z</time></trkpt><trkpt lat="42.40819217192859" lon="12.07144213838251"><ele>263.0</ele><time>2026-04-29T11:33:52.999Z</time></trkpt><trkpt lat="42.40798085867157" lon="12.0712820572871"><ele>263.0</ele><time>2026-04-29T11:33:53.999Z</time></trkpt><trkpt lat="42.407770034250355" lon="12.071120654518984"><ele>263.0</ele><time>2026-04-29T11:33:54.999Z</time></trkpt><trkpt lat="42.407564671472564" lon="12.070964478509728"><ele>263.0</ele><time>2026-04-29T11:33:55.999Z</time></trkpt><trkpt lat="42.4073625033888" lon="12.070809673238452"><ele>264.5</ele><time>2026-04-29T11:33:56.999Z</time></trkpt><trkpt lat="42.40715721259628" lon="12.07065372199828"><ele>266.0</ele><time>2026-04-29T11:33:57.999Z</time></trkpt><trkpt lat="42.40695168017495" lon="12.07049698699951"><ele>266.0</ele><time>2026-04-29T11:33:58.999Z</time></trkpt><trkpt lat="42.40674784318716" lon="12.07033937114612"><ele>266.0</ele><time>2026-04-29T11:33:59.999Z</time></trkpt><trkpt lat="42.40654713282561" lon="12.070182184579563"><ele>266.0</ele><time>2026-04-29T11:34:00.999Z</time></trkpt><trkpt lat="42.4063572925051" lon="12.070034094468221"><ele>266.0</ele><time>2026-04-29T11:34:01.999Z</time></trkpt><trkpt lat="42.40617235787029" lon="12.069889093691351"><ele>266.0</ele><time>2026-04-29T11:34:02.999Z</time></trkpt><trkpt lat="42.40598321113446" lon="12.069740574496773"><ele>262.6666666666667</ele><time>2026-04-29T11:34:03.999Z</time></trkpt><trkpt lat="42.405798400575016" lon="12.069595783868074"><ele>259.3333333333333</ele><time>2026-04-29T11:34:04.999Z</time></trkpt><trkpt lat="42.40562260565255" lon="12.069459530194589"><ele>256.0</ele><time>2026-04-29T11:34:05.999Z</time></trkpt><trkpt lat="42.40544455948173" lon="12.069321779697548"><ele>252.33333333333331</ele><time>2026-04-29T11:34:06.999Z</time></trkpt><trkpt lat="42.405264556358716" lon="12.069184482042363"><ele>248.66666666666669</ele><time>2026-04-29T11:34:08Z</time></trkpt><trkpt lat="42.405079914041906" lon="12.069042669979517"><ele>245.0</ele><time>2026-04-29T11:34:09Z</time></trkpt><trkpt lat="42.40489150321732" lon="12.068899888168321"><ele>244.33333333333334</ele><time>2026-04-29T11:34:10Z</time></trkpt><trkpt lat="42.40469873913952" lon="12.068760296450074"><ele>243.66666666666669</ele><time>2026-04-29T11:34:11Z</time></trkpt><trkpt lat="42.404501262021085" lon="12.068624963717427"><ele>243.0</ele><time>2026-04-29T11:34:12Z</time></trkpt><trkpt lat="42.40430087516419" lon="12.068493948168056"><ele>245.0</ele><time>2026-04-29T11:34:13Z</time></trkpt><trkpt lat="42.40409685076571" lon="12.068363350613021"><ele>247.0</ele><time>2026-04-29T11:34:14Z</time></trkpt><trkpt lat="42.40388813610376" lon="12.068235326220035"><ele>253.5</ele><time>2026-04-29T11:34:15Z</time></trkpt><trkpt lat="42.403676441265006" lon="12.068110658759736"><ele>260.0</ele><time>2026-04-29T11:34:16Z</time></trkpt><trkpt lat="42.40347126366535" lon="12.06799691990073"><ele>260.0</ele><time>2026-04-29T11:34:17Z</time></trkpt><trkpt lat="42.403268376852495" lon="12.067891391308898"><ele>260.0</ele><time>2026-04-29T11:34:18Z</time></trkpt><trkpt lat="42.40305284776362" lon="12.06778665338719"><ele>260.0</ele><time>2026-04-29T11:34:19Z</time></trkpt><trkpt lat="42.40283065455379" lon="12.067683991095471"><ele>263.5</ele><time>2026-04-29T11:34:20Z</time></trkpt><trkpt lat="42.4026044093572" lon="12.067582802510465"><ele>267.0</ele><time>2026-04-29T11:34:21Z</time></trkpt><trkpt lat="42.40237141027169" lon="12.067476253655702"><ele>266.5</ele><time>2026-04-29T11:34:22Z</time></trkpt><trkpt lat="42.402129266777706" lon="12.06735971904448"><ele>266.0</ele><time>2026-04-29T11:34:23Z</time></trkpt><trkpt lat="42.40188360796957" lon="12.06723259186524"><ele>266.0</ele><time>2026-04-29T11:34:24Z</time></trkpt><trkpt lat="42.401635019862844" lon="12.06710348360522"><ele>266.0</ele><time>2026-04-29T11:34:25Z</time></trkpt><trkpt lat="42.401380738093735" lon="12.066975362300578"><ele>263.5</ele><time>2026-04-29T11:34:26Z</time></trkpt><trkpt lat="42.40112015653581" lon="12.06684517643306"><ele>261.0</ele><time>2026-04-29T11:34:27Z</time></trkpt><trkpt lat="42.4008539113153" lon="12.066711506400628"><ele>261.5</ele><time>2026-04-29T11:34:28Z</time></trkpt><trkpt lat="42.400587217081906" lon="12.066578170424462"><ele>262.0</ele><time>2026-04-29T11:34:29Z</time></trkpt><trkpt lat="42.40031573219298" lon="12.0664417309263"><ele>256.5</ele><time>2026-04-29T11:34:30Z</time></trkpt><trkpt lat="42.40004170234477" lon="12.06630387395342"><ele>251.0</ele><time>2026-04-29T11:34:31Z</time></trkpt><trkpt lat="42.399766230385126" lon="12.066165552053285"><ele>249.5</ele><time>2026-04-29T11:34:32Z</time></trkpt><trkpt lat="42.39949039797851" lon="12.066028111643165"><ele>248.0</ele><time>2026-04-29T11:34:33Z</time></trkpt><trkpt lat="42.39921409121958" lon="12.0658893545974"><ele>247.5</ele><time>2026-04-29T11:34:34Z</time></trkpt><trkpt lat="42.39893799390192" lon="12.065748520769548"><ele>247.0</ele><time>2026-04-29T11:34:35Z</time></trkpt><trkpt lat="42.39866048125334" lon="12.06560789134199"><ele>247.0</ele><time>2026-04-29T11:34:36Z</time></trkpt><trkpt lat="42.39838175468036" lon="12.065467242735863"><ele>247.0</ele><time>2026-04-29T11:34:37Z</time></trkpt><trkpt lat="42.398104411388886" lon="12.065327625878796"><ele>247.5</ele><time>2026-04-29T11:34:38Z</time></trkpt><trkpt lat="42.39783112156443" lon="12.065184251045746"><ele>248.0</ele><time>2026-04-29T11:34:39Z</time></trkpt><trkpt lat="42.39756325307713" lon="12.065038230022143"><ele>247.5</ele><time>2026-04-29T11:34:40Z</time></trkpt><trkpt lat="42.39729827838934" lon="12.064895774862716"><ele>247.0</ele><time>2026-04-29T11:34:41Z</time></trkpt><trkpt lat="42.39703595161047" lon="12.06475381991374"><ele>248.5</ele><time>2026-04-29T11:34:42Z</time></trkpt><trkpt lat="42.39677255379937" lon="12.064615390131026"><ele>250.0</ele><time>2026-04-29T11:34:43Z</time></trkpt><trkpt lat="42.39650870141344" lon="12.064479884668676"><ele>252.5</ele><time>2026-04-29T11:34:44Z</time></trkpt><trkpt lat="42.396243923311474" lon="12.06434276372673"><ele>255.0</ele><time>2026-04-29T11:34:45Z</time></trkpt><trkpt lat="42.39598488588109" lon="12.064209467134686"><ele>254.0</ele><time>2026-04-29T11:34:46Z</time></trkpt><trkpt lat="42.39572838224632" lon="12.06407661789521"><ele>253.0</ele><time>2026-04-29T11:34:47Z</time></trkpt><trkpt lat="42.39547178421898" lon="12.063943107226155"><ele>253.0</ele><time>2026-04-29T11:34:48Z</time></trkpt><trkpt lat="42.39521578390176" lon="12.063808138589833"><ele>253.0</ele><time>2026-04-29T11:34:49Z</time></trkpt><trkpt lat="42.39495839337549" lon="12.063669884978534"><ele>253.0</ele><time>2026-04-29T11:34:50Z</time></trkpt><trkpt lat="42.39470069926085" lon="12.063531217461767"><ele>253.0</ele><time>2026-04-29T11:34:51Z</time></trkpt><trkpt lat="42.394442096385546" lon="12.063390742914569"><ele>252.5</ele><time>2026-04-29T11:34:52Z</time></trkpt><trkpt lat="42.394182923320095" lon="12.063247931659772"><ele>252.0</ele><time>2026-04-29T11:34:53Z</time></trkpt><trkpt lat="42.39393014958562" lon="12.063105107105102"><ele>250.5</ele><time>2026-04-29T11:34:54Z</time></trkpt><trkpt lat="42.393695462526715" lon="12.062966844110678"><ele>249.0</ele><time>2026-04-29T11:34:55Z</time></trkpt><trkpt lat="42.393472248442635" lon="12.062835626784699"><ele>249.0</ele><time>2026-04-29T11:34:56Z</time></trkpt><trkpt lat="42.393260977620656" lon="12.062711328825209"><ele>249.0</ele><time>2026-04-29T11:34:57Z</time></trkpt><trkpt lat="42.393045610624704" lon="12.062585514785614"><ele>249.5</ele><time>2026-04-29T11:34:58Z</time></trkpt><trkpt lat="42.392826802968905" lon="12.062455297708452"><ele>250.0</ele><time>2026-04-29T11:34:59Z</time></trkpt><trkpt lat="42.392608582349105" lon="12.062321953937223"><ele>249.0</ele><time>2026-04-29T11:35:00Z</time></trkpt><trkpt lat="42.39239287368975" lon="12.062188420914536"><ele>248.0</ele><time>2026-04-29T11:35:01Z</time></trkpt><trkpt lat="42.39217840509011" lon="12.062054466096658"><ele>247.0</ele><time>2026-04-29T11:35:02Z</time></trkpt><trkpt lat="42.39196277665807" lon="12.061920173147241"><ele>246.0</ele><time>2026-04-29T11:35:03Z</time></trkpt><trkpt lat="42.39174554827194" lon="12.061786429248103"><ele>246.0</ele><time>2026-04-29T11:35:04Z</time></trkpt><trkpt lat="42.39152842943564" lon="12.061654503272695"><ele>246.0</ele><time>2026-04-29T11:35:05Z</time></trkpt><trkpt lat="42.3913098117056" lon="12.061523122593066"><ele>244.5</ele><time>2026-04-29T11:35:06Z</time></trkpt><trkpt lat="42.3910906020978" lon="12.061390455606446"><ele>243.0</ele><time>2026-04-29T11:35:07Z</time></trkpt><trkpt lat="42.39087056045089" lon="12.06125823921324"><ele>243.0</ele><time>2026-04-29T11:35:08Z</time></trkpt><trkpt lat="42.390651537673875" lon="12.061124759161407"><ele>243.0</ele><time>2026-04-29T11:35:09Z</time></trkpt><trkpt lat="42.3904329251318" lon="12.060993332441846"><ele>243.0</ele><time>2026-04-29T11:35:10Z</time></trkpt><trkpt lat="42.39021299829012" lon="12.060859083693183"><ele>243.0</ele><time>2026-04-29T11:35:11Z</time></trkpt><trkpt lat="42.38999146337451" lon="12.060725007746356"><ele>243.0</ele><time>2026-04-29T11:35:12Z</time></trkpt><trkpt lat="42.38976827751883" lon="12.06059114520596"><ele>243.0</ele><time>2026-04-29T11:35:13Z</time></trkpt><trkpt lat="42.38954551038597" lon="12.060456555096382"><ele>243.0</ele><time>2026-04-29T11:35:14Z</time></trkpt><trkpt lat="42.389322276860554" lon="12.060317734977573"><ele>243.0</ele><time>2026-04-29T11:35:15Z</time></trkpt><trkpt lat="42.38909888364667" lon="12.060178172181704"><ele>243.0</ele><time>2026-04-29T11:35:16Z</time></trkpt><trkpt lat="42.38887564611964" lon="12.060040577868419"><ele>243.0</ele><time>2026-04-29T11:35:17Z</time></trkpt><trkpt lat="42.38865200411686" lon="12.059904111312479"><ele>244.0</ele><time>2026-04-29T11:35:18Z</time></trkpt><trkpt lat="42.38842675153085" lon="12.05976731143743"><ele>245.0</ele><time>2026-04-29T11:35:19Z</time></trkpt><trkpt lat="42.38820313746933" lon="12.059632072432036"><ele>245.5</ele><time>2026-04-29T11:35:20Z</time></trkpt><trkpt lat="42.38797984698257" lon="12.059498437098002"><ele>246.0</ele><time>2026-04-29T11:35:21Z</time></trkpt><trkpt lat="42.38775932581519" lon="12.059364569013665"><ele>246.0</ele><time>2026-04-29T11:35:22Z</time></trkpt><trkpt lat="42.3875398622805" lon="12.059230354844736"><ele>246.0</ele><time>2026-04-29T11:35:23Z</time></trkpt><trkpt lat="42.387321339190535" lon="12.059098138279957"><ele>246.5</ele><time>2026-04-29T11:35:24Z</time></trkpt><trkpt lat="42.38710677924047" lon="12.058968822761225"><ele>247.0</ele><time>2026-04-29T11:35:25Z</time></trkpt><trkpt lat="42.38689145698419" lon="12.058839520850418"><ele>247.0</ele><time>2026-04-29T11:35:26Z</time></trkpt><trkpt lat="42.38667800559845" lon="12.05871470708693"><ele>247.0</ele><time>2026-04-29T11:35:27Z</time></trkpt><trkpt lat="42.38646563726805" lon="12.058594683518297"><ele>247.0</ele><time>2026-04-29T11:35:28Z</time></trkpt><trkpt lat="42.38625501178225" lon="12.058474294193845"><ele>247.0</ele><time>2026-04-29T11:35:29Z</time></trkpt><trkpt lat="42.38604729080895" lon="12.05835398861628"><ele>246.33333333333331</ele><time>2026-04-29T11:35:30Z</time></trkpt><trkpt lat="42.38584186641999" lon="12.05823382190111"><ele>245.66666666666669</ele><time>2026-04-29T11:35:31Z</time></trkpt><trkpt lat="42.38563669129128" lon="12.05811568043635"><ele>245.0</ele><time>2026-04-29T11:35:32Z</time></trkpt><trkpt lat="42.38543193163473" lon="12.058000183553716"><ele>245.0</ele><time>2026-04-29T11:35:33Z</time></trkpt><trkpt lat="42.38522702502886" lon="12.057888691405575"><ele>245.0</ele><time>2026-04-29T11:35:34Z</time></trkpt><trkpt lat="42.385024384252546" lon="12.057778037343569"><ele>245.0</ele><time>2026-04-29T11:35:35Z</time></trkpt><trkpt lat="42.38482282278107" lon="12.05766896947491"><ele>245.0</ele><time>2026-04-29T11:35:36Z</time></trkpt><trkpt lat="42.384622007202026" lon="12.057559297344982"><ele>245.0</ele><time>2026-04-29T11:35:37Z</time></trkpt><trkpt lat="42.38442005964716" lon="12.057451739671757"><ele>245.0</ele><time>2026-04-29T11:35:38Z</time></trkpt><trkpt lat="42.38421598946737" lon="12.057343381464035"><ele>245.0</ele><time>2026-04-29T11:35:38.999Z</time></trkpt><trkpt lat="42.38400976760104" lon="12.057235617964343"><ele>245.0</ele><time>2026-04-29T11:35:39.999Z</time></trkpt><trkpt lat="42.383805244421914" lon="12.057127137397275"><ele>245.0</ele><time>2026-04-29T11:35:40.999Z</time></trkpt><trkpt lat="42.38360014243988" lon="12.057015924425947"><ele>245.0</ele><time>2026-04-29T11:35:41.999Z</time></trkpt><trkpt lat="42.38339199556876" lon="12.056903108307642"><ele>245.0</ele><time>2026-04-29T11:35:42.999Z</time></trkpt><trkpt lat="42.383180082930565" lon="12.056788782674555"><ele>245.5</ele><time>2026-04-29T11:35:43.999Z</time></trkpt><trkpt lat="42.38296458626037" lon="12.05667733874298"><ele>246.0</ele><time>2026-04-29T11:35:44.999Z</time></trkpt><trkpt lat="42.382748062614446" lon="12.056565783004375"><ele>244.0</ele><time>2026-04-29T11:35:45.999Z</time></trkpt><trkpt lat="42.38253077754757" lon="12.056451499161563"><ele>242.0</ele><time>2026-04-29T11:35:46.999Z</time></trkpt><trkpt lat="42.382311504531884" lon="12.05633531563018"><ele>242.5</ele><time>2026-04-29T11:35:47.999Z</time></trkpt><trkpt lat="42.38209390362237" lon="12.056222227601106"><ele>243.0</ele><time>2026-04-29T11:35:48.999Z</time></trkpt><trkpt lat="42.38188286175736" lon="12.056111604433971"><ele>243.0</ele><time>2026-04-29T11:35:49.999Z</time></trkpt><trkpt lat="42.38168341669986" lon="12.05600571909953"><ele>243.0</ele><time>2026-04-29T11:35:50.999Z</time></trkpt><trkpt lat="42.38149219435551" lon="12.05590244062626"><ele>243.0</ele><time>2026-04-29T11:35:51.999Z</time></trkpt><trkpt lat="42.3812993639446" lon="12.055800298326817"><ele>242.0</ele><time>2026-04-29T11:35:52.999Z</time></trkpt><trkpt lat="42.38110627447037" lon="12.055697761586936"><ele>241.0</ele><time>2026-04-29T11:35:53.999Z</time></trkpt><trkpt lat="42.38091336661686" lon="12.055598237338188"><ele>240.0</ele><time>2026-04-29T11:35:54.999Z</time></trkpt><trkpt lat="42.38072802580866" lon="12.055502242771428"><ele>240.0</ele><time>2026-04-29T11:35:55.999Z</time></trkpt><trkpt lat="42.3805513737208" lon="12.055411524556101"><ele>240.0</ele><time>2026-04-29T11:35:56.999Z</time></trkpt><trkpt lat="42.38038391691903" lon="12.055319826384565"><ele>240.0</ele><time>2026-04-29T11:35:57.999Z</time></trkpt><trkpt lat="42.38021399515899" lon="12.055233103440804"><ele>239.0</ele><time>2026-04-29T11:35:58.999Z</time></trkpt><trkpt lat="42.38003788963184" lon="12.055144713255277"><ele>238.0</ele><time>2026-04-29T11:35:59.999Z</time></trkpt><trkpt lat="42.379856910764445" lon="12.05505190382929"><ele>237.0</ele><time>2026-04-29T11:36:00.999Z</time></trkpt><trkpt lat="42.37967378695618" lon="12.05495430401514"><ele>237.33333333333331</ele><time>2026-04-29T11:36:01.999Z</time></trkpt><trkpt lat="42.37948747374775" lon="12.054852680262986"><ele>237.66666666666666</ele><time>2026-04-29T11:36:02.999Z</time></trkpt><trkpt lat="42.379298092353835" lon="12.054749227067548"><ele>238.0</ele><time>2026-04-29T11:36:03.999Z</time></trkpt><trkpt lat="42.37910639591386" lon="12.05464176109843"><ele>238.0</ele><time>2026-04-29T11:36:04.999Z</time></trkpt><trkpt lat="42.37891991002127" lon="12.054538526886818"><ele>238.0</ele><time>2026-04-29T11:36:05.999Z</time></trkpt><trkpt lat="42.37875249930207" lon="12.054447111468248"><ele>238.0</ele><time>2026-04-29T11:36:06.999Z</time></trkpt><trkpt lat="42.378592815123774" lon="12.054356935153635"><ele>238.66666666666666</ele><time>2026-04-29T11:36:07.999Z</time></trkpt><trkpt lat="42.378437330389566" lon="12.054269326495241"><ele>239.33333333333331</ele><time>2026-04-29T11:36:08.999Z</time></trkpt><trkpt lat="42.37828178820201" lon="12.054183135702921"><ele>240.0</ele><time>2026-04-29T11:36:09.999Z</time></trkpt><trkpt lat="42.37811878443578" lon="12.054093444024875"><ele>239.66666666666669</ele><time>2026-04-29T11:36:10.999Z</time></trkpt><trkpt lat="42.377955520641365" lon="12.05399804997001"><ele>239.33333333333334</ele><time>2026-04-29T11:36:11.999Z</time></trkpt><trkpt lat="42.37778422970897" lon="12.053923727535489"><ele>239.0</ele><time>2026-04-29T11:36:12.999Z</time></trkpt><trkpt lat="42.37763583396704" lon="12.053775543176899"><ele>239.0</ele><time>2026-04-29T11:36:14Z</time></trkpt><trkpt lat="42.37749189768453" lon="12.053650256592222"><ele>239.0</ele><time>2026-04-29T11:36:15Z</time></trkpt><trkpt lat="42.37735868064511" lon="12.053514599721552"><ele>239.0</ele><time>2026-04-29T11:36:16Z</time></trkpt><trkpt lat="42.37723051246759" lon="12.053359154996464"><ele>238.0</ele><time>2026-04-29T11:36:17Z</time></trkpt><trkpt lat="42.37710591394623" lon="12.053184097378823"><ele>237.0</ele><time>2026-04-29T11:36:18Z</time></trkpt><trkpt lat="42.3769812075547" lon="12.052988733047261"><ele>236.0</ele><time>2026-04-29T11:36:19Z</time></trkpt><trkpt lat="42.376851635418156" lon="12.052781386319905"><ele>236.0</ele><time>2026-04-29T11:36:20Z</time></trkpt><trkpt lat="42.376727610412885" lon="12.05257729746659"><ele>236.0</ele><time>2026-04-29T11:36:21Z</time></trkpt><trkpt lat="42.37660315868007" lon="12.052375552420889"><ele>236.0</ele><time>2026-04-29T11:36:22Z</time></trkpt><trkpt lat="42.37646711024756" lon="12.052185514654099"><ele>235.33333333333334</ele><time>2026-04-29T11:36:23Z</time></trkpt><trkpt lat="42.376319947054945" lon="12.052011052798216"><ele>234.66666666666669</ele><time>2026-04-29T11:36:24Z</time></trkpt><trkpt lat="42.37616673472896" lon="12.05185109374432"><ele>234.0</ele><time>2026-04-29T11:36:25Z</time></trkpt><trkpt lat="42.376027742353294" lon="12.051688336156559"><ele>233.33333333333331</ele><time>2026-04-29T11:36:26Z</time></trkpt><trkpt lat="42.375899020429735" lon="12.05153250153942"><ele>232.66666666666666</ele><time>2026-04-29T11:36:27Z</time></trkpt><trkpt lat="42.3756892875106" lon="12.051504203388072"><ele>232.0</ele><time>2026-04-29T11:36:28Z</time></trkpt><trkpt lat="42.37551844458956" lon="12.051439723185059"><ele>232.0</ele><time>2026-04-29T11:36:29Z</time></trkpt><trkpt lat="42.37534496327239" lon="12.05140413070517"><ele>232.0</ele><time>2026-04-29T11:36:30Z</time></trkpt><trkpt lat="42.375167967683446" lon="12.051393573618777"><ele>232.0</ele><time>2026-04-29T11:36:31Z</time></trkpt><trkpt lat="42.374989048379454" lon="12.051402542271282"><ele>232.0</ele><time>2026-04-29T11:36:32Z</time></trkpt><trkpt lat="42.3748102252134" lon="12.051436874044892"><ele>232.0</ele><time>2026-04-29T11:36:33Z</time></trkpt><trkpt lat="42.37463206925083" lon="12.051488245498046"><ele>232.0</ele><time>2026-04-29T11:36:34Z</time></trkpt><trkpt lat="42.374458894431626" lon="12.051559654307324"><ele>233.33333333333331</ele><time>2026-04-29T11:36:35Z</time></trkpt><trkpt lat="42.37429128659517" lon="12.0516605399393"><ele>234.66666666666669</ele><time>2026-04-29T11:36:36Z</time></trkpt><trkpt lat="42.374133113135244" lon="12.051782446137086"><ele>236.0</ele><time>2026-04-29T11:36:37Z</time></trkpt><trkpt lat="42.37398131037785" lon="12.051926103840245"><ele>235.0</ele><time>2026-04-29T11:36:38Z</time></trkpt><trkpt lat="42.37383002687323" lon="12.052092417990137"><ele>234.0</ele><time>2026-04-29T11:36:39Z</time></trkpt><trkpt lat="42.3736919129134" lon="12.052271310353365"><ele>233.0</ele><time>2026-04-29T11:36:40Z</time></trkpt><trkpt lat="42.37356811693983" lon="12.052450995125074"><ele>234.0</ele><time>2026-04-29T11:36:41Z</time></trkpt><trkpt lat="42.37345337486785" lon="12.052630329971624"><ele>235.0</ele><time>2026-04-29T11:36:42Z</time></trkpt><trkpt lat="42.37334789478262" lon="12.052809253501168"><ele>236.0</ele><time>2026-04-29T11:36:43Z</time></trkpt><trkpt lat="42.37324471914107" lon="12.052988411844694"><ele>236.0</ele><time>2026-04-29T11:36:44Z</time></trkpt><trkpt lat="42.37313930726403" lon="12.05317663044383"><ele>236.0</ele><time>2026-04-29T11:36:45Z</time></trkpt><trkpt lat="42.37303374278909" lon="12.053369626209353"><ele>236.0</ele><time>2026-04-29T11:36:46Z</time></trkpt><trkpt lat="42.372922260501156" lon="12.053575648146557"><ele>236.0</ele><time>2026-04-29T11:36:47Z</time></trkpt><trkpt lat="42.372807597323366" lon="12.05378690957655"><ele>236.0</ele><time>2026-04-29T11:36:48Z</time></trkpt><trkpt lat="42.37268990591272" lon="12.054001929204837"><ele>236.0</ele><time>2026-04-29T11:36:49Z</time></trkpt><trkpt lat="42.372570075953384" lon="12.054221603342734"><ele>236.0</ele><time>2026-04-29T11:36:50Z</time></trkpt><trkpt lat="42.37245040329101" lon="12.054443418006217"><ele>236.0</ele><time>2026-04-29T11:36:51Z</time></trkpt><trkpt lat="42.37233067970708" lon="12.054664137548274"><ele>236.0</ele><time>2026-04-29T11:36:52Z</time></trkpt><trkpt lat="42.37221222956096" lon="12.054883127407443"><ele>236.66666666666669</ele><time>2026-04-29T11:36:53Z</time></trkpt><trkpt lat="42.37209565223946" lon="12.055099827683193"><ele>237.33333333333331</ele><time>2026-04-29T11:36:54Z</time></trkpt><trkpt lat="42.371980304291796" lon="12.05531295824568"><ele>238.0</ele><time>2026-04-29T11:36:55Z</time></trkpt><trkpt lat="42.37186130524125" lon="12.055526459138528"><ele>238.0</ele><time>2026-04-29T11:36:56Z</time></trkpt><trkpt lat="42.371740545387915" lon="12.055740726564709"><ele>238.0</ele><time>2026-04-29T11:36:57Z</time></trkpt><trkpt lat="42.37161731517922" lon="12.055954180039905"><ele>238.0</ele><time>2026-04-29T11:36:58Z</time></trkpt><trkpt lat="42.37149085206065" lon="12.056162656420987"><ele>238.66666666666666</ele><time>2026-04-29T11:36:59Z</time></trkpt><trkpt lat="42.37136024791094" lon="12.056367331408238"><ele>239.33333333333331</ele><time>2026-04-29T11:37:00Z</time></trkpt><trkpt lat="42.37122813322197" lon="12.056568411686222"><ele>240.0</ele><time>2026-04-29T11:37:01Z</time></trkpt><trkpt lat="42.37109265734267" lon="12.056762683415068"><ele>241.66666666666669</ele><time>2026-04-29T11:37:02Z</time></trkpt><trkpt lat="42.37095271811788" lon="12.056945736339163"><ele>243.33333333333334</ele><time>2026-04-29T11:37:03Z</time></trkpt><trkpt lat="42.370806877711246" lon="12.05711956617277"><ele>245.0</ele><time>2026-04-29T11:37:04Z</time></trkpt><trkpt lat="42.3706541687742" lon="12.057284156839183"><ele>245.33333333333334</ele><time>2026-04-29T11:37:05Z</time></trkpt><trkpt lat="42.3704900223188" lon="12.057442491342613"><ele>245.66666666666669</ele><time>2026-04-29T11:37:06Z</time></trkpt><trkpt lat="42.37031790495589" lon="12.057593739758804"><ele>246.0</ele><time>2026-04-29T11:37:07Z</time></trkpt><trkpt lat="42.37014904179011" lon="12.057721087441664"><ele>247.0</ele><time>2026-04-29T11:37:08Z</time></trkpt><trkpt lat="42.36997880943296" lon="12.057821950795395"><ele>248.0</ele><time>2026-04-29T11:37:09Z</time></trkpt><trkpt lat="42.36980159167054" lon="12.057912713511431"><ele>249.0</ele><time>2026-04-29T11:37:10Z</time></trkpt><trkpt lat="42.3696208106189" lon="12.057993032545289"><ele>249.0</ele><time>2026-04-29T11:37:11Z</time></trkpt><trkpt lat="42.36942498755957" lon="12.05806595942702"><ele>249.0</ele><time>2026-04-29T11:37:12Z</time></trkpt><trkpt lat="42.369215700962336" lon="12.058130472141704"><ele>249.0</ele><time>2026-04-29T11:37:13Z</time></trkpt><trkpt lat="42.36898734871553" lon="12.058181840312814"><ele>250.0</ele><time>2026-04-29T11:37:14Z</time></trkpt><trkpt lat="42.36875113798028" lon="12.058228056013599"><ele>251.0</ele><time>2026-04-29T11:37:15Z</time></trkpt><trkpt lat="42.368507950896735" lon="12.058272015094216"><ele>252.0</ele><time>2026-04-29T11:37:16Z</time></trkpt><trkpt lat="42.368261378463615" lon="12.058310883878319"><ele>253.0</ele><time>2026-04-29T11:37:17Z</time></trkpt><trkpt lat="42.36802392001579" lon="12.05834805820432"><ele>254.0</ele><time>2026-04-29T11:37:18Z</time></trkpt><trkpt lat="42.367790183556835" lon="12.058386991304161"><ele>255.0</ele><time>2026-04-29T11:37:19Z</time></trkpt><trkpt lat="42.36756193097757" lon="12.058425870097274"><ele>255.0</ele><time>2026-04-29T11:37:20Z</time></trkpt><trkpt lat="42.36733933394333" lon="12.05846183027594"><ele>255.0</ele><time>2026-04-29T11:37:21Z</time></trkpt><trkpt lat="42.36712246712007" lon="12.058496054159251"><ele>255.0</ele><time>2026-04-29T11:37:22Z</time></trkpt><trkpt lat="42.366910640300695" lon="12.058533352809468"><ele>256.3333333333333</ele><time>2026-04-29T11:37:23Z</time></trkpt><trkpt lat="42.366702310254446" lon="12.058571099321606"><ele>257.66666666666663</ele><time>2026-04-29T11:37:24Z</time></trkpt><trkpt lat="42.36649606911456" lon="12.058604465848873"><ele>259.0</ele><time>2026-04-29T11:37:25Z</time></trkpt><trkpt lat="42.366286511598865" lon="12.058637113067647"><ele>259.3333333333333</ele><time>2026-04-29T11:37:26Z</time></trkpt><trkpt lat="42.3660767585728" lon="12.058670960478509"><ele>259.6666666666667</ele><time>2026-04-29T11:37:27Z</time></trkpt><trkpt lat="42.365864865049744" lon="12.058707196527813"><ele>260.0</ele><time>2026-04-29T11:37:28Z</time></trkpt><trkpt lat="42.36565747181983" lon="12.0587439200605"><ele>260.33333333333337</ele><time>2026-04-29T11:37:29Z</time></trkpt><trkpt lat="42.365463807346515" lon="12.058777011371696"><ele>260.6666666666667</ele><time>2026-04-29T11:37:30Z</time></trkpt><trkpt lat="42.36527645415689" lon="12.058809500645763"><ele>261.0</ele><time>2026-04-29T11:37:31Z</time></trkpt><trkpt lat="42.36510499547211" lon="12.058844568385082"><ele>261.0</ele><time>2026-04-29T11:37:32Z</time></trkpt><trkpt lat="42.36494358464467" lon="12.058886845235758"><ele>261.0</ele><time>2026-04-29T11:37:33Z</time></trkpt><trkpt lat="42.364787741171305" lon="12.058921646680162"><ele>261.0</ele><time>2026-04-29T11:37:33.999Z</time></trkpt><trkpt lat="42.36462618931142" lon="12.058950975340142"><ele>262.0</ele><time>2026-04-29T11:37:34.999Z</time></trkpt><trkpt lat="42.36445682787543" lon="12.058982938144881"><ele>263.0</ele><time>2026-04-29T11:37:35.999Z</time></trkpt><trkpt lat="42.3642865144507" lon="12.059018200734588"><ele>264.0</ele><time>2026-04-29T11:37:36.999Z</time></trkpt><trkpt lat="42.36411586314099" lon="12.059053449930046"><ele>264.0</ele><time>2026-04-29T11:37:37.999Z</time></trkpt><trkpt lat="42.36394290572805" lon="12.059091910842184"><ele>264.0</ele><time>2026-04-29T11:37:38.999Z</time></trkpt><trkpt lat="42.36376804739989" lon="12.059128300784332"><ele>264.0</ele><time>2026-04-29T11:37:39.999Z</time></trkpt><trkpt lat="42.363592410119495" lon="12.0591671120258"><ele>265.6666666666667</ele><time>2026-04-29T11:37:40.999Z</time></trkpt><trkpt lat="42.363420924253326" lon="12.059201970400496"><ele>267.33333333333337</ele><time>2026-04-29T11:37:41.999Z</time></trkpt><trkpt lat="42.36325264896638" lon="12.059238860383058"><ele>269.0</ele><time>2026-04-29T11:37:42.999Z</time></trkpt><trkpt lat="42.36308931532589" lon="12.059272103773345"><ele>269.6666666666667</ele><time>2026-04-29T11:37:43.999Z</time></trkpt><trkpt lat="42.36292621659747" lon="12.059304927266167"><ele>270.3333333333333</ele><time>2026-04-29T11:37:44.999Z</time></trkpt><trkpt lat="42.36276548091117" lon="12.05933548563885"><ele>271.0</ele><time>2026-04-29T11:37:45.999Z</time></trkpt><trkpt lat="42.36260591408465" lon="12.059369290661865"><ele>271.0</ele><time>2026-04-29T11:37:46.999Z</time></trkpt><trkpt lat="42.36244761633967" lon="12.05940197829977"><ele>271.0</ele><time>2026-04-29T11:37:47.999Z</time></trkpt><trkpt lat="42.362288559902865" lon="12.059433144319087"><ele>271.0</ele><time>2026-04-29T11:37:48.999Z</time></trkpt><trkpt lat="42.36213051713665" lon="12.059463733686401"><ele>272.3333333333333</ele><time>2026-04-29T11:37:49.999Z</time></trkpt><trkpt lat="42.361974004334265" lon="12.059494641930982"><ele>273.6666666666667</ele><time>2026-04-29T11:37:50.999Z</time></trkpt><trkpt lat="42.361818947998195" lon="12.059527095575335"><ele>275.0</ele><time>2026-04-29T11:37:51.999Z</time></trkpt><trkpt lat="42.361661526722145" lon="12.059559904532515"><ele>275.0</ele><time>2026-04-29T11:37:52.999Z</time></trkpt><trkpt lat="42.36151052932822" lon="12.05959686697966"><ele>275.0</ele><time>2026-04-29T11:37:53.999Z</time></trkpt><trkpt lat="42.36135623815397" lon="12.059637782779014"><ele>275.0</ele><time>2026-04-29T11:37:54.999Z</time></trkpt><trkpt lat="42.36120088329218" lon="12.059685210330857"><ele>277.0</ele><time>2026-04-29T11:37:55.999Z</time></trkpt><trkpt lat="42.36104890026788" lon="12.059745739225571"><ele>279.0</ele><time>2026-04-29T11:37:56.999Z</time></trkpt><trkpt lat="42.36090019811561" lon="12.059821939903884"><ele>281.0</ele><time>2026-04-29T11:37:57.999Z</time></trkpt><trkpt lat="42.36075863861535" lon="12.059919080774671"><ele>280.6666666666667</ele><time>2026-04-29T11:37:58.999Z</time></trkpt><trkpt lat="42.36062769824629" lon="12.060033462138094"><ele>280.3333333333333</ele><time>2026-04-29T11:37:59.999Z</time></trkpt><trkpt lat="42.36050630557933" lon="12.060163586973884"><ele>280.0</ele><time>2026-04-29T11:38:00.999Z</time></trkpt><trkpt lat="42.36039054261509" lon="12.060305137966417"><ele>280.0</ele><time>2026-04-29T11:38:01.999Z</time></trkpt><trkpt lat="42.36027767935388" lon="12.060449705675733"><ele>280.0</ele><time>2026-04-29T11:38:02.999Z</time></trkpt><trkpt lat="42.36016197651633" lon="12.060590117007841"><ele>280.0</ele><time>2026-04-29T11:38:03.999Z</time></trkpt><trkpt lat="42.36004413812911" lon="12.060727234819"><ele>281.3333333333333</ele><time>2026-04-29T11:38:04.999Z</time></trkpt><trkpt lat="42.35992537676689" lon="12.060864246502678"><ele>282.6666666666667</ele><time>2026-04-29T11:38:05.999Z</time></trkpt><trkpt lat="42.359803763881736" lon="12.060997049273658"><ele>284.0</ele><time>2026-04-29T11:38:06.999Z</time></trkpt><trkpt lat="42.359676055922655" lon="12.061124390707796"><ele>285.0</ele><time>2026-04-29T11:38:07.999Z</time></trkpt><trkpt lat="42.359540876126246" lon="12.061239499889876"><ele>286.0</ele><time>2026-04-29T11:38:08.999Z</time></trkpt><trkpt lat="42.35939826791398" lon="12.061345268431724"><ele>287.0</ele><time>2026-04-29T11:38:09.999Z</time></trkpt><trkpt lat="42.35925129618583" lon="12.06144089938984"><ele>287.0</ele><time>2026-04-29T11:38:10.999Z</time></trkpt><trkpt lat="42.359099308928926" lon="12.061525971514078"><ele>287.0</ele><time>2026-04-29T11:38:11.999Z</time></trkpt><trkpt lat="42.35894127326944" lon="12.06159638594903"><ele>287.0</ele><time>2026-04-29T11:38:12.999Z</time></trkpt><trkpt lat="42.358781803859365" lon="12.061647418719252"><ele>290.33333333333337</ele><time>2026-04-29T11:38:13.999Z</time></trkpt><trkpt lat="42.358619749640305" lon="12.061677465802289"><ele>293.6666666666667</ele><time>2026-04-29T11:38:14.999Z</time></trkpt><trkpt lat="42.358458238778354" lon="12.061690664679071"><ele>297.0</ele><time>2026-04-29T11:38:15.999Z</time></trkpt><trkpt lat="42.3582948473545" lon="12.06169025641202"><ele>297.0</ele><time>2026-04-29T11:38:16.999Z</time></trkpt><trkpt lat="42.358131417983294" lon="12.061678474975151"><ele>297.0</ele><time>2026-04-29T11:38:17.999Z</time></trkpt><trkpt lat="42.35796481299576" lon="12.06165990720259"><ele>297.0</ele><time>2026-04-29T11:38:18.999Z</time></trkpt><trkpt lat="42.357792466797385" lon="12.061643875191375"><ele>299.0</ele><time>2026-04-29T11:38:20Z</time></trkpt><trkpt lat="42.35761407312888" lon="12.061631292182014"><ele>301.0</ele><time>2026-04-29T11:38:21Z</time></trkpt><trkpt lat="42.35743045882687" lon="12.061615065310086"><ele>303.0</ele><time>2026-04-29T11:38:22Z</time></trkpt><trkpt lat="42.35724600654767" lon="12.061598943046477"><ele>305.0</ele><time>2026-04-29T11:38:23Z</time></trkpt><trkpt lat="42.357066222674284" lon="12.061586340733989"><ele>307.0</ele><time>2026-04-29T11:38:24Z</time></trkpt><trkpt lat="42.35688750291274" lon="12.061573069676285"><ele>309.0</ele><time>2026-04-29T11:38:25Z</time></trkpt><trkpt lat="42.35670941907684" lon="12.061561048972251"><ele>309.0</ele><time>2026-04-29T11:38:26Z</time></trkpt><trkpt lat="42.35653365517935" lon="12.061548811127894"><ele>309.0</ele><time>2026-04-29T11:38:27Z</time></trkpt><trkpt lat="42.356370540921056" lon="12.061535440671038"><ele>309.0</ele><time>2026-04-29T11:38:28Z</time></trkpt><trkpt lat="42.35621927995537" lon="12.061522071155645"><ele>310.3333333333333</ele><time>2026-04-29T11:38:29Z</time></trkpt><trkpt lat="42.356066560995906" lon="12.061510623644782"><ele>311.66666666666663</ele><time>2026-04-29T11:38:30Z</time></trkpt><trkpt lat="42.35591378932545" lon="12.061492899949119"><ele>313.0</ele><time>2026-04-29T11:38:31Z</time></trkpt><trkpt lat="42.355763348561126" lon="12.061478693632807"><ele>313.0</ele><time>2026-04-29T11:38:32Z</time></trkpt><trkpt lat="42.355612322019255" lon="12.061478176419184"><ele>313.0</ele><time>2026-04-29T11:38:33Z</time></trkpt><trkpt lat="42.355461808401124" lon="12.06146021614302"><ele>313.0</ele><time>2026-04-29T11:38:34Z</time></trkpt><trkpt lat="42.35531067517512" lon="12.061438223727647"><ele>314.0</ele><time>2026-04-29T11:38:35Z</time></trkpt><trkpt lat="42.35515875848219" lon="12.061435329760478"><ele>315.0</ele><time>2026-04-29T11:38:36Z</time></trkpt><trkpt lat="42.35500546876857" lon="12.061426968467151"><ele>316.0</ele><time>2026-04-29T11:38:37Z</time></trkpt><trkpt lat="42.35485048550533" lon="12.061403260364557"><ele>316.3333333333333</ele><time>2026-04-29T11:38:38Z</time></trkpt><trkpt lat="42.35469241146171" lon="12.061386405325067"><ele>316.6666666666667</ele><time>2026-04-29T11:38:39Z</time></trkpt><trkpt lat="42.35452978315401" lon="12.061384034348412"><ele>317.0</ele><time>2026-04-29T11:38:40Z</time></trkpt><trkpt lat="42.35436225585746" lon="12.06137616917016"><ele>317.0</ele><time>2026-04-29T11:38:41Z</time></trkpt><trkpt lat="42.354186358248484" lon="12.061354394609594"><ele>317.0</ele><time>2026-04-29T11:38:42Z</time></trkpt><trkpt lat="42.354010139240046" lon="12.061334249122154"><ele>317.0</ele><time>2026-04-29T11:38:43Z</time></trkpt><trkpt lat="42.35382937781308" lon="12.061322034589148"><ele>315.6666666666667</ele><time>2026-04-29T11:38:44Z</time></trkpt><trkpt lat="42.35364580381069" lon="12.061314141281462"><ele>314.3333333333333</ele><time>2026-04-29T11:38:45Z</time></trkpt><trkpt lat="42.353461822711076" lon="12.061304524877695"><ele>313.0</ele><time>2026-04-29T11:38:46Z</time></trkpt><trkpt lat="42.35326090979337" lon="12.06129803060238"><ele>313.0</ele><time>2026-04-29T11:38:47Z</time></trkpt><trkpt lat="42.353050682696136" lon="12.06129268672872"><ele>313.0</ele><time>2026-04-29T11:38:48Z</time></trkpt><trkpt lat="42.35283766610837" lon="12.061286752595988"><ele>313.0</ele><time>2026-04-29T11:38:49Z</time></trkpt><trkpt lat="42.35261661316486" lon="12.061283408444643"><ele>310.5</ele><time>2026-04-29T11:38:50Z</time></trkpt><trkpt lat="42.352390382425156" lon="12.061280200633297"><ele>308.0</ele><time>2026-04-29T11:38:51Z</time></trkpt><trkpt lat="42.3521605797369" lon="12.061278479073003"><ele>302.5</ele><time>2026-04-29T11:38:52Z</time></trkpt><trkpt lat="42.351926293498096" lon="12.061279818482015"><ele>297.0</ele><time>2026-04-29T11:38:53Z</time></trkpt><trkpt lat="42.35169044505449" lon="12.061285368608084"><ele>297.0</ele><time>2026-04-29T11:38:54Z</time></trkpt><trkpt lat="42.35145135559185" lon="12.061290986208176"><ele>297.0</ele><time>2026-04-29T11:38:55Z</time></trkpt><trkpt lat="42.35121441120349" lon="12.061295359568845"><ele>298.5</ele><time>2026-04-29T11:38:56Z</time></trkpt><trkpt lat="42.350976822529894" lon="12.061299202113483"><ele>300.0</ele><time>2026-04-29T11:38:57Z</time></trkpt><trkpt lat="42.35073933455488" lon="12.061299185018747"><ele>303.5</ele><time>2026-04-29T11:38:58Z</time></trkpt><trkpt lat="42.35050897189135" lon="12.06130364438975"><ele>307.0</ele><time>2026-04-29T11:38:59Z</time></trkpt><trkpt lat="42.35027498469411" lon="12.061307430085941"><ele>307.0</ele><time>2026-04-29T11:39:00Z</time></trkpt><trkpt lat="42.350043428825416" lon="12.061311047996604"><ele>307.0</ele><time>2026-04-29T11:39:01Z</time></trkpt><trkpt lat="42.349816828636214" lon="12.061310982844919"><ele>307.0</ele><time>2026-04-29T11:39:02Z</time></trkpt><trkpt lat="42.349593991062044" lon="12.061308517826209"><ele>307.0</ele><time>2026-04-29T11:39:03Z</time></trkpt><trkpt lat="42.34937718080697" lon="12.06131074248318"><ele>307.0</ele><time>2026-04-29T11:39:04Z</time></trkpt><trkpt lat="42.34915892682124" lon="12.061313759118574"><ele>307.0</ele><time>2026-04-29T11:39:05Z</time></trkpt><trkpt lat="42.34893449709524" lon="12.061319435056541"><ele>307.0</ele><time>2026-04-29T11:39:06Z</time></trkpt><trkpt lat="42.348704518305624" lon="12.061323537853175"><ele>305.0</ele><time>2026-04-29T11:39:07Z</time></trkpt><trkpt lat="42.348476631354764" lon="12.06132525392591"><ele>303.0</ele><time>2026-04-29T11:39:08Z</time></trkpt><trkpt lat="42.34824955407662" lon="12.06132914774824"><ele>302.0</ele><time>2026-04-29T11:39:09Z</time></trkpt><trkpt lat="42.34802281869423" lon="12.061333045886371"><ele>301.0</ele><time>2026-04-29T11:39:10Z</time></trkpt><trkpt lat="42.347797493647896" lon="12.061337783664529"><ele>301.0</ele><time>2026-04-29T11:39:11Z</time></trkpt><trkpt lat="42.34757352616627" lon="12.061338318460528"><ele>301.0</ele><time>2026-04-29T11:39:12Z</time></trkpt><trkpt lat="42.34736949243423" lon="12.061334744571871"><ele>301.0</ele><time>2026-04-29T11:39:13Z</time></trkpt><trkpt lat="42.347178748901634" lon="12.06131642109574"><ele>302.66666666666663</ele><time>2026-04-29T11:39:14Z</time></trkpt><trkpt lat="42.34699374719213" lon="12.061261701734999"><ele>304.3333333333333</ele><time>2026-04-29T11:39:15Z</time></trkpt><trkpt lat="42.34680735301758" lon="12.061174207687726"><ele>306.0</ele><time>2026-04-29T11:39:16Z</time></trkpt><trkpt lat="42.346613874926604" lon="12.061056809916181"><ele>306.0</ele><time>2026-04-29T11:39:17Z</time></trkpt><trkpt lat="42.346416804839286" lon="12.060919386018872"><ele>306.0</ele><time>2026-04-29T11:39:18Z</time></trkpt><trkpt lat="42.34621357934912" lon="12.060775473202847"><ele>306.0</ele><time>2026-04-29T11:39:19Z</time></trkpt><trkpt lat="42.34601923818981" lon="12.0606402752209"><ele>306.0</ele><time>2026-04-29T11:39:20Z</time></trkpt><trkpt lat="42.345832069775504" lon="12.0605148170357"><ele>306.0</ele><time>2026-04-29T11:39:21Z</time></trkpt><trkpt lat="42.34563913075103" lon="12.060394110518267"><ele>304.5</ele><time>2026-04-29T11:39:22Z</time></trkpt><trkpt lat="42.34543188605226" lon="12.060270006819676"><ele>303.0</ele><time>2026-04-29T11:39:23Z</time></trkpt><trkpt lat="42.345220066694814" lon="12.06014496155723"><ele>303.0</ele><time>2026-04-29T11:39:24Z</time></trkpt><trkpt lat="42.3450026791745" lon="12.060021734443652"><ele>303.0</ele><time>2026-04-29T11:39:25Z</time></trkpt><trkpt lat="42.34478427346633" lon="12.05989562809415"><ele>300.0</ele><time>2026-04-29T11:39:26Z</time></trkpt><trkpt lat="42.34456370059177" lon="12.059770943543185"><ele>297.0</ele><time>2026-04-29T11:39:27Z</time></trkpt><trkpt lat="42.34433977775077" lon="12.059643796043904"><ele>297.0</ele><time>2026-04-29T11:39:27.999Z</time></trkpt><trkpt lat="42.3441153108671" lon="12.05951402083263"><ele>297.0</ele><time>2026-04-29T11:39:28.999Z</time></trkpt><trkpt lat="42.34389268067142" lon="12.059384695883022"><ele>296.5</ele><time>2026-04-29T11:39:29.999Z</time></trkpt><trkpt lat="42.343680648169325" lon="12.05925802908033"><ele>296.0</ele><time>2026-04-29T11:39:30.999Z</time></trkpt><trkpt lat="42.3434770692123" lon="12.059136959022501"><ele>295.0</ele><time>2026-04-29T11:39:31.999Z</time></trkpt><trkpt lat="42.34327331447212" lon="12.059018531277367"><ele>294.0</ele><time>2026-04-29T11:39:32.999Z</time></trkpt><trkpt lat="42.34306934307184" lon="12.05890079838623"><ele>293.0</ele><time>2026-04-29T11:39:33.999Z</time></trkpt><trkpt lat="42.34286586537905" lon="12.058786574279928"><ele>292.6666666666667</ele><time>2026-04-29T11:39:34.999Z</time></trkpt><trkpt lat="42.34266267264793" lon="12.058674501057794"><ele>292.3333333333333</ele><time>2026-04-29T11:39:35.999Z</time></trkpt><trkpt lat="42.342462173414056" lon="12.05856099537935"><ele>292.0</ele><time>2026-04-29T11:39:36.999Z</time></trkpt><trkpt lat="42.34227004335534" lon="12.058450944725081"><ele>291.3333333333333</ele><time>2026-04-29T11:39:37.999Z</time></trkpt><trkpt lat="42.342079802921134" lon="12.058343034119916"><ele>290.6666666666667</ele><time>2026-04-29T11:39:38.999Z</time></trkpt><trkpt lat="42.34188408764354" lon="12.058229954156404"><ele>290.0</ele><time>2026-04-29T11:39:39.999Z</time></trkpt><trkpt lat="42.341688538940176" lon="12.05811738263785"><ele>289.6666666666667</ele><time>2026-04-29T11:39:40.999Z</time></trkpt><trkpt lat="42.34148747734916" lon="12.058008184570259"><ele>289.3333333333333</ele><time>2026-04-29T11:39:41.999Z</time></trkpt><trkpt lat="42.341275242033454" lon="12.057889845736979"><ele>289.0</ele><time>2026-04-29T11:39:42.999Z</time></trkpt><trkpt lat="42.34106166904986" lon="12.05777158251107"><ele>285.5</ele><time>2026-04-29T11:39:43.999Z</time></trkpt><trkpt lat="42.34085349848616" lon="12.057653133141914"><ele>282.0</ele><time>2026-04-29T11:39:44.999Z</time></trkpt><trkpt lat="42.34063627247378" lon="12.05753246683969"><ele>278.0</ele><time>2026-04-29T11:39:45.999Z</time></trkpt><trkpt lat="42.340416548081166" lon="12.057417566230129"><ele>274.0</ele><time>2026-04-29T11:39:46.999Z</time></trkpt><trkpt lat="42.340197696246896" lon="12.057313686383871"><ele>274.0</ele><time>2026-04-29T11:39:47.999Z</time></trkpt><trkpt lat="42.33997749239723" lon="12.057230401548125"><ele>274.0</ele><time>2026-04-29T11:39:48.999Z</time></trkpt><trkpt lat="42.339754756362005" lon="12.057163364829282"><ele>277.0</ele><time>2026-04-29T11:39:49.999Z</time></trkpt><trkpt lat="42.3395313675295" lon="12.057108114840686"><ele>280.0</ele><time>2026-04-29T11:39:50.999Z</time></trkpt><trkpt lat="42.33930624102142" lon="12.057059255985704"><ele>280.0</ele><time>2026-04-29T11:39:51.999Z</time></trkpt><trkpt lat="42.339077939737564" lon="12.057011699684871"><ele>280.0</ele><time>2026-04-29T11:39:52.999Z</time></trkpt><trkpt lat="42.338847488590524" lon="12.056964086127556"><ele>282.0</ele><time>2026-04-29T11:39:53.999Z</time></trkpt><trkpt lat="42.338619026714234" lon="12.05691746424853"><ele>284.0</ele><time>2026-04-29T11:39:54.999Z</time></trkpt><trkpt lat="42.33839262124963" lon="12.056872051191064"><ele>284.0</ele><time>2026-04-29T11:39:55.999Z</time></trkpt><trkpt lat="42.33816724255548" lon="12.056824491751904"><ele>284.0</ele><time>2026-04-29T11:39:56.999Z</time></trkpt><trkpt lat="42.33794434166471" lon="12.056773817135678"><ele>284.33333333333337</ele><time>2026-04-29T11:39:57.999Z</time></trkpt><trkpt lat="42.33772270720328" lon="12.056725259513987"><ele>284.6666666666667</ele><time>2026-04-29T11:39:58.999Z</time></trkpt><trkpt lat="42.3375024843482" lon="12.056675295395358"><ele>285.0</ele><time>2026-04-29T11:39:59.999Z</time></trkpt><trkpt lat="42.33728606125573" lon="12.056618025985976"><ele>285.0</ele><time>2026-04-29T11:40:00.999Z</time></trkpt><trkpt lat="42.337078911948225" lon="12.056550576879454"><ele>285.0</ele><time>2026-04-29T11:40:01.999Z</time></trkpt><trkpt lat="42.33688781280951" lon="12.056473082318957"><ele>285.0</ele><time>2026-04-29T11:40:02.999Z</time></trkpt><trkpt lat="42.336698093843125" lon="12.05636787011393"><ele>285.0</ele><time>2026-04-29T11:40:03.999Z</time></trkpt><trkpt lat="42.33650809753513" lon="12.056238560172794"><ele>285.0</ele><time>2026-04-29T11:40:04.999Z</time></trkpt><trkpt lat="42.3363249826621" lon="12.056089313276038"><ele>285.0</ele><time>2026-04-29T11:40:05.999Z</time></trkpt><trkpt lat="42.336136899606764" lon="12.05592130968946"><ele>284.0</ele><time>2026-04-29T11:40:06.999Z</time></trkpt><trkpt lat="42.335936731496524" lon="12.055745146865581"><ele>283.0</ele><time>2026-04-29T11:40:07.999Z</time></trkpt><trkpt lat="42.335731080893325" lon="12.055571832829873"><ele>283.3333333333333</ele><time>2026-04-29T11:40:08.999Z</time></trkpt><trkpt lat="42.3355529549686" lon="12.055424473052494"><ele>283.6666666666667</ele><time>2026-04-29T11:40:09.999Z</time></trkpt><trkpt lat="42.33539996427166" lon="12.055292241766226"><ele>284.0</ele><time>2026-04-29T11:40:10.999Z</time></trkpt><trkpt lat="42.33526451455907" lon="12.055176260425648"><ele>284.0</ele><time>2026-04-29T11:40:11.999Z</time></trkpt><trkpt lat="42.33513946097727" lon="12.055067344426778"><ele>284.0</ele><time>2026-04-29T11:40:12.999Z</time></trkpt><trkpt lat="42.33502237451038" lon="12.054964106497232"><ele>284.0</ele><time>2026-04-29T11:40:13.999Z</time></trkpt><trkpt lat="42.33490708746377" lon="12.054864145099007"><ele>284.0</ele><time>2026-04-29T11:40:14.999Z</time></trkpt><trkpt lat="42.33478889351904" lon="12.054761863803444"><ele>283.75</ele><time>2026-04-29T11:40:15.999Z</time></trkpt><trkpt lat="42.33467142871711" lon="12.054661294486873"><ele>283.5</ele><time>2026-04-29T11:40:16.999Z</time></trkpt><trkpt lat="42.33455234421028" lon="12.054555864949997"><ele>283.25</ele><time>2026-04-29T11:40:17.999Z</time></trkpt><trkpt lat="42.33444261943746" lon="12.054455659127878"><ele>283.0</ele><time>2026-04-29T11:40:18.999Z</time></trkpt><trkpt lat="42.33433376646211" lon="12.054364734965272"><ele>283.0</ele><time>2026-04-29T11:40:19.999Z</time></trkpt><trkpt lat="42.33421967143192" lon="12.05427535637664"><ele>283.0</ele><time>2026-04-29T11:40:20.999Z</time></trkpt><trkpt lat="42.334106213160894" lon="12.054200055028982"><ele>283.0</ele><time>2026-04-29T11:40:21.999Z</time></trkpt><trkpt lat="42.33399474918143" lon="12.05413851209319"><ele>283.0</ele><time>2026-04-29T11:40:22.999Z</time></trkpt><trkpt lat="42.33387611381366" lon="12.054086132747459"><ele>282.0</ele><time>2026-04-29T11:40:23.999Z</time></trkpt><trkpt lat="42.33375790160983" lon="12.054042502607313"><ele>281.0</ele><time>2026-04-29T11:40:24.999Z</time></trkpt><trkpt lat="42.333645268411644" lon="12.054001725893546"><ele>280.0</ele><time>2026-04-29T11:40:26Z</time></trkpt><trkpt lat="42.33352697878947" lon="12.05395945236977"><ele>279.0</ele><time>2026-04-29T11:40:27Z</time></trkpt><trkpt lat="42.333397533769705" lon="12.053913248302209"><ele>279.0</ele><time>2026-04-29T11:40:28Z</time></trkpt><trkpt lat="42.33326348264258" lon="12.053866108791098"><ele>279.0</ele><time>2026-04-29T11:40:29Z</time></trkpt><trkpt lat="42.333125155699456" lon="12.053817858225807"><ele>279.0</ele><time>2026-04-29T11:40:30Z</time></trkpt><trkpt lat="42.33297969680161" lon="12.053764655644368"><ele>279.0</ele><time>2026-04-29T11:40:31Z</time></trkpt><trkpt lat="42.332833228846354" lon="12.053711284685164"><ele>280.6666666666667</ele><time>2026-04-29T11:40:32Z</time></trkpt><trkpt lat="42.332680691841865" lon="12.0536612866294"><ele>282.33333333333337</ele><time>2026-04-29T11:40:33Z</time></trkpt><trkpt lat="42.33252350009835" lon="12.053602872708801"><ele>284.0</ele><time>2026-04-29T11:40:34Z</time></trkpt><trkpt lat="42.33236784573625" lon="12.053544498777303"><ele>284.75</ele><time>2026-04-29T11:40:35Z</time></trkpt><trkpt lat="42.3322177012004" lon="12.053492112898226"><ele>285.5</ele><time>2026-04-29T11:40:36Z</time></trkpt><trkpt lat="42.33207645203764" lon="12.053441941318903"><ele>286.25</ele><time>2026-04-29T11:40:37Z</time></trkpt><trkpt lat="42.331938778839046" lon="12.053402723374967"><ele>287.0</ele><time>2026-04-29T11:40:38Z</time></trkpt><trkpt lat="42.33179806934893" lon="12.05338546644791"><ele>287.0</ele><time>2026-04-29T11:40:39Z</time></trkpt><trkpt lat="42.33165065745888" lon="12.05337842377307"><ele>287.0</ele><time>2026-04-29T11:40:40Z</time></trkpt><trkpt lat="42.33150004664777" lon="12.053384031482747"><ele>287.0</ele><time>2026-04-29T11:40:41Z</time></trkpt><trkpt lat="42.331349419730046" lon="12.053398665083403"><ele>287.0</ele><time>2026-04-29T11:40:42Z</time></trkpt><trkpt lat="42.33119735599484" lon="12.05341244207429"><ele>287.25</ele><time>2026-04-29T11:40:43Z</time></trkpt><trkpt lat="42.33104472407748" lon="12.053421747644892"><ele>287.5</ele><time>2026-04-29T11:40:44Z</time></trkpt><trkpt lat="42.33090122190464" lon="12.05342067314149"><ele>287.75</ele><time>2026-04-29T11:40:45Z</time></trkpt><trkpt lat="42.330764133159335" lon="12.053409620274847"><ele>288.0</ele><time>2026-04-29T11:40:46Z</time></trkpt><trkpt lat="42.33063904841954" lon="12.053393780870516"><ele>288.5</ele><time>2026-04-29T11:40:47Z</time></trkpt><trkpt lat="42.33051242559726" lon="12.053375069272134"><ele>289.0</ele><time>2026-04-29T11:40:48Z</time></trkpt><trkpt lat="42.33038508338323" lon="12.053353498361075"><ele>289.5</ele><time>2026-04-29T11:40:49Z</time></trkpt><trkpt lat="42.330260053880124" lon="12.053325194625305"><ele>290.0</ele><time>2026-04-29T11:40:50Z</time></trkpt><trkpt lat="42.33014143472002" lon="12.053303227532949"><ele>289.75</ele><time>2026-04-29T11:40:51Z</time></trkpt><trkpt lat="42.33003136956419" lon="12.053279052335267"><ele>289.5</ele><time>2026-04-29T11:40:52Z</time></trkpt><trkpt lat="42.3299126659061" lon="12.05325160040584"><ele>289.25</ele><time>2026-04-29T11:40:53Z</time></trkpt><trkpt lat="42.32978875100501" lon="12.053225470875184"><ele>289.0</ele><time>2026-04-29T11:40:54Z</time></trkpt><trkpt lat="42.32965919180448" lon="12.05320603873501"><ele>289.0</ele><time>2026-04-29T11:40:55Z</time></trkpt><trkpt lat="42.32952282670839" lon="12.053203560596025"><ele>289.0</ele><time>2026-04-29T11:40:56Z</time></trkpt><trkpt lat="42.329380442596175" lon="12.053223885177527"><ele>289.0</ele><time>2026-04-29T11:40:57Z</time></trkpt><trkpt lat="42.329232279381976" lon="12.053266382304344"><ele>289.0</ele><time>2026-04-29T11:40:58Z</time></trkpt><trkpt lat="42.32907756759753" lon="12.053326066819317"><ele>289.0</ele><time>2026-04-29T11:40:59Z</time></trkpt><trkpt lat="42.328923793626174" lon="12.05339299208606"><ele>289.0</ele><time>2026-04-29T11:41:00Z</time></trkpt><trkpt lat="42.328766460319706" lon="12.053464628301214"><ele>289.0</ele><time>2026-04-29T11:41:01Z</time></trkpt><trkpt lat="42.32859607615381" lon="12.053549614884993"><ele>288.66666666666663</ele><time>2026-04-29T11:41:02Z</time></trkpt><trkpt lat="42.32841353329715" lon="12.05365105996399"><ele>288.3333333333333</ele><time>2026-04-29T11:41:03Z</time></trkpt><trkpt lat="42.32824612808078" lon="12.05373442758195"><ele>288.0</ele><time>2026-04-29T11:41:04Z</time></trkpt><trkpt lat="42.32808069529169" lon="12.05380807834354"><ele>288.0</ele><time>2026-04-29T11:41:05Z</time></trkpt><trkpt lat="42.32791461468414" lon="12.053872359955129"><ele>288.0</ele><time>2026-04-29T11:41:06Z</time></trkpt><trkpt lat="42.32775472253258" lon="12.053924196110101"><ele>288.0</ele><time>2026-04-29T11:41:07Z</time></trkpt><trkpt lat="42.32759589403491" lon="12.053956046347881"><ele>288.0</ele><time>2026-04-29T11:41:08Z</time></trkpt><trkpt lat="42.32744146038957" lon="12.053971086648978"><ele>288.0</ele><time>2026-04-29T11:41:09Z</time></trkpt><trkpt lat="42.3272895490107" lon="12.053978941964774"><ele>288.0</ele><time>2026-04-29T11:41:10Z</time></trkpt><trkpt lat="42.32714832050448" lon="12.05399713558133"><ele>288.0</ele><time>2026-04-29T11:41:11Z</time></trkpt><trkpt lat="42.32700825046533" lon="12.054028785813651"><ele>289.0</ele><time>2026-04-29T11:41:12Z</time></trkpt><trkpt lat="42.32686681202123" lon="12.054069366570968"><ele>290.0</ele><time>2026-04-29T11:41:13Z</time></trkpt><trkpt lat="42.32672244075899" lon="12.054103556298715"><ele>291.0</ele><time>2026-04-29T11:41:14Z</time></trkpt><trkpt lat="42.32657741340365" lon="12.054131007138725"><ele>292.0</ele><time>2026-04-29T11:41:15Z</time></trkpt><trkpt lat="42.32643452607593" lon="12.054156585796774"><ele>290.66666666666663</ele><time>2026-04-29T11:41:16Z</time></trkpt><trkpt lat="42.32629286669298" lon="12.054174465597132"><ele>289.3333333333333</ele><time>2026-04-29T11:41:17Z</time></trkpt><trkpt lat="42.326141300191765" lon="12.054174072801475"><ele>288.0</ele><time>2026-04-29T11:41:18Z</time></trkpt><trkpt lat="42.32598094658232" lon="12.054162532175352"><ele>288.0</ele><time>2026-04-29T11:41:19Z</time></trkpt><trkpt lat="42.32581128095576" lon="12.054149932606663"><ele>288.0</ele><time>2026-04-29T11:41:20Z</time></trkpt><trkpt lat="42.32563634570007" lon="12.05414141824391"><ele>288.0</ele><time>2026-04-29T11:41:21Z</time></trkpt><trkpt lat="42.32545906809641" lon="12.054124239258648"><ele>284.3333333333333</ele><time>2026-04-29T11:41:22Z</time></trkpt><trkpt lat="42.32529232468651" lon="12.054080346764433"><ele>280.66666666666663</ele><time>2026-04-29T11:41:23Z</time></trkpt><trkpt lat="42.32513046709807" lon="12.054019478836217"><ele>277.0</ele><time>2026-04-29T11:41:24Z</time></trkpt><trkpt lat="42.324980915358644" lon="12.053941131748026"><ele>277.0</ele><time>2026-04-29T11:41:25Z</time></trkpt><trkpt lat="42.32484352481438" lon="12.05385430335568"><ele>277.0</ele><time>2026-04-29T11:41:26Z</time></trkpt><trkpt lat="42.32472339033875" lon="12.053765783528275"><ele>277.0</ele><time>2026-04-29T11:41:27Z</time></trkpt><trkpt lat="42.32462663504184" lon="12.053652239704398"><ele>277.0</ele><time>2026-04-29T11:41:28Z</time></trkpt><trkpt lat="42.324558368279426" lon="12.053511565741518"><ele>280.25</ele><time>2026-04-29T11:41:29Z</time></trkpt><trkpt lat="42.324517987947274" lon="12.053338242247873"><ele>283.5</ele><time>2026-04-29T11:41:30Z</time></trkpt><trkpt lat="42.324493749943635" lon="12.05314332542971"><ele>286.75</ele><time>2026-04-29T11:41:31Z</time></trkpt><trkpt lat="42.324479372709604" lon="12.052941282996034"><ele>290.0</ele><time>2026-04-29T11:41:32Z</time></trkpt><trkpt lat="42.32446982454229" lon="12.052739634952204"><ele>290.25</ele><time>2026-04-29T11:41:33Z</time></trkpt><trkpt lat="42.32446478265244" lon="12.052544991969384"><ele>290.5</ele><time>2026-04-29T11:41:34Z</time></trkpt><trkpt lat="42.3244696544399" lon="12.052371409102035"><ele>290.75</ele><time>2026-04-29T11:41:35Z</time></trkpt><trkpt lat="42.324476098323416" lon="12.052212300523022"><ele>291.0</ele><time>2026-04-29T11:41:36Z</time></trkpt><trkpt lat="42.32447250397281" lon="12.05205232157276"><ele>290.5</ele><time>2026-04-29T11:41:37Z</time></trkpt><trkpt lat="42.32445730600879" lon="12.051888328447443"><ele>290.0</ele><time>2026-04-29T11:41:38Z</time></trkpt><trkpt lat="42.324423997984276" lon="12.051724694669403"><ele>289.5</ele><time>2026-04-29T11:41:38.999Z</time></trkpt><trkpt lat="42.32437725399148" lon="12.051568963169581"><ele>289.0</ele><time>2026-04-29T11:41:39.999Z</time></trkpt><trkpt lat="42.324327110392275" lon="12.051427462860525"><ele>288.2</ele><time>2026-04-29T11:41:40.999Z</time></trkpt><trkpt lat="42.32427360724337" lon="12.05129604031093"><ele>287.4</ele><time>2026-04-29T11:41:41.999Z</time></trkpt><trkpt lat="42.32421385851137" lon="12.051181429175285"><ele>286.6</ele><time>2026-04-29T11:41:42.999Z</time></trkpt><trkpt lat="42.324147357844595" lon="12.051084474770859"><ele>285.8</ele><time>2026-04-29T11:41:43.999Z</time></trkpt><trkpt lat="42.32407871337575" lon="12.051014034336855"><ele>285.0</ele><time>2026-04-29T11:41:44.999Z</time></trkpt><trkpt lat="42.32400591556511" lon="12.050955816293106"><ele>285.0</ele><time>2026-04-29T11:41:45.999Z</time></trkpt><trkpt lat="42.323932933549976" lon="12.050911721557519"><ele>285.0</ele><time>2026-04-29T11:41:46.999Z</time></trkpt><trkpt lat="42.323858022127354" lon="12.050883432268707"><ele>285.0</ele><time>2026-04-29T11:41:47.999Z</time></trkpt><trkpt lat="42.32378382338355" lon="12.050873400387136"><ele>285.0</ele><time>2026-04-29T11:41:48.999Z</time></trkpt><trkpt lat="42.323703157961695" lon="12.050876917302052"><ele>285.0</ele><time>2026-04-29T11:41:49.999Z</time></trkpt><trkpt lat="42.323625890529584" lon="12.050897057960883"><ele>285.0</ele><time>2026-04-29T11:41:50.999Z</time></trkpt><trkpt lat="42.32354495933162" lon="12.050934856165556"><ele>284.0</ele><time>2026-04-29T11:41:51.999Z</time></trkpt><trkpt lat="42.32345763940217" lon="12.050991843169959"><ele>283.0</ele><time>2026-04-29T11:41:52.999Z</time></trkpt><trkpt lat="42.32337350360903" lon="12.051065081963491"><ele>282.0</ele><time>2026-04-29T11:41:53.999Z</time></trkpt><trkpt lat="42.32330532887345" lon="12.051149345609316"><ele>281.0</ele><time>2026-04-29T11:41:54.999Z</time></trkpt><trkpt lat="42.323253220488176" lon="12.051258182563855"><ele>280.0</ele><time>2026-04-29T11:41:55.999Z</time></trkpt><trkpt lat="42.32320358845236" lon="12.051394450303398"><ele>280.0</ele><time>2026-04-29T11:41:56.999Z</time></trkpt><trkpt lat="42.32313492541481" lon="12.051534711061255"><ele>280.0</ele><time>2026-04-29T11:41:57.999Z</time></trkpt><trkpt lat="42.32308806843831" lon="12.05170502807568"><ele>280.0</ele><time>2026-04-29T11:41:58.999Z</time></trkpt><trkpt lat="42.32302799763181" lon="12.051851388552807"><ele>280.0</ele><time>2026-04-29T11:41:59.999Z</time></trkpt><trkpt lat="42.32297526548146" lon="12.051990086228969"><ele>281.4</ele><time>2026-04-29T11:42:00.999Z</time></trkpt><trkpt lat="42.32292843999373" lon="12.052121936183884"><ele>282.8</ele><time>2026-04-29T11:42:01.999Z</time></trkpt><trkpt lat="42.322882070999995" lon="12.052240939736176"><ele>284.2</ele><time>2026-04-29T11:42:02.999Z</time></trkpt><trkpt lat="42.32283598441495" lon="12.05235134451252"><ele>285.6</ele><time>2026-04-29T11:42:03.999Z</time></trkpt><trkpt lat="42.32278970445361" lon="12.052464159974233"><ele>287.0</ele><time>2026-04-29T11:42:04.999Z</time></trkpt><trkpt lat="42.32274369558526" lon="12.052580289669882"><ele>287.0</ele><time>2026-04-29T11:42:05.999Z</time></trkpt><trkpt lat="42.322700052153465" lon="12.052700503045351"><ele>287.0</ele><time>2026-04-29T11:42:06.999Z</time></trkpt><trkpt lat="42.32265462159733" lon="12.052822671264241"><ele>287.0</ele><time>2026-04-29T11:42:07.999Z</time></trkpt><trkpt lat="42.32260804111242" lon="12.052946277204923"><ele>287.0</ele><time>2026-04-29T11:42:08.999Z</time></trkpt><trkpt lat="42.32256297651604" lon="12.053071953865619"><ele>287.0</ele><time>2026-04-29T11:42:09.999Z</time></trkpt><trkpt lat="42.32251560228278" lon="12.053200391556304"><ele>287.8</ele><time>2026-04-29T11:42:10.999Z</time></trkpt><trkpt lat="42.32246931588569" lon="12.0533308073133"><ele>288.6</ele><time>2026-04-29T11:42:11.999Z</time></trkpt><trkpt lat="42.32242028278624" lon="12.053462827430325"><ele>289.40000000000003</ele><time>2026-04-29T11:42:12.999Z</time></trkpt><trkpt lat="42.32237208870361" lon="12.053597132891582"><ele>290.2</ele><time>2026-04-29T11:42:13.999Z</time></trkpt><trkpt lat="42.322321981877366" lon="12.053732437382283"><ele>291.0</ele><time>2026-04-29T11:42:14.999Z</time></trkpt><trkpt lat="42.32227057763989" lon="12.053861806756633"><ele>292.0</ele><time>2026-04-29T11:42:15.999Z</time></trkpt><trkpt lat="42.322227125777694" lon="12.053981638187564"><ele>293.0</ele><time>2026-04-29T11:42:16.999Z</time></trkpt><trkpt lat="42.32218533255783" lon="12.054096627294816"><ele>294.0</ele><time>2026-04-29T11:42:17.999Z</time></trkpt><trkpt lat="42.32214149323933" lon="12.054212278838966"><ele>295.0</ele><time>2026-04-29T11:42:18.999Z</time></trkpt><trkpt lat="42.32209689785907" lon="12.054329422675757"><ele>296.0</ele><time>2026-04-29T11:42:19.999Z</time></trkpt><trkpt lat="42.32205117142011" lon="12.054448098287413"><ele>296.0</ele><time>2026-04-29T11:42:20.999Z</time></trkpt><trkpt lat="42.32200924253387" lon="12.054566441373288"><ele>296.0</ele><time>2026-04-29T11:42:21.999Z</time></trkpt><trkpt lat="42.32196327116417" lon="12.054683828006873"><ele>296.0</ele><time>2026-04-29T11:42:22.999Z</time></trkpt><trkpt lat="42.32191715157251" lon="12.05480034810536"><ele>296.0</ele><time>2026-04-29T11:42:23.999Z</time></trkpt><trkpt lat="42.32187029245767" lon="12.054914826917356"><ele>296.0</ele><time>2026-04-29T11:42:24.999Z</time></trkpt><trkpt lat="42.32182355501082" lon="12.05503168419291"><ele>295.40000000000003</ele><time>2026-04-29T11:42:25.999Z</time></trkpt><trkpt lat="42.321779390567315" lon="12.055148939844532"><ele>294.8</ele><time>2026-04-29T11:42:26.999Z</time></trkpt><trkpt lat="42.32173570882207" lon="12.055267997135385"><ele>294.20000000000005</ele><time>2026-04-29T11:42:27.999Z</time></trkpt><trkpt lat="42.321691165369224" lon="12.055383298703257"><ele>293.6</ele><time>2026-04-29T11:42:28.999Z</time></trkpt><trkpt lat="42.32165041623575" lon="12.055488038034673"><ele>293.0</ele><time>2026-04-29T11:42:29.999Z</time></trkpt><trkpt lat="42.32160964593335" lon="12.055580677999474"><ele>293.0</ele><time>2026-04-29T11:42:30.999Z</time></trkpt><trkpt lat="42.32155991840218" lon="12.05565187330968"><ele>293.0</ele><time>2026-04-29T11:42:32Z</time></trkpt><trkpt lat="42.321444496871486" lon="12.055716167926937"><ele>293.0</ele><time>2026-04-29T11:42:34Z</time></trkpt><trkpt lat="42.321370704214786" lon="12.05571800049053"><ele>293.0</ele><time>2026-04-29T11:42:35Z</time></trkpt><trkpt lat="42.321283502657664" lon="12.05571065516893"><ele>293.0</ele><time>2026-04-29T11:42:36Z</time></trkpt><trkpt lat="42.3211819427719" lon="12.055721384712598"><ele>295.25</ele><time>2026-04-29T11:42:37Z</time></trkpt><trkpt lat="42.321074158766514" lon="12.055728501528362"><ele>297.5</ele><time>2026-04-29T11:42:38Z</time></trkpt><trkpt lat="42.32094652517564" lon="12.055723348785277"><ele>299.75</ele><time>2026-04-29T11:42:39Z</time></trkpt><trkpt lat="42.32080566655347" lon="12.05572850633798"><ele>302.0</ele><time>2026-04-29T11:42:40Z</time></trkpt><trkpt lat="42.32065127985445" lon="12.05574149598783"><ele>303.5</ele><time>2026-04-29T11:42:41Z</time></trkpt><trkpt lat="42.3205051642196" lon="12.055754338899494"><ele>305.0</ele><time>2026-04-29T11:42:42Z</time></trkpt><trkpt lat="42.32036550388053" lon="12.055764998355285"><ele>306.5</ele><time>2026-04-29T11:42:43Z</time></trkpt><trkpt lat="42.32022876279723" lon="12.055780034977378"><ele>308.0</ele><time>2026-04-29T11:42:44Z</time></trkpt><trkpt lat="42.320101401248614" lon="12.055789830455586"><ele>308.0</ele><time>2026-04-29T11:42:45Z</time></trkpt><trkpt lat="42.320001238215696" lon="12.05579623879827"><ele>308.0</ele><time>2026-04-29T11:42:46Z</time></trkpt><trkpt lat="42.31993762268288" lon="12.055764140686108"><ele>308.0</ele><time>2026-04-29T11:42:47Z</time></trkpt><trkpt lat="42.319924321002055" lon="12.055634545913549"><ele>308.0</ele><time>2026-04-29T11:42:49Z</time></trkpt><trkpt lat="42.31997610381269" lon="12.05551474174856"><ele>308.0</ele><time>2026-04-29T11:42:51Z</time></trkpt><trkpt lat="42.319955225628796" lon="12.05539677044818"><ele>308.0</ele><time>2026-04-29T11:42:54Z</time></trkpt><trkpt lat="42.31999132398508" lon="12.055324174343854"><ele>308.0</ele><time>2026-04-29T11:42:55Z</time></trkpt><trkpt lat="42.32003323200972" lon="12.055237069231133"><ele>308.0</ele><time>2026-04-29T11:42:57Z</time></trkpt><trkpt lat="42.320096971377524" lon="12.055104587464497"><ele>308.0</ele><time>2026-04-29T11:42:59Z</time></trkpt><trkpt lat="42.3201317119014" lon="12.055030370564316"><ele>308.0</ele><time>2026-04-29T11:43:00Z</time></trkpt><trkpt lat="42.32016995504272" lon="12.05494433549953"><ele>308.0</ele><time>2026-04-29T11:43:01Z</time></trkpt><trkpt lat="42.32021968603481" lon="12.05487270395995"><ele>307.57142857142856</ele><time>2026-04-29T11:43:02Z</time></trkpt><trkpt lat="42.32026202521333" lon="12.054795172399407"><ele>307.1428571428571</ele><time>2026-04-29T11:43:03Z</time></trkpt><trkpt lat="42.320302333533945" lon="12.054717200861251"><ele>306.7142857142857</ele><time>2026-04-29T11:43:04Z</time></trkpt><trkpt lat="42.320343561504906" lon="12.054640225911895"><ele>306.2857142857143</ele><time>2026-04-29T11:43:05Z</time></trkpt><trkpt lat="42.32039202928881" lon="12.054564000054635"><ele>305.85714285714283</ele><time>2026-04-29T11:43:06Z</time></trkpt><trkpt lat="42.32041767281529" lon="12.054474035923619"><ele>305.42857142857144</ele><time>2026-04-29T11:43:07Z</time></trkpt><trkpt lat="42.32045324271805" lon="12.054399694822463"><ele>305.0</ele><time>2026-04-29T11:43:08Z</time></trkpt><trkpt lat="42.32051887340939" lon="12.054262525777572"><ele>305.6666666666667</ele><time>2026-04-29T11:43:10Z</time></trkpt><trkpt lat="42.32059060581651" lon="12.054153509809655"><ele>306.33333333333337</ele><time>2026-04-29T11:43:12Z</time></trkpt><trkpt lat="42.32065301421992" lon="12.054054541453153"><ele>307.0</ele><time>2026-04-29T11:43:14Z</time></trkpt><trkpt lat="42.320738379427276" lon="12.053956009656867"><ele>307.6666666666667</ele><time>2026-04-29T11:43:16Z</time></trkpt><trkpt lat="42.32077439214362" lon="12.053882290981978"><ele>308.3333333333333</ele><time>2026-04-29T11:43:17Z</time></trkpt><trkpt lat="42.32081528454365" lon="12.053815530656717"><ele>309.0</ele><time>2026-04-29T11:43:18Z</time></trkpt><trkpt lat="42.32089375956457" lon="12.053706622916575"><ele>309.00000000000006</ele><time>2026-04-29T11:43:20Z</time></trkpt><trkpt lat="42.32091636738659" lon="12.05361611322218"><ele>309.0</ele><time>2026-04-29T11:43:22Z</time></trkpt><trkpt lat="42.32096709446599" lon="12.053537510268104"><ele>309.0</ele><time>2026-04-29T11:43:53.999Z</time></trkpt><trkpt lat="42.32101085949692" lon="12.053460624285306"><ele>309.0</ele><time>2026-04-29T11:43:58.999Z</time></trkpt><trkpt lat="42.320943580850034" lon="12.053479666368814"><ele>309.0</ele><time>2026-04-29T11:56:36Z</time></trkpt><trkpt lat="42.32087764609086" lon="12.053483652311483"><ele>309.00000000000006</ele><time>2026-04-29T11:56:55Z</time></trkpt><trkpt lat="42.32083788567843" lon="12.053398994415124"><ele>309.0</ele><time>2026-04-29T11:57:02Z</time></trkpt><trkpt lat="42.320885205755005" lon="12.053474819471719"><ele>309.0</ele><time>2026-04-29T11:58:21Z</time></trkpt><trkpt lat="42.32097128949633" lon="12.053485984745274"><ele>309.0</ele><time>2026-04-29T11:58:32Z</time></trkpt><trkpt lat="42.321033319067396" lon="12.053463705952506"><ele>309.0</ele><time>2026-04-29T11:58:41Z</time></trkpt><trkpt lat="42.32108164479603" lon="12.053401346719154"><ele>309.0</ele><time>2026-04-29T11:59:35Z</time></trkpt><trkpt lat="42.3211491500053" lon="12.053331590427504"><ele>309.0</ele><time>2026-04-29T11:59:38Z</time></trkpt><trkpt lat="42.321191389230314" lon="12.053229253595546"><ele>309.0</ele><time>2026-04-29T11:59:41Z</time></trkpt><trkpt lat="42.321259059885215" lon="12.053148937190818"><ele>307.4</ele><time>2026-04-29T11:59:43Z</time></trkpt><trkpt lat="42.321310665489605" lon="12.05304126942821"><ele>305.79999999999995</ele><time>2026-04-29T11:59:45Z</time></trkpt><trkpt lat="42.321364274370545" lon="12.052929362156295"><ele>304.20000000000005</ele><time>2026-04-29T11:59:47Z</time></trkpt><trkpt lat="42.32143331608666" lon="12.052831586250194"><ele>302.6</ele><time>2026-04-29T11:59:49Z</time></trkpt><trkpt lat="42.321498368058705" lon="12.05280181560464"><ele>301.0</ele><time>2026-04-29T11:59:50Z</time></trkpt><trkpt lat="42.32154204538618" lon="12.05266336543722"><ele>301.0</ele><time>2026-04-29T11:59:52Z</time></trkpt><trkpt lat="42.32159318446644" lon="12.052549285534626"><ele>301.0</ele><time>2026-04-29T11:59:54Z</time></trkpt><trkpt lat="42.321645017220746" lon="12.0524336028146"><ele>301.0</ele><time>2026-04-29T11:59:56Z</time></trkpt><trkpt lat="42.321705400107376" lon="12.052351437376966"><ele>301.0</ele><time>2026-04-29T11:59:58Z</time></trkpt><trkpt lat="42.32175189782935" lon="12.052244475817524"><ele>301.0</ele><time>2026-04-29T12:00:00Z</time></trkpt><trkpt lat="42.32179726464725" lon="12.052157300868782"><ele>299.40000000000003</ele><time>2026-04-29T12:00:02Z</time></trkpt><trkpt lat="42.32185088674313" lon="12.052057556922634"><ele>297.8</ele><time>2026-04-29T12:00:05Z</time></trkpt><trkpt lat="42.32189740052819" lon="12.051946095088422"><ele>296.20000000000005</ele><time>2026-04-29T12:00:07Z</time></trkpt><trkpt lat="42.321945982147135" lon="12.051796668416035"><ele>294.6</ele><time>2026-04-29T12:00:09Z</time></trkpt><trkpt lat="42.321994215721695" lon="12.051649969112674"><ele>293.0</ele><time>2026-04-29T12:00:11Z</time></trkpt><trkpt lat="42.32204615181806" lon="12.051500019623168"><ele>292.83333333333337</ele><time>2026-04-29T12:00:13Z</time></trkpt><trkpt lat="42.32206554909063" lon="12.051417661364006"><ele>292.6666666666667</ele><time>2026-04-29T12:00:14Z</time></trkpt><trkpt lat="42.32211041154395" lon="12.051316710843116"><ele>292.5</ele><time>2026-04-29T12:00:16Z</time></trkpt><trkpt lat="42.32213613915453" lon="12.051224733455765"><ele>292.3333333333333</ele><time>2026-04-29T12:00:18Z</time></trkpt><trkpt lat="42.3221835529333" lon="12.05110839217714"><ele>292.16666666666663</ele><time>2026-04-29T12:00:20Z</time></trkpt><trkpt lat="42.32222114753127" lon="12.051019241719814"><ele>292.0</ele><time>2026-04-29T12:00:21Z</time></trkpt><trkpt lat="42.32224523818622" lon="12.050934957592334"><ele>292.0</ele><time>2026-04-29T12:00:22Z</time></trkpt><trkpt lat="42.32227319983551" lon="12.05084882038791"><ele>292.0</ele><time>2026-04-29T12:00:23Z</time></trkpt><trkpt lat="42.3222982948789" lon="12.050765921575083"><ele>292.0</ele><time>2026-04-29T12:00:24Z</time></trkpt><trkpt lat="42.32234314450205" lon="12.050613464562092"><ele>292.0</ele><time>2026-04-29T12:00:26Z</time></trkpt><trkpt lat="42.32236657546029" lon="12.050532997979122"><ele>292.0</ele><time>2026-04-29T12:00:27.001Z</time></trkpt><trkpt lat="42.322406540890576" lon="12.05038221560707"><ele>292.0</ele><time>2026-04-29T12:00:29.001Z</time></trkpt><trkpt lat="42.322449257035366" lon="12.050221498252178"><ele>291.8333333333333</ele><time>2026-04-29T12:00:31.001Z</time></trkpt><trkpt lat="42.32247685994958" lon="12.050144555763175"><ele>291.66666666666663</ele><time>2026-04-29T12:00:32.001Z</time></trkpt><trkpt lat="42.32250543337544" lon="12.05006418265897"><ele>291.5</ele><time>2026-04-29T12:00:33.001Z</time></trkpt><trkpt lat="42.32253337219997" lon="12.049978489434194"><ele>291.3333333333333</ele><time>2026-04-29T12:00:34.001Z</time></trkpt><trkpt lat="42.32256200272457" lon="12.049822521549713"><ele>291.1666666666667</ele><time>2026-04-29T12:00:36.001Z</time></trkpt><trkpt lat="42.32259326643322" lon="12.049679839971825"><ele>291.0</ele><time>2026-04-29T12:00:38.001Z</time></trkpt><trkpt lat="42.32263497483313" lon="12.049535967707104"><ele>290.7142857142857</ele><time>2026-04-29T12:00:40.001Z</time></trkpt><trkpt lat="42.32265578060491" lon="12.049442555323823"><ele>290.4285714285714</ele><time>2026-04-29T12:00:41.001Z</time></trkpt><trkpt lat="42.32267249567272" lon="12.049340351490876"><ele>290.1428571428571</ele><time>2026-04-29T12:00:42.001Z</time></trkpt><trkpt lat="42.32269759865116" lon="12.049229376608116"><ele>289.85714285714283</ele><time>2026-04-29T12:00:43.001Z</time></trkpt><trkpt lat="42.3227221114571" lon="12.049129853428052"><ele>289.57142857142856</ele><time>2026-04-29T12:00:44.001Z</time></trkpt><trkpt lat="42.32274191583089" lon="12.049042562104392"><ele>289.2857142857143</ele><time>2026-04-29T12:00:45.001Z</time></trkpt><trkpt lat="42.32276275130352" lon="12.048954672681173"><ele>289.0</ele><time>2026-04-29T12:00:46.001Z</time></trkpt><trkpt lat="42.32278744008912" lon="12.048870800732102"><ele>287.66666666666663</ele><time>2026-04-29T12:00:47.001Z</time></trkpt><trkpt lat="42.32282920048844" lon="12.048730691993834"><ele>286.3333333333333</ele><time>2026-04-29T12:00:49.001Z</time></trkpt><trkpt lat="42.32286338445697" lon="12.048637143911936"><ele>285.0</ele><time>2026-04-29T12:00:51.001Z</time></trkpt><trkpt lat="42.32292945335682" lon="12.048550449084587"><ele>283.6666666666667</ele><time>2026-04-29T12:00:58.001Z</time></trkpt><trkpt lat="42.32295221613518" lon="12.048459223987313"><ele>282.33333333333337</ele><time>2026-04-29T12:01:00.001Z</time></trkpt><trkpt lat="42.32289683956537" lon="12.048400634324057"><ele>281.0</ele><time>2026-04-29T12:01:54.001Z</time></trkpt><trkpt lat="42.3228015894223" lon="12.048366664507402"><ele>281.0</ele><time>2026-04-29T12:01:56.001Z</time></trkpt><trkpt lat="42.32273586322033" lon="12.048333314357006"><ele>281.0</ele><time>2026-04-29T12:02:01.001Z</time></trkpt><trkpt lat="42.322681424809915" lon="12.048440229021152"><ele>281.0</ele><time>2026-04-29T12:02:50.001Z</time></trkpt><trkpt lat="42.3227163222508" lon="12.048517037352013"><ele>281.0</ele><time>2026-04-29T12:03:59.001Z</time></trkpt><trkpt lat="42.32280006543414" lon="12.048565902729543"><ele>281.0</ele><time>2026-04-29T12:04:02.001Z</time></trkpt><trkpt lat="42.32286475873036" lon="12.048662704359913"><ele>281.0</ele><time>2026-04-29T12:04:04.001Z</time></trkpt><trkpt lat="42.32288288959253" lon="12.048813952049361"><ele>281.0</ele><time>2026-04-29T12:04:06.001Z</time></trkpt><trkpt lat="42.322880292574105" lon="12.048912710293438"><ele>281.0</ele><time>2026-04-29T12:04:07.001Z</time></trkpt><trkpt lat="42.322875150875575" lon="12.04902602378457"><ele>281.0</ele><time>2026-04-29T12:04:08.001Z</time></trkpt><trkpt lat="42.32286832495518" lon="12.049145368874944"><ele>281.0</ele><time>2026-04-29T12:04:09.001Z</time></trkpt><trkpt lat="42.32286181245598" lon="12.049278276324916"><ele>281.0</ele><time>2026-04-29T12:04:10.001Z</time></trkpt><trkpt lat="42.32285874263746" lon="12.04942880811036"><ele>283.0</ele><time>2026-04-29T12:04:11.001Z</time></trkpt><trkpt lat="42.32285272758673" lon="12.049574835298985"><ele>285.0</ele><time>2026-04-29T12:04:12.001Z</time></trkpt><trkpt lat="42.32284197388615" lon="12.04972825605131"><ele>287.0</ele><time>2026-04-29T12:04:13.001Z</time></trkpt><trkpt lat="42.32283100068918" lon="12.049891271741986"><ele>289.0</ele><time>2026-04-29T12:04:14.001Z</time></trkpt><trkpt lat="42.322820083603396" lon="12.05006235207547"><ele>289.5</ele><time>2026-04-29T12:04:15.001Z</time></trkpt><trkpt lat="42.322805940938544" lon="12.050228471017547"><ele>290.0</ele><time>2026-04-29T12:04:16.001Z</time></trkpt><trkpt lat="42.32279386153527" lon="12.0503897387499"><ele>290.5</ele><time>2026-04-29T12:04:17.001Z</time></trkpt><trkpt lat="42.32278119291403" lon="12.050543670703124"><ele>291.0</ele><time>2026-04-29T12:04:18.001Z</time></trkpt><trkpt lat="42.32277425574685" lon="12.050685988864101"><ele>291.1666666666667</ele><time>2026-04-29T12:04:19.001Z</time></trkpt><trkpt lat="42.322779663593764" lon="12.050811537285941"><ele>291.3333333333333</ele><time>2026-04-29T12:04:20.001Z</time></trkpt><trkpt lat="42.322807347611146" lon="12.050928562663717"><ele>291.5</ele><time>2026-04-29T12:04:21.001Z</time></trkpt><trkpt lat="42.32286438395567" lon="12.051022516534884"><ele>291.66666666666663</ele><time>2026-04-29T12:04:22.001Z</time></trkpt><trkpt lat="42.32294139878017" lon="12.051074034740713"><ele>291.8333333333333</ele><time>2026-04-29T12:04:23.001Z</time></trkpt><trkpt lat="42.323025610842215" lon="12.051096193625249"><ele>292.0</ele><time>2026-04-29T12:04:24.001Z</time></trkpt><trkpt lat="42.323108437179116" lon="12.051112956608902"><ele>290.6</ele><time>2026-04-29T12:04:25.001Z</time></trkpt><trkpt lat="42.32316636654846" lon="12.051154296498833"><ele>289.2</ele><time>2026-04-29T12:04:26.001Z</time></trkpt><trkpt lat="42.32318846337834" lon="12.051400796704884"><ele>287.8</ele><time>2026-04-29T12:04:29.001Z</time></trkpt><trkpt lat="42.32315627391608" lon="12.051492622800888"><ele>286.4</ele><time>2026-04-29T12:04:30.001Z</time></trkpt><trkpt lat="42.32311748986971" lon="12.051590295930419"><ele>285.0</ele><time>2026-04-29T12:04:31.001Z</time></trkpt><trkpt lat="42.323078207523075" lon="12.051695175628824"><ele>285.8</ele><time>2026-04-29T12:04:32.001Z</time></trkpt><trkpt lat="42.32303425329982" lon="12.051810405251633"><ele>286.6</ele><time>2026-04-29T12:04:33.001Z</time></trkpt><trkpt lat="42.322986110032986" lon="12.051933649071373"><ele>287.4</ele><time>2026-04-29T12:04:34.001Z</time></trkpt><trkpt lat="42.32293722692725" lon="12.052066015121625"><ele>288.2</ele><time>2026-04-29T12:04:35.001Z</time></trkpt><trkpt lat="42.322888937071134" lon="12.052202479505175"><ele>289.0</ele><time>2026-04-29T12:04:36.001Z</time></trkpt><trkpt lat="42.322840043267256" lon="12.052341845942253"><ele>288.5</ele><time>2026-04-29T12:04:37.001Z</time></trkpt><trkpt lat="42.322784175252465" lon="12.052482167613855"><ele>288.0</ele><time>2026-04-29T12:04:38.001Z</time></trkpt><trkpt lat="42.322731789158105" lon="12.052628735665214"><ele>287.5</ele><time>2026-04-29T12:04:39.001Z</time></trkpt><trkpt lat="42.3226792803896" lon="12.052778632134453"><ele>287.0</ele><time>2026-04-29T12:04:40.001Z</time></trkpt><trkpt lat="42.322624244507125" lon="12.052929087138507"><ele>287.0</ele><time>2026-04-29T12:04:41.001Z</time></trkpt><trkpt lat="42.32256775072237" lon="12.05308428622565"><ele>287.0</ele><time>2026-04-29T12:04:42.001Z</time></trkpt><trkpt lat="42.322510211911535" lon="12.053241936398248"><ele>287.0</ele><time>2026-04-29T12:04:43.001Z</time></trkpt><trkpt lat="42.322450463983955" lon="12.053399817529971"><ele>287.0</ele><time>2026-04-29T12:04:44.001Z</time></trkpt><trkpt lat="42.32239162609664" lon="12.053561656211548"><ele>288.0</ele><time>2026-04-29T12:04:45.001Z</time></trkpt><trkpt lat="42.32233149854084" lon="12.053724159892559"><ele>289.0</ele><time>2026-04-29T12:04:46.001Z</time></trkpt><trkpt lat="42.322271442695154" lon="12.053887340981847"><ele>290.0</ele><time>2026-04-29T12:04:47.001Z</time></trkpt><trkpt lat="42.32221049713647" lon="12.05404886017148"><ele>291.0</ele><time>2026-04-29T12:04:48.001Z</time></trkpt><trkpt lat="42.32215122949516" lon="12.054203916311474"><ele>292.25</ele><time>2026-04-29T12:04:49.001Z</time></trkpt><trkpt lat="42.32209171673399" lon="12.054362720329893"><ele>293.5</ele><time>2026-04-29T12:04:50.001Z</time></trkpt><trkpt lat="42.32203498118573" lon="12.054519739737538"><ele>294.75</ele><time>2026-04-29T12:04:51.001Z</time></trkpt><trkpt lat="42.321978131733985" lon="12.054671966988426"><ele>296.0</ele><time>2026-04-29T12:04:52.001Z</time></trkpt><trkpt lat="42.321922300916825" lon="12.054809718295072"><ele>296.0</ele><time>2026-04-29T12:04:53.001Z</time></trkpt><trkpt lat="42.3218673095412" lon="12.05493350244056"><ele>296.0</ele><time>2026-04-29T12:04:54.001Z</time></trkpt><trkpt lat="42.321818209485265" lon="12.055044593748494"><ele>296.0</ele><time>2026-04-29T12:04:55.001Z</time></trkpt><trkpt lat="42.32177289306902" lon="12.055144926269884"><ele>296.0</ele><time>2026-04-29T12:04:56.001Z</time></trkpt><trkpt lat="42.321731158193224" lon="12.055234206154408"><ele>296.0</ele><time>2026-04-29T12:04:57.001Z</time></trkpt><trkpt lat="42.32169840440909" lon="12.055317655285153"><ele>296.0</ele><time>2026-04-29T12:04:58.001Z</time></trkpt><trkpt lat="42.32164536300019" lon="12.05545650326453"><ele>295.40000000000003</ele><time>2026-04-29T12:05:00.001Z</time></trkpt><trkpt lat="42.32160586992221" lon="12.055566996280978"><ele>294.8</ele><time>2026-04-29T12:05:11.001Z</time></trkpt><trkpt lat="42.32153936495921" lon="12.05567644127343"><ele>294.20000000000005</ele><time>2026-04-29T12:05:13.001Z</time></trkpt><trkpt lat="42.32142247454429" lon="12.055729242715893"><ele>293.6</ele><time>2026-04-29T12:05:15.001Z</time></trkpt><trkpt lat="42.321340904898356" lon="12.055700158293906"><ele>293.0</ele><time>2026-04-29T12:05:16.001Z</time></trkpt><trkpt lat="42.32125334456837" lon="12.055701945793366"><ele>294.8</ele><time>2026-04-29T12:05:17.001Z</time></trkpt><trkpt lat="42.321150531114405" lon="12.055705709516909"><ele>296.6</ele><time>2026-04-29T12:05:18.001Z</time></trkpt><trkpt lat="42.32104439857799" lon="12.055711973391332"><ele>298.4</ele><time>2026-04-29T12:05:19.001Z</time></trkpt><trkpt lat="42.32093174926641" lon="12.055719542292035"><ele>300.2</ele><time>2026-04-29T12:05:20.001Z</time></trkpt><trkpt lat="42.320814362040664" lon="12.05572804611696"><ele>302.0</ele><time>2026-04-29T12:05:21.001Z</time></trkpt><trkpt lat="42.320698201087055" lon="12.055759190127018"><ele>302.0</ele><time>2026-04-29T12:05:22.001Z</time></trkpt><trkpt lat="42.32057329226669" lon="12.055759486228274"><ele>302.0</ele><time>2026-04-29T12:05:23.001Z</time></trkpt><trkpt lat="42.32044522080864" lon="12.055770882510588"><ele>302.0</ele><time>2026-04-29T12:05:24.001Z</time></trkpt><trkpt lat="42.32031549991175" lon="12.055786126701415"><ele>302.0</ele><time>2026-04-29T12:05:25.001Z</time></trkpt><trkpt lat="42.320204092417875" lon="12.055793812317422"><ele>303.2</ele><time>2026-04-29T12:05:26.001Z</time></trkpt><trkpt lat="42.32010205823138" lon="12.055805569386628"><ele>304.4</ele><time>2026-04-29T12:05:27.001Z</time></trkpt><trkpt lat="42.320014630055894" lon="12.055789632166032"><ele>305.6</ele><time>2026-04-29T12:05:28.001Z</time></trkpt><trkpt lat="42.3199494449751" lon="12.055784195526934"><ele>306.8</ele><time>2026-04-29T12:05:29.001Z</time></trkpt><trkpt lat="42.31995172998264" lon="12.055636351773044"><ele>308.0</ele><time>2026-04-29T12:05:31.001Z</time></trkpt><trkpt lat="42.31996845537964" lon="12.055521080218707"><ele>308.0</ele><time>2026-04-29T12:05:33.001Z</time></trkpt><trkpt lat="42.31995474302735" lon="12.055393762146972"><ele>308.0</ele><time>2026-04-29T12:05:37Z</time></trkpt><trkpt lat="42.32000362826762" lon="12.055298600156991"><ele>308.0</ele><time>2026-04-29T12:05:38Z</time></trkpt><trkpt lat="42.32004385769191" lon="12.055214983955448"><ele>308.0</ele><time>2026-04-29T12:05:39Z</time></trkpt><trkpt lat="42.32010871702141" lon="12.05508210175681"><ele>308.0</ele><time>2026-04-29T12:05:41Z</time></trkpt><trkpt lat="42.32016676331016" lon="12.054985777319796"><ele>308.0</ele><time>2026-04-29T12:05:43Z</time></trkpt><trkpt lat="42.32017208102326" lon="12.054881125130517"><ele>308.0</ele><time>2026-04-29T12:05:46Z</time></trkpt><trkpt lat="42.32023561179683" lon="12.054846526585063"><ele>308.0</ele><time>2026-04-29T12:06:00.001Z</time></trkpt><trkpt lat="42.3203454528148" lon="12.055001648426282"><ele>308.0</ele><time>2026-04-29T12:06:11.001Z</time></trkpt><trkpt lat="42.32033733558621" lon="12.055088891668145"><ele>308.0</ele><time>2026-04-29T12:11:57Z</time></trkpt><trkpt lat="42.320315309219666" lon="12.055184134603365"><ele>308.0</ele><time>2026-04-29T12:12:02Z</time></trkpt><trkpt lat="42.32026918868094" lon="12.055277777029902"><ele>308.0</ele><time>2026-04-29T12:12:05Z</time></trkpt><trkpt lat="42.32018185201716" lon="12.0552525425777"><ele>308.0</ele><time>2026-04-29T12:12:07Z</time></trkpt><trkpt lat="42.320124117032044" lon="12.055213800587676"><ele>308.0</ele><time>2026-04-29T12:12:10Z</time></trkpt><trkpt lat="42.32005054404666" lon="12.055221648538396"><ele>308.0</ele><time>2026-04-29T12:12:14Z</time></trkpt><trkpt lat="42.319995186331184" lon="12.055322943344354"><ele>308.0</ele><time>2026-04-29T12:12:16Z</time></trkpt><trkpt lat="42.3199475066881" lon="12.05537948219981"><ele>308.0</ele><time>2026-04-29T12:12:18Z</time></trkpt><trkpt lat="42.31992072489823" lon="12.0554749980955"><ele>308.0</ele><time>2026-04-29T12:12:34Z</time></trkpt><trkpt lat="42.319931787901126" lon="12.055589449963426"><ele>308.0</ele><time>2026-04-29T12:12:36Z</time></trkpt><trkpt lat="42.31990512030905" lon="12.0557244745739"><ele>308.0</ele><time>2026-04-29T12:12:38Z</time></trkpt><trkpt lat="42.31994875476257" lon="12.055841764564327"><ele>308.0</ele><time>2026-04-29T12:12:40Z</time></trkpt><trkpt lat="42.32006420908212" lon="12.055857554588782"><ele>308.0</ele><time>2026-04-29T12:12:42Z</time></trkpt><trkpt lat="42.320130433088835" lon="12.0558352561749"><ele>308.0</ele><time>2026-04-29T12:12:43Z</time></trkpt><trkpt lat="42.32021137156956" lon="12.055820376665482"><ele>308.0</ele><time>2026-04-29T12:12:44Z</time></trkpt><trkpt lat="42.32030566195703" lon="12.055817906298484"><ele>308.0</ele><time>2026-04-29T12:12:45Z</time></trkpt><trkpt lat="42.32040607575948" lon="12.055816380629446"><ele>308.0</ele><time>2026-04-29T12:12:46Z</time></trkpt><trkpt lat="42.32051094571258" lon="12.055807264381134"><ele>308.0</ele><time>2026-04-29T12:12:47Z</time></trkpt><trkpt lat="42.32059667442441" lon="12.055794143532358"><ele>306.8</ele><time>2026-04-29T12:12:48Z</time></trkpt><trkpt lat="42.3206974676778" lon="12.055781972189825"><ele>305.6</ele><time>2026-04-29T12:12:49Z</time></trkpt><trkpt lat="42.320799644225374" lon="12.055774194948492"><ele>304.4</ele><time>2026-04-29T12:12:50Z</time></trkpt><trkpt lat="42.32090997783601" lon="12.055773848282419"><ele>303.2</ele><time>2026-04-29T12:12:51Z</time></trkpt><trkpt lat="42.32102131417096" lon="12.055768727288658"><ele>302.0</ele><time>2026-04-29T12:12:52Z</time></trkpt><trkpt lat="42.3211143327667" lon="12.055761207175424"><ele>302.0</ele><time>2026-04-29T12:12:53Z</time></trkpt><trkpt lat="42.32120408404803" lon="12.05575426632698"><ele>302.0</ele><time>2026-04-29T12:12:54Z</time></trkpt><trkpt lat="42.32128757810863" lon="12.05574667302322"><ele>302.0</ele><time>2026-04-29T12:12:55Z</time></trkpt><trkpt lat="42.321361620998815" lon="12.055747377290333"><ele>302.0</ele><time>2026-04-29T12:12:56Z</time></trkpt><trkpt lat="42.321428778592015" lon="12.055765449859834"><ele>302.0</ele><time>2026-04-29T12:12:58Z</time></trkpt><trkpt lat="42.32149563461171" lon="12.055766819189662"><ele>302.0</ele><time>2026-04-29T12:14:10Z</time></trkpt><trkpt lat="42.321569508134154" lon="12.055785586261385"><ele>300.2</ele><time>2026-04-29T12:14:12Z</time></trkpt><trkpt lat="42.321630059903114" lon="12.055596863619215"><ele>298.4</ele><time>2026-04-29T12:14:13Z</time></trkpt><trkpt lat="42.321672709556985" lon="12.055522599981773"><ele>296.6</ele><time>2026-04-29T12:14:14Z</time></trkpt><trkpt lat="42.321711924239864" lon="12.05543731284333"><ele>294.8</ele><time>2026-04-29T12:14:15Z</time></trkpt><trkpt lat="42.321750267416114" lon="12.055339164177534"><ele>293.0</ele><time>2026-04-29T12:14:16Z</time></trkpt><trkpt lat="42.32179236197485" lon="12.05522895876193"><ele>293.0</ele><time>2026-04-29T12:14:17Z</time></trkpt><trkpt lat="42.32183895513589" lon="12.055108066907135"><ele>293.0</ele><time>2026-04-29T12:14:18Z</time></trkpt><trkpt lat="42.32188704111683" lon="12.054977342583738"><ele>293.0</ele><time>2026-04-29T12:14:19Z</time></trkpt><trkpt lat="42.32193986475424" lon="12.054836682596514"><ele>293.0</ele><time>2026-04-29T12:14:20Z</time></trkpt><trkpt lat="42.32200022463845" lon="12.054685821939808"><ele>292.5</ele><time>2026-04-29T12:14:21Z</time></trkpt><trkpt lat="42.32206244175024" lon="12.054522495114272"><ele>292.0</ele><time>2026-04-29T12:14:22Z</time></trkpt><trkpt lat="42.3221262639415" lon="12.054358559244477"><ele>291.5</ele><time>2026-04-29T12:14:23Z</time></trkpt><trkpt lat="42.322192503992284" lon="12.054191665136823"><ele>291.0</ele><time>2026-04-29T12:14:24Z</time></trkpt><trkpt lat="42.32225652735778" lon="12.054021230907544"><ele>291.0</ele><time>2026-04-29T12:14:25Z</time></trkpt><trkpt lat="42.32232055395783" lon="12.053851400428236"><ele>291.0</ele><time>2026-04-29T12:14:26Z</time></trkpt><trkpt lat="42.3223845030879" lon="12.05368962448835"><ele>291.0</ele><time>2026-04-29T12:14:27Z</time></trkpt><trkpt lat="42.32244569363503" lon="12.053534112555182"><ele>291.0</ele><time>2026-04-29T12:14:28Z</time></trkpt><trkpt lat="42.32250554050415" lon="12.053375187846413"><ele>290.0</ele><time>2026-04-29T12:14:29Z</time></trkpt><trkpt lat="42.32256606120981" lon="12.053207710687776"><ele>289.0</ele><time>2026-04-29T12:14:30Z</time></trkpt><trkpt lat="42.32262654776722" lon="12.053041436517674"><ele>288.0</ele><time>2026-04-29T12:14:31Z</time></trkpt><trkpt lat="42.322684625071034" lon="12.052879157548366"><ele>287.0</ele><time>2026-04-29T12:14:32Z</time></trkpt><trkpt lat="42.32274207118295" lon="12.052721002824745"><ele>287.0</ele><time>2026-04-29T12:14:33Z</time></trkpt><trkpt lat="42.32279812113356" lon="12.052570137733758"><ele>287.0</ele><time>2026-04-29T12:14:34Z</time></trkpt><trkpt lat="42.32285326112621" lon="12.05242129986014"><ele>287.0</ele><time>2026-04-29T12:14:35Z</time></trkpt><trkpt lat="42.32290832099546" lon="12.05227215001644"><ele>287.0</ele><time>2026-04-29T12:14:36Z</time></trkpt><trkpt lat="42.32296480070304" lon="12.05212854567355"><ele>287.5</ele><time>2026-04-29T12:14:37Z</time></trkpt><trkpt lat="42.32302126443245" lon="12.051986196618456"><ele>288.0</ele><time>2026-04-29T12:14:38Z</time></trkpt><trkpt lat="42.32307594072594" lon="12.05184261180558"><ele>288.5</ele><time>2026-04-29T12:14:39Z</time></trkpt><trkpt lat="42.32312917664461" lon="12.051701628787091"><ele>289.0</ele><time>2026-04-29T12:14:40Z</time></trkpt><trkpt lat="42.32318102492981" lon="12.051562501907895"><ele>286.75</ele><time>2026-04-29T12:14:41Z</time></trkpt><trkpt lat="42.32323575165088" lon="12.051426009312125"><ele>284.5</ele><time>2026-04-29T12:14:42Z</time></trkpt><trkpt lat="42.32329751986935" lon="12.05129377633826"><ele>282.25</ele><time>2026-04-29T12:14:43Z</time></trkpt><trkpt lat="42.32337194247855" lon="12.051173603385935"><ele>280.0</ele><time>2026-04-29T12:14:44Z</time></trkpt><trkpt lat="42.32346003650701" lon="12.051075792446248"><ele>280.0</ele><time>2026-04-29T12:14:45Z</time></trkpt><trkpt lat="42.3235604593751" lon="12.050997774596464"><ele>280.0</ele><time>2026-04-29T12:14:46Z</time></trkpt><trkpt lat="42.32366844708246" lon="12.05094797103366"><ele>280.0</ele><time>2026-04-29T12:14:47Z</time></trkpt><trkpt lat="42.323790189147516" lon="12.050935757870535"><ele>280.0</ele><time>2026-04-29T12:14:48Z</time></trkpt><trkpt lat="42.32390153296701" lon="12.050957163440007"><ele>281.25</ele><time>2026-04-29T12:14:49Z</time></trkpt><trkpt lat="42.32400664191268" lon="12.051023764804317"><ele>282.5</ele><time>2026-04-29T12:14:50Z</time></trkpt><trkpt lat="42.32410831644038" lon="12.051118212656954"><ele>283.75</ele><time>2026-04-29T12:14:51Z</time></trkpt><trkpt lat="42.32420226784848" lon="12.05123934736526"><ele>285.0</ele><time>2026-04-29T12:14:52Z</time></trkpt><trkpt lat="42.32427952954955" lon="12.05138391143224"><ele>285.0</ele><time>2026-04-29T12:14:53Z</time></trkpt><trkpt lat="42.324338958875686" lon="12.051544839707443"><ele>285.0</ele><time>2026-04-29T12:14:54Z</time></trkpt><trkpt lat="42.324388602818196" lon="12.051718095057677"><ele>285.0</ele><time>2026-04-29T12:14:55Z</time></trkpt><trkpt lat="42.324427413164905" lon="12.05189644930917"><ele>285.0</ele><time>2026-04-29T12:14:56Z</time></trkpt><trkpt lat="42.324450500803486" lon="12.052076942856607"><ele>286.0</ele><time>2026-04-29T12:14:57Z</time></trkpt><trkpt lat="42.3244567747211" lon="12.05226385652932"><ele>287.0</ele><time>2026-04-29T12:14:58Z</time></trkpt><trkpt lat="42.3244508663109" lon="12.052461791493318"><ele>288.0</ele><time>2026-04-29T12:14:59Z</time></trkpt><trkpt lat="42.32444047447936" lon="12.052650630311703"><ele>289.0</ele><time>2026-04-29T12:15:00Z</time></trkpt><trkpt lat="42.32443669125073" lon="12.052828245997"><ele>289.25</ele><time>2026-04-29T12:15:01Z</time></trkpt><trkpt lat="42.32444049503928" lon="12.0529995566494"><ele>289.5</ele><time>2026-04-29T12:15:02Z</time></trkpt><trkpt lat="42.324451106215186" lon="12.053162604791181"><ele>289.75</ele><time>2026-04-29T12:15:03Z</time></trkpt><trkpt lat="42.32446894647884" lon="12.053312279804684"><ele>290.0</ele><time>2026-04-29T12:15:04Z</time></trkpt><trkpt lat="42.32449804606931" lon="12.053459708835504"><ele>290.0</ele><time>2026-04-29T12:15:05Z</time></trkpt><trkpt lat="42.3245355278934" lon="12.053592199172654"><ele>290.0</ele><time>2026-04-29T12:15:06Z</time></trkpt><trkpt lat="42.32459099736828" lon="12.053706080490963"><ele>290.0</ele><time>2026-04-29T12:15:07Z</time></trkpt><trkpt lat="42.32466699779652" lon="12.053791379006825"><ele>290.0</ele><time>2026-04-29T12:15:08Z</time></trkpt><trkpt lat="42.3247576265952" lon="12.053861498719064"><ele>290.0</ele><time>2026-04-29T12:15:09Z</time></trkpt><trkpt lat="42.32485953316297" lon="12.05392448750376"><ele>286.75</ele><time>2026-04-29T12:15:10Z</time></trkpt><trkpt lat="42.32497188571113" lon="12.053997551603917"><ele>283.5</ele><time>2026-04-29T12:15:11Z</time></trkpt><trkpt lat="42.32509443061668" lon="12.054079602759865"><ele>280.25</ele><time>2026-04-29T12:15:12Z</time></trkpt><trkpt lat="42.325214675186366" lon="12.054145692597894"><ele>277.0</ele><time>2026-04-29T12:15:13Z</time></trkpt><trkpt lat="42.325314655833395" lon="12.054208292991097"><ele>277.0</ele><time>2026-04-29T12:15:14Z</time></trkpt><trkpt lat="42.325397505576305" lon="12.054285738493501"><ele>277.0</ele><time>2026-04-29T12:15:15Z</time></trkpt><trkpt lat="42.32546646519919" lon="12.05438160441924"><ele>277.0</ele><time>2026-04-29T12:15:16Z</time></trkpt><trkpt lat="42.32550823827614" lon="12.05451753595568"><ele>277.0</ele><time>2026-04-29T12:15:17Z</time></trkpt><trkpt lat="42.32555676519643" lon="12.054670736477645"><ele>277.0</ele><time>2026-04-29T12:15:18Z</time></trkpt><trkpt lat="42.325629892789294" lon="12.054831588192178"><ele>280.0</ele><time>2026-04-29T12:15:19Z</time></trkpt><trkpt lat="42.32568982957066" lon="12.055013661857684"><ele>283.0</ele><time>2026-04-29T12:15:20Z</time></trkpt><trkpt lat="42.325748655959124" lon="12.055184929136399"><ele>286.0</ele><time>2026-04-29T12:15:21Z</time></trkpt><trkpt lat="42.32580989975261" lon="12.055357275683006"><ele>289.0</ele><time>2026-04-29T12:15:22Z</time></trkpt><trkpt lat="42.32587428891321" lon="12.05553146891476"><ele>289.0</ele><time>2026-04-29T12:15:23Z</time></trkpt><trkpt lat="42.325939803179914" lon="12.055710798864519"><ele>289.0</ele><time>2026-04-29T12:15:24Z</time></trkpt><trkpt lat="42.326005030441785" lon="12.055899878303302"><ele>289.0</ele><time>2026-04-29T12:15:25Z</time></trkpt><trkpt lat="42.326072476792554" lon="12.056095753177352"><ele>289.3333333333333</ele><time>2026-04-29T12:15:26Z</time></trkpt><trkpt lat="42.32614148531029" lon="12.056296449142405"><ele>289.6666666666667</ele><time>2026-04-29T12:15:27Z</time></trkpt><trkpt lat="42.32620987979625" lon="12.056500732015685"><ele>290.0</ele><time>2026-04-29T12:15:28Z</time></trkpt><trkpt lat="42.32627872538351" lon="12.056706034726147"><ele>290.0</ele><time>2026-04-29T12:15:29Z</time></trkpt><trkpt lat="42.32633873794757" lon="12.0568989301927"><ele>290.0</ele><time>2026-04-29T12:15:30Z</time></trkpt><trkpt lat="42.32639108976607" lon="12.057095553377865"><ele>290.0</ele><time>2026-04-29T12:15:31Z</time></trkpt><trkpt lat="42.32644022901452" lon="12.05728641525691"><ele>292.5</ele><time>2026-04-29T12:15:32Z</time></trkpt><trkpt lat="42.32648929772167" lon="12.057473921835866"><ele>295.0</ele><time>2026-04-29T12:15:33Z</time></trkpt><trkpt lat="42.32653627595697" lon="12.057666413143245"><ele>297.5</ele><time>2026-04-29T12:15:34Z</time></trkpt><trkpt lat="42.32658232157392" lon="12.05785670872192"><ele>300.0</ele><time>2026-04-29T12:15:35Z</time></trkpt><trkpt lat="42.32662715111352" lon="12.058036365846124"><ele>300.0</ele><time>2026-04-29T12:15:36Z</time></trkpt><trkpt lat="42.32667132788573" lon="12.05820913196963"><ele>300.0</ele><time>2026-04-29T12:15:37Z</time></trkpt><trkpt lat="42.32672433817287" lon="12.058391534536495"><ele>300.0</ele><time>2026-04-29T12:15:38Z</time></trkpt><trkpt lat="42.32679212378384" lon="12.058573759511114"><ele>300.0</ele><time>2026-04-29T12:15:39Z</time></trkpt><trkpt lat="42.326876644759984" lon="12.05875110493569"><ele>300.3333333333333</ele><time>2026-04-29T12:15:40Z</time></trkpt><trkpt lat="42.326974120576836" lon="12.05892643288531"><ele>300.66666666666663</ele><time>2026-04-29T12:15:41Z</time></trkpt><trkpt lat="42.32708032250437" lon="12.059101790281902"><ele>301.0</ele><time>2026-04-29T12:15:42Z</time></trkpt><trkpt lat="42.32719719398819" lon="12.05928067625961"><ele>301.0</ele><time>2026-04-29T12:15:43Z</time></trkpt><trkpt lat="42.32732209941687" lon="12.059463342873947"><ele>301.0</ele><time>2026-04-29T12:15:44Z</time></trkpt><trkpt lat="42.32744386363307" lon="12.059645239312374"><ele>301.0</ele><time>2026-04-29T12:15:45Z</time></trkpt><trkpt lat="42.32755608646837" lon="12.059825209536926"><ele>302.0</ele><time>2026-04-29T12:15:46Z</time></trkpt><trkpt lat="42.32765973287129" lon="12.060010583663171"><ele>303.0</ele><time>2026-04-29T12:15:47Z</time></trkpt><trkpt lat="42.32775319833291" lon="12.060205195964041"><ele>304.0</ele><time>2026-04-29T12:15:48Z</time></trkpt><trkpt lat="42.327835393829346" lon="12.060414646890367"><ele>304.0</ele><time>2026-04-29T12:15:49Z</time></trkpt><trkpt lat="42.32791321244561" lon="12.060628573529737"><ele>304.0</ele><time>2026-04-29T12:15:50Z</time></trkpt><trkpt lat="42.32799074160562" lon="12.060845118729139"><ele>304.0</ele><time>2026-04-29T12:15:51Z</time></trkpt><trkpt lat="42.328066081313395" lon="12.06106697839758"><ele>303.66666666666663</ele><time>2026-04-29T12:15:52Z</time></trkpt><trkpt lat="42.328139034535276" lon="12.06129149652896"><ele>303.3333333333333</ele><time>2026-04-29T12:15:53Z</time></trkpt><trkpt lat="42.32821207936013" lon="12.061522065170367"><ele>303.0</ele><time>2026-04-29T12:15:54Z</time></trkpt><trkpt lat="42.328275368704794" lon="12.061766221900138"><ele>304.0</ele><time>2026-04-29T12:15:55Z</time></trkpt><trkpt lat="42.32832686184868" lon="12.06199046816111"><ele>305.0</ele><time>2026-04-29T12:15:56Z</time></trkpt><trkpt lat="42.328379444066144" lon="12.062201484335397"><ele>306.0</ele><time>2026-04-29T12:15:57Z</time></trkpt><trkpt lat="42.32845083188084" lon="12.062410297485831"><ele>306.6666666666667</ele><time>2026-04-29T12:15:58Z</time></trkpt><trkpt lat="42.32853868125733" lon="12.062609713668467"><ele>307.33333333333337</ele><time>2026-04-29T12:15:59Z</time></trkpt><trkpt lat="42.32864193579796" lon="12.062804509349254"><ele>308.0</ele><time>2026-04-29T12:16:00Z</time></trkpt><trkpt lat="42.32875701073808" lon="12.063000396909798"><ele>308.0</ele><time>2026-04-29T12:16:01Z</time></trkpt><trkpt lat="42.328874920151165" lon="12.063207661356687"><ele>308.0</ele><time>2026-04-29T12:16:02Z</time></trkpt><trkpt lat="42.32897879181356" lon="12.063437665090142"><ele>308.0</ele><time>2026-04-29T12:16:03Z</time></trkpt><trkpt lat="42.329106406705954" lon="12.063640308469651"><ele>309.0</ele><time>2026-04-29T12:16:04Z</time></trkpt><trkpt lat="42.32921469948471" lon="12.063844012619569"><ele>310.0</ele><time>2026-04-29T12:16:05Z</time></trkpt><trkpt lat="42.32931396517831" lon="12.064032045784849"><ele>311.0</ele><time>2026-04-29T12:16:06Z</time></trkpt><trkpt lat="42.329396637980906" lon="12.064215607842481"><ele>311.6666666666667</ele><time>2026-04-29T12:16:07Z</time></trkpt><trkpt lat="42.32946567708349" lon="12.064409179977178"><ele>312.3333333333333</ele><time>2026-04-29T12:16:08Z</time></trkpt><trkpt lat="42.32952481555052" lon="12.064621198566917"><ele>313.0</ele><time>2026-04-29T12:16:09Z</time></trkpt><trkpt lat="42.329551599447974" lon="12.064854994227119"><ele>313.5</ele><time>2026-04-29T12:16:10Z</time></trkpt><trkpt lat="42.32960011401831" lon="12.065084147424253"><ele>314.0</ele><time>2026-04-29T12:16:11Z</time></trkpt><trkpt lat="42.32962344587765" lon="12.065280123323639"><ele>314.5</ele><time>2026-04-29T12:16:12Z</time></trkpt><trkpt lat="42.329647733512175" lon="12.06542642010414"><ele>315.0</ele><time>2026-04-29T12:16:13Z</time></trkpt><trkpt lat="42.32966033747661" lon="12.065516019743654"><ele>315.0</ele><time>2026-04-29T12:16:14Z</time></trkpt><trkpt lat="42.32968152986314" lon="12.065604159737857"><ele>315.0</ele><time>2026-04-29T12:16:16Z</time></trkpt><trkpt lat="42.32973030361482" lon="12.065663092134185"><ele>315.0</ele><time>2026-04-29T12:16:18Z</time></trkpt><trkpt lat="42.32977523877604" lon="12.065789633280863"><ele>315.0</ele><time>2026-04-29T12:16:20Z</time></trkpt><trkpt lat="42.329698396154384" lon="12.065511734229982"><ele>315.0</ele><time>2026-04-29T12:17:00Z</time></trkpt><trkpt lat="42.329657953746185" lon="12.065583135347381"><ele>315.0</ele><time>2026-04-29T12:17:03Z</time></trkpt><trkpt lat="42.32961774714085" lon="12.065661778677116"><ele>315.0</ele><time>2026-04-29T12:17:07Z</time></trkpt><trkpt lat="42.329611854722785" lon="12.065760913715835"><ele>315.0</ele><time>2026-04-29T12:17:10Z</time></trkpt><trkpt lat="42.329659325206045" lon="12.065818462945872"><ele>315.0</ele><time>2026-04-29T12:17:30Z</time></trkpt><trkpt lat="42.32966089001112" lon="12.065908023831971"><ele>315.0</ele><time>2026-04-29T12:17:40Z</time></trkpt><trkpt lat="42.329622422194525" lon="12.06598361413734"><ele>315.0</ele><time>2026-04-29T12:18:19Z</time></trkpt><trkpt lat="42.32960390752735" lon="12.066077002097046"><ele>315.0</ele><time>2026-04-29T12:19:35Z</time></trkpt><trkpt lat="42.329564815706014" lon="12.066009058461399"><ele>315.0</ele><time>2026-04-29T12:19:42Z</time></trkpt><trkpt lat="42.32959909176937" lon="12.066084549543497"><ele>315.0</ele><time>2026-04-29T12:20:25Z</time></trkpt><trkpt lat="42.32964695639604" lon="12.066022035006812"><ele>315.0</ele><time>2026-04-29T12:20:32Z</time></trkpt><trkpt lat="42.32968862564323" lon="12.06595634755895"><ele>315.0</ele><time>2026-04-29T12:20:40Z</time></trkpt><trkpt lat="42.329667067318404" lon="12.065848845956676"><ele>315.0</ele><time>2026-04-29T12:21:09Z</time></trkpt><trkpt lat="42.32961719696866" lon="12.06579485018373"><ele>315.0</ele><time>2026-04-29T12:21:22.001Z</time></trkpt><trkpt lat="42.3296570835459" lon="12.065689547268235"><ele>315.0</ele><time>2026-04-29T12:21:44.001Z</time></trkpt><trkpt lat="42.32965532398831" lon="12.065585955160643"><ele>315.0</ele><time>2026-04-29T12:21:46.001Z</time></trkpt><trkpt lat="42.32965313069509" lon="12.065461785431568"><ele>315.0</ele><time>2026-04-29T12:21:48.001Z</time></trkpt><trkpt lat="42.32964229641994" lon="12.065301007194089"><ele>315.0</ele><time>2026-04-29T12:21:50.001Z</time></trkpt><trkpt lat="42.32963347339696" lon="12.065192537241371"><ele>315.0</ele><time>2026-04-29T12:21:51.001Z</time></trkpt><trkpt lat="42.32961920480317" lon="12.065062010305281"><ele>314.6666666666667</ele><time>2026-04-29T12:21:52.001Z</time></trkpt><trkpt lat="42.329599858298934" lon="12.064942980400248"><ele>314.3333333333333</ele><time>2026-04-29T12:21:53.001Z</time></trkpt><trkpt lat="42.32958425300714" lon="12.06483350771866"><ele>314.0</ele><time>2026-04-29T12:21:54.001Z</time></trkpt><trkpt lat="42.32957558895166" lon="12.064732802436502"><ele>313.66666666666663</ele><time>2026-04-29T12:21:55.001Z</time></trkpt><trkpt lat="42.32956431964979" lon="12.064634635759404"><ele>313.3333333333333</ele><time>2026-04-29T12:21:56.001Z</time></trkpt><trkpt lat="42.32954267930826" lon="12.06454612169563"><ele>313.0</ele><time>2026-04-29T12:21:57.001Z</time></trkpt><trkpt lat="42.32951619451147" lon="12.064448712902044"><ele>313.0</ele><time>2026-04-29T12:21:58.001Z</time></trkpt><trkpt lat="42.32946935697974" lon="12.064307990746372"><ele>313.0</ele><time>2026-04-29T12:21:59.001Z</time></trkpt><trkpt lat="42.32940783091114" lon="12.064148240241602"><ele>313.0</ele><time>2026-04-29T12:22:00.001Z</time></trkpt><trkpt lat="42.32932776632684" lon="12.06399240787757"><ele>313.0</ele><time>2026-04-29T12:22:01.001Z</time></trkpt><trkpt lat="42.32923424126756" lon="12.06382753827848"><ele>312.3333333333333</ele><time>2026-04-29T12:22:02.001Z</time></trkpt><trkpt lat="42.329138812875584" lon="12.06366184378539"><ele>311.6666666666667</ele><time>2026-04-29T12:22:03.001Z</time></trkpt><trkpt lat="42.32904848679601" lon="12.063493016870508"><ele>311.0</ele><time>2026-04-29T12:22:04.001Z</time></trkpt><trkpt lat="42.32895211534303" lon="12.063325704275952"><ele>310.0</ele><time>2026-04-29T12:22:05.001Z</time></trkpt><trkpt lat="42.32885448259292" lon="12.063148036772862"><ele>309.0</ele><time>2026-04-29T12:22:06.001Z</time></trkpt><trkpt lat="42.328759925579945" lon="12.062969779910839"><ele>308.0</ele><time>2026-04-29T12:22:07.001Z</time></trkpt><trkpt lat="42.32867018089129" lon="12.062801736718654"><ele>308.0</ele><time>2026-04-29T12:22:08.001Z</time></trkpt><trkpt lat="42.32858053886821" lon="12.062635633220774"><ele>308.0</ele><time>2026-04-29T12:22:09.001Z</time></trkpt><trkpt lat="42.3284970844901" lon="12.062452771628402"><ele>308.0</ele><time>2026-04-29T12:22:10.001Z</time></trkpt><trkpt lat="42.328428058041524" lon="12.062253257266082"><ele>307.33333333333337</ele><time>2026-04-29T12:22:11.001Z</time></trkpt><trkpt lat="42.328367172031584" lon="12.062045739287347"><ele>306.6666666666667</ele><time>2026-04-29T12:22:12.001Z</time></trkpt><trkpt lat="42.32831593400784" lon="12.06183114719812"><ele>306.0</ele><time>2026-04-29T12:22:13.001Z</time></trkpt><trkpt lat="42.32826462736883" lon="12.061616194596251"><ele>306.6666666666667</ele><time>2026-04-29T12:22:14.001Z</time></trkpt><trkpt lat="42.328203164212105" lon="12.06140240551044"><ele>307.33333333333337</ele><time>2026-04-29T12:22:15.001Z</time></trkpt><trkpt lat="42.32813293460368" lon="12.061186155949397"><ele>308.0</ele><time>2026-04-29T12:22:16.001Z</time></trkpt><trkpt lat="42.328057516564435" lon="12.060963956018393"><ele>306.6666666666667</ele><time>2026-04-29T12:22:17.001Z</time></trkpt><trkpt lat="42.327979526603286" lon="12.06073694675651"><ele>305.3333333333333</ele><time>2026-04-29T12:22:18.001Z</time></trkpt><trkpt lat="42.32789758053742" lon="12.060507267584468"><ele>304.0</ele><time>2026-04-29T12:22:19.001Z</time></trkpt><trkpt lat="42.32781013484764" lon="12.060277092692449"><ele>304.0</ele><time>2026-04-29T12:22:20.001Z</time></trkpt><trkpt lat="42.32771206128814" lon="12.060056997120153"><ele>304.0</ele><time>2026-04-29T12:22:21.001Z</time></trkpt><trkpt lat="42.32760999108286" lon="12.059862112162293"><ele>304.0</ele><time>2026-04-29T12:22:22.001Z</time></trkpt><trkpt lat="42.327497951481504" lon="12.059675460151203"><ele>304.0</ele><time>2026-04-29T12:22:23.001Z</time></trkpt><trkpt lat="42.327377675118974" lon="12.059490833166349"><ele>304.0</ele><time>2026-04-29T12:22:24Z</time></trkpt><trkpt lat="42.32725705942638" lon="12.059307110747422"><ele>304.0</ele><time>2026-04-29T12:22:25Z</time></trkpt><trkpt lat="42.327133019336166" lon="12.059119811666024"><ele>303.0</ele><time>2026-04-29T12:22:26Z</time></trkpt><trkpt lat="42.327013030675545" lon="12.058922798816917"><ele>302.0</ele><time>2026-04-29T12:22:27Z</time></trkpt><trkpt lat="42.32690649984865" lon="12.05873253836278"><ele>301.0</ele><time>2026-04-29T12:22:28Z</time></trkpt><trkpt lat="42.32681394193279" lon="12.058536103468173"><ele>301.0</ele><time>2026-04-29T12:22:29Z</time></trkpt><trkpt lat="42.3267332885334" lon="12.058328800329527"><ele>301.0</ele><time>2026-04-29T12:22:30Z</time></trkpt><trkpt lat="42.32666768964858" lon="12.058108609389778"><ele>301.0</ele><time>2026-04-29T12:22:31Z</time></trkpt><trkpt lat="42.326609904896905" lon="12.057869256530003"><ele>300.66666666666663</ele><time>2026-04-29T12:22:32Z</time></trkpt><trkpt lat="42.32654814264673" lon="12.057620691009713"><ele>300.3333333333333</ele><time>2026-04-29T12:22:33Z</time></trkpt><trkpt lat="42.326494428883116" lon="12.057392741470244"><ele>300.0</ele><time>2026-04-29T12:22:34Z</time></trkpt><trkpt lat="42.326440238466645" lon="12.057174435692836"><ele>296.6666666666667</ele><time>2026-04-29T12:22:35Z</time></trkpt><trkpt lat="42.32637869337046" lon="12.056945816927378"><ele>293.33333333333337</ele><time>2026-04-29T12:22:36Z</time></trkpt><trkpt lat="42.326308965006646" lon="12.056714535473281"><ele>290.0</ele><time>2026-04-29T12:22:37Z</time></trkpt><trkpt lat="42.32623256546364" lon="12.056483093268538"><ele>290.0</ele><time>2026-04-29T12:22:38Z</time></trkpt><trkpt lat="42.32615099137905" lon="12.05624825084883"><ele>290.0</ele><time>2026-04-29T12:22:39Z</time></trkpt><trkpt lat="42.32606717525755" lon="12.056008053693493"><ele>290.0</ele><time>2026-04-29T12:22:40Z</time></trkpt><trkpt lat="42.32598019730957" lon="12.055764208424568"><ele>289.6666666666667</ele><time>2026-04-29T12:22:41Z</time></trkpt><trkpt lat="42.32589559645278" lon="12.05552275513873"><ele>289.3333333333333</ele><time>2026-04-29T12:22:42Z</time></trkpt><trkpt lat="42.32581799742498" lon="12.055298922457002"><ele>289.0</ele><time>2026-04-29T12:22:43Z</time></trkpt><trkpt lat="42.32574725503131" lon="12.055097032394693"><ele>288.75</ele><time>2026-04-29T12:22:44Z</time></trkpt><trkpt lat="42.32568442064022" lon="12.054917512679237"><ele>288.5</ele><time>2026-04-29T12:22:45Z</time></trkpt><trkpt lat="42.32562617308141" lon="12.054757134190595"><ele>288.25</ele><time>2026-04-29T12:22:46Z</time></trkpt><trkpt lat="42.32557488644222" lon="12.054611992967752"><ele>288.0</ele><time>2026-04-29T12:22:47Z</time></trkpt><trkpt lat="42.32553826088924" lon="12.05449115367736"><ele>286.1666666666667</ele><time>2026-04-29T12:22:48Z</time></trkpt><trkpt lat="42.32551665258241" lon="12.054398349817731"><ele>284.3333333333333</ele><time>2026-04-29T12:22:49Z</time></trkpt><trkpt lat="42.32550189154597" lon="12.054284784251495"><ele>282.5</ele><time>2026-04-29T12:22:51Z</time></trkpt><trkpt lat="42.3254742089904" lon="12.054179828258036"><ele>280.66666666666663</ele><time>2026-04-29T12:23:06Z</time></trkpt><trkpt lat="42.325373653734964" lon="12.054117588072874"><ele>278.8333333333333</ele><time>2026-04-29T12:23:08Z</time></trkpt><trkpt lat="42.32529697402105" lon="12.054106381733888"><ele>277.0</ele><time>2026-04-29T12:23:09Z</time></trkpt><trkpt lat="42.32520941687553" lon="12.054077893599004"><ele>277.0</ele><time>2026-04-29T12:23:10Z</time></trkpt><trkpt lat="42.325115084999005" lon="12.05403403041582"><ele>277.0</ele><time>2026-04-29T12:23:11Z</time></trkpt><trkpt lat="42.325020034378966" lon="12.053977656979807"><ele>277.0</ele><time>2026-04-29T12:23:12Z</time></trkpt><trkpt lat="42.324925419166256" lon="12.053906759591555"><ele>277.0</ele><time>2026-04-29T12:23:13Z</time></trkpt><trkpt lat="42.32482979749419" lon="12.053834810770217"><ele>277.0</ele><time>2026-04-29T12:23:14Z</time></trkpt><trkpt lat="42.32473760467013" lon="12.053767388048763"><ele>279.6</ele><time>2026-04-29T12:23:15Z</time></trkpt><trkpt lat="42.32465098417554" lon="12.053697693350998"><ele>282.2</ele><time>2026-04-29T12:23:16Z</time></trkpt><trkpt lat="42.324584294102436" lon="12.05360350516097"><ele>284.8</ele><time>2026-04-29T12:23:17Z</time></trkpt><trkpt lat="42.324540877624514" lon="12.053471848704314"><ele>287.4</ele><time>2026-04-29T12:23:18Z</time></trkpt><trkpt lat="42.32451439196564" lon="12.053319053927398"><ele>290.0</ele><time>2026-04-29T12:23:19Z</time></trkpt><trkpt lat="42.32449518960744" lon="12.05315097302213"><ele>290.25</ele><time>2026-04-29T12:23:20Z</time></trkpt><trkpt lat="42.32448117076013" lon="12.052970776694472"><ele>290.5</ele><time>2026-04-29T12:23:21Z</time></trkpt><trkpt lat="42.32447207336491" lon="12.052798874508056"><ele>290.75</ele><time>2026-04-29T12:23:22Z</time></trkpt><trkpt lat="42.32446977108179" lon="12.052649214297691"><ele>291.0</ele><time>2026-04-29T12:23:23Z</time></trkpt><trkpt lat="42.324470807730066" lon="12.052525067507085"><ele>290.6666666666667</ele><time>2026-04-29T12:23:24Z</time></trkpt><trkpt lat="42.32447262374261" lon="12.052416791330728"><ele>290.3333333333333</ele><time>2026-04-29T12:23:25Z</time></trkpt><trkpt lat="42.32446876128301" lon="12.052305875192094"><ele>290.0</ele><time>2026-04-29T12:23:26Z</time></trkpt><trkpt lat="42.32446912693341" lon="12.052191583562678"><ele>289.66666666666663</ele><time>2026-04-29T12:23:27Z</time></trkpt><trkpt lat="42.324469752467316" lon="12.052077055017987"><ele>289.3333333333333</ele><time>2026-04-29T12:23:28Z</time></trkpt><trkpt lat="42.324459782655566" lon="12.051964561416883"><ele>289.0</ele><time>2026-04-29T12:23:29Z</time></trkpt><trkpt lat="42.32444331070689" lon="12.05184613783505"><ele>289.0</ele><time>2026-04-29T12:23:30Z</time></trkpt><trkpt lat="42.32442248913289" lon="12.051723047400984"><ele>289.0</ele><time>2026-04-29T12:23:31Z</time></trkpt><trkpt lat="42.32438633387895" lon="12.051593703506965"><ele>289.0</ele><time>2026-04-29T12:23:32Z</time></trkpt><trkpt lat="42.324335994991145" lon="12.051459903891926"><ele>289.0</ele><time>2026-04-29T12:23:33Z</time></trkpt><trkpt lat="42.324275916849096" lon="12.051317415895634"><ele>289.0</ele><time>2026-04-29T12:23:34Z</time></trkpt><trkpt lat="42.32420160862985" lon="12.051176577999218"><ele>288.0</ele><time>2026-04-29T12:23:35Z</time></trkpt><trkpt lat="42.324111978902565" lon="12.051049070449768"><ele>287.0</ele><time>2026-04-29T12:23:36Z</time></trkpt><trkpt lat="42.32401274523663" lon="12.050953662667682"><ele>286.0</ele><time>2026-04-29T12:23:37Z</time></trkpt><trkpt lat="42.32390755665751" lon="12.050893339343686"><ele>285.0</ele><time>2026-04-29T12:23:38Z</time></trkpt><trkpt lat="42.32379878515067" lon="12.05086605215167"><ele>284.0</ele><time>2026-04-29T12:23:39Z</time></trkpt><trkpt lat="42.32369244950894" lon="12.050866777949473"><ele>283.0</ele><time>2026-04-29T12:23:40Z</time></trkpt><trkpt lat="42.323594210750855" lon="12.050903429566402"><ele>282.0</ele><time>2026-04-29T12:23:41Z</time></trkpt><trkpt lat="42.32350226913073" lon="12.050937304259575"><ele>281.0</ele><time>2026-04-29T12:23:42Z</time></trkpt><trkpt lat="42.3234201758024" lon="12.05096237578811"><ele>280.0</ele><time>2026-04-29T12:23:43Z</time></trkpt><trkpt lat="42.323354394025195" lon="12.050973933661945"><ele>280.0</ele><time>2026-04-29T12:23:44Z</time></trkpt><trkpt lat="42.32328129621637" lon="12.050978295688477"><ele>280.0</ele><time>2026-04-29T12:23:46Z</time></trkpt><trkpt lat="42.323202385628534" lon="12.051026644066454"><ele>280.0</ele><time>2026-04-29T12:24:00Z</time></trkpt><trkpt lat="42.32306831918739" lon="12.051026926793424"><ele>280.0</ele><time>2026-04-29T12:24:02Z</time></trkpt><trkpt lat="42.322987047266906" lon="12.051000528284444"><ele>280.0</ele><time>2026-04-29T12:24:03Z</time></trkpt><trkpt lat="42.32290307393785" lon="12.050949255738995"><ele>282.2</ele><time>2026-04-29T12:24:04Z</time></trkpt><trkpt lat="42.32284427349647" lon="12.050851008807088"><ele>284.4</ele><time>2026-04-29T12:24:05Z</time></trkpt><trkpt lat="42.322818570429654" lon="12.050721217866466"><ele>286.6</ele><time>2026-04-29T12:24:06Z</time></trkpt><trkpt lat="42.322819115550764" lon="12.050572416401488"><ele>288.8</ele><time>2026-04-29T12:24:07Z</time></trkpt><trkpt lat="42.32283775633825" lon="12.050410771442618"><ele>291.0</ele><time>2026-04-29T12:24:08Z</time></trkpt><trkpt lat="42.3228573168938" lon="12.050249675748598"><ele>291.0</ele><time>2026-04-29T12:24:09Z</time></trkpt><trkpt lat="42.32287184070767" lon="12.050084079268512"><ele>291.0</ele><time>2026-04-29T12:24:10Z</time></trkpt><trkpt lat="42.32288251304424" lon="12.049905924597788"><ele>291.0</ele><time>2026-04-29T12:24:11Z</time></trkpt><trkpt lat="42.32289140527497" lon="12.049721560452472"><ele>291.0</ele><time>2026-04-29T12:24:12Z</time></trkpt><trkpt lat="42.322895752967604" lon="12.049534719171422"><ele>290.5</ele><time>2026-04-29T12:24:13Z</time></trkpt><trkpt lat="42.3229033481646" lon="12.049342310533227"><ele>290.0</ele><time>2026-04-29T12:24:14Z</time></trkpt><trkpt lat="42.32291537451701" lon="12.049145493863003"><ele>289.5</ele><time>2026-04-29T12:24:15Z</time></trkpt><trkpt lat="42.32292762432671" lon="12.048950872272158"><ele>289.0</ele><time>2026-04-29T12:24:16Z</time></trkpt><trkpt lat="42.32294218944672" lon="12.048765332414915"><ele>287.4</ele><time>2026-04-29T12:24:17Z</time></trkpt><trkpt lat="42.322943718632224" lon="12.04860739644807"><ele>285.79999999999995</ele><time>2026-04-29T12:24:18Z</time></trkpt><trkpt lat="42.322916841154814" lon="12.048484695015695"><ele>284.20000000000005</ele><time>2026-04-29T12:24:19Z</time></trkpt><trkpt lat="42.322874115821676" lon="12.048371109250395"><ele>282.6</ele><time>2026-04-29T12:24:20Z</time></trkpt><trkpt lat="42.322815814552165" lon="12.048255317359027"><ele>281.0</ele><time>2026-04-29T12:24:21Z</time></trkpt><trkpt lat="42.32273795449215" lon="12.048171566637828"><ele>281.0</ele><time>2026-04-29T12:24:22Z</time></trkpt><trkpt lat="42.32264783863287" lon="12.048127868605798"><ele>281.0</ele><time>2026-04-29T12:24:23Z</time></trkpt><trkpt lat="42.32255397288463" lon="12.04816173703466"><ele>281.0</ele><time>2026-04-29T12:24:24Z</time></trkpt><trkpt lat="42.32247501990423" lon="12.04825362339825"><ele>281.0</ele><time>2026-04-29T12:24:25Z</time></trkpt><trkpt lat="42.32241558398455" lon="12.04837724226564"><ele>281.0</ele><time>2026-04-29T12:24:26Z</time></trkpt><trkpt lat="42.322340875026036" lon="12.0485168909954"><ele>281.0</ele><time>2026-04-29T12:24:27Z</time></trkpt><trkpt lat="42.32227344509587" lon="12.048675307215323"><ele>281.0</ele><time>2026-04-29T12:24:28Z</time></trkpt><trkpt lat="42.32220229944367" lon="12.048829936162207"><ele>281.0</ele><time>2026-04-29T12:24:29Z</time></trkpt><trkpt lat="42.32209763468274" lon="12.048938441636018"><ele>281.0</ele><time>2026-04-29T12:24:30Z</time></trkpt><trkpt lat="42.321973214508965" lon="12.049028924326624"><ele>279.75</ele><time>2026-04-29T12:24:31Z</time></trkpt><trkpt lat="42.32184974321521" lon="12.049126037352186"><ele>278.5</ele><time>2026-04-29T12:24:32Z</time></trkpt><trkpt lat="42.32174859118315" lon="12.049232037162344"><ele>277.25</ele><time>2026-04-29T12:24:33Z</time></trkpt><trkpt lat="42.32166409695372" lon="12.049342044531523"><ele>276.0</ele><time>2026-04-29T12:24:34Z</time></trkpt><trkpt lat="42.321618727656244" lon="12.04948488560016"><ele>276.0</ele><time>2026-04-29T12:24:35Z</time></trkpt><trkpt lat="42.32158751102049" lon="12.049666447201911"><ele>276.0</ele><time>2026-04-29T12:24:36Z</time></trkpt><trkpt lat="42.321574918135504" lon="12.049868890024378"><ele>276.0</ele><time>2026-04-29T12:24:37Z</time></trkpt><trkpt lat="42.321556300259594" lon="12.050074450526951"><ele>276.0</ele><time>2026-04-29T12:24:38Z</time></trkpt><trkpt lat="42.321529648586605" lon="12.05026154316981"><ele>276.0</ele><time>2026-04-29T12:24:39Z</time></trkpt><trkpt lat="42.32149770548635" lon="12.05042904494417"><ele>276.0</ele><time>2026-04-29T12:24:40Z</time></trkpt><trkpt lat="42.321464499686414" lon="12.050562003892294"><ele>276.0</ele><time>2026-04-29T12:24:41Z</time></trkpt><trkpt lat="42.32141144988309" lon="12.050676928736214"><ele>276.0</ele><time>2026-04-29T12:24:42Z</time></trkpt><trkpt lat="42.32134040517308" lon="12.050767883515457"><ele>276.0</ele><time>2026-04-29T12:24:43Z</time></trkpt><trkpt lat="42.32125456459099" lon="12.050837753234028"><ele>276.0</ele><time>2026-04-29T12:24:44Z</time></trkpt><trkpt lat="42.32116176625902" lon="12.050887006805976"><ele>276.0</ele><time>2026-04-29T12:24:45Z</time></trkpt><trkpt lat="42.32105862275629" lon="12.050903446819797"><ele>276.0</ele><time>2026-04-29T12:24:46Z</time></trkpt><trkpt lat="42.32095205757944" lon="12.05088641712184"><ele>276.0</ele><time>2026-04-29T12:24:47Z</time></trkpt><trkpt lat="42.320856624789805" lon="12.050836032417843"><ele>276.0</ele><time>2026-04-29T12:24:48Z</time></trkpt><trkpt lat="42.320774788473926" lon="12.050752838475068"><ele>276.0</ele><time>2026-04-29T12:24:49Z</time></trkpt><trkpt lat="42.32070854976424" lon="12.050632383770278"><ele>276.0</ele><time>2026-04-29T12:24:50Z</time></trkpt><trkpt lat="42.320666193208815" lon="12.050486138075323"><ele>276.0</ele><time>2026-04-29T12:24:51Z</time></trkpt><trkpt lat="42.32064527791831" lon="12.050320096189674"><ele>276.0</ele><time>2026-04-29T12:24:52Z</time></trkpt><trkpt lat="42.320652608097134" lon="12.050146775792998"><ele>276.0</ele><time>2026-04-29T12:24:53Z</time></trkpt><trkpt lat="42.32068191399497" lon="12.049972053940742"><ele>276.0</ele><time>2026-04-29T12:24:54Z</time></trkpt><trkpt lat="42.320721911128864" lon="12.049783670228157"><ele>276.0</ele><time>2026-04-29T12:24:55Z</time></trkpt><trkpt lat="42.3207748796803" lon="12.049572323831889"><ele>276.0</ele><time>2026-04-29T12:24:56Z</time></trkpt><trkpt lat="42.320805123917566" lon="12.049368092053081"><ele>277.0</ele><time>2026-04-29T12:24:57Z</time></trkpt><trkpt lat="42.32083377418642" lon="12.049182490268977"><ele>278.0</ele><time>2026-04-29T12:24:58Z</time></trkpt><trkpt lat="42.32086411332892" lon="12.049009311697937"><ele>279.0</ele><time>2026-04-29T12:24:59Z</time></trkpt><trkpt lat="42.32089105444323" lon="12.048845281456172"><ele>280.0</ele><time>2026-04-29T12:25:00Z</time></trkpt><trkpt lat="42.32092341014283" lon="12.048660933176201"><ele>281.3333333333333</ele><time>2026-04-29T12:25:01Z</time></trkpt><trkpt lat="42.3209627539141" lon="12.048468686289368"><ele>282.6666666666667</ele><time>2026-04-29T12:25:02Z</time></trkpt><trkpt lat="42.32101820411706" lon="12.04827249512013"><ele>284.0</ele><time>2026-04-29T12:25:03Z</time></trkpt><trkpt lat="42.32109349351672" lon="12.048076713625116"><ele>285.0</ele><time>2026-04-29T12:25:04Z</time></trkpt><trkpt lat="42.32118412018107" lon="12.047881395247009"><ele>286.0</ele><time>2026-04-29T12:25:05Z</time></trkpt><trkpt lat="42.32125851463316" lon="12.047698878285573"><ele>287.0</ele><time>2026-04-29T12:25:06Z</time></trkpt><trkpt lat="42.32130732234981" lon="12.047511868331592"><ele>287.33333333333337</ele><time>2026-04-29T12:25:07Z</time></trkpt><trkpt lat="42.321327326210245" lon="12.047308224079746"><ele>287.6666666666667</ele><time>2026-04-29T12:25:08Z</time></trkpt><trkpt lat="42.321320246348186" lon="12.047091932181635"><ele>288.0</ele><time>2026-04-29T12:25:09Z</time></trkpt><trkpt lat="42.3212978877396" lon="12.046863380804632"><ele>288.0</ele><time>2026-04-29T12:25:10Z</time></trkpt><trkpt lat="42.32128225414615" lon="12.04663544190053"><ele>288.0</ele><time>2026-04-29T12:25:11Z</time></trkpt><trkpt lat="42.32129671429075" lon="12.046429646694572"><ele>288.0</ele><time>2026-04-29T12:25:12Z</time></trkpt><trkpt lat="42.32134702789133" lon="12.046248152860406"><ele>285.6666666666667</ele><time>2026-04-29T12:25:13Z</time></trkpt><trkpt lat="42.321433504801135" lon="12.046061280541089"><ele>283.33333333333337</ele><time>2026-04-29T12:25:14Z</time></trkpt><trkpt lat="42.32153366584097" lon="12.045870114456328"><ele>281.0</ele><time>2026-04-29T12:25:15Z</time></trkpt><trkpt lat="42.3216486790525" lon="12.045684332162354"><ele>281.0</ele><time>2026-04-29T12:25:16Z</time></trkpt><trkpt lat="42.32175121468586" lon="12.045518340892093"><ele>281.0</ele><time>2026-04-29T12:25:17Z</time></trkpt><trkpt lat="42.321820364991346" lon="12.045343699515184"><ele>281.0</ele><time>2026-04-29T12:25:18Z</time></trkpt><trkpt lat="42.32184839970816" lon="12.045140903885851"><ele>281.25</ele><time>2026-04-29T12:25:19Z</time></trkpt><trkpt lat="42.32184898699653" lon="12.04493587763103"><ele>281.5</ele><time>2026-04-29T12:25:20Z</time></trkpt><trkpt lat="42.321830482488394" lon="12.044758563775616"><ele>281.75</ele><time>2026-04-29T12:25:21Z</time></trkpt><trkpt lat="42.32178167673409" lon="12.044607792224118"><ele>282.0</ele><time>2026-04-29T12:25:22Z</time></trkpt><trkpt lat="42.32172165140888" lon="12.044462277666858"><ele>282.0</ele><time>2026-04-29T12:25:23Z</time></trkpt><trkpt lat="42.32164932929964" lon="12.044326418378137"><ele>282.0</ele><time>2026-04-29T12:25:24Z</time></trkpt><trkpt lat="42.32157519241853" lon="12.044206210251016"><ele>282.0</ele><time>2026-04-29T12:25:25Z</time></trkpt><trkpt lat="42.32150135836499" lon="12.04408107553168"><ele>282.0</ele><time>2026-04-29T12:25:26Z</time></trkpt><trkpt lat="42.32143713733971" lon="12.043938166577492"><ele>281.75</ele><time>2026-04-29T12:25:27Z</time></trkpt><trkpt lat="42.32136420609902" lon="12.043794454193714"><ele>281.5</ele><time>2026-04-29T12:25:28Z</time></trkpt><trkpt lat="42.32128422573052" lon="12.043652623684844"><ele>281.25</ele><time>2026-04-29T12:25:29Z</time></trkpt><trkpt lat="42.32119841011249" lon="12.04350971467971"><ele>281.0</ele><time>2026-04-29T12:25:30Z</time></trkpt><trkpt lat="42.32110122813816" lon="12.043355158064609"><ele>280.33333333333337</ele><time>2026-04-29T12:25:31Z</time></trkpt><trkpt lat="42.32099852104968" lon="12.043186055086075"><ele>279.6666666666667</ele><time>2026-04-29T12:25:32Z</time></trkpt><trkpt lat="42.320892583575045" lon="12.043007413893767"><ele>279.0</ele><time>2026-04-29T12:25:33Z</time></trkpt><trkpt lat="42.32079907120189" lon="12.04284386502128"><ele>279.0</ele><time>2026-04-29T12:25:34Z</time></trkpt><trkpt lat="42.32072530726651" lon="12.042690602040622"><ele>279.0</ele><time>2026-04-29T12:25:35Z</time></trkpt><trkpt lat="42.320664146703635" lon="12.042521660224036"><ele>279.0</ele><time>2026-04-29T12:25:36Z</time></trkpt><trkpt lat="42.32061803602383" lon="12.042331618083587"><ele>279.0</ele><time>2026-04-29T12:25:37Z</time></trkpt><trkpt lat="42.320595722199435" lon="12.042156788829839"><ele>278.0</ele><time>2026-04-29T12:25:38Z</time></trkpt><trkpt lat="42.320562587523604" lon="12.042009312874864"><ele>277.0</ele><time>2026-04-29T12:25:39Z</time></trkpt><trkpt lat="42.32049171019321" lon="12.0418897167336"><ele>276.0</ele><time>2026-04-29T12:25:40Z</time></trkpt><trkpt lat="42.32039703500732" lon="12.04179615333482"><ele>275.0</ele><time>2026-04-29T12:25:41Z</time></trkpt><trkpt lat="42.320269795079824" lon="12.041757934181323"><ele>275.0</ele><time>2026-04-29T12:25:42Z</time></trkpt><trkpt lat="42.320123976223556" lon="12.041747212362914"><ele>275.0</ele><time>2026-04-29T12:25:43Z</time></trkpt><trkpt lat="42.319962222752025" lon="12.04175648827957"><ele>275.0</ele><time>2026-04-29T12:25:44Z</time></trkpt><trkpt lat="42.3197801433733" lon="12.041771544084893"><ele>273.33333333333337</ele><time>2026-04-29T12:25:45Z</time></trkpt><trkpt lat="42.3195870278907" lon="12.041791866949826"><ele>271.6666666666667</ele><time>2026-04-29T12:25:46Z</time></trkpt><trkpt lat="42.31939572396211" lon="12.041809262994194"><ele>270.0</ele><time>2026-04-29T12:25:47Z</time></trkpt><trkpt lat="42.319218892048696" lon="12.041824495380471"><ele>270.0</ele><time>2026-04-29T12:25:48Z</time></trkpt><trkpt lat="42.31906723005793" lon="12.041828254674327"><ele>270.0</ele><time>2026-04-29T12:25:49Z</time></trkpt><trkpt lat="42.31892848827797" lon="12.041805026892112"><ele>270.0</ele><time>2026-04-29T12:25:50Z</time></trkpt><trkpt lat="42.318800536069155" lon="12.041740689214224"><ele>270.0</ele><time>2026-04-29T12:25:51Z</time></trkpt><trkpt lat="42.31866782661647" lon="12.04163623353735"><ele>271.6666666666667</ele><time>2026-04-29T12:25:52Z</time></trkpt><trkpt lat="42.31852887557167" lon="12.041497940558052"><ele>273.33333333333337</ele><time>2026-04-29T12:25:53Z</time></trkpt><trkpt lat="42.31838137867308" lon="12.041361177944808"><ele>275.0</ele><time>2026-04-29T12:25:54Z</time></trkpt><trkpt lat="42.31823053431333" lon="12.041227807328093"><ele>275.0</ele><time>2026-04-29T12:25:55Z</time></trkpt><trkpt lat="42.31808121549235" lon="12.041102615454061"><ele>275.0</ele><time>2026-04-29T12:25:56Z</time></trkpt><trkpt lat="42.31792608241853" lon="12.040981238220766"><ele>275.0</ele><time>2026-04-29T12:25:57Z</time></trkpt><trkpt lat="42.317779398262054" lon="12.040877709431522"><ele>275.0</ele><time>2026-04-29T12:25:58Z</time></trkpt><trkpt lat="42.31762316527984" lon="12.040775857195344"><ele>275.0</ele><time>2026-04-29T12:25:59Z</time></trkpt><trkpt lat="42.31745818505865" lon="12.040691522121046"><ele>275.0</ele><time>2026-04-29T12:26:00Z</time></trkpt><trkpt lat="42.31728786309768" lon="12.040624050846802"><ele>272.75</ele><time>2026-04-29T12:26:01Z</time></trkpt><trkpt lat="42.3171253151063" lon="12.040570898478805"><ele>270.5</ele><time>2026-04-29T12:26:02Z</time></trkpt><trkpt lat="42.316976304139956" lon="12.040515159267342"><ele>268.25</ele><time>2026-04-29T12:26:03Z</time></trkpt><trkpt lat="42.31685310945912" lon="12.04047474654254"><ele>266.0</ele><time>2026-04-29T12:26:04Z</time></trkpt><trkpt lat="42.31675935790734" lon="12.04043012542097"><ele>266.0</ele><time>2026-04-29T12:26:05Z</time></trkpt><trkpt lat="42.31665810575866" lon="12.040391777266452"><ele>266.0</ele><time>2026-04-29T12:26:06Z</time></trkpt><trkpt lat="42.31655206599348" lon="12.040356986045861"><ele>266.0</ele><time>2026-04-29T12:26:07Z</time></trkpt><trkpt lat="42.3164425500718" lon="12.040302911276317"><ele>266.0</ele><time>2026-04-29T12:26:08Z</time></trkpt><trkpt lat="42.31631069317077" lon="12.040239732603803"><ele>264.0</ele><time>2026-04-29T12:26:09Z</time></trkpt><trkpt lat="42.316161838019674" lon="12.040160081666722"><ele>262.0</ele><time>2026-04-29T12:26:10Z</time></trkpt><trkpt lat="42.31599945030466" lon="12.040076609839067"><ele>260.0</ele><time>2026-04-29T12:26:11Z</time></trkpt><trkpt lat="42.31581525805672" lon="12.039982263508236"><ele>259.6666666666667</ele><time>2026-04-29T12:26:12Z</time></trkpt><trkpt lat="42.315616816228086" lon="12.039870138428688"><ele>259.3333333333333</ele><time>2026-04-29T12:26:13Z</time></trkpt><trkpt lat="42.315433422713426" lon="12.03976351981196"><ele>259.0</ele><time>2026-04-29T12:26:14Z</time></trkpt><trkpt lat="42.31526962025196" lon="12.03966850286751"><ele>259.0</ele><time>2026-04-29T12:26:15Z</time></trkpt><trkpt lat="42.31511493961868" lon="12.039580656703704"><ele>259.0</ele><time>2026-04-29T12:26:16Z</time></trkpt><trkpt lat="42.31496302469069" lon="12.039497260648517"><ele>259.0</ele><time>2026-04-29T12:26:17Z</time></trkpt><trkpt lat="42.3148351976111" lon="12.039409589621247"><ele>258.75</ele><time>2026-04-29T12:26:18Z</time></trkpt><trkpt lat="42.31472728713735" lon="12.039315274804125"><ele>258.5</ele><time>2026-04-29T12:26:19Z</time></trkpt><trkpt lat="42.31463625595504" lon="12.03921028045304"><ele>258.25</ele><time>2026-04-29T12:26:20Z</time></trkpt><trkpt lat="42.31455766021227" lon="12.039083982111636"><ele>258.0</ele><time>2026-04-29T12:26:21Z</time></trkpt><trkpt lat="42.314476657595286" lon="12.038930768184091"><ele>257.0</ele><time>2026-04-29T12:26:22Z</time></trkpt><trkpt lat="42.31440051653785" lon="12.038782220820726"><ele>256.0</ele><time>2026-04-29T12:26:23Z</time></trkpt><trkpt lat="42.3143420025799" lon="12.038638056257271"><ele>255.0</ele><time>2026-04-29T12:26:24Z</time></trkpt><trkpt lat="42.314311241343454" lon="12.038490999611957"><ele>254.0</ele><time>2026-04-29T12:26:25Z</time></trkpt><trkpt lat="42.3142984530096" lon="12.038318120776466"><ele>253.0</ele><time>2026-04-29T12:26:26Z</time></trkpt><trkpt lat="42.31430383659148" lon="12.038124894951558"><ele>252.0</ele><time>2026-04-29T12:26:27Z</time></trkpt><trkpt lat="42.31431757429831" lon="12.037955539132488"><ele>251.0</ele><time>2026-04-29T12:26:28Z</time></trkpt><trkpt lat="42.31428715934634" lon="12.03782918481669"><ele>250.0</ele><time>2026-04-29T12:26:29Z</time></trkpt><trkpt lat="42.31419402715478" lon="12.037732957209897"><ele>250.0</ele><time>2026-04-29T12:26:30Z</time></trkpt><trkpt lat="42.314055969929235" lon="12.037675324153154"><ele>250.0</ele><time>2026-04-29T12:26:31Z</time></trkpt><trkpt lat="42.31389278961372" lon="12.037667628294875"><ele>250.0</ele><time>2026-04-29T12:26:32Z</time></trkpt><trkpt lat="42.31372720637792" lon="12.037664013221514"><ele>249.75</ele><time>2026-04-29T12:26:33Z</time></trkpt><trkpt lat="42.31358839673835" lon="12.037585989559064"><ele>249.5</ele><time>2026-04-29T12:26:34Z</time></trkpt><trkpt lat="42.31345969920181" lon="12.037515522340794"><ele>249.25</ele><time>2026-04-29T12:26:35Z</time></trkpt><trkpt lat="42.31335057142562" lon="12.037375397627223"><ele>249.0</ele><time>2026-04-29T12:26:36Z</time></trkpt><trkpt lat="42.31325177927746" lon="12.037213144590043"><ele>249.0</ele><time>2026-04-29T12:26:37Z</time></trkpt><trkpt lat="42.313154462776346" lon="12.037033481502066"><ele>249.0</ele><time>2026-04-29T12:26:38Z</time></trkpt><trkpt lat="42.31304601612504" lon="12.036852633642997"><ele>249.0</ele><time>2026-04-29T12:26:39Z</time></trkpt><trkpt lat="42.312941672691046" lon="12.036656985370925"><ele>250.0</ele><time>2026-04-29T12:26:40Z</time></trkpt><trkpt lat="42.31283110620979" lon="12.036501872205406"><ele>251.0</ele><time>2026-04-29T12:26:41Z</time></trkpt><trkpt lat="42.31273201692508" lon="12.036318052428802"><ele>252.0</ele><time>2026-04-29T12:26:42Z</time></trkpt><trkpt lat="42.31264696737817" lon="12.036147557698062"><ele>252.0</ele><time>2026-04-29T12:26:43Z</time></trkpt><trkpt lat="42.31256161688991" lon="12.03597084593457"><ele>252.0</ele><time>2026-04-29T12:26:44Z</time></trkpt><trkpt lat="42.31249306850419" lon="12.035770868310436"><ele>252.0</ele><time>2026-04-29T12:26:45Z</time></trkpt><trkpt lat="42.312438916663694" lon="12.035547119987722"><ele>251.33333333333331</ele><time>2026-04-29T12:26:46Z</time></trkpt><trkpt lat="42.31238920261468" lon="12.035297509445012"><ele>250.66666666666666</ele><time>2026-04-29T12:26:47Z</time></trkpt><trkpt lat="42.31233365118449" lon="12.035029913184612"><ele>250.0</ele><time>2026-04-29T12:26:48Z</time></trkpt><trkpt lat="42.31226986675808" lon="12.034744545655403"><ele>253.0</ele><time>2026-04-29T12:26:49Z</time></trkpt><trkpt lat="42.31219650441672" lon="12.0344398166206"><ele>256.0</ele><time>2026-04-29T12:26:50Z</time></trkpt><trkpt lat="42.31211496768961" lon="12.034115055478413"><ele>256.0</ele><time>2026-04-29T12:26:51Z</time></trkpt><trkpt lat="42.312030944144695" lon="12.033780982058"><ele>256.0</ele><time>2026-04-29T12:26:52Z</time></trkpt><trkpt lat="42.311950127923645" lon="12.033470938796059"><ele>255.0</ele><time>2026-04-29T12:26:53Z</time></trkpt><trkpt lat="42.31187598291163" lon="12.033187140143358"><ele>254.0</ele><time>2026-04-29T12:26:54Z</time></trkpt><trkpt lat="42.311808786308276" lon="12.03293072865238"><ele>253.0</ele><time>2026-04-29T12:26:55Z</time></trkpt><trkpt lat="42.31174928748916" lon="12.032710922472235"><ele>253.0</ele><time>2026-04-29T12:26:56Z</time></trkpt><trkpt lat="42.3116901984306" lon="12.0325068662685"><ele>253.0</ele><time>2026-04-29T12:26:57Z</time></trkpt><trkpt lat="42.311614711417924" lon="12.032328283960473"><ele>253.0</ele><time>2026-04-29T12:26:58Z</time></trkpt><trkpt lat="42.311513147308744" lon="12.032174156241592"><ele>254.0</ele><time>2026-04-29T12:26:59Z</time></trkpt><trkpt lat="42.31138959152687" lon="12.032032680828095"><ele>255.0</ele><time>2026-04-29T12:27:00Z</time></trkpt><trkpt lat="42.31125350564767" lon="12.031905559099982"><ele>256.0</ele><time>2026-04-29T12:27:01Z</time></trkpt><trkpt lat="42.31113588717334" lon="12.03178458189277"><ele>256.0</ele><time>2026-04-29T12:27:02Z</time></trkpt><trkpt lat="42.31103197710019" lon="12.031677697982534"><ele>256.0</ele><time>2026-04-29T12:27:03Z</time></trkpt><trkpt lat="42.31094406341352" lon="12.03157643043259"><ele>256.0</ele><time>2026-04-29T12:27:04Z</time></trkpt><trkpt lat="42.31086740665007" lon="12.03149117695168"><ele>256.0</ele><time>2026-04-29T12:27:05Z</time></trkpt><trkpt lat="42.31080155896351" lon="12.03142707127087"><ele>256.0</ele><time>2026-04-29T12:27:06Z</time></trkpt><trkpt lat="42.310764292955135" lon="12.031351295585248"><ele>254.99999999999997</ele><time>2026-04-29T12:27:07Z</time></trkpt><trkpt lat="42.310676510642665" lon="12.031346040750579"><ele>254.0</ele><time>2026-04-29T12:27:08Z</time></trkpt><trkpt lat="42.310558012493715" lon="12.031282233014972"><ele>253.0</ele><time>2026-04-29T12:27:10Z</time></trkpt><trkpt lat="42.31049550781869" lon="12.031248323376818"><ele>252.0</ele><time>2026-04-29T12:27:11Z</time></trkpt><trkpt lat="42.31043258890688" lon="12.031207285033696"><ele>250.99999999999997</ele><time>2026-04-29T12:27:12Z</time></trkpt><trkpt lat="42.31035841218342" lon="12.03115791991996"><ele>250.0</ele><time>2026-04-29T12:27:13Z</time></trkpt><trkpt lat="42.31027530299472" lon="12.031101553317761"><ele>250.0</ele><time>2026-04-29T12:27:14Z</time></trkpt><trkpt lat="42.31018382295697" lon="12.031035009996259"><ele>250.0</ele><time>2026-04-29T12:27:15Z</time></trkpt><trkpt lat="42.31011576341456" lon="12.030941629106584"><ele>250.0</ele><time>2026-04-29T12:27:16Z</time></trkpt><trkpt lat="42.31003865360482" lon="12.030891453722656"><ele>250.0</ele><time>2026-04-29T12:27:17Z</time></trkpt><trkpt lat="42.309981734759496" lon="12.030800258236065"><ele>250.0</ele><time>2026-04-29T12:27:18Z</time></trkpt><trkpt lat="42.30988977167496" lon="12.030724228070053"><ele>249.5</ele><time>2026-04-29T12:27:19Z</time></trkpt><trkpt lat="42.309814432158326" lon="12.030624638786005"><ele>249.0</ele><time>2026-04-29T12:27:20Z</time></trkpt><trkpt lat="42.309720992505866" lon="12.03053564364024"><ele>248.5</ele><time>2026-04-29T12:27:21Z</time></trkpt><trkpt lat="42.30961955429316" lon="12.030465685539847"><ele>248.0</ele><time>2026-04-29T12:27:22Z</time></trkpt><trkpt lat="42.309511187319764" lon="12.030400058290308"><ele>247.0</ele><time>2026-04-29T12:27:23Z</time></trkpt><trkpt lat="42.30939893345352" lon="12.030337036583765"><ele>246.0</ele><time>2026-04-29T12:27:24Z</time></trkpt><trkpt lat="42.309284709234795" lon="12.030301595388096"><ele>245.0</ele><time>2026-04-29T12:27:25Z</time></trkpt><trkpt lat="42.309181053327336" lon="12.030235549270119"><ele>244.0</ele><time>2026-04-29T12:27:26Z</time></trkpt><trkpt lat="42.309088031545905" lon="12.030161490976475"><ele>244.0</ele><time>2026-04-29T12:27:27Z</time></trkpt><trkpt lat="42.309000411155985" lon="12.030079838232266"><ele>243.99999999999997</ele><time>2026-04-29T12:27:28Z</time></trkpt><trkpt lat="42.3089191342968" lon="12.029988064383147"><ele>243.99999999999997</ele><time>2026-04-29T12:27:29Z</time></trkpt><trkpt lat="42.30883629107868" lon="12.02988365533477"><ele>244.0</ele><time>2026-04-29T12:27:30Z</time></trkpt><trkpt lat="42.30875164364474" lon="12.02976973608776"><ele>244.0</ele><time>2026-04-29T12:27:31Z</time></trkpt><trkpt lat="42.30866506212752" lon="12.02965321180551"><ele>242.5</ele><time>2026-04-29T12:27:32Z</time></trkpt><trkpt lat="42.3085791130418" lon="12.029534269864033"><ele>241.0</ele><time>2026-04-29T12:27:33Z</time></trkpt><trkpt lat="42.308495230219314" lon="12.029409994152852"><ele>239.5</ele><time>2026-04-29T12:27:34Z</time></trkpt><trkpt lat="42.30842956229611" lon="12.029266813516825"><ele>238.0</ele><time>2026-04-29T12:27:35Z</time></trkpt><trkpt lat="42.30835548278724" lon="12.029134709783857"><ele>237.75</ele><time>2026-04-29T12:27:36Z</time></trkpt><trkpt lat="42.30827253657567" lon="12.029014177581157"><ele>237.5</ele><time>2026-04-29T12:27:37Z</time></trkpt><trkpt lat="42.30818045912244" lon="12.028907324925232"><ele>237.25</ele><time>2026-04-29T12:27:38Z</time></trkpt><trkpt lat="42.308075229185505" lon="12.028828631573397"><ele>237.0</ele><time>2026-04-29T12:27:39Z</time></trkpt><trkpt lat="42.30797694314882" lon="12.028744639850261"><ele>235.75</ele><time>2026-04-29T12:27:40Z</time></trkpt><trkpt lat="42.30786822971338" lon="12.0286666967624"><ele>234.5</ele><time>2026-04-29T12:27:41Z</time></trkpt><trkpt lat="42.30775357917126" lon="12.0285935017084"><ele>233.25</ele><time>2026-04-29T12:27:42Z</time></trkpt><trkpt lat="42.3076338098837" lon="12.028519757114164"><ele>232.0</ele><time>2026-04-29T12:27:43Z</time></trkpt><trkpt lat="42.307509641352965" lon="12.028443743361438"><ele>232.0</ele><time>2026-04-29T12:27:44Z</time></trkpt><trkpt lat="42.307379429069634" lon="12.02836326545273"><ele>232.0</ele><time>2026-04-29T12:27:45Z</time></trkpt><trkpt lat="42.307242781177024" lon="12.028281542225388"><ele>232.0</ele><time>2026-04-29T12:27:46Z</time></trkpt><trkpt lat="42.307102235650724" lon="12.028196062837855"><ele>232.0</ele><time>2026-04-29T12:27:47Z</time></trkpt><trkpt lat="42.30696012176307" lon="12.028108468845346"><ele>230.75</ele><time>2026-04-29T12:27:48Z</time></trkpt><trkpt lat="42.30682088607286" lon="12.028021791196597"><ele>229.5</ele><time>2026-04-29T12:27:49Z</time></trkpt><trkpt lat="42.30669504811213" lon="12.02794767064213"><ele>228.25</ele><time>2026-04-29T12:27:50Z</time></trkpt><trkpt lat="42.306581149503494" lon="12.027873972849097"><ele>227.0</ele><time>2026-04-29T12:27:51Z</time></trkpt><trkpt lat="42.306475008017706" lon="12.02781412641008"><ele>228.75</ele><time>2026-04-29T12:27:52Z</time></trkpt><trkpt lat="42.306378302401164" lon="12.027729718697408"><ele>230.5</ele><time>2026-04-29T12:27:53Z</time></trkpt><trkpt lat="42.30626144943328" lon="12.027656709560139"><ele>232.25</ele><time>2026-04-29T12:27:54Z</time></trkpt><trkpt lat="42.306125150309164" lon="12.02759409476567"><ele>234.0</ele><time>2026-04-29T12:27:55Z</time></trkpt><trkpt lat="42.30599649360483" lon="12.027509407019442"><ele>235.0</ele><time>2026-04-29T12:27:56Z</time></trkpt><trkpt lat="42.305865295835154" lon="12.027428819545543"><ele>236.0</ele><time>2026-04-29T12:27:57Z</time></trkpt><trkpt lat="42.30574036723003" lon="12.02733603980616"><ele>237.0</ele><time>2026-04-29T12:27:58Z</time></trkpt><trkpt lat="42.30561546721299" lon="12.027253103379714"><ele>238.0</ele><time>2026-04-29T12:27:59Z</time></trkpt><trkpt lat="42.3054870013789" lon="12.027194055189176"><ele>238.25</ele><time>2026-04-29T12:28:00Z</time></trkpt><trkpt lat="42.30536539858764" lon="12.027110197268685"><ele>238.5</ele><time>2026-04-29T12:28:01Z</time></trkpt><trkpt lat="42.30523855736849" lon="12.027030444783982"><ele>238.75</ele><time>2026-04-29T12:28:02Z</time></trkpt><trkpt lat="42.305104206249084" lon="12.02694878510294"><ele>239.0</ele><time>2026-04-29T12:28:03Z</time></trkpt><trkpt lat="42.30496261165593" lon="12.026862225039556"><ele>239.0</ele><time>2026-04-29T12:28:04Z</time></trkpt><trkpt lat="42.3048162264448" lon="12.026768672401369"><ele>239.0</ele><time>2026-04-29T12:28:05Z</time></trkpt><trkpt lat="42.304663795156195" lon="12.026673142020433"><ele>239.0</ele><time>2026-04-29T12:28:06Z</time></trkpt><trkpt lat="42.30451251981558" lon="12.026579585119507"><ele>239.0</ele><time>2026-04-29T12:28:07Z</time></trkpt><trkpt lat="42.30436085680731" lon="12.026486057802217"><ele>239.0</ele><time>2026-04-29T12:28:08Z</time></trkpt><trkpt lat="42.30421025665984" lon="12.026392610664763"><ele>239.0</ele><time>2026-04-29T12:28:09Z</time></trkpt><trkpt lat="42.304073573514735" lon="12.026307973147562"><ele>239.0</ele><time>2026-04-29T12:28:10Z</time></trkpt><trkpt lat="42.30394553152756" lon="12.026230319486086"><ele>239.0</ele><time>2026-04-29T12:28:11Z</time></trkpt><trkpt lat="42.30381600915439" lon="12.0261466498181"><ele>239.0</ele><time>2026-04-29T12:28:12Z</time></trkpt><trkpt lat="42.303685364940556" lon="12.026061162958493"><ele>239.0</ele><time>2026-04-29T12:28:13Z</time></trkpt><trkpt lat="42.30354902280742" lon="12.025971303541334"><ele>238.5</ele><time>2026-04-29T12:28:14Z</time></trkpt><trkpt lat="42.30341511242322" lon="12.02588966325725"><ele>238.0</ele><time>2026-04-29T12:28:15Z</time></trkpt><trkpt lat="42.303284312206394" lon="12.025811100603928"><ele>237.5</ele><time>2026-04-29T12:28:16Z</time></trkpt><trkpt lat="42.30315544349489" lon="12.025731680826725"><ele>237.0</ele><time>2026-04-29T12:28:17Z</time></trkpt><trkpt lat="42.30303551981945" lon="12.02563209075747"><ele>236.0</ele><time>2026-04-29T12:28:18Z</time></trkpt><trkpt lat="42.30290101283765" lon="12.025570968370959"><ele>235.0</ele><time>2026-04-29T12:28:19Z</time></trkpt><trkpt lat="42.30277887340741" lon="12.025468798006553"><ele>234.0</ele><time>2026-04-29T12:28:20Z</time></trkpt><trkpt lat="42.302647763270166" lon="12.025385378434851"><ele>233.0</ele><time>2026-04-29T12:28:21Z</time></trkpt><trkpt lat="42.302515179457245" lon="12.025301021229776"><ele>233.0</ele><time>2026-04-29T12:28:22Z</time></trkpt><trkpt lat="42.302383987304076" lon="12.025217551028092"><ele>233.0</ele><time>2026-04-29T12:28:23Z</time></trkpt><trkpt lat="42.30225248050939" lon="12.025133879082933"><ele>233.0</ele><time>2026-04-29T12:28:24Z</time></trkpt><trkpt lat="42.302119402356716" lon="12.025049207351088"><ele>233.0</ele><time>2026-04-29T12:28:25Z</time></trkpt><trkpt lat="42.3019849916781" lon="12.024963687819879"><ele>233.75</ele><time>2026-04-29T12:28:26Z</time></trkpt><trkpt lat="42.30184982923238" lon="12.024877689942798"><ele>234.5</ele><time>2026-04-29T12:28:27Z</time></trkpt><trkpt lat="42.30171740367476" lon="12.02479343339204"><ele>235.25</ele><time>2026-04-29T12:28:28Z</time></trkpt><trkpt lat="42.30158958952493" lon="12.024713617294442"><ele>236.0</ele><time>2026-04-29T12:28:29Z</time></trkpt><trkpt lat="42.301460766936664" lon="12.024655025500962"><ele>236.5</ele><time>2026-04-29T12:28:30Z</time></trkpt><trkpt lat="42.30134773168661" lon="12.024583280885297"><ele>237.0</ele><time>2026-04-29T12:28:31Z</time></trkpt><trkpt lat="42.30123495491968" lon="12.02450792603841"><ele>237.5</ele><time>2026-04-29T12:28:32Z</time></trkpt><trkpt lat="42.30112784476624" lon="12.024432792297835"><ele>238.0</ele><time>2026-04-29T12:28:33Z</time></trkpt><trkpt lat="42.301022005037375" lon="12.024365222016739"><ele>238.0</ele><time>2026-04-29T12:28:34Z</time></trkpt><trkpt lat="42.30091707404781" lon="12.024298362406862"><ele>238.0</ele><time>2026-04-29T12:28:35Z</time></trkpt><trkpt lat="42.30081194850749" lon="12.02423203485908"><ele>238.0</ele><time>2026-04-29T12:28:36Z</time></trkpt><trkpt lat="42.30070582027254" lon="12.024161826712879"><ele>238.0</ele><time>2026-04-29T12:28:37Z</time></trkpt><trkpt lat="42.300593594599796" lon="12.024095491581134"><ele>237.8</ele><time>2026-04-29T12:28:38Z</time></trkpt><trkpt lat="42.300482774508225" lon="12.02402609439437"><ele>237.60000000000002</ele><time>2026-04-29T12:28:39Z</time></trkpt><trkpt lat="42.30038286410766" lon="12.023960382158437"><ele>237.39999999999998</ele><time>2026-04-29T12:28:40Z</time></trkpt><trkpt lat="42.300297206240835" lon="12.023901407132893"><ele>237.2</ele><time>2026-04-29T12:28:41Z</time></trkpt><trkpt lat="42.300223034624246" lon="12.023861318835676"><ele>237.0</ele><time>2026-04-29T12:28:42Z</time></trkpt><trkpt lat="42.30012930623307" lon="12.02380488449099"><ele>237.0</ele><time>2026-04-29T12:28:44Z</time></trkpt><trkpt lat="42.300069845293" lon="12.023743669229882"><ele>237.0</ele><time>2026-04-29T12:28:46Z</time></trkpt><trkpt lat="42.30005820575656" lon="12.023553860112326"><ele>237.0</ele><time>2026-04-29T12:28:48Z</time></trkpt><trkpt lat="42.300056106504925" lon="12.023418075499313"><ele>237.0</ele><time>2026-04-29T12:28:49Z</time></trkpt><trkpt lat="42.300036846108625" lon="12.023249647346802"><ele>237.0</ele><time>2026-04-29T12:28:50Z</time></trkpt><trkpt lat="42.30002489738441" lon="12.023074948236351"><ele>237.33333333333331</ele><time>2026-04-29T12:28:51Z</time></trkpt><trkpt lat="42.30001364739408" lon="12.022878140996124"><ele>237.66666666666666</ele><time>2026-04-29T12:28:52Z</time></trkpt><trkpt lat="42.30000150420943" lon="12.022656783511048"><ele>238.0</ele><time>2026-04-29T12:28:53Z</time></trkpt><trkpt lat="42.299991429961274" lon="12.022434682603945"><ele>237.33333333333331</ele><time>2026-04-29T12:28:54Z</time></trkpt><trkpt lat="42.29997808268469" lon="12.022208940576215"><ele>236.66666666666669</ele><time>2026-04-29T12:28:55Z</time></trkpt><trkpt lat="42.29996716254457" lon="12.021978966920594"><ele>236.0</ele><time>2026-04-29T12:28:56Z</time></trkpt><trkpt lat="42.29997579983545" lon="12.021744298130853"><ele>236.0</ele><time>2026-04-29T12:28:57Z</time></trkpt><trkpt lat="42.30000984013869" lon="12.021499163466187"><ele>236.0</ele><time>2026-04-29T12:28:58Z</time></trkpt><trkpt lat="42.300062650943886" lon="12.021235240963042"><ele>236.0</ele><time>2026-04-29T12:28:59Z</time></trkpt><trkpt lat="42.30012047108181" lon="12.020946288387492"><ele>235.5</ele><time>2026-04-29T12:29:00Z</time></trkpt><trkpt lat="42.30018248783346" lon="12.020639875712147"><ele>235.0</ele><time>2026-04-29T12:29:01Z</time></trkpt><trkpt lat="42.300248358350636" lon="12.020328336311842"><ele>235.0</ele><time>2026-04-29T12:29:02Z</time></trkpt><trkpt lat="42.30031471024678" lon="12.019994867584"><ele>235.0</ele><time>2026-04-29T12:29:03Z</time></trkpt><trkpt lat="42.300381116165624" lon="12.01964734929253"><ele>234.0</ele><time>2026-04-29T12:29:04Z</time></trkpt><trkpt lat="42.30044958108911" lon="12.019305672233289"><ele>233.0</ele><time>2026-04-29T12:29:05Z</time></trkpt><trkpt lat="42.30051839577209" lon="12.018961509784408"><ele>231.5</ele><time>2026-04-29T12:29:06Z</time></trkpt><trkpt lat="42.30059057975748" lon="12.018603312898446"><ele>230.0</ele><time>2026-04-29T12:29:07Z</time></trkpt><trkpt lat="42.30066279539259" lon="12.018230270346319"><ele>229.5</ele><time>2026-04-29T12:29:08Z</time></trkpt><trkpt lat="42.300738565423636" lon="12.017846910700804"><ele>229.0</ele><time>2026-04-29T12:29:09Z</time></trkpt><trkpt lat="42.300815656368314" lon="12.017461804158769"><ele>228.5</ele><time>2026-04-29T12:29:10Z</time></trkpt><trkpt lat="42.30088538097516" lon="12.017114520787953"><ele>228.0</ele><time>2026-04-29T12:29:11Z</time></trkpt><trkpt lat="42.300945135770405" lon="12.016810752691542"><ele>227.66666666666669</ele><time>2026-04-29T12:29:12Z</time></trkpt><trkpt lat="42.300999722639105" lon="12.016536156928625"><ele>227.33333333333334</ele><time>2026-04-29T12:29:13Z</time></trkpt><trkpt lat="42.30105311340423" lon="12.016283844665963"><ele>227.0</ele><time>2026-04-29T12:29:14Z</time></trkpt><trkpt lat="42.30109988408396" lon="12.016038816430735"><ele>227.0</ele><time>2026-04-29T12:29:15Z</time></trkpt><trkpt lat="42.301147614720385" lon="12.015780417632802"><ele>227.0</ele><time>2026-04-29T12:29:16Z</time></trkpt><trkpt lat="42.30119856075902" lon="12.015510163995804"><ele>227.0</ele><time>2026-04-29T12:29:17Z</time></trkpt><trkpt lat="42.301253690531816" lon="12.015227306162474"><ele>227.0</ele><time>2026-04-29T12:29:18Z</time></trkpt><trkpt lat="42.30131407989338" lon="12.014930276423476"><ele>227.0</ele><time>2026-04-29T12:29:19Z</time></trkpt><trkpt lat="42.30137638443716" lon="12.014632301991469"><ele>226.66666666666669</ele><time>2026-04-29T12:29:20Z</time></trkpt><trkpt lat="42.30143313210076" lon="12.014355289848352"><ele>226.33333333333331</ele><time>2026-04-29T12:29:21Z</time></trkpt><trkpt lat="42.30148691816536" lon="12.014088620345483"><ele>226.0</ele><time>2026-04-29T12:29:22Z</time></trkpt><trkpt lat="42.30154421296428" lon="12.013835143422025"><ele>226.0</ele><time>2026-04-29T12:29:23Z</time></trkpt><trkpt lat="42.30160206341941" lon="12.013579168329134"><ele>226.0</ele><time>2026-04-29T12:29:24Z</time></trkpt><trkpt lat="42.30167665111598" lon="12.013302768969684"><ele>226.0</ele><time>2026-04-29T12:29:25Z</time></trkpt><trkpt lat="42.301698127934" lon="12.013008050224206"><ele>225.0</ele><time>2026-04-29T12:29:26Z</time></trkpt><trkpt lat="42.30173939626982" lon="12.012695075350278"><ele>224.0</ele><time>2026-04-29T12:29:27Z</time></trkpt><trkpt lat="42.30177973327524" lon="12.012364908432001"><ele>223.0</ele><time>2026-04-29T12:29:28Z</time></trkpt><trkpt lat="42.301818946958655" lon="12.012052759019546"><ele>222.0</ele><time>2026-04-29T12:29:29Z</time></trkpt><trkpt lat="42.30185818529765" lon="12.01173688508524"><ele>222.5</ele><time>2026-04-29T12:29:30Z</time></trkpt><trkpt lat="42.3018971034837" lon="12.011426107474668"><ele>223.0</ele><time>2026-04-29T12:29:31Z</time></trkpt><trkpt lat="42.30193358164344" lon="12.011127115319246"><ele>223.0</ele><time>2026-04-29T12:29:32Z</time></trkpt><trkpt lat="42.30196297814789" lon="12.010841202796605"><ele>223.0</ele><time>2026-04-29T12:29:33Z</time></trkpt><trkpt lat="42.30199735811144" lon="12.010547905384115"><ele>223.0</ele><time>2026-04-29T12:29:34Z</time></trkpt><trkpt lat="42.30203087939133" lon="12.010257457358327"><ele>222.33333333333331</ele><time>2026-04-29T12:29:35Z</time></trkpt><trkpt lat="42.30206995644209" lon="12.009962614755949"><ele>221.66666666666669</ele><time>2026-04-29T12:29:36Z</time></trkpt><trkpt lat="42.302106858254895" lon="12.00967240558062"><ele>221.0</ele><time>2026-04-29T12:29:37Z</time></trkpt><trkpt lat="42.302141189251294" lon="12.009380283491128"><ele>221.0</ele><time>2026-04-29T12:29:38Z</time></trkpt><trkpt lat="42.302173587262416" lon="12.009089188516544"><ele>221.0</ele><time>2026-04-29T12:29:39Z</time></trkpt><trkpt lat="42.302207925386014" lon="12.008799627453731"><ele>221.0</ele><time>2026-04-29T12:29:40Z</time></trkpt><trkpt lat="42.302241463102675" lon="12.008510953478373"><ele>220.66666666666669</ele><time>2026-04-29T12:29:41Z</time></trkpt><trkpt lat="42.302277520153865" lon="12.008222847830762"><ele>220.33333333333331</ele><time>2026-04-29T12:29:42Z</time></trkpt><trkpt lat="42.30231934426773" lon="12.007935069996162"><ele>220.0</ele><time>2026-04-29T12:29:43Z</time></trkpt><trkpt lat="42.302354718417675" lon="12.007643930793323"><ele>219.66666666666666</ele><time>2026-04-29T12:29:44Z</time></trkpt><trkpt lat="42.30238811307927" lon="12.007347490671194"><ele>219.33333333333331</ele><time>2026-04-29T12:29:45Z</time></trkpt><trkpt lat="42.30242100462667" lon="12.00704662356702"><ele>219.0</ele><time>2026-04-29T12:29:46Z</time></trkpt><trkpt lat="42.30245775982741" lon="12.006739170977761"><ele>217.5</ele><time>2026-04-29T12:29:47Z</time></trkpt><trkpt lat="42.3024959999348" lon="12.006427776453942"><ele>216.0</ele><time>2026-04-29T12:29:48Z</time></trkpt><trkpt lat="42.30253505338328" lon="12.006111774632677"><ele>216.0</ele><time>2026-04-29T12:29:49Z</time></trkpt><trkpt lat="42.30257232860129" lon="12.005792016069343"><ele>216.0</ele><time>2026-04-29T12:29:50Z</time></trkpt><trkpt lat="42.30260890229643" lon="12.005473870067918"><ele>216.0</ele><time>2026-04-29T12:29:51Z</time></trkpt><trkpt lat="42.30264190448146" lon="12.005178919064898"><ele>216.0</ele><time>2026-04-29T12:29:52Z</time></trkpt><trkpt lat="42.30266755999898" lon="12.004932820270941"><ele>216.0</ele><time>2026-04-29T12:29:53Z</time></trkpt><trkpt lat="42.30269360496526" lon="12.004701157356351"><ele>216.0</ele><time>2026-04-29T12:29:54Z</time></trkpt><trkpt lat="42.302720233200056" lon="12.004486183796098"><ele>216.0</ele><time>2026-04-29T12:29:55Z</time></trkpt><trkpt lat="42.30274599192168" lon="12.00428016747356"><ele>216.0</ele><time>2026-04-29T12:29:56Z</time></trkpt><trkpt lat="42.30276956213851" lon="12.004084550136579"><ele>215.60000000000002</ele><time>2026-04-29T12:29:57Z</time></trkpt><trkpt lat="42.30279104859743" lon="12.003907172330248"><ele>215.20000000000002</ele><time>2026-04-29T12:29:58Z</time></trkpt><trkpt lat="42.30280695466811" lon="12.003750807344742"><ele>214.79999999999998</ele><time>2026-04-29T12:29:59Z</time></trkpt><trkpt lat="42.3028231456291" lon="12.003610862323496"><ele>214.39999999999998</ele><time>2026-04-29T12:30:00Z</time></trkpt><trkpt lat="42.302837944756206" lon="12.003490082485179"><ele>214.0</ele><time>2026-04-29T12:30:01Z</time></trkpt><trkpt lat="42.302852253680605" lon="12.003391501861827"><ele>213.66666666666666</ele><time>2026-04-29T12:30:02Z</time></trkpt><trkpt lat="42.3028563000185" lon="12.003263554213268"><ele>213.33333333333331</ele><time>2026-04-29T12:30:04Z</time></trkpt><trkpt lat="42.302813285979994" lon="12.003196814263127"><ele>213.0</ele><time>2026-04-29T12:30:06Z</time></trkpt><trkpt lat="42.30271264469244" lon="12.003181501535735"><ele>212.66666666666669</ele><time>2026-04-29T12:30:09Z</time></trkpt><trkpt lat="42.30262555487086" lon="12.003196696513589"><ele>212.33333333333334</ele><time>2026-04-29T12:30:11Z</time></trkpt><trkpt lat="42.302533337005904" lon="12.003186280492324"><ele>212.0</ele><time>2026-04-29T12:30:13Z</time></trkpt><trkpt lat="42.302446277091434" lon="12.003180139117003"><ele>212.00000000000003</ele><time>2026-04-29T12:30:15Z</time></trkpt><trkpt lat="42.30233816409928" lon="12.003158557431721"><ele>212.0</ele><time>2026-04-29T12:30:17Z</time></trkpt><trkpt lat="42.30227435218393" lon="12.00313564272375"><ele>212.0</ele><time>2026-04-29T12:30:18Z</time></trkpt><trkpt lat="42.30220584286005" lon="12.00311786288911"><ele>212.0</ele><time>2026-04-29T12:30:19Z</time></trkpt><trkpt lat="42.30214018712694" lon="12.003104611166911"><ele>212.00000000000003</ele><time>2026-04-29T12:30:20Z</time></trkpt><trkpt lat="42.302069739890726" lon="12.003092060836849"><ele>212.0</ele><time>2026-04-29T12:30:21Z</time></trkpt><trkpt lat="42.302001638996195" lon="12.003078865405673"><ele>212.2</ele><time>2026-04-29T12:30:22Z</time></trkpt><trkpt lat="42.3019299517293" lon="12.003067350712582"><ele>212.39999999999998</ele><time>2026-04-29T12:30:23Z</time></trkpt><trkpt lat="42.30186429504698" lon="12.003055762922344"><ele>212.60000000000002</ele><time>2026-04-29T12:30:24Z</time></trkpt><trkpt lat="42.301736678353215" lon="12.003037805820098"><ele>212.8</ele><time>2026-04-29T12:30:26Z</time></trkpt><trkpt lat="42.30161099979438" lon="12.003020681611158"><ele>213.0</ele><time>2026-04-29T12:30:28Z</time></trkpt><trkpt lat="42.301537267347946" lon="12.003007388166692"><ele>213.0</ele><time>2026-04-29T12:30:29Z</time></trkpt><trkpt lat="42.30147080157424" lon="12.002993503217732"><ele>213.0</ele><time>2026-04-29T12:30:30Z</time></trkpt><trkpt lat="42.30135313350425" lon="12.002973260010396"><ele>213.0</ele><time>2026-04-29T12:30:32Z</time></trkpt><trkpt lat="42.30125210668262" lon="12.00295291982707"><ele>213.0</ele><time>2026-04-29T12:30:34Z</time></trkpt><trkpt lat="42.30115323769856" lon="12.002934685740538"><ele>213.0</ele><time>2026-04-29T12:30:36Z</time></trkpt><trkpt lat="42.301048163981015" lon="12.002919991656661"><ele>212.5</ele><time>2026-04-29T12:30:38Z</time></trkpt><trkpt lat="42.300941834394656" lon="12.00289916484383"><ele>212.0</ele><time>2026-04-29T12:30:40Z</time></trkpt><trkpt lat="42.30081988339518" lon="12.002876171225694"><ele>211.5</ele><time>2026-04-29T12:30:42Z</time></trkpt><trkpt lat="42.30075453624165" lon="12.002867704700611"><ele>211.0</ele><time>2026-04-29T12:30:43Z</time></trkpt><trkpt lat="42.30068849554773" lon="12.002861608960966"><ele>210.5</ele><time>2026-04-29T12:30:44Z</time></trkpt><trkpt lat="42.30062308353803" lon="12.002852641549007"><ele>210.0</ele><time>2026-04-29T12:30:45Z</time></trkpt><trkpt lat="42.30055644721025" lon="12.002847574482733"><ele>210.0</ele><time>2026-04-29T12:30:46Z</time></trkpt><trkpt lat="42.30044690600139" lon="12.002818997511108"><ele>210.0</ele><time>2026-04-29T12:30:48.001Z</time></trkpt><trkpt lat="42.300320453220394" lon="12.002793643390389"><ele>210.0</ele><time>2026-04-29T12:30:50.001Z</time></trkpt><trkpt lat="42.300252344903825" lon="12.0027801886897"><ele>210.0</ele><time>2026-04-29T12:30:51.001Z</time></trkpt><trkpt lat="42.30019338730234" lon="12.002745094549903"><ele>210.0</ele><time>2026-04-29T12:30:52.001Z</time></trkpt><trkpt lat="42.3000814199558" lon="12.002741675809238"><ele>210.0</ele><time>2026-04-29T12:30:54.001Z</time></trkpt><trkpt lat="42.29997300406" lon="12.00272218249475"><ele>210.0</ele><time>2026-04-29T12:30:56.001Z</time></trkpt><trkpt lat="42.29985244872863" lon="12.002705849448096"><ele>210.0</ele><time>2026-04-29T12:30:58.001Z</time></trkpt><trkpt lat="42.29978650118241" lon="12.002695171737928"><ele>210.0</ele><time>2026-04-29T12:30:59.001Z</time></trkpt><trkpt lat="42.29967386731002" lon="12.002668527372194"><ele>210.0</ele><time>2026-04-29T12:31:01.001Z</time></trkpt><trkpt lat="42.299558728076455" lon="12.002640649068406"><ele>210.16666666666666</ele><time>2026-04-29T12:31:03.001Z</time></trkpt><trkpt lat="42.29943648686538" lon="12.00261095757108"><ele>210.33333333333331</ele><time>2026-04-29T12:31:05.001Z</time></trkpt><trkpt lat="42.299371669683666" lon="12.002599151056344"><ele>210.5</ele><time>2026-04-29T12:31:06Z</time></trkpt><trkpt lat="42.29930867105019" lon="12.002593495548192"><ele>210.66666666666666</ele><time>2026-04-29T12:31:07Z</time></trkpt><trkpt lat="42.29924181377797" lon="12.002586900631279"><ele>210.83333333333331</ele><time>2026-04-29T12:31:08Z</time></trkpt><trkpt lat="42.299170253888995" lon="12.002574221248373"><ele>211.0</ele><time>2026-04-29T12:31:09Z</time></trkpt><trkpt lat="42.299098302864614" lon="12.002560927657415"><ele>210.99999999999997</ele><time>2026-04-29T12:31:10Z</time></trkpt><trkpt lat="42.29903013804944" lon="12.002551692043674"><ele>211.0</ele><time>2026-04-29T12:31:11Z</time></trkpt><trkpt lat="42.29896167919007" lon="12.002546023195451"><ele>211.0</ele><time>2026-04-29T12:31:12Z</time></trkpt><trkpt lat="42.29889898049816" lon="12.002536935031875"><ele>211.0</ele><time>2026-04-29T12:31:13Z</time></trkpt><trkpt lat="42.29879890990844" lon="12.002468073026353"><ele>210.99999999999997</ele><time>2026-04-29T12:31:15Z</time></trkpt><trkpt lat="42.298694429175384" lon="12.002397362454147"><ele>211.0</ele><time>2026-04-29T12:31:17Z</time></trkpt><trkpt lat="42.29863810234992" lon="12.002359241566577"><ele>210.99999999999997</ele><time>2026-04-29T12:31:18Z</time></trkpt><trkpt lat="42.2985243099875" lon="12.002468944970298"><ele>211.0</ele><time>2026-04-29T12:31:19Z</time></trkpt><trkpt lat="42.298454513066496" lon="12.002452857634424"><ele>211.0</ele><time>2026-04-29T12:31:20Z</time></trkpt><trkpt lat="42.29838287641896" lon="12.002437952100514"><ele>211.0</ele><time>2026-04-29T12:31:21Z</time></trkpt><trkpt lat="42.29831274291636" lon="12.002425921100023"><ele>210.99999999999997</ele><time>2026-04-29T12:31:22Z</time></trkpt><trkpt lat="42.29824135705471" lon="12.00241531204098"><ele>211.0</ele><time>2026-04-29T12:31:23Z</time></trkpt><trkpt lat="42.29817281811491" lon="12.002405423579562"><ele>211.0</ele><time>2026-04-29T12:31:24Z</time></trkpt><trkpt lat="42.2981053166486" lon="12.002397647394595"><ele>211.0</ele><time>2026-04-29T12:31:25Z</time></trkpt><trkpt lat="42.29803451595923" lon="12.002382675940899"><ele>211.0</ele><time>2026-04-29T12:31:26Z</time></trkpt><trkpt lat="42.297963226512884" lon="12.00237015929121"><ele>211.0</ele><time>2026-04-29T12:31:27Z</time></trkpt><trkpt lat="42.29789448246576" lon="12.002360033144612"><ele>211.0</ele><time>2026-04-29T12:31:28Z</time></trkpt><trkpt lat="42.29782510112366" lon="12.002348891502814"><ele>211.0</ele><time>2026-04-29T12:31:29Z</time></trkpt><trkpt lat="42.29775805797688" lon="12.002337780707945"><ele>211.0</ele><time>2026-04-29T12:31:30Z</time></trkpt><trkpt lat="42.2976950037404" lon="12.002329848655636"><ele>210.4</ele><time>2026-04-29T12:31:31Z</time></trkpt><trkpt lat="42.29758417877713" lon="12.002318058440894"><ele>209.8</ele><time>2026-04-29T12:31:33Z</time></trkpt><trkpt lat="42.29748562664779" lon="12.002317903714596"><ele>209.20000000000002</ele><time>2026-04-29T12:31:35Z</time></trkpt><trkpt lat="42.29738064125245" lon="12.002294709137674"><ele>208.60000000000002</ele><time>2026-04-29T12:31:37Z</time></trkpt><trkpt lat="42.29726886723628" lon="12.002259293449892"><ele>208.0</ele><time>2026-04-29T12:31:39Z</time></trkpt><trkpt lat="42.29715072331231" lon="12.002243907980638"><ele>207.75</ele><time>2026-04-29T12:31:41Z</time></trkpt><trkpt lat="42.29702911912292" lon="12.002224954400477"><ele>207.5</ele><time>2026-04-29T12:31:43Z</time></trkpt><trkpt lat="42.29691641178986" lon="12.002207493585079"><ele>207.25</ele><time>2026-04-29T12:31:45Z</time></trkpt><trkpt lat="42.296796670031576" lon="12.002182813576509"><ele>207.0</ele><time>2026-04-29T12:31:47Z</time></trkpt><trkpt lat="42.29668786983241" lon="12.00216897760333"><ele>207.0</ele><time>2026-04-29T12:31:49Z</time></trkpt><trkpt lat="42.29659352645161" lon="12.002186139387247"><ele>207.0</ele><time>2026-04-29T12:31:51Z</time></trkpt><trkpt lat="42.29647595337265" lon="12.002207135561749"><ele>207.0</ele><time>2026-04-29T12:31:53Z</time></trkpt><trkpt lat="42.29635917195046" lon="12.002219679436552"><ele>207.0</ele><time>2026-04-29T12:31:55Z</time></trkpt><trkpt lat="42.29625567450374" lon="12.002235185858122"><ele>207.0</ele><time>2026-04-29T12:31:57Z</time></trkpt><trkpt lat="42.29614506908264" lon="12.002253360191848"><ele>206.8</ele><time>2026-04-29T12:31:59Z</time></trkpt><trkpt lat="42.29603633899388" lon="12.002284204859594"><ele>206.6</ele><time>2026-04-29T12:32:01Z</time></trkpt><trkpt lat="42.29591501012428" lon="12.00230051742365"><ele>206.4</ele><time>2026-04-29T12:32:03Z</time></trkpt><trkpt lat="42.29581638934429" lon="12.002292300155654"><ele>206.20000000000002</ele><time>2026-04-29T12:32:05Z</time></trkpt><trkpt lat="42.29570554902427" lon="12.002322547149161"><ele>206.0</ele><time>2026-04-29T12:32:07Z</time></trkpt><trkpt lat="42.29559884965295" lon="12.002334782789912"><ele>205.00000000000003</ele><time>2026-04-29T12:32:09Z</time></trkpt><trkpt lat="42.295488295192584" lon="12.002319389712824"><ele>204.0</ele><time>2026-04-29T12:32:11Z</time></trkpt><trkpt lat="42.29540178105626" lon="12.002284407463238"><ele>203.0</ele><time>2026-04-29T12:32:13Z</time></trkpt><trkpt lat="42.29533918165362" lon="12.002246791222603"><ele>202.0</ele><time>2026-04-29T12:32:15Z</time></trkpt><trkpt lat="42.29527574499499" lon="12.002204274928856"><ele>201.00000000000003</ele><time>2026-04-29T12:32:18Z</time></trkpt><trkpt lat="42.29520649027905" lon="12.002198406465553"><ele>200.0</ele><time>2026-04-29T12:32:38Z</time></trkpt><trkpt lat="42.295135795175355" lon="12.002184753145448"><ele>200.00000000000003</ele><time>2026-04-29T12:32:46Z</time></trkpt><trkpt lat="42.29506572255038" lon="12.002180668889899"><ele>200.0</ele><time>2026-04-29T12:32:53Z</time></trkpt><trkpt lat="42.294996430844435" lon="12.00218454965995"><ele>200.0</ele><time>2026-04-29T12:33:01.001Z</time></trkpt><trkpt lat="42.29492948609655" lon="12.002196130494971"><ele>200.0</ele><time>2026-04-29T12:33:10.001Z</time></trkpt><trkpt lat="42.29486649612157" lon="12.002181096586144"><ele>200.0</ele><time>2026-04-29T12:33:19Z</time></trkpt><trkpt lat="42.29479751274751" lon="12.00215023192468"><ele>200.00000000000003</ele><time>2026-04-29T12:33:31Z</time></trkpt><trkpt lat="42.29473149116988" lon="12.002130248123816"><ele>200.0</ele><time>2026-04-29T12:33:40Z</time></trkpt><trkpt lat="42.29466616805229" lon="12.002117845697658"><ele>200.00000000000003</ele><time>2026-04-29T12:33:47Z</time></trkpt><trkpt lat="42.2945988238974" lon="12.002135213611567"><ele>200.0</ele><time>2026-04-29T12:34:36Z</time></trkpt><trkpt lat="42.29456693699834" lon="12.002225664405213"><ele>200.0</ele><time>2026-04-29T12:34:51Z</time></trkpt><trkpt lat="42.29461255726281" lon="12.002300424340094"><ele>200.0</ele><time>2026-04-29T12:35:12Z</time></trkpt><trkpt lat="42.29464086610985" lon="12.002221550127974"><ele>200.0</ele><time>2026-04-29T12:36:46Z</time></trkpt><trkpt lat="42.29468493108696" lon="12.002148926338242"><ele>200.00000000000003</ele><time>2026-04-29T12:36:56Z</time></trkpt><trkpt lat="42.29475213420534" lon="12.002141684601217"><ele>200.0</ele><time>2026-04-29T12:37:09Z</time></trkpt><trkpt lat="42.29482038517879" lon="12.002172508360466"><ele>200.00000000000003</ele><time>2026-04-29T12:37:19Z</time></trkpt><trkpt lat="42.29488526086267" lon="12.002199730988165"><ele>200.0</ele><time>2026-04-29T12:37:28Z</time></trkpt><trkpt lat="42.29496078544386" lon="12.002201001115182"><ele>200.0</ele><time>2026-04-29T12:37:36Z</time></trkpt><trkpt lat="42.295032008222336" lon="12.002216667747788"><ele>200.0</ele><time>2026-04-29T12:37:44Z</time></trkpt><trkpt lat="42.29509870819447" lon="12.002192095472884"><ele>200.0</ele><time>2026-04-29T12:37:51Z</time></trkpt><trkpt lat="42.29516595111539" lon="12.002193909945966"><ele>200.00000000000003</ele><time>2026-04-29T12:38:08Z</time></trkpt><trkpt lat="42.2952337525744" lon="12.002197990406309"><ele>200.0</ele><time>2026-04-29T12:38:15Z</time></trkpt><trkpt lat="42.29522444648839" lon="12.00209835436336"><ele>200.00000000000003</ele><time>2026-04-29T12:40:41Z</time></trkpt><trkpt lat="42.29528577204161" lon="12.00204425515976"><ele>200.0</ele><time>2026-04-29T12:40:45Z</time></trkpt><trkpt lat="42.295349055008096" lon="12.00210232594577"><ele>200.0</ele><time>2026-04-29T12:40:48Z</time></trkpt><trkpt lat="42.29537041734872" lon="12.002207188106627"><ele>200.0</ele><time>2026-04-29T12:40:51Z</time></trkpt><trkpt lat="42.29541981905077" lon="12.002294207359204"><ele>200.00000000000003</ele><time>2026-04-29T12:40:54Z</time></trkpt><trkpt lat="42.29552222106418" lon="12.002341589594687"><ele>200.0</ele><time>2026-04-29T12:40:58Z</time></trkpt><trkpt lat="42.295600160407346" lon="12.002344694255905"><ele>201.00000000000003</ele><time>2026-04-29T12:41:00Z</time></trkpt><trkpt lat="42.295686177350724" lon="12.002336080523438"><ele>202.0</ele><time>2026-04-29T12:41:02Z</time></trkpt><trkpt lat="42.295758110393805" lon="12.002324019452876"><ele>203.0</ele><time>2026-04-29T12:41:04Z</time></trkpt><trkpt lat="42.295862763538" lon="12.00230357265975"><ele>204.0</ele><time>2026-04-29T12:41:08Z</time></trkpt><trkpt lat="42.295951622911005" lon="12.0023063944368"><ele>205.00000000000003</ele><time>2026-04-29T12:41:10Z</time></trkpt><trkpt lat="42.296027780607396" lon="12.002304720308615"><ele>206.0</ele><time>2026-04-29T12:41:12Z</time></trkpt><trkpt lat="42.29610157296631" lon="12.00228711680316"><ele>206.0</ele><time>2026-04-29T12:41:14Z</time></trkpt><trkpt lat="42.2961927087922" lon="12.002261100949259"><ele>206.0</ele><time>2026-04-29T12:41:16Z</time></trkpt><trkpt lat="42.29628743566654" lon="12.002243446184774"><ele>206.0</ele><time>2026-04-29T12:41:18Z</time></trkpt><trkpt lat="42.296379304772145" lon="12.00222644859128"><ele>206.0</ele><time>2026-04-29T12:41:20Z</time></trkpt><trkpt lat="42.29647280477045" lon="12.00222171768086"><ele>206.0</ele><time>2026-04-29T12:41:22Z</time></trkpt><trkpt lat="42.29656038475008" lon="12.002213777446473"><ele>206.16666666666669</ele><time>2026-04-29T12:41:24Z</time></trkpt><trkpt lat="42.29663828833605" lon="12.002206215681435"><ele>206.33333333333334</ele><time>2026-04-29T12:41:26Z</time></trkpt><trkpt lat="42.29670611762985" lon="12.002190357932921"><ele>206.5</ele><time>2026-04-29T12:41:29Z</time></trkpt><trkpt lat="42.29679026615892" lon="12.00219635938318"><ele>206.66666666666669</ele><time>2026-04-29T12:41:31Z</time></trkpt><trkpt lat="42.29688818224754" lon="12.00221761662246"><ele>206.83333333333334</ele><time>2026-04-29T12:41:33Z</time></trkpt><trkpt lat="42.296969821468366" lon="12.002235778862755"><ele>207.0</ele><time>2026-04-29T12:41:35Z</time></trkpt><trkpt lat="42.297040696807514" lon="12.002243235883416"><ele>207.0</ele><time>2026-04-29T12:41:37Z</time></trkpt><trkpt lat="42.29711623613984" lon="12.002254371446465"><ele>207.0</ele><time>2026-04-29T12:41:39Z</time></trkpt><trkpt lat="42.297193586516485" lon="12.00226759203139"><ele>207.0</ele><time>2026-04-29T12:41:41Z</time></trkpt><trkpt lat="42.297271829789885" lon="12.002279456169477"><ele>207.0</ele><time>2026-04-29T12:41:43Z</time></trkpt><trkpt lat="42.2973541900539" lon="12.002296575355828"><ele>207.0</ele><time>2026-04-29T12:41:45Z</time></trkpt><trkpt lat="42.29744413851404" lon="12.002323955877849"><ele>207.0</ele><time>2026-04-29T12:41:47Z</time></trkpt><trkpt lat="42.29753904401546" lon="12.00233735074252"><ele>207.2</ele><time>2026-04-29T12:41:49Z</time></trkpt><trkpt lat="42.297639522295775" lon="12.002359057761538"><ele>207.39999999999998</ele><time>2026-04-29T12:41:51Z</time></trkpt><trkpt lat="42.29772936451454" lon="12.002364074260871"><ele>207.60000000000002</ele><time>2026-04-29T12:41:53Z</time></trkpt><trkpt lat="42.29783758593955" lon="12.002374470364359"><ele>207.8</ele><time>2026-04-29T12:41:55Z</time></trkpt><trkpt lat="42.2979541413011" lon="12.002393005030868"><ele>208.0</ele><time>2026-04-29T12:41:57Z</time></trkpt><trkpt lat="42.29802041996958" lon="12.002404120629691"><ele>208.49999999999997</ele><time>2026-04-29T12:41:58Z</time></trkpt><trkpt lat="42.298089185176366" lon="12.002417008499828"><ele>209.0</ele><time>2026-04-29T12:41:59Z</time></trkpt><trkpt lat="42.29815985234946" lon="12.002427684175293"><ele>209.5</ele><time>2026-04-29T12:42:00Z</time></trkpt><trkpt lat="42.29822838762986" lon="12.002440063584391"><ele>210.0</ele><time>2026-04-29T12:42:01Z</time></trkpt><trkpt lat="42.29835154438179" lon="12.002458554809223"><ele>210.49999999999997</ele><time>2026-04-29T12:42:03Z</time></trkpt><trkpt lat="42.29841404576435" lon="12.002470004708133"><ele>211.0</ele><time>2026-04-29T12:42:04Z</time></trkpt><trkpt lat="42.29853026546981" lon="12.002494368697567"><ele>211.0</ele><time>2026-04-29T12:42:06Z</time></trkpt><trkpt lat="42.2986313814129" lon="12.002513558732993"><ele>211.0</ele><time>2026-04-29T12:42:08Z</time></trkpt><trkpt lat="42.298737459498106" lon="12.002531941737924"><ele>211.0</ele><time>2026-04-29T12:42:10Z</time></trkpt><trkpt lat="42.29884689625292" lon="12.002553752685218"><ele>211.0</ele><time>2026-04-29T12:42:12Z</time></trkpt><trkpt lat="42.29893688828057" lon="12.002595407943119"><ele>211.0</ele><time>2026-04-29T12:42:14Z</time></trkpt><trkpt lat="42.29902667102621" lon="12.002610997023336"><ele>211.0</ele><time>2026-04-29T12:42:16Z</time></trkpt><trkpt lat="42.299118298703014" lon="12.002625783607568"><ele>211.0</ele><time>2026-04-29T12:42:18Z</time></trkpt><trkpt lat="42.29921252780045" lon="12.00263993985179"><ele>211.0</ele><time>2026-04-29T12:42:20Z</time></trkpt><trkpt lat="42.29930597603357" lon="12.002653978784814"><ele>211.0</ele><time>2026-04-29T12:42:22Z</time></trkpt><trkpt lat="42.29939665990759" lon="12.002667602422896"><ele>211.0</ele><time>2026-04-29T12:42:24Z</time></trkpt><trkpt lat="42.29948027004966" lon="12.002681805346148"><ele>211.0</ele><time>2026-04-29T12:42:26Z</time></trkpt><trkpt lat="42.2995724672212" lon="12.002699101475631"><ele>211.0</ele><time>2026-04-29T12:42:28Z</time></trkpt><trkpt lat="42.29967996840636" lon="12.002719268629162"><ele>211.0</ele><time>2026-04-29T12:42:30Z</time></trkpt><trkpt lat="42.29978204518641" lon="12.002736976984844"><ele>211.0</ele><time>2026-04-29T12:42:32Z</time></trkpt><trkpt lat="42.299888399825264" lon="12.002748596529655"><ele>211.0</ele><time>2026-04-29T12:42:34Z</time></trkpt><trkpt lat="42.2999931213679" lon="12.002758323851566"><ele>210.8</ele><time>2026-04-29T12:42:36Z</time></trkpt><trkpt lat="42.300095689091734" lon="12.002771256473237"><ele>210.60000000000002</ele><time>2026-04-29T12:42:38Z</time></trkpt><trkpt lat="42.30020366653794" lon="12.002792943527119"><ele>210.4</ele><time>2026-04-29T12:42:40Z</time></trkpt><trkpt lat="42.30029439414516" lon="12.002813618594912"><ele>210.2</ele><time>2026-04-29T12:42:42Z</time></trkpt><trkpt lat="42.30038732958887" lon="12.002834267707701"><ele>210.0</ele><time>2026-04-29T12:42:44Z</time></trkpt><trkpt lat="42.30047238114986" lon="12.002851286223978"><ele>210.0</ele><time>2026-04-29T12:42:46Z</time></trkpt><trkpt lat="42.300547852279834" lon="12.00286638772855"><ele>210.0</ele><time>2026-04-29T12:42:48Z</time></trkpt><trkpt lat="42.30061918984397" lon="12.002879083256502"><ele>210.0</ele><time>2026-04-29T12:42:50Z</time></trkpt><trkpt lat="42.30069383607034" lon="12.002891957868957"><ele>210.0</ele><time>2026-04-29T12:42:52Z</time></trkpt><trkpt lat="42.300787133656726" lon="12.002906425205929"><ele>210.0</ele><time>2026-04-29T12:42:54Z</time></trkpt><trkpt lat="42.300891759523445" lon="12.002921095797003"><ele>210.0</ele><time>2026-04-29T12:42:56Z</time></trkpt><trkpt lat="42.30098938751849" lon="12.002935515689513"><ele>210.0</ele><time>2026-04-29T12:42:58Z</time></trkpt><trkpt lat="42.30108060713484" lon="12.002916645964136"><ele>210.0</ele><time>2026-04-29T12:43:00Z</time></trkpt><trkpt lat="42.301155935996874" lon="12.002931166114788"><ele>210.0</ele><time>2026-04-29T12:43:02Z</time></trkpt><trkpt lat="42.301233725403435" lon="12.002939094580343"><ele>210.0</ele><time>2026-04-29T12:43:04Z</time></trkpt><trkpt lat="42.30132812230751" lon="12.002954591029116"><ele>210.0</ele><time>2026-04-29T12:43:06Z</time></trkpt><trkpt lat="42.30142014778798" lon="12.002981890303698"><ele>210.0</ele><time>2026-04-29T12:43:08Z</time></trkpt><trkpt lat="42.30152168180892" lon="12.002997444726624"><ele>210.5</ele><time>2026-04-29T12:43:10Z</time></trkpt><trkpt lat="42.30161591117439" lon="12.003049064918253"><ele>211.0</ele><time>2026-04-29T12:43:12Z</time></trkpt><trkpt lat="42.30168022116948" lon="12.00306106728811"><ele>211.5</ele><time>2026-04-29T12:43:14Z</time></trkpt><trkpt lat="42.301772984933585" lon="12.003074934842276"><ele>212.0</ele><time>2026-04-29T12:43:15Z</time></trkpt><trkpt lat="42.30183749615494" lon="12.003062368417506"><ele>212.5</ele><time>2026-04-29T12:43:16Z</time></trkpt><trkpt lat="42.30195534661921" lon="12.003084797242979"><ele>213.0</ele><time>2026-04-29T12:43:18Z</time></trkpt><trkpt lat="42.302081049128404" lon="12.00310824607697"><ele>213.0</ele><time>2026-04-29T12:43:20Z</time></trkpt><trkpt lat="42.302142992711346" lon="12.003124810243943"><ele>213.0</ele><time>2026-04-29T12:43:21Z</time></trkpt><trkpt lat="42.30227024193566" lon="12.003153161284995"><ele>213.0</ele><time>2026-04-29T12:43:23Z</time></trkpt><trkpt lat="42.302379521072766" lon="12.003174810591142"><ele>213.0</ele><time>2026-04-29T12:43:25Z</time></trkpt><trkpt lat="42.302476314347906" lon="12.003197697308705"><ele>213.0</ele><time>2026-04-29T12:43:27Z</time></trkpt><trkpt lat="42.302574737920445" lon="12.00322070026617"><ele>212.83333333333334</ele><time>2026-04-29T12:43:29Z</time></trkpt><trkpt lat="42.30263849070156" lon="12.003228287252123"><ele>212.66666666666669</ele><time>2026-04-29T12:43:30Z</time></trkpt><trkpt lat="42.30275014618878" lon="12.003233914569803"><ele>212.5</ele><time>2026-04-29T12:43:32Z</time></trkpt><trkpt lat="42.30282565464895" lon="12.003258003072357"><ele>212.33333333333334</ele><time>2026-04-29T12:43:35Z</time></trkpt><trkpt lat="42.30288219656935" lon="12.003189118196346"><ele>212.16666666666669</ele><time>2026-04-29T12:44:52Z</time></trkpt><trkpt lat="42.30288369894142" lon="12.003090081663291"><ele>212.0</ele><time>2026-04-29T12:44:54Z</time></trkpt><trkpt lat="42.302890270572085" lon="12.002929687868525"><ele>212.00000000000003</ele><time>2026-04-29T12:44:56Z</time></trkpt><trkpt lat="42.30289799309734" lon="12.002843634426066"><ele>212.0</ele><time>2026-04-29T12:44:57Z</time></trkpt><trkpt lat="42.30291099775308" lon="12.002743022679297"><ele>212.0</ele><time>2026-04-29T12:44:58Z</time></trkpt><trkpt lat="42.302923477799204" lon="12.00262740565952"><ele>212.0</ele><time>2026-04-29T12:44:59Z</time></trkpt><trkpt lat="42.302935894178034" lon="12.002498075009957"><ele>212.00000000000003</ele><time>2026-04-29T12:45:00Z</time></trkpt><trkpt lat="42.302947656207245" lon="12.00235691783992"><ele>212.0</ele><time>2026-04-29T12:45:01Z</time></trkpt><trkpt lat="42.30296185307264" lon="12.002205675661548"><ele>212.0</ele><time>2026-04-29T12:45:02Z</time></trkpt><trkpt lat="42.302973098004436" lon="12.002061795673505"><ele>212.0</ele><time>2026-04-29T12:45:03Z</time></trkpt><trkpt lat="42.30300144787326" lon="12.001915047560894"><ele>212.0</ele><time>2026-04-29T12:45:04Z</time></trkpt><trkpt lat="42.30299981431751" lon="12.001757021762122"><ele>212.0</ele><time>2026-04-29T12:45:05Z</time></trkpt><trkpt lat="42.30301829993127" lon="12.001596190072634"><ele>211.75</ele><time>2026-04-29T12:45:06Z</time></trkpt><trkpt lat="42.30303298753232" lon="12.001430027169562"><ele>211.5</ele><time>2026-04-29T12:45:07Z</time></trkpt><trkpt lat="42.30304631881695" lon="12.001256778939426"><ele>211.25</ele><time>2026-04-29T12:45:08Z</time></trkpt><trkpt lat="42.30305838231629" lon="12.00108532289761"><ele>211.0</ele><time>2026-04-29T12:45:09Z</time></trkpt><trkpt lat="42.303070007057194" lon="12.000917395641942"><ele>210.75</ele><time>2026-04-29T12:45:10Z</time></trkpt><trkpt lat="42.30307741514566" lon="12.000753756235033"><ele>210.5</ele><time>2026-04-29T12:45:11Z</time></trkpt><trkpt lat="42.30306516203005" lon="12.00059155333535"><ele>210.25</ele><time>2026-04-29T12:45:12Z</time></trkpt><trkpt lat="42.3030463546313" lon="12.000435939397484"><ele>210.0</ele><time>2026-04-29T12:45:13Z</time></trkpt><trkpt lat="42.303019520462264" lon="12.00027502693414"><ele>210.0</ele><time>2026-04-29T12:45:14Z</time></trkpt><trkpt lat="42.302979951852784" lon="12.000115977391534"><ele>210.0</ele><time>2026-04-29T12:45:15Z</time></trkpt><trkpt lat="42.30294044020549" lon="11.999961495716525"><ele>210.0</ele><time>2026-04-29T12:45:16Z</time></trkpt><trkpt lat="42.30289416661804" lon="11.999797387219713"><ele>210.0</ele><time>2026-04-29T12:45:17Z</time></trkpt><trkpt lat="42.30284821945058" lon="11.999629626281193"><ele>210.0</ele><time>2026-04-29T12:45:18Z</time></trkpt><trkpt lat="42.30280177151101" lon="11.999468690889646"><ele>210.0</ele><time>2026-04-29T12:45:19Z</time></trkpt><trkpt lat="42.30274804090648" lon="11.999303497530853"><ele>210.0</ele><time>2026-04-29T12:45:20Z</time></trkpt><trkpt lat="42.302722346605854" lon="11.9991276334666"><ele>210.0</ele><time>2026-04-29T12:45:21Z</time></trkpt><trkpt lat="42.3026821733483" lon="11.998958298119799"><ele>210.0</ele><time>2026-04-29T12:45:22Z</time></trkpt><trkpt lat="42.3026468235305" lon="11.998796073835782"><ele>210.0</ele><time>2026-04-29T12:45:23Z</time></trkpt><trkpt lat="42.30261449982122" lon="11.998644536429333"><ele>210.0</ele><time>2026-04-29T12:45:24Z</time></trkpt><trkpt lat="42.30257182634677" lon="11.998502739471332"><ele>210.0</ele><time>2026-04-29T12:45:25Z</time></trkpt><trkpt lat="42.30254304323309" lon="11.99835563286423"><ele>209.75</ele><time>2026-04-29T12:45:26Z</time></trkpt><trkpt lat="42.30251092153146" lon="11.99820546586432"><ele>209.5</ele><time>2026-04-29T12:45:27Z</time></trkpt><trkpt lat="42.30249435445702" lon="11.998047491780572"><ele>209.25</ele><time>2026-04-29T12:45:28Z</time></trkpt><trkpt lat="42.302445835698656" lon="11.997882673905192"><ele>209.0</ele><time>2026-04-29T12:45:29Z</time></trkpt><trkpt lat="42.302427981308035" lon="11.99769936438462"><ele>209.0</ele><time>2026-04-29T12:45:30Z</time></trkpt><trkpt lat="42.3023842133968" lon="11.997518254702243"><ele>209.0</ele><time>2026-04-29T12:45:31Z</time></trkpt><trkpt lat="42.30234538276959" lon="11.997336468438748"><ele>209.0</ele><time>2026-04-29T12:45:32Z</time></trkpt><trkpt lat="42.3023148481243" lon="11.997147454437773"><ele>209.0</ele><time>2026-04-29T12:45:33Z</time></trkpt><trkpt lat="42.30229589003404" lon="11.996949565900584"><ele>208.33333333333334</ele><time>2026-04-29T12:45:34Z</time></trkpt><trkpt lat="42.30226217276105" lon="11.996751937331325"><ele>207.66666666666669</ele><time>2026-04-29T12:45:35Z</time></trkpt><trkpt lat="42.30220947428653" lon="11.996555146978515"><ele>207.0</ele><time>2026-04-29T12:45:36Z</time></trkpt><trkpt lat="42.30217120947106" lon="11.996347614765973"><ele>206.33333333333331</ele><time>2026-04-29T12:45:37Z</time></trkpt><trkpt lat="42.30213106606189" lon="11.996135112745002"><ele>205.66666666666666</ele><time>2026-04-29T12:45:38Z</time></trkpt><trkpt lat="42.302077502138296" lon="11.995909086915278"><ele>205.0</ele><time>2026-04-29T12:45:39Z</time></trkpt><trkpt lat="42.30201576863034" lon="11.995670960980943"><ele>205.0</ele><time>2026-04-29T12:45:40Z</time></trkpt><trkpt lat="42.30195094094809" lon="11.995438616686384"><ele>205.0</ele><time>2026-04-29T12:45:41Z</time></trkpt><trkpt lat="42.301881929443006" lon="11.995195967440498"><ele>205.0</ele><time>2026-04-29T12:45:42Z</time></trkpt><trkpt lat="42.30180885834719" lon="11.994934217871386"><ele>204.66666666666666</ele><time>2026-04-29T12:45:43Z</time></trkpt><trkpt lat="42.30172656750308" lon="11.994662730260414"><ele>204.33333333333331</ele><time>2026-04-29T12:45:44Z</time></trkpt><trkpt lat="42.301641722741586" lon="11.994383299423365"><ele>204.0</ele><time>2026-04-29T12:45:45Z</time></trkpt><trkpt lat="42.30155787075116" lon="11.994094972957786"><ele>204.0</ele><time>2026-04-29T12:45:46Z</time></trkpt><trkpt lat="42.30147302634239" lon="11.993804963864761"><ele>204.0</ele><time>2026-04-29T12:45:47Z</time></trkpt><trkpt lat="42.301387645435874" lon="11.993517877894323"><ele>202.33333333333331</ele><time>2026-04-29T12:45:48Z</time></trkpt><trkpt lat="42.301311326741" lon="11.993240021040126"><ele>200.66666666666666</ele><time>2026-04-29T12:45:49Z</time></trkpt><trkpt lat="42.301234226493754" lon="11.992978118313536"><ele>199.0</ele><time>2026-04-29T12:45:50Z</time></trkpt><trkpt lat="42.30115858006908" lon="11.992729207367235"><ele>199.0</ele><time>2026-04-29T12:45:51Z</time></trkpt><trkpt lat="42.30108286097579" lon="11.992482170886442"><ele>199.0</ele><time>2026-04-29T12:45:52Z</time></trkpt><trkpt lat="42.30101229431925" lon="11.992239803222501"><ele>199.0</ele><time>2026-04-29T12:45:53Z</time></trkpt><trkpt lat="42.30094420193222" lon="11.99201179827902"><ele>199.0</ele><time>2026-04-29T12:45:54Z</time></trkpt><trkpt lat="42.30088149799501" lon="11.991798263359103"><ele>199.0</ele><time>2026-04-29T12:45:55Z</time></trkpt><trkpt lat="42.30082410676748" lon="11.99160100994268"><ele>199.0</ele><time>2026-04-29T12:45:56Z</time></trkpt><trkpt lat="42.30076938211791" lon="11.991415866539642"><ele>199.0</ele><time>2026-04-29T12:45:57Z</time></trkpt><trkpt lat="42.30071612310203" lon="11.991241530135559"><ele>199.0</ele><time>2026-04-29T12:45:58Z</time></trkpt><trkpt lat="42.30066941998712" lon="11.991089468736021"><ele>199.0</ele><time>2026-04-29T12:45:59Z</time></trkpt><trkpt lat="42.300630867107145" lon="11.990955402939411"><ele>199.0</ele><time>2026-04-29T12:46:00Z</time></trkpt><trkpt lat="42.30059673661705" lon="11.99084109274234"><ele>198.49999999999997</ele><time>2026-04-29T12:46:01Z</time></trkpt><trkpt lat="42.300567360081786" lon="11.990743969913826"><ele>198.0</ele><time>2026-04-29T12:46:02Z</time></trkpt><trkpt lat="42.30054475861389" lon="11.99066297517688"><ele>197.5</ele><time>2026-04-29T12:46:03Z</time></trkpt><trkpt lat="42.30054828490959" lon="11.990540821605714"><ele>197.0</ele><time>2026-04-29T12:46:05Z</time></trkpt><trkpt lat="42.30065449562116" lon="11.990493078041073"><ele>196.49999999999997</ele><time>2026-04-29T12:46:07Z</time></trkpt><trkpt lat="42.30073953690084" lon="11.990466938970517"><ele>196.0</ele><time>2026-04-29T12:46:08Z</time></trkpt><trkpt lat="42.30083790117367" lon="11.990416783957327"><ele>196.0</ele><time>2026-04-29T12:46:09Z</time></trkpt><trkpt lat="42.30094659986127" lon="11.990389980107103"><ele>196.0</ele><time>2026-04-29T12:46:10Z</time></trkpt><trkpt lat="42.30107436536272" lon="11.990350224372781"><ele>196.0</ele><time>2026-04-29T12:46:11Z</time></trkpt><trkpt lat="42.30122069698371" lon="11.990307062905183"><ele>196.0</ele><time>2026-04-29T12:46:12Z</time></trkpt><trkpt lat="42.301385311760704" lon="11.990256956343892"><ele>196.66666666666666</ele><time>2026-04-29T12:46:13Z</time></trkpt><trkpt lat="42.3015595920155" lon="11.990192355537333"><ele>197.33333333333331</ele><time>2026-04-29T12:46:14Z</time></trkpt><trkpt lat="42.30173146343674" lon="11.99013371652733"><ele>198.0</ele><time>2026-04-29T12:46:15Z</time></trkpt><trkpt lat="42.30189795568171" lon="11.990078431688254"><ele>198.0</ele><time>2026-04-29T12:46:16Z</time></trkpt><trkpt lat="42.302057045780515" lon="11.990035899909344"><ele>198.0</ele><time>2026-04-29T12:46:17Z</time></trkpt><trkpt lat="42.30222133489036" lon="11.989999283949366"><ele>198.0</ele><time>2026-04-29T12:46:18Z</time></trkpt><trkpt lat="42.30237659009999" lon="11.989973657275577"><ele>198.66666666666669</ele><time>2026-04-29T12:46:19Z</time></trkpt><trkpt lat="42.30252296035191" lon="11.989958725737571"><ele>199.33333333333334</ele><time>2026-04-29T12:46:20Z</time></trkpt><trkpt lat="42.30266623230365" lon="11.989952229453127"><ele>200.0</ele><time>2026-04-29T12:46:21Z</time></trkpt><trkpt lat="42.30282747268315" lon="11.989948825481989"><ele>200.0</ele><time>2026-04-29T12:46:22Z</time></trkpt><trkpt lat="42.30300733525099" lon="11.989941147432697"><ele>200.0</ele><time>2026-04-29T12:46:23Z</time></trkpt><trkpt lat="42.30319909826155" lon="11.989935862945893"><ele>200.0</ele><time>2026-04-29T12:46:24Z</time></trkpt><trkpt lat="42.3033992094338" lon="11.989937585386288"><ele>200.33333333333334</ele><time>2026-04-29T12:46:25Z</time></trkpt><trkpt lat="42.303588948541446" lon="11.989950410192296"><ele>200.66666666666669</ele><time>2026-04-29T12:46:26Z</time></trkpt><trkpt lat="42.30377118452584" lon="11.98998364999615"><ele>201.0</ele><time>2026-04-29T12:46:27Z</time></trkpt><trkpt lat="42.30395455341904" lon="11.99003423761199"><ele>201.0</ele><time>2026-04-29T12:46:28Z</time></trkpt><trkpt lat="42.30412770167531" lon="11.990102190892909"><ele>201.0</ele><time>2026-04-29T12:46:29Z</time></trkpt><trkpt lat="42.304303991703016" lon="11.990188382050272"><ele>201.0</ele><time>2026-04-29T12:46:30Z</time></trkpt><trkpt lat="42.304483331551175" lon="11.990294796773103"><ele>201.0</ele><time>2026-04-29T12:46:31Z</time></trkpt><trkpt lat="42.304671313221014" lon="11.990410312512406"><ele>201.0</ele><time>2026-04-29T12:46:32Z</time></trkpt><trkpt lat="42.30487026487505" lon="11.990539791873674"><ele>201.0</ele><time>2026-04-29T12:46:33Z</time></trkpt><trkpt lat="42.30507130585007" lon="11.990676252755495"><ele>201.0</ele><time>2026-04-29T12:46:34Z</time></trkpt><trkpt lat="42.3052537952176" lon="11.990800620716204"><ele>201.0</ele><time>2026-04-29T12:46:35Z</time></trkpt><trkpt lat="42.30542827158057" lon="11.990917752818904"><ele>201.0</ele><time>2026-04-29T12:46:36Z</time></trkpt><trkpt lat="42.30559149785491" lon="11.99102605802334"><ele>201.66666666666669</ele><time>2026-04-29T12:46:37Z</time></trkpt><trkpt lat="42.305752269899884" lon="11.991124856834546"><ele>202.33333333333334</ele><time>2026-04-29T12:46:38Z</time></trkpt><trkpt lat="42.30592412884263" lon="11.991212076327285"><ele>203.0</ele><time>2026-04-29T12:46:39Z</time></trkpt><trkpt lat="42.30610400662416" lon="11.991291219782955"><ele>203.0</ele><time>2026-04-29T12:46:40Z</time></trkpt><trkpt lat="42.3062948824214" lon="11.991366324793647"><ele>203.0</ele><time>2026-04-29T12:46:41Z</time></trkpt><trkpt lat="42.306485290450524" lon="11.991429146650747"><ele>203.0</ele><time>2026-04-29T12:46:42Z</time></trkpt><trkpt lat="42.30665789105324" lon="11.991475077228356"><ele>202.5</ele><time>2026-04-29T12:46:43Z</time></trkpt><trkpt lat="42.306804583876925" lon="11.99150769484559"><ele>202.0</ele><time>2026-04-29T12:46:44Z</time></trkpt><trkpt lat="42.306924504962936" lon="11.99153852552373"><ele>201.5</ele><time>2026-04-29T12:46:45Z</time></trkpt><trkpt lat="42.30702235691124" lon="11.99155890129469"><ele>201.0</ele><time>2026-04-29T12:46:46Z</time></trkpt><trkpt lat="42.30710805731684" lon="11.991578140678639"><ele>201.0</ele><time>2026-04-29T12:46:47Z</time></trkpt><trkpt lat="42.30718415939761" lon="11.991614659249938"><ele>201.0</ele><time>2026-04-29T12:46:48Z</time></trkpt><trkpt lat="42.307245123236356" lon="11.991680751581953"><ele>201.0</ele><time>2026-04-29T12:46:49Z</time></trkpt><trkpt lat="42.307297053506446" lon="11.991789712182525"><ele>201.0</ele><time>2026-04-29T12:46:50Z</time></trkpt><trkpt lat="42.30735322001359" lon="11.991929744679185"><ele>201.0</ele><time>2026-04-29T12:46:51Z</time></trkpt><trkpt lat="42.307399658947624" lon="11.992076087593645"><ele>200.60000000000002</ele><time>2026-04-29T12:46:52Z</time></trkpt><trkpt lat="42.307448552201585" lon="11.992231357044433"><ele>200.2</ele><time>2026-04-29T12:46:53Z</time></trkpt><trkpt lat="42.30749083698534" lon="11.99235392855036"><ele>199.8</ele><time>2026-04-29T12:46:54Z</time></trkpt><trkpt lat="42.307525059943686" lon="11.992448803946965"><ele>199.39999999999998</ele><time>2026-04-29T12:46:55Z</time></trkpt><trkpt lat="42.30755535350593" lon="11.992527016942677"><ele>199.0</ele><time>2026-04-29T12:46:56Z</time></trkpt><trkpt lat="42.30763507284416" lon="11.992612146837063"><ele>199.0</ele><time>2026-04-29T12:46:58Z</time></trkpt><trkpt lat="42.30771108971254" lon="11.992757502006421"><ele>199.0</ele><time>2026-04-29T12:47:00Z</time></trkpt><trkpt lat="42.30774424024525" lon="11.99287858995079"><ele>199.0</ele><time>2026-04-29T12:47:01Z</time></trkpt><trkpt lat="42.3077916723416" lon="11.993020744380637"><ele>199.0</ele><time>2026-04-29T12:47:02Z</time></trkpt><trkpt lat="42.307842615325846" lon="11.993182752596836"><ele>199.66666666666666</ele><time>2026-04-29T12:47:03Z</time></trkpt><trkpt lat="42.30789840475755" lon="11.993367068511697"><ele>200.33333333333331</ele><time>2026-04-29T12:47:04Z</time></trkpt><trkpt lat="42.30795778696599" lon="11.99356306331052"><ele>201.0</ele><time>2026-04-29T12:47:05Z</time></trkpt><trkpt lat="42.30801522199201" lon="11.993758846689811"><ele>201.33333333333331</ele><time>2026-04-29T12:47:06Z</time></trkpt><trkpt lat="42.30807954498323" lon="11.99397319550404"><ele>201.66666666666666</ele><time>2026-04-29T12:47:07Z</time></trkpt><trkpt lat="42.30814682591299" lon="11.994202114499863"><ele>202.0</ele><time>2026-04-29T12:47:08Z</time></trkpt><trkpt lat="42.30821712654564" lon="11.99444066141805"><ele>202.66666666666666</ele><time>2026-04-29T12:47:09Z</time></trkpt><trkpt lat="42.30828884571893" lon="11.994699832230216"><ele>203.33333333333331</ele><time>2026-04-29T12:47:10Z</time></trkpt><trkpt lat="42.30836560234998" lon="11.994973187762499"><ele>204.0</ele><time>2026-04-29T12:47:11Z</time></trkpt><trkpt lat="42.308447161023594" lon="11.995255470483816"><ele>204.5</ele><time>2026-04-29T12:47:12Z</time></trkpt><trkpt lat="42.30853362311671" lon="11.995552624037357"><ele>205.0</ele><time>2026-04-29T12:47:13Z</time></trkpt><trkpt lat="42.30862006122712" lon="11.995850306315937"><ele>205.0</ele><time>2026-04-29T12:47:14Z</time></trkpt><trkpt lat="42.30871202446042" lon="11.996159420281407"><ele>205.0</ele><time>2026-04-29T12:47:15Z</time></trkpt><trkpt lat="42.30880594704659" lon="11.996477852987942"><ele>206.5</ele><time>2026-04-29T12:47:16Z</time></trkpt><trkpt lat="42.30889874777237" lon="11.996798511368567"><ele>208.0</ele><time>2026-04-29T12:47:17Z</time></trkpt><trkpt lat="42.30899330913833" lon="11.997117788698965"><ele>209.0</ele><time>2026-04-29T12:47:18Z</time></trkpt><trkpt lat="42.30907119944526" lon="11.997443688394847"><ele>210.0</ele><time>2026-04-29T12:47:19Z</time></trkpt><trkpt lat="42.30917718695899" lon="11.997751889988953"><ele>210.5</ele><time>2026-04-29T12:47:20Z</time></trkpt><trkpt lat="42.309265732950294" lon="11.998061436147692"><ele>211.0</ele><time>2026-04-29T12:47:21Z</time></trkpt><trkpt lat="42.30935254542798" lon="11.998367622101133"><ele>211.5</ele><time>2026-04-29T12:47:22Z</time></trkpt><trkpt lat="42.30943434061594" lon="11.998666005113597"><ele>212.0</ele><time>2026-04-29T12:47:23Z</time></trkpt><trkpt lat="42.309516643053854" lon="11.998953845278074"><ele>212.0</ele><time>2026-04-29T12:47:24Z</time></trkpt><trkpt lat="42.30959985788525" lon="11.999236626348306"><ele>212.0</ele><time>2026-04-29T12:47:25Z</time></trkpt><trkpt lat="42.309682444203844" lon="11.99951875379611"><ele>212.0</ele><time>2026-04-29T12:47:26Z</time></trkpt><trkpt lat="42.30976173917881" lon="11.999798664863851"><ele>212.0</ele><time>2026-04-29T12:47:27Z</time></trkpt><trkpt lat="42.30984079453771" lon="12.000075785352298"><ele>212.0</ele><time>2026-04-29T12:47:28Z</time></trkpt><trkpt lat="42.309920986088294" lon="12.000347595670277"><ele>212.0</ele><time>2026-04-29T12:47:29Z</time></trkpt><trkpt lat="42.31000020749796" lon="12.000622275774914"><ele>212.0</ele><time>2026-04-29T12:47:30Z</time></trkpt><trkpt lat="42.31007896364217" lon="12.000900521835767"><ele>212.0</ele><time>2026-04-29T12:47:31Z</time></trkpt><trkpt lat="42.31015707375485" lon="12.001175163435713"><ele>212.0</ele><time>2026-04-29T12:47:32Z</time></trkpt><trkpt lat="42.31023754409591" lon="12.001451031848028"><ele>212.0</ele><time>2026-04-29T12:47:33Z</time></trkpt><trkpt lat="42.31031950156352" lon="12.0017338237079"><ele>212.0</ele><time>2026-04-29T12:47:34Z</time></trkpt><trkpt lat="42.310401935486496" lon="12.002018199873268"><ele>212.0</ele><time>2026-04-29T12:47:35Z</time></trkpt><trkpt lat="42.31048437946165" lon="12.002307464469274"><ele>212.0</ele><time>2026-04-29T12:47:36Z</time></trkpt><trkpt lat="42.310567418404624" lon="12.002599523560932"><ele>212.0</ele><time>2026-04-29T12:47:37Z</time></trkpt><trkpt lat="42.31065058147797" lon="12.002896892635551"><ele>212.0</ele><time>2026-04-29T12:47:38Z</time></trkpt><trkpt lat="42.31073732614564" lon="12.003195813893363"><ele>211.0</ele><time>2026-04-29T12:47:39Z</time></trkpt><trkpt lat="42.31082194336097" lon="12.003491006233087"><ele>210.0</ele><time>2026-04-29T12:47:40Z</time></trkpt><trkpt lat="42.31090064798873" lon="12.003766679966969"><ele>210.0</ele><time>2026-04-29T12:47:41Z</time></trkpt><trkpt lat="42.31097723747316" lon="12.004028971450582"><ele>210.0</ele><time>2026-04-29T12:47:42Z</time></trkpt><trkpt lat="42.31105287386041" lon="12.004289897222565"><ele>210.0</ele><time>2026-04-29T12:47:43Z</time></trkpt><trkpt lat="42.31112167353516" lon="12.004560312226605"><ele>208.33333333333331</ele><time>2026-04-29T12:47:44Z</time></trkpt><trkpt lat="42.311186258647325" lon="12.004833578351548"><ele>206.66666666666666</ele><time>2026-04-29T12:47:45Z</time></trkpt><trkpt lat="42.31124208158684" lon="12.005085472715972"><ele>205.0</ele><time>2026-04-29T12:47:46Z</time></trkpt><trkpt lat="42.31128044922011" lon="12.005342685377412"><ele>205.0</ele><time>2026-04-29T12:47:47Z</time></trkpt><trkpt lat="42.31130779800138" lon="12.005610083246824"><ele>205.0</ele><time>2026-04-29T12:47:48Z</time></trkpt><trkpt lat="42.311323859565675" lon="12.00588653371957"><ele>205.0</ele><time>2026-04-29T12:47:49Z</time></trkpt><trkpt lat="42.31132801840769" lon="12.006168898823166"><ele>205.66666666666666</ele><time>2026-04-29T12:47:50Z</time></trkpt><trkpt lat="42.31133626973024" lon="12.006451432321269"><ele>206.33333333333331</ele><time>2026-04-29T12:47:51Z</time></trkpt><trkpt lat="42.3113429795517" lon="12.00673970065007"><ele>207.0</ele><time>2026-04-29T12:47:52Z</time></trkpt><trkpt lat="42.31135023042621" lon="12.00703319402958"><ele>207.5</ele><time>2026-04-29T12:47:53Z</time></trkpt><trkpt lat="42.311360366571" lon="12.007335489503753"><ele>208.0</ele><time>2026-04-29T12:47:54Z</time></trkpt><trkpt lat="42.31137013591332" lon="12.00764259742231"><ele>207.0</ele><time>2026-04-29T12:47:55Z</time></trkpt><trkpt lat="42.31138008695635" lon="12.007951326248184"><ele>206.0</ele><time>2026-04-29T12:47:56Z</time></trkpt><trkpt lat="42.31138883716655" lon="12.0082636109087"><ele>207.0</ele><time>2026-04-29T12:47:57Z</time></trkpt><trkpt lat="42.31139668867031" lon="12.008567411183344"><ele>208.0</ele><time>2026-04-29T12:47:58Z</time></trkpt><trkpt lat="42.31140407727262" lon="12.008872787723915"><ele>210.0</ele><time>2026-04-29T12:47:59Z</time></trkpt><trkpt lat="42.31141512705179" lon="12.009164867998521"><ele>212.0</ele><time>2026-04-29T12:48:00Z</time></trkpt><trkpt lat="42.3114240079789" lon="12.009459633966983"><ele>214.0</ele><time>2026-04-29T12:48:01Z</time></trkpt><trkpt lat="42.311431519004636" lon="12.009751748517056"><ele>214.0</ele><time>2026-04-29T12:48:02Z</time></trkpt><trkpt lat="42.31143577865941" lon="12.010044453316622"><ele>214.0</ele><time>2026-04-29T12:48:03Z</time></trkpt><trkpt lat="42.311439894062104" lon="12.010335079797711"><ele>214.0</ele><time>2026-04-29T12:48:04Z</time></trkpt><trkpt lat="42.311448232667956" lon="12.010629305472774"><ele>214.66666666666666</ele><time>2026-04-29T12:48:05Z</time></trkpt><trkpt lat="42.31145859749388" lon="12.010928730888855"><ele>215.33333333333331</ele><time>2026-04-29T12:48:06Z</time></trkpt><trkpt lat="42.31146502862006" lon="12.011233313488855"><ele>216.0</ele><time>2026-04-29T12:48:07Z</time></trkpt><trkpt lat="42.31146925170938" lon="12.01154270553112"><ele>217.0</ele><time>2026-04-29T12:48:08Z</time></trkpt><trkpt lat="42.31147680084853" lon="12.011852229993613"><ele>218.0</ele><time>2026-04-29T12:48:09Z</time></trkpt><trkpt lat="42.31148613384374" lon="12.012163400496359"><ele>218.0</ele><time>2026-04-29T12:48:10Z</time></trkpt><trkpt lat="42.311495979413934" lon="12.012459135797489"><ele>218.0</ele><time>2026-04-29T12:48:11Z</time></trkpt><trkpt lat="42.311503827835814" lon="12.012735123142301"><ele>218.0</ele><time>2026-04-29T12:48:12Z</time></trkpt><trkpt lat="42.31151060438533" lon="12.01301646277613"><ele>217.5</ele><time>2026-04-29T12:48:13Z</time></trkpt><trkpt lat="42.3115187931665" lon="12.01331675135431"><ele>217.0</ele><time>2026-04-29T12:48:14Z</time></trkpt><trkpt lat="42.31152710506127" lon="12.013626874920567"><ele>219.0</ele><time>2026-04-29T12:48:15Z</time></trkpt><trkpt lat="42.31153377292145" lon="12.013936981547808"><ele>221.0</ele><time>2026-04-29T12:48:16Z</time></trkpt><trkpt lat="42.31153930088349" lon="12.014257971328009"><ele>221.5</ele><time>2026-04-29T12:48:17Z</time></trkpt><trkpt lat="42.31154926585944" lon="12.01458375544335"><ele>222.0</ele><time>2026-04-29T12:48:18Z</time></trkpt><trkpt lat="42.31156021567152" lon="12.014909733419238"><ele>223.0</ele><time>2026-04-29T12:48:19Z</time></trkpt><trkpt lat="42.31157011930759" lon="12.015238186766902"><ele>224.0</ele><time>2026-04-29T12:48:20Z</time></trkpt><trkpt lat="42.311576726989045" lon="12.01557051002509"><ele>224.5</ele><time>2026-04-29T12:48:21Z</time></trkpt><trkpt lat="42.31158429710032" lon="12.015905953290305"><ele>225.0</ele><time>2026-04-29T12:48:22Z</time></trkpt><trkpt lat="42.31159250608368" lon="12.016236936508687"><ele>225.0</ele><time>2026-04-29T12:48:23Z</time></trkpt><trkpt lat="42.311599258673986" lon="12.016562700458637"><ele>225.0</ele><time>2026-04-29T12:48:24Z</time></trkpt><trkpt lat="42.311604741336815" lon="12.01688111579193"><ele>226.5</ele><time>2026-04-29T12:48:25Z</time></trkpt><trkpt lat="42.31161642000912" lon="12.017197043545327"><ele>228.0</ele><time>2026-04-29T12:48:26Z</time></trkpt><trkpt lat="42.31163011186733" lon="12.017519026042669"><ele>229.0</ele><time>2026-04-29T12:48:27Z</time></trkpt><trkpt lat="42.31163769067468" lon="12.017824041801976"><ele>230.0</ele><time>2026-04-29T12:48:28Z</time></trkpt><trkpt lat="42.31164296287886" lon="12.01813634815003"><ele>230.66666666666669</ele><time>2026-04-29T12:48:29Z</time></trkpt><trkpt lat="42.31165427775997" lon="12.018446616009763"><ele>231.33333333333331</ele><time>2026-04-29T12:48:30Z</time></trkpt><trkpt lat="42.311667366466544" lon="12.018734177597414"><ele>232.0</ele><time>2026-04-29T12:48:31Z</time></trkpt><trkpt lat="42.31167094743455" lon="12.019001949000696"><ele>232.33333333333331</ele><time>2026-04-29T12:48:32Z</time></trkpt><trkpt lat="42.31166237823083" lon="12.019268911758763"><ele>232.66666666666669</ele><time>2026-04-29T12:48:33Z</time></trkpt><trkpt lat="42.31164446554755" lon="12.019545710679846"><ele>233.0</ele><time>2026-04-29T12:48:34Z</time></trkpt><trkpt lat="42.31162390506523" lon="12.019833657407672"><ele>233.0</ele><time>2026-04-29T12:48:35Z</time></trkpt><trkpt lat="42.31159827949494" lon="12.02012960001543"><ele>233.0</ele><time>2026-04-29T12:48:36Z</time></trkpt><trkpt lat="42.31157184090312" lon="12.020429803269804"><ele>233.0</ele><time>2026-04-29T12:48:37Z</time></trkpt><trkpt lat="42.311543436422426" lon="12.020735430202091"><ele>233.5</ele><time>2026-04-29T12:48:38Z</time></trkpt><trkpt lat="42.311515125919136" lon="12.021043535051097"><ele>234.0</ele><time>2026-04-29T12:48:39Z</time></trkpt><trkpt lat="42.31148482796248" lon="12.02135324905151"><ele>234.0</ele><time>2026-04-29T12:48:40Z</time></trkpt><trkpt lat="42.31145552880769" lon="12.021669019475585"><ele>234.0</ele><time>2026-04-29T12:48:41Z</time></trkpt><trkpt lat="42.31142638287199" lon="12.021989259623938"><ele>234.0</ele><time>2026-04-29T12:48:42Z</time></trkpt><trkpt lat="42.311393484171546" lon="12.022317809298793"><ele>234.0</ele><time>2026-04-29T12:48:43Z</time></trkpt><trkpt lat="42.31136296713074" lon="12.022649440921635"><ele>234.0</ele><time>2026-04-29T12:48:44Z</time></trkpt><trkpt lat="42.3113315804913" lon="12.022983270072684"><ele>234.0</ele><time>2026-04-29T12:48:45Z</time></trkpt><trkpt lat="42.31130039682007" lon="12.023318005066923"><ele>235.0</ele><time>2026-04-29T12:48:46Z</time></trkpt><trkpt lat="42.311270931475306" lon="12.023650623292456"><ele>236.0</ele><time>2026-04-29T12:48:47Z</time></trkpt><trkpt lat="42.31124135786804" lon="12.02397841895793"><ele>236.5</ele><time>2026-04-29T12:48:48Z</time></trkpt><trkpt lat="42.31121279624446" lon="12.02430189851889"><ele>237.0</ele><time>2026-04-29T12:48:49Z</time></trkpt><trkpt lat="42.31118607179696" lon="12.024625964773255"><ele>237.0</ele><time>2026-04-29T12:48:50Z</time></trkpt><trkpt lat="42.31116159923931" lon="12.024949057835691"><ele>237.0</ele><time>2026-04-29T12:48:51Z</time></trkpt><trkpt lat="42.31113590371272" lon="12.025271958987956"><ele>237.0</ele><time>2026-04-29T12:48:52Z</time></trkpt><trkpt lat="42.31110729269627" lon="12.025593643256826"><ele>237.0</ele><time>2026-04-29T12:48:53Z</time></trkpt><trkpt lat="42.31107890584426" lon="12.025918251326408"><ele>237.5</ele><time>2026-04-29T12:48:54Z</time></trkpt><trkpt lat="42.31104813409876" lon="12.026245076747555"><ele>238.0</ele><time>2026-04-29T12:48:55Z</time></trkpt><trkpt lat="42.311016089616395" lon="12.02657486131314"><ele>238.5</ele><time>2026-04-29T12:48:56Z</time></trkpt><trkpt lat="42.31098474299627" lon="12.026905565153589"><ele>239.0</ele><time>2026-04-29T12:48:57Z</time></trkpt><trkpt lat="42.31095560530914" lon="12.027236866182445"><ele>240.5</ele><time>2026-04-29T12:48:58Z</time></trkpt><trkpt lat="42.310928517624546" lon="12.027568163589642"><ele>242.0</ele><time>2026-04-29T12:48:59Z</time></trkpt><trkpt lat="42.31089985846042" lon="12.027899293699406"><ele>242.0</ele><time>2026-04-29T12:49:00Z</time></trkpt><trkpt lat="42.31087090005009" lon="12.02821599125814"><ele>242.0</ele><time>2026-04-29T12:49:01Z</time></trkpt><trkpt lat="42.31084375057316" lon="12.028521664233343"><ele>242.5</ele><time>2026-04-29T12:49:02Z</time></trkpt><trkpt lat="42.31081711796226" lon="12.028832404149632"><ele>243.0</ele><time>2026-04-29T12:49:03Z</time></trkpt><trkpt lat="42.31078808717708" lon="12.029143839986874"><ele>244.0</ele><time>2026-04-29T12:49:04Z</time></trkpt><trkpt lat="42.31075872282769" lon="12.02943891039348"><ele>245.0</ele><time>2026-04-29T12:49:05Z</time></trkpt><trkpt lat="42.31073111274655" lon="12.029716360140982"><ele>246.0</ele><time>2026-04-29T12:49:06Z</time></trkpt><trkpt lat="42.31070733731086" lon="12.029983305431175"><ele>246.33333333333331</ele><time>2026-04-29T12:49:07Z</time></trkpt><trkpt lat="42.310688619368165" lon="12.030235580929915"><ele>246.66666666666666</ele><time>2026-04-29T12:49:08Z</time></trkpt><trkpt lat="42.310669069722024" lon="12.030470887231733"><ele>247.0</ele><time>2026-04-29T12:49:09Z</time></trkpt><trkpt lat="42.31064769698285" lon="12.030687783908363"><ele>247.25</ele><time>2026-04-29T12:49:10Z</time></trkpt><trkpt lat="42.31063959223872" lon="12.030895392026942"><ele>247.5</ele><time>2026-04-29T12:49:11Z</time></trkpt><trkpt lat="42.310653208039454" lon="12.031091616961808"><ele>247.75</ele><time>2026-04-29T12:49:12Z</time></trkpt><trkpt lat="42.3106962312323" lon="12.031277263654127"><ele>248.0</ele><time>2026-04-29T12:49:13Z</time></trkpt><trkpt lat="42.310773901592285" lon="12.03145254376352"><ele>248.0</ele><time>2026-04-29T12:49:14Z</time></trkpt><trkpt lat="42.310880692658394" lon="12.031606414691549"><ele>248.0</ele><time>2026-04-29T12:49:15Z</time></trkpt><trkpt lat="42.31101402459376" lon="12.031743674307757"><ele>248.0</ele><time>2026-04-29T12:49:16Z</time></trkpt><trkpt lat="42.3111642613591" lon="12.03188166723468"><ele>247.66666666666669</ele><time>2026-04-29T12:49:17Z</time></trkpt><trkpt lat="42.31130808194483" lon="12.032018874186148"><ele>247.33333333333331</ele><time>2026-04-29T12:49:18Z</time></trkpt><trkpt lat="42.31143028395219" lon="12.032150834800772"><ele>247.0</ele><time>2026-04-29T12:49:19Z</time></trkpt><trkpt lat="42.31152763420564" lon="12.032285080932702"><ele>247.0</ele><time>2026-04-29T12:49:20Z</time></trkpt><trkpt lat="42.31161654978612" lon="12.032447784763741"><ele>247.0</ele><time>2026-04-29T12:49:21Z</time></trkpt><trkpt lat="42.311694019807774" lon="12.032643636276859"><ele>247.0</ele><time>2026-04-29T12:49:22Z</time></trkpt><trkpt lat="42.31176481100931" lon="12.032877672241982"><ele>249.0</ele><time>2026-04-29T12:49:23Z</time></trkpt><trkpt lat="42.31184140890041" lon="12.033142541020672"><ele>251.0</ele><time>2026-04-29T12:49:24Z</time></trkpt><trkpt lat="42.31191658700365" lon="12.033431922401075"><ele>253.0</ele><time>2026-04-29T12:49:25Z</time></trkpt><trkpt lat="42.311995967542636" lon="12.033737225467775"><ele>254.5</ele><time>2026-04-29T12:49:26Z</time></trkpt><trkpt lat="42.31207853122336" lon="12.034058369613659"><ele>256.0</ele><time>2026-04-29T12:49:27Z</time></trkpt><trkpt lat="42.312153946030165" lon="12.034366360729415"><ele>257.66666666666663</ele><time>2026-04-29T12:49:28Z</time></trkpt><trkpt lat="42.31221716785983" lon="12.034643780604608"><ele>259.3333333333333</ele><time>2026-04-29T12:49:29Z</time></trkpt><trkpt lat="42.312276353450656" lon="12.034896250884215"><ele>261.0</ele><time>2026-04-29T12:49:30Z</time></trkpt><trkpt lat="42.312322973022425" lon="12.035107061296852"><ele>258.25</ele><time>2026-04-29T12:49:31Z</time></trkpt><trkpt lat="42.31236467939538" lon="12.035315347627327"><ele>255.5</ele><time>2026-04-29T12:49:32Z</time></trkpt><trkpt lat="42.31240504322145" lon="12.035506976424923"><ele>252.75</ele><time>2026-04-29T12:49:33Z</time></trkpt><trkpt lat="42.31243225720772" lon="12.035635694239309"><ele>250.0</ele><time>2026-04-29T12:49:34Z</time></trkpt><trkpt lat="42.312458591458636" lon="12.035744731116559"><ele>250.4</ele><time>2026-04-29T12:49:35Z</time></trkpt><trkpt lat="42.3124885105965" lon="12.035855067173333"><ele>250.8</ele><time>2026-04-29T12:49:36Z</time></trkpt><trkpt lat="42.31252673769867" lon="12.035974799734188"><ele>251.2</ele><time>2026-04-29T12:49:37Z</time></trkpt><trkpt lat="42.31258645714847" lon="12.03610969543435"><ele>251.6</ele><time>2026-04-29T12:49:38Z</time></trkpt><trkpt lat="42.31266890519038" lon="12.036270506746009"><ele>252.0</ele><time>2026-04-29T12:49:39Z</time></trkpt><trkpt lat="42.31276973580347" lon="12.036442893574204"><ele>251.0</ele><time>2026-04-29T12:49:40Z</time></trkpt><trkpt lat="42.31288761470172" lon="12.036640325367022"><ele>250.0</ele><time>2026-04-29T12:49:41Z</time></trkpt><trkpt lat="42.312999101144534" lon="12.03684511528686"><ele>249.0</ele><time>2026-04-29T12:49:42Z</time></trkpt><trkpt lat="42.313101596721836" lon="12.037023694939862"><ele>249.0</ele><time>2026-04-29T12:49:43Z</time></trkpt><trkpt lat="42.31320840410073" lon="12.03718846940888"><ele>249.0</ele><time>2026-04-29T12:49:44Z</time></trkpt><trkpt lat="42.31331312252041" lon="12.037341995262864"><ele>249.0</ele><time>2026-04-29T12:49:45Z</time></trkpt><trkpt lat="42.31340793478457" lon="12.037495671784807"><ele>251.0</ele><time>2026-04-29T12:49:46Z</time></trkpt><trkpt lat="42.3135170050765" lon="12.037609180931625"><ele>253.0</ele><time>2026-04-29T12:49:47Z</time></trkpt><trkpt lat="42.31366093765684" lon="12.037698153407996"><ele>255.0</ele><time>2026-04-29T12:49:48Z</time></trkpt><trkpt lat="42.313770710171035" lon="12.03773169040015"><ele>257.0</ele><time>2026-04-29T12:49:49Z</time></trkpt><trkpt lat="42.31388580275938" lon="12.037756657532382"><ele>255.6</ele><time>2026-04-29T12:49:50Z</time></trkpt><trkpt lat="42.31398831706148" lon="12.03776509473484"><ele>254.2</ele><time>2026-04-29T12:49:51Z</time></trkpt><trkpt lat="42.314089994524274" lon="12.037779744694866"><ele>252.8</ele><time>2026-04-29T12:49:52Z</time></trkpt><trkpt lat="42.314183410441245" lon="12.037833845867048"><ele>251.4</ele><time>2026-04-29T12:49:53Z</time></trkpt><trkpt lat="42.314248164016036" lon="12.037911516862307"><ele>250.0</ele><time>2026-04-29T12:49:54Z</time></trkpt><trkpt lat="42.314283933669785" lon="12.038027589447774"><ele>250.0</ele><time>2026-04-29T12:49:55Z</time></trkpt><trkpt lat="42.31429325880695" lon="12.038164663108107"><ele>250.0</ele><time>2026-04-29T12:49:56Z</time></trkpt><trkpt lat="42.314279126756446" lon="12.038319451338305"><ele>250.0</ele><time>2026-04-29T12:49:57Z</time></trkpt><trkpt lat="42.314270879846596" lon="12.038478279544558"><ele>250.0</ele><time>2026-04-29T12:49:58Z</time></trkpt><trkpt lat="42.314296881819395" lon="12.038618846004663"><ele>250.0</ele><time>2026-04-29T12:49:59Z</time></trkpt><trkpt lat="42.314347523037554" lon="12.03875324473508"><ele>250.8</ele><time>2026-04-29T12:50:00Z</time></trkpt><trkpt lat="42.31437538363043" lon="12.038876501802845"><ele>251.6</ele><time>2026-04-29T12:50:01Z</time></trkpt><trkpt lat="42.31440422078593" lon="12.038969038080637"><ele>252.39999999999998</ele><time>2026-04-29T12:50:02Z</time></trkpt><trkpt lat="42.31433134519793" lon="12.039099427382391"><ele>253.2</ele><time>2026-04-29T12:50:03Z</time></trkpt><trkpt lat="42.31430526675957" lon="12.039249384984606"><ele>254.0</ele><time>2026-04-29T12:50:04Z</time></trkpt><trkpt lat="42.31427871842615" lon="12.039422089759718"><ele>255.33333333333334</ele><time>2026-04-29T12:50:05Z</time></trkpt><trkpt lat="42.31424593278303" lon="12.039623327989199"><ele>256.6666666666667</ele><time>2026-04-29T12:50:06Z</time></trkpt><trkpt lat="42.31421130712175" lon="12.0398298265657"><ele>258.0</ele><time>2026-04-29T12:50:07Z</time></trkpt><trkpt lat="42.31417134134593" lon="12.04003386707923"><ele>258.6666666666667</ele><time>2026-04-29T12:50:08Z</time></trkpt><trkpt lat="42.31412577711304" lon="12.04025877416739"><ele>259.33333333333337</ele><time>2026-04-29T12:50:09Z</time></trkpt><trkpt lat="42.31409231845668" lon="12.040495831250436"><ele>260.0</ele><time>2026-04-29T12:50:10Z</time></trkpt><trkpt lat="42.31404690246714" lon="12.040737187346028"><ele>261.33333333333337</ele><time>2026-04-29T12:50:11Z</time></trkpt><trkpt lat="42.31399022689437" lon="12.040981983702856"><ele>262.6666666666667</ele><time>2026-04-29T12:50:12Z</time></trkpt><trkpt lat="42.313942272055385" lon="12.041221402381117"><ele>264.0</ele><time>2026-04-29T12:50:13Z</time></trkpt><trkpt lat="42.3138871341995" lon="12.041456022204262"><ele>265.0</ele><time>2026-04-29T12:50:14Z</time></trkpt><trkpt lat="42.313832085890674" lon="12.041684195255604"><ele>266.0</ele><time>2026-04-29T12:50:15Z</time></trkpt><trkpt lat="42.313778038033426" lon="12.041901241690137"><ele>267.0</ele><time>2026-04-29T12:50:16Z</time></trkpt><trkpt lat="42.313723050884796" lon="12.042110016152337"><ele>267.0</ele><time>2026-04-29T12:50:17Z</time></trkpt><trkpt lat="42.313672274930305" lon="12.042298524826712"><ele>267.0</ele><time>2026-04-29T12:50:18Z</time></trkpt><trkpt lat="42.313628101446135" lon="12.042466203478435"><ele>267.0</ele><time>2026-04-29T12:50:19Z</time></trkpt><trkpt lat="42.31358533495825" lon="12.04262320463379"><ele>267.0</ele><time>2026-04-29T12:50:20Z</time></trkpt><trkpt lat="42.31353869005543" lon="12.042776131202725"><ele>268.25</ele><time>2026-04-29T12:50:21Z</time></trkpt><trkpt lat="42.31348830845073" lon="12.04292372114833"><ele>269.5</ele><time>2026-04-29T12:50:22Z</time></trkpt><trkpt lat="42.313432393033885" lon="12.043069614344368"><ele>270.75</ele><time>2026-04-29T12:50:23Z</time></trkpt><trkpt lat="42.313374493868736" lon="12.043215659533017"><ele>272.0</ele><time>2026-04-29T12:50:24Z</time></trkpt><trkpt lat="42.31331854281993" lon="12.043365588676256"><ele>273.5</ele><time>2026-04-29T12:50:25Z</time></trkpt><trkpt lat="42.3132627445719" lon="12.043517136841281"><ele>275.0</ele><time>2026-04-29T12:50:26Z</time></trkpt><trkpt lat="42.31320230517417" lon="12.043670284670204"><ele>276.5</ele><time>2026-04-29T12:50:27Z</time></trkpt><trkpt lat="42.313146017041525" lon="12.043828419937462"><ele>278.0</ele><time>2026-04-29T12:50:28Z</time></trkpt><trkpt lat="42.31309181072536" lon="12.043988776825588"><ele>276.75</ele><time>2026-04-29T12:50:29Z</time></trkpt><trkpt lat="42.31303551339784" lon="12.044141471020943"><ele>275.5</ele><time>2026-04-29T12:50:30Z</time></trkpt><trkpt lat="42.312978000048936" lon="12.044280055843549"><ele>274.25</ele><time>2026-04-29T12:50:31Z</time></trkpt><trkpt lat="42.3129164489252" lon="12.044409843309975"><ele>273.0</ele><time>2026-04-29T12:50:32Z</time></trkpt><trkpt lat="42.3128433624929" lon="12.044539560159222"><ele>273.0</ele><time>2026-04-29T12:50:33Z</time></trkpt><trkpt lat="42.31276382199671" lon="12.044661213113429"><ele>273.0</ele><time>2026-04-29T12:50:34Z</time></trkpt><trkpt lat="42.312680087001745" lon="12.04477643041506"><ele>273.0</ele><time>2026-04-29T12:50:35Z</time></trkpt><trkpt lat="42.31258419106379" lon="12.044874931968758"><ele>273.0</ele><time>2026-04-29T12:50:36Z</time></trkpt><trkpt lat="42.31249677299345" lon="12.044990111176718"><ele>273.0</ele><time>2026-04-29T12:50:37Z</time></trkpt><trkpt lat="42.31240856543714" lon="12.045106387797233"><ele>273.0</ele><time>2026-04-29T12:50:38Z</time></trkpt><trkpt lat="42.31233262084363" lon="12.045241353004537"><ele>273.0</ele><time>2026-04-29T12:50:39Z</time></trkpt><trkpt lat="42.31224018409403" lon="12.045361637482827"><ele>273.0</ele><time>2026-04-29T12:50:40Z</time></trkpt><trkpt lat="42.312147708356164" lon="12.045486158662648"><ele>273.0</ele><time>2026-04-29T12:50:41Z</time></trkpt><trkpt lat="42.312055807325876" lon="12.045618215844717"><ele>273.0</ele><time>2026-04-29T12:50:42Z</time></trkpt><trkpt lat="42.311960478006505" lon="12.045747841654174"><ele>273.0</ele><time>2026-04-29T12:50:43Z</time></trkpt><trkpt lat="42.311849790489276" lon="12.045869448912226"><ele>273.0</ele><time>2026-04-29T12:50:44Z</time></trkpt><trkpt lat="42.31173182850208" lon="12.045989351270011"><ele>273.75</ele><time>2026-04-29T12:50:45Z</time></trkpt><trkpt lat="42.3116158743093" lon="12.0461105656139"><ele>274.5</ele><time>2026-04-29T12:50:46Z</time></trkpt><trkpt lat="42.31150221217361" lon="12.04623444367815"><ele>275.25</ele><time>2026-04-29T12:50:47Z</time></trkpt><trkpt lat="42.31139135043605" lon="12.046364857719151"><ele>276.0</ele><time>2026-04-29T12:50:48Z</time></trkpt><trkpt lat="42.31128043420041" lon="12.046498511864476"><ele>280.3333333333333</ele><time>2026-04-29T12:50:49Z</time></trkpt><trkpt lat="42.31117121483723" lon="12.046637319730038"><ele>284.66666666666663</ele><time>2026-04-29T12:50:50Z</time></trkpt><trkpt lat="42.31106492682497" lon="12.046783785030247"><ele>289.0</ele><time>2026-04-29T12:50:51Z</time></trkpt><trkpt lat="42.31096134143924" lon="12.046933837291025"><ele>289.0</ele><time>2026-04-29T12:50:52Z</time></trkpt><trkpt lat="42.31086635535088" lon="12.047081375757319"><ele>289.0</ele><time>2026-04-29T12:50:53Z</time></trkpt><trkpt lat="42.31077533030809" lon="12.04721586515953"><ele>289.0</ele><time>2026-04-29T12:50:54Z</time></trkpt><trkpt lat="42.31068865182563" lon="12.04734858987256"><ele>289.0</ele><time>2026-04-29T12:50:55Z</time></trkpt><trkpt lat="42.310602695445056" lon="12.047477058063743"><ele>291.75</ele><time>2026-04-29T12:50:56Z</time></trkpt><trkpt lat="42.310513405809616" lon="12.047614149397445"><ele>294.5</ele><time>2026-04-29T12:50:57Z</time></trkpt><trkpt lat="42.31042752598835" lon="12.047749464218928"><ele>297.25</ele><time>2026-04-29T12:50:58Z</time></trkpt><trkpt lat="42.31034026760592" lon="12.0478817405769"><ele>300.0</ele><time>2026-04-29T12:50:59Z</time></trkpt><trkpt lat="42.310254345404246" lon="12.048016653049098"><ele>300.0</ele><time>2026-04-29T12:51:00Z</time></trkpt><trkpt lat="42.31017056487785" lon="12.048155346331841"><ele>300.0</ele><time>2026-04-29T12:51:01Z</time></trkpt><trkpt lat="42.31008787041181" lon="12.048293741684438"><ele>300.0</ele><time>2026-04-29T12:51:02Z</time></trkpt><trkpt lat="42.31000671798808" lon="12.048434960669132"><ele>300.0</ele><time>2026-04-29T12:51:03Z</time></trkpt><trkpt lat="42.30993616757085" lon="12.048584430056946"><ele>302.0</ele><time>2026-04-29T12:51:04Z</time></trkpt><trkpt lat="42.30985996162439" lon="12.048728208520082"><ele>304.0</ele><time>2026-04-29T12:51:05Z</time></trkpt><trkpt lat="42.30977688793401" lon="12.048865486433655"><ele>306.0</ele><time>2026-04-29T12:51:06Z</time></trkpt><trkpt lat="42.30970445659164" lon="12.04901386458292"><ele>308.0</ele><time>2026-04-29T12:51:07Z</time></trkpt><trkpt lat="42.309634117456525" lon="12.049164817515365"><ele>308.75</ele><time>2026-04-29T12:51:08Z</time></trkpt><trkpt lat="42.30955290152802" lon="12.049306949712538"><ele>309.5</ele><time>2026-04-29T12:51:09Z</time></trkpt><trkpt lat="42.309472624443984" lon="12.049451718797918"><ele>310.25</ele><time>2026-04-29T12:51:10Z</time></trkpt><trkpt lat="42.30940186146788" lon="12.049604511621697"><ele>311.0</ele><time>2026-04-29T12:51:11Z</time></trkpt><trkpt lat="42.30932476271598" lon="12.04975509138225"><ele>311.0</ele><time>2026-04-29T12:51:12Z</time></trkpt><trkpt lat="42.309238752518546" lon="12.049897862313596"><ele>311.0</ele><time>2026-04-29T12:51:13Z</time></trkpt><trkpt lat="42.309161420738015" lon="12.050048231002457"><ele>311.0</ele><time>2026-04-29T12:51:14Z</time></trkpt><trkpt lat="42.30908723057553" lon="12.050183415592494"><ele>311.0</ele><time>2026-04-29T12:51:15Z</time></trkpt><trkpt lat="42.30899262830857" lon="12.050311494298642"><ele>311.6666666666667</ele><time>2026-04-29T12:51:16Z</time></trkpt><trkpt lat="42.30888299571405" lon="12.050448475015148"><ele>312.3333333333333</ele><time>2026-04-29T12:51:17Z</time></trkpt><trkpt lat="42.30876681335271" lon="12.050582600334046"><ele>313.0</ele><time>2026-04-29T12:51:18Z</time></trkpt><trkpt lat="42.3086433219941" lon="12.050719515295873"><ele>316.0</ele><time>2026-04-29T12:51:19Z</time></trkpt><trkpt lat="42.308519252092275" lon="12.05085367085447"><ele>319.0</ele><time>2026-04-29T12:51:20Z</time></trkpt><trkpt lat="42.308403928300145" lon="12.050998820050625"><ele>322.0</ele><time>2026-04-29T12:51:21Z</time></trkpt><trkpt lat="42.30829673972003" lon="12.0511633532931"><ele>322.0</ele><time>2026-04-29T12:51:22Z</time></trkpt><trkpt lat="42.30819563866148" lon="12.051345279173288"><ele>322.0</ele><time>2026-04-29T12:51:23Z</time></trkpt><trkpt lat="42.308105265970795" lon="12.051529025050176"><ele>322.0</ele><time>2026-04-29T12:51:24Z</time></trkpt><trkpt lat="42.30802719266861" lon="12.051700438674414"><ele>320.3333333333333</ele><time>2026-04-29T12:51:25Z</time></trkpt><trkpt lat="42.307949021902616" lon="12.051873303382994"><ele>318.6666666666667</ele><time>2026-04-29T12:51:26Z</time></trkpt><trkpt lat="42.30787843647641" lon="12.052065816588494"><ele>317.0</ele><time>2026-04-29T12:51:27Z</time></trkpt><trkpt lat="42.30781051219109" lon="12.05227992061887"><ele>318.0</ele><time>2026-04-29T12:51:28Z</time></trkpt><trkpt lat="42.307741478682466" lon="12.052506052236103"><ele>319.0</ele><time>2026-04-29T12:51:29Z</time></trkpt><trkpt lat="42.30767059325091" lon="12.052737030116667"><ele>320.0</ele><time>2026-04-29T12:51:30Z</time></trkpt><trkpt lat="42.30759792698696" lon="12.052962008098401"><ele>320.0</ele><time>2026-04-29T12:51:31Z</time></trkpt><trkpt lat="42.30752010407851" lon="12.053187043357259"><ele>320.0</ele><time>2026-04-29T12:51:32Z</time></trkpt><trkpt lat="42.30744249064728" lon="12.053397670793853"><ele>320.0</ele><time>2026-04-29T12:51:33Z</time></trkpt><trkpt lat="42.307373143336726" lon="12.053594445732303"><ele>320.5</ele><time>2026-04-29T12:51:34Z</time></trkpt><trkpt lat="42.30729986154823" lon="12.05378399163473"><ele>321.0</ele><time>2026-04-29T12:51:35Z</time></trkpt><trkpt lat="42.30723091383209" lon="12.053958265265093"><ele>321.5</ele><time>2026-04-29T12:51:36Z</time></trkpt><trkpt lat="42.30716566296996" lon="12.054114156607938"><ele>322.0</ele><time>2026-04-29T12:51:37Z</time></trkpt><trkpt lat="42.30710075931329" lon="12.054254389213737"><ele>324.5</ele><time>2026-04-29T12:51:38Z</time></trkpt><trkpt lat="42.307050651949595" lon="12.054424293451106"><ele>327.0</ele><time>2026-04-29T12:51:39Z</time></trkpt><trkpt lat="42.30701190413097" lon="12.054604277413384"><ele>329.5</ele><time>2026-04-29T12:51:40Z</time></trkpt><trkpt lat="42.30700471250851" lon="12.054796634730332"><ele>332.0</ele><time>2026-04-29T12:51:41Z</time></trkpt><trkpt lat="42.30698558541301" lon="12.054992935636918"><ele>332.75</ele><time>2026-04-29T12:51:42Z</time></trkpt><trkpt lat="42.30697790735817" lon="12.055193123639954"><ele>333.5</ele><time>2026-04-29T12:51:43Z</time></trkpt><trkpt lat="42.30698352171703" lon="12.05537644608896"><ele>334.25</ele><time>2026-04-29T12:51:44Z</time></trkpt><trkpt lat="42.30699548055124" lon="12.055536711634126"><ele>335.0</ele><time>2026-04-29T12:51:45Z</time></trkpt><trkpt lat="42.30701659809946" lon="12.055669231542286"><ele>335.6666666666667</ele><time>2026-04-29T12:51:46Z</time></trkpt><trkpt lat="42.30702646983989" lon="12.055787833880927"><ele>336.33333333333337</ele><time>2026-04-29T12:51:47Z</time></trkpt><trkpt lat="42.30700690822229" lon="12.055903382014263"><ele>337.0</ele><time>2026-04-29T12:51:48Z</time></trkpt><trkpt lat="42.30696002190003" lon="12.056011157998876"><ele>337.6666666666667</ele><time>2026-04-29T12:51:49Z</time></trkpt><trkpt lat="42.30689888746353" lon="12.056093162036255"><ele>338.3333333333333</ele><time>2026-04-29T12:51:50Z</time></trkpt><trkpt lat="42.30682780828014" lon="12.056152742376117"><ele>339.0</ele><time>2026-04-29T12:51:51Z</time></trkpt><trkpt lat="42.306752717297606" lon="12.056167136276956"><ele>339.0</ele><time>2026-04-29T12:51:52Z</time></trkpt><trkpt lat="42.30667043590348" lon="12.056175113504302"><ele>339.0</ele><time>2026-04-29T12:51:53Z</time></trkpt><trkpt lat="42.30657413998922" lon="12.056168947426302"><ele>339.0</ele><time>2026-04-29T12:51:54Z</time></trkpt><trkpt lat="42.30648122391731" lon="12.05613459121708"><ele>339.0</ele><time>2026-04-29T12:51:55Z</time></trkpt><trkpt lat="42.306386233717866" lon="12.056124285376494"><ele>339.0</ele><time>2026-04-29T12:51:56Z</time></trkpt><trkpt lat="42.306295037313085" lon="12.056111641801605"><ele>337.6</ele><time>2026-04-29T12:51:57Z</time></trkpt><trkpt lat="42.30619515875095" lon="12.05615758314447"><ele>336.2</ele><time>2026-04-29T12:51:58Z</time></trkpt><trkpt lat="42.30609928199675" lon="12.056246011036109"><ele>334.8</ele><time>2026-04-29T12:51:59Z</time></trkpt><trkpt lat="42.30599415101878" lon="12.056313418650308"><ele>333.40000000000003</ele><time>2026-04-29T12:52:00Z</time></trkpt><trkpt lat="42.305898842649555" lon="12.056388933245753"><ele>332.0</ele><time>2026-04-29T12:52:01Z</time></trkpt><trkpt lat="42.30581624185565" lon="12.056473731991565"><ele>332.0</ele><time>2026-04-29T12:52:02Z</time></trkpt><trkpt lat="42.30573253376505" lon="12.05656167056024"><ele>332.0</ele><time>2026-04-29T12:52:03Z</time></trkpt><trkpt lat="42.30567729911532" lon="12.05669655662459"><ele>332.0</ele><time>2026-04-29T12:52:04Z</time></trkpt><trkpt lat="42.305633294322135" lon="12.056841004223317"><ele>332.0</ele><time>2026-04-29T12:52:05Z</time></trkpt><trkpt lat="42.30562672420337" lon="12.057015356291997"><ele>332.75</ele><time>2026-04-29T12:52:06Z</time></trkpt><trkpt lat="42.30561345338812" lon="12.05718562377367"><ele>333.5</ele><time>2026-04-29T12:52:07Z</time></trkpt><trkpt lat="42.30561116595201" lon="12.057362136901196"><ele>334.25</ele><time>2026-04-29T12:52:08Z</time></trkpt><trkpt lat="42.30561067903608" lon="12.057545970305133"><ele>335.0</ele><time>2026-04-29T12:52:09Z</time></trkpt><trkpt lat="42.3055825026511" lon="12.057734430516938"><ele>335.25</ele><time>2026-04-29T12:52:10Z</time></trkpt><trkpt lat="42.30555824611495" lon="12.05793250354757"><ele>335.5</ele><time>2026-04-29T12:52:11Z</time></trkpt><trkpt lat="42.30552816073873" lon="12.05811394876133"><ele>335.75</ele><time>2026-04-29T12:52:12Z</time></trkpt><trkpt lat="42.305513823886486" lon="12.05828099744327"><ele>336.0</ele><time>2026-04-29T12:52:13Z</time></trkpt><trkpt lat="42.30546340597967" lon="12.058418704618113"><ele>336.0</ele><time>2026-04-29T12:52:14Z</time></trkpt><trkpt lat="42.30545401831607" lon="12.05855265253011"><ele>336.0</ele><time>2026-04-29T12:52:15Z</time></trkpt><trkpt lat="42.3054395671322" lon="12.058664514514444"><ele>336.0</ele><time>2026-04-29T12:52:16Z</time></trkpt><trkpt lat="42.305459762169924" lon="12.058762619721788"><ele>336.0</ele><time>2026-04-29T12:52:17Z</time></trkpt><trkpt lat="42.30550178592556" lon="12.05883585025683"><ele>336.0</ele><time>2026-04-29T12:52:18Z</time></trkpt><trkpt lat="42.30554642622879" lon="12.05890419181501"><ele>336.0</ele><time>2026-04-29T12:52:19Z</time></trkpt><trkpt lat="42.305506095332795" lon="12.059043262303765"><ele>337.0</ele><time>2026-04-29T12:52:21Z</time></trkpt><trkpt lat="42.305480293715284" lon="12.059146380890834"><ele>338.0</ele><time>2026-04-29T12:52:22Z</time></trkpt><trkpt lat="42.305451006050404" lon="12.059262626980455"><ele>339.0</ele><time>2026-04-29T12:52:23Z</time></trkpt><trkpt lat="42.3054223909537" lon="12.059386408220192"><ele>340.0</ele><time>2026-04-29T12:52:24Z</time></trkpt><trkpt lat="42.30540076054058" lon="12.059517983473908"><ele>341.0</ele><time>2026-04-29T12:52:25Z</time></trkpt><trkpt lat="42.30538271526027" lon="12.059655377851026"><ele>341.0</ele><time>2026-04-29T12:52:26Z</time></trkpt><trkpt lat="42.30536461218997" lon="12.05979336043019"><ele>341.0</ele><time>2026-04-29T12:52:27Z</time></trkpt><trkpt lat="42.305359177567624" lon="12.059940704942179"><ele>341.0</ele><time>2026-04-29T12:52:28Z</time></trkpt><trkpt lat="42.305330097615766" lon="12.060084960481054"><ele>341.0</ele><time>2026-04-29T12:52:29Z</time></trkpt><trkpt lat="42.305276181088026" lon="12.060220352386363"><ele>341.0</ele><time>2026-04-29T12:52:30Z</time></trkpt><trkpt lat="42.30523130053517" lon="12.06036222606908"><ele>341.5</ele><time>2026-04-29T12:52:31Z</time></trkpt><trkpt lat="42.305209544016975" lon="12.06051044266071"><ele>342.0</ele><time>2026-04-29T12:52:32Z</time></trkpt><trkpt lat="42.30519297414581" lon="12.060649959536761"><ele>342.5</ele><time>2026-04-29T12:52:33Z</time></trkpt><trkpt lat="42.3051882684197" lon="12.060806137352602"><ele>343.0</ele><time>2026-04-29T12:52:34Z</time></trkpt><trkpt lat="42.30518994654553" lon="12.06097714528272"><ele>344.25</ele><time>2026-04-29T12:52:35Z</time></trkpt><trkpt lat="42.305165420977666" lon="12.06116247803959"><ele>345.5</ele><time>2026-04-29T12:52:36Z</time></trkpt><trkpt lat="42.305169273453124" lon="12.0613509623827"><ele>346.75</ele><time>2026-04-29T12:52:37Z</time></trkpt><trkpt lat="42.3051523244966" lon="12.06155111566154"><ele>348.0</ele><time>2026-04-29T12:52:38Z</time></trkpt><trkpt lat="42.30513282939939" lon="12.06175026151109"><ele>348.25</ele><time>2026-04-29T12:52:39Z</time></trkpt><trkpt lat="42.30511088178923" lon="12.061952096821035"><ele>348.5</ele><time>2026-04-29T12:52:40Z</time></trkpt><trkpt lat="42.305088524305496" lon="12.062152849568916"><ele>348.75</ele><time>2026-04-29T12:52:41Z</time></trkpt><trkpt lat="42.30506922646232" lon="12.062336547025422"><ele>349.0</ele><time>2026-04-29T12:52:42Z</time></trkpt><trkpt lat="42.30504824341622" lon="12.062501166205186"><ele>349.2</ele><time>2026-04-29T12:52:43Z</time></trkpt><trkpt lat="42.305022153713196" lon="12.062650417680182"><ele>349.4</ele><time>2026-04-29T12:52:44Z</time></trkpt><trkpt lat="42.30498902694328" lon="12.062778139064651"><ele>349.6</ele><time>2026-04-29T12:52:45Z</time></trkpt><trkpt lat="42.30495403564242" lon="12.062885684225794"><ele>349.8</ele><time>2026-04-29T12:52:46Z</time></trkpt><trkpt lat="42.304917451879966" lon="12.062985010593502"><ele>350.0</ele><time>2026-04-29T12:52:47Z</time></trkpt><trkpt lat="42.30490754383962" lon="12.063084721604865"><ele>350.0</ele><time>2026-04-29T12:52:48Z</time></trkpt><trkpt lat="42.30484732888258" lon="12.063165814324332"><ele>350.0</ele><time>2026-04-29T12:52:49Z</time></trkpt><trkpt lat="42.30481134374032" lon="12.06325103998651"><ele>350.0</ele><time>2026-04-29T12:52:50Z</time></trkpt><trkpt lat="42.3047549156488" lon="12.063340441534336"><ele>350.0</ele><time>2026-04-29T12:52:51Z</time></trkpt><trkpt lat="42.3046894988493" lon="12.0634212702018"><ele>350.0</ele><time>2026-04-29T12:52:52Z</time></trkpt><trkpt lat="42.30463956655795" lon="12.063499966826829"><ele>350.0</ele><time>2026-04-29T12:52:53Z</time></trkpt><trkpt lat="42.30461880841823" lon="12.06358839719968"><ele>349.8</ele><time>2026-04-29T12:52:54Z</time></trkpt><trkpt lat="42.30467319076994" lon="12.063737541250497"><ele>349.6</ele><time>2026-04-29T12:52:56Z</time></trkpt><trkpt lat="42.3047380448029" lon="12.063795463883935"><ele>349.4</ele><time>2026-04-29T12:52:57Z</time></trkpt><trkpt lat="42.30481335444518" lon="12.063862237813254"><ele>349.2</ele><time>2026-04-29T12:52:58Z</time></trkpt><trkpt lat="42.304900396606925" lon="12.06393665735194"><ele>349.0</ele><time>2026-04-29T12:52:59Z</time></trkpt><trkpt lat="42.30500519205776" lon="12.063996373326859"><ele>349.0</ele><time>2026-04-29T12:53:00Z</time></trkpt><trkpt lat="42.305110778570224" lon="12.064038379598538"><ele>349.0</ele><time>2026-04-29T12:53:01Z</time></trkpt><trkpt lat="42.30521823555852" lon="12.064081602422025"><ele>349.0</ele><time>2026-04-29T12:53:02Z</time></trkpt><trkpt lat="42.3053241546355" lon="12.064130882776675"><ele>349.0</ele><time>2026-04-29T12:53:03Z</time></trkpt><trkpt lat="42.30542495948512" lon="12.064201750954238"><ele>349.0</ele><time>2026-04-29T12:53:04Z</time></trkpt><trkpt lat="42.30551016633019" lon="12.064284085044477"><ele>349.66666666666663</ele><time>2026-04-29T12:53:05Z</time></trkpt><trkpt lat="42.305584489498074" lon="12.064360350100074"><ele>350.3333333333333</ele><time>2026-04-29T12:53:06Z</time></trkpt><trkpt lat="42.30563454946295" lon="12.064420785784478"><ele>351.0</ele><time>2026-04-29T12:53:07Z</time></trkpt><trkpt lat="42.30569729254797" lon="12.064565571807663"><ele>351.6666666666667</ele><time>2026-04-29T12:53:09Z</time></trkpt><trkpt lat="42.30572216162849" lon="12.064660888865854"><ele>352.33333333333337</ele><time>2026-04-29T12:53:10Z</time></trkpt><trkpt lat="42.30574842236266" lon="12.064773846909173"><ele>353.0</ele><time>2026-04-29T12:53:11Z</time></trkpt><trkpt lat="42.30576071883388" lon="12.06490093936754"><ele>355.25</ele><time>2026-04-29T12:53:12Z</time></trkpt><trkpt lat="42.3057390016834" lon="12.065039899951918"><ele>357.5</ele><time>2026-04-29T12:53:13Z</time></trkpt><trkpt lat="42.30570058705086" lon="12.06519187173382"><ele>359.75</ele><time>2026-04-29T12:53:14Z</time></trkpt><trkpt lat="42.305652788612576" lon="12.065364861981946"><ele>362.0</ele><time>2026-04-29T12:53:15Z</time></trkpt><trkpt lat="42.30561476395087" lon="12.065564933337196"><ele>362.0</ele><time>2026-04-29T12:53:16Z</time></trkpt><trkpt lat="42.30558509107991" lon="12.065765149201384"><ele>362.0</ele><time>2026-04-29T12:53:17Z</time></trkpt><trkpt lat="42.30557007746049" lon="12.065947037547236"><ele>362.0</ele><time>2026-04-29T12:53:18Z</time></trkpt><trkpt lat="42.30556101033741" lon="12.066117382452848"><ele>362.0</ele><time>2026-04-29T12:53:19Z</time></trkpt><trkpt lat="42.30555336468926" lon="12.06627233032418"><ele>363.6</ele><time>2026-04-29T12:53:20Z</time></trkpt><trkpt lat="42.30552814745965" lon="12.066414748339591"><ele>365.20000000000005</ele><time>2026-04-29T12:53:21Z</time></trkpt><trkpt lat="42.30549437764542" lon="12.066539667016613"><ele>366.8</ele><time>2026-04-29T12:53:22Z</time></trkpt><trkpt lat="42.3054625107574" lon="12.066663933964001"><ele>368.4</ele><time>2026-04-29T12:53:23Z</time></trkpt><trkpt lat="42.305408368426654" lon="12.066792180772186"><ele>370.0</ele><time>2026-04-29T12:53:24Z</time></trkpt><trkpt lat="42.30537569675599" lon="12.066949812123337"><ele>371.0</ele><time>2026-04-29T12:53:25Z</time></trkpt><trkpt lat="42.3053455716299" lon="12.06711230690263"><ele>372.0</ele><time>2026-04-29T12:53:26Z</time></trkpt><trkpt lat="42.3053467395119" lon="12.06727901313396"><ele>373.0</ele><time>2026-04-29T12:53:27Z</time></trkpt><trkpt lat="42.30535096822099" lon="12.067433631225397"><ele>374.0</ele><time>2026-04-29T12:53:28Z</time></trkpt><trkpt lat="42.305337911845335" lon="12.067568991495575"><ele>374.4</ele><time>2026-04-29T12:53:29Z</time></trkpt><trkpt lat="42.30529664719132" lon="12.067676058161714"><ele>374.79999999999995</ele><time>2026-04-29T12:53:30Z</time></trkpt><trkpt lat="42.305229094461296" lon="12.06775170820676"><ele>375.20000000000005</ele><time>2026-04-29T12:53:31Z</time></trkpt><trkpt lat="42.305137483541436" lon="12.067747058615224"><ele>375.6</ele><time>2026-04-29T12:53:32Z</time></trkpt><trkpt lat="42.30503719249156" lon="12.067744323796546"><ele>376.0</ele><time>2026-04-29T12:53:33Z</time></trkpt><trkpt lat="42.304923135904154" lon="12.067715414937952"><ele>376.0</ele><time>2026-04-29T12:53:34Z</time></trkpt><trkpt lat="42.30481494692116" lon="12.06771265634296"><ele>376.0</ele><time>2026-04-29T12:53:35Z</time></trkpt><trkpt lat="42.30471446230782" lon="12.067755871648306"><ele>376.0</ele><time>2026-04-29T12:53:36Z</time></trkpt><trkpt lat="42.30461959510887" lon="12.067830019086077"><ele>376.0</ele><time>2026-04-29T12:53:37Z</time></trkpt><trkpt lat="42.30454335909261" lon="12.06793150293234"><ele>376.0</ele><time>2026-04-29T12:53:38Z</time></trkpt><trkpt lat="42.304477314987125" lon="12.068035009511796"><ele>375.75</ele><time>2026-04-29T12:53:39Z</time></trkpt><trkpt lat="42.304429496177676" lon="12.068177813403942"><ele>375.5</ele><time>2026-04-29T12:53:40Z</time></trkpt><trkpt lat="42.304401532957776" lon="12.06833955866486"><ele>375.25</ele><time>2026-04-29T12:53:41Z</time></trkpt><trkpt lat="42.30438014445123" lon="12.068515521527601"><ele>375.0</ele><time>2026-04-29T12:53:42Z</time></trkpt><trkpt lat="42.304348158153786" lon="12.068714445399502"><ele>375.0</ele><time>2026-04-29T12:53:43Z</time></trkpt><trkpt lat="42.304308545161255" lon="12.068919079500064"><ele>375.0</ele><time>2026-04-29T12:53:44Z</time></trkpt><trkpt lat="42.304262538869175" lon="12.069099532022623"><ele>375.0</ele><time>2026-04-29T12:53:45Z</time></trkpt><trkpt lat="42.304208461319" lon="12.069259566612027"><ele>375.0</ele><time>2026-04-29T12:53:46Z</time></trkpt><trkpt lat="42.304156192228426" lon="12.069405456608267"><ele>376.0</ele><time>2026-04-29T12:53:47Z</time></trkpt><trkpt lat="42.3041149014226" lon="12.069556703223991"><ele>377.0</ele><time>2026-04-29T12:53:48Z</time></trkpt><trkpt lat="42.30408973393983" lon="12.06974069822822"><ele>378.0</ele><time>2026-04-29T12:53:49Z</time></trkpt><trkpt lat="42.304082716381444" lon="12.069934501501802"><ele>379.0</ele><time>2026-04-29T12:53:50Z</time></trkpt><trkpt lat="42.304065469997816" lon="12.07009714514621"><ele>379.0</ele><time>2026-04-29T12:53:51Z</time></trkpt><trkpt lat="42.304084273341935" lon="12.070218746219291"><ele>379.0</ele><time>2026-04-29T12:53:52Z</time></trkpt><trkpt lat="42.30407246263153" lon="12.070345728321602"><ele>379.0</ele><time>2026-04-29T12:53:54Z</time></trkpt><trkpt lat="42.304053692453785" lon="12.070427939616842"><ele>379.0</ele><time>2026-04-29T12:53:57Z</time></trkpt><trkpt lat="42.30392213755239" lon="12.070369615157853"><ele>379.0</ele><time>2026-04-29T12:54:01Z</time></trkpt><trkpt lat="42.30385140258474" lon="12.070335648202954"><ele>379.0</ele><time>2026-04-29T12:54:02Z</time></trkpt><trkpt lat="42.30377928480751" lon="12.070301017249754"><ele>379.0</ele><time>2026-04-29T12:54:03Z</time></trkpt><trkpt lat="42.303695291521244" lon="12.070260683660203"><ele>379.0</ele><time>2026-04-29T12:54:04Z</time></trkpt><trkpt lat="42.303606381693896" lon="12.070217989164188"><ele>379.0</ele><time>2026-04-29T12:54:05Z</time></trkpt><trkpt lat="42.30352259092135" lon="12.07018015746882"><ele>379.0</ele><time>2026-04-29T12:54:06Z</time></trkpt><trkpt lat="42.30344195236498" lon="12.07014421201419"><ele>379.0</ele><time>2026-04-29T12:54:07Z</time></trkpt><trkpt lat="42.303365738085056" lon="12.07011023872451"><ele>379.0</ele><time>2026-04-29T12:54:08Z</time></trkpt><trkpt lat="42.30328319658071" lon="12.070079001481105"><ele>379.0</ele><time>2026-04-29T12:54:09Z</time></trkpt><trkpt lat="42.303186883846685" lon="12.070064739446547"><ele>379.0</ele><time>2026-04-29T12:54:10Z</time></trkpt><trkpt lat="42.30309670653894" lon="12.07008900410581"><ele>379.0</ele><time>2026-04-29T12:54:11Z</time></trkpt><trkpt lat="42.30300925493725" lon="12.070117068629513"><ele>379.0</ele><time>2026-04-29T12:54:12Z</time></trkpt><trkpt lat="42.302929610001414" lon="12.070164189496621"><ele>376.75</ele><time>2026-04-29T12:54:13Z</time></trkpt><trkpt lat="42.30285813384916" lon="12.070233190211653"><ele>374.5</ele><time>2026-04-29T12:54:14Z</time></trkpt><trkpt lat="42.30277757389474" lon="12.070339483734811"><ele>372.25</ele><time>2026-04-29T12:54:15Z</time></trkpt><trkpt lat="42.30269328441295" lon="12.070460900245497"><ele>370.0</ele><time>2026-04-29T12:54:16Z</time></trkpt><trkpt lat="42.30258867538052" lon="12.070572855636794"><ele>370.0</ele><time>2026-04-29T12:54:17Z</time></trkpt><trkpt lat="42.30249992460685" lon="12.070681975425012"><ele>370.0</ele><time>2026-04-29T12:54:18Z</time></trkpt><trkpt lat="42.30242684381156" lon="12.070786963793235"><ele>370.0</ele><time>2026-04-29T12:54:19Z</time></trkpt><trkpt lat="42.30233915004324" lon="12.070839324577873"><ele>370.0</ele><time>2026-04-29T12:54:20Z</time></trkpt><trkpt lat="42.302246498086625" lon="12.07084754971422"><ele>370.0</ele><time>2026-04-29T12:54:21Z</time></trkpt><trkpt lat="42.302157966646625" lon="12.070779144614459"><ele>370.25</ele><time>2026-04-29T12:54:22Z</time></trkpt><trkpt lat="42.30208611391865" lon="12.070676287705355"><ele>370.5</ele><time>2026-04-29T12:54:23Z</time></trkpt><trkpt lat="42.30199179889308" lon="12.070559519695497"><ele>370.75</ele><time>2026-04-29T12:54:24Z</time></trkpt><trkpt lat="42.301883807191764" lon="12.07045374489523"><ele>371.0</ele><time>2026-04-29T12:54:25Z</time></trkpt><trkpt lat="42.30176967244392" lon="12.070326711112374"><ele>371.0</ele><time>2026-04-29T12:54:26Z</time></trkpt><trkpt lat="42.30164826834948" lon="12.070230025443637"><ele>371.0</ele><time>2026-04-29T12:54:27Z</time></trkpt><trkpt lat="42.301534679379195" lon="12.070166120334676"><ele>371.0</ele><time>2026-04-29T12:54:28Z</time></trkpt><trkpt lat="42.30142920960997" lon="12.070139650068995"><ele>371.0</ele><time>2026-04-29T12:54:29Z</time></trkpt><trkpt lat="42.30131059263299" lon="12.07013722296262"><ele>372.5</ele><time>2026-04-29T12:54:30Z</time></trkpt><trkpt lat="42.30117560559694" lon="12.070155969402094"><ele>374.0</ele><time>2026-04-29T12:54:31Z</time></trkpt><trkpt lat="42.301026835314424" lon="12.070193349811774"><ele>375.5</ele><time>2026-04-29T12:54:32Z</time></trkpt><trkpt lat="42.30087246097168" lon="12.070243246540574"><ele>377.0</ele><time>2026-04-29T12:54:33Z</time></trkpt><trkpt lat="42.300715563684676" lon="12.070295801996826"><ele>379.25</ele><time>2026-04-29T12:54:34Z</time></trkpt><trkpt lat="42.30056723039077" lon="12.070354960462852"><ele>381.5</ele><time>2026-04-29T12:54:35Z</time></trkpt><trkpt lat="42.300448878957624" lon="12.070419338511371"><ele>383.75</ele><time>2026-04-29T12:54:36Z</time></trkpt><trkpt lat="42.300334564452314" lon="12.070448536446996"><ele>386.0</ele><time>2026-04-29T12:54:37Z</time></trkpt><trkpt lat="42.300244071017964" lon="12.070482892543039"><ele>385.99999999999994</ele><time>2026-04-29T12:54:38Z</time></trkpt><trkpt lat="42.30015578107857" lon="12.070515731148157"><ele>386.0</ele><time>2026-04-29T12:54:39Z</time></trkpt><trkpt lat="42.300070951052" lon="12.070551867059118"><ele>386.0</ele><time>2026-04-29T12:54:40Z</time></trkpt><trkpt lat="42.299997598226376" lon="12.070585224315307"><ele>386.0</ele><time>2026-04-29T12:54:41Z</time></trkpt><trkpt lat="42.29994984265106" lon="12.070643661168548"><ele>385.99999999999994</ele><time>2026-04-29T12:54:42Z</time></trkpt><trkpt lat="42.29989711633268" lon="12.070747071443934"><ele>386.0</ele><time>2026-04-29T12:54:44Z</time></trkpt><trkpt lat="42.299820005313876" lon="12.070785125967575"><ele>386.20000000000005</ele><time>2026-04-29T12:54:47Z</time></trkpt><trkpt lat="42.299752903253484" lon="12.070793386293461"><ele>386.40000000000003</ele><time>2026-04-29T12:54:50Z</time></trkpt><trkpt lat="42.2996896975079" lon="12.0708027204329"><ele>386.6</ele><time>2026-04-29T12:55:12Z</time></trkpt><trkpt lat="42.29960731414918" lon="12.070613553532116"><ele>386.8</ele><time>2026-04-29T12:55:13Z</time></trkpt><trkpt lat="42.299518203762624" lon="12.070564123054039"><ele>387.0</ele><time>2026-04-29T12:55:14Z</time></trkpt><trkpt lat="42.29939393632454" lon="12.07052383306768"><ele>386.5</ele><time>2026-04-29T12:55:15Z</time></trkpt><trkpt lat="42.29926895385997" lon="12.070515582037011"><ele>386.0</ele><time>2026-04-29T12:55:16Z</time></trkpt><trkpt lat="42.29913994303088" lon="12.07053439214222"><ele>385.5</ele><time>2026-04-29T12:55:17Z</time></trkpt><trkpt lat="42.29899562478839" lon="12.070590392076776"><ele>385.0</ele><time>2026-04-29T12:55:18Z</time></trkpt><trkpt lat="42.298860484161885" lon="12.070692593768824"><ele>381.0</ele><time>2026-04-29T12:55:19Z</time></trkpt><trkpt lat="42.29872654847366" lon="12.070817040409162"><ele>377.0</ele><time>2026-04-29T12:55:20Z</time></trkpt><trkpt lat="42.29860337919269" lon="12.070948093551001"><ele>373.0</ele><time>2026-04-29T12:55:21Z</time></trkpt><trkpt lat="42.29848837126383" lon="12.071081832413478"><ele>373.0</ele><time>2026-04-29T12:55:22Z</time></trkpt><trkpt lat="42.29838780911451" lon="12.071223894640957"><ele>373.0</ele><time>2026-04-29T12:55:23Z</time></trkpt><trkpt lat="42.29827741412616" lon="12.07134673073939"><ele>373.0</ele><time>2026-04-29T12:55:24Z</time></trkpt><trkpt lat="42.29816851873177" lon="12.071467660394026"><ele>373.0</ele><time>2026-04-29T12:55:25Z</time></trkpt><trkpt lat="42.298068156318685" lon="12.071588354247293"><ele>372.3333333333333</ele><time>2026-04-29T12:55:26Z</time></trkpt><trkpt lat="42.297972164473805" lon="12.071728373439537"><ele>371.6666666666667</ele><time>2026-04-29T12:55:27Z</time></trkpt><trkpt lat="42.29786877444118" lon="12.071884992061452"><ele>371.0</ele><time>2026-04-29T12:55:28Z</time></trkpt><trkpt lat="42.29778663936963" lon="12.072092678506792"><ele>371.0</ele><time>2026-04-29T12:55:29Z</time></trkpt><trkpt lat="42.297725034909604" lon="12.07230974299654"><ele>371.0</ele><time>2026-04-29T12:55:30Z</time></trkpt><trkpt lat="42.297651574350816" lon="12.072512328116499"><ele>371.0</ele><time>2026-04-29T12:55:31Z</time></trkpt><trkpt lat="42.29757831490642" lon="12.072698648157797"><ele>371.5</ele><time>2026-04-29T12:55:32Z</time></trkpt><trkpt lat="42.29751100829524" lon="12.072877221452556"><ele>372.0</ele><time>2026-04-29T12:55:33Z</time></trkpt><trkpt lat="42.29742519440276" lon="12.073026293483196"><ele>372.5</ele><time>2026-04-29T12:55:34Z</time></trkpt><trkpt lat="42.29734836657241" lon="12.073160840014715"><ele>373.0</ele><time>2026-04-29T12:55:35Z</time></trkpt><trkpt lat="42.29724899450109" lon="12.073278919014681"><ele>375.25</ele><time>2026-04-29T12:55:36Z</time></trkpt><trkpt lat="42.29713615352285" lon="12.073368991233533"><ele>377.5</ele><time>2026-04-29T12:55:37Z</time></trkpt><trkpt lat="42.29700694306447" lon="12.073436261765416"><ele>379.75</ele><time>2026-04-29T12:55:38Z</time></trkpt><trkpt lat="42.29687258587861" lon="12.07348924379159"><ele>382.0</ele><time>2026-04-29T12:55:39Z</time></trkpt><trkpt lat="42.29672950582595" lon="12.073478671171602"><ele>382.0</ele><time>2026-04-29T12:55:40Z</time></trkpt><trkpt lat="42.29659160102428" lon="12.073412813056285"><ele>382.0</ele><time>2026-04-29T12:55:41Z</time></trkpt><trkpt lat="42.29645240080396" lon="12.07335253694412"><ele>382.0</ele><time>2026-04-29T12:55:42Z</time></trkpt><trkpt lat="42.2963208285349" lon="12.073292196729874"><ele>382.0</ele><time>2026-04-29T12:55:43Z</time></trkpt><trkpt lat="42.296192436226875" lon="12.073240315400867"><ele>382.25</ele><time>2026-04-29T12:55:44Z</time></trkpt><trkpt lat="42.29606800081486" lon="12.073203696803757"><ele>382.5</ele><time>2026-04-29T12:55:45Z</time></trkpt><trkpt lat="42.2959407704632" lon="12.073176108595396"><ele>382.75</ele><time>2026-04-29T12:55:46Z</time></trkpt><trkpt lat="42.29581415350627" lon="12.073159798277086"><ele>383.0</ele><time>2026-04-29T12:55:47Z</time></trkpt><trkpt lat="42.29568831352785" lon="12.07315671285734"><ele>387.0</ele><time>2026-04-29T12:55:48Z</time></trkpt><trkpt lat="42.29555421673107" lon="12.07316361697959"><ele>391.0</ele><time>2026-04-29T12:55:49Z</time></trkpt><trkpt lat="42.295398919361" lon="12.073183319363736"><ele>395.0</ele><time>2026-04-29T12:55:50Z</time></trkpt><trkpt lat="42.29522053621924" lon="12.07322777374687"><ele>394.0</ele><time>2026-04-29T12:55:51Z</time></trkpt><trkpt lat="42.295052406362345" lon="12.07327698031002"><ele>393.0</ele><time>2026-04-29T12:55:52Z</time></trkpt><trkpt lat="42.29491635810024" lon="12.073318459586474"><ele>392.0</ele><time>2026-04-29T12:55:53Z</time></trkpt><trkpt lat="42.294804413161806" lon="12.07335368597635"><ele>391.0</ele><time>2026-04-29T12:55:54Z</time></trkpt><trkpt lat="42.294713417958924" lon="12.073382802300264"><ele>391.00000000000006</ele><time>2026-04-29T12:55:55Z</time></trkpt><trkpt lat="42.294627868972796" lon="12.073410175963254"><ele>391.0</ele><time>2026-04-29T12:55:56Z</time></trkpt><trkpt lat="42.29455869582305" lon="12.073432309742955"><ele>391.0</ele><time>2026-04-29T12:55:57Z</time></trkpt><trkpt lat="42.294467458342496" lon="12.07345537694685"><ele>391.0</ele><time>2026-04-29T12:55:59Z</time></trkpt><trkpt lat="42.29439198526751" lon="12.073469397277195"><ele>391.00000000000006</ele><time>2026-04-29T12:56:01Z</time></trkpt><trkpt lat="42.294308247940975" lon="12.073475360225011"><ele>391.0</ele><time>2026-04-29T12:56:04Z</time></trkpt><trkpt lat="42.294225246109086" lon="12.07346572713855"><ele>391.00000000000006</ele><time>2026-04-29T12:56:33Z</time></trkpt><trkpt lat="42.29415399367144" lon="12.073447244446175"><ele>391.0</ele><time>2026-04-29T12:56:35Z</time></trkpt><trkpt lat="42.29407691376265" lon="12.073418350453693"><ele>391.0</ele><time>2026-04-29T12:56:43Z</time></trkpt><trkpt lat="42.29401494246676" lon="12.073390139371185"><ele>391.0</ele><time>2026-04-29T12:56:44Z</time></trkpt><trkpt lat="42.29393269685804" lon="12.073347422664554"><ele>391.00000000000006</ele><time>2026-04-29T12:56:45Z</time></trkpt><trkpt lat="42.29383794473382" lon="12.073316158285614"><ele>391.0</ele><time>2026-04-29T12:56:46Z</time></trkpt><trkpt lat="42.29374751698166" lon="12.073247718668584"><ele>390.75</ele><time>2026-04-29T12:56:47Z</time></trkpt><trkpt lat="42.29364209075451" lon="12.073166830979844"><ele>390.5</ele><time>2026-04-29T12:56:48Z</time></trkpt><trkpt lat="42.29351573638331" lon="12.07307953702246"><ele>390.25</ele><time>2026-04-29T12:56:49Z</time></trkpt><trkpt lat="42.29337964048921" lon="12.072984920339163"><ele>390.0</ele><time>2026-04-29T12:56:50Z</time></trkpt><trkpt lat="42.29323973138899" lon="12.072888820458648"><ele>390.0</ele><time>2026-04-29T12:56:51Z</time></trkpt><trkpt lat="42.29309973393958" lon="12.072784646444891"><ele>390.0</ele><time>2026-04-29T12:56:52Z</time></trkpt><trkpt lat="42.29297003442071" lon="12.072672933603663"><ele>390.0</ele><time>2026-04-29T12:56:53Z</time></trkpt><trkpt lat="42.292847172206194" lon="12.072530435595379"><ele>390.66666666666663</ele><time>2026-04-29T12:56:54Z</time></trkpt><trkpt lat="42.29272887612258" lon="12.072353161690039"><ele>391.3333333333333</ele><time>2026-04-29T12:56:55Z</time></trkpt><trkpt lat="42.292623987253506" lon="12.07215748490511"><ele>392.0</ele><time>2026-04-29T12:56:56Z</time></trkpt><trkpt lat="42.29251712877074" lon="12.071975060146116"><ele>392.0</ele><time>2026-04-29T12:56:57Z</time></trkpt><trkpt lat="42.292416508744346" lon="12.071818111485676"><ele>392.0</ele><time>2026-04-29T12:56:58Z</time></trkpt><trkpt lat="42.29230621150782" lon="12.071686975837364"><ele>392.0</ele><time>2026-04-29T12:56:59Z</time></trkpt><trkpt lat="42.29217687164615" lon="12.071571727469436"><ele>392.3333333333333</ele><time>2026-04-29T12:57:00Z</time></trkpt><trkpt lat="42.292031284170754" lon="12.071488138519202"><ele>392.66666666666663</ele><time>2026-04-29T12:57:01Z</time></trkpt><trkpt lat="42.29188050112947" lon="12.071438632489356"><ele>393.0</ele><time>2026-04-29T12:57:02Z</time></trkpt><trkpt lat="42.291735059938716" lon="12.071417837415437"><ele>393.0</ele><time>2026-04-29T12:57:03Z</time></trkpt><trkpt lat="42.291591738230615" lon="12.071437459078279"><ele>393.0</ele><time>2026-04-29T12:57:04Z</time></trkpt><trkpt lat="42.29145375948424" lon="12.071499458978732"><ele>393.0</ele><time>2026-04-29T12:57:05Z</time></trkpt><trkpt lat="42.29133199409766" lon="12.071576989393472"><ele>393.0</ele><time>2026-04-29T12:57:06Z</time></trkpt><trkpt lat="42.29122681457705" lon="12.071687379663052"><ele>397.75</ele><time>2026-04-29T12:57:07Z</time></trkpt><trkpt lat="42.291125873381645" lon="12.071800050103445"><ele>402.5</ele><time>2026-04-29T12:57:08Z</time></trkpt><trkpt lat="42.29104365603811" lon="12.07192959963684"><ele>407.25</ele><time>2026-04-29T12:57:09Z</time></trkpt><trkpt lat="42.29094430636276" lon="12.072062383791348"><ele>412.0</ele><time>2026-04-29T12:57:10Z</time></trkpt><trkpt lat="42.290828919416036" lon="12.072162725988393"><ele>412.0</ele><time>2026-04-29T12:57:11Z</time></trkpt><trkpt lat="42.290696256391946" lon="12.072227862904665"><ele>412.0</ele><time>2026-04-29T12:57:12Z</time></trkpt><trkpt lat="42.29056167837089" lon="12.072276668531252"><ele>412.0</ele><time>2026-04-29T12:57:13Z</time></trkpt><trkpt lat="42.29042182456753" lon="12.07231637671873"><ele>412.0</ele><time>2026-04-29T12:57:14Z</time></trkpt><trkpt lat="42.29029831373403" lon="12.072348706102078"><ele>412.5</ele><time>2026-04-29T12:57:15Z</time></trkpt><trkpt lat="42.29016806106317" lon="12.072379525976293"><ele>413.0</ele><time>2026-04-29T12:57:16Z</time></trkpt><trkpt lat="42.29003421073277" lon="12.072406231084289"><ele>413.5</ele><time>2026-04-29T12:57:17Z</time></trkpt><trkpt lat="42.28990807520308" lon="12.072433314175766"><ele>414.0</ele><time>2026-04-29T12:57:18Z</time></trkpt><trkpt lat="42.289777796253624" lon="12.072459043583459"><ele>413.0</ele><time>2026-04-29T12:57:19Z</time></trkpt><trkpt lat="42.28965319568933" lon="12.07248847958498"><ele>412.0</ele><time>2026-04-29T12:57:20Z</time></trkpt><trkpt lat="42.289533081589326" lon="12.072524356993245"><ele>411.0</ele><time>2026-04-29T12:57:21Z</time></trkpt><trkpt lat="42.289402777295145" lon="12.072555117962587"><ele>410.0</ele><time>2026-04-29T12:57:22Z</time></trkpt><trkpt lat="42.28928003414849" lon="12.072588556700943"><ele>410.0</ele><time>2026-04-29T12:57:23Z</time></trkpt><trkpt lat="42.28915308354324" lon="12.072608385509458"><ele>410.0</ele><time>2026-04-29T12:57:24Z</time></trkpt><trkpt lat="42.289030439366904" lon="12.07262964175699"><ele>410.0</ele><time>2026-04-29T12:57:25Z</time></trkpt><trkpt lat="42.2889090288641" lon="12.072654833694765"><ele>410.0</ele><time>2026-04-29T12:57:26Z</time></trkpt><trkpt lat="42.288787610473484" lon="12.072679423914309"><ele>409.25</ele><time>2026-04-29T12:57:27Z</time></trkpt><trkpt lat="42.28866604875993" lon="12.07270440045545"><ele>408.5</ele><time>2026-04-29T12:57:28Z</time></trkpt><trkpt lat="42.28853528288621" lon="12.07270158734503"><ele>407.75</ele><time>2026-04-29T12:57:29Z</time></trkpt><trkpt lat="42.288416618120785" lon="12.072689497843571"><ele>407.0</ele><time>2026-04-29T12:57:30Z</time></trkpt><trkpt lat="42.288330822273316" lon="12.072678386104492"><ele>407.0</ele><time>2026-04-29T12:57:31Z</time></trkpt><trkpt lat="42.2882333864045" lon="12.072613921742612"><ele>407.0</ele><time>2026-04-29T12:57:33Z</time></trkpt><trkpt lat="42.288185043682" lon="12.072514729168192"><ele>407.0</ele><time>2026-04-29T12:57:36Z</time></trkpt><trkpt lat="42.28818383704983" lon="12.072405395181628"><ele>407.0</ele><time>2026-04-29T12:57:38Z</time></trkpt><trkpt lat="42.288202268604714" lon="12.072259885401166"><ele>407.0</ele><time>2026-04-29T12:57:40Z</time></trkpt><trkpt lat="42.28820767720071" lon="12.072117179906611"><ele>407.3333333333333</ele><time>2026-04-29T12:57:42Z</time></trkpt><trkpt lat="42.288208561739424" lon="12.07203048713697"><ele>407.66666666666663</ele><time>2026-04-29T12:57:43Z</time></trkpt><trkpt lat="42.28819412595349" lon="12.071923990944212"><ele>408.0</ele><time>2026-04-29T12:57:44Z</time></trkpt><trkpt lat="42.28818042081194" lon="12.071758141435907"><ele>408.33333333333337</ele><time>2026-04-29T12:57:46Z</time></trkpt><trkpt lat="42.28817895833292" lon="12.071672179841542"><ele>408.6666666666667</ele><time>2026-04-29T12:57:47Z</time></trkpt><trkpt lat="42.288179993908656" lon="12.07158669846336"><ele>409.0</ele><time>2026-04-29T12:57:48Z</time></trkpt><trkpt lat="42.28817216004072" lon="12.07149391137383"><ele>409.00000000000006</ele><time>2026-04-29T12:57:49Z</time></trkpt><trkpt lat="42.28815972042751" lon="12.071328364014944"><ele>409.0</ele><time>2026-04-29T12:57:51Z</time></trkpt><trkpt lat="42.2881491565007" lon="12.071239366627626"><ele>409.0</ele><time>2026-04-29T12:57:52Z</time></trkpt><trkpt lat="42.28813539291258" lon="12.071149110425562"><ele>409.0</ele><time>2026-04-29T12:57:53Z</time></trkpt><trkpt lat="42.28812185695367" lon="12.07105841349718"><ele>409.00000000000006</ele><time>2026-04-29T12:57:54Z</time></trkpt><trkpt lat="42.28810782792236" lon="12.070971260722148"><ele>409.0</ele><time>2026-04-29T12:57:55Z</time></trkpt><trkpt lat="42.28807929717566" lon="12.07081142009436"><ele>408.2857142857143</ele><time>2026-04-29T12:57:57Z</time></trkpt><trkpt lat="42.28805606861913" lon="12.070721883082353"><ele>407.5714285714286</ele><time>2026-04-29T12:57:58Z</time></trkpt><trkpt lat="42.28803578434343" lon="12.070628436445137"><ele>406.8571428571429</ele><time>2026-04-29T12:57:59Z</time></trkpt><trkpt lat="42.28801772622421" lon="12.070537898086075"><ele>406.1428571428571</ele><time>2026-04-29T12:58:00Z</time></trkpt><trkpt lat="42.28799904780241" lon="12.070439675751755"><ele>405.42857142857144</ele><time>2026-04-29T12:58:01Z</time></trkpt><trkpt lat="42.28799018870441" lon="12.07034368266943"><ele>404.7142857142857</ele><time>2026-04-29T12:58:02Z</time></trkpt><trkpt lat="42.28797933595464" lon="12.070250954128287"><ele>404.0</ele><time>2026-04-29T12:58:03Z</time></trkpt><trkpt lat="42.28796768284418" lon="12.070165176840629"><ele>403.99999999999994</ele><time>2026-04-29T12:58:04Z</time></trkpt><trkpt lat="42.28794411317793" lon="12.070009300515432"><ele>404.0</ele><time>2026-04-29T12:58:06Z</time></trkpt><trkpt lat="42.28792932565053" lon="12.069895819738107"><ele>404.0</ele><time>2026-04-29T12:58:08Z</time></trkpt><trkpt lat="42.28791888845219" lon="12.069792291869081"><ele>404.0</ele><time>2026-04-29T12:58:10Z</time></trkpt><trkpt lat="42.28792300533004" lon="12.06969333493011"><ele>403.99999999999994</ele><time>2026-04-29T12:58:12Z</time></trkpt><trkpt lat="42.287932789436255" lon="12.069580092340406"><ele>404.0</ele><time>2026-04-29T12:58:14Z</time></trkpt><trkpt lat="42.28794845702205" lon="12.069451137644885"><ele>403.3333333333333</ele><time>2026-04-29T12:58:16Z</time></trkpt><trkpt lat="42.28794709768383" lon="12.0693043663293"><ele>402.66666666666663</ele><time>2026-04-29T12:58:18Z</time></trkpt><trkpt lat="42.287947473487584" lon="12.069211881942335"><ele>402.0</ele><time>2026-04-29T12:58:19Z</time></trkpt><trkpt lat="42.28794678191131" lon="12.069122853377973"><ele>401.33333333333337</ele><time>2026-04-29T12:58:20Z</time></trkpt><trkpt lat="42.28795196064091" lon="12.069023024218533"><ele>400.6666666666667</ele><time>2026-04-29T12:58:21Z</time></trkpt><trkpt lat="42.28795270446338" lon="12.06892249543587"><ele>400.0</ele><time>2026-04-29T12:58:22Z</time></trkpt><trkpt lat="42.2879536045428" lon="12.06882049708501"><ele>399.00000000000006</ele><time>2026-04-29T12:58:23Z</time></trkpt><trkpt lat="42.28795218436874" lon="12.068712482706186"><ele>398.0</ele><time>2026-04-29T12:58:24Z</time></trkpt><trkpt lat="42.28795938236322" lon="12.068611837169783"><ele>397.0</ele><time>2026-04-29T12:58:25Z</time></trkpt><trkpt lat="42.287963406715264" lon="12.068506743946033"><ele>396.0</ele><time>2026-04-29T12:58:26Z</time></trkpt><trkpt lat="42.28796316208888" lon="12.0684019640376"><ele>395.00000000000006</ele><time>2026-04-29T12:58:27Z</time></trkpt><trkpt lat="42.287966629425135" lon="12.068305352352358"><ele>394.0</ele><time>2026-04-29T12:58:28Z</time></trkpt><trkpt lat="42.28797202481221" lon="12.06820834651372"><ele>393.1666666666667</ele><time>2026-04-29T12:58:29Z</time></trkpt><trkpt lat="42.28797510591493" lon="12.068113039867672"><ele>392.33333333333337</ele><time>2026-04-29T12:58:30Z</time></trkpt><trkpt lat="42.28797531068499" lon="12.06801592321543"><ele>391.5</ele><time>2026-04-29T12:58:31Z</time></trkpt><trkpt lat="42.28798635537742" lon="12.067927968558083"><ele>390.66666666666663</ele><time>2026-04-29T12:58:32Z</time></trkpt><trkpt lat="42.28800948810185" lon="12.067803776511166"><ele>389.8333333333333</ele><time>2026-04-29T12:58:34Z</time></trkpt><trkpt lat="42.28805857721379" lon="12.067713241937062"><ele>389.0</ele><time>2026-04-29T12:58:36Z</time></trkpt><trkpt lat="42.28808781065806" lon="12.067632689837737"><ele>389.3333333333333</ele><time>2026-04-29T12:58:38Z</time></trkpt><trkpt lat="42.28811918348962" lon="12.067547404979774"><ele>389.66666666666663</ele><time>2026-04-29T12:58:40Z</time></trkpt><trkpt lat="42.288114840508314" lon="12.067406761942852"><ele>390.0</ele><time>2026-04-29T12:58:42Z</time></trkpt><trkpt lat="42.28809632214577" lon="12.067266390103784"><ele>390.33333333333337</ele><time>2026-04-29T12:58:44Z</time></trkpt><trkpt lat="42.288099880164964" lon="12.067140827552347"><ele>390.6666666666667</ele><time>2026-04-29T12:58:46Z</time></trkpt><trkpt lat="42.28807125124895" lon="12.067057426730097"><ele>391.0</ele><time>2026-04-29T12:58:48Z</time></trkpt><trkpt lat="42.28800483017396" lon="12.066959847473907"><ele>389.1666666666667</ele><time>2026-04-29T12:58:50Z</time></trkpt><trkpt lat="42.28795759941593" lon="12.066885465355641"><ele>387.33333333333337</ele><time>2026-04-29T12:58:52Z</time></trkpt><trkpt lat="42.28788472707313" lon="12.06682767339962"><ele>385.5</ele><time>2026-04-29T12:58:55Z</time></trkpt><trkpt lat="42.287800605892066" lon="12.066818996032673"><ele>383.6666666666667</ele><time>2026-04-29T12:58:58Z</time></trkpt><trkpt lat="42.287728052144125" lon="12.066802816656322"><ele>381.83333333333337</ele><time>2026-04-29T12:59:01Z</time></trkpt><trkpt lat="42.287651940419174" lon="12.066779344853934"><ele>380.0</ele><time>2026-04-29T12:59:05Z</time></trkpt><trkpt lat="42.28760001811984" lon="12.066700719420217"><ele>377.33333333333337</ele><time>2026-04-29T12:59:08Z</time></trkpt><trkpt lat="42.28758776775952" lon="12.066574393065267"><ele>374.6666666666667</ele><time>2026-04-29T12:59:11Z</time></trkpt><trkpt lat="42.28762005466398" lon="12.06649120396079"><ele>372.0</ele><time>2026-04-29T12:59:13Z</time></trkpt><trkpt lat="42.28765647914568" lon="12.066410423290524"><ele>369.3333333333333</ele><time>2026-04-29T12:59:15Z</time></trkpt><trkpt lat="42.287694517447925" lon="12.06633462661726"><ele>366.66666666666663</ele><time>2026-04-29T12:59:17Z</time></trkpt><trkpt lat="42.28776482568353" lon="12.066279672038076"><ele>364.0</ele><time>2026-04-29T12:59:19Z</time></trkpt><trkpt lat="42.287870019407755" lon="12.066269534655007"><ele>364.0</ele><time>2026-04-29T12:59:21Z</time></trkpt><trkpt lat="42.287933615901025" lon="12.066293896706101"><ele>364.0</ele><time>2026-04-29T12:59:22Z</time></trkpt><trkpt lat="42.28803580866849" lon="12.066336922836234"><ele>364.0</ele><time>2026-04-29T12:59:24Z</time></trkpt><trkpt lat="42.288105528069046" lon="12.066356971848949"><ele>364.0</ele><time>2026-04-29T12:59:26Z</time></trkpt><trkpt lat="42.28818189873921" lon="12.066378608529813"><ele>364.0</ele><time>2026-04-29T12:59:29Z</time></trkpt><trkpt lat="42.28824710682246" lon="12.066355865292651"><ele>364.0</ele><time>2026-04-29T12:59:31Z</time></trkpt><trkpt lat="42.28830363904374" lon="12.066309977453873"><ele>364.16666666666663</ele><time>2026-04-29T12:59:33Z</time></trkpt><trkpt lat="42.28838192919916" lon="12.066231930993284"><ele>364.3333333333333</ele><time>2026-04-29T12:59:36Z</time></trkpt><trkpt lat="42.28845673815146" lon="12.066173151546437"><ele>364.5</ele><time>2026-04-29T12:59:39Z</time></trkpt><trkpt lat="42.28848762804114" lon="12.06609572432029"><ele>364.6666666666667</ele><time>2026-04-29T12:59:43Z</time></trkpt><trkpt lat="42.288403384811105" lon="12.066132110696302"><ele>364.83333333333337</ele><time>2026-04-29T13:04:05Z</time></trkpt><trkpt lat="42.28834789563841" lon="12.06620598233077"><ele>365.0</ele><time>2026-04-29T13:04:08Z</time></trkpt><trkpt lat="42.28831387328985" lon="12.066283096066863"><ele>365.0</ele><time>2026-04-29T13:04:16Z</time></trkpt><trkpt lat="42.2882433293521" lon="12.06634043694674"><ele>365.0</ele><time>2026-04-29T13:04:19Z</time></trkpt><trkpt lat="42.28813597049245" lon="12.066363280460964"><ele>365.0</ele><time>2026-04-29T13:04:21Z</time></trkpt><trkpt lat="42.288038817079986" lon="12.066337595511438"><ele>365.0</ele><time>2026-04-29T13:04:23Z</time></trkpt><trkpt lat="42.287930948653255" lon="12.066298024621307"><ele>365.0</ele><time>2026-04-29T13:04:25Z</time></trkpt><trkpt lat="42.287818619393846" lon="12.066249944219543"><ele>364.83333333333337</ele><time>2026-04-29T13:04:27Z</time></trkpt><trkpt lat="42.28772890373978" lon="12.06626541692805"><ele>364.6666666666667</ele><time>2026-04-29T13:04:29Z</time></trkpt><trkpt lat="42.28766976875769" lon="12.066332263011365"><ele>364.5</ele><time>2026-04-29T13:04:31Z</time></trkpt><trkpt lat="42.28761764686683" lon="12.066430887508908"><ele>364.3333333333333</ele><time>2026-04-29T13:04:33Z</time></trkpt><trkpt lat="42.287579206980105" lon="12.0665420070023"><ele>364.16666666666663</ele><time>2026-04-29T13:04:35Z</time></trkpt><trkpt lat="42.2875673127493" lon="12.066648254530786"><ele>364.0</ele><time>2026-04-29T13:04:38Z</time></trkpt><trkpt lat="42.28761599608163" lon="12.066741114771755"><ele>366.66666666666663</ele><time>2026-04-29T13:04:41Z</time></trkpt><trkpt lat="42.287676114676344" lon="12.066786993441609"><ele>369.3333333333333</ele><time>2026-04-29T13:04:43Z</time></trkpt><trkpt lat="42.28775831071507" lon="12.066798981581599"><ele>372.0</ele><time>2026-04-29T13:04:45Z</time></trkpt><trkpt lat="42.28786053001843" lon="12.066823554329542"><ele>374.6666666666667</ele><time>2026-04-29T13:04:47Z</time></trkpt><trkpt lat="42.28794077922991" lon="12.06683866137241"><ele>377.33333333333337</ele><time>2026-04-29T13:04:49Z</time></trkpt><trkpt lat="42.288019976114114" lon="12.066895350143286"><ele>380.0</ele><time>2026-04-29T13:04:52Z</time></trkpt><trkpt lat="42.28805056796246" lon="12.066970863673724"><ele>380.33333333333337</ele><time>2026-04-29T13:04:54Z</time></trkpt><trkpt lat="42.288103200207544" lon="12.067075254699894"><ele>380.6666666666667</ele><time>2026-04-29T13:04:56Z</time></trkpt><trkpt lat="42.28813893760731" lon="12.06718906798492"><ele>381.0</ele><time>2026-04-29T13:04:58Z</time></trkpt><trkpt lat="42.28814405262425" lon="12.06727695971623"><ele>381.3333333333333</ele><time>2026-04-29T13:04:59Z</time></trkpt><trkpt lat="42.28814290462182" lon="12.067365241033764"><ele>381.66666666666663</ele><time>2026-04-29T13:05:00Z</time></trkpt><trkpt lat="42.288149537609115" lon="12.067500997227281"><ele>382.0</ele><time>2026-04-29T13:05:02Z</time></trkpt><trkpt lat="42.28812135088737" lon="12.06760337886693"><ele>383.40000000000003</ele><time>2026-04-29T13:05:04Z</time></trkpt><trkpt lat="42.28805614873416" lon="12.067735082048145"><ele>384.8</ele><time>2026-04-29T13:05:06Z</time></trkpt><trkpt lat="42.288025178156374" lon="12.067814239631824"><ele>386.2</ele><time>2026-04-29T13:05:07Z</time></trkpt><trkpt lat="42.2879951240943" lon="12.067950581315815"><ele>387.6</ele><time>2026-04-29T13:05:09Z</time></trkpt><trkpt lat="42.288020658426355" lon="12.068084934851106"><ele>389.0</ele><time>2026-04-29T13:05:11Z</time></trkpt><trkpt lat="42.28801451121772" lon="12.068188503806681"><ele>390.0</ele><time>2026-04-29T13:05:12Z</time></trkpt><trkpt lat="42.287994491837125" lon="12.06830378581245"><ele>391.0</ele><time>2026-04-29T13:05:13Z</time></trkpt><trkpt lat="42.28798539290235" lon="12.068399604173454"><ele>392.0</ele><time>2026-04-29T13:05:14Z</time></trkpt><trkpt lat="42.2879774359192" lon="12.068565685370137"><ele>393.0</ele><time>2026-04-29T13:05:16Z</time></trkpt><trkpt lat="42.28797975492211" lon="12.068727374682458"><ele>394.0</ele><time>2026-04-29T13:05:18Z</time></trkpt><trkpt lat="42.28797727106508" lon="12.068881312160478"><ele>394.0</ele><time>2026-04-29T13:05:20Z</time></trkpt><trkpt lat="42.287973432946934" lon="12.068998124802196"><ele>394.0</ele><time>2026-04-29T13:05:22Z</time></trkpt><trkpt lat="42.28797150356645" lon="12.069135054491124"><ele>394.0</ele><time>2026-04-29T13:05:24Z</time></trkpt><trkpt lat="42.28797426429366" lon="12.069247685847788"><ele>394.0</ele><time>2026-04-29T13:05:26Z</time></trkpt><trkpt lat="42.28798387852184" lon="12.069366660039089"><ele>394.0</ele><time>2026-04-29T13:05:28Z</time></trkpt><trkpt lat="42.287987335597975" lon="12.069511142103066"><ele>395.2</ele><time>2026-04-29T13:05:30Z</time></trkpt><trkpt lat="42.28798941240988" lon="12.069650677009909"><ele>396.4</ele><time>2026-04-29T13:05:32Z</time></trkpt><trkpt lat="42.287981006592396" lon="12.069785210414203"><ele>397.6</ele><time>2026-04-29T13:05:34Z</time></trkpt><trkpt lat="42.2879850905305" lon="12.069899532747648"><ele>398.8</ele><time>2026-04-29T13:05:36Z</time></trkpt><trkpt lat="42.28800326093205" lon="12.07002735968427"><ele>400.0</ele><time>2026-04-29T13:05:38Z</time></trkpt><trkpt lat="42.288020539198406" lon="12.07018040445843"><ele>400.8</ele><time>2026-04-29T13:05:40Z</time></trkpt><trkpt lat="42.2880268121983" lon="12.070267011137831"><ele>401.6</ele><time>2026-04-29T13:05:41Z</time></trkpt><trkpt lat="42.28804964058561" lon="12.070442211753507"><ele>402.4</ele><time>2026-04-29T13:05:43Z</time></trkpt><trkpt lat="42.28808770351187" lon="12.070598201474759"><ele>403.2</ele><time>2026-04-29T13:05:45Z</time></trkpt><trkpt lat="42.288123600096306" lon="12.070747642015684"><ele>404.0</ele><time>2026-04-29T13:05:47Z</time></trkpt><trkpt lat="42.28814767984893" lon="12.070920914765654"><ele>405.0</ele><time>2026-04-29T13:05:49Z</time></trkpt><trkpt lat="42.288181375409465" lon="12.071072599623704"><ele>406.0</ele><time>2026-04-29T13:05:51Z</time></trkpt><trkpt lat="42.28819008389228" lon="12.071178398818764"><ele>407.0</ele><time>2026-04-29T13:05:52Z</time></trkpt><trkpt lat="42.288194378309086" lon="12.071269509432186"><ele>408.0</ele><time>2026-04-29T13:05:53Z</time></trkpt><trkpt lat="42.28819697859466" lon="12.071421007638705"><ele>409.0</ele><time>2026-04-29T13:05:55Z</time></trkpt><trkpt lat="42.288216169435806" lon="12.071566509766892"><ele>409.4</ele><time>2026-04-29T13:05:57Z</time></trkpt><trkpt lat="42.28823335157001" lon="12.071726259437527"><ele>409.79999999999995</ele><time>2026-04-29T13:05:59Z</time></trkpt><trkpt lat="42.28825272088487" lon="12.07188676111426"><ele>410.20000000000005</ele><time>2026-04-29T13:06:01Z</time></trkpt><trkpt lat="42.28826481149814" lon="12.072056247763989"><ele>410.6</ele><time>2026-04-29T13:06:03Z</time></trkpt><trkpt lat="42.28824853253429" lon="12.072146047982535"><ele>411.0</ele><time>2026-04-29T13:06:04Z</time></trkpt><trkpt lat="42.2882450199856" lon="12.072239521115037"><ele>411.0</ele><time>2026-04-29T13:06:05Z</time></trkpt><trkpt lat="42.28822828695775" lon="12.07238568920429"><ele>411.0</ele><time>2026-04-29T13:06:07Z</time></trkpt><trkpt lat="42.28821952698166" lon="12.072476424195955"><ele>411.0</ele><time>2026-04-29T13:06:09Z</time></trkpt><trkpt lat="42.288310826273566" lon="12.07267875997636"><ele>411.0</ele><time>2026-04-29T13:11:35Z</time></trkpt><trkpt lat="42.28841143987309" lon="12.072700890889458"><ele>410.8</ele><time>2026-04-29T13:11:36Z</time></trkpt><trkpt lat="42.28850337460662" lon="12.07273745918619"><ele>410.6</ele><time>2026-04-29T13:11:38Z</time></trkpt><trkpt lat="42.2885735769148" lon="12.072728615764484"><ele>410.4</ele><time>2026-04-29T13:11:39Z</time></trkpt><trkpt lat="42.28866619725445" lon="12.072753764564773"><ele>410.2</ele><time>2026-04-29T13:11:40Z</time></trkpt><trkpt lat="42.288817669287255" lon="12.072750673474825"><ele>410.0</ele><time>2026-04-29T13:11:41Z</time></trkpt><trkpt lat="42.28899170192546" lon="12.072675246328156"><ele>410.0</ele><time>2026-04-29T13:11:42Z</time></trkpt><trkpt lat="42.28917109992382" lon="12.072634027555987"><ele>410.0</ele><time>2026-04-29T13:11:43Z</time></trkpt><trkpt lat="42.28933635136903" lon="12.072598300839868"><ele>410.0</ele><time>2026-04-29T13:11:44Z</time></trkpt><trkpt lat="42.28947239738461" lon="12.072570694655283"><ele>410.0</ele><time>2026-04-29T13:11:45Z</time></trkpt><trkpt lat="42.28959363819551" lon="12.072530810221124"><ele>410.0</ele><time>2026-04-29T13:11:46Z</time></trkpt><trkpt lat="42.28974073716937" lon="12.07250381982532"><ele>410.0</ele><time>2026-04-29T13:11:47Z</time></trkpt><trkpt lat="42.28986496917795" lon="12.072498046697442"><ele>410.0</ele><time>2026-04-29T13:11:48Z</time></trkpt><trkpt lat="42.28998494484159" lon="12.072484993934262"><ele>411.0</ele><time>2026-04-29T13:11:49Z</time></trkpt><trkpt lat="42.29008518287615" lon="12.07245945020173"><ele>412.0</ele><time>2026-04-29T13:11:50Z</time></trkpt><trkpt lat="42.29021144973946" lon="12.072426908268165"><ele>413.0</ele><time>2026-04-29T13:11:51Z</time></trkpt><trkpt lat="42.29033408223137" lon="12.072374452629479"><ele>414.0</ele><time>2026-04-29T13:11:52Z</time></trkpt><trkpt lat="42.29046707321986" lon="12.072350777330136"><ele>413.33333333333337</ele><time>2026-04-29T13:11:53Z</time></trkpt><trkpt lat="42.29062965103673" lon="12.072301206252824"><ele>412.6666666666667</ele><time>2026-04-29T13:11:54Z</time></trkpt><trkpt lat="42.290810637513154" lon="12.072216382935048"><ele>412.0</ele><time>2026-04-29T13:11:55Z</time></trkpt><trkpt lat="42.29099697512411" lon="12.072080698138791"><ele>412.0</ele><time>2026-04-29T13:11:56Z</time></trkpt><trkpt lat="42.291150850697456" lon="12.07191236191007"><ele>412.0</ele><time>2026-04-29T13:11:57Z</time></trkpt><trkpt lat="42.291259268577136" lon="12.071761122790264"><ele>412.0</ele><time>2026-04-29T13:11:58Z</time></trkpt><trkpt lat="42.29136434870716" lon="12.07164072893669"><ele>405.6666666666667</ele><time>2026-04-29T13:11:59Z</time></trkpt><trkpt lat="42.291496115996225" lon="12.071543997689849"><ele>399.33333333333337</ele><time>2026-04-29T13:12:00Z</time></trkpt><trkpt lat="42.29167240537997" lon="12.071521304997228"><ele>393.0</ele><time>2026-04-29T13:12:01Z</time></trkpt><trkpt lat="42.29184813832043" lon="12.071535074334763"><ele>393.0</ele><time>2026-04-29T13:12:02Z</time></trkpt><trkpt lat="42.29199463717603" lon="12.07155438369286"><ele>393.0</ele><time>2026-04-29T13:12:03Z</time></trkpt><trkpt lat="42.292145793514706" lon="12.071632040526488"><ele>393.0</ele><time>2026-04-29T13:12:04Z</time></trkpt><trkpt lat="42.29227548637804" lon="12.071749877291467"><ele>392.75</ele><time>2026-04-29T13:12:05Z</time></trkpt><trkpt lat="42.29238089116176" lon="12.071882614641542"><ele>392.5</ele><time>2026-04-29T13:12:06Z</time></trkpt><trkpt lat="42.29248714589357" lon="12.072023119518118"><ele>392.25</ele><time>2026-04-29T13:12:07Z</time></trkpt><trkpt lat="42.29256729268463" lon="12.07216368836748"><ele>392.0</ele><time>2026-04-29T13:12:08Z</time></trkpt><trkpt lat="42.292650601521565" lon="12.072314012576932"><ele>394.75</ele><time>2026-04-29T13:12:09Z</time></trkpt><trkpt lat="42.29274256598464" lon="12.072456743769427"><ele>397.5</ele><time>2026-04-29T13:12:10Z</time></trkpt><trkpt lat="42.2928294259199" lon="12.072597283308076"><ele>400.25</ele><time>2026-04-29T13:12:11Z</time></trkpt><trkpt lat="42.292946491914414" lon="12.072718807095503"><ele>403.0</ele><time>2026-04-29T13:12:12Z</time></trkpt><trkpt lat="42.29307335212223" lon="12.072825685955184"><ele>399.75</ele><time>2026-04-29T13:12:13Z</time></trkpt><trkpt lat="42.29319918287003" lon="12.072906734973362"><ele>396.5</ele><time>2026-04-29T13:12:14Z</time></trkpt><trkpt lat="42.29331086419751" lon="12.0729746733746"><ele>393.25</ele><time>2026-04-29T13:12:15Z</time></trkpt><trkpt lat="42.293406972438405" lon="12.073029049850211"><ele>390.0</ele><time>2026-04-29T13:12:16Z</time></trkpt><trkpt lat="42.293480811318815" lon="12.073083544593578"><ele>390.0</ele><time>2026-04-29T13:12:17Z</time></trkpt><trkpt lat="42.29357500681607" lon="12.073148925727457"><ele>390.0</ele><time>2026-04-29T13:12:19Z</time></trkpt><trkpt lat="42.29363414424304" lon="12.073205128995305"><ele>390.0</ele><time>2026-04-29T13:12:22Z</time></trkpt><trkpt lat="42.293693895892694" lon="12.073260921378902"><ele>390.0</ele><time>2026-04-29T13:12:45Z</time></trkpt><trkpt lat="42.29376274400729" lon="12.073307579388244"><ele>390.0</ele><time>2026-04-29T13:12:46Z</time></trkpt><trkpt lat="42.29383367519293" lon="12.073362090741353"><ele>390.0</ele><time>2026-04-29T13:12:47Z</time></trkpt><trkpt lat="42.29389332056692" lon="12.073450177878858"><ele>390.25</ele><time>2026-04-29T13:12:48Z</time></trkpt><trkpt lat="42.29393379893832" lon="12.073568124468451"><ele>390.5</ele><time>2026-04-29T13:12:49Z</time></trkpt><trkpt lat="42.29396338950365" lon="12.073728464145795"><ele>390.75</ele><time>2026-04-29T13:12:50Z</time></trkpt><trkpt lat="42.29398739833959" lon="12.073894565847281"><ele>391.0</ele><time>2026-04-29T13:12:51Z</time></trkpt><trkpt lat="42.29401810802559" lon="12.074088165371855"><ele>391.33333333333337</ele><time>2026-04-29T13:12:52Z</time></trkpt><trkpt lat="42.294047064387556" lon="12.074311474322046"><ele>391.66666666666663</ele><time>2026-04-29T13:12:53Z</time></trkpt><trkpt lat="42.29407706585852" lon="12.07453629395767"><ele>392.0</ele><time>2026-04-29T13:12:54Z</time></trkpt><trkpt lat="42.29410563211658" lon="12.074771777984157"><ele>393.3333333333333</ele><time>2026-04-29T13:12:55Z</time></trkpt><trkpt lat="42.29412654245105" lon="12.075014946690947"><ele>394.66666666666663</ele><time>2026-04-29T13:12:56Z</time></trkpt><trkpt lat="42.2941466499281" lon="12.075263921614367"><ele>396.0</ele><time>2026-04-29T13:12:57Z</time></trkpt><trkpt lat="42.29415586605963" lon="12.075514602044759"><ele>396.0</ele><time>2026-04-29T13:12:58Z</time></trkpt><trkpt lat="42.294158109105275" lon="12.075744876099348"><ele>396.0</ele><time>2026-04-29T13:12:59Z</time></trkpt><trkpt lat="42.29413275699552" lon="12.075964167658437"><ele>396.0</ele><time>2026-04-29T13:13:00Z</time></trkpt><trkpt lat="42.294122735707134" lon="12.076169183066124"><ele>396.75</ele><time>2026-04-29T13:13:01Z</time></trkpt><trkpt lat="42.294119046231046" lon="12.076354434276366"><ele>397.5</ele><time>2026-04-29T13:13:02Z</time></trkpt><trkpt lat="42.29409059267481" lon="12.07651310244865"><ele>398.25</ele><time>2026-04-29T13:13:03Z</time></trkpt><trkpt lat="42.294195778624406" lon="12.076667405981434"><ele>399.0</ele><time>2026-04-29T13:13:04Z</time></trkpt><trkpt lat="42.29425740091187" lon="12.076824845570556"><ele>399.66666666666663</ele><time>2026-04-29T13:13:05Z</time></trkpt><trkpt lat="42.294316749110706" lon="12.076999470692533"><ele>400.3333333333333</ele><time>2026-04-29T13:13:06Z</time></trkpt><trkpt lat="42.294361963589836" lon="12.077192469941506"><ele>401.0</ele><time>2026-04-29T13:13:07Z</time></trkpt><trkpt lat="42.294402896848325" lon="12.077407629597994"><ele>401.66666666666663</ele><time>2026-04-29T13:13:08Z</time></trkpt><trkpt lat="42.29444842308848" lon="12.077632588895389"><ele>402.33333333333337</ele><time>2026-04-29T13:13:09Z</time></trkpt><trkpt lat="42.29448789463846" lon="12.077838809683028"><ele>403.0</ele><time>2026-04-29T13:13:10Z</time></trkpt><trkpt lat="42.29452253577341" lon="12.078027943370174"><ele>403.0</ele><time>2026-04-29T13:13:11Z</time></trkpt><trkpt lat="42.29455640388971" lon="12.078200842734768"><ele>403.0</ele><time>2026-04-29T13:13:12Z</time></trkpt><trkpt lat="42.29457916515405" lon="12.07834746262471"><ele>403.0</ele><time>2026-04-29T13:13:13Z</time></trkpt><trkpt lat="42.29453196276182" lon="12.078501663656368"><ele>403.0</ele><time>2026-04-29T13:13:15Z</time></trkpt><trkpt lat="42.2944866364021" lon="12.07859409181015"><ele>403.0</ele><time>2026-04-29T13:13:16Z</time></trkpt><trkpt lat="42.29444257812751" lon="12.078688221723977"><ele>403.6666666666667</ele><time>2026-04-29T13:13:17Z</time></trkpt><trkpt lat="42.29441120828676" lon="12.078786429068368"><ele>404.33333333333337</ele><time>2026-04-29T13:13:18Z</time></trkpt><trkpt lat="42.29436744684071" lon="12.078879780941232"><ele>405.0</ele><time>2026-04-29T13:13:19Z</time></trkpt><trkpt lat="42.29430567169123" lon="12.078964073821519"><ele>405.66666666666663</ele><time>2026-04-29T13:13:20Z</time></trkpt><trkpt lat="42.294255296751395" lon="12.079068661933944"><ele>406.3333333333333</ele><time>2026-04-29T13:13:21Z</time></trkpt><trkpt lat="42.29420600912428" lon="12.07918268250615"><ele>407.0</ele><time>2026-04-29T13:13:22Z</time></trkpt><trkpt lat="42.294148918816546" lon="12.079294802254543"><ele>407.6</ele><time>2026-04-29T13:13:23Z</time></trkpt><trkpt lat="42.29407919764539" lon="12.079401374413244"><ele>408.20000000000005</ele><time>2026-04-29T13:13:24Z</time></trkpt><trkpt lat="42.29400315841269" lon="12.079512060294492"><ele>408.8</ele><time>2026-04-29T13:13:25Z</time></trkpt><trkpt lat="42.29392542453152" lon="12.079626077042294"><ele>409.4</ele><time>2026-04-29T13:13:26Z</time></trkpt><trkpt lat="42.293849381706806" lon="12.079738190898112"><ele>410.0</ele><time>2026-04-29T13:13:27Z</time></trkpt><trkpt lat="42.293787556270345" lon="12.079866015444097"><ele>410.4</ele><time>2026-04-29T13:13:28Z</time></trkpt><trkpt lat="42.29370808509824" lon="12.079982790430085"><ele>410.8</ele><time>2026-04-29T13:13:29Z</time></trkpt><trkpt lat="42.2936384021463" lon="12.080105129350004"><ele>411.20000000000005</ele><time>2026-04-29T13:13:30Z</time></trkpt><trkpt lat="42.29359316611976" lon="12.080231744532696"><ele>411.6</ele><time>2026-04-29T13:13:31Z</time></trkpt><trkpt lat="42.293567762509966" lon="12.080363831299074"><ele>412.0</ele><time>2026-04-29T13:13:32Z</time></trkpt><trkpt lat="42.293543492267325" lon="12.080495624390082"><ele>412.0</ele><time>2026-04-29T13:13:33Z</time></trkpt><trkpt lat="42.29354054625931" lon="12.080639658942529"><ele>412.0</ele><time>2026-04-29T13:13:34Z</time></trkpt><trkpt lat="42.29354709138643" lon="12.080779954622619"><ele>412.0</ele><time>2026-04-29T13:13:35Z</time></trkpt><trkpt lat="42.29357411380742" lon="12.080908795981339"><ele>412.0</ele><time>2026-04-29T13:13:36Z</time></trkpt><trkpt lat="42.29363197421079" lon="12.081021461728998"><ele>412.0</ele><time>2026-04-29T13:13:37Z</time></trkpt><trkpt lat="42.29369388852455" lon="12.081127964165715"><ele>411.75</ele><time>2026-04-29T13:13:38Z</time></trkpt><trkpt lat="42.293773475240435" lon="12.081223839280081"><ele>411.5</ele><time>2026-04-29T13:13:39Z</time></trkpt><trkpt lat="42.29386836255057" lon="12.081308666578739"><ele>411.25</ele><time>2026-04-29T13:13:40Z</time></trkpt><trkpt lat="42.29398584386974" lon="12.081383357129445"><ele>411.0</ele><time>2026-04-29T13:13:41Z</time></trkpt><trkpt lat="42.2941211640819" lon="12.081451041839953"><ele>409.33333333333337</ele><time>2026-04-29T13:13:42Z</time></trkpt><trkpt lat="42.29426696384365" lon="12.081517810663861"><ele>407.6666666666667</ele><time>2026-04-29T13:13:43Z</time></trkpt><trkpt lat="42.294422488398844" lon="12.081589397554566"><ele>406.0</ele><time>2026-04-29T13:13:44Z</time></trkpt><trkpt lat="42.2945789995975" lon="12.0816619207011"><ele>406.0</ele><time>2026-04-29T13:13:45Z</time></trkpt><trkpt lat="42.294741304268655" lon="12.081739432735077"><ele>406.0</ele><time>2026-04-29T13:13:46Z</time></trkpt><trkpt lat="42.294908063450734" lon="12.081821241112499"><ele>406.0</ele><time>2026-04-29T13:13:47Z</time></trkpt><trkpt lat="42.29508109604648" lon="12.081900479268867"><ele>406.0</ele><time>2026-04-29T13:13:48Z</time></trkpt><trkpt lat="42.295257109522105" lon="12.081977352218974"><ele>406.0</ele><time>2026-04-29T13:13:49Z</time></trkpt><trkpt lat="42.29542998208561" lon="12.082055718288869"><ele>406.0</ele><time>2026-04-29T13:13:50Z</time></trkpt><trkpt lat="42.29559773117965" lon="12.082134390536394"><ele>406.0</ele><time>2026-04-29T13:13:51Z</time></trkpt><trkpt lat="42.295746795195015" lon="12.082201964173255"><ele>406.0</ele><time>2026-04-29T13:13:52Z</time></trkpt><trkpt lat="42.29587496748603" lon="12.082259565222838"><ele>406.0</ele><time>2026-04-29T13:13:53Z</time></trkpt><trkpt lat="42.29599481459498" lon="12.082302166257362"><ele>406.0</ele><time>2026-04-29T13:13:54Z</time></trkpt><trkpt lat="42.29611124247513" lon="12.082330854010245"><ele>406.0</ele><time>2026-04-29T13:13:55Z</time></trkpt><trkpt lat="42.2962280840883" lon="12.082355469532562"><ele>406.0</ele><time>2026-04-29T13:13:56Z</time></trkpt><trkpt lat="42.29634539758266" lon="12.082382694661982"><ele>406.0</ele><time>2026-04-29T13:13:57Z</time></trkpt><trkpt lat="42.296459596380075" lon="12.082414476917114"><ele>406.0</ele><time>2026-04-29T13:13:58Z</time></trkpt><trkpt lat="42.296578925264605" lon="12.082441728532865"><ele>405.5</ele><time>2026-04-29T13:13:59Z</time></trkpt><trkpt lat="42.29669896855721" lon="12.082487255369337"><ele>405.0</ele><time>2026-04-29T13:14:00Z</time></trkpt><trkpt lat="42.29682153217883" lon="12.082559439579112"><ele>404.5</ele><time>2026-04-29T13:14:01Z</time></trkpt><trkpt lat="42.296960821098644" lon="12.082659068231928"><ele>404.0</ele><time>2026-04-29T13:14:02Z</time></trkpt><trkpt lat="42.297105718427936" lon="12.082765707671133"><ele>402.3333333333333</ele><time>2026-04-29T13:14:03Z</time></trkpt><trkpt lat="42.2972688835406" lon="12.08287980161357"><ele>400.66666666666663</ele><time>2026-04-29T13:14:04Z</time></trkpt><trkpt lat="42.29746376186962" lon="12.083002756016416"><ele>399.0</ele><time>2026-04-29T13:14:05Z</time></trkpt><trkpt lat="42.29765513127901" lon="12.083132561572045"><ele>399.0</ele><time>2026-04-29T13:14:06Z</time></trkpt><trkpt lat="42.29783053804204" lon="12.083251769053279"><ele>399.0</ele><time>2026-04-29T13:14:07Z</time></trkpt><trkpt lat="42.29797686630999" lon="12.083367602952979"><ele>399.0</ele><time>2026-04-29T13:14:08Z</time></trkpt><trkpt lat="42.2981154483598" lon="12.083495957375037"><ele>396.75</ele><time>2026-04-29T13:14:09Z</time></trkpt><trkpt lat="42.29824499371173" lon="12.083609794458456"><ele>394.5</ele><time>2026-04-29T13:14:10Z</time></trkpt><trkpt lat="42.298369579096935" lon="12.083709134075105"><ele>392.25</ele><time>2026-04-29T13:14:11Z</time></trkpt><trkpt lat="42.29848664343279" lon="12.08378162845324"><ele>390.0</ele><time>2026-04-29T13:14:12Z</time></trkpt><trkpt lat="42.29859712930702" lon="12.0838265538128"><ele>390.0</ele><time>2026-04-29T13:14:13Z</time></trkpt><trkpt lat="42.29870132167693" lon="12.083843670333156"><ele>390.0</ele><time>2026-04-29T13:14:14Z</time></trkpt><trkpt lat="42.298800872759244" lon="12.083826408306724"><ele>390.0</ele><time>2026-04-29T13:14:15Z</time></trkpt><trkpt lat="42.298917725575386" lon="12.083799469306706"><ele>390.0</ele><time>2026-04-29T13:14:16Z</time></trkpt><trkpt lat="42.29903484195434" lon="12.083738650051323"><ele>390.0</ele><time>2026-04-29T13:14:17Z</time></trkpt><trkpt lat="42.299157846318906" lon="12.083683510206116"><ele>390.25</ele><time>2026-04-29T13:14:18Z</time></trkpt><trkpt lat="42.29927016619814" lon="12.08360212427948"><ele>390.5</ele><time>2026-04-29T13:14:19Z</time></trkpt><trkpt lat="42.2993844663204" lon="12.083512453287378"><ele>390.75</ele><time>2026-04-29T13:14:20Z</time></trkpt><trkpt lat="42.29950359073013" lon="12.083454723301513"><ele>391.0</ele><time>2026-04-29T13:14:21Z</time></trkpt><trkpt lat="42.29964198479684" lon="12.083455458107384"><ele>392.6666666666667</ele><time>2026-04-29T13:14:22Z</time></trkpt><trkpt lat="42.299790682849455" lon="12.08349603242036"><ele>394.33333333333337</ele><time>2026-04-29T13:14:23Z</time></trkpt><trkpt lat="42.299938167219416" lon="12.083558041017485"><ele>396.0</ele><time>2026-04-29T13:14:24Z</time></trkpt><trkpt lat="42.30010506575722" lon="12.083616567403642"><ele>396.0</ele><time>2026-04-29T13:14:25Z</time></trkpt><trkpt lat="42.30025262436184" lon="12.083682347313587"><ele>396.0</ele><time>2026-04-29T13:14:26Z</time></trkpt><trkpt lat="42.300392319433136" lon="12.083752969968762"><ele>396.0</ele><time>2026-04-29T13:14:27Z</time></trkpt><trkpt lat="42.30050655725194" lon="12.08382109779495"><ele>396.0</ele><time>2026-04-29T13:14:28Z</time></trkpt><trkpt lat="42.3006193421687" lon="12.083879400238818"><ele>397.20000000000005</ele><time>2026-04-29T13:14:29Z</time></trkpt><trkpt lat="42.300731793308906" lon="12.08393069590979"><ele>398.40000000000003</ele><time>2026-04-29T13:14:30Z</time></trkpt><trkpt lat="42.30082652188509" lon="12.0839660408945"><ele>399.6</ele><time>2026-04-29T13:14:31Z</time></trkpt><trkpt lat="42.30092138924334" lon="12.084032796088838"><ele>400.8</ele><time>2026-04-29T13:14:33Z</time></trkpt><trkpt lat="42.300987068004616" lon="12.084047019045197"><ele>402.0</ele><time>2026-04-29T13:14:34Z</time></trkpt><trkpt lat="42.301068690945826" lon="12.084073519889618"><ele>402.0</ele><time>2026-04-29T13:14:36Z</time></trkpt><trkpt lat="42.301133560597286" lon="12.084080270753146"><ele>402.0</ele><time>2026-04-29T13:14:49Z</time></trkpt><trkpt lat="42.301223867560175" lon="12.084134924769852"><ele>402.0</ele><time>2026-04-29T13:14:51Z</time></trkpt><trkpt lat="42.30121736415475" lon="12.084327979606666"><ele>402.0</ele><time>2026-04-29T13:14:52Z</time></trkpt><trkpt lat="42.301246195544095" lon="12.084470009948726"><ele>402.0</ele><time>2026-04-29T13:14:53Z</time></trkpt><trkpt lat="42.301273445632624" lon="12.08460425060317"><ele>402.0</ele><time>2026-04-29T13:14:54Z</time></trkpt><trkpt lat="42.30130452450115" lon="12.08474749906348"><ele>402.0</ele><time>2026-04-29T13:14:55Z</time></trkpt><trkpt lat="42.30133929315049" lon="12.08489849672704"><ele>402.0</ele><time>2026-04-29T13:14:56Z</time></trkpt><trkpt lat="42.301381030381165" lon="12.0850640655586"><ele>402.0</ele><time>2026-04-29T13:14:57Z</time></trkpt><trkpt lat="42.30144273489804" lon="12.085233113609776"><ele>401.5</ele><time>2026-04-29T13:14:58Z</time></trkpt><trkpt lat="42.301493636850964" lon="12.085416699991677"><ele>401.0</ele><time>2026-04-29T13:14:59Z</time></trkpt><trkpt lat="42.301549304898465" lon="12.085590440593569"><ele>400.5</ele><time>2026-04-29T13:15:00Z</time></trkpt><trkpt lat="42.30158869416599" lon="12.085755028144481"><ele>400.0</ele><time>2026-04-29T13:15:01Z</time></trkpt><trkpt lat="42.30162493435241" lon="12.08590997068456"><ele>400.0</ele><time>2026-04-29T13:15:02Z</time></trkpt><trkpt lat="42.30166401178084" lon="12.086059479517479"><ele>400.0</ele><time>2026-04-29T13:15:03Z</time></trkpt><trkpt lat="42.30166887433829" lon="12.08622564068804"><ele>400.0</ele><time>2026-04-29T13:15:04Z</time></trkpt><trkpt lat="42.301665951262024" lon="12.086398622973615"><ele>400.0</ele><time>2026-04-29T13:15:05Z</time></trkpt><trkpt lat="42.301657489157435" lon="12.086580556801922"><ele>400.0</ele><time>2026-04-29T13:15:06Z</time></trkpt><trkpt lat="42.30164646001893" lon="12.086772406679573"><ele>400.0</ele><time>2026-04-29T13:15:07Z</time></trkpt><trkpt lat="42.30163610516936" lon="12.086975774977066"><ele>400.0</ele><time>2026-04-29T13:15:08Z</time></trkpt><trkpt lat="42.30162939663367" lon="12.087184157163401"><ele>400.0</ele><time>2026-04-29T13:15:09Z</time></trkpt><trkpt lat="42.301603837014255" lon="12.087368299637674"><ele>400.2</ele><time>2026-04-29T13:15:10Z</time></trkpt><trkpt lat="42.30160756115735" lon="12.087530607364085"><ele>400.4</ele><time>2026-04-29T13:15:11Z</time></trkpt><trkpt lat="42.301597064229135" lon="12.087662820492096"><ele>400.6</ele><time>2026-04-29T13:15:12Z</time></trkpt><trkpt lat="42.30159782242043" lon="12.08777223063155"><ele>400.8</ele><time>2026-04-29T13:15:13Z</time></trkpt><trkpt lat="42.30160780221791" lon="12.087868298431285"><ele>401.0</ele><time>2026-04-29T13:15:14Z</time></trkpt><trkpt lat="42.301683481169945" lon="12.087928817839257"><ele>401.0</ele><time>2026-04-29T13:15:15Z</time></trkpt><trkpt lat="42.30177043581954" lon="12.087985517910584"><ele>401.0</ele><time>2026-04-29T13:15:16Z</time></trkpt><trkpt lat="42.301878436045705" lon="12.088038353767807"><ele>401.0</ele><time>2026-04-29T13:15:17Z</time></trkpt><trkpt lat="42.30200075930878" lon="12.088111667523119"><ele>401.0</ele><time>2026-04-29T13:15:18Z</time></trkpt><trkpt lat="42.30213351945071" lon="12.088176580979928"><ele>400.8</ele><time>2026-04-29T13:15:19Z</time></trkpt><trkpt lat="42.30225550707332" lon="12.088219028591043"><ele>400.6</ele><time>2026-04-29T13:15:20Z</time></trkpt><trkpt lat="42.30236515975226" lon="12.088279200527438"><ele>400.4</ele><time>2026-04-29T13:15:21Z</time></trkpt><trkpt lat="42.30245910014612" lon="12.088315489771427"><ele>400.2</ele><time>2026-04-29T13:15:22Z</time></trkpt><trkpt lat="42.302530491412654" lon="12.088352198962141"><ele>400.0</ele><time>2026-04-29T13:15:23Z</time></trkpt><trkpt lat="42.302607060404924" lon="12.088411642870403"><ele>400.00000000000006</ele><time>2026-04-29T13:15:25Z</time></trkpt><trkpt lat="42.30259740083147" lon="12.088540159421976"><ele>400.0</ele><time>2026-04-29T13:15:28Z</time></trkpt><trkpt lat="42.30255014834074" lon="12.088601442639884"><ele>400.0</ele><time>2026-04-29T13:15:29Z</time></trkpt><trkpt lat="42.30248983415312" lon="12.088670100066865"><ele>400.0</ele><time>2026-04-29T13:15:30Z</time></trkpt><trkpt lat="42.30242267259978" lon="12.088768833925828"><ele>400.00000000000006</ele><time>2026-04-29T13:15:31Z</time></trkpt><trkpt lat="42.30233680204878" lon="12.088862440226773"><ele>400.0</ele><time>2026-04-29T13:15:32Z</time></trkpt><trkpt lat="42.30225796441792" lon="12.088976176039887"><ele>400.0</ele><time>2026-04-29T13:15:33Z</time></trkpt><trkpt lat="42.302166450472754" lon="12.089108369509724"><ele>400.0</ele><time>2026-04-29T13:15:34Z</time></trkpt><trkpt lat="42.30207981516386" lon="12.089265393589969"><ele>400.0</ele><time>2026-04-29T13:15:35Z</time></trkpt><trkpt lat="42.301971975693824" lon="12.089388462259878"><ele>400.0</ele><time>2026-04-29T13:15:36Z</time></trkpt><trkpt lat="42.30187372474281" lon="12.089529304758132"><ele>400.0</ele><time>2026-04-29T13:15:37Z</time></trkpt><trkpt lat="42.30177587879792" lon="12.089669566695195"><ele>400.0</ele><time>2026-04-29T13:15:38Z</time></trkpt><trkpt lat="42.301686025374615" lon="12.089799015303514"><ele>400.0</ele><time>2026-04-29T13:15:39Z</time></trkpt><trkpt lat="42.30160369152111" lon="12.089919724075378"><ele>400.0</ele><time>2026-04-29T13:15:40Z</time></trkpt><trkpt lat="42.301527296764135" lon="12.090037169659363"><ele>400.25</ele><time>2026-04-29T13:15:41Z</time></trkpt><trkpt lat="42.30146731308403" lon="12.090176168068556"><ele>400.5</ele><time>2026-04-29T13:15:42Z</time></trkpt><trkpt lat="42.301398938456344" lon="12.090306816700284"><ele>400.75</ele><time>2026-04-29T13:15:43Z</time></trkpt><trkpt lat="42.30134484856008" lon="12.090450677307087"><ele>401.0</ele><time>2026-04-29T13:15:44Z</time></trkpt><trkpt lat="42.30130588143799" lon="12.090605777740121"><ele>401.5</ele><time>2026-04-29T13:15:45Z</time></trkpt><trkpt lat="42.301271341735905" lon="12.090763016222317"><ele>402.0</ele><time>2026-04-29T13:15:46Z</time></trkpt><trkpt lat="42.3012384603836" lon="12.090927674637562"><ele>402.5</ele><time>2026-04-29T13:15:47Z</time></trkpt><trkpt lat="42.301186553347314" lon="12.09108845652461"><ele>403.0</ele><time>2026-04-29T13:15:48Z</time></trkpt><trkpt lat="42.30114726324553" lon="12.091267639061858"><ele>403.0</ele><time>2026-04-29T13:15:49Z</time></trkpt><trkpt lat="42.30110657685831" lon="12.091453189362834"><ele>403.0</ele><time>2026-04-29T13:15:50Z</time></trkpt><trkpt lat="42.301065085320985" lon="12.0916424115527"><ele>403.0</ele><time>2026-04-29T13:15:51Z</time></trkpt><trkpt lat="42.30102363957972" lon="12.091836190822404"><ele>403.0</ele><time>2026-04-29T13:15:52Z</time></trkpt><trkpt lat="42.300997972485526" lon="12.092033508733838"><ele>403.75</ele><time>2026-04-29T13:15:53Z</time></trkpt><trkpt lat="42.30095769765091" lon="12.092219107310587"><ele>404.5</ele><time>2026-04-29T13:15:54Z</time></trkpt><trkpt lat="42.300917317831605" lon="12.092402156604708"><ele>405.25</ele><time>2026-04-29T13:15:55Z</time></trkpt><trkpt lat="42.30087806647203" lon="12.092581211009879"><ele>406.0</ele><time>2026-04-29T13:15:56Z</time></trkpt><trkpt lat="42.30084023399881" lon="12.092761548553726"><ele>406.75</ele><time>2026-04-29T13:15:57Z</time></trkpt><trkpt lat="42.30080511836831" lon="12.092944554912924"><ele>407.5</ele><time>2026-04-29T13:15:58Z</time></trkpt><trkpt lat="42.30076846687022" lon="12.093125793697329"><ele>408.25</ele><time>2026-04-29T13:15:59Z</time></trkpt><trkpt lat="42.30073019515759" lon="12.093305884551839"><ele>409.0</ele><time>2026-04-29T13:16:00Z</time></trkpt><trkpt lat="42.30069515943661" lon="12.09348435911133"><ele>409.25</ele><time>2026-04-29T13:16:01Z</time></trkpt><trkpt lat="42.300644205183225" lon="12.093654374152477"><ele>409.5</ele><time>2026-04-29T13:16:02Z</time></trkpt><trkpt lat="42.30061390414011" lon="12.093827142546493"><ele>409.75</ele><time>2026-04-29T13:16:03Z</time></trkpt><trkpt lat="42.30060162103021" lon="12.094001293672385"><ele>410.0</ele><time>2026-04-29T13:16:04Z</time></trkpt><trkpt lat="42.30056736181183" lon="12.094168322452532"><ele>410.0</ele><time>2026-04-29T13:16:05Z</time></trkpt><trkpt lat="42.30053595035498" lon="12.094339641880536"><ele>410.0</ele><time>2026-04-29T13:16:06Z</time></trkpt><trkpt lat="42.30050193210057" lon="12.094511584741266"><ele>410.0</ele><time>2026-04-29T13:16:07Z</time></trkpt><trkpt lat="42.30046731750091" lon="12.094686205390797"><ele>410.0</ele><time>2026-04-29T13:16:08Z</time></trkpt><trkpt lat="42.300428963196055" lon="12.094861407150818"><ele>410.0</ele><time>2026-04-29T13:16:09Z</time></trkpt><trkpt lat="42.30036911894541" lon="12.095025902066801"><ele>410.0</ele><time>2026-04-29T13:16:10Z</time></trkpt><trkpt lat="42.30032497773432" lon="12.095188574925599"><ele>410.0</ele><time>2026-04-29T13:16:11Z</time></trkpt><trkpt lat="42.30030195721955" lon="12.095344133175692"><ele>410.0</ele><time>2026-04-29T13:16:12Z</time></trkpt><trkpt lat="42.30025846946038" lon="12.095478105538554"><ele>410.0</ele><time>2026-04-29T13:16:13Z</time></trkpt><trkpt lat="42.300219699353185" lon="12.095602746219754"><ele>410.0</ele><time>2026-04-29T13:16:14Z</time></trkpt><trkpt lat="42.300182639555686" lon="12.095711347253783"><ele>410.0</ele><time>2026-04-29T13:16:15Z</time></trkpt><trkpt lat="42.300128649511514" lon="12.095815484516535"><ele>410.0</ele><time>2026-04-29T13:16:16Z</time></trkpt><trkpt lat="42.300061285070015" lon="12.095929310319317"><ele>410.0</ele><time>2026-04-29T13:16:17Z</time></trkpt><trkpt lat="42.299986983021384" lon="12.09605454015378"><ele>410.25</ele><time>2026-04-29T13:16:18Z</time></trkpt><trkpt lat="42.29989143885822" lon="12.096172883144597"><ele>410.5</ele><time>2026-04-29T13:16:19Z</time></trkpt><trkpt lat="42.29979782742555" lon="12.096290781877377"><ele>410.75</ele><time>2026-04-29T13:16:20Z</time></trkpt><trkpt lat="42.29970134067113" lon="12.096414049574683"><ele>411.0</ele><time>2026-04-29T13:16:21Z</time></trkpt><trkpt lat="42.299603556601795" lon="12.096541066151493"><ele>411.5</ele><time>2026-04-29T13:16:22Z</time></trkpt><trkpt lat="42.29950336223127" lon="12.096669468776193"><ele>412.0</ele><time>2026-04-29T13:16:23Z</time></trkpt><trkpt lat="42.29940526986349" lon="12.096798147722128"><ele>412.5</ele><time>2026-04-29T13:16:24Z</time></trkpt><trkpt lat="42.29930661986324" lon="12.096926687242854"><ele>413.0</ele><time>2026-04-29T13:16:25Z</time></trkpt><trkpt lat="42.299210704591836" lon="12.097044482181902"><ele>413.0</ele><time>2026-04-29T13:16:26Z</time></trkpt><trkpt lat="42.29912079682423" lon="12.097152280034688"><ele>413.0</ele><time>2026-04-29T13:16:27Z</time></trkpt><trkpt lat="42.29902634397246" lon="12.097266502630948"><ele>413.0</ele><time>2026-04-29T13:16:28Z</time></trkpt><trkpt lat="42.29892594824083" lon="12.097379951472272"><ele>413.0</ele><time>2026-04-29T13:16:29Z</time></trkpt><trkpt lat="42.29882429623463" lon="12.097499452281564"><ele>413.75</ele><time>2026-04-29T13:16:30Z</time></trkpt><trkpt lat="42.29872616615704" lon="12.097631873891693"><ele>414.5</ele><time>2026-04-29T13:16:31Z</time></trkpt><trkpt lat="42.29861975871367" lon="12.097757736200347"><ele>415.25</ele><time>2026-04-29T13:16:32Z</time></trkpt><trkpt lat="42.29850880929802" lon="12.097887224021576"><ele>416.0</ele><time>2026-04-29T13:16:33Z</time></trkpt><trkpt lat="42.29840454945267" lon="12.098028788748742"><ele>416.0</ele><time>2026-04-29T13:16:34Z</time></trkpt><trkpt lat="42.29828973184969" lon="12.098158706249563"><ele>416.0</ele><time>2026-04-29T13:16:35Z</time></trkpt><trkpt lat="42.298176896371714" lon="12.09829466084569"><ele>416.0</ele><time>2026-04-29T13:16:36Z</time></trkpt><trkpt lat="42.298068586352336" lon="12.098437272581805"><ele>418.25</ele><time>2026-04-29T13:16:37Z</time></trkpt><trkpt lat="42.297954266802776" lon="12.098566399212602"><ele>420.5</ele><time>2026-04-29T13:16:38Z</time></trkpt><trkpt lat="42.29785343608715" lon="12.09869388737447"><ele>422.75</ele><time>2026-04-29T13:16:39Z</time></trkpt><trkpt lat="42.29776139376454" lon="12.098815262017611"><ele>425.0</ele><time>2026-04-29T13:16:40Z</time></trkpt><trkpt lat="42.29767474441605" lon="12.0989213707682"><ele>425.0</ele><time>2026-04-29T13:16:41Z</time></trkpt><trkpt lat="42.29759351534445" lon="12.099007340328903"><ele>425.0</ele><time>2026-04-29T13:16:42Z</time></trkpt><trkpt lat="42.29751182153752" lon="12.099086308227749"><ele>425.0</ele><time>2026-04-29T13:16:43Z</time></trkpt><trkpt lat="42.29742546043826" lon="12.099140424329553"><ele>425.0</ele><time>2026-04-29T13:16:44Z</time></trkpt><trkpt lat="42.297328333149096" lon="12.099171169007645"><ele>425.0</ele><time>2026-04-29T13:16:45Z</time></trkpt><trkpt lat="42.29724982696779" lon="12.099235718499234"><ele>427.2</ele><time>2026-04-29T13:16:46Z</time></trkpt><trkpt lat="42.29718800842596" lon="12.099333061358427"><ele>429.4</ele><time>2026-04-29T13:16:47Z</time></trkpt><trkpt lat="42.29712164028515" lon="12.099417761321638"><ele>431.6</ele><time>2026-04-29T13:16:48Z</time></trkpt><trkpt lat="42.297028755852104" lon="12.09949973673738"><ele>433.8</ele><time>2026-04-29T13:16:49Z</time></trkpt><trkpt lat="42.29691145709579" lon="12.099566283206908"><ele>436.0</ele><time>2026-04-29T13:16:50Z</time></trkpt><trkpt lat="42.296797716448424" lon="12.09967802900006"><ele>436.0</ele><time>2026-04-29T13:16:51Z</time></trkpt><trkpt lat="42.29666796128999" lon="12.09979077178918"><ele>436.0</ele><time>2026-04-29T13:16:52Z</time></trkpt><trkpt lat="42.29654674399764" lon="12.099906138200373"><ele>436.0</ele><time>2026-04-29T13:16:53Z</time></trkpt><trkpt lat="42.296435174827344" lon="12.100017814606936"><ele>436.0</ele><time>2026-04-29T13:16:54Z</time></trkpt><trkpt lat="42.296335628576614" lon="12.100133350376876"><ele>438.25</ele><time>2026-04-29T13:16:55Z</time></trkpt><trkpt lat="42.29624455231134" lon="12.100255610258355"><ele>440.5</ele><time>2026-04-29T13:16:56Z</time></trkpt><trkpt lat="42.29613832615438" lon="12.100367615969482"><ele>442.75</ele><time>2026-04-29T13:16:57Z</time></trkpt><trkpt lat="42.29603348144247" lon="12.100506676934257"><ele>445.0</ele><time>2026-04-29T13:16:58Z</time></trkpt><trkpt lat="42.29592126750809" lon="12.100655131971918"><ele>445.75</ele><time>2026-04-29T13:16:59Z</time></trkpt><trkpt lat="42.29581550656844" lon="12.100794807816905"><ele>446.5</ele><time>2026-04-29T13:17:00Z</time></trkpt><trkpt lat="42.29572272238387" lon="12.100920223064463"><ele>447.25</ele><time>2026-04-29T13:17:01Z</time></trkpt><trkpt lat="42.29564739368672" lon="12.101048795936123"><ele>448.0</ele><time>2026-04-29T13:17:02Z</time></trkpt><trkpt lat="42.29556943314989" lon="12.10115400597682"><ele>448.0</ele><time>2026-04-29T13:17:03Z</time></trkpt><trkpt lat="42.29549140795423" lon="12.101265925402313"><ele>447.99999999999994</ele><time>2026-04-29T13:17:04Z</time></trkpt><trkpt lat="42.295415293239344" lon="12.101371983409836"><ele>447.99999999999994</ele><time>2026-04-29T13:17:05Z</time></trkpt><trkpt lat="42.295352233670904" lon="12.10146304299413"><ele>448.0</ele><time>2026-04-29T13:17:06Z</time></trkpt><trkpt lat="42.29529724922644" lon="12.1015401833686"><ele>448.0</ele><time>2026-04-29T13:17:07Z</time></trkpt><trkpt lat="42.29523578663338" lon="12.101631960329826"><ele>448.25</ele><time>2026-04-29T13:17:08Z</time></trkpt><trkpt lat="42.29516493144902" lon="12.101740041081527"><ele>448.5</ele><time>2026-04-29T13:17:09Z</time></trkpt><trkpt lat="42.29508585476988" lon="12.101861928397625"><ele>448.75</ele><time>2026-04-29T13:17:10Z</time></trkpt><trkpt lat="42.29499671970679" lon="12.101994044825892"><ele>449.0</ele><time>2026-04-29T13:17:11Z</time></trkpt><trkpt lat="42.294899386924115" lon="12.102132458423137"><ele>449.0</ele><time>2026-04-29T13:17:12Z</time></trkpt><trkpt lat="42.294799820225634" lon="12.102276198634499"><ele>449.0</ele><time>2026-04-29T13:17:13Z</time></trkpt><trkpt lat="42.29470923949767" lon="12.102413807917781"><ele>449.0</ele><time>2026-04-29T13:17:14Z</time></trkpt><trkpt lat="42.294621541357486" lon="12.102550723491513"><ele>449.0</ele><time>2026-04-29T13:17:15Z</time></trkpt><trkpt lat="42.29452945816619" lon="12.102685522128636"><ele>450.0</ele><time>2026-04-29T13:17:16Z</time></trkpt><trkpt lat="42.294434706495124" lon="12.102823531566592"><ele>451.0</ele><time>2026-04-29T13:17:17Z</time></trkpt><trkpt lat="42.29433778560534" lon="12.102959285091021"><ele>452.0</ele><time>2026-04-29T13:17:18Z</time></trkpt><trkpt lat="42.29423823708237" lon="12.10309653685361"><ele>453.0</ele><time>2026-04-29T13:17:19Z</time></trkpt><trkpt lat="42.29413082705935" lon="12.103241559151604"><ele>453.0</ele><time>2026-04-29T13:17:20Z</time></trkpt><trkpt lat="42.294002122643015" lon="12.10337995434855"><ele>453.0</ele><time>2026-04-29T13:17:21Z</time></trkpt><trkpt lat="42.293869085210765" lon="12.103551210585577"><ele>453.0</ele><time>2026-04-29T13:17:22Z</time></trkpt><trkpt lat="42.29373160832385" lon="12.103726638461515"><ele>453.66666666666663</ele><time>2026-04-29T13:17:23Z</time></trkpt><trkpt lat="42.29360901388745" lon="12.103882759758678"><ele>454.3333333333333</ele><time>2026-04-29T13:17:24Z</time></trkpt><trkpt lat="42.29349987180007" lon="12.104050746244404"><ele>455.0</ele><time>2026-04-29T13:17:25Z</time></trkpt><trkpt lat="42.293383522342445" lon="12.104196122104192"><ele>455.0</ele><time>2026-04-29T13:17:26Z</time></trkpt><trkpt lat="42.293274962253825" lon="12.104330690376052"><ele>455.0</ele><time>2026-04-29T13:17:27Z</time></trkpt><trkpt lat="42.293176259461426" lon="12.104451273255716"><ele>455.0</ele><time>2026-04-29T13:17:28Z</time></trkpt><trkpt lat="42.29308024893831" lon="12.104570391777907"><ele>455.0</ele><time>2026-04-29T13:17:29Z</time></trkpt><trkpt lat="42.29298142615406" lon="12.104692702645744"><ele>456.0</ele><time>2026-04-29T13:17:30Z</time></trkpt><trkpt lat="42.292880758618885" lon="12.10482121034579"><ele>457.0</ele><time>2026-04-29T13:17:31Z</time></trkpt><trkpt lat="42.29278568006591" lon="12.104967350927462"><ele>458.0</ele><time>2026-04-29T13:17:32Z</time></trkpt><trkpt lat="42.29269904297737" lon="12.105121401220737"><ele>459.0</ele><time>2026-04-29T13:17:33Z</time></trkpt><trkpt lat="42.2926067940576" lon="12.105275177484105"><ele>459.0</ele><time>2026-04-29T13:17:34Z</time></trkpt><trkpt lat="42.29255156722377" lon="12.10546476531288"><ele>459.0</ele><time>2026-04-29T13:17:35Z</time></trkpt><trkpt lat="42.292492951735284" lon="12.105647010956801"><ele>459.0</ele><time>2026-04-29T13:17:36Z</time></trkpt><trkpt lat="42.29244485727534" lon="12.105834776389552"><ele>459.0</ele><time>2026-04-29T13:17:37Z</time></trkpt><trkpt lat="42.29240279887603" lon="12.106023215347399"><ele>459.75</ele><time>2026-04-29T13:17:38Z</time></trkpt><trkpt lat="42.29236843232567" lon="12.106191396733777"><ele>460.5</ele><time>2026-04-29T13:17:39Z</time></trkpt><trkpt lat="42.292338369285" lon="12.106355817724832"><ele>461.25</ele><time>2026-04-29T13:17:40Z</time></trkpt><trkpt lat="42.292310559600644" lon="12.1065096414143"><ele>462.0</ele><time>2026-04-29T13:17:41Z</time></trkpt><trkpt lat="42.29228319859377" lon="12.106663522670218"><ele>462.25</ele><time>2026-04-29T13:17:42Z</time></trkpt><trkpt lat="42.292256659009006" lon="12.106817598454983"><ele>462.5</ele><time>2026-04-29T13:17:43Z</time></trkpt><trkpt lat="42.2922307012144" lon="12.106973114140164"><ele>462.75</ele><time>2026-04-29T13:17:44Z</time></trkpt><trkpt lat="42.292207977630135" lon="12.107130676880306"><ele>463.0</ele><time>2026-04-29T13:17:45Z</time></trkpt><trkpt lat="42.29218271416099" lon="12.107294524421308"><ele>462.75</ele><time>2026-04-29T13:17:46Z</time></trkpt><trkpt lat="42.29215696602048" lon="12.107475821451269"><ele>462.5</ele><time>2026-04-29T13:17:47Z</time></trkpt><trkpt lat="42.29212986220965" lon="12.10766226770624"><ele>462.25</ele><time>2026-04-29T13:17:48Z</time></trkpt><trkpt lat="42.292087782914514" lon="12.107838228927486"><ele>462.0</ele><time>2026-04-29T13:17:49Z</time></trkpt><trkpt lat="42.29206642233593" lon="12.107986069070824"><ele>462.0</ele><time>2026-04-29T13:17:50Z</time></trkpt><trkpt lat="42.29205015211503" lon="12.108098678011931"><ele>462.00000000000006</ele><time>2026-04-29T13:17:51Z</time></trkpt><trkpt lat="42.292031689165945" lon="12.108226463384387"><ele>462.00000000000006</ele><time>2026-04-29T13:17:53Z</time></trkpt><trkpt lat="42.29218841329914" lon="12.108247745365572"><ele>462.0</ele><time>2026-04-29T13:17:58Z</time></trkpt><trkpt lat="42.29210824310596" lon="12.108166555498078"><ele>462.0</ele><time>2026-04-29T13:18:02Z</time></trkpt><trkpt lat="42.292102961190196" lon="12.108019064825617"><ele>462.0</ele><time>2026-04-29T13:18:04Z</time></trkpt><trkpt lat="42.2921299848157" lon="12.107902842430573"><ele>462.00000000000006</ele><time>2026-04-29T13:18:05Z</time></trkpt><trkpt lat="42.292147532590505" lon="12.10775596838782"><ele>462.00000000000006</ele><time>2026-04-29T13:18:06Z</time></trkpt><trkpt lat="42.292165665541205" lon="12.107591305988343"><ele>462.0</ele><time>2026-04-29T13:18:07Z</time></trkpt><trkpt lat="42.29217924084674" lon="12.10745883521862"><ele>462.0</ele><time>2026-04-29T13:18:08Z</time></trkpt><trkpt lat="42.292177442654484" lon="12.107348813725244"><ele>462.1666666666667</ele><time>2026-04-29T13:18:09Z</time></trkpt><trkpt lat="42.29216011985656" lon="12.107256546255673"><ele>462.33333333333337</ele><time>2026-04-29T13:18:10Z</time></trkpt><trkpt lat="42.29211984579655" lon="12.107110213832383"><ele>462.5</ele><time>2026-04-29T13:18:12Z</time></trkpt><trkpt lat="42.2921134446607" lon="12.106985382802293"><ele>462.6666666666667</ele><time>2026-04-29T13:18:14Z</time></trkpt><trkpt lat="42.29213465802801" lon="12.106870141322934"><ele>462.83333333333337</ele><time>2026-04-29T13:18:16Z</time></trkpt><trkpt lat="42.292123546574636" lon="12.106761834057636"><ele>463.0</ele><time>2026-04-29T13:18:19Z</time></trkpt><trkpt lat="42.29205321169088" lon="12.106810381041992"><ele>463.0</ele><time>2026-04-29T13:19:08Z</time></trkpt><trkpt lat="42.29208114561911" lon="12.1067317154592"><ele>462.99999999999994</ele><time>2026-04-29T13:19:52Z</time></trkpt><trkpt lat="42.292216610140066" lon="12.106811159061696"><ele>462.99999999999994</ele><time>2026-04-29T13:20:40.196Z</time></trkpt><trkpt lat="42.29208653843711" lon="12.106820136836495"><ele>463.0</ele><time>2026-04-29T13:20:59.036Z</time></trkpt><trkpt lat="42.29202168604611" lon="12.106775227241137"><ele>463.0</ele><time>2026-04-29T13:29:16Z</time></trkpt><trkpt lat="42.292126666432566" lon="12.106791213582978"><ele>463.0</ele><time>2026-04-29T13:29:21Z</time></trkpt><trkpt lat="42.29221766299513" lon="12.106838764668941"><ele>462.99999999999994</ele><time>2026-04-29T13:35:48.012Z</time></trkpt><trkpt lat="42.292282300262336" lon="12.10687691465044"><ele>462.99999999999994</ele><time>2026-04-29T13:35:57.012Z</time></trkpt><trkpt lat="42.292147758375684" lon="12.106755148149997"><ele>463.0</ele><time>2026-04-29T13:36:59.012Z</time></trkpt><trkpt lat="42.29206554704323" lon="12.106757557221467"><ele>463.0</ele><time>2026-04-29T13:37:05.012Z</time></trkpt><trkpt lat="42.291975453958806" lon="12.106752397993024"><ele>463.0</ele><time>2026-04-29T13:37:18.013Z</time></trkpt><trkpt lat="42.29190893226513" lon="12.106759751331904"><ele>462.99999999999994</ele><time>2026-04-29T13:37:20.011Z</time></trkpt><trkpt lat="42.29204475223104" lon="12.106755235799177"><ele>462.99999999999994</ele><time>2026-04-29T13:37:49.111Z</time></trkpt><trkpt lat="42.291978594381725" lon="12.106785521581003"><ele>463.0</ele><time>2026-04-29T13:38:16.016Z</time></trkpt><trkpt lat="42.29207340319133" lon="12.106771193149386"><ele>463.0</ele><time>2026-04-29T13:38:22Z</time></trkpt><trkpt lat="42.292204463311" lon="12.106721716228765"><ele>463.00000000000006</ele><time>2026-04-29T13:41:14Z</time></trkpt><trkpt lat="42.292259941641944" lon="12.106791519289384"><ele>463.0</ele><time>2026-04-29T13:41:18Z</time></trkpt><trkpt lat="42.29221759972994" lon="12.106923396025605"><ele>463.0</ele><time>2026-04-29T13:41:20Z</time></trkpt><trkpt lat="42.29220988422164" lon="12.1070124336134"><ele>463.0</ele><time>2026-04-29T13:41:21Z</time></trkpt><trkpt lat="42.29220208113953" lon="12.10711335954076"><ele>463.00000000000006</ele><time>2026-04-29T13:41:22Z</time></trkpt><trkpt lat="42.29218862156165" lon="12.107219099509775"><ele>463.0</ele><time>2026-04-29T13:41:23Z</time></trkpt><trkpt lat="42.2921676385456" lon="12.107337147799266"><ele>462.79999999999995</ele><time>2026-04-29T13:41:24Z</time></trkpt><trkpt lat="42.29214376744876" lon="12.107466559702116"><ele>462.59999999999997</ele><time>2026-04-29T13:41:25Z</time></trkpt><trkpt lat="42.29212417603172" lon="12.10760857717211"><ele>462.40000000000003</ele><time>2026-04-29T13:41:26Z</time></trkpt><trkpt lat="42.29210723150955" lon="12.107758653084002"><ele>462.20000000000005</ele><time>2026-04-29T13:41:27Z</time></trkpt><trkpt lat="42.29208831233039" lon="12.107922258841024"><ele>462.0</ele><time>2026-04-29T13:41:28Z</time></trkpt><trkpt lat="42.29206443386097" lon="12.108088543005849"><ele>462.0</ele><time>2026-04-29T13:41:29Z</time></trkpt><trkpt lat="42.29204075339252" lon="12.108267387807782"><ele>462.0</ele><time>2026-04-29T13:41:30Z</time></trkpt><trkpt lat="42.29200174452054" lon="12.10844176576211"><ele>462.0</ele><time>2026-04-29T13:41:31Z</time></trkpt><trkpt lat="42.291988322836964" lon="12.108635751826382"><ele>462.0</ele><time>2026-04-29T13:41:32Z</time></trkpt><trkpt lat="42.291939460978185" lon="12.108822679104948"><ele>462.0</ele><time>2026-04-29T13:41:33Z</time></trkpt><trkpt lat="42.29190320333028" lon="12.109019022873861"><ele>462.0</ele><time>2026-04-29T13:41:34Z</time></trkpt><trkpt lat="42.2918642436532" lon="12.10922375084907"><ele>462.0</ele><time>2026-04-29T13:41:35Z</time></trkpt><trkpt lat="42.291823657245736" lon="12.10942905006345"><ele>462.33333333333337</ele><time>2026-04-29T13:41:36Z</time></trkpt><trkpt lat="42.29177933959745" lon="12.109641500114197"><ele>462.6666666666667</ele><time>2026-04-29T13:41:37Z</time></trkpt><trkpt lat="42.29173571640153" lon="12.109848380934137"><ele>463.0</ele><time>2026-04-29T13:41:38Z</time></trkpt><trkpt lat="42.29169117956828" lon="12.110059594630474"><ele>463.33333333333337</ele><time>2026-04-29T13:41:39Z</time></trkpt><trkpt lat="42.29164648911346" lon="12.110271536882092"><ele>463.66666666666663</ele><time>2026-04-29T13:41:40Z</time></trkpt><trkpt lat="42.29160148950278" lon="12.110484945275969"><ele>464.0</ele><time>2026-04-29T13:41:41Z</time></trkpt><trkpt lat="42.29155621041985" lon="12.110699679058724"><ele>464.0</ele><time>2026-04-29T13:41:42Z</time></trkpt><trkpt lat="42.29150950516097" lon="12.110921176439"><ele>464.0</ele><time>2026-04-29T13:41:43Z</time></trkpt><trkpt lat="42.29146281427359" lon="12.111141557043908"><ele>464.0</ele><time>2026-04-29T13:41:44Z</time></trkpt><trkpt lat="42.29141540020329" lon="12.111365272375453"><ele>463.66666666666663</ele><time>2026-04-29T13:41:45Z</time></trkpt><trkpt lat="42.29136726021444" lon="12.111592168679413"><ele>463.33333333333337</ele><time>2026-04-29T13:41:46Z</time></trkpt><trkpt lat="42.29133705867726" lon="12.111827012421193"><ele>463.0</ele><time>2026-04-29T13:41:47Z</time></trkpt><trkpt lat="42.291289381373595" lon="12.112059049554365"><ele>463.0</ele><time>2026-04-29T13:41:48Z</time></trkpt><trkpt lat="42.2912417132354" lon="12.11229344857263"><ele>463.0</ele><time>2026-04-29T13:41:49Z</time></trkpt><trkpt lat="42.29119153744637" lon="12.112529524691952"><ele>463.0</ele><time>2026-04-29T13:41:50Z</time></trkpt><trkpt lat="42.29111940357959" lon="12.112760315390235"><ele>463.33333333333337</ele><time>2026-04-29T13:41:51Z</time></trkpt><trkpt lat="42.2910689005091" lon="12.113001509348448"><ele>463.66666666666663</ele><time>2026-04-29T13:41:52Z</time></trkpt><trkpt lat="42.291018187035476" lon="12.11324370815266"><ele>464.0</ele><time>2026-04-29T13:41:53Z</time></trkpt><trkpt lat="42.2909677556493" lon="12.11348455975398"><ele>464.3333333333333</ele><time>2026-04-29T13:41:54Z</time></trkpt><trkpt lat="42.29091586995627" lon="12.11373235720466"><ele>464.66666666666663</ele><time>2026-04-29T13:41:55Z</time></trkpt><trkpt lat="42.29086367572489" lon="12.113981971902355"><ele>465.0</ele><time>2026-04-29T13:41:56Z</time></trkpt><trkpt lat="42.29081023219483" lon="12.11423591146863"><ele>465.66666666666663</ele><time>2026-04-29T13:41:57Z</time></trkpt><trkpt lat="42.290756326111314" lon="12.114491837010366"><ele>466.3333333333333</ele><time>2026-04-29T13:41:58Z</time></trkpt><trkpt lat="42.29070166690943" lon="12.114751338089118"><ele>467.0</ele><time>2026-04-29T13:41:59Z</time></trkpt><trkpt lat="42.29064672846801" lon="12.115012164877546"><ele>467.0</ele><time>2026-04-29T13:42:00Z</time></trkpt><trkpt lat="42.290591285359866" lon="12.115273671284113"><ele>467.0</ele><time>2026-04-29T13:42:01Z</time></trkpt><trkpt lat="42.290533644890715" lon="12.115534683443464"><ele>467.0</ele><time>2026-04-29T13:42:02Z</time></trkpt><trkpt lat="42.29047285770678" lon="12.11579894311784"><ele>467.0</ele><time>2026-04-29T13:42:03Z</time></trkpt><trkpt lat="42.29041917519392" lon="12.116071694021551"><ele>467.0</ele><time>2026-04-29T13:42:04Z</time></trkpt><trkpt lat="42.290342530347424" lon="12.116342071571173"><ele>467.0</ele><time>2026-04-29T13:42:05Z</time></trkpt><trkpt lat="42.29026461868275" lon="12.116611321313004"><ele>467.66666666666663</ele><time>2026-04-29T13:42:06Z</time></trkpt><trkpt lat="42.29018145734266" lon="12.11688277860499"><ele>468.33333333333337</ele><time>2026-04-29T13:42:07Z</time></trkpt><trkpt lat="42.29009468906384" lon="12.117158596567538"><ele>469.0</ele><time>2026-04-29T13:42:08Z</time></trkpt><trkpt lat="42.29000345286941" lon="12.117433078795868"><ele>470.5</ele><time>2026-04-29T13:42:09Z</time></trkpt><trkpt lat="42.2899090007389" lon="12.117709413566152"><ele>472.0</ele><time>2026-04-29T13:42:10Z</time></trkpt><trkpt lat="42.28981203348608" lon="12.117987055187719"><ele>473.0</ele><time>2026-04-29T13:42:11Z</time></trkpt><trkpt lat="42.289712714765066" lon="12.118266135450778"><ele>474.0</ele><time>2026-04-29T13:42:12Z</time></trkpt><trkpt lat="42.289594804076955" lon="12.118535077990684"><ele>474.0</ele><time>2026-04-29T13:42:13Z</time></trkpt><trkpt lat="42.28948850386176" lon="12.118811361058365"><ele>474.0</ele><time>2026-04-29T13:42:14Z</time></trkpt><trkpt lat="42.28939179502309" lon="12.119088870384985"><ele>475.0</ele><time>2026-04-29T13:42:15Z</time></trkpt><trkpt lat="42.28927471348745" lon="12.119344401844732"><ele>476.0</ele><time>2026-04-29T13:42:16Z</time></trkpt><trkpt lat="42.289150166747525" lon="12.119591242112088"><ele>477.0</ele><time>2026-04-29T13:42:17Z</time></trkpt><trkpt lat="42.289017714646604" lon="12.119826443231963"><ele>478.0</ele><time>2026-04-29T13:42:18Z</time></trkpt><trkpt lat="42.288882263873205" lon="12.120057603563906"><ele>479.0</ele><time>2026-04-29T13:42:19Z</time></trkpt><trkpt lat="42.28873375749411" lon="12.12026888087634"><ele>480.0</ele><time>2026-04-29T13:42:20Z</time></trkpt><trkpt lat="42.28859852355112" lon="12.120489405374041"><ele>480.0</ele><time>2026-04-29T13:42:21Z</time></trkpt><trkpt lat="42.28846123642707" lon="12.12071425642547"><ele>480.0</ele><time>2026-04-29T13:42:22Z</time></trkpt><trkpt lat="42.28831768051727" lon="12.120951554813866"><ele>480.0</ele><time>2026-04-29T13:42:23Z</time></trkpt><trkpt lat="42.28818290116238" lon="12.12120618638709"><ele>479.33333333333337</ele><time>2026-04-29T13:42:24Z</time></trkpt><trkpt lat="42.28803612908531" lon="12.121441209472694"><ele>478.6666666666667</ele><time>2026-04-29T13:42:25Z</time></trkpt><trkpt lat="42.287896491871145" lon="12.121664244634742"><ele>478.0</ele><time>2026-04-29T13:42:26Z</time></trkpt><trkpt lat="42.28775884473896" lon="12.121891758445765"><ele>477.33333333333337</ele><time>2026-04-29T13:42:27Z</time></trkpt><trkpt lat="42.287614239288494" lon="12.12212383202215"><ele>476.66666666666663</ele><time>2026-04-29T13:42:28Z</time></trkpt><trkpt lat="42.2874621154134" lon="12.122346114488373"><ele>476.0</ele><time>2026-04-29T13:42:29Z</time></trkpt><trkpt lat="42.28730842890822" lon="12.12256073727651"><ele>474.66666666666663</ele><time>2026-04-29T13:42:30Z</time></trkpt><trkpt lat="42.28715420394739" lon="12.122770829787886"><ele>473.33333333333337</ele><time>2026-04-29T13:42:31Z</time></trkpt><trkpt lat="42.28700846667882" lon="12.122972161174765"><ele>472.0</ele><time>2026-04-29T13:42:32Z</time></trkpt><trkpt lat="42.28687357337247" lon="12.123170789026497"><ele>470.6666666666667</ele><time>2026-04-29T13:42:33Z</time></trkpt><trkpt lat="42.28674819887831" lon="12.123359894910852"><ele>469.33333333333337</ele><time>2026-04-29T13:42:34Z</time></trkpt><trkpt lat="42.28661607032917" lon="12.123534500093147"><ele>468.0</ele><time>2026-04-29T13:42:35Z</time></trkpt><trkpt lat="42.28650643183122" lon="12.123750849561402"><ele>469.33333333333337</ele><time>2026-04-29T13:42:36Z</time></trkpt><trkpt lat="42.28641326428488" lon="12.123987303951058"><ele>470.6666666666667</ele><time>2026-04-29T13:42:37Z</time></trkpt><trkpt lat="42.28633981213408" lon="12.124236243158574"><ele>472.0</ele><time>2026-04-29T13:42:38Z</time></trkpt><trkpt lat="42.28627655315673" lon="12.124488061005886"><ele>472.0</ele><time>2026-04-29T13:42:39Z</time></trkpt><trkpt lat="42.286208197263704" lon="12.1247505635352"><ele>472.0</ele><time>2026-04-29T13:42:40Z</time></trkpt><trkpt lat="42.28613219916774" lon="12.125008544260321"><ele>472.0</ele><time>2026-04-29T13:42:41Z</time></trkpt><trkpt lat="42.28604661027952" lon="12.125254378096354"><ele>471.33333333333337</ele><time>2026-04-29T13:42:42Z</time></trkpt><trkpt lat="42.28594542983605" lon="12.125499395895611"><ele>470.66666666666663</ele><time>2026-04-29T13:42:43Z</time></trkpt><trkpt lat="42.28584062756271" lon="12.1257546959409"><ele>470.0</ele><time>2026-04-29T13:42:44Z</time></trkpt><trkpt lat="42.285733097701204" lon="12.126016641778072"><ele>469.5</ele><time>2026-04-29T13:42:45Z</time></trkpt><trkpt lat="42.28562288079512" lon="12.126285133332733"><ele>469.0</ele><time>2026-04-29T13:42:46Z</time></trkpt><trkpt lat="42.28552501042618" lon="12.126570012321656"><ele>470.0</ele><time>2026-04-29T13:42:47Z</time></trkpt><trkpt lat="42.28540982415011" lon="12.126844468986953"><ele>471.0</ele><time>2026-04-29T13:42:48Z</time></trkpt><trkpt lat="42.28529484468102" lon="12.127122119418726"><ele>472.0</ele><time>2026-04-29T13:42:49Z</time></trkpt><trkpt lat="42.285180809321595" lon="12.127400185687739"><ele>473.0</ele><time>2026-04-29T13:42:50Z</time></trkpt><trkpt lat="42.28506817194018" lon="12.127674522467206"><ele>473.0</ele><time>2026-04-29T13:42:51Z</time></trkpt><trkpt lat="42.28495454171949" lon="12.127947254394725"><ele>473.0</ele><time>2026-04-29T13:42:52Z</time></trkpt><trkpt lat="42.28483875033712" lon="12.128219350054698"><ele>472.0</ele><time>2026-04-29T13:42:53Z</time></trkpt><trkpt lat="42.284721723092076" lon="12.12849122051395"><ele>471.0</ele><time>2026-04-29T13:42:54Z</time></trkpt><trkpt lat="42.28460580580315" lon="12.128765599266515"><ele>471.0</ele><time>2026-04-29T13:42:55Z</time></trkpt><trkpt lat="42.284489720714184" lon="12.129040402725202"><ele>471.0</ele><time>2026-04-29T13:42:56Z</time></trkpt><trkpt lat="42.28437367700096" lon="12.129317718609029"><ele>471.5</ele><time>2026-04-29T13:42:57Z</time></trkpt><trkpt lat="42.28425870262227" lon="12.129596738307772"><ele>472.0</ele><time>2026-04-29T13:42:58Z</time></trkpt><trkpt lat="42.284143538347784" lon="12.129875768820684"><ele>472.5</ele><time>2026-04-29T13:42:59Z</time></trkpt><trkpt lat="42.28402678744622" lon="12.130152446654009"><ele>473.0</ele><time>2026-04-29T13:43:00Z</time></trkpt><trkpt lat="42.283916727833414" lon="12.130413014361542"><ele>473.66666666666663</ele><time>2026-04-29T13:43:01Z</time></trkpt><trkpt lat="42.283807158346086" lon="12.13067138957097"><ele>474.33333333333337</ele><time>2026-04-29T13:43:02Z</time></trkpt><trkpt lat="42.28370140430026" lon="12.130926042291785"><ele>475.0</ele><time>2026-04-29T13:43:03Z</time></trkpt><trkpt lat="42.28359266240876" lon="12.13118317254652"><ele>475.5</ele><time>2026-04-29T13:43:04Z</time></trkpt><trkpt lat="42.28347886015979" lon="12.131452535263085"><ele>476.0</ele><time>2026-04-29T13:43:05Z</time></trkpt><trkpt lat="42.283368788041834" lon="12.131720857580603"><ele>477.3333333333333</ele><time>2026-04-29T13:43:06Z</time></trkpt><trkpt lat="42.283262707493854" lon="12.131987079038689"><ele>478.66666666666663</ele><time>2026-04-29T13:43:07Z</time></trkpt><trkpt lat="42.28316277067287" lon="12.13224651120497"><ele>480.0</ele><time>2026-04-29T13:43:08Z</time></trkpt><trkpt lat="42.283068562677556" lon="12.132493226490377"><ele>480.33333333333337</ele><time>2026-04-29T13:43:09Z</time></trkpt><trkpt lat="42.28297907400875" lon="12.132728276729528"><ele>480.6666666666667</ele><time>2026-04-29T13:43:10Z</time></trkpt><trkpt lat="42.28290264370878" lon="12.132935318157239"><ele>481.0</ele><time>2026-04-29T13:43:11Z</time></trkpt><trkpt lat="42.28283633651761" lon="12.133116502744262"><ele>481.5</ele><time>2026-04-29T13:43:12Z</time></trkpt><trkpt lat="42.28277157616976" lon="12.133283589154594"><ele>482.0</ele><time>2026-04-29T13:43:13Z</time></trkpt><trkpt lat="42.282707317283254" lon="12.133429110369738"><ele>482.5</ele><time>2026-04-29T13:43:14Z</time></trkpt><trkpt lat="42.2826528378648" lon="12.133548241921106"><ele>483.0</ele><time>2026-04-29T13:43:15Z</time></trkpt><trkpt lat="42.28260245565993" lon="12.13364719780389"><ele>483.0</ele><time>2026-04-29T13:43:16Z</time></trkpt><trkpt lat="42.28253790092441" lon="12.133718605299684"><ele>483.0</ele><time>2026-04-29T13:43:17Z</time></trkpt><trkpt lat="42.282469581026014" lon="12.13376069385317"><ele>483.0</ele><time>2026-04-29T13:43:18Z</time></trkpt><trkpt lat="42.282407802507535" lon="12.13379799950543"><ele>483.0</ele><time>2026-04-29T13:43:19Z</time></trkpt><trkpt lat="42.28234501140455" lon="12.133906224917654"><ele>483.0</ele><time>2026-04-29T13:43:21Z</time></trkpt><trkpt lat="42.28234149107265" lon="12.134062046415185"><ele>483.0</ele><time>2026-04-29T13:43:23Z</time></trkpt><trkpt lat="42.28233914098549" lon="12.134155634574892"><ele>483.25</ele><time>2026-04-29T13:43:24Z</time></trkpt><trkpt lat="42.28231459593996" lon="12.134272443754503"><ele>483.5</ele><time>2026-04-29T13:43:25Z</time></trkpt><trkpt lat="42.28226299727691" lon="12.134401250386146"><ele>483.75</ele><time>2026-04-29T13:43:26Z</time></trkpt><trkpt lat="42.28220003900891" lon="12.134532849317154"><ele>484.0</ele><time>2026-04-29T13:43:27Z</time></trkpt><trkpt lat="42.282133285881486" lon="12.134698313161557"><ele>484.0</ele><time>2026-04-29T13:43:28Z</time></trkpt><trkpt lat="42.2820548562338" lon="12.134881366880677"><ele>484.0</ele><time>2026-04-29T13:43:29Z</time></trkpt><trkpt lat="42.28197029540939" lon="12.135060753016313"><ele>484.0</ele><time>2026-04-29T13:43:30Z</time></trkpt><trkpt lat="42.28188590976711" lon="12.135240888317616"><ele>484.0</ele><time>2026-04-29T13:43:31Z</time></trkpt><trkpt lat="42.28179965123027" lon="12.135428319180669"><ele>484.0</ele><time>2026-04-29T13:43:32Z</time></trkpt><trkpt lat="42.28170540354629" lon="12.135634248615588"><ele>484.0</ele><time>2026-04-29T13:43:33Z</time></trkpt><trkpt lat="42.28159698501506" lon="12.135858457035658"><ele>484.0</ele><time>2026-04-29T13:43:34Z</time></trkpt><trkpt lat="42.28148072715675" lon="12.13608000461796"><ele>484.0</ele><time>2026-04-29T13:43:35Z</time></trkpt><trkpt lat="42.281362384998125" lon="12.13630137234074"><ele>484.0</ele><time>2026-04-29T13:43:36Z</time></trkpt><trkpt lat="42.281235020873865" lon="12.13652485673228"><ele>481.33333333333337</ele><time>2026-04-29T13:43:37Z</time></trkpt><trkpt lat="42.28110545258924" lon="12.136748654615966"><ele>478.66666666666663</ele><time>2026-04-29T13:43:38Z</time></trkpt><trkpt lat="42.2809703824983" lon="12.136966862008782"><ele>476.0</ele><time>2026-04-29T13:43:39Z</time></trkpt><trkpt lat="42.28083132398419" lon="12.137179092479494"><ele>476.0</ele><time>2026-04-29T13:43:40Z</time></trkpt><trkpt lat="42.280690120958766" lon="12.137382341798622"><ele>476.0</ele><time>2026-04-29T13:43:41Z</time></trkpt><trkpt lat="42.28054631076183" lon="12.137588185677338"><ele>476.0</ele><time>2026-04-29T13:43:42Z</time></trkpt><trkpt lat="42.28039484810411" lon="12.137800913918685"><ele>473.3333333333333</ele><time>2026-04-29T13:43:43Z</time></trkpt><trkpt lat="42.28024265117887" lon="12.138010799289706"><ele>470.66666666666663</ele><time>2026-04-29T13:43:44Z</time></trkpt><trkpt lat="42.280089993215455" lon="12.1382045175183"><ele>468.0</ele><time>2026-04-29T13:43:45Z</time></trkpt><trkpt lat="42.27993240303572" lon="12.13839826053878"><ele>468.0</ele><time>2026-04-29T13:43:46Z</time></trkpt><trkpt lat="42.27977323888918" lon="12.138595202627652"><ele>468.0</ele><time>2026-04-29T13:43:47Z</time></trkpt><trkpt lat="42.27961185179659" lon="12.138794235466305"><ele>468.0</ele><time>2026-04-29T13:43:48Z</time></trkpt><trkpt lat="42.279447762854566" lon="12.138993871131987"><ele>466.5</ele><time>2026-04-29T13:43:49Z</time></trkpt><trkpt lat="42.27927842852033" lon="12.139192881972559"><ele>465.0</ele><time>2026-04-29T13:43:50Z</time></trkpt><trkpt lat="42.279106007094974" lon="12.139392599374755"><ele>465.0</ele><time>2026-04-29T13:43:51Z</time></trkpt><trkpt lat="42.278935859155546" lon="12.139597563136977"><ele>465.0</ele><time>2026-04-29T13:43:52Z</time></trkpt><trkpt lat="42.278765664728056" lon="12.139807205782"><ele>463.0</ele><time>2026-04-29T13:43:53Z</time></trkpt><trkpt lat="42.27859537609513" lon="12.140013571590353"><ele>461.0</ele><time>2026-04-29T13:43:54Z</time></trkpt><trkpt lat="42.278420873183045" lon="12.14021470244945"><ele>461.0</ele><time>2026-04-29T13:43:55Z</time></trkpt><trkpt lat="42.278245908569296" lon="12.140409878265643"><ele>461.0</ele><time>2026-04-29T13:43:56Z</time></trkpt><trkpt lat="42.27807275033042" lon="12.14059089871106"><ele>461.0</ele><time>2026-04-29T13:43:57Z</time></trkpt><trkpt lat="42.27789859067103" lon="12.140750134630105"><ele>463.3333333333333</ele><time>2026-04-29T13:43:58Z</time></trkpt><trkpt lat="42.277714175185224" lon="12.140897607938188"><ele>465.66666666666663</ele><time>2026-04-29T13:43:59Z</time></trkpt><trkpt lat="42.27752161292218" lon="12.141031063014836"><ele>468.0</ele><time>2026-04-29T13:44:00Z</time></trkpt><trkpt lat="42.27732299442695" lon="12.141166020777053"><ele>468.66666666666663</ele><time>2026-04-29T13:44:01Z</time></trkpt><trkpt lat="42.27712418085851" lon="12.141302190510103"><ele>469.3333333333333</ele><time>2026-04-29T13:44:02Z</time></trkpt><trkpt lat="42.27693225262745" lon="12.14143506407462"><ele>470.0</ele><time>2026-04-29T13:44:03Z</time></trkpt><trkpt lat="42.276744183586594" lon="12.141562098191121"><ele>469.66666666666663</ele><time>2026-04-29T13:44:04Z</time></trkpt><trkpt lat="42.2765595966132" lon="12.141692647109343"><ele>469.33333333333337</ele><time>2026-04-29T13:44:05Z</time></trkpt><trkpt lat="42.27636961765907" lon="12.14182383262734"><ele>469.0</ele><time>2026-04-29T13:44:06Z</time></trkpt><trkpt lat="42.27618056159091" lon="12.141952404385137"><ele>469.0</ele><time>2026-04-29T13:44:07Z</time></trkpt><trkpt lat="42.275988626998654" lon="12.142062884941309"><ele>469.0</ele><time>2026-04-29T13:44:08Z</time></trkpt><trkpt lat="42.27580651836747" lon="12.14219674844649"><ele>469.0</ele><time>2026-04-29T13:44:09Z</time></trkpt><trkpt lat="42.275636173738256" lon="12.142354340043576"><ele>467.33333333333337</ele><time>2026-04-29T13:44:10Z</time></trkpt><trkpt lat="42.27545855919464" lon="12.142503128785377"><ele>465.66666666666663</ele><time>2026-04-29T13:44:11Z</time></trkpt><trkpt lat="42.27527076161365" lon="12.142647052805517"><ele>464.0</ele><time>2026-04-29T13:44:12Z</time></trkpt><trkpt lat="42.27508654756008" lon="12.142820406519613"><ele>464.0</ele><time>2026-04-29T13:44:13Z</time></trkpt><trkpt lat="42.27489939498722" lon="12.143010152048197"><ele>464.0</ele><time>2026-04-29T13:44:14Z</time></trkpt><trkpt lat="42.27471926479583" lon="12.143211911138005"><ele>463.5</ele><time>2026-04-29T13:44:15Z</time></trkpt><trkpt lat="42.27454779093255" lon="12.143421583024482"><ele>463.0</ele><time>2026-04-29T13:44:16Z</time></trkpt><trkpt lat="42.27438419644011" lon="12.143640379927273"><ele>463.0</ele><time>2026-04-29T13:44:17Z</time></trkpt><trkpt lat="42.27422059829058" lon="12.143880134390647"><ele>463.0</ele><time>2026-04-29T13:44:18Z</time></trkpt><trkpt lat="42.27405512985011" lon="12.144133612481486"><ele>464.0</ele><time>2026-04-29T13:44:19Z</time></trkpt><trkpt lat="42.27388323029392" lon="12.144402945975134"><ele>465.0</ele><time>2026-04-29T13:44:20Z</time></trkpt><trkpt lat="42.27371179053835" lon="12.144675831307962"><ele>463.0</ele><time>2026-04-29T13:44:21Z</time></trkpt><trkpt lat="42.273553705880886" lon="12.144930127731683"><ele>461.0</ele><time>2026-04-29T13:44:22Z</time></trkpt><trkpt lat="42.27339844136023" lon="12.145179887686538"><ele>461.0</ele><time>2026-04-29T13:44:23Z</time></trkpt><trkpt lat="42.2732418736489" lon="12.145432496992674"><ele>461.0</ele><time>2026-04-29T13:44:24Z</time></trkpt><trkpt lat="42.2730868210732" lon="12.1456826510771"><ele>457.0</ele><time>2026-04-29T13:44:25Z</time></trkpt><trkpt lat="42.27292930336969" lon="12.145936525216667"><ele>453.0</ele><time>2026-04-29T13:44:26Z</time></trkpt><trkpt lat="42.27276989197945" lon="12.146191988049642"><ele>453.0</ele><time>2026-04-29T13:44:27Z</time></trkpt><trkpt lat="42.27261140272957" lon="12.146446071856916"><ele>453.0</ele><time>2026-04-29T13:44:28Z</time></trkpt><trkpt lat="42.27246431541046" lon="12.146681876541685"><ele>453.66666666666663</ele><time>2026-04-29T13:44:29Z</time></trkpt><trkpt lat="42.27233431057002" lon="12.146919837477686"><ele>454.3333333333333</ele><time>2026-04-29T13:44:30Z</time></trkpt><trkpt lat="42.27220168043027" lon="12.147128406964653"><ele>455.0</ele><time>2026-04-29T13:44:31Z</time></trkpt><trkpt lat="42.27208360754225" lon="12.147317133216951"><ele>457.3333333333333</ele><time>2026-04-29T13:44:32Z</time></trkpt><trkpt lat="42.27197355524407" lon="12.147494499309612"><ele>459.66666666666663</ele><time>2026-04-29T13:44:33Z</time></trkpt><trkpt lat="42.271866730400994" lon="12.147663180034838"><ele>462.0</ele><time>2026-04-29T13:44:34Z</time></trkpt><trkpt lat="42.27175145368808" lon="12.14784023107332"><ele>462.0</ele><time>2026-04-29T13:44:35Z</time></trkpt><trkpt lat="42.271615549744055" lon="12.14800776573014"><ele>462.0</ele><time>2026-04-29T13:44:36Z</time></trkpt><trkpt lat="42.271485847480854" lon="12.148184064201141"><ele>462.0</ele><time>2026-04-29T13:44:37Z</time></trkpt><trkpt lat="42.27134507615286" lon="12.148354968114939"><ele>462.33333333333337</ele><time>2026-04-29T13:44:38Z</time></trkpt><trkpt lat="42.27119609737227" lon="12.148528842986469"><ele>462.6666666666667</ele><time>2026-04-29T13:44:39Z</time></trkpt><trkpt lat="42.271030828271066" lon="12.148698508899106"><ele>463.0</ele><time>2026-04-29T13:44:40Z</time></trkpt><trkpt lat="42.27085109428132" lon="12.148873999378845"><ele>463.33333333333337</ele><time>2026-04-29T13:44:41Z</time></trkpt><trkpt lat="42.27067045658597" lon="12.149047472433734"><ele>463.66666666666663</ele><time>2026-04-29T13:44:42Z</time></trkpt><trkpt lat="42.27050368398479" lon="12.149212997270249"><ele>464.0</ele><time>2026-04-29T13:44:43Z</time></trkpt><trkpt lat="42.27033525631423" lon="12.149380299762754"><ele>462.66666666666663</ele><time>2026-04-29T13:44:44Z</time></trkpt><trkpt lat="42.27016129986897" lon="12.149553094088986"><ele>461.33333333333337</ele><time>2026-04-29T13:44:45Z</time></trkpt><trkpt lat="42.27002398588271" lon="12.149777564555432"><ele>460.0</ele><time>2026-04-29T13:44:46Z</time></trkpt><trkpt lat="42.26986453875494" lon="12.149975803252367"><ele>458.6666666666667</ele><time>2026-04-29T13:44:47Z</time></trkpt><trkpt lat="42.269706382943326" lon="12.150169599219353"><ele>457.33333333333337</ele><time>2026-04-29T13:44:48Z</time></trkpt><trkpt lat="42.2695607325504" lon="12.150338275094072"><ele>456.0</ele><time>2026-04-29T13:44:49Z</time></trkpt><trkpt lat="42.269433896166234" lon="12.150494485573532"><ele>456.0</ele><time>2026-04-29T13:44:50Z</time></trkpt><trkpt lat="42.269336318631936" lon="12.15064115546653"><ele>456.0</ele><time>2026-04-29T13:44:51Z</time></trkpt><trkpt lat="42.26925138418058" lon="12.150813890648017"><ele>456.0</ele><time>2026-04-29T13:44:52Z</time></trkpt><trkpt lat="42.26918579900046" lon="12.150999758736427"><ele>457.25</ele><time>2026-04-29T13:44:53Z</time></trkpt><trkpt lat="42.269138078916185" lon="12.151178655082028"><ele>458.5</ele><time>2026-04-29T13:44:54Z</time></trkpt><trkpt lat="42.269095278270036" lon="12.151345267410386"><ele>459.75</ele><time>2026-04-29T13:44:55Z</time></trkpt><trkpt lat="42.26904697632392" lon="12.151497744305594"><ele>461.0</ele><time>2026-04-29T13:44:56Z</time></trkpt><trkpt lat="42.26899544257861" lon="12.151646543224157"><ele>459.66666666666663</ele><time>2026-04-29T13:44:57Z</time></trkpt><trkpt lat="42.26892146663231" lon="12.151815169546648"><ele>458.33333333333337</ele><time>2026-04-29T13:44:58Z</time></trkpt><trkpt lat="42.268832161037494" lon="12.151997843411587"><ele>457.0</ele><time>2026-04-29T13:44:59Z</time></trkpt><trkpt lat="42.26872009438189" lon="12.152191205527938"><ele>456.6666666666667</ele><time>2026-04-29T13:45:00Z</time></trkpt><trkpt lat="42.268598405697624" lon="12.15238889680124"><ele>456.33333333333337</ele><time>2026-04-29T13:45:01Z</time></trkpt><trkpt lat="42.268475683397774" lon="12.152577439645453"><ele>456.0</ele><time>2026-04-29T13:45:02Z</time></trkpt><trkpt lat="42.26834027106811" lon="12.152775158464884"><ele>456.0</ele><time>2026-04-29T13:45:03Z</time></trkpt><trkpt lat="42.268200858184365" lon="12.152968026810921"><ele>456.0</ele><time>2026-04-29T13:45:04Z</time></trkpt><trkpt lat="42.26806204386184" lon="12.153145015352399"><ele>456.0</ele><time>2026-04-29T13:45:05Z</time></trkpt><trkpt lat="42.267926742041396" lon="12.153303477095198"><ele>454.33333333333337</ele><time>2026-04-29T13:45:06Z</time></trkpt><trkpt lat="42.26778890963065" lon="12.15346008622046"><ele>452.6666666666667</ele><time>2026-04-29T13:45:07Z</time></trkpt><trkpt lat="42.267645318514745" lon="12.153616250790746"><ele>451.0</ele><time>2026-04-29T13:45:08Z</time></trkpt><trkpt lat="42.267496528849215" lon="12.153766846263002"><ele>451.0</ele><time>2026-04-29T13:45:09Z</time></trkpt><trkpt lat="42.267352156051246" lon="12.153902280918373"><ele>451.0</ele><time>2026-04-29T13:45:10Z</time></trkpt><trkpt lat="42.26719983949538" lon="12.154049435326002"><ele>451.0</ele><time>2026-04-29T13:45:11Z</time></trkpt><trkpt lat="42.26702786095443" lon="12.154217880669531"><ele>450.5</ele><time>2026-04-29T13:45:12Z</time></trkpt><trkpt lat="42.266851043822435" lon="12.154399468823815"><ele>450.0</ele><time>2026-04-29T13:45:13Z</time></trkpt><trkpt lat="42.26667071868987" lon="12.154594085395827"><ele>450.0</ele><time>2026-04-29T13:45:14Z</time></trkpt><trkpt lat="42.26648363482583" lon="12.154803313413247"><ele>450.0</ele><time>2026-04-29T13:45:15Z</time></trkpt><trkpt lat="42.26628953920302" lon="12.155021987433525"><ele>448.0</ele><time>2026-04-29T13:45:16Z</time></trkpt><trkpt lat="42.2660917008279" lon="12.155244342297916"><ele>446.0</ele><time>2026-04-29T13:45:17Z</time></trkpt><trkpt lat="42.26589123196371" lon="12.155467199849268"><ele>446.0</ele><time>2026-04-29T13:45:18Z</time></trkpt><trkpt lat="42.26568922103839" lon="12.155689522363131"><ele>446.0</ele><time>2026-04-29T13:45:19Z</time></trkpt><trkpt lat="42.265481208006456" lon="12.155916306703345"><ele>442.5</ele><time>2026-04-29T13:45:20Z</time></trkpt><trkpt lat="42.26527462137327" lon="12.156145418601149"><ele>439.0</ele><time>2026-04-29T13:45:21Z</time></trkpt><trkpt lat="42.26506586745278" lon="12.156381272113705"><ele>438.5</ele><time>2026-04-29T13:45:22Z</time></trkpt><trkpt lat="42.26486679464482" lon="12.156612716885146"><ele>438.0</ele><time>2026-04-29T13:45:23Z</time></trkpt><trkpt lat="42.2646798270277" lon="12.156833680795613"><ele>436.0</ele><time>2026-04-29T13:45:24Z</time></trkpt><trkpt lat="42.26449985972142" lon="12.157040173335028"><ele>434.0</ele><time>2026-04-29T13:45:25Z</time></trkpt><trkpt lat="42.26432558347452" lon="12.157234244237168"><ele>434.3333333333333</ele><time>2026-04-29T13:45:26Z</time></trkpt><trkpt lat="42.2641623743025" lon="12.157421464891621"><ele>434.66666666666663</ele><time>2026-04-29T13:45:27Z</time></trkpt><trkpt lat="42.26400844713292" lon="12.157600369740639"><ele>435.0</ele><time>2026-04-29T13:45:28Z</time></trkpt><trkpt lat="42.26385079446517" lon="12.157772622966105"><ele>434.33333333333337</ele><time>2026-04-29T13:45:29Z</time></trkpt><trkpt lat="42.26368986444099" lon="12.15793198823528"><ele>433.6666666666667</ele><time>2026-04-29T13:45:30Z</time></trkpt><trkpt lat="42.26353626377411" lon="12.158065553572023"><ele>433.0</ele><time>2026-04-29T13:45:31Z</time></trkpt><trkpt lat="42.263385139839485" lon="12.158187949222384"><ele>432.6666666666667</ele><time>2026-04-29T13:45:32Z</time></trkpt><trkpt lat="42.26323814189663" lon="12.158304519075257"><ele>432.33333333333337</ele><time>2026-04-29T13:45:33Z</time></trkpt><trkpt lat="42.26309741342226" lon="12.158433983152817"><ele>432.0</ele><time>2026-04-29T13:45:34Z</time></trkpt><trkpt lat="42.26297393130806" lon="12.158579354344626"><ele>431.0</ele><time>2026-04-29T13:45:35Z</time></trkpt><trkpt lat="42.262872588008456" lon="12.158733722162742"><ele>430.0</ele><time>2026-04-29T13:45:36Z</time></trkpt><trkpt lat="42.26277904793403" lon="12.158907834080695"><ele>429.0</ele><time>2026-04-29T13:45:37Z</time></trkpt><trkpt lat="42.262690513492025" lon="12.1591004117649"><ele>429.0</ele><time>2026-04-29T13:45:38Z</time></trkpt><trkpt lat="42.26260556875521" lon="12.159310683841088"><ele>429.0</ele><time>2026-04-29T13:45:39Z</time></trkpt><trkpt lat="42.26252519466219" lon="12.15952364292465"><ele>429.0</ele><time>2026-04-29T13:45:40Z</time></trkpt><trkpt lat="42.26245291947902" lon="12.159726171619115"><ele>427.33333333333337</ele><time>2026-04-29T13:45:41Z</time></trkpt><trkpt lat="42.262385548737356" lon="12.159923245228791"><ele>425.6666666666667</ele><time>2026-04-29T13:45:42Z</time></trkpt><trkpt lat="42.26231266967927" lon="12.160130892444728"><ele>424.0</ele><time>2026-04-29T13:45:43Z</time></trkpt><trkpt lat="42.2622381539165" lon="12.160343981907669"><ele>424.0</ele><time>2026-04-29T13:45:44Z</time></trkpt><trkpt lat="42.262159439728784" lon="12.160562181090262"><ele>424.0</ele><time>2026-04-29T13:45:45Z</time></trkpt><trkpt lat="42.26207257655257" lon="12.160780238116237"><ele>424.0</ele><time>2026-04-29T13:45:46Z</time></trkpt><trkpt lat="42.26197614398367" lon="12.160996419702098"><ele>424.0</ele><time>2026-04-29T13:45:47Z</time></trkpt><trkpt lat="42.26187303776531" lon="12.16121578440374"><ele>424.0</ele><time>2026-04-29T13:45:48Z</time></trkpt><trkpt lat="42.261762561435376" lon="12.161434672942091"><ele>424.0</ele><time>2026-04-29T13:45:49Z</time></trkpt><trkpt lat="42.26163508879121" lon="12.161641544054612"><ele>423.6666666666667</ele><time>2026-04-29T13:45:50Z</time></trkpt><trkpt lat="42.26152202763855" lon="12.161872209517291"><ele>423.33333333333337</ele><time>2026-04-29T13:45:51Z</time></trkpt><trkpt lat="42.261416141336156" lon="12.162116068659827"><ele>423.0</ele><time>2026-04-29T13:45:52Z</time></trkpt><trkpt lat="42.26132514960796" lon="12.162379717858752"><ele>421.0</ele><time>2026-04-29T13:45:53Z</time></trkpt><trkpt lat="42.26121931123432" lon="12.162637681514395"><ele>419.0</ele><time>2026-04-29T13:45:54Z</time></trkpt><trkpt lat="42.2611138642704" lon="12.162901619072327"><ele>417.0</ele><time>2026-04-29T13:45:55Z</time></trkpt><trkpt lat="42.26100596955656" lon="12.163170045493468"><ele>416.0</ele><time>2026-04-29T13:45:56Z</time></trkpt><trkpt lat="42.260877464105825" lon="12.16341348915488"><ele>415.0</ele><time>2026-04-29T13:45:57Z</time></trkpt><trkpt lat="42.260767774002424" lon="12.163650685253145"><ele>414.0</ele><time>2026-04-29T13:45:58Z</time></trkpt><trkpt lat="42.26067854255532" lon="12.163891357939233"><ele>413.0</ele><time>2026-04-29T13:45:59Z</time></trkpt><trkpt lat="42.26058646555392" lon="12.164111568372606"><ele>412.0</ele><time>2026-04-29T13:46:00Z</time></trkpt><trkpt lat="42.260486120520994" lon="12.164317357214014"><ele>411.0</ele><time>2026-04-29T13:46:01Z</time></trkpt><trkpt lat="42.26041426375635" lon="12.164526953385877"><ele>411.0</ele><time>2026-04-29T13:46:02Z</time></trkpt><trkpt lat="42.26035966026856" lon="12.164727099958187"><ele>411.0</ele><time>2026-04-29T13:46:03Z</time></trkpt><trkpt lat="42.260321011461514" lon="12.164943473790117"><ele>411.0</ele><time>2026-04-29T13:46:04Z</time></trkpt><trkpt lat="42.260302312204715" lon="12.165146568743044"><ele>410.33333333333337</ele><time>2026-04-29T13:46:05Z</time></trkpt><trkpt lat="42.26031777449812" lon="12.165351043905558"><ele>409.6666666666667</ele><time>2026-04-29T13:46:06Z</time></trkpt><trkpt lat="42.26033246387393" lon="12.165557570414984"><ele>409.0</ele><time>2026-04-29T13:46:07Z</time></trkpt><trkpt lat="42.26036756511713" lon="12.165755124331527"><ele>408.5</ele><time>2026-04-29T13:46:08Z</time></trkpt><trkpt lat="42.260417250819465" lon="12.165938446271184"><ele>408.0</ele><time>2026-04-29T13:46:09Z</time></trkpt><trkpt lat="42.26047090672641" lon="12.166114151539697"><ele>407.5</ele><time>2026-04-29T13:46:10Z</time></trkpt><trkpt lat="42.260509705393254" lon="12.166265251979615"><ele>407.0</ele><time>2026-04-29T13:46:11Z</time></trkpt><trkpt lat="42.26053896441826" lon="12.166386358412318"><ele>407.0</ele><time>2026-04-29T13:46:12Z</time></trkpt><trkpt lat="42.26056702852278" lon="12.16651051153852"><ele>407.0</ele><time>2026-04-29T13:46:13Z</time></trkpt><trkpt lat="42.2605900824735" lon="12.166636745675508"><ele>407.0</ele><time>2026-04-29T13:46:14Z</time></trkpt><trkpt lat="42.26060421773603" lon="12.166775276030519"><ele>407.0</ele><time>2026-04-29T13:46:15Z</time></trkpt><trkpt lat="42.260596968235525" lon="12.166917148010544"><ele>407.0</ele><time>2026-04-29T13:46:16Z</time></trkpt><trkpt lat="42.26055836157026" lon="12.167051166640649"><ele>406.75</ele><time>2026-04-29T13:46:17Z</time></trkpt><trkpt lat="42.26047705995976" lon="12.167158851120304"><ele>406.5</ele><time>2026-04-29T13:46:18Z</time></trkpt><trkpt lat="42.26039854654786" lon="12.16726424954929"><ele>406.25</ele><time>2026-04-29T13:46:19Z</time></trkpt><trkpt lat="42.26031946277822" lon="12.167381983308609"><ele>406.0</ele><time>2026-04-29T13:46:20Z</time></trkpt><trkpt lat="42.26021890300831" lon="12.16748048558679"><ele>406.0</ele><time>2026-04-29T13:46:21Z</time></trkpt><trkpt lat="42.26011852748289" lon="12.167583326175423"><ele>406.0</ele><time>2026-04-29T13:46:22Z</time></trkpt><trkpt lat="42.260019439792856" lon="12.167680922356718"><ele>406.0</ele><time>2026-04-29T13:46:23Z</time></trkpt><trkpt lat="42.259910112544425" lon="12.167750779578691"><ele>406.0</ele><time>2026-04-29T13:46:24Z</time></trkpt><trkpt lat="42.25981210427537" lon="12.167831595524646"><ele>405.20000000000005</ele><time>2026-04-29T13:46:25Z</time></trkpt><trkpt lat="42.259713182623265" lon="12.16791495769606"><ele>404.40000000000003</ele><time>2026-04-29T13:46:26Z</time></trkpt><trkpt lat="42.259624716317965" lon="12.168012032834014"><ele>403.6</ele><time>2026-04-29T13:46:27Z</time></trkpt><trkpt lat="42.259559181625086" lon="12.168133267418842"><ele>402.8</ele><time>2026-04-29T13:46:28Z</time></trkpt><trkpt lat="42.25949189289379" lon="12.168244085745581"><ele>402.0</ele><time>2026-04-29T13:46:29Z</time></trkpt><trkpt lat="42.25943422328775" lon="12.168361680817428"><ele>402.0</ele><time>2026-04-29T13:46:30Z</time></trkpt><trkpt lat="42.259383139658986" lon="12.16848040870598"><ele>402.0</ele><time>2026-04-29T13:46:31Z</time></trkpt><trkpt lat="42.259332853672475" lon="12.168598922113425"><ele>402.0</ele><time>2026-04-29T13:46:32Z</time></trkpt><trkpt lat="42.25928328104471" lon="12.16871851933056"><ele>402.0</ele><time>2026-04-29T13:46:33Z</time></trkpt><trkpt lat="42.25922020951433" lon="12.168836285457404"><ele>402.0</ele><time>2026-04-29T13:46:34Z</time></trkpt><trkpt lat="42.25917077100176" lon="12.168969058157366"><ele>401.6</ele><time>2026-04-29T13:46:35Z</time></trkpt><trkpt lat="42.259126754995826" lon="12.169098271852258"><ele>401.20000000000005</ele><time>2026-04-29T13:46:36Z</time></trkpt><trkpt lat="42.25908866701484" lon="12.169228198378857"><ele>400.8</ele><time>2026-04-29T13:46:37Z</time></trkpt><trkpt lat="42.259052778822124" lon="12.169354381801817"><ele>400.4</ele><time>2026-04-29T13:46:38Z</time></trkpt><trkpt lat="42.2590210439515" lon="12.169473308382436"><ele>400.0</ele><time>2026-04-29T13:46:39Z</time></trkpt><trkpt lat="42.25898902480448" lon="12.169593300296292"><ele>400.00000000000006</ele><time>2026-04-29T13:46:40Z</time></trkpt><trkpt lat="42.25895946427691" lon="12.169704131551045"><ele>400.0</ele><time>2026-04-29T13:46:41Z</time></trkpt><trkpt lat="42.258946319819664" lon="12.169822485275095"><ele>400.0</ele><time>2026-04-29T13:46:42Z</time></trkpt><trkpt lat="42.25891752694168" lon="12.169930907061525"><ele>400.0</ele><time>2026-04-29T13:46:43Z</time></trkpt><trkpt lat="42.25888913970685" lon="12.170044827807676"><ele>400.00000000000006</ele><time>2026-04-29T13:46:44Z</time></trkpt><trkpt lat="42.258855491210525" lon="12.170165726220024"><ele>400.0</ele><time>2026-04-29T13:46:45Z</time></trkpt><trkpt lat="42.258819004909434" lon="12.170294412728788"><ele>396.2</ele><time>2026-04-29T13:46:46Z</time></trkpt><trkpt lat="42.25878741320649" lon="12.170426186922322"><ele>392.4</ele><time>2026-04-29T13:46:47Z</time></trkpt><trkpt lat="42.25875816150195" lon="12.17055337781856"><ele>388.6</ele><time>2026-04-29T13:46:48Z</time></trkpt><trkpt lat="42.25872735295688" lon="12.170689027446098"><ele>384.8</ele><time>2026-04-29T13:46:49Z</time></trkpt><trkpt lat="42.25869576461791" lon="12.170831769955116"><ele>381.0</ele><time>2026-04-29T13:46:50Z</time></trkpt><trkpt lat="42.25866239784309" lon="12.170972358181324"><ele>380.8333333333333</ele><time>2026-04-29T13:46:51Z</time></trkpt><trkpt lat="42.258633159955075" lon="12.171104296339674"><ele>380.6666666666667</ele><time>2026-04-29T13:46:52Z</time></trkpt><trkpt lat="42.25861141712587" lon="12.17120627611359"><ele>380.5</ele><time>2026-04-29T13:46:53Z</time></trkpt><trkpt lat="42.25859039720473" lon="12.17129976465309"><ele>380.33333333333337</ele><time>2026-04-29T13:46:54Z</time></trkpt><trkpt lat="42.25857049562916" lon="12.171396201149125"><ele>380.1666666666667</ele><time>2026-04-29T13:46:55Z</time></trkpt><trkpt lat="42.25854778270206" lon="12.17150517112315"><ele>380.0</ele><time>2026-04-29T13:46:56Z</time></trkpt><trkpt lat="42.25852403341047" lon="12.17162827116558"><ele>380.33333333333337</ele><time>2026-04-29T13:46:57Z</time></trkpt><trkpt lat="42.25849585604179" lon="12.171763012595003"><ele>380.6666666666667</ele><time>2026-04-29T13:46:58Z</time></trkpt><trkpt lat="42.25847358577406" lon="12.171891906646254"><ele>381.0</ele><time>2026-04-29T13:46:59Z</time></trkpt><trkpt lat="42.25844478978322" lon="12.171977095866126"><ele>381.3333333333333</ele><time>2026-04-29T13:47:00Z</time></trkpt><trkpt lat="42.25842567903045" lon="12.17207009292551"><ele>381.66666666666663</ele><time>2026-04-29T13:47:02Z</time></trkpt><trkpt lat="42.25840260782309" lon="12.172182362434155"><ele>382.0</ele><time>2026-04-29T13:47:07Z</time></trkpt><trkpt lat="42.258543303522885" lon="12.172258981913286"><ele>382.0</ele><time>2026-04-29T13:47:53Z</time></trkpt><trkpt lat="42.258607081160235" lon="12.172235400036923"><ele>382.0</ele><time>2026-04-29T13:50:31Z</time></trkpt><trkpt lat="42.258548766241184" lon="12.172203045293537"><ele>382.0</ele><time>2026-04-29T13:51:43Z</time></trkpt><trkpt lat="42.25855161785483" lon="12.1721108300999"><ele>382.0</ele><time>2026-04-29T13:52:59.999Z</time></trkpt><trkpt lat="42.25847506092393" lon="12.172104684371552"><ele>382.0</ele><time>2026-04-29T13:53:02.999Z</time></trkpt><trkpt lat="42.25841716746589" lon="12.172220770473887"><ele>382.0</ele><time>2026-04-29T13:53:04.999Z</time></trkpt><trkpt lat="42.258373255906044" lon="12.17236912104822"><ele>382.66666666666663</ele><time>2026-04-29T13:53:06.999Z</time></trkpt><trkpt lat="42.2583501972315" lon="12.172455398610994"><ele>383.3333333333333</ele><time>2026-04-29T13:53:07.999Z</time></trkpt><trkpt lat="42.25832628853263" lon="12.172554382887101"><ele>384.0</ele><time>2026-04-29T13:53:08.999Z</time></trkpt><trkpt lat="42.25830183855417" lon="12.172658062836128"><ele>384.66666666666663</ele><time>2026-04-29T13:53:09.999Z</time></trkpt><trkpt lat="42.258272191302694" lon="12.172766206615375"><ele>385.3333333333333</ele><time>2026-04-29T13:53:10.999Z</time></trkpt><trkpt lat="42.258243656085945" lon="12.172876092603245"><ele>386.0</ele><time>2026-04-29T13:53:11.999Z</time></trkpt><trkpt lat="42.258216214635866" lon="12.172991155681926"><ele>385.99999999999994</ele><time>2026-04-29T13:53:12.999Z</time></trkpt><trkpt lat="42.25817828303518" lon="12.173108063186087"><ele>386.0</ele><time>2026-04-29T13:53:13.999Z</time></trkpt><trkpt lat="42.25814262271331" lon="12.173219089021462"><ele>386.0</ele><time>2026-04-29T13:53:14.999Z</time></trkpt><trkpt lat="42.25811426750005" lon="12.17332138102978"><ele>386.0</ele><time>2026-04-29T13:53:15.999Z</time></trkpt><trkpt lat="42.258083736993214" lon="12.173413743787211"><ele>385.99999999999994</ele><time>2026-04-29T13:53:16.999Z</time></trkpt><trkpt lat="42.25805177623638" lon="12.173493901340361"><ele>386.0</ele><time>2026-04-29T13:53:17.999Z</time></trkpt><trkpt lat="42.258022126707814" lon="12.173569677271736"><ele>385.49999999999994</ele><time>2026-04-29T13:53:18.999Z</time></trkpt><trkpt lat="42.25799140808268" lon="12.173645791131005"><ele>385.0</ele><time>2026-04-29T13:53:19.999Z</time></trkpt><trkpt lat="42.25795709440093" lon="12.173730707705097"><ele>384.5</ele><time>2026-04-29T13:53:20.999Z</time></trkpt><trkpt lat="42.25790383399784" lon="12.17385448164868"><ele>384.0</ele><time>2026-04-29T13:53:22.999Z</time></trkpt><trkpt lat="42.25783578513981" lon="12.173889680903423"><ele>383.5</ele><time>2026-04-29T13:53:25.999Z</time></trkpt><trkpt lat="42.25780991493145" lon="12.173970600570602"><ele>383.0</ele><time>2026-04-29T13:53:27.999Z</time></trkpt><trkpt lat="42.25778635983244" lon="12.174082196918533"><ele>383.0</ele><time>2026-04-29T13:53:29.999Z</time></trkpt><trkpt lat="42.2577761374019" lon="12.174167400250294"><ele>383.0</ele><time>2026-04-29T13:53:31.999Z</time></trkpt><trkpt lat="42.257750990300316" lon="12.174247721812959"><ele>383.0</ele><time>2026-04-29T13:53:34.999Z</time></trkpt><trkpt lat="42.25775086888735" lon="12.174155122327987"><ele>383.0</ele><time>2026-04-29T13:54:09.999Z</time></trkpt><trkpt lat="42.257708122420446" lon="12.173897259264495"><ele>383.0</ele><time>2026-04-29T13:54:31.999Z</time></trkpt><trkpt lat="42.25770629337855" lon="12.173807820906339"><ele>381.85714285714283</ele><time>2026-04-29T13:54:38.999Z</time></trkpt><trkpt lat="42.257708388011814" lon="12.173715350145052"><ele>380.71428571428567</ele><time>2026-04-29T13:54:46.999Z</time></trkpt><trkpt lat="42.25772926840769" lon="12.173628220977701"><ele>379.57142857142856</ele><time>2026-04-29T13:54:53.999Z</time></trkpt><trkpt lat="42.25774717797812" lon="12.173544910933437"><ele>378.42857142857144</ele><time>2026-04-29T13:55:01.999Z</time></trkpt><trkpt lat="42.25776218555737" lon="12.173454257763517"><ele>377.2857142857143</ele><time>2026-04-29T13:55:07.999Z</time></trkpt><trkpt lat="42.257739484277266" lon="12.173550342935739"><ele>376.14285714285717</ele><time>2026-04-29T13:55:37Z</time></trkpt><trkpt lat="42.257714996501484" lon="12.173629402882362"><ele>375.0</ele><time>2026-04-29T13:55:43Z</time></trkpt><trkpt lat="42.257677963487815" lon="12.17370876975707"><ele>375.0</ele><time>2026-04-29T13:55:51Z</time></trkpt><trkpt lat="42.25764617949207" lon="12.173789111750468"><ele>375.0</ele><time>2026-04-29T13:56:27Z</time></trkpt><trkpt lat="42.25761016568068" lon="12.173865053860352"><ele>375.0</ele><time>2026-04-29T13:56:34Z</time></trkpt><trkpt lat="42.25761758169734" lon="12.173951324724852"><ele>375.0</ele><time>2026-04-29T13:57:36Z</time></trkpt><trkpt lat="42.25767738394742" lon="12.174011279579766"><ele>375.0</ele><time>2026-04-29T13:57:44Z</time></trkpt><trkpt lat="42.25771341454652" lon="12.174081082035867"><ele>375.0</ele><time>2026-04-29T13:57:51Z</time></trkpt><trkpt lat="42.257732894668166" lon="12.17417622305712"><ele>375.0</ele><time>2026-04-29T13:57:58Z</time></trkpt><trkpt lat="42.257699400008086" lon="12.174262874631752"><ele>376.6</ele><time>2026-04-29T13:59:49Z</time></trkpt><trkpt lat="42.25768160206106" lon="12.174350796635222"><ele>378.2</ele><time>2026-04-29T14:01:06Z</time></trkpt><trkpt lat="42.25773356148435" lon="12.174430139290711"><ele>379.79999999999995</ele><time>2026-04-29T14:01:09.999Z</time></trkpt><trkpt lat="42.25769020178146" lon="12.174574656115437"><ele>381.4</ele><time>2026-04-29T14:01:12.999Z</time></trkpt><trkpt lat="42.25763327256577" lon="12.174742588690407"><ele>383.0</ele><time>2026-04-29T14:01:14.999Z</time></trkpt><trkpt lat="42.25758939426378" lon="12.174863115044502"><ele>383.59999999999997</ele><time>2026-04-29T14:01:15.999Z</time></trkpt><trkpt lat="42.2575541733813" lon="12.17496992950181"><ele>384.2</ele><time>2026-04-29T14:01:16.999Z</time></trkpt><trkpt lat="42.257515113544336" lon="12.175079361860615"><ele>384.8</ele><time>2026-04-29T14:01:17.999Z</time></trkpt><trkpt lat="42.257487074537266" lon="12.175168710095653"><ele>385.4</ele><time>2026-04-29T14:01:18.999Z</time></trkpt><trkpt lat="42.257445773342035" lon="12.175285899288959"><ele>386.0</ele><time>2026-04-29T14:01:20.999Z</time></trkpt><trkpt lat="42.257391080545354" lon="12.17545375592719"><ele>386.0</ele><time>2026-04-29T14:01:22.999Z</time></trkpt><trkpt lat="42.25735341103258" lon="12.175573784422518"><ele>386.0</ele><time>2026-04-29T14:01:23.999Z</time></trkpt><trkpt lat="42.257310020023425" lon="12.175702514785643"><ele>386.0</ele><time>2026-04-29T14:01:24.999Z</time></trkpt><trkpt lat="42.257261414245995" lon="12.175831441556763"><ele>386.0</ele><time>2026-04-29T14:01:25.999Z</time></trkpt><trkpt lat="42.257220484475674" lon="12.175950168666265"><ele>386.0</ele><time>2026-04-29T14:01:26.999Z</time></trkpt><trkpt lat="42.257179855805084" lon="12.17606467640543"><ele>382.8333333333333</ele><time>2026-04-29T14:01:27.999Z</time></trkpt><trkpt lat="42.25714158273503" lon="12.17617416372569"><ele>379.66666666666663</ele><time>2026-04-29T14:01:28.999Z</time></trkpt><trkpt lat="42.257107618286994" lon="12.176275590185194"><ele>376.5</ele><time>2026-04-29T14:01:29.999Z</time></trkpt><trkpt lat="42.25706925212471" lon="12.176372927217773"><ele>373.3333333333333</ele><time>2026-04-29T14:01:30.999Z</time></trkpt><trkpt lat="42.257026153816845" lon="12.17646553103246"><ele>370.16666666666663</ele><time>2026-04-29T14:01:31.999Z</time></trkpt><trkpt lat="42.25700865295236" lon="12.17656593816965"><ele>367.0</ele><time>2026-04-29T14:01:32.999Z</time></trkpt><trkpt lat="42.257027660400695" lon="12.176659425566935"><ele>367.0</ele><time>2026-04-29T14:01:33.999Z</time></trkpt><trkpt lat="42.25701594360007" lon="12.176753272534556"><ele>367.0</ele><time>2026-04-29T14:01:35.999Z</time></trkpt><trkpt lat="42.25694298770138" lon="12.17675938596066"><ele>367.0</ele><time>2026-04-29T14:01:40.999Z</time></trkpt><trkpt lat="42.25688473759521" lon="12.17687362607708"><ele>367.0</ele><time>2026-04-29T14:01:42.999Z</time></trkpt><trkpt lat="42.25684826670877" lon="12.177001209018483"><ele>367.0</ele><time>2026-04-29T14:01:44.999Z</time></trkpt><trkpt lat="42.25680211889356" lon="12.177097262794948"><ele>367.0</ele><time>2026-04-29T14:01:46.999Z</time></trkpt><trkpt lat="42.25679260155794" lon="12.17718954406334"><ele>367.0</ele><time>2026-04-29T14:01:48.999Z</time></trkpt><trkpt lat="42.25675347083878" lon="12.177296307201152"><ele>367.0</ele><time>2026-04-29T14:01:51.999Z</time></trkpt><trkpt lat="42.25674246051021" lon="12.177381252387605"><ele>367.0</ele><time>2026-04-29T14:01:54.999Z</time></trkpt><trkpt lat="42.256721327343534" lon="12.177490845091842"><ele>367.0</ele><time>2026-04-29T14:02:01.999Z</time></trkpt><trkpt lat="42.256683036494906" lon="12.17763890170831"><ele>367.0</ele><time>2026-04-29T14:02:03.999Z</time></trkpt><trkpt lat="42.256676656431495" lon="12.177731768707918"><ele>367.0</ele><time>2026-04-29T14:02:04.999Z</time></trkpt><trkpt lat="42.25667391553943" lon="12.177869776642183"><ele>367.5</ele><time>2026-04-29T14:02:06.999Z</time></trkpt><trkpt lat="42.25667471712848" lon="12.17795686712159"><ele>368.0</ele><time>2026-04-29T14:02:08.999Z</time></trkpt><trkpt lat="42.25664499413716" lon="12.178092652110896"><ele>368.5</ele><time>2026-04-29T14:02:10.999Z</time></trkpt><trkpt lat="42.25663365747388" lon="12.178217922358737"><ele>369.0</ele><time>2026-04-29T14:02:12.999Z</time></trkpt><trkpt lat="42.256625197982906" lon="12.178345554944725"><ele>369.5</ele><time>2026-04-29T14:02:14.999Z</time></trkpt><trkpt lat="42.256601309616705" lon="12.178456089678011"><ele>370.0</ele><time>2026-04-29T14:02:16.999Z</time></trkpt><trkpt lat="42.25658626867597" lon="12.178539963368937"><ele>369.99999999999994</ele><time>2026-04-29T14:02:19.999Z</time></trkpt><trkpt lat="42.25660222897037" lon="12.178627271424018"><ele>370.0</ele><time>2026-04-29T14:03:42.999Z</time></trkpt><trkpt lat="42.256581189998066" lon="12.17870992982941"><ele>370.0</ele><time>2026-04-29T14:03:50.999Z</time></trkpt><trkpt lat="42.256592418322796" lon="12.178854711416239"><ele>370.0</ele><time>2026-04-29T14:05:05.999Z</time></trkpt><trkpt lat="42.25655624376395" lon="12.178933395794546"><ele>370.0</ele><time>2026-04-29T14:05:12.999Z</time></trkpt><trkpt lat="42.25651991650206" lon="12.178860899737764"><ele>369.99999999999994</ele><time>2026-04-29T14:05:50.999Z</time></trkpt><trkpt lat="42.25657909617431" lon="12.17881742610448"><ele>370.0</ele><time>2026-04-29T14:06:00.999Z</time></trkpt><trkpt lat="42.256591203717974" lon="12.178724378172907"><ele>370.0</ele><time>2026-04-29T14:06:30.999Z</time></trkpt><trkpt lat="42.2566277332417" lon="12.178651170647981"><ele>370.0</ele><time>2026-04-29T14:06:37.999Z</time></trkpt><trkpt lat="42.25665657603317" lon="12.178559327374211"><ele>370.0</ele><time>2026-04-29T14:06:44.999Z</time></trkpt><trkpt lat="42.25666270707795" lon="12.178463127128056"><ele>370.0</ele><time>2026-04-29T14:06:49.999Z</time></trkpt><trkpt lat="42.25666158297418" lon="12.178370247558933"><ele>370.0</ele><time>2026-04-29T14:07:22Z</time></trkpt><trkpt lat="42.25670746835344" lon="12.17829991791207"><ele>370.0</ele><time>2026-04-29T14:08:04Z</time></trkpt><trkpt lat="42.25677104533964" lon="12.178186745478419"><ele>369.99999999999994</ele><time>2026-04-29T14:09:25Z</time></trkpt><trkpt lat="42.25671281929116" lon="12.178221168238903"><ele>370.0</ele><time>2026-04-29T14:10:33Z</time></trkpt><trkpt lat="42.25667748041305" lon="12.178316021156398"><ele>370.0</ele><time>2026-04-29T14:10:52Z</time></trkpt><trkpt lat="42.256640928113605" lon="12.178401625603872"><ele>370.0</ele><time>2026-04-29T14:11:06Z</time></trkpt><trkpt lat="42.25662938861963" lon="12.178488391013946"><ele>370.0</ele><time>2026-04-29T14:11:14Z</time></trkpt><trkpt lat="42.256630667675566" lon="12.178592363048937"><ele>369.99999999999994</ele><time>2026-04-29T14:12:01Z</time></trkpt><trkpt lat="42.25659237955433" lon="12.17869629067128"><ele>370.0</ele><time>2026-04-29T14:12:05Z</time></trkpt><trkpt lat="42.25658511882968" lon="12.178825621109949"><ele>370.0</ele><time>2026-04-29T14:12:08Z</time></trkpt><trkpt lat="42.25656324200563" lon="12.178967964428328"><ele>370.0</ele><time>2026-04-29T14:12:10Z</time></trkpt><trkpt lat="42.25653127999822" lon="12.179070096529895"><ele>370.0</ele><time>2026-04-29T14:12:12Z</time></trkpt><trkpt lat="42.25655868528384" lon="12.179181629866914"><ele>370.0</ele><time>2026-04-29T14:12:15Z</time></trkpt><trkpt lat="42.25652025360101" lon="12.179298189098768"><ele>370.0</ele><time>2026-04-29T14:12:18Z</time></trkpt><trkpt lat="42.2564601882362" lon="12.179355075544148"><ele>370.0</ele><time>2026-04-29T14:12:47Z</time></trkpt><trkpt lat="42.25641639039872" lon="12.179465289778605"><ele>369.66666666666663</ele><time>2026-04-29T14:12:51Z</time></trkpt><trkpt lat="42.25637483809175" lon="12.179539545189792"><ele>369.3333333333333</ele><time>2026-04-29T14:12:52Z</time></trkpt><trkpt lat="42.25635876009617" lon="12.179624169098753"><ele>369.0</ele><time>2026-04-29T14:12:53Z</time></trkpt><trkpt lat="42.256316355919964" lon="12.179715589233918"><ele>368.6666666666667</ele><time>2026-04-29T14:12:55Z</time></trkpt><trkpt lat="42.25627291466416" lon="12.179801898122161"><ele>368.33333333333337</ele><time>2026-04-29T14:12:57Z</time></trkpt><trkpt lat="42.256235140671706" lon="12.179895956793422"><ele>368.0</ele><time>2026-04-29T14:13:00Z</time></trkpt><trkpt lat="42.25617777041616" lon="12.179995478329912"><ele>368.0</ele><time>2026-04-29T14:13:02Z</time></trkpt><trkpt lat="42.25613389578792" lon="12.180058379456263"><ele>368.0</ele><time>2026-04-29T14:13:03Z</time></trkpt><trkpt lat="42.25609907048585" lon="12.180134932312207"><ele>368.0</ele><time>2026-04-29T14:13:04Z</time></trkpt><trkpt lat="42.25611544223311" lon="12.180226819003096"><ele>368.0</ele><time>2026-04-29T14:13:05Z</time></trkpt><trkpt lat="42.25608207525075" lon="12.180302801238959"><ele>368.0</ele><time>2026-04-29T14:13:12Z</time></trkpt><trkpt lat="42.25606387060009" lon="12.18041691058139"><ele>368.0</ele><time>2026-04-29T14:13:31.001Z</time></trkpt><trkpt lat="42.25611862643388" lon="12.180360264954418"><ele>368.0</ele><time>2026-04-29T14:14:41Z</time></trkpt><trkpt lat="42.25619426507724" lon="12.180376813973249"><ele>368.0</ele><time>2026-04-29T14:15:36.001Z</time></trkpt><trkpt lat="42.256238099956086" lon="12.180449014515325"><ele>368.0</ele><time>2026-04-29T14:16:18.001Z</time></trkpt><trkpt lat="42.25620683680902" lon="12.180371129417056"><ele>368.0</ele><time>2026-04-29T14:17:16.001Z</time></trkpt><trkpt lat="42.2561264651296" lon="12.180332652365513"><ele>368.0</ele><time>2026-04-29T14:17:32.001Z</time></trkpt><trkpt lat="42.25609036317262" lon="12.180415516222082"><ele>368.0</ele><time>2026-04-29T14:17:40.001Z</time></trkpt><trkpt lat="42.25614523159953" lon="12.180357401314964"><ele>368.0</ele><time>2026-04-29T14:23:06Z</time></trkpt><trkpt lat="42.256187342611476" lon="12.180241988417821"><ele>368.0</ele><time>2026-04-29T14:23:08Z</time></trkpt><trkpt lat="42.256209910628876" lon="12.180105756998719"><ele>368.0</ele><time>2026-04-29T14:23:10Z</time></trkpt><trkpt lat="42.25622576431026" lon="12.17996960703258"><ele>368.0</ele><time>2026-04-29T14:23:12Z</time></trkpt><trkpt lat="42.2562478519069" lon="12.179859370538697"><ele>368.0</ele><time>2026-04-29T14:23:14Z</time></trkpt><trkpt lat="42.25629049949402" lon="12.179761595432526"><ele>368.0</ele><time>2026-04-29T14:23:17Z</time></trkpt><trkpt lat="42.25637478187875" lon="12.179642992566054"><ele>367.79999999999995</ele><time>2026-04-29T14:23:19Z</time></trkpt><trkpt lat="42.25645075690243" lon="12.179520772407344"><ele>367.6</ele><time>2026-04-29T14:23:21Z</time></trkpt><trkpt lat="42.25651273645107" lon="12.179407022770997"><ele>367.4</ele><time>2026-04-29T14:23:23Z</time></trkpt><trkpt lat="42.25654711796597" lon="12.179285705635635"><ele>367.20000000000005</ele><time>2026-04-29T14:23:25Z</time></trkpt><trkpt lat="42.256552361687895" lon="12.179175725956927"><ele>367.0</ele><time>2026-04-29T14:23:27Z</time></trkpt><trkpt lat="42.25657688559219" lon="12.179086794982924"><ele>367.5</ele><time>2026-04-29T14:23:28Z</time></trkpt><trkpt lat="42.256584367990136" lon="12.178988830813868"><ele>368.0</ele><time>2026-04-29T14:23:29Z</time></trkpt><trkpt lat="42.256582361044124" lon="12.178885332208417"><ele>368.5</ele><time>2026-04-29T14:23:30Z</time></trkpt><trkpt lat="42.25661087117921" lon="12.178782941578351"><ele>369.0</ele><time>2026-04-29T14:23:31Z</time></trkpt><trkpt lat="42.25661678762149" lon="12.178686029767295"><ele>369.5</ele><time>2026-04-29T14:23:32Z</time></trkpt><trkpt lat="42.25662619230213" lon="12.178579577871949"><ele>370.0</ele><time>2026-04-29T14:23:33Z</time></trkpt><trkpt lat="42.25663662932287" lon="12.178473716660712"><ele>370.0</ele><time>2026-04-29T14:23:34Z</time></trkpt><trkpt lat="42.25664915441213" lon="12.178349429896421"><ele>370.0</ele><time>2026-04-29T14:23:35Z</time></trkpt><trkpt lat="42.256663080189995" lon="12.178221138250656"><ele>370.0</ele><time>2026-04-29T14:23:36Z</time></trkpt><trkpt lat="42.25666086666986" lon="12.178087986415264"><ele>370.0</ele><time>2026-04-29T14:23:37Z</time></trkpt><trkpt lat="42.25669090475961" lon="12.177964803606576"><ele>370.0</ele><time>2026-04-29T14:23:38Z</time></trkpt><trkpt lat="42.25670731558999" lon="12.177828658204344"><ele>370.16666666666663</ele><time>2026-04-29T14:23:39Z</time></trkpt><trkpt lat="42.25672236027077" lon="12.17770785199261"><ele>370.3333333333333</ele><time>2026-04-29T14:23:40Z</time></trkpt><trkpt lat="42.25673983709227" lon="12.177581649120409"><ele>370.5</ele><time>2026-04-29T14:23:41Z</time></trkpt><trkpt lat="42.25675864303143" lon="12.177460091739267"><ele>370.6666666666667</ele><time>2026-04-29T14:23:42Z</time></trkpt><trkpt lat="42.25677842894836" lon="12.177348257396789"><ele>370.83333333333337</ele><time>2026-04-29T14:23:43Z</time></trkpt><trkpt lat="42.256796499547804" lon="12.177247358343402"><ele>371.0</ele><time>2026-04-29T14:23:44Z</time></trkpt><trkpt lat="42.256826468754916" lon="12.17713408892319"><ele>370.20000000000005</ele><time>2026-04-29T14:23:45Z</time></trkpt><trkpt lat="42.256875526091484" lon="12.176988754924533"><ele>369.40000000000003</ele><time>2026-04-29T14:23:47Z</time></trkpt><trkpt lat="42.2569275490095" lon="12.176826095515402"><ele>368.6</ele><time>2026-04-29T14:23:49Z</time></trkpt><trkpt lat="42.256965662878194" lon="12.176706588743698"><ele>367.8</ele><time>2026-04-29T14:23:51Z</time></trkpt><trkpt lat="42.25704286991314" lon="12.176615293323154"><ele>367.0</ele><time>2026-04-29T14:24:11.001Z</time></trkpt><trkpt lat="42.257081307904244" lon="12.176455213074298"><ele>365.8333333333333</ele><time>2026-04-29T14:24:13.001Z</time></trkpt><trkpt lat="42.25710694972917" lon="12.176357735996255"><ele>364.66666666666663</ele><time>2026-04-29T14:24:14.001Z</time></trkpt><trkpt lat="42.25713850445746" lon="12.17626716146469"><ele>363.5</ele><time>2026-04-29T14:24:15.001Z</time></trkpt><trkpt lat="42.257172293586805" lon="12.176174282871317"><ele>362.3333333333333</ele><time>2026-04-29T14:24:16.001Z</time></trkpt><trkpt lat="42.257210951091345" lon="12.176062775833003"><ele>361.1666666666667</ele><time>2026-04-29T14:24:17.001Z</time></trkpt><trkpt lat="42.257251507775536" lon="12.175938754055167"><ele>360.0</ele><time>2026-04-29T14:24:18.001Z</time></trkpt><trkpt lat="42.25729204789648" lon="12.175822728250655"><ele>363.3333333333333</ele><time>2026-04-29T14:24:19.001Z</time></trkpt><trkpt lat="42.25732851874833" lon="12.175719095111715"><ele>366.6666666666667</ele><time>2026-04-29T14:24:20.001Z</time></trkpt><trkpt lat="42.25736146421128" lon="12.175625086987761"><ele>370.0</ele><time>2026-04-29T14:24:21.001Z</time></trkpt><trkpt lat="42.25739079917379" lon="12.17553827015105"><ele>373.33333333333337</ele><time>2026-04-29T14:24:22.001Z</time></trkpt><trkpt lat="42.25742022663564" lon="12.17544825859542"><ele>376.6666666666667</ele><time>2026-04-29T14:24:23.001Z</time></trkpt><trkpt lat="42.25745831258861" lon="12.175344250748271"><ele>380.0</ele><time>2026-04-29T14:24:24.001Z</time></trkpt><trkpt lat="42.25750012886361" lon="12.175235677587027"><ele>380.6</ele><time>2026-04-29T14:24:25.001Z</time></trkpt><trkpt lat="42.25754862498348" lon="12.175123898676304"><ele>381.2</ele><time>2026-04-29T14:24:26.001Z</time></trkpt><trkpt lat="42.25759058933175" lon="12.174997462079883"><ele>381.79999999999995</ele><time>2026-04-29T14:24:27.001Z</time></trkpt><trkpt lat="42.25763531350188" lon="12.174866495298787"><ele>382.4</ele><time>2026-04-29T14:24:28.001Z</time></trkpt><trkpt lat="42.257682312212914" lon="12.174728575411566"><ele>383.0</ele><time>2026-04-29T14:24:29.001Z</time></trkpt><trkpt lat="42.25772709783113" lon="12.1745980837181"><ele>383.0</ele><time>2026-04-29T14:24:30.001Z</time></trkpt><trkpt lat="42.25776981036031" lon="12.174472089228901"><ele>383.0</ele><time>2026-04-29T14:24:31.001Z</time></trkpt><trkpt lat="42.25780857962322" lon="12.174358250115349"><ele>383.0</ele><time>2026-04-29T14:24:32.001Z</time></trkpt><trkpt lat="42.25784129003972" lon="12.174262991836162"><ele>383.0</ele><time>2026-04-29T14:24:33.001Z</time></trkpt><trkpt lat="42.25787692195279" lon="12.174144239429905"><ele>383.0</ele><time>2026-04-29T14:24:35Z</time></trkpt><trkpt lat="42.25790196069943" lon="12.174041568645626"><ele>383.0</ele><time>2026-04-29T14:24:38Z</time></trkpt><trkpt lat="42.2578866072667" lon="12.173933057398475"><ele>381.4</ele><time>2026-04-29T14:24:40.001Z</time></trkpt><trkpt lat="42.257849783561255" lon="12.173781304114502"><ele>379.79999999999995</ele><time>2026-04-29T14:24:42.001Z</time></trkpt><trkpt lat="42.25785752067943" lon="12.173672470145132"><ele>378.2</ele><time>2026-04-29T14:24:43.001Z</time></trkpt><trkpt lat="42.25787385769416" lon="12.173552097740497"><ele>376.6</ele><time>2026-04-29T14:24:44.001Z</time></trkpt><trkpt lat="42.25789357994135" lon="12.173432345243427"><ele>375.0</ele><time>2026-04-29T14:24:45.001Z</time></trkpt><trkpt lat="42.257918501665706" lon="12.173302262404611"><ele>373.0</ele><time>2026-04-29T14:24:46.001Z</time></trkpt><trkpt lat="42.2579440355404" lon="12.173163942391819"><ele>371.0</ele><time>2026-04-29T14:24:47.001Z</time></trkpt><trkpt lat="42.257973321224824" lon="12.17302481040144"><ele>369.0</ele><time>2026-04-29T14:24:48.001Z</time></trkpt><trkpt lat="42.25801006795679" lon="12.172893916466766"><ele>367.0</ele><time>2026-04-29T14:24:49.001Z</time></trkpt><trkpt lat="42.25805552782203" lon="12.172771555883294"><ele>365.0</ele><time>2026-04-29T14:24:50.001Z</time></trkpt><trkpt lat="42.25810663724926" lon="12.172656742337832"><ele>368.4</ele><time>2026-04-29T14:24:51.001Z</time></trkpt><trkpt lat="42.25815820052683" lon="12.172544572909542"><ele>371.8</ele><time>2026-04-29T14:24:52.001Z</time></trkpt><trkpt lat="42.258206380588305" lon="12.17242888647759"><ele>375.20000000000005</ele><time>2026-04-29T14:24:53.001Z</time></trkpt><trkpt lat="42.25824257473278" lon="12.172312401446144"><ele>378.6</ele><time>2026-04-29T14:24:54.001Z</time></trkpt><trkpt lat="42.25827906307167" lon="12.17218401598441"><ele>382.0</ele><time>2026-04-29T14:24:55.001Z</time></trkpt><trkpt lat="42.25830468754231" lon="12.1720450358103"><ele>382.0</ele><time>2026-04-29T14:24:56.001Z</time></trkpt><trkpt lat="42.258319974421795" lon="12.171897055602422"><ele>382.0</ele><time>2026-04-29T14:24:57.001Z</time></trkpt><trkpt lat="42.25831782406357" lon="12.171742904894147"><ele>382.0</ele><time>2026-04-29T14:24:58.001Z</time></trkpt><trkpt lat="42.258304170741546" lon="12.171587857708236"><ele>382.0</ele><time>2026-04-29T14:24:59.001Z</time></trkpt><trkpt lat="42.258275226380846" lon="12.1714325305297"><ele>381.6</ele><time>2026-04-29T14:25:00.001Z</time></trkpt><trkpt lat="42.258235960812364" lon="12.171281478504532"><ele>381.20000000000005</ele><time>2026-04-29T14:25:01.001Z</time></trkpt><trkpt lat="42.25819349609632" lon="12.171139647170392"><ele>380.8</ele><time>2026-04-29T14:25:02.001Z</time></trkpt><trkpt lat="42.25814288940143" lon="12.171007848128665"><ele>380.4</ele><time>2026-04-29T14:25:03.001Z</time></trkpt><trkpt lat="42.25808708837283" lon="12.170890909553924"><ele>380.0</ele><time>2026-04-29T14:25:04.001Z</time></trkpt><trkpt lat="42.258021029349145" lon="12.170768608585005"><ele>377.75</ele><time>2026-04-29T14:25:05.001Z</time></trkpt><trkpt lat="42.25795215614548" lon="12.170640150194556"><ele>375.5</ele><time>2026-04-29T14:25:06.001Z</time></trkpt><trkpt lat="42.25787643547597" lon="12.170506424945158"><ele>373.25</ele><time>2026-04-29T14:25:07.001Z</time></trkpt><trkpt lat="42.257801014037064" lon="12.170369072709784"><ele>371.0</ele><time>2026-04-29T14:25:08.001Z</time></trkpt><trkpt lat="42.2577278435102" lon="12.17023889451717"><ele>371.0</ele><time>2026-04-29T14:25:09.001Z</time></trkpt><trkpt lat="42.257660671424325" lon="12.170114599930363"><ele>371.0</ele><time>2026-04-29T14:25:10.001Z</time></trkpt><trkpt lat="42.25760100352602" lon="12.17001027745465"><ele>371.0</ele><time>2026-04-29T14:25:11.001Z</time></trkpt><trkpt lat="42.25754550307719" lon="12.169908169994677"><ele>371.0</ele><time>2026-04-29T14:25:12.001Z</time></trkpt><trkpt lat="42.2574905254179" lon="12.169802098986306"><ele>371.0</ele><time>2026-04-29T14:25:13.001Z</time></trkpt><trkpt lat="42.25742551135151" lon="12.169694391113156"><ele>370.6</ele><time>2026-04-29T14:25:14.001Z</time></trkpt><trkpt lat="42.25735487213998" lon="12.169593452334777"><ele>370.20000000000005</ele><time>2026-04-29T14:25:15.001Z</time></trkpt><trkpt lat="42.257277300115234" lon="12.169514543668809"><ele>369.79999999999995</ele><time>2026-04-29T14:25:16.001Z</time></trkpt><trkpt lat="42.257196198799925" lon="12.16945179534567"><ele>369.4</ele><time>2026-04-29T14:25:17.001Z</time></trkpt><trkpt lat="42.2571159003158" lon="12.169398221782314"><ele>369.0</ele><time>2026-04-29T14:25:18.001Z</time></trkpt><trkpt lat="42.25702633065824" lon="12.169349670121184"><ele>369.0</ele><time>2026-04-29T14:25:19.001Z</time></trkpt><trkpt lat="42.256916619029695" lon="12.169314384357142"><ele>369.0</ele><time>2026-04-29T14:25:20.001Z</time></trkpt><trkpt lat="42.2567998703227" lon="12.169284290217"><ele>369.0</ele><time>2026-04-29T14:25:21.001Z</time></trkpt><trkpt lat="42.25667240377956" lon="12.169265893567507"><ele>369.0</ele><time>2026-04-29T14:25:22.001Z</time></trkpt><trkpt lat="42.25653906986439" lon="12.169250653170451"><ele>374.75</ele><time>2026-04-29T14:25:23.001Z</time></trkpt><trkpt lat="42.25640702009401" lon="12.16925079377862"><ele>380.5</ele><time>2026-04-29T14:25:24.001Z</time></trkpt><trkpt lat="42.2562857236175" lon="12.169294019921134"><ele>386.25</ele><time>2026-04-29T14:25:25.001Z</time></trkpt><trkpt lat="42.25617303574894" lon="12.169382352044481"><ele>392.0</ele><time>2026-04-29T14:25:26.001Z</time></trkpt><trkpt lat="42.2560816455799" lon="12.169509067014898"><ele>392.0</ele><time>2026-04-29T14:25:27.001Z</time></trkpt><trkpt lat="42.256019244953286" lon="12.169672257509399"><ele>392.0</ele><time>2026-04-29T14:25:28.001Z</time></trkpt><trkpt lat="42.25597669040581" lon="12.169862426090004"><ele>392.0</ele><time>2026-04-29T14:25:29.001Z</time></trkpt><trkpt lat="42.25594991437742" lon="12.170068393160411"><ele>392.0</ele><time>2026-04-29T14:25:30.001Z</time></trkpt><trkpt lat="42.25594340229562" lon="12.170290182031874"><ele>390.3333333333333</ele><time>2026-04-29T14:25:31.001Z</time></trkpt><trkpt lat="42.2559548363404" lon="12.170524864917677"><ele>388.66666666666663</ele><time>2026-04-29T14:25:32.001Z</time></trkpt><trkpt lat="42.2559687186465" lon="12.170769653128062"><ele>387.0</ele><time>2026-04-29T14:25:33.001Z</time></trkpt><trkpt lat="42.25597802141723" lon="12.170992900204318"><ele>386.75</ele><time>2026-04-29T14:25:34.001Z</time></trkpt><trkpt lat="42.25598779749864" lon="12.171196374738521"><ele>386.5</ele><time>2026-04-29T14:25:35.001Z</time></trkpt><trkpt lat="42.256015887821924" lon="12.171379654940969"><ele>386.25</ele><time>2026-04-29T14:25:36.001Z</time></trkpt><trkpt lat="42.25606600255129" lon="12.171535729275814"><ele>386.0</ele><time>2026-04-29T14:25:37.001Z</time></trkpt><trkpt lat="42.256138088834156" lon="12.171666113122644"><ele>385.66666666666663</ele><time>2026-04-29T14:25:38.001Z</time></trkpt><trkpt lat="42.25622383794837" lon="12.17176194006331"><ele>385.3333333333333</ele><time>2026-04-29T14:25:39.001Z</time></trkpt><trkpt lat="42.25630402362727" lon="12.171833587928635"><ele>385.0</ele><time>2026-04-29T14:25:40.001Z</time></trkpt><trkpt lat="42.25636206882795" lon="12.171917711829046"><ele>384.66666666666663</ele><time>2026-04-29T14:25:41.001Z</time></trkpt><trkpt lat="42.256384701512985" lon="12.172007601978962"><ele>384.3333333333333</ele><time>2026-04-29T14:25:42.001Z</time></trkpt><trkpt lat="42.256392284161414" lon="12.17209344039558"><ele>384.0</ele><time>2026-04-29T14:25:43.001Z</time></trkpt><trkpt lat="42.25634377858384" lon="12.172178607779328"><ele>384.0</ele><time>2026-04-29T14:25:44.001Z</time></trkpt><trkpt lat="42.25627137674094" lon="12.172227375896007"><ele>384.0</ele><time>2026-04-29T14:25:45.001Z</time></trkpt><trkpt lat="42.25620057980021" lon="12.17224018433676"><ele>384.0</ele><time>2026-04-29T14:25:46.001Z</time></trkpt><trkpt lat="42.25607948308691" lon="12.17216739432397"><ele>384.0</ele><time>2026-04-29T14:25:48.001Z</time></trkpt><trkpt lat="42.25601757437682" lon="12.172079843344818"><ele>384.0</ele><time>2026-04-29T14:25:49.001Z</time></trkpt><trkpt lat="42.25598875667335" lon="12.172003280371044"><ele>384.0</ele><time>2026-04-29T14:25:50.001Z</time></trkpt><trkpt lat="42.25591093022801" lon="12.171890894390241"><ele>384.0</ele><time>2026-04-29T14:25:51.001Z</time></trkpt><trkpt lat="42.25580243179855" lon="12.17178675278353"><ele>384.0</ele><time>2026-04-29T14:25:52.001Z</time></trkpt><trkpt lat="42.25568715448696" lon="12.171657115245386"><ele>384.0</ele><time>2026-04-29T14:25:53.001Z</time></trkpt><trkpt lat="42.25555285152364" lon="12.171519568209023"><ele>387.33333333333337</ele><time>2026-04-29T14:25:54.001Z</time></trkpt><trkpt lat="42.255416857994355" lon="12.17138756865792"><ele>390.6666666666667</ele><time>2026-04-29T14:25:55.001Z</time></trkpt><trkpt lat="42.255262917448725" lon="12.171278850668031"><ele>394.0</ele><time>2026-04-29T14:25:56.001Z</time></trkpt><trkpt lat="42.2550984497647" lon="12.17117794266466"><ele>394.0</ele><time>2026-04-29T14:25:57.001Z</time></trkpt><trkpt lat="42.25493285884401" lon="12.171076552707193"><ele>394.0</ele><time>2026-04-29T14:25:58.001Z</time></trkpt><trkpt lat="42.25478548149789" lon="12.170964711300295"><ele>394.0</ele><time>2026-04-29T14:25:59.001Z</time></trkpt><trkpt lat="42.25468535768116" lon="12.17080803027427"><ele>395.0</ele><time>2026-04-29T14:26:00.001Z</time></trkpt><trkpt lat="42.25458319305621" lon="12.170638948467413"><ele>396.0</ele><time>2026-04-29T14:26:01.001Z</time></trkpt><trkpt lat="42.254488965155794" lon="12.170449950226077"><ele>397.0</ele><time>2026-04-29T14:26:02.001Z</time></trkpt><trkpt lat="42.254392594852035" lon="12.17024590934503"><ele>397.0</ele><time>2026-04-29T14:26:03.001Z</time></trkpt><trkpt lat="42.25429934818317" lon="12.170029161158874"><ele>397.0</ele><time>2026-04-29T14:26:04.001Z</time></trkpt><trkpt lat="42.25420478407693" lon="12.169801812352201"><ele>397.0</ele><time>2026-04-29T14:26:05.001Z</time></trkpt><trkpt lat="42.254093913741585" lon="12.169583448532189"><ele>397.6666666666667</ele><time>2026-04-29T14:26:06.001Z</time></trkpt><trkpt lat="42.25401048952283" lon="12.169366910198134"><ele>398.33333333333337</ele><time>2026-04-29T14:26:07.001Z</time></trkpt><trkpt lat="42.25393014269853" lon="12.169177474548407"><ele>399.0</ele><time>2026-04-29T14:26:08.001Z</time></trkpt><trkpt lat="42.25386051954353" lon="12.169009921287923"><ele>399.0</ele><time>2026-04-29T14:26:09.001Z</time></trkpt><trkpt lat="42.25380738948535" lon="12.168867730788582"><ele>399.0</ele><time>2026-04-29T14:26:10.001Z</time></trkpt><trkpt lat="42.253755144618566" lon="12.168742051663077"><ele>399.0</ele><time>2026-04-29T14:26:11.001Z</time></trkpt><trkpt lat="42.25371327064308" lon="12.168633920074813"><ele>399.0</ele><time>2026-04-29T14:26:12.001Z</time></trkpt><trkpt lat="42.253675485862466" lon="12.168528928819555"><ele>399.0</ele><time>2026-04-29T14:26:13.001Z</time></trkpt><trkpt lat="42.25363442844733" lon="12.16842165678756"><ele>399.0</ele><time>2026-04-29T14:26:14.001Z</time></trkpt><trkpt lat="42.25358036278076" lon="12.168300500713551"><ele>399.0</ele><time>2026-04-29T14:26:15.001Z</time></trkpt><trkpt lat="42.2535253723074" lon="12.168178997629747"><ele>399.0</ele><time>2026-04-29T14:26:16.001Z</time></trkpt><trkpt lat="42.25348009949748" lon="12.168062219954743"><ele>399.0</ele><time>2026-04-29T14:26:17.001Z</time></trkpt><trkpt lat="42.25343275358674" lon="12.167944584198345"><ele>399.0</ele><time>2026-04-29T14:26:18.001Z</time></trkpt><trkpt lat="42.25338351270925" lon="12.167826374967294"><ele>399.4</ele><time>2026-04-29T14:26:19.001Z</time></trkpt><trkpt lat="42.253344438325286" lon="12.167722582991132"><ele>399.79999999999995</ele><time>2026-04-29T14:26:22.001Z</time></trkpt><trkpt lat="42.2532879676262" lon="12.167556140978753"><ele>400.20000000000005</ele><time>2026-04-29T14:26:24.001Z</time></trkpt><trkpt lat="42.25324715446781" lon="12.167435518589006"><ele>400.6</ele><time>2026-04-29T14:26:25.001Z</time></trkpt><trkpt lat="42.25320603317468" lon="12.16731707488004"><ele>401.0</ele><time>2026-04-29T14:26:26.001Z</time></trkpt><trkpt lat="42.25316278966507" lon="12.16719651789733"><ele>401.4</ele><time>2026-04-29T14:26:27.001Z</time></trkpt><trkpt lat="42.253120843425606" lon="12.167065346500284"><ele>401.8</ele><time>2026-04-29T14:26:28.001Z</time></trkpt><trkpt lat="42.25307200838012" lon="12.166928622955153"><ele>402.2</ele><time>2026-04-29T14:26:29.001Z</time></trkpt><trkpt lat="42.25302844779453" lon="12.166808998612595"><ele>402.59999999999997</ele><time>2026-04-29T14:26:30.001Z</time></trkpt><trkpt lat="42.25299253230242" lon="12.166723245756959"><ele>403.0</ele><time>2026-04-29T14:26:31.001Z</time></trkpt><trkpt lat="42.25296705648836" lon="12.166594335332988"><ele>403.0</ele><time>2026-04-29T14:26:33.001Z</time></trkpt><trkpt lat="42.25285771996237" lon="12.166669877405132"><ele>403.0</ele><time>2026-04-29T14:26:34.001Z</time></trkpt><trkpt lat="42.25281218105911" lon="12.166742975236843"><ele>403.0</ele><time>2026-04-29T14:26:35.001Z</time></trkpt><trkpt lat="42.25276017031753" lon="12.166849982393801"><ele>403.0</ele><time>2026-04-29T14:26:36.001Z</time></trkpt><trkpt lat="42.252703304522164" lon="12.166973620265606"><ele>403.0</ele><time>2026-04-29T14:26:37.001Z</time></trkpt><trkpt lat="42.25264020155575" lon="12.167095252082612"><ele>403.0</ele><time>2026-04-29T14:26:38.001Z</time></trkpt><trkpt lat="42.252574753495836" lon="12.167230497141425"><ele>403.0</ele><time>2026-04-29T14:26:39.001Z</time></trkpt><trkpt lat="42.252499014141904" lon="12.167387003152305"><ele>403.0</ele><time>2026-04-29T14:26:40.001Z</time></trkpt><trkpt lat="42.25241395965293" lon="12.167559096980138"><ele>403.0</ele><time>2026-04-29T14:26:41.001Z</time></trkpt><trkpt lat="42.252319857543036" lon="12.167741660149067"><ele>401.6666666666667</ele><time>2026-04-29T14:26:42.001Z</time></trkpt><trkpt lat="42.25222353694696" lon="12.167923961385636"><ele>400.33333333333337</ele><time>2026-04-29T14:26:43.001Z</time></trkpt><trkpt lat="42.25212277383967" lon="12.168113555449894"><ele>399.0</ele><time>2026-04-29T14:26:44.001Z</time></trkpt><trkpt lat="42.252017908185024" lon="12.168307224043511"><ele>398.33333333333337</ele><time>2026-04-29T14:26:45.001Z</time></trkpt><trkpt lat="42.25191067017935" lon="12.168504899104704"><ele>397.6666666666667</ele><time>2026-04-29T14:26:46.001Z</time></trkpt><trkpt lat="42.25180676366603" lon="12.168710720064647"><ele>397.0</ele><time>2026-04-29T14:26:47.001Z</time></trkpt><trkpt lat="42.251700828202836" lon="12.168920246387565"><ele>396.33333333333337</ele><time>2026-04-29T14:26:48.001Z</time></trkpt><trkpt lat="42.251596991041076" lon="12.169138120884055"><ele>395.66666666666663</ele><time>2026-04-29T14:26:49.001Z</time></trkpt><trkpt lat="42.251496358011096" lon="12.169361663870408"><ele>395.0</ele><time>2026-04-29T14:26:50.001Z</time></trkpt><trkpt lat="42.251402997517395" lon="12.169583490431046"><ele>394.0</ele><time>2026-04-29T14:26:51.001Z</time></trkpt><trkpt lat="42.251314378955726" lon="12.169807493786706"><ele>393.0</ele><time>2026-04-29T14:26:52.001Z</time></trkpt><trkpt lat="42.25122025694501" lon="12.170042442992596"><ele>392.0</ele><time>2026-04-29T14:26:53.001Z</time></trkpt><trkpt lat="42.25112238042034" lon="12.170285741029584"><ele>391.66666666666663</ele><time>2026-04-29T14:26:54.001Z</time></trkpt><trkpt lat="42.25101945846809" lon="12.170534760333052"><ele>391.33333333333337</ele><time>2026-04-29T14:26:55.001Z</time></trkpt><trkpt lat="42.25091714026361" lon="12.17080005576381"><ele>391.0</ele><time>2026-04-29T14:26:56.001Z</time></trkpt><trkpt lat="42.25080834733882" lon="12.171078367658493"><ele>390.0</ele><time>2026-04-29T14:26:57.001Z</time></trkpt><trkpt lat="42.250696620857326" lon="12.171366694279255"><ele>389.0</ele><time>2026-04-29T14:26:58.001Z</time></trkpt><trkpt lat="42.25058071195131" lon="12.171654093914741"><ele>387.0</ele><time>2026-04-29T14:26:59.001Z</time></trkpt><trkpt lat="42.25046778984789" lon="12.171938538890448"><ele>385.0</ele><time>2026-04-29T14:27:00.001Z</time></trkpt><trkpt lat="42.25035780801395" lon="12.17221134301852"><ele>385.6666666666667</ele><time>2026-04-29T14:27:01.001Z</time></trkpt><trkpt lat="42.25025646131518" lon="12.172465143252808"><ele>386.33333333333337</ele><time>2026-04-29T14:27:02.001Z</time></trkpt><trkpt lat="42.25015803034263" lon="12.172708669005102"><ele>387.0</ele><time>2026-04-29T14:27:03.001Z</time></trkpt><trkpt lat="42.25006066235745" lon="12.17293983613991"><ele>387.0</ele><time>2026-04-29T14:27:04.001Z</time></trkpt><trkpt lat="42.249960812382156" lon="12.173182099782986"><ele>387.0</ele><time>2026-04-29T14:27:05.001Z</time></trkpt><trkpt lat="42.24985917351451" lon="12.173436569660959"><ele>387.0</ele><time>2026-04-29T14:27:06.001Z</time></trkpt><trkpt lat="42.24975491135266" lon="12.173696765980617"><ele>386.0</ele><time>2026-04-29T14:27:07.001Z</time></trkpt><trkpt lat="42.24965058267683" lon="12.173958825362316"><ele>385.0</ele><time>2026-04-29T14:27:08.001Z</time></trkpt><trkpt lat="42.24954173693166" lon="12.174222195101338"><ele>384.0</ele><time>2026-04-29T14:27:09.001Z</time></trkpt><trkpt lat="42.24943213937203" lon="12.174488288250716"><ele>384.0</ele><time>2026-04-29T14:27:10.001Z</time></trkpt><trkpt lat="42.24932601318452" lon="12.17475565396679"><ele>384.0</ele><time>2026-04-29T14:27:11.001Z</time></trkpt><trkpt lat="42.24921879119196" lon="12.175022722780643"><ele>384.0</ele><time>2026-04-29T14:27:12.001Z</time></trkpt><trkpt lat="42.24910922872952" lon="12.175296803810369"><ele>384.0</ele><time>2026-04-29T14:27:13.001Z</time></trkpt><trkpt lat="42.24899596699701" lon="12.175573491056376"><ele>384.0</ele><time>2026-04-29T14:27:14.001Z</time></trkpt><trkpt lat="42.24887981505101" lon="12.175865693989449"><ele>383.0</ele><time>2026-04-29T14:27:15.001Z</time></trkpt><trkpt lat="42.248760589766256" lon="12.176158192857647"><ele>382.0</ele><time>2026-04-29T14:27:16.001Z</time></trkpt><trkpt lat="42.24863985475433" lon="12.176448362108623"><ele>381.0</ele><time>2026-04-29T14:27:17.001Z</time></trkpt><trkpt lat="42.24852234690459" lon="12.176739542215312"><ele>380.0</ele><time>2026-04-29T14:27:18.001Z</time></trkpt><trkpt lat="42.24840463753181" lon="12.17703576378163"><ele>380.0</ele><time>2026-04-29T14:27:19.001Z</time></trkpt><trkpt lat="42.24828853648849" lon="12.177329911040479"><ele>380.0</ele><time>2026-04-29T14:27:20.001Z</time></trkpt><trkpt lat="42.24817311183016" lon="12.177620062686453"><ele>377.5</ele><time>2026-04-29T14:27:21.001Z</time></trkpt><trkpt lat="42.24805630944303" lon="12.17790542765681"><ele>375.0</ele><time>2026-04-29T14:27:22.001Z</time></trkpt><trkpt lat="42.247933468482664" lon="12.178199129189272"><ele>373.5</ele><time>2026-04-29T14:27:23.001Z</time></trkpt><trkpt lat="42.24780488754547" lon="12.178509845531684"><ele>372.0</ele><time>2026-04-29T14:27:24.001Z</time></trkpt><trkpt lat="42.24768335892624" lon="12.178806964527539"><ele>371.5</ele><time>2026-04-29T14:27:25.001Z</time></trkpt><trkpt lat="42.2475711053785" lon="12.179091326601164"><ele>371.0</ele><time>2026-04-29T14:27:26.001Z</time></trkpt><trkpt lat="42.24745896208239" lon="12.179368482438477"><ele>371.0</ele><time>2026-04-29T14:27:27.001Z</time></trkpt><trkpt lat="42.24734553010143" lon="12.179651165531316"><ele>371.0</ele><time>2026-04-29T14:27:28.001Z</time></trkpt><trkpt lat="42.24724306632237" lon="12.179905268544626"><ele>372.6666666666667</ele><time>2026-04-29T14:27:29.001Z</time></trkpt><trkpt lat="42.24715851071539" lon="12.180119747525238"><ele>374.3333333333333</ele><time>2026-04-29T14:27:30.001Z</time></trkpt><trkpt lat="42.2470879954815" lon="12.180306116992876"><ele>376.0</ele><time>2026-04-29T14:27:31.001Z</time></trkpt><trkpt lat="42.24703460043313" lon="12.180449554451668"><ele>376.0</ele><time>2026-04-29T14:27:32.001Z</time></trkpt><trkpt lat="42.24698876997982" lon="12.180559151567708"><ele>376.0</ele><time>2026-04-29T14:27:33.001Z</time></trkpt><trkpt lat="42.24695404801619" lon="12.180648127359033"><ele>376.0</ele><time>2026-04-29T14:27:34.001Z</time></trkpt><trkpt lat="42.246924527461715" lon="12.180724842325168"><ele>376.0</ele><time>2026-04-29T14:27:35.001Z</time></trkpt><trkpt lat="42.246867340465336" lon="12.180818712654347"><ele>376.0</ele><time>2026-04-29T14:27:37.001Z</time></trkpt><trkpt lat="42.24694128520771" lon="12.180765520787071"><ele>376.0</ele><time>2026-04-29T14:27:45.001Z</time></trkpt><trkpt lat="42.24697583506463" lon="12.180641389186546"><ele>376.0</ele><time>2026-04-29T14:27:47.001Z</time></trkpt><trkpt lat="42.24700674564602" lon="12.180552247748777"><ele>376.0</ele><time>2026-04-29T14:27:48.001Z</time></trkpt><trkpt lat="42.24705858048293" lon="12.18043958255331"><ele>376.0</ele><time>2026-04-29T14:27:49.001Z</time></trkpt><trkpt lat="42.247108636673744" lon="12.180305133696944"><ele>376.0</ele><time>2026-04-29T14:27:50.001Z</time></trkpt><trkpt lat="42.24716234164545" lon="12.180163025936853"><ele>376.0</ele><time>2026-04-29T14:27:51.001Z</time></trkpt><trkpt lat="42.24721752592994" lon="12.180027022288805"><ele>376.0</ele><time>2026-04-29T14:27:52.001Z</time></trkpt><trkpt lat="42.24727286036568" lon="12.179890474680887"><ele>376.0</ele><time>2026-04-29T14:27:53.001Z</time></trkpt><trkpt lat="42.24731634764711" lon="12.179787254978455"><ele>376.0</ele><time>2026-04-29T14:27:54.001Z</time></trkpt><trkpt lat="42.2473646704527" lon="12.179659229411534"><ele>376.0</ele><time>2026-04-29T14:27:56.001Z</time></trkpt><trkpt lat="42.24741707692422" lon="12.1795343527813"><ele>376.0</ele><time>2026-04-29T14:27:58.001Z</time></trkpt><trkpt lat="42.247450399353845" lon="12.179455184383087"><ele>375.3333333333333</ele><time>2026-04-29T14:27:59.001Z</time></trkpt><trkpt lat="42.247486051822904" lon="12.179366237670187"><ele>374.66666666666663</ele><time>2026-04-29T14:28:00.001Z</time></trkpt><trkpt lat="42.24752329787335" lon="12.179269790254716"><ele>374.0</ele><time>2026-04-29T14:28:01.001Z</time></trkpt><trkpt lat="42.247557165621544" lon="12.179177418796083"><ele>373.3333333333333</ele><time>2026-04-29T14:28:02.001Z</time></trkpt><trkpt lat="42.24760294704933" lon="12.1790614293932"><ele>372.6666666666667</ele><time>2026-04-29T14:28:04.001Z</time></trkpt><trkpt lat="42.24765904922084" lon="12.17898408729361"><ele>372.0</ele><time>2026-04-29T14:28:07.001Z</time></trkpt><trkpt lat="42.24761414600211" lon="12.179050433646484"><ele>371.8333333333333</ele><time>2026-04-29T14:28:15.001Z</time></trkpt><trkpt lat="42.24755453619575" lon="12.179128551169415"><ele>371.6666666666667</ele><time>2026-04-29T14:28:16.001Z</time></trkpt><trkpt lat="42.24751855079363" lon="12.1792028873463"><ele>371.5</ele><time>2026-04-29T14:28:17.001Z</time></trkpt><trkpt lat="42.2474774462906" lon="12.17929467110828"><ele>371.33333333333337</ele><time>2026-04-29T14:28:18.001Z</time></trkpt><trkpt lat="42.2474331263406" lon="12.179406525063762"><ele>371.1666666666667</ele><time>2026-04-29T14:28:19.001Z</time></trkpt><trkpt lat="42.24739574907557" lon="12.179506893228382"><ele>371.0</ele><time>2026-04-29T14:28:20.001Z</time></trkpt><trkpt lat="42.24736010336109" lon="12.17959845062641"><ele>371.0</ele><time>2026-04-29T14:28:21.001Z</time></trkpt><trkpt lat="42.247316443968266" lon="12.179729451087457"><ele>371.0</ele><time>2026-04-29T14:28:23.001Z</time></trkpt><trkpt lat="42.24734332445063" lon="12.179815145323571"><ele>371.0</ele><time>2026-04-29T14:28:25.001Z</time></trkpt><trkpt lat="42.24740094091736" lon="12.179881226193139"><ele>371.0</ele><time>2026-04-29T14:28:27.001Z</time></trkpt><trkpt lat="42.24747851648279" lon="12.179945619157506"><ele>371.0</ele><time>2026-04-29T14:28:29.001Z</time></trkpt><trkpt lat="42.247585725457725" lon="12.18004761781455"><ele>371.0</ele><time>2026-04-29T14:28:31.001Z</time></trkpt><trkpt lat="42.24764234779975" lon="12.180103549555415"><ele>371.0</ele><time>2026-04-29T14:28:32.001Z</time></trkpt><trkpt lat="42.24769925943855" lon="12.180162512304376"><ele>371.0</ele><time>2026-04-29T14:28:33.001Z</time></trkpt><trkpt lat="42.24775639720342" lon="12.180216953142793"><ele>371.0</ele><time>2026-04-29T14:28:34.001Z</time></trkpt><trkpt lat="42.247843819333376" lon="12.180304366716177"><ele>371.0</ele><time>2026-04-29T14:28:36.001Z</time></trkpt><trkpt lat="42.24792897200363" lon="12.180430498238849"><ele>371.0</ele><time>2026-04-29T14:28:38.001Z</time></trkpt><trkpt lat="42.24803081836124" lon="12.180520712469669"><ele>371.6</ele><time>2026-04-29T14:28:40.001Z</time></trkpt><trkpt lat="42.248130703813814" lon="12.180597667961766"><ele>372.20000000000005</ele><time>2026-04-29T14:28:42.001Z</time></trkpt><trkpt lat="42.24822106320375" lon="12.180625681271719"><ele>372.79999999999995</ele><time>2026-04-29T14:28:44.001Z</time></trkpt><trkpt lat="42.248307794516464" lon="12.180644219571823"><ele>373.4</ele><time>2026-04-29T14:28:46.001Z</time></trkpt><trkpt lat="42.24837752078049" lon="12.180659494442981"><ele>374.0</ele><time>2026-04-29T14:28:48.001Z</time></trkpt><trkpt lat="42.24845891859116" lon="12.18071460196048"><ele>374.0</ele><time>2026-04-29T14:28:50.001Z</time></trkpt><trkpt lat="42.248556344413664" lon="12.180795676181567"><ele>374.0</ele><time>2026-04-29T14:28:52.001Z</time></trkpt><trkpt lat="42.2486302906011" lon="12.180867459771807"><ele>374.0</ele><time>2026-04-29T14:28:54.001Z</time></trkpt><trkpt lat="42.24869702384629" lon="12.180914620402916"><ele>374.0</ele><time>2026-04-29T14:28:56.001Z</time></trkpt><trkpt lat="42.24875871309123" lon="12.180937374638797"><ele>374.0</ele><time>2026-04-29T14:28:58.001Z</time></trkpt><trkpt lat="42.24882256847639" lon="12.180985103223513"><ele>374.0</ele><time>2026-04-29T14:29:00.001Z</time></trkpt><trkpt lat="42.248916372771" lon="12.181046813830063"><ele>374.33333333333337</ele><time>2026-04-29T14:29:02.001Z</time></trkpt><trkpt lat="42.248980088088715" lon="12.18109825598947"><ele>374.6666666666667</ele><time>2026-04-29T14:29:04.001Z</time></trkpt><trkpt lat="42.249080116362535" lon="12.181124567396871"><ele>375.0</ele><time>2026-04-29T14:29:06.001Z</time></trkpt><trkpt lat="42.249152934964606" lon="12.18114908420614"><ele>375.3333333333333</ele><time>2026-04-29T14:29:08.001Z</time></trkpt><trkpt lat="42.24921949386851" lon="12.181176274403784"><ele>375.66666666666663</ele><time>2026-04-29T14:29:12.001Z</time></trkpt><trkpt lat="42.249315715637586" lon="12.181186855830148"><ele>376.0</ele><time>2026-04-29T14:29:15.001Z</time></trkpt><trkpt lat="42.249388817258804" lon="12.181180179080943"><ele>376.0</ele><time>2026-04-29T14:29:17.001Z</time></trkpt><trkpt lat="42.24947255595754" lon="12.181205260574357"><ele>376.0</ele><time>2026-04-29T14:29:20.001Z</time></trkpt><trkpt lat="42.249545890059814" lon="12.181216723923091"><ele>376.0</ele><time>2026-04-29T14:29:22.001Z</time></trkpt><trkpt lat="42.24961774447971" lon="12.181247435925078"><ele>376.0</ele><time>2026-04-29T14:29:24.001Z</time></trkpt><trkpt lat="42.24968485609069" lon="12.181255757910836"><ele>376.0</ele><time>2026-04-29T14:29:26.001Z</time></trkpt><trkpt lat="42.24977802991209" lon="12.181270037918845"><ele>376.0</ele><time>2026-04-29T14:29:29.001Z</time></trkpt><trkpt lat="42.24984304096957" lon="12.181278187871252"><ele>375.2857142857143</ele><time>2026-04-29T14:29:31.001Z</time></trkpt><trkpt lat="42.24990758517933" lon="12.181262559067761"><ele>374.57142857142856</ele><time>2026-04-29T14:29:33.001Z</time></trkpt><trkpt lat="42.24998849461427" lon="12.181269840725534"><ele>373.8571428571429</ele><time>2026-04-29T14:29:35.001Z</time></trkpt><trkpt lat="42.25005928411607" lon="12.18126399565262"><ele>373.1428571428571</ele><time>2026-04-29T14:29:37.001Z</time></trkpt><trkpt lat="42.25012872606857" lon="12.181263583613578"><ele>372.42857142857144</ele><time>2026-04-29T14:29:39.001Z</time></trkpt><trkpt lat="42.25019216718149" lon="12.181267316354258"><ele>371.7142857142857</ele><time>2026-04-29T14:29:41.001Z</time></trkpt><trkpt lat="42.25026196890186" lon="12.181248136887504"><ele>371.0</ele><time>2026-04-29T14:29:43.001Z</time></trkpt><trkpt lat="42.250329791094074" lon="12.181261975448901"><ele>371.0</ele><time>2026-04-29T14:29:45.001Z</time></trkpt><trkpt lat="42.250403359732935" lon="12.181256344816273"><ele>371.0</ele><time>2026-04-29T14:29:48.001Z</time></trkpt><trkpt lat="42.25032346536797" lon="12.181250550045556"><ele>371.0</ele><time>2026-04-29T14:29:58.001Z</time></trkpt><trkpt lat="42.2502309907474" lon="12.181290204547556"><ele>371.0</ele><time>2026-04-29T14:30:01.001Z</time></trkpt><trkpt lat="42.250148434757286" lon="12.18129767078973"><ele>371.0</ele><time>2026-04-29T14:30:03.001Z</time></trkpt><trkpt lat="42.250073114060115" lon="12.181293513308177"><ele>371.0</ele><time>2026-04-29T14:30:05.001Z</time></trkpt><trkpt lat="42.2499763586544" lon="12.181294229460772"><ele>371.0</ele><time>2026-04-29T14:30:08.001Z</time></trkpt><trkpt lat="42.24990825582963" lon="12.181288927130376"><ele>371.0</ele><time>2026-04-29T14:30:10.001Z</time></trkpt><trkpt lat="42.24983892343031" lon="12.181299334882448"><ele>371.0</ele><time>2026-04-29T14:30:12.001Z</time></trkpt><trkpt lat="42.249770277747935" lon="12.181268849984457"><ele>371.0</ele><time>2026-04-29T14:30:14.001Z</time></trkpt><trkpt lat="42.249697946088276" lon="12.181257764305004"><ele>371.0</ele><time>2026-04-29T14:30:16.001Z</time></trkpt><trkpt lat="42.24961771588473" lon="12.181244920590785"><ele>371.0</ele><time>2026-04-29T14:30:18.001Z</time></trkpt><trkpt lat="42.24953312516171" lon="12.181229723608864"><ele>371.0</ele><time>2026-04-29T14:30:20.001Z</time></trkpt><trkpt lat="42.249434909371985" lon="12.181224782602435"><ele>371.5</ele><time>2026-04-29T14:30:22.001Z</time></trkpt><trkpt lat="42.249351621638326" lon="12.181205524919811"><ele>372.0</ele><time>2026-04-29T14:30:24.001Z</time></trkpt><trkpt lat="42.24928059617386" lon="12.181200222897397"><ele>372.5</ele><time>2026-04-29T14:30:26.001Z</time></trkpt><trkpt lat="42.249218257487335" lon="12.181165097663044"><ele>373.0</ele><time>2026-04-29T14:30:29.001Z</time></trkpt><trkpt lat="42.24909784028157" lon="12.181155084195959"><ele>373.5</ele><time>2026-04-29T14:31:57.001Z</time></trkpt><trkpt lat="42.249023569433874" lon="12.18113045670242"><ele>374.0</ele><time>2026-04-29T14:31:59.001Z</time></trkpt><trkpt lat="42.24895407457767" lon="12.181079474098922"><ele>374.0</ele><time>2026-04-29T14:32:01.001Z</time></trkpt><trkpt lat="42.24888047548932" lon="12.18103355106423"><ele>374.0</ele><time>2026-04-29T14:32:03.001Z</time></trkpt><trkpt lat="42.24882805938209" lon="12.180985992118542"><ele>374.0</ele><time>2026-04-29T14:32:05.001Z</time></trkpt><trkpt lat="42.24877353703853" lon="12.180929080451428"><ele>374.0</ele><time>2026-04-29T14:32:08.001Z</time></trkpt><trkpt lat="42.24880060307528" lon="12.180845854669954"><ele>374.0</ele><time>2026-04-29T14:32:22.001Z</time></trkpt><trkpt lat="42.24872146959926" lon="12.180871570802523"><ele>374.0</ele><time>2026-04-29T14:33:10.001Z</time></trkpt><trkpt lat="42.24864377609646" lon="12.180844933941213"><ele>374.0</ele><time>2026-04-29T14:33:12.001Z</time></trkpt><trkpt lat="42.24858546141124" lon="12.180787107433044"><ele>374.0</ele><time>2026-04-29T14:33:15.001Z</time></trkpt><trkpt lat="42.24851913827758" lon="12.18074941239113"><ele>374.0</ele><time>2026-04-29T14:33:17.001Z</time></trkpt><trkpt lat="42.24843388016146" lon="12.180671642073923"><ele>374.0</ele><time>2026-04-29T14:33:19.001Z</time></trkpt><trkpt lat="42.24835658315086" lon="12.180635467995693"><ele>374.0</ele><time>2026-04-29T14:33:21.001Z</time></trkpt><trkpt lat="42.24827694515948" lon="12.180627320262772"><ele>374.0</ele><time>2026-04-29T14:33:23.001Z</time></trkpt><trkpt lat="42.24819830520966" lon="12.180600954903875"><ele>374.0</ele><time>2026-04-29T14:33:25.001Z</time></trkpt><trkpt lat="42.248109788523934" lon="12.180557185374397"><ele>373.5</ele><time>2026-04-29T14:33:27.001Z</time></trkpt><trkpt lat="42.248053046859184" lon="12.180500223196107"><ele>373.0</ele><time>2026-04-29T14:33:28.001Z</time></trkpt><trkpt lat="42.247989987393076" lon="12.18042877923145"><ele>372.5</ele><time>2026-04-29T14:33:29.001Z</time></trkpt><trkpt lat="42.24792463944819" lon="12.180342276690167"><ele>372.0</ele><time>2026-04-29T14:33:30.001Z</time></trkpt><trkpt lat="42.247865717064535" lon="12.180273948958664"><ele>371.5</ele><time>2026-04-29T14:33:31.001Z</time></trkpt><trkpt lat="42.24779581377966" lon="12.180216247287198"><ele>371.0</ele><time>2026-04-29T14:33:32.001Z</time></trkpt><trkpt lat="42.24773639604961" lon="12.180163154733453"><ele>371.0</ele><time>2026-04-29T14:33:33.001Z</time></trkpt><trkpt lat="42.24768256515421" lon="12.180114442241656"><ele>371.0</ele><time>2026-04-29T14:33:34.001Z</time></trkpt><trkpt lat="42.247625474997506" lon="12.180064422279457"><ele>371.0</ele><time>2026-04-29T14:33:35.001Z</time></trkpt><trkpt lat="42.24757058512326" lon="12.180015054173554"><ele>371.0</ele><time>2026-04-29T14:33:36.001Z</time></trkpt><trkpt lat="42.24751027276285" lon="12.179954209400284"><ele>371.0</ele><time>2026-04-29T14:33:37.001Z</time></trkpt><trkpt lat="42.247449093981885" lon="12.179898570397178"><ele>371.0</ele><time>2026-04-29T14:33:38.001Z</time></trkpt><trkpt lat="42.247375234496516" lon="12.179825125200555"><ele>371.0</ele><time>2026-04-29T14:33:40.001Z</time></trkpt><trkpt lat="42.24733188919717" lon="12.179755716440802"><ele>371.0</ele><time>2026-04-29T14:33:44.001Z</time></trkpt><trkpt lat="42.24736284127633" lon="12.179654218692638"><ele>371.0</ele><time>2026-04-29T14:33:46.001Z</time></trkpt><trkpt lat="42.24740449285928" lon="12.179574765042203"><ele>371.0</ele><time>2026-04-29T14:33:47.001Z</time></trkpt><trkpt lat="42.24743398675568" lon="12.179487345128274"><ele>371.0</ele><time>2026-04-29T14:33:48.001Z</time></trkpt><trkpt lat="42.247469955081556" lon="12.179390659812755"><ele>371.0</ele><time>2026-04-29T14:33:49.001Z</time></trkpt><trkpt lat="42.24751191372941" lon="12.179284214498821"><ele>371.0</ele><time>2026-04-29T14:33:50.001Z</time></trkpt><trkpt lat="42.24757024599895" lon="12.179168556242082"><ele>371.0</ele><time>2026-04-29T14:33:51.001Z</time></trkpt><trkpt lat="42.247623817725234" lon="12.179042102575844"><ele>371.0</ele><time>2026-04-29T14:33:52.001Z</time></trkpt><trkpt lat="42.24767295647617" lon="12.178905739931631"><ele>371.0</ele><time>2026-04-29T14:33:53.001Z</time></trkpt><trkpt lat="42.24772883471611" lon="12.178769835743731"><ele>371.0</ele><time>2026-04-29T14:33:54.001Z</time></trkpt><trkpt lat="42.247788301969244" lon="12.178615490268696"><ele>371.33333333333337</ele><time>2026-04-29T14:33:55.001Z</time></trkpt><trkpt lat="42.24785718870709" lon="12.178446192236708"><ele>371.6666666666667</ele><time>2026-04-29T14:33:56.001Z</time></trkpt><trkpt lat="42.24793532649857" lon="12.178252657752205"><ele>372.0</ele><time>2026-04-29T14:33:57.001Z</time></trkpt><trkpt lat="42.24801990868938" lon="12.17804533551648"><ele>373.0</ele><time>2026-04-29T14:33:58.001Z</time></trkpt><trkpt lat="42.24810298107016" lon="12.17784117751033"><ele>374.0</ele><time>2026-04-29T14:33:59.001Z</time></trkpt><trkpt lat="42.24820083669513" lon="12.177613066391952"><ele>375.0</ele><time>2026-04-29T14:34:00.001Z</time></trkpt><trkpt lat="42.24830015610756" lon="12.17737389227589"><ele>376.6666666666667</ele><time>2026-04-29T14:34:01.001Z</time></trkpt><trkpt lat="42.24839732883081" lon="12.177132660007349"><ele>378.33333333333337</ele><time>2026-04-29T14:34:02.001Z</time></trkpt><trkpt lat="42.24849218412049" lon="12.17689877690317"><ele>380.0</ele><time>2026-04-29T14:34:03.001Z</time></trkpt><trkpt lat="42.248588601934806" lon="12.176661142414357"><ele>380.6666666666667</ele><time>2026-04-29T14:34:04.001Z</time></trkpt><trkpt lat="42.248685835588326" lon="12.176426876070254"><ele>381.3333333333333</ele><time>2026-04-29T14:34:05.001Z</time></trkpt><trkpt lat="42.248782011018605" lon="12.176182188448147"><ele>382.0</ele><time>2026-04-29T14:34:06.001Z</time></trkpt><trkpt lat="42.248882058191704" lon="12.175934428602055"><ele>382.0</ele><time>2026-04-29T14:34:07.001Z</time></trkpt><trkpt lat="42.24898113426974" lon="12.1756904420395"><ele>382.0</ele><time>2026-04-29T14:34:08.001Z</time></trkpt><trkpt lat="42.249081448590665" lon="12.175445925648262"><ele>382.0</ele><time>2026-04-29T14:34:09.001Z</time></trkpt><trkpt lat="42.24917659268133" lon="12.175200634947602"><ele>382.66666666666663</ele><time>2026-04-29T14:34:10.001Z</time></trkpt><trkpt lat="42.24928081546023" lon="12.174964383442518"><ele>383.3333333333333</ele><time>2026-04-29T14:34:11.001Z</time></trkpt><trkpt lat="42.24937113287839" lon="12.174736817800595"><ele>384.0</ele><time>2026-04-29T14:34:12.001Z</time></trkpt><trkpt lat="42.2494534137226" lon="12.17452583399878"><ele>384.0</ele><time>2026-04-29T14:34:13.001Z</time></trkpt><trkpt lat="42.24952620968845" lon="12.174326711906874"><ele>384.0</ele><time>2026-04-29T14:34:14.001Z</time></trkpt><trkpt lat="42.24960350121405" lon="12.174140283877835"><ele>384.0</ele><time>2026-04-29T14:34:15.001Z</time></trkpt><trkpt lat="42.24967716428325" lon="12.173967526133486"><ele>383.6666666666667</ele><time>2026-04-29T14:34:16.001Z</time></trkpt><trkpt lat="42.24975375581254" lon="12.173776753008354"><ele>383.33333333333337</ele><time>2026-04-29T14:34:17.001Z</time></trkpt><trkpt lat="42.24983438516519" lon="12.173578088522214"><ele>383.0</ele><time>2026-04-29T14:34:18.001Z</time></trkpt><trkpt lat="42.24991296590426" lon="12.173370775992485"><ele>384.33333333333337</ele><time>2026-04-29T14:34:19.001Z</time></trkpt><trkpt lat="42.24999951959874" lon="12.173154268956583"><ele>385.6666666666667</ele><time>2026-04-29T14:34:20.001Z</time></trkpt><trkpt lat="42.25008824416893" lon="12.172931754581214"><ele>387.0</ele><time>2026-04-29T14:34:21.001Z</time></trkpt><trkpt lat="42.250181767158736" lon="12.172704290018869"><ele>387.0</ele><time>2026-04-29T14:34:22.001Z</time></trkpt><trkpt lat="42.250276735303785" lon="12.172468683275818"><ele>387.0</ele><time>2026-04-29T14:34:23.001Z</time></trkpt><trkpt lat="42.25037493457623" lon="12.172227559338157"><ele>387.0</ele><time>2026-04-29T14:34:24.001Z</time></trkpt><trkpt lat="42.25046586499615" lon="12.171997507107141"><ele>386.33333333333337</ele><time>2026-04-29T14:34:25.001Z</time></trkpt><trkpt lat="42.250535341537045" lon="12.17181949305864"><ele>385.6666666666667</ele><time>2026-04-29T14:34:26.001Z</time></trkpt><trkpt lat="42.25061557713288" lon="12.171622929828791"><ele>385.0</ele><time>2026-04-29T14:34:27.001Z</time></trkpt><trkpt lat="42.25070040993286" lon="12.171410893485692"><ele>386.33333333333337</ele><time>2026-04-29T14:34:28.001Z</time></trkpt><trkpt lat="42.250783985604805" lon="12.17120509686444"><ele>387.66666666666663</ele><time>2026-04-29T14:34:29.001Z</time></trkpt><trkpt lat="42.25086582475878" lon="12.171001632818054"><ele>389.0</ele><time>2026-04-29T14:34:30.001Z</time></trkpt><trkpt lat="42.250946885994246" lon="12.170797538171392"><ele>389.66666666666663</ele><time>2026-04-29T14:34:31.001Z</time></trkpt><trkpt lat="42.25102811105967" lon="12.170593505984794"><ele>390.33333333333337</ele><time>2026-04-29T14:34:32.001Z</time></trkpt><trkpt lat="42.251109561162515" lon="12.17039214174678"><ele>391.0</ele><time>2026-04-29T14:34:33.001Z</time></trkpt><trkpt lat="42.251188066399926" lon="12.170190335671618"><ele>391.0</ele><time>2026-04-29T14:34:34.001Z</time></trkpt><trkpt lat="42.2512712166519" lon="12.169983158888087"><ele>391.0</ele><time>2026-04-29T14:34:35.001Z</time></trkpt><trkpt lat="42.25136201724742" lon="12.16976651149307"><ele>391.0</ele><time>2026-04-29T14:34:36.001Z</time></trkpt><trkpt lat="42.25145835440195" lon="12.169537989083624"><ele>392.33333333333337</ele><time>2026-04-29T14:34:37.001Z</time></trkpt><trkpt lat="42.25155375361125" lon="12.16931575682731"><ele>393.66666666666663</ele><time>2026-04-29T14:34:38.001Z</time></trkpt><trkpt lat="42.25165142413187" lon="12.169099103249435"><ele>395.0</ele><time>2026-04-29T14:34:39.001Z</time></trkpt><trkpt lat="42.25175882471729" lon="12.168865444899687"><ele>395.66666666666663</ele><time>2026-04-29T14:34:40.001Z</time></trkpt><trkpt lat="42.25187434423715" lon="12.168626690842068"><ele>396.33333333333337</ele><time>2026-04-29T14:34:41.001Z</time></trkpt><trkpt lat="42.25198826904113" lon="12.1684038359052"><ele>397.0</ele><time>2026-04-29T14:34:42.001Z</time></trkpt><trkpt lat="42.25209688561067" lon="12.168197877369844"><ele>397.6666666666667</ele><time>2026-04-29T14:34:43.001Z</time></trkpt><trkpt lat="42.25220138165128" lon="12.16800536867659"><ele>398.33333333333337</ele><time>2026-04-29T14:34:44.001Z</time></trkpt><trkpt lat="42.25230653265551" lon="12.167818129724393"><ele>399.0</ele><time>2026-04-29T14:34:45.001Z</time></trkpt><trkpt lat="42.25239870071181" lon="12.16763870686738"><ele>399.0</ele><time>2026-04-29T14:34:46.001Z</time></trkpt><trkpt lat="42.25248725727723" lon="12.167465341212308"><ele>399.0</ele><time>2026-04-29T14:34:47.001Z</time></trkpt><trkpt lat="42.25257133419113" lon="12.167299389415032"><ele>399.0</ele><time>2026-04-29T14:34:48.001Z</time></trkpt><trkpt lat="42.252648718279325" lon="12.167150147328845"><ele>399.0</ele><time>2026-04-29T14:34:49.001Z</time></trkpt><trkpt lat="42.25271856900274" lon="12.167018486117628"><ele>399.5</ele><time>2026-04-29T14:34:50.001Z</time></trkpt><trkpt lat="42.2527749814084" lon="12.166904640020464"><ele>400.0</ele><time>2026-04-29T14:34:51.001Z</time></trkpt><trkpt lat="42.25282528714788" lon="12.166818090666853"><ele>400.5</ele><time>2026-04-29T14:34:52.001Z</time></trkpt><trkpt lat="42.25288416918933" lon="12.166766927489014"><ele>401.0</ele><time>2026-04-29T14:34:53.001Z</time></trkpt><trkpt lat="42.2529572692459" lon="12.166731942939819"><ele>401.5</ele><time>2026-04-29T14:34:55.001Z</time></trkpt><trkpt lat="42.25299965578702" lon="12.166635023707938"><ele>402.0</ele><time>2026-04-29T14:35:01.001Z</time></trkpt><trkpt lat="42.25293790591682" lon="12.16646999295199"><ele>402.0</ele><time>2026-04-29T14:35:03.001Z</time></trkpt><trkpt lat="42.25289190201582" lon="12.166356359605032"><ele>402.0</ele><time>2026-04-29T14:35:04.001Z</time></trkpt><trkpt lat="42.252842898860436" lon="12.16621169716799"><ele>402.0</ele><time>2026-04-29T14:35:05.001Z</time></trkpt><trkpt lat="42.252794472948096" lon="12.166047258159177"><ele>402.0</ele><time>2026-04-29T14:35:06.001Z</time></trkpt><trkpt lat="42.252749559307624" lon="12.165870725666723"><ele>401.0</ele><time>2026-04-29T14:35:07.001Z</time></trkpt><trkpt lat="42.25270895217956" lon="12.165667498294331"><ele>400.0</ele><time>2026-04-29T14:35:08.001Z</time></trkpt><trkpt lat="42.252671739532296" lon="12.165444590648308"><ele>399.0</ele><time>2026-04-29T14:35:09.001Z</time></trkpt><trkpt lat="42.25264168353919" lon="12.165211305226222"><ele>399.0</ele><time>2026-04-29T14:35:10.001Z</time></trkpt><trkpt lat="42.252607854418486" lon="12.164973768776509"><ele>399.0</ele><time>2026-04-29T14:35:11.001Z</time></trkpt><trkpt lat="42.252565939027356" lon="12.16473676415611"><ele>399.0</ele><time>2026-04-29T14:35:12.001Z</time></trkpt><trkpt lat="42.25251811997913" lon="12.164518533770726"><ele>399.33333333333337</ele><time>2026-04-29T14:35:13.001Z</time></trkpt><trkpt lat="42.2524641486442" lon="12.164307521154525"><ele>399.6666666666667</ele><time>2026-04-29T14:35:14.001Z</time></trkpt><trkpt lat="42.25239817907538" lon="12.164101177075837"><ele>400.0</ele><time>2026-04-29T14:35:15.001Z</time></trkpt><trkpt lat="42.25231882398688" lon="12.163908597611174"><ele>400.25</ele><time>2026-04-29T14:35:16.001Z</time></trkpt><trkpt lat="42.25222768614839" lon="12.163736653188524"><ele>400.5</ele><time>2026-04-29T14:35:17.001Z</time></trkpt><trkpt lat="42.252123719777565" lon="12.163582951206338"><ele>400.75</ele><time>2026-04-29T14:35:18.001Z</time></trkpt><trkpt lat="42.25201248903713" lon="12.163472548345696"><ele>401.0</ele><time>2026-04-29T14:35:19.001Z</time></trkpt><trkpt lat="42.251908595372115" lon="12.163406790686071"><ele>401.0</ele><time>2026-04-29T14:35:20.001Z</time></trkpt><trkpt lat="42.25178296614956" lon="12.163353886013434"><ele>401.0</ele><time>2026-04-29T14:35:21.001Z</time></trkpt><trkpt lat="42.251645276844265" lon="12.163301888886588"><ele>401.0</ele><time>2026-04-29T14:35:22.001Z</time></trkpt><trkpt lat="42.251505045459105" lon="12.163248903802094"><ele>401.0</ele><time>2026-04-29T14:35:23.001Z</time></trkpt><trkpt lat="42.25136068303584" lon="12.163189935703542"><ele>398.25</ele><time>2026-04-29T14:35:24.001Z</time></trkpt><trkpt lat="42.25122015741927" lon="12.16312909825569"><ele>395.5</ele><time>2026-04-29T14:35:25.001Z</time></trkpt><trkpt lat="42.25109184558556" lon="12.1630674301524"><ele>392.75</ele><time>2026-04-29T14:35:26.001Z</time></trkpt><trkpt lat="42.25097720940694" lon="12.16298934758718"><ele>390.0</ele><time>2026-04-29T14:35:27.001Z</time></trkpt><trkpt lat="42.25088001802136" lon="12.162880670586937"><ele>390.0</ele><time>2026-04-29T14:35:28.001Z</time></trkpt><trkpt lat="42.250820790937325" lon="12.162751958973638"><ele>390.0</ele><time>2026-04-29T14:35:29.001Z</time></trkpt><trkpt lat="42.25078638345462" lon="12.162600708653141"><ele>390.0</ele><time>2026-04-29T14:35:30.001Z</time></trkpt><trkpt lat="42.250783230477495" lon="12.162431773832582"><ele>390.0</ele><time>2026-04-29T14:35:31.001Z</time></trkpt><trkpt lat="42.250811153844545" lon="12.16224956912259"><ele>388.66666666666663</ele><time>2026-04-29T14:35:32.001Z</time></trkpt><trkpt lat="42.25086224192202" lon="12.162041530771564"><ele>387.3333333333333</ele><time>2026-04-29T14:35:33.001Z</time></trkpt><trkpt lat="42.25092358704052" lon="12.161806444038143"><ele>386.0</ele><time>2026-04-29T14:35:34.001Z</time></trkpt><trkpt lat="42.25098458301464" lon="12.161584463562612"><ele>384.0</ele><time>2026-04-29T14:35:35.001Z</time></trkpt><trkpt lat="42.25103791086769" lon="12.161378133507423"><ele>382.0</ele><time>2026-04-29T14:35:36.001Z</time></trkpt><trkpt lat="42.251073395045005" lon="12.161184022040574"><ele>380.0</ele><time>2026-04-29T14:35:37.001Z</time></trkpt><trkpt lat="42.25108349223131" lon="12.160964451892426"><ele>380.0</ele><time>2026-04-29T14:35:38Z</time></trkpt><trkpt lat="42.25108526349733" lon="12.160738249934266"><ele>380.0</ele><time>2026-04-29T14:35:39Z</time></trkpt><trkpt lat="42.25107766424226" lon="12.160522171778343"><ele>380.0</ele><time>2026-04-29T14:35:40Z</time></trkpt><trkpt lat="42.25106754080871" lon="12.160326528083163"><ele>380.0</ele><time>2026-04-29T14:35:41Z</time></trkpt><trkpt lat="42.25105259437761" lon="12.160149225625732"><ele>380.0</ele><time>2026-04-29T14:35:42Z</time></trkpt><trkpt lat="42.25103523228948" lon="12.159985974212718"><ele>380.0</ele><time>2026-04-29T14:35:43Z</time></trkpt><trkpt lat="42.250997534182794" lon="12.159838529617547"><ele>380.0</ele><time>2026-04-29T14:35:44Z</time></trkpt><trkpt lat="42.25091775352841" lon="12.159736281677802"><ele>380.6666666666667</ele><time>2026-04-29T14:35:45Z</time></trkpt><trkpt lat="42.250829965546885" lon="12.15964092175926"><ele>381.33333333333337</ele><time>2026-04-29T14:35:46Z</time></trkpt><trkpt lat="42.250756008950766" lon="12.159574837190185"><ele>382.0</ele><time>2026-04-29T14:35:47Z</time></trkpt><trkpt lat="42.250705086439055" lon="12.159511166210406"><ele>382.6666666666667</ele><time>2026-04-29T14:35:48Z</time></trkpt><trkpt lat="42.25063995367626" lon="12.15944991357781"><ele>383.3333333333333</ele><time>2026-04-29T14:36:08Z</time></trkpt><trkpt lat="42.25054922712567" lon="12.159479686006302"><ele>384.0</ele><time>2026-04-29T14:36:11Z</time></trkpt><trkpt lat="42.25048398525775" lon="12.159519867580855"><ele>388.0</ele><time>2026-04-29T14:36:12Z</time></trkpt><trkpt lat="42.250411268457725" lon="12.159549550778399"><ele>392.0</ele><time>2026-04-29T14:36:13Z</time></trkpt><trkpt lat="42.250334760536205" lon="12.15959450538884"><ele>396.0</ele><time>2026-04-29T14:36:14Z</time></trkpt><trkpt lat="42.25024477233819" lon="12.159656674840985"><ele>400.0</ele><time>2026-04-29T14:36:15Z</time></trkpt><trkpt lat="42.25014205391681" lon="12.159709803632468"><ele>404.0</ele><time>2026-04-29T14:36:16Z</time></trkpt><trkpt lat="42.250026759783964" lon="12.159769366790577"><ele>404.0</ele><time>2026-04-29T14:36:17Z</time></trkpt><trkpt lat="42.24989201155204" lon="12.15981106329821"><ele>404.0</ele><time>2026-04-29T14:36:18Z</time></trkpt><trkpt lat="42.2497635854894" lon="12.159839907492268"><ele>404.0</ele><time>2026-04-29T14:36:19Z</time></trkpt><trkpt lat="42.249638260268604" lon="12.159882077921965"><ele>404.0</ele><time>2026-04-29T14:36:20Z</time></trkpt><trkpt lat="42.24951421779911" lon="12.159943875750214"><ele>403.5</ele><time>2026-04-29T14:36:21Z</time></trkpt><trkpt lat="42.24939514782183" lon="12.160029439111764"><ele>403.0</ele><time>2026-04-29T14:36:22Z</time></trkpt><trkpt lat="42.249293240516074" lon="12.160148084776788"><ele>402.5</ele><time>2026-04-29T14:36:23Z</time></trkpt><trkpt lat="42.24920901916867" lon="12.16027972651761"><ele>402.0</ele><time>2026-04-29T14:36:24Z</time></trkpt><trkpt lat="42.24914899467004" lon="12.160439773804171"><ele>402.0</ele><time>2026-04-29T14:36:25Z</time></trkpt><trkpt lat="42.24911038469219" lon="12.160619682227152"><ele>402.0</ele><time>2026-04-29T14:36:26Z</time></trkpt><trkpt lat="42.24907200966284" lon="12.160767794783936"><ele>402.0</ele><time>2026-04-29T14:36:27Z</time></trkpt><trkpt lat="42.24900652363351" lon="12.160889541424265"><ele>402.0</ele><time>2026-04-29T14:36:28Z</time></trkpt><trkpt lat="42.24891089739351" lon="12.160977852419089"><ele>400.75</ele><time>2026-04-29T14:36:29Z</time></trkpt><trkpt lat="42.24879698327255" lon="12.161025006621305"><ele>399.5</ele><time>2026-04-29T14:36:30Z</time></trkpt><trkpt lat="42.24866480053991" lon="12.161059309156235"><ele>398.25</ele><time>2026-04-29T14:36:31Z</time></trkpt><trkpt lat="42.24852374879872" lon="12.161091953012596"><ele>397.0</ele><time>2026-04-29T14:36:32Z</time></trkpt><trkpt lat="42.24838849172783" lon="12.16109917166783"><ele>397.0</ele><time>2026-04-29T14:36:33Z</time></trkpt><trkpt lat="42.24825639973761" lon="12.161060643500516"><ele>397.0</ele><time>2026-04-29T14:36:34Z</time></trkpt><trkpt lat="42.248146250786384" lon="12.160961055029869"><ele>397.0</ele><time>2026-04-29T14:36:35Z</time></trkpt><trkpt lat="42.24805202246754" lon="12.160843684995314"><ele>397.0</ele><time>2026-04-29T14:36:36Z</time></trkpt><trkpt lat="42.24795662271909" lon="12.16069322876841"><ele>397.33333333333337</ele><time>2026-04-29T14:36:37Z</time></trkpt><trkpt lat="42.24784984871563" lon="12.160505700689797"><ele>397.66666666666663</ele><time>2026-04-29T14:36:38Z</time></trkpt><trkpt lat="42.247729972956044" lon="12.160312115914207"><ele>398.0</ele><time>2026-04-29T14:36:39Z</time></trkpt><trkpt lat="42.24761761581999" lon="12.160119313786028"><ele>398.0</ele><time>2026-04-29T14:36:40Z</time></trkpt><trkpt lat="42.247492144072005" lon="12.15994235893753"><ele>398.0</ele><time>2026-04-29T14:36:41Z</time></trkpt><trkpt lat="42.247357325340865" lon="12.159782274485107"><ele>398.0</ele><time>2026-04-29T14:36:42Z</time></trkpt><trkpt lat="42.24721909356982" lon="12.159636502249375"><ele>399.0</ele><time>2026-04-29T14:36:43Z</time></trkpt><trkpt lat="42.24707933208233" lon="12.15949710071161"><ele>400.0</ele><time>2026-04-29T14:36:44Z</time></trkpt><trkpt lat="42.2469417795543" lon="12.159353769695418"><ele>401.0</ele><time>2026-04-29T14:36:45Z</time></trkpt><trkpt lat="42.246800800565055" lon="12.159204559348705"><ele>401.0</ele><time>2026-04-29T14:36:46Z</time></trkpt><trkpt lat="42.246670528085225" lon="12.159069339376648"><ele>401.0</ele><time>2026-04-29T14:36:47Z</time></trkpt><trkpt lat="42.246549930939885" lon="12.158949603297708"><ele>401.0</ele><time>2026-04-29T14:36:48Z</time></trkpt><trkpt lat="42.24643931408722" lon="12.158849357857475"><ele>401.0</ele><time>2026-04-29T14:36:49Z</time></trkpt><trkpt lat="42.24631944851144" lon="12.158775952254373"><ele>401.0</ele><time>2026-04-29T14:36:50Z</time></trkpt><trkpt lat="42.24619668347524" lon="12.15872516782023"><ele>401.0</ele><time>2026-04-29T14:36:51Z</time></trkpt><trkpt lat="42.24606529344535" lon="12.158683444372802"><ele>401.0</ele><time>2026-04-29T14:36:52Z</time></trkpt><trkpt lat="42.24592831480421" lon="12.158646025063366"><ele>401.0</ele><time>2026-04-29T14:36:53Z</time></trkpt><trkpt lat="42.24578773615563" lon="12.158602340291175"><ele>401.0</ele><time>2026-04-29T14:36:54Z</time></trkpt><trkpt lat="42.24564373363898" lon="12.158555708293859"><ele>401.0</ele><time>2026-04-29T14:36:55Z</time></trkpt><trkpt lat="42.245497769991154" lon="12.158509038798583"><ele>401.0</ele><time>2026-04-29T14:36:56Z</time></trkpt><trkpt lat="42.24535344631086" lon="12.158462261298265"><ele>401.0</ele><time>2026-04-29T14:36:57Z</time></trkpt><trkpt lat="42.24520477626999" lon="12.158414480242064"><ele>400.66666666666663</ele><time>2026-04-29T14:36:58Z</time></trkpt><trkpt lat="42.24505290856014" lon="12.15836700489446"><ele>400.33333333333337</ele><time>2026-04-29T14:36:59Z</time></trkpt><trkpt lat="42.24489783483707" lon="12.158317404674671"><ele>400.0</ele><time>2026-04-29T14:37:00Z</time></trkpt><trkpt lat="42.244739715326645" lon="12.158267928974093"><ele>399.0</ele><time>2026-04-29T14:37:01Z</time></trkpt><trkpt lat="42.24457643251489" lon="12.158216810970902"><ele>398.0</ele><time>2026-04-29T14:37:02Z</time></trkpt><trkpt lat="42.24440944678133" lon="12.158167077492019"><ele>397.0</ele><time>2026-04-29T14:37:03Z</time></trkpt><trkpt lat="42.24423733478777" lon="12.158118967439789"><ele>396.6666666666667</ele><time>2026-04-29T14:37:04Z</time></trkpt><trkpt lat="42.244058748482175" lon="12.15807030004221"><ele>396.33333333333337</ele><time>2026-04-29T14:37:05Z</time></trkpt><trkpt lat="42.243875035531325" lon="12.15802528835337"><ele>396.0</ele><time>2026-04-29T14:37:06Z</time></trkpt><trkpt lat="42.24368630958771" lon="12.15798353434568"><ele>396.33333333333337</ele><time>2026-04-29T14:37:07Z</time></trkpt><trkpt lat="42.24349375520487" lon="12.15794792947715"><ele>396.6666666666667</ele><time>2026-04-29T14:37:08Z</time></trkpt><trkpt lat="42.24330252399016" lon="12.157898459578982"><ele>397.0</ele><time>2026-04-29T14:37:09Z</time></trkpt><trkpt lat="42.24310450729291" lon="12.157875568093647"><ele>397.0</ele><time>2026-04-29T14:37:10Z</time></trkpt><trkpt lat="42.2429067214416" lon="12.157837632818648"><ele>397.0</ele><time>2026-04-29T14:37:11Z</time></trkpt><trkpt lat="42.242707526786276" lon="12.157801871085267"><ele>397.0</ele><time>2026-04-29T14:37:12Z</time></trkpt><trkpt lat="42.242507323907574" lon="12.157764417195196"><ele>397.0</ele><time>2026-04-29T14:37:13Z</time></trkpt><trkpt lat="42.24230694856474" lon="12.157727057397457"><ele>397.0</ele><time>2026-04-29T14:37:14Z</time></trkpt><trkpt lat="42.24210528579426" lon="12.157689914458096"><ele>397.0</ele><time>2026-04-29T14:37:15Z</time></trkpt><trkpt lat="42.241902010308145" lon="12.157655073782479"><ele>397.6666666666667</ele><time>2026-04-29T14:37:16Z</time></trkpt><trkpt lat="42.24169727062877" lon="12.157619856581888"><ele>398.33333333333337</ele><time>2026-04-29T14:37:17Z</time></trkpt><trkpt lat="42.24149066777935" lon="12.157579520955393"><ele>399.0</ele><time>2026-04-29T14:37:18Z</time></trkpt><trkpt lat="42.24128403193009" lon="12.157540418198298"><ele>399.0</ele><time>2026-04-29T14:37:19Z</time></trkpt><trkpt lat="42.241075802352285" lon="12.157502283347782"><ele>399.0</ele><time>2026-04-29T14:37:20Z</time></trkpt><trkpt lat="42.24086500184517" lon="12.157461416036007"><ele>399.0</ele><time>2026-04-29T14:37:21Z</time></trkpt><trkpt lat="42.24065404429639" lon="12.15742120242445"><ele>398.66666666666663</ele><time>2026-04-29T14:37:22Z</time></trkpt><trkpt lat="42.24044073417474" lon="12.157381628167466"><ele>398.3333333333333</ele><time>2026-04-29T14:37:23Z</time></trkpt><trkpt lat="42.24022639670442" lon="12.157340482725706"><ele>398.0</ele><time>2026-04-29T14:37:24Z</time></trkpt><trkpt lat="42.240012707759355" lon="12.157300958539622"><ele>397.66666666666663</ele><time>2026-04-29T14:37:25Z</time></trkpt><trkpt lat="42.23979914554552" lon="12.157260660683168"><ele>397.33333333333337</ele><time>2026-04-29T14:37:26Z</time></trkpt><trkpt lat="42.239587782728464" lon="12.157229427648124"><ele>397.0</ele><time>2026-04-29T14:37:27Z</time></trkpt><trkpt lat="42.23938113822869" lon="12.157206455452922"><ele>397.0</ele><time>2026-04-29T14:37:28Z</time></trkpt><trkpt lat="42.23916852944322" lon="12.157189886481522"><ele>397.0</ele><time>2026-04-29T14:37:29Z</time></trkpt><trkpt lat="42.23895579018149" lon="12.157179248620864"><ele>397.0</ele><time>2026-04-29T14:37:30Z</time></trkpt><trkpt lat="42.23874381637058" lon="12.157172124677313"><ele>396.6666666666667</ele><time>2026-04-29T14:37:31Z</time></trkpt><trkpt lat="42.23853068592002" lon="12.157165538434677"><ele>396.33333333333337</ele><time>2026-04-29T14:37:32Z</time></trkpt><trkpt lat="42.23831550528209" lon="12.157158374760556"><ele>396.0</ele><time>2026-04-29T14:37:33Z</time></trkpt><trkpt lat="42.238106875088775" lon="12.1571565576138"><ele>396.0</ele><time>2026-04-29T14:37:34Z</time></trkpt><trkpt lat="42.237909836209816" lon="12.157154099008178"><ele>396.0</ele><time>2026-04-29T14:37:35Z</time></trkpt><trkpt lat="42.23770605194152" lon="12.157141299575212"><ele>396.0</ele><time>2026-04-29T14:37:36Z</time></trkpt><trkpt lat="42.23748982092125" lon="12.157124805348339"><ele>393.0</ele><time>2026-04-29T14:37:37Z</time></trkpt><trkpt lat="42.23726329877208" lon="12.157102714083729"><ele>390.0</ele><time>2026-04-29T14:37:38Z</time></trkpt><trkpt lat="42.23702248942477" lon="12.157070933113843"><ele>390.0</ele><time>2026-04-29T14:37:39Z</time></trkpt><trkpt lat="42.23676865602418" lon="12.157034312794105"><ele>390.0</ele><time>2026-04-29T14:37:40Z</time></trkpt><trkpt lat="42.23652192776137" lon="12.15699520563523"><ele>389.0</ele><time>2026-04-29T14:37:41Z</time></trkpt><trkpt lat="42.23628797658584" lon="12.156959008375615"><ele>388.0</ele><time>2026-04-29T14:37:42Z</time></trkpt><trkpt lat="42.23606711095586" lon="12.156917398128135"><ele>388.0</ele><time>2026-04-29T14:37:43Z</time></trkpt><trkpt lat="42.23585378293079" lon="12.156867042130479"><ele>388.0</ele><time>2026-04-29T14:37:44Z</time></trkpt><trkpt lat="42.2356384174503" lon="12.156797400722171"><ele>388.0</ele><time>2026-04-29T14:37:45Z</time></trkpt><trkpt lat="42.23541598806774" lon="12.156713422543339"><ele>388.0</ele><time>2026-04-29T14:37:46Z</time></trkpt><trkpt lat="42.23519946771353" lon="12.156616317927794"><ele>388.0</ele><time>2026-04-29T14:37:47Z</time></trkpt><trkpt lat="42.23498709341329" lon="12.156505919680656"><ele>389.6666666666667</ele><time>2026-04-29T14:37:48Z</time></trkpt><trkpt lat="42.234778261620804" lon="12.156393465446964"><ele>391.33333333333337</ele><time>2026-04-29T14:37:49Z</time></trkpt><trkpt lat="42.2345825935699" lon="12.156286981528167"><ele>393.0</ele><time>2026-04-29T14:37:50Z</time></trkpt><trkpt lat="42.234404854456784" lon="12.156189906933498"><ele>393.0</ele><time>2026-04-29T14:37:51Z</time></trkpt><trkpt lat="42.23423391148197" lon="12.156085262647034"><ele>393.0</ele><time>2026-04-29T14:37:52Z</time></trkpt><trkpt lat="42.23407340083277" lon="12.155975483338404"><ele>393.0</ele><time>2026-04-29T14:37:53Z</time></trkpt><trkpt lat="42.23391897925874" lon="12.155856281434296"><ele>393.0</ele><time>2026-04-29T14:37:54Z</time></trkpt><trkpt lat="42.23376262463213" lon="12.155717459713658"><ele>393.0</ele><time>2026-04-29T14:37:55Z</time></trkpt><trkpt lat="42.2336022242859" lon="12.155570943083655"><ele>393.0</ele><time>2026-04-29T14:37:56Z</time></trkpt><trkpt lat="42.233436592235435" lon="12.155414201174283"><ele>393.0</ele><time>2026-04-29T14:37:57Z</time></trkpt><trkpt lat="42.23326690835521" lon="12.15524384787902"><ele>393.0</ele><time>2026-04-29T14:37:58Z</time></trkpt><trkpt lat="42.23309165100597" lon="12.155060016210747"><ele>393.0</ele><time>2026-04-29T14:37:59Z</time></trkpt><trkpt lat="42.23290986142392" lon="12.154868156303234"><ele>391.0</ele><time>2026-04-29T14:38:00Z</time></trkpt><trkpt lat="42.23272609950712" lon="12.154672792673518"><ele>389.0</ele><time>2026-04-29T14:38:01Z</time></trkpt><trkpt lat="42.23253726177897" lon="12.15448032135769"><ele>389.0</ele><time>2026-04-29T14:38:02Z</time></trkpt><trkpt lat="42.232346091628095" lon="12.15428187633716"><ele>389.0</ele><time>2026-04-29T14:38:03Z</time></trkpt><trkpt lat="42.232152862498126" lon="12.154079537499355"><ele>388.0</ele><time>2026-04-29T14:38:04Z</time></trkpt><trkpt lat="42.231958905574366" lon="12.153876604216661"><ele>387.0</ele><time>2026-04-29T14:38:05Z</time></trkpt><trkpt lat="42.23177097214962" lon="12.153673695955858"><ele>387.0</ele><time>2026-04-29T14:38:06Z</time></trkpt><trkpt lat="42.23157909133161" lon="12.153467804075483"><ele>387.0</ele><time>2026-04-29T14:38:07Z</time></trkpt><trkpt lat="42.23137680503997" lon="12.153257269192244"><ele>387.0</ele><time>2026-04-29T14:38:08Z</time></trkpt><trkpt lat="42.231170204207494" lon="12.153038178909084"><ele>387.0</ele><time>2026-04-29T14:38:09Z</time></trkpt><trkpt lat="42.23095832514257" lon="12.152813832281055"><ele>387.0</ele><time>2026-04-29T14:38:10Z</time></trkpt><trkpt lat="42.23074046585301" lon="12.152585130044324"><ele>387.0</ele><time>2026-04-29T14:38:11Z</time></trkpt><trkpt lat="42.230519882833796" lon="12.152354024535386"><ele>387.0</ele><time>2026-04-29T14:38:12Z</time></trkpt><trkpt lat="42.2303003652899" lon="12.152122334329476"><ele>387.0</ele><time>2026-04-29T14:38:13Z</time></trkpt><trkpt lat="42.23008324585526" lon="12.151895208586618"><ele>387.0</ele><time>2026-04-29T14:38:14Z</time></trkpt><trkpt lat="42.22988229428435" lon="12.151684018093812"><ele>387.0</ele><time>2026-04-29T14:38:15Z</time></trkpt><trkpt lat="42.22968874813448" lon="12.151484555121117"><ele>385.0</ele><time>2026-04-29T14:38:16Z</time></trkpt><trkpt lat="42.22950354662482" lon="12.151295970697408"><ele>383.0</ele><time>2026-04-29T14:38:17Z</time></trkpt><trkpt lat="42.22931399714241" lon="12.15110135674528"><ele>383.0</ele><time>2026-04-29T14:38:18Z</time></trkpt><trkpt lat="42.229129455149916" lon="12.15090662257024"><ele>383.0</ele><time>2026-04-29T14:38:19Z</time></trkpt><trkpt lat="42.22894167761089" lon="12.150715525828302"><ele>386.0</ele><time>2026-04-29T14:38:20Z</time></trkpt><trkpt lat="42.228745965888294" lon="12.150526980023722"><ele>389.0</ele><time>2026-04-29T14:38:21Z</time></trkpt><trkpt lat="42.228540509987354" lon="12.150343180544517"><ele>389.0</ele><time>2026-04-29T14:38:22Z</time></trkpt><trkpt lat="42.22833355084458" lon="12.15017173091089"><ele>389.0</ele><time>2026-04-29T14:38:23Z</time></trkpt><trkpt lat="42.228124323910016" lon="12.150007013204839"><ele>388.0</ele><time>2026-04-29T14:38:24Z</time></trkpt><trkpt lat="42.22790466741363" lon="12.149852254606712"><ele>387.0</ele><time>2026-04-29T14:38:25Z</time></trkpt><trkpt lat="42.227677345059966" lon="12.149705456691171"><ele>387.0</ele><time>2026-04-29T14:38:26Z</time></trkpt><trkpt lat="42.227462457985844" lon="12.149574118369092"><ele>387.0</ele><time>2026-04-29T14:38:27Z</time></trkpt><trkpt lat="42.22726794838762" lon="12.149462472695896"><ele>387.0</ele><time>2026-04-29T14:38:28Z</time></trkpt><trkpt lat="42.227090462601176" lon="12.149370166597988"><ele>386.66666666666663</ele><time>2026-04-29T14:38:29Z</time></trkpt><trkpt lat="42.22691479807745" lon="12.149289070938602"><ele>386.3333333333333</ele><time>2026-04-29T14:38:30Z</time></trkpt><trkpt lat="42.226733571012836" lon="12.149226747099005"><ele>386.0</ele><time>2026-04-29T14:38:31Z</time></trkpt><trkpt lat="42.22657034371397" lon="12.149195953299065"><ele>385.3333333333333</ele><time>2026-04-29T14:38:32Z</time></trkpt><trkpt lat="42.2264188913437" lon="12.149194931889397"><ele>384.66666666666663</ele><time>2026-04-29T14:38:33Z</time></trkpt><trkpt lat="42.226271489750076" lon="12.149242946206082"><ele>384.0</ele><time>2026-04-29T14:38:34Z</time></trkpt><trkpt lat="42.2261367784453" lon="12.149324400897997"><ele>384.0</ele><time>2026-04-29T14:38:35Z</time></trkpt><trkpt lat="42.22600578757661" lon="12.149440835804018"><ele>384.0</ele><time>2026-04-29T14:38:36Z</time></trkpt><trkpt lat="42.225892870544406" lon="12.14958870213049"><ele>384.0</ele><time>2026-04-29T14:38:37Z</time></trkpt><trkpt lat="42.22579592146059" lon="12.14976517852927"><ele>383.3333333333333</ele><time>2026-04-29T14:38:38Z</time></trkpt><trkpt lat="42.225708555532094" lon="12.149967664111733"><ele>382.66666666666663</ele><time>2026-04-29T14:38:39Z</time></trkpt><trkpt lat="42.22561280681384" lon="12.150199308618799"><ele>382.0</ele><time>2026-04-29T14:38:40Z</time></trkpt><trkpt lat="42.22550347243505" lon="12.150451619203618"><ele>384.0</ele><time>2026-04-29T14:38:41Z</time></trkpt><trkpt lat="42.2253839120939" lon="12.150721574452888"><ele>386.0</ele><time>2026-04-29T14:38:42Z</time></trkpt><trkpt lat="42.22525933589448" lon="12.15099749455348"><ele>386.0</ele><time>2026-04-29T14:38:43Z</time></trkpt><trkpt lat="42.225142865552094" lon="12.151259880686311"><ele>386.0</ele><time>2026-04-29T14:38:44Z</time></trkpt><trkpt lat="42.22504586340426" lon="12.151487189052952"><ele>386.0</ele><time>2026-04-29T14:38:45Z</time></trkpt><trkpt lat="42.22496206366431" lon="12.151683083740734"><ele>385.75</ele><time>2026-04-29T14:38:46Z</time></trkpt><trkpt lat="42.224878974857376" lon="12.151856330475935"><ele>385.5</ele><time>2026-04-29T14:38:47Z</time></trkpt><trkpt lat="42.224787344933546" lon="12.151988339373304"><ele>385.25</ele><time>2026-04-29T14:38:48Z</time></trkpt><trkpt lat="42.22467169283674" lon="12.152088255483319"><ele>385.0</ele><time>2026-04-29T14:38:49Z</time></trkpt><trkpt lat="42.22454197107222" lon="12.152155294840755"><ele>384.5</ele><time>2026-04-29T14:38:50Z</time></trkpt><trkpt lat="42.22441357216099" lon="12.1521796879678"><ele>384.0</ele><time>2026-04-29T14:38:51Z</time></trkpt><trkpt lat="42.22428366569628" lon="12.152162766861066"><ele>383.5</ele><time>2026-04-29T14:38:52Z</time></trkpt><trkpt lat="42.22413669557041" lon="12.152118534272793"><ele>383.0</ele><time>2026-04-29T14:38:53Z</time></trkpt><trkpt lat="42.223964102982904" lon="12.152078243328752"><ele>383.0</ele><time>2026-04-29T14:38:54Z</time></trkpt><trkpt lat="42.22377733603587" lon="12.15204602587666"><ele>383.0</ele><time>2026-04-29T14:38:55Z</time></trkpt><trkpt lat="42.22357738645659" lon="12.15200950764922"><ele>383.0</ele><time>2026-04-29T14:38:56Z</time></trkpt><trkpt lat="42.223357003740915" lon="12.151965823791803"><ele>382.33333333333337</ele><time>2026-04-29T14:38:57Z</time></trkpt><trkpt lat="42.223132258621604" lon="12.151933960856956"><ele>381.6666666666667</ele><time>2026-04-29T14:38:58Z</time></trkpt><trkpt lat="42.222930674963955" lon="12.151901577014508"><ele>381.0</ele><time>2026-04-29T14:38:59Z</time></trkpt><trkpt lat="42.22273508134912" lon="12.151846257729424"><ele>381.0</ele><time>2026-04-29T14:39:00Z</time></trkpt><trkpt lat="42.22253213709209" lon="12.151764595738682"><ele>381.0</ele><time>2026-04-29T14:39:01Z</time></trkpt><trkpt lat="42.22231564306433" lon="12.151666395313018"><ele>381.0</ele><time>2026-04-29T14:39:02Z</time></trkpt><trkpt lat="42.22210747362322" lon="12.151569564695526"><ele>380.6666666666667</ele><time>2026-04-29T14:39:03Z</time></trkpt><trkpt lat="42.221914117731295" lon="12.151484927068925"><ele>380.33333333333337</ele><time>2026-04-29T14:39:04Z</time></trkpt><trkpt lat="42.2217419213844" lon="12.151409249248228"><ele>380.0</ele><time>2026-04-29T14:39:05Z</time></trkpt><trkpt lat="42.2215816172659" lon="12.151295963830062"><ele>379.33333333333337</ele><time>2026-04-29T14:39:06Z</time></trkpt><trkpt lat="42.22143913297748" lon="12.1511548022177"><ele>378.6666666666667</ele><time>2026-04-29T14:39:07Z</time></trkpt><trkpt lat="42.22130770458685" lon="12.15101849336221"><ele>378.0</ele><time>2026-04-29T14:39:08Z</time></trkpt><trkpt lat="42.221193179101284" lon="12.150900542063312"><ele>378.0</ele><time>2026-04-29T14:39:09Z</time></trkpt><trkpt lat="42.22107338306411" lon="12.150826254355566"><ele>378.0</ele><time>2026-04-29T14:39:10Z</time></trkpt><trkpt lat="42.220936304507354" lon="12.150809597589735"><ele>378.0</ele><time>2026-04-29T14:39:11Z</time></trkpt><trkpt lat="42.220798909783035" lon="12.150841394674764"><ele>378.0</ele><time>2026-04-29T14:39:12Z</time></trkpt><trkpt lat="42.22067133194764" lon="12.150923724066141"><ele>375.3333333333333</ele><time>2026-04-29T14:39:13Z</time></trkpt><trkpt lat="42.220553771795984" lon="12.151045255991503"><ele>372.66666666666663</ele><time>2026-04-29T14:39:14Z</time></trkpt><trkpt lat="42.22044411315599" lon="12.151195583734626"><ele>370.0</ele><time>2026-04-29T14:39:15Z</time></trkpt><trkpt lat="42.2203468695178" lon="12.151379616805619"><ele>369.66666666666663</ele><time>2026-04-29T14:39:16Z</time></trkpt><trkpt lat="42.220247560465886" lon="12.151596239881348"><ele>369.3333333333333</ele><time>2026-04-29T14:39:17Z</time></trkpt><trkpt lat="42.22013358893354" lon="12.15184378759886"><ele>369.0</ele><time>2026-04-29T14:39:18Z</time></trkpt><trkpt lat="42.21999776959213" lon="12.1521010473875"><ele>369.0</ele><time>2026-04-29T14:39:19Z</time></trkpt><trkpt lat="42.219842929709834" lon="12.15235299047889"><ele>369.0</ele><time>2026-04-29T14:39:20Z</time></trkpt><trkpt lat="42.21970748017635" lon="12.152639941188564"><ele>368.6666666666667</ele><time>2026-04-29T14:39:21Z</time></trkpt><trkpt lat="42.21956952639553" lon="12.152896995036098"><ele>368.33333333333337</ele><time>2026-04-29T14:39:22Z</time></trkpt><trkpt lat="42.219444996913595" lon="12.153126861095593"><ele>368.0</ele><time>2026-04-29T14:39:23Z</time></trkpt><trkpt lat="42.2193442468806" lon="12.153322974577375"><ele>368.79999999999995</ele><time>2026-04-29T14:39:24Z</time></trkpt><trkpt lat="42.2192828177694" lon="12.153479209291406"><ele>369.6</ele><time>2026-04-29T14:39:25Z</time></trkpt><trkpt lat="42.21925696261781" lon="12.153602866481867"><ele>370.4</ele><time>2026-04-29T14:39:26Z</time></trkpt><trkpt lat="42.219251708757305" lon="12.153728596977214"><ele>371.20000000000005</ele><time>2026-04-29T14:39:27Z</time></trkpt><trkpt lat="42.21925430120166" lon="12.153846873659253"><ele>372.0</ele><time>2026-04-29T14:39:28Z</time></trkpt><trkpt lat="42.219249541908276" lon="12.153961556763436"><ele>371.40000000000003</ele><time>2026-04-29T14:39:29Z</time></trkpt><trkpt lat="42.219232475735375" lon="12.154071093356709"><ele>370.8</ele><time>2026-04-29T14:39:30Z</time></trkpt><trkpt lat="42.219212071209334" lon="12.154157397263425"><ele>370.2</ele><time>2026-04-29T14:39:31Z</time></trkpt><trkpt lat="42.21919462353851" lon="12.15429471409848"><ele>369.6</ele><time>2026-04-29T14:39:33Z</time></trkpt><trkpt lat="42.21916456758709" lon="12.154375109217153"><ele>369.0</ele><time>2026-04-29T14:39:34Z</time></trkpt><trkpt lat="42.219249298453676" lon="12.154532842154666"><ele>369.0</ele><time>2026-04-29T14:39:35Z</time></trkpt><trkpt lat="42.219270962471356" lon="12.154671152095537"><ele>369.0</ele><time>2026-04-29T14:39:36Z</time></trkpt><trkpt lat="42.219275235754544" lon="12.15482149109738"><ele>369.0</ele><time>2026-04-29T14:39:37Z</time></trkpt><trkpt lat="42.21926734029862" lon="12.154986045986307"><ele>369.0</ele><time>2026-04-29T14:39:38Z</time></trkpt><trkpt lat="42.21923855476886" lon="12.155189048752447"><ele>370.0</ele><time>2026-04-29T14:39:39Z</time></trkpt><trkpt lat="42.219215148919155" lon="12.155385240987073"><ele>371.0</ele><time>2026-04-29T14:39:40Z</time></trkpt><trkpt lat="42.21919286106136" lon="12.155595039123291"><ele>372.0</ele><time>2026-04-29T14:39:41Z</time></trkpt><trkpt lat="42.21916931347555" lon="12.155815620484782"><ele>372.6666666666667</ele><time>2026-04-29T14:39:42Z</time></trkpt><trkpt lat="42.219141621521416" lon="12.156041584468035"><ele>373.33333333333337</ele><time>2026-04-29T14:39:43Z</time></trkpt><trkpt lat="42.219110526822355" lon="12.15627042826278"><ele>374.0</ele><time>2026-04-29T14:39:44Z</time></trkpt><trkpt lat="42.21908359175457" lon="12.156506471314277"><ele>374.6666666666667</ele><time>2026-04-29T14:39:45Z</time></trkpt><trkpt lat="42.21905597006017" lon="12.156751062892313"><ele>375.3333333333333</ele><time>2026-04-29T14:39:46Z</time></trkpt><trkpt lat="42.2190264776132" lon="12.157004357291392"><ele>376.0</ele><time>2026-04-29T14:39:47Z</time></trkpt><trkpt lat="42.21898496988236" lon="12.157244847241985"><ele>375.66666666666663</ele><time>2026-04-29T14:39:48Z</time></trkpt><trkpt lat="42.21897474757003" lon="12.157470505395244"><ele>375.3333333333333</ele><time>2026-04-29T14:39:49Z</time></trkpt><trkpt lat="42.218955814713944" lon="12.157678154108316"><ele>375.0</ele><time>2026-04-29T14:39:50Z</time></trkpt><trkpt lat="42.218948399304175" lon="12.157877361176537"><ele>375.0</ele><time>2026-04-29T14:39:51Z</time></trkpt><trkpt lat="42.21894447491916" lon="12.158066466382573"><ele>375.0</ele><time>2026-04-29T14:39:52Z</time></trkpt><trkpt lat="42.21894123814474" lon="12.158249798724823"><ele>375.0</ele><time>2026-04-29T14:39:53Z</time></trkpt><trkpt lat="42.21893661542923" lon="12.158422773890434"><ele>375.0</ele><time>2026-04-29T14:39:54Z</time></trkpt><trkpt lat="42.21893131812823" lon="12.158597589006922"><ele>375.0</ele><time>2026-04-29T14:39:55Z</time></trkpt><trkpt lat="42.21892737973885" lon="12.15877947987954"><ele>375.0</ele><time>2026-04-29T14:39:56Z</time></trkpt><trkpt lat="42.218925540920786" lon="12.158967989962182"><ele>375.0</ele><time>2026-04-29T14:39:57Z</time></trkpt><trkpt lat="42.21892474791388" lon="12.159161130636413"><ele>375.0</ele><time>2026-04-29T14:39:58Z</time></trkpt><trkpt lat="42.21892419966682" lon="12.15936659436882"><ele>375.3333333333333</ele><time>2026-04-29T14:39:59Z</time></trkpt><trkpt lat="42.2189277354463" lon="12.159574420175218"><ele>375.66666666666663</ele><time>2026-04-29T14:40:00Z</time></trkpt><trkpt lat="42.2189424300611" lon="12.159782783231465"><ele>376.0</ele><time>2026-04-29T14:40:01Z</time></trkpt><trkpt lat="42.21897678663257" lon="12.159998371450245"><ele>378.3333333333333</ele><time>2026-04-29T14:40:02Z</time></trkpt><trkpt lat="42.219028314954016" lon="12.160222939185585"><ele>380.6666666666667</ele><time>2026-04-29T14:40:03Z</time></trkpt><trkpt lat="42.21909177339103" lon="12.160453184298014"><ele>383.0</ele><time>2026-04-29T14:40:04Z</time></trkpt><trkpt lat="42.21915625770298" lon="12.160690114584364"><ele>381.6666666666667</ele><time>2026-04-29T14:40:05Z</time></trkpt><trkpt lat="42.21922693495085" lon="12.16093412593648"><ele>380.3333333333333</ele><time>2026-04-29T14:40:06Z</time></trkpt><trkpt lat="42.21929915556029" lon="12.161183879812118"><ele>379.0</ele><time>2026-04-29T14:40:07Z</time></trkpt><trkpt lat="42.21937051465043" lon="12.161423481684036"><ele>378.66666666666663</ele><time>2026-04-29T14:40:08Z</time></trkpt><trkpt lat="42.21942843330605" lon="12.161633205987368"><ele>378.3333333333333</ele><time>2026-04-29T14:40:09Z</time></trkpt><trkpt lat="42.219479231751734" lon="12.16182085616164"><ele>378.0</ele><time>2026-04-29T14:40:10Z</time></trkpt><trkpt lat="42.219535885006074" lon="12.162019721498172"><ele>378.0</ele><time>2026-04-29T14:40:11Z</time></trkpt><trkpt lat="42.219597423151654" lon="12.162242719985878"><ele>378.0</ele><time>2026-04-29T14:40:12Z</time></trkpt><trkpt lat="42.219662216429114" lon="12.162480618126205"><ele>378.0</ele><time>2026-04-29T14:40:13Z</time></trkpt><trkpt lat="42.219732808243904" lon="12.162728891363436"><ele>377.3333333333333</ele><time>2026-04-29T14:40:14Z</time></trkpt><trkpt lat="42.21980967374328" lon="12.162985861218896"><ele>376.66666666666663</ele><time>2026-04-29T14:40:15Z</time></trkpt><trkpt lat="42.21988962856228" lon="12.163256426632431"><ele>376.0</ele><time>2026-04-29T14:40:16Z</time></trkpt><trkpt lat="42.21997261394503" lon="12.16354202557082"><ele>378.5</ele><time>2026-04-29T14:40:17Z</time></trkpt><trkpt lat="42.22005903160355" lon="12.163851299867531"><ele>381.0</ele><time>2026-04-29T14:40:18Z</time></trkpt><trkpt lat="42.220148423231976" lon="12.16416967254146"><ele>381.0</ele><time>2026-04-29T14:40:19Z</time></trkpt><trkpt lat="42.2202400446703" lon="12.16448383111389"><ele>381.0</ele><time>2026-04-29T14:40:20Z</time></trkpt><trkpt lat="42.22032027481707" lon="12.164771634994441"><ele>380.3333333333333</ele><time>2026-04-29T14:40:21Z</time></trkpt><trkpt lat="42.22039536509279" lon="12.165044629674155"><ele>379.66666666666663</ele><time>2026-04-29T14:40:22Z</time></trkpt><trkpt lat="42.220467977898885" lon="12.165316771465747"><ele>379.0</ele><time>2026-04-29T14:40:23Z</time></trkpt><trkpt lat="42.22053888006708" lon="12.16557346674895"><ele>379.66666666666663</ele><time>2026-04-29T14:40:24Z</time></trkpt><trkpt lat="42.22061475187056" lon="12.165825617657932"><ele>380.3333333333333</ele><time>2026-04-29T14:40:25Z</time></trkpt><trkpt lat="42.2206905456219" lon="12.166085158663039"><ele>381.0</ele><time>2026-04-29T14:40:26Z</time></trkpt><trkpt lat="42.2207667631573" lon="12.16634372377446"><ele>382.33333333333337</ele><time>2026-04-29T14:40:27Z</time></trkpt><trkpt lat="42.22083718235351" lon="12.166593797717157"><ele>383.6666666666667</ele><time>2026-04-29T14:40:28Z</time></trkpt><trkpt lat="42.22090421854814" lon="12.166834868661164"><ele>385.0</ele><time>2026-04-29T14:40:29Z</time></trkpt><trkpt lat="42.22096596291776" lon="12.167060647410574"><ele>385.0</ele><time>2026-04-29T14:40:30Z</time></trkpt><trkpt lat="42.22101375470349" lon="12.16726106256496"><ele>385.0</ele><time>2026-04-29T14:40:31Z</time></trkpt><trkpt lat="42.22103834683684" lon="12.167449496217868"><ele>385.0</ele><time>2026-04-29T14:40:32Z</time></trkpt><trkpt lat="42.22103465442839" lon="12.167646265492003"><ele>385.0</ele><time>2026-04-29T14:40:33Z</time></trkpt><trkpt lat="42.22101229310358" lon="12.167859421866394"><ele>385.0</ele><time>2026-04-29T14:40:34Z</time></trkpt><trkpt lat="42.2209561742219" lon="12.168075697707476"><ele>385.0</ele><time>2026-04-29T14:40:35Z</time></trkpt><trkpt lat="42.22092420496035" lon="12.168315347087791"><ele>385.0</ele><time>2026-04-29T14:40:36Z</time></trkpt><trkpt lat="42.22087874376831" lon="12.168574921572077"><ele>386.0</ele><time>2026-04-29T14:40:37Z</time></trkpt><trkpt lat="42.22083602919162" lon="12.168835754989905"><ele>387.0</ele><time>2026-04-29T14:40:38Z</time></trkpt><trkpt lat="42.22078820127089" lon="12.169111554739812"><ele>388.0</ele><time>2026-04-29T14:40:39Z</time></trkpt><trkpt lat="42.22073368922658" lon="12.169403827333861"><ele>388.0</ele><time>2026-04-29T14:40:40Z</time></trkpt><trkpt lat="42.22067731927936" lon="12.169713382236049"><ele>388.0</ele><time>2026-04-29T14:40:41Z</time></trkpt><trkpt lat="42.22062306710237" lon="12.17001621126895"><ele>388.0</ele><time>2026-04-29T14:40:42Z</time></trkpt><trkpt lat="42.220567739161055" lon="12.170297206444113"><ele>388.0</ele><time>2026-04-29T14:40:43Z</time></trkpt><trkpt lat="42.22052756953662" lon="12.170547023474299"><ele>388.0</ele><time>2026-04-29T14:40:44Z</time></trkpt><trkpt lat="42.220483414604274" lon="12.170763923987693"><ele>388.25</ele><time>2026-04-29T14:40:45Z</time></trkpt><trkpt lat="42.2204453548847" lon="12.170957281899476"><ele>388.5</ele><time>2026-04-29T14:40:46Z</time></trkpt><trkpt lat="42.22042000605644" lon="12.171134437341843"><ele>388.75</ele><time>2026-04-29T14:40:47Z</time></trkpt><trkpt lat="42.22041572128352" lon="12.171307892805991"><ele>389.0</ele><time>2026-04-29T14:40:48Z</time></trkpt><trkpt lat="42.22043384564745" lon="12.171495375631851"><ele>389.75</ele><time>2026-04-29T14:40:49Z</time></trkpt><trkpt lat="42.220466519037004" lon="12.171696888819373"><ele>390.5</ele><time>2026-04-29T14:40:50Z</time></trkpt><trkpt lat="42.22049446871723" lon="12.1719044201654"><ele>391.25</ele><time>2026-04-29T14:40:51Z</time></trkpt><trkpt lat="42.22052060277481" lon="12.172083631747025"><ele>392.0</ele><time>2026-04-29T14:40:52Z</time></trkpt><trkpt lat="42.22054405751627" lon="12.172245367216167"><ele>393.5</ele><time>2026-04-29T14:40:53Z</time></trkpt><trkpt lat="42.22057979393089" lon="12.172408214191123"><ele>395.0</ele><time>2026-04-29T14:40:54Z</time></trkpt><trkpt lat="42.220637831977356" lon="12.172583515609677"><ele>396.5</ele><time>2026-04-29T14:40:55Z</time></trkpt><trkpt lat="42.22071489696947" lon="12.172767215962041"><ele>398.0</ele><time>2026-04-29T14:40:56Z</time></trkpt><trkpt lat="42.220810504720575" lon="12.172974767773137"><ele>399.3333333333333</ele><time>2026-04-29T14:40:57Z</time></trkpt><trkpt lat="42.22092155598193" lon="12.17319782010388"><ele>400.66666666666663</ele><time>2026-04-29T14:40:58Z</time></trkpt><trkpt lat="42.22103648902109" lon="12.173438675682457"><ele>402.0</ele><time>2026-04-29T14:40:59Z</time></trkpt><trkpt lat="42.22115142521394" lon="12.173686801565966"><ele>402.0</ele><time>2026-04-29T14:41:00Z</time></trkpt><trkpt lat="42.22127498649244" lon="12.173950245568863"><ele>402.0</ele><time>2026-04-29T14:41:01Z</time></trkpt><trkpt lat="42.22139981873399" lon="12.17422673435631"><ele>402.66666666666663</ele><time>2026-04-29T14:41:02Z</time></trkpt><trkpt lat="42.22152297947859" lon="12.174492273567719"><ele>403.3333333333333</ele><time>2026-04-29T14:41:03Z</time></trkpt><trkpt lat="42.22163741452607" lon="12.17473511847663"><ele>404.0</ele><time>2026-04-29T14:41:04Z</time></trkpt><trkpt lat="42.221742183916604" lon="12.17495641820869"><ele>404.3333333333333</ele><time>2026-04-29T14:41:05Z</time></trkpt><trkpt lat="42.221842887772986" lon="12.175165664549612"><ele>404.66666666666663</ele><time>2026-04-29T14:41:06Z</time></trkpt><trkpt lat="42.22193071849071" lon="12.17536041954846"><ele>405.0</ele><time>2026-04-29T14:41:07Z</time></trkpt><trkpt lat="42.222027593053134" lon="12.175567961752746"><ele>406.33333333333337</ele><time>2026-04-29T14:41:08Z</time></trkpt><trkpt lat="42.222130951591076" lon="12.17578554821701"><ele>407.6666666666667</ele><time>2026-04-29T14:41:09Z</time></trkpt><trkpt lat="42.222231815495796" lon="12.176001425329492"><ele>409.0</ele><time>2026-04-29T14:41:10Z</time></trkpt><trkpt lat="42.22232331632875" lon="12.176200151791532"><ele>409.0</ele><time>2026-04-29T14:41:11Z</time></trkpt><trkpt lat="42.22239256841136" lon="12.17636557549387"><ele>409.0</ele><time>2026-04-29T14:41:12Z</time></trkpt><trkpt lat="42.22246664859604" lon="12.176526816869393"><ele>409.0</ele><time>2026-04-29T14:41:13Z</time></trkpt><trkpt lat="42.22253437018278" lon="12.176670749887304"><ele>409.0</ele><time>2026-04-29T14:41:14Z</time></trkpt><trkpt lat="42.22259974505691" lon="12.176798222930397"><ele>409.1666666666667</ele><time>2026-04-29T14:41:15Z</time></trkpt><trkpt lat="42.22265538070326" lon="12.176912655691234"><ele>409.33333333333337</ele><time>2026-04-29T14:41:16Z</time></trkpt><trkpt lat="42.222700727052704" lon="12.177016429138334"><ele>409.5</ele><time>2026-04-29T14:41:17Z</time></trkpt><trkpt lat="42.22274457669116" lon="12.177100115541073"><ele>409.66666666666663</ele><time>2026-04-29T14:41:18Z</time></trkpt><trkpt lat="42.22276635306856" lon="12.177189766128118"><ele>409.8333333333333</ele><time>2026-04-29T14:41:19Z</time></trkpt><trkpt lat="42.22280482450426" lon="12.177274464592708"><ele>410.0</ele><time>2026-04-29T14:41:20Z</time></trkpt><trkpt lat="42.22284706457514" lon="12.177367460056358"><ele>409.99999999999994</ele><time>2026-04-29T14:41:21Z</time></trkpt><trkpt lat="42.222891237183674" lon="12.17746471019621"><ele>410.0</ele><time>2026-04-29T14:41:22Z</time></trkpt><trkpt lat="42.22293767217189" lon="12.177566941168589"><ele>410.0</ele><time>2026-04-29T14:41:23Z</time></trkpt><trkpt lat="42.22297902777696" lon="12.177657989211047"><ele>410.0</ele><time>2026-04-29T14:41:24Z</time></trkpt><trkpt lat="42.223017439285805" lon="12.177741160501268"><ele>409.99999999999994</ele><time>2026-04-29T14:41:25Z</time></trkpt><trkpt lat="42.22309214134087" lon="12.177862032969117"><ele>410.0</ele><time>2026-04-29T14:41:27Z</time></trkpt><trkpt lat="42.22313962576809" lon="12.178007957870033"><ele>411.4</ele><time>2026-04-29T14:41:29Z</time></trkpt><trkpt lat="42.22321456299002" lon="12.178133713205307"><ele>412.8</ele><time>2026-04-29T14:41:31Z</time></trkpt><trkpt lat="42.22326703434459" lon="12.178242547758728"><ele>414.20000000000005</ele><time>2026-04-29T14:41:33Z</time></trkpt><trkpt lat="42.223308246446805" lon="12.178335513142121"><ele>415.6</ele><time>2026-04-29T14:41:35Z</time></trkpt><trkpt lat="42.223346332479345" lon="12.178451658935343"><ele>417.0</ele><time>2026-04-29T14:41:37Z</time></trkpt><trkpt lat="42.22338774996711" lon="12.17854049890938"><ele>417.0</ele><time>2026-04-29T14:41:39Z</time></trkpt><trkpt lat="42.223490709757186" lon="12.178468778854741"><ele>417.0</ele><time>2026-04-29T14:41:40Z</time></trkpt><trkpt lat="42.2235776596641" lon="12.178459374649794"><ele>417.0</ele><time>2026-04-29T14:41:42Z</time></trkpt><trkpt lat="42.22367023591313" lon="12.178446532839601"><ele>417.0</ele><time>2026-04-29T14:41:44Z</time></trkpt><trkpt lat="42.22376965044487" lon="12.178426782326543"><ele>417.0</ele><time>2026-04-29T14:41:46Z</time></trkpt><trkpt lat="42.22388488149166" lon="12.17841338841702"><ele>417.5</ele><time>2026-04-29T14:41:48Z</time></trkpt><trkpt lat="42.22401105860592" lon="12.178408461432715"><ele>418.0</ele><time>2026-04-29T14:41:50Z</time></trkpt><trkpt lat="42.22407942905718" lon="12.17841075254121"><ele>418.5</ele><time>2026-04-29T14:41:51Z</time></trkpt><trkpt lat="42.22415166756394" lon="12.178418100480963"><ele>419.0</ele><time>2026-04-29T14:41:52Z</time></trkpt><trkpt lat="42.22422922549374" lon="12.178430476954595"><ele>419.5</ele><time>2026-04-29T14:41:53Z</time></trkpt><trkpt lat="42.22430930912826" lon="12.17844204718259"><ele>420.0</ele><time>2026-04-29T14:41:54Z</time></trkpt><trkpt lat="42.22437922977665" lon="12.178450396903347"><ele>420.0</ele><time>2026-04-29T14:41:55Z</time></trkpt><trkpt lat="42.22449389665032" lon="12.17847110611278"><ele>420.0</ele><time>2026-04-29T14:41:57Z</time></trkpt><trkpt lat="42.22458494419682" lon="12.178446621966307"><ele>420.0</ele><time>2026-04-29T14:41:59Z</time></trkpt><trkpt lat="42.22466465509073" lon="12.178446905352251"><ele>420.0</ele><time>2026-04-29T14:42:02Z</time></trkpt><trkpt lat="42.22457052476381" lon="12.17839247097741"><ele>420.0</ele><time>2026-04-29T14:42:11Z</time></trkpt><trkpt lat="42.22449582459913" lon="12.178331206923145"><ele>420.0</ele><time>2026-04-29T14:42:13Z</time></trkpt><trkpt lat="42.22449857330647" lon="12.17842084239745"><ele>420.0</ele><time>2026-04-29T14:42:34Z</time></trkpt><trkpt lat="42.224436208926875" lon="12.17837911842669"><ele>420.0</ele><time>2026-04-29T14:42:49Z</time></trkpt><trkpt lat="42.224372652180264" lon="12.178376052336978"><ele>420.0</ele><time>2026-04-29T14:43:06Z</time></trkpt><trkpt lat="42.22432081923515" lon="12.178424786065483"><ele>420.0</ele><time>2026-04-29T14:43:11Z</time></trkpt><trkpt lat="42.22426299177409" lon="12.17845986972315"><ele>420.0</ele><time>2026-04-29T14:43:17Z</time></trkpt><trkpt lat="42.22422948648694" lon="12.178538420879768"><ele>420.0</ele><time>2026-04-29T14:43:26Z</time></trkpt><trkpt lat="42.22425838089264" lon="12.17861519683817"><ele>420.0</ele><time>2026-04-29T14:43:34Z</time></trkpt><trkpt lat="42.22432499410237" lon="12.178636807478796"><ele>420.0</ele><time>2026-04-29T14:43:42Z</time></trkpt><trkpt lat="42.22438541232484" lon="12.178663601215254"><ele>420.0</ele><time>2026-04-29T14:43:48Z</time></trkpt><trkpt lat="42.224448796735885" lon="12.178684458689403"><ele>420.0</ele><time>2026-04-29T14:44:07Z</time></trkpt><trkpt lat="42.22451715113455" lon="12.178723036073228"><ele>420.0</ele><time>2026-04-29T14:44:14Z</time></trkpt><trkpt lat="42.22459967914494" lon="12.178735698221324"><ele>420.0</ele><time>2026-04-29T14:44:31Z</time></trkpt><trkpt lat="42.22464700495583" lon="12.17879925637616"><ele>420.0</ele><time>2026-04-29T14:44:40Z</time></trkpt><trkpt lat="42.22470241988551" lon="12.178869512714675"><ele>420.0</ele><time>2026-04-29T14:44:47Z</time></trkpt><trkpt lat="42.22476288401884" lon="12.17891704401164"><ele>420.0</ele><time>2026-04-29T14:44:54Z</time></trkpt><trkpt lat="42.224697730851666" lon="12.178881122247304"><ele>420.0</ele><time>2026-04-29T14:45:55Z</time></trkpt><trkpt lat="42.22465681328245" lon="12.178798641523123"><ele>420.0</ele><time>2026-04-29T14:46:01Z</time></trkpt><trkpt lat="42.22466290988038" lon="12.178696821758813"><ele>420.0</ele><time>2026-04-29T14:46:13Z</time></trkpt><trkpt lat="42.22468916258933" lon="12.178618288781083"><ele>420.0</ele><time>2026-04-29T14:46:18Z</time></trkpt><trkpt lat="42.22474177727846" lon="12.178569824973899"><ele>420.0</ele><time>2026-04-29T14:46:25Z</time></trkpt><trkpt lat="42.224733908213686" lon="12.178484974193736"><ele>420.0</ele><time>2026-04-29T14:47:17Z</time></trkpt><trkpt lat="42.224724591320815" lon="12.17839190449311"><ele>420.0</ele><time>2026-04-29T14:47:27Z</time></trkpt><trkpt lat="42.22471637959632" lon="12.1783017226125"><ele>420.0</ele><time>2026-04-29T14:47:37Z</time></trkpt><trkpt lat="42.22464798198358" lon="12.178299156221986"><ele>420.0</ele><time>2026-04-29T14:48:48Z</time></trkpt><trkpt lat="42.22457234145461" lon="12.178303609947733"><ele>420.0</ele><time>2026-04-29T14:48:55Z</time></trkpt><trkpt lat="42.224503830543746" lon="12.178318087205898"><ele>420.0</ele><time>2026-04-29T14:49:00Z</time></trkpt><trkpt lat="42.224437369300496" lon="12.178331323055168"><ele>420.0</ele><time>2026-04-29T14:50:01Z</time></trkpt><trkpt lat="42.2243729435397" lon="12.178351532540582"><ele>420.0</ele><time>2026-04-29T14:50:05Z</time></trkpt><trkpt lat="42.224311291655305" lon="12.178377585606286"><ele>420.0</ele><time>2026-04-29T14:50:06Z</time></trkpt><trkpt lat="42.2242392007775" lon="12.178396784691838"><ele>420.0</ele><time>2026-04-29T14:50:07Z</time></trkpt><trkpt lat="42.22416500375002" lon="12.17840372655329"><ele>420.0</ele><time>2026-04-29T14:50:08Z</time></trkpt><trkpt lat="42.224092139457625" lon="12.17839472562807"><ele>420.0</ele><time>2026-04-29T14:50:09Z</time></trkpt><trkpt lat="42.224019663025025" lon="12.178392482017108"><ele>420.0</ele><time>2026-04-29T14:50:10Z</time></trkpt><trkpt lat="42.22390224802368" lon="12.178391821847685"><ele>419.5</ele><time>2026-04-29T14:50:12Z</time></trkpt><trkpt lat="42.223810043034156" lon="12.17839959665514"><ele>419.0</ele><time>2026-04-29T14:50:14Z</time></trkpt><trkpt lat="42.22372951299289" lon="12.178404844094317"><ele>418.5</ele><time>2026-04-29T14:50:16Z</time></trkpt><trkpt lat="42.22364554930446" lon="12.178417821117845"><ele>418.0</ele><time>2026-04-29T14:50:18Z</time></trkpt><trkpt lat="42.22357172056925" lon="12.178435083716995"><ele>417.5</ele><time>2026-04-29T14:50:20Z</time></trkpt><trkpt lat="42.22350088187813" lon="12.17848292069531"><ele>417.0</ele><time>2026-04-29T14:50:23Z</time></trkpt><trkpt lat="42.223447815931685" lon="12.178556722323696"><ele>417.0</ele><time>2026-04-29T14:50:27Z</time></trkpt><trkpt lat="42.223453320867804" lon="12.178673148619762"><ele>417.0</ele><time>2026-04-29T14:50:29Z</time></trkpt><trkpt lat="42.22349715480861" lon="12.178759066279017"><ele>417.0</ele><time>2026-04-29T14:50:30Z</time></trkpt><trkpt lat="42.22354849245576" lon="12.178854142113911"><ele>417.0</ele><time>2026-04-29T14:50:31Z</time></trkpt><trkpt lat="42.22359744151969" lon="12.178951580785073"><ele>417.0</ele><time>2026-04-29T14:50:32Z</time></trkpt><trkpt lat="42.2236526386688" lon="12.179066181351882"><ele>417.0</ele><time>2026-04-29T14:50:33Z</time></trkpt><trkpt lat="42.22370972973946" lon="12.179190539833478"><ele>416.40000000000003</ele><time>2026-04-29T14:50:34Z</time></trkpt><trkpt lat="42.22377083513002" lon="12.179319381370519"><ele>415.8</ele><time>2026-04-29T14:50:35Z</time></trkpt><trkpt lat="42.22382960030464" lon="12.17944534627142"><ele>415.2</ele><time>2026-04-29T14:50:36Z</time></trkpt><trkpt lat="42.2238838822552" lon="12.17957114613554"><ele>414.6</ele><time>2026-04-29T14:50:37Z</time></trkpt><trkpt lat="42.22393942048513" lon="12.179692243708534"><ele>414.0</ele><time>2026-04-29T14:50:38Z</time></trkpt><trkpt lat="42.22399502824676" lon="12.179811172287794"><ele>412.4</ele><time>2026-04-29T14:50:39Z</time></trkpt><trkpt lat="42.22404758958233" lon="12.17992879036672"><ele>410.79999999999995</ele><time>2026-04-29T14:50:40Z</time></trkpt><trkpt lat="42.22409485442424" lon="12.180046835148573"><ele>409.20000000000005</ele><time>2026-04-29T14:50:41Z</time></trkpt><trkpt lat="42.22413122027445" lon="12.180169061590822"><ele>407.6</ele><time>2026-04-29T14:50:42Z</time></trkpt><trkpt lat="42.22415295101962" lon="12.180295372083528"><ele>406.0</ele><time>2026-04-29T14:50:43Z</time></trkpt><trkpt lat="42.22416404567187" lon="12.180426324802845"><ele>406.00000000000006</ele><time>2026-04-29T14:50:44Z</time></trkpt><trkpt lat="42.2241658171332" lon="12.180559477913857"><ele>406.0</ele><time>2026-04-29T14:50:45Z</time></trkpt><trkpt lat="42.22416395270529" lon="12.180680949207215"><ele>406.0</ele><time>2026-04-29T14:50:46Z</time></trkpt><trkpt lat="42.22416185890671" lon="12.180784456905162"><ele>406.0</ele><time>2026-04-29T14:50:47Z</time></trkpt><trkpt lat="42.224155587666104" lon="12.18087640133079"><ele>406.00000000000006</ele><time>2026-04-29T14:50:48Z</time></trkpt><trkpt lat="42.22414814053584" lon="12.180961762457565"><ele>406.0</ele><time>2026-04-29T14:50:49Z</time></trkpt><trkpt lat="42.22413964237363" lon="12.181126376836794"><ele>404.8</ele><time>2026-04-29T14:50:51Z</time></trkpt><trkpt lat="42.22413577756307" lon="12.18130066938321"><ele>403.6</ele><time>2026-04-29T14:50:53Z</time></trkpt><trkpt lat="42.22413280817863" lon="12.1814045766766"><ele>402.4</ele><time>2026-04-29T14:50:54Z</time></trkpt><trkpt lat="42.22413103488576" lon="12.181521556377534"><ele>401.2</ele><time>2026-04-29T14:50:55Z</time></trkpt><trkpt lat="42.22412618176384" lon="12.181647116981088"><ele>400.0</ele><time>2026-04-29T14:50:56Z</time></trkpt><trkpt lat="42.22411952991491" lon="12.181780036874637"><ele>398.8</ele><time>2026-04-29T14:50:57Z</time></trkpt><trkpt lat="42.224113484859004" lon="12.181916209722127"><ele>397.6</ele><time>2026-04-29T14:50:58Z</time></trkpt><trkpt lat="42.224106289031454" lon="12.182057975060292"><ele>396.4</ele><time>2026-04-29T14:50:59Z</time></trkpt><trkpt lat="42.224099413181214" lon="12.182197453056608"><ele>395.2</ele><time>2026-04-29T14:51:00Z</time></trkpt><trkpt lat="42.224092705615426" lon="12.182331771084488"><ele>394.0</ele><time>2026-04-29T14:51:01Z</time></trkpt><trkpt lat="42.224086616378365" lon="12.182464789974716"><ele>393.6</ele><time>2026-04-29T14:51:02Z</time></trkpt><trkpt lat="42.22408155860547" lon="12.182606994979832"><ele>393.2</ele><time>2026-04-29T14:51:03Z</time></trkpt><trkpt lat="42.22407901643091" lon="12.18274872639314"><ele>392.8</ele><time>2026-04-29T14:51:04Z</time></trkpt><trkpt lat="42.224071851602446" lon="12.182892975130413"><ele>392.40000000000003</ele><time>2026-04-29T14:51:05Z</time></trkpt><trkpt lat="42.224062279429056" lon="12.18303213043987"><ele>392.0</ele><time>2026-04-29T14:51:06Z</time></trkpt><trkpt lat="42.22405730646614" lon="12.18316983222222"><ele>392.0</ele><time>2026-04-29T14:51:07Z</time></trkpt><trkpt lat="42.22405352136929" lon="12.183313593059442"><ele>392.0</ele><time>2026-04-29T14:51:08Z</time></trkpt><trkpt lat="42.224050687743016" lon="12.183465154080686"><ele>392.0</ele><time>2026-04-29T14:51:09Z</time></trkpt><trkpt lat="42.22404520652494" lon="12.183622574275105"><ele>392.0</ele><time>2026-04-29T14:51:10Z</time></trkpt><trkpt lat="42.224035037428855" lon="12.183781835637784"><ele>392.0</ele><time>2026-04-29T14:51:11Z</time></trkpt><trkpt lat="42.22402300408071" lon="12.183936119850967"><ele>392.0</ele><time>2026-04-29T14:51:12Z</time></trkpt><trkpt lat="42.224009526214246" lon="12.184085750015443"><ele>392.0</ele><time>2026-04-29T14:51:13Z</time></trkpt><trkpt lat="42.22399077680404" lon="12.184231652297854"><ele>392.0</ele><time>2026-04-29T14:51:14Z</time></trkpt><trkpt lat="42.22396104498098" lon="12.184374854151894"><ele>392.0</ele><time>2026-04-29T14:51:15Z</time></trkpt><trkpt lat="42.22391479009888" lon="12.184516604312506"><ele>391.20000000000005</ele><time>2026-04-29T14:51:16Z</time></trkpt><trkpt lat="42.22386463867114" lon="12.184652053965333"><ele>390.4</ele><time>2026-04-29T14:51:17Z</time></trkpt><trkpt lat="42.223812734691144" lon="12.184783727935512"><ele>389.6</ele><time>2026-04-29T14:51:18Z</time></trkpt><trkpt lat="42.223751559216076" lon="12.184923028186393"><ele>388.79999999999995</ele><time>2026-04-29T14:51:19Z</time></trkpt><trkpt lat="42.22369442797852" lon="12.185043466018465"><ele>388.0</ele><time>2026-04-29T14:51:20Z</time></trkpt><trkpt lat="42.22364782172916" lon="12.185141555783254"><ele>387.0</ele><time>2026-04-29T14:51:21Z</time></trkpt><trkpt lat="42.2236090415118" lon="12.185229276981756"><ele>386.0</ele><time>2026-04-29T14:51:22Z</time></trkpt><trkpt lat="42.22356987852924" lon="12.185318600674401"><ele>385.0</ele><time>2026-04-29T14:51:23Z</time></trkpt><trkpt lat="42.22352244224509" lon="12.185418594633258"><ele>384.0</ele><time>2026-04-29T14:51:24Z</time></trkpt><trkpt lat="42.22346734408975" lon="12.185539739434569"><ele>383.0</ele><time>2026-04-29T14:51:25Z</time></trkpt><trkpt lat="42.223406864542916" lon="12.185671438922988"><ele>382.25</ele><time>2026-04-29T14:51:26Z</time></trkpt><trkpt lat="42.22334618006931" lon="12.185800594838271"><ele>381.5</ele><time>2026-04-29T14:51:27Z</time></trkpt><trkpt lat="42.22328106527306" lon="12.18593778712097"><ele>380.75</ele><time>2026-04-29T14:51:28Z</time></trkpt><trkpt lat="42.22321229533046" lon="12.18608055594958"><ele>380.0</ele><time>2026-04-29T14:51:29Z</time></trkpt><trkpt lat="42.223142072429525" lon="12.186226899200593"><ele>379.25</ele><time>2026-04-29T14:51:30Z</time></trkpt><trkpt lat="42.22307308671596" lon="12.18637728263618"><ele>378.5</ele><time>2026-04-29T14:51:31Z</time></trkpt><trkpt lat="42.223002281156795" lon="12.186527186116798"><ele>377.75</ele><time>2026-04-29T14:51:32Z</time></trkpt><trkpt lat="42.222931103690456" lon="12.186676614749562"><ele>377.0</ele><time>2026-04-29T14:51:33Z</time></trkpt><trkpt lat="42.22286102424533" lon="12.186829431829182"><ele>376.5</ele><time>2026-04-29T14:51:34Z</time></trkpt><trkpt lat="42.22279303259012" lon="12.186979322879862"><ele>376.0</ele><time>2026-04-29T14:51:35Z</time></trkpt><trkpt lat="42.22272986608834" lon="12.187121200638629"><ele>375.5</ele><time>2026-04-29T14:51:36Z</time></trkpt><trkpt lat="42.222668903720155" lon="12.187255982316282"><ele>375.0</ele><time>2026-04-29T14:51:37Z</time></trkpt><trkpt lat="42.222609638688716" lon="12.187386707591578"><ele>374.8</ele><time>2026-04-29T14:51:38Z</time></trkpt><trkpt lat="42.222550626600736" lon="12.187520151847645"><ele>374.6</ele><time>2026-04-29T14:51:39Z</time></trkpt><trkpt lat="42.2224931341632" lon="12.187643208969911"><ele>374.4</ele><time>2026-04-29T14:51:40Z</time></trkpt><trkpt lat="42.222439380092965" lon="12.187758959716769"><ele>374.2</ele><time>2026-04-29T14:51:41Z</time></trkpt><trkpt lat="42.222390501402316" lon="12.187863558071559"><ele>374.0</ele><time>2026-04-29T14:51:42Z</time></trkpt><trkpt lat="42.222344990246015" lon="12.18796017120265"><ele>373.57142857142856</ele><time>2026-04-29T14:51:43Z</time></trkpt><trkpt lat="42.22230524541891" lon="12.188044595499091"><ele>373.14285714285717</ele><time>2026-04-29T14:51:44Z</time></trkpt><trkpt lat="42.22226737225075" lon="12.18812704818229"><ele>372.7142857142857</ele><time>2026-04-29T14:51:45Z</time></trkpt><trkpt lat="42.22223159116307" lon="12.188203425823025"><ele>372.2857142857143</ele><time>2026-04-29T14:51:46Z</time></trkpt><trkpt lat="42.222188159246116" lon="12.188284188839374"><ele>371.8571428571429</ele><time>2026-04-29T14:51:47Z</time></trkpt><trkpt lat="42.222142713046345" lon="12.188369662109492"><ele>371.42857142857144</ele><time>2026-04-29T14:51:48Z</time></trkpt><trkpt lat="42.22209974976526" lon="12.188462942805888"><ele>371.0</ele><time>2026-04-29T14:51:49Z</time></trkpt><trkpt lat="42.22206048409379" lon="12.18854997841236"><ele>371.0</ele><time>2026-04-29T14:51:50Z</time></trkpt><trkpt lat="42.22202422639981" lon="12.188629674407423"><ele>371.0</ele><time>2026-04-29T14:51:51Z</time></trkpt><trkpt lat="42.221991275786685" lon="12.1887024098923"><ele>371.0</ele><time>2026-04-29T14:51:52Z</time></trkpt><trkpt lat="42.22193848998404" lon="12.188835869032152"><ele>371.0</ele><time>2026-04-29T14:51:54Z</time></trkpt><trkpt lat="42.22192316503374" lon="12.188975600291236"><ele>371.0</ele><time>2026-04-29T14:51:56Z</time></trkpt><trkpt lat="42.22192307782475" lon="12.189102839192405"><ele>371.0</ele><time>2026-04-29T14:51:58Z</time></trkpt><trkpt lat="42.22193077643571" lon="12.189209320638387"><ele>371.0</ele><time>2026-04-29T14:52:00Z</time></trkpt><trkpt lat="42.22183055652574" lon="12.18925801618058"><ele>371.0</ele><time>2026-04-29T14:52:02Z</time></trkpt><trkpt lat="42.22172184986507" lon="12.189209660909606"><ele>371.0</ele><time>2026-04-29T14:52:04Z</time></trkpt><trkpt lat="42.22163312394886" lon="12.189183025228061"><ele>371.0</ele><time>2026-04-29T14:52:06Z</time></trkpt><trkpt lat="42.22159278132288" lon="12.189061083616481"><ele>371.0</ele><time>2026-04-29T14:52:11Z</time></trkpt><trkpt lat="42.221581688505886" lon="12.188975626700875"><ele>371.0</ele><time>2026-04-29T14:52:47Z</time></trkpt><trkpt lat="42.22168687612212" lon="12.188917705541156"><ele>371.0</ele><time>2026-04-29T14:53:01Z</time></trkpt><trkpt lat="42.22174096054032" lon="12.188967033493002"><ele>371.0</ele><time>2026-04-29T14:53:18Z</time></trkpt><trkpt lat="42.22171156743376" lon="12.189044078911282"><ele>371.0</ele><time>2026-04-29T14:53:34Z</time></trkpt><trkpt lat="42.221863230111104" lon="12.189055570214032"><ele>371.0</ele><time>2026-04-29T14:55:12Z</time></trkpt><trkpt lat="42.22180450476569" lon="12.189015595931707"><ele>371.0</ele><time>2026-04-29T14:56:07Z</time></trkpt><trkpt lat="42.22175282346654" lon="12.188952550779515"><ele>371.0</ele><time>2026-04-29T14:56:14Z</time></trkpt><trkpt lat="42.22169679906284" lon="12.188907376159328"><ele>371.0</ele><time>2026-04-29T14:56:25Z</time></trkpt><trkpt lat="42.22165260629552" lon="12.188988543121255"><ele>371.0</ele><time>2026-04-29T14:57:03Z</time></trkpt><trkpt lat="42.22156768693077" lon="12.18898145651327"><ele>371.0</ele><time>2026-04-29T14:57:41Z</time></trkpt><trkpt lat="42.22155482109211" lon="12.189091476913712"><ele>371.0</ele><time>2026-04-29T14:57:43Z</time></trkpt><trkpt lat="42.22157983568047" lon="12.18918467444469"><ele>371.57142857142856</ele><time>2026-04-29T14:57:45Z</time></trkpt><trkpt lat="42.221540184443334" lon="12.189272270369646"><ele>372.1428571428571</ele><time>2026-04-29T14:58:10Z</time></trkpt><trkpt lat="42.22147556093557" lon="12.189305740544107"><ele>372.7142857142857</ele><time>2026-04-29T14:58:11Z</time></trkpt><trkpt lat="42.22140726671401" lon="12.189339321958302"><ele>373.2857142857143</ele><time>2026-04-29T14:58:12Z</time></trkpt><trkpt lat="42.22133586233484" lon="12.18938532691545"><ele>373.85714285714283</ele><time>2026-04-29T14:58:13Z</time></trkpt><trkpt lat="42.2212684515096" lon="12.18943231145329"><ele>374.42857142857144</ele><time>2026-04-29T14:58:14Z</time></trkpt><trkpt lat="42.22119525115309" lon="12.189455203334917"><ele>375.0</ele><time>2026-04-29T14:58:15Z</time></trkpt><trkpt lat="42.22113366152409" lon="12.189495958785407"><ele>373.1666666666667</ele><time>2026-04-29T14:58:16Z</time></trkpt><trkpt lat="42.22107450066467" lon="12.189534962876554"><ele>371.3333333333333</ele><time>2026-04-29T14:58:17Z</time></trkpt><trkpt lat="42.2210150156095" lon="12.189574180711515"><ele>369.5</ele><time>2026-04-29T14:58:18Z</time></trkpt><trkpt lat="42.22094320392939" lon="12.189621525348139"><ele>367.66666666666663</ele><time>2026-04-29T14:58:19Z</time></trkpt><trkpt lat="42.220865869280935" lon="12.189672511216122"><ele>365.8333333333333</ele><time>2026-04-29T14:58:20Z</time></trkpt><trkpt lat="42.22078297627216" lon="12.189727161649053"><ele>364.0</ele><time>2026-04-29T14:58:21Z</time></trkpt><trkpt lat="42.22069760626043" lon="12.189783445143913"><ele>364.0</ele><time>2026-04-29T14:58:22Z</time></trkpt><trkpt lat="42.22061633333928" lon="12.189836102959"><ele>364.0</ele><time>2026-04-29T14:58:23Z</time></trkpt><trkpt lat="42.220535670637005" lon="12.189887521525796"><ele>364.0</ele><time>2026-04-29T14:58:24Z</time></trkpt><trkpt lat="42.22045098098337" lon="12.189941507079363"><ele>364.0</ele><time>2026-04-29T14:58:25Z</time></trkpt><trkpt lat="42.22036137323173" lon="12.18999843221667"><ele>364.0</ele><time>2026-04-29T14:58:26Z</time></trkpt><trkpt lat="42.22026881926801" lon="12.190056856656105"><ele>364.0</ele><time>2026-04-29T14:58:27Z</time></trkpt><trkpt lat="42.22016945918401" lon="12.190120169209273"><ele>364.0</ele><time>2026-04-29T14:58:28Z</time></trkpt><trkpt lat="42.22006939768705" lon="12.19018346814466"><ele>364.0</ele><time>2026-04-29T14:58:29Z</time></trkpt><trkpt lat="42.219968911920226" lon="12.1902457352197"><ele>364.0</ele><time>2026-04-29T14:58:30Z</time></trkpt><trkpt lat="42.219860854807635" lon="12.190313086345002"><ele>361.5</ele><time>2026-04-29T14:58:31Z</time></trkpt><trkpt lat="42.21974882914823" lon="12.190383191618588"><ele>359.0</ele><time>2026-04-29T14:58:32Z</time></trkpt><trkpt lat="42.219638765854896" lon="12.190475483509836"><ele>356.5</ele><time>2026-04-29T14:58:33Z</time></trkpt><trkpt lat="42.2195213005562" lon="12.190545393546369"><ele>354.0</ele><time>2026-04-29T14:58:34Z</time></trkpt><trkpt lat="42.21940175314266" lon="12.190615448735635"><ele>355.0</ele><time>2026-04-29T14:58:35Z</time></trkpt><trkpt lat="42.219291599519494" lon="12.190685575664036"><ele>356.0</ele><time>2026-04-29T14:58:36Z</time></trkpt><trkpt lat="42.21917997677853" lon="12.190760697962613"><ele>357.0</ele><time>2026-04-29T14:58:37Z</time></trkpt><trkpt lat="42.21906133517185" lon="12.190812499674845"><ele>358.0</ele><time>2026-04-29T14:58:38Z</time></trkpt><trkpt lat="42.21895459420383" lon="12.190880593051498"><ele>360.8333333333333</ele><time>2026-04-29T14:58:39Z</time></trkpt><trkpt lat="42.21885175866044" lon="12.19094574499182"><ele>363.66666666666663</ele><time>2026-04-29T14:58:40Z</time></trkpt><trkpt lat="42.21876547282991" lon="12.191001798479572"><ele>366.5</ele><time>2026-04-29T14:58:41Z</time></trkpt><trkpt lat="42.21869372599588" lon="12.191056128591287"><ele>369.3333333333333</ele><time>2026-04-29T14:58:42Z</time></trkpt><trkpt lat="42.21864109129186" lon="12.191126787054948"><ele>372.1666666666667</ele><time>2026-04-29T14:58:43Z</time></trkpt><trkpt lat="42.21862534378921" lon="12.191218582159165"><ele>375.0</ele><time>2026-04-29T14:58:44Z</time></trkpt><trkpt lat="42.218563209836866" lon="12.191315903840806"><ele>375.0</ele><time>2026-04-29T14:58:46Z</time></trkpt><trkpt lat="42.21852177582176" lon="12.191412367412704"><ele>375.0</ele><time>2026-04-29T14:58:48Z</time></trkpt><trkpt lat="42.2184808565318" lon="12.19151464238426"><ele>375.0</ele><time>2026-04-29T14:58:50Z</time></trkpt><trkpt lat="42.218439345867594" lon="12.191628505582527"><ele>375.0</ele><time>2026-04-29T14:58:52Z</time></trkpt><trkpt lat="42.218398878955114" lon="12.191740672254756"><ele>375.0</ele><time>2026-04-29T14:58:54Z</time></trkpt><trkpt lat="42.218352499151436" lon="12.191847031556234"><ele>375.0</ele><time>2026-04-29T14:58:56Z</time></trkpt><trkpt lat="42.21829234730908" lon="12.191928026672661"><ele>373.2</ele><time>2026-04-29T14:58:58Z</time></trkpt><trkpt lat="42.218210572681805" lon="12.191950966416773"><ele>371.4</ele><time>2026-04-29T14:59:00Z</time></trkpt><trkpt lat="42.21812958102304" lon="12.19200409363569"><ele>369.6</ele><time>2026-04-29T14:59:02Z</time></trkpt><trkpt lat="42.21803788145486" lon="12.192065477827537"><ele>367.8</ele><time>2026-04-29T14:59:04Z</time></trkpt><trkpt lat="42.217954130823195" lon="12.192119504527557"><ele>366.0</ele><time>2026-04-29T14:59:06Z</time></trkpt><trkpt lat="42.21787410501441" lon="12.19214389298925"><ele>366.0</ele><time>2026-04-29T14:59:09Z</time></trkpt><trkpt lat="42.21790768397231" lon="12.192295680966794"><ele>366.0</ele><time>2026-04-29T14:59:11Z</time></trkpt><trkpt lat="42.21794440905118" lon="12.19240805232388"><ele>366.0</ele><time>2026-04-29T14:59:13Z</time></trkpt><trkpt lat="42.21797370240567" lon="12.192521673131113"><ele>366.0</ele><time>2026-04-29T14:59:15Z</time></trkpt><trkpt lat="42.21801457743154" lon="12.192641864605742"><ele>366.0</ele><time>2026-04-29T14:59:17Z</time></trkpt><trkpt lat="42.218055322829656" lon="12.192766873006413"><ele>365.20000000000005</ele><time>2026-04-29T14:59:19Z</time></trkpt><trkpt lat="42.21809379315955" lon="12.192914092592948"><ele>364.40000000000003</ele><time>2026-04-29T14:59:21Z</time></trkpt><trkpt lat="42.218124246082965" lon="12.193056474338121"><ele>363.6</ele><time>2026-04-29T14:59:23Z</time></trkpt><trkpt lat="42.21818354069105" lon="12.19315085636635"><ele>362.8</ele><time>2026-04-29T14:59:25Z</time></trkpt><trkpt lat="42.21825503970788" lon="12.193240546840473"><ele>362.0</ele><time>2026-04-29T14:59:27Z</time></trkpt><trkpt lat="42.21832869373818" lon="12.193252667813097"><ele>360.5</ele><time>2026-04-29T14:59:28Z</time></trkpt><trkpt lat="42.218386661459384" lon="12.193312392334624"><ele>359.0</ele><time>2026-04-29T14:59:29Z</time></trkpt><trkpt lat="42.21845403861774" lon="12.193363619757076"><ele>357.5</ele><time>2026-04-29T14:59:30Z</time></trkpt><trkpt lat="42.2185309063041" lon="12.193394979217413"><ele>356.0</ele><time>2026-04-29T14:59:31Z</time></trkpt><trkpt lat="42.2185918117878" lon="12.193473398366043"><ele>354.5</ele><time>2026-04-29T14:59:32Z</time></trkpt><trkpt lat="42.218648272126025" lon="12.193559625387238"><ele>353.0</ele><time>2026-04-29T14:59:33Z</time></trkpt><trkpt lat="42.218700871329325" lon="12.19365288925865"><ele>353.0</ele><time>2026-04-29T14:59:34Z</time></trkpt><trkpt lat="42.2187518797743" lon="12.19374908031784"><ele>353.0</ele><time>2026-04-29T14:59:35Z</time></trkpt><trkpt lat="42.21880339639375" lon="12.193830046113568"><ele>353.0</ele><time>2026-04-29T14:59:36Z</time></trkpt><trkpt lat="42.21884859265715" lon="12.193911776855593"><ele>353.0</ele><time>2026-04-29T14:59:37Z</time></trkpt><trkpt lat="42.21889232434846" lon="12.194038046788542"><ele>353.0</ele><time>2026-04-29T14:59:39Z</time></trkpt><trkpt lat="42.21900416689935" lon="12.194091264144934"><ele>352.79999999999995</ele><time>2026-04-29T14:59:42Z</time></trkpt><trkpt lat="42.2191135400773" lon="12.194042032564349"><ele>352.6</ele><time>2026-04-29T14:59:44Z</time></trkpt><trkpt lat="42.21921685308488" lon="12.193975108316636"><ele>352.4</ele><time>2026-04-29T14:59:46Z</time></trkpt><trkpt lat="42.219207847088285" lon="12.193821226028685"><ele>352.20000000000005</ele><time>2026-04-29T14:59:51Z</time></trkpt><trkpt lat="42.21912764550267" lon="12.193861532097147"><ele>352.0</ele><time>2026-04-29T14:59:52Z</time></trkpt><trkpt lat="42.21906166107872" lon="12.193873694392323"><ele>352.0</ele><time>2026-04-29T14:59:54Z</time></trkpt><trkpt lat="42.219007159140546" lon="12.193820072631965"><ele>352.0</ele><time>2026-04-29T14:59:56Z</time></trkpt><trkpt lat="42.21896081261382" lon="12.193724716432438"><ele>352.0</ele><time>2026-04-29T14:59:58Z</time></trkpt><trkpt lat="42.218903829792154" lon="12.193651092553475"><ele>352.0</ele><time>2026-04-29T15:00:07Z</time></trkpt><trkpt lat="42.21886696480665" lon="12.193542685366046"><ele>352.0</ele><time>2026-04-29T15:00:09Z</time></trkpt><trkpt lat="42.218833755915895" lon="12.193431239912321"><ele>352.0</ele><time>2026-04-29T15:00:11Z</time></trkpt><trkpt lat="42.21879098192646" lon="12.193355505235937"><ele>352.16666666666663</ele><time>2026-04-29T15:00:13Z</time></trkpt><trkpt lat="42.21872040582902" lon="12.19329369995447"><ele>352.3333333333333</ele><time>2026-04-29T15:00:25Z</time></trkpt><trkpt lat="42.21865685966446" lon="12.193216814074997"><ele>352.5</ele><time>2026-04-29T15:00:27Z</time></trkpt><trkpt lat="42.218605268651615" lon="12.19312900647009"><ele>352.6666666666667</ele><time>2026-04-29T15:00:29Z</time></trkpt><trkpt lat="42.21856539568838" lon="12.193052573600061"><ele>352.83333333333337</ele><time>2026-04-29T15:00:31Z</time></trkpt><trkpt lat="42.21852388248519" lon="12.192973853207224"><ele>353.0</ele><time>2026-04-29T15:00:33Z</time></trkpt><trkpt lat="42.21847197643011" lon="12.192876413842505"><ele>354.2857142857143</ele><time>2026-04-29T15:00:36Z</time></trkpt><trkpt lat="42.218431951355434" lon="12.192801277755626"><ele>355.5714285714286</ele><time>2026-04-29T15:00:39Z</time></trkpt><trkpt lat="42.21839198667315" lon="12.192726255035408"><ele>356.8571428571429</ele><time>2026-04-29T15:00:42Z</time></trkpt><trkpt lat="42.2183615716524" lon="12.192649864016289"><ele>358.1428571428571</ele><time>2026-04-29T15:00:45Z</time></trkpt><trkpt lat="42.218298715719946" lon="12.192705919207743"><ele>359.42857142857144</ele><time>2026-04-29T15:01:03Z</time></trkpt><trkpt lat="42.2182348223796" lon="12.192722631412177"><ele>360.7142857142857</ele><time>2026-04-29T15:01:05Z</time></trkpt><trkpt lat="42.218167818212336" lon="12.192757835431614"><ele>362.0</ele><time>2026-04-29T15:01:09Z</time></trkpt><trkpt lat="42.21822106440999" lon="12.192709218531064"><ele>362.0</ele><time>2026-04-29T15:02:51Z</time></trkpt><trkpt lat="42.21828512158207" lon="12.19265836601038"><ele>362.0</ele><time>2026-04-29T15:03:03Z</time></trkpt><trkpt lat="42.218233806488755" lon="12.192718260440204"><ele>362.0</ele><time>2026-04-29T15:04:16Z</time></trkpt><trkpt lat="42.218172992695635" lon="12.192743558480775"><ele>362.0</ele><time>2026-04-29T15:04:22Z</time></trkpt><trkpt lat="42.21810245087242" lon="12.192796064484995"><ele>362.0</ele><time>2026-04-29T15:07:47Z</time></trkpt><trkpt lat="42.21808486760799" lon="12.192687653541682"><ele>362.0</ele><time>2026-04-29T15:07:50Z</time></trkpt><trkpt lat="42.21807148508051" lon="12.192591433467818"><ele>362.0</ele><time>2026-04-29T15:07:52Z</time></trkpt><trkpt lat="42.218053875268154" lon="12.192497741596204"><ele>360.20000000000005</ele><time>2026-04-29T15:07:54Z</time></trkpt><trkpt lat="42.21795377187912" lon="12.19250025569899"><ele>358.4</ele><time>2026-04-29T15:07:58Z</time></trkpt><trkpt lat="42.21792353647648" lon="12.19258518787468"><ele>356.6</ele><time>2026-04-29T15:08:01Z</time></trkpt><trkpt lat="42.218018707590666" lon="12.192757533201418"><ele>354.79999999999995</ele><time>2026-04-29T15:08:04Z</time></trkpt><trkpt lat="42.21803650228671" lon="12.192897073912146"><ele>353.0</ele><time>2026-04-29T15:08:06Z</time></trkpt><trkpt lat="42.21807893830199" lon="12.193019257112786"><ele>353.0</ele><time>2026-04-29T15:08:08Z</time></trkpt><trkpt lat="42.21813467310557" lon="12.193135615038578"><ele>353.0</ele><time>2026-04-29T15:08:10Z</time></trkpt><trkpt lat="42.218206707627324" lon="12.193213477279848"><ele>353.0</ele><time>2026-04-29T15:08:13Z</time></trkpt><trkpt lat="42.21829739019067" lon="12.193277466734292"><ele>353.0</ele><time>2026-04-29T15:08:15Z</time></trkpt><trkpt lat="42.21836478051647" lon="12.193321454441291"><ele>353.0</ele><time>2026-04-29T15:08:16Z</time></trkpt><trkpt lat="42.21843261162111" lon="12.193373064698557"><ele>353.0</ele><time>2026-04-29T15:08:17Z</time></trkpt><trkpt lat="42.21848603348284" lon="12.19344781104901"><ele>353.0</ele><time>2026-04-29T15:08:18Z</time></trkpt><trkpt lat="42.21853772046698" lon="12.193514302613455"><ele>353.0</ele><time>2026-04-29T15:08:19Z</time></trkpt><trkpt lat="42.218586609182985" lon="12.193582222459776"><ele>353.0</ele><time>2026-04-29T15:08:20Z</time></trkpt><trkpt lat="42.21863638883944" lon="12.193661275296563"><ele>353.0</ele><time>2026-04-29T15:08:21Z</time></trkpt><trkpt lat="42.21868660069949" lon="12.193734076441045"><ele>353.0</ele><time>2026-04-29T15:08:22Z</time></trkpt><trkpt lat="42.21874959834463" lon="12.193791540159358"><ele>353.0</ele><time>2026-04-29T15:08:23Z</time></trkpt><trkpt lat="42.21877682626213" lon="12.193873728334005"><ele>353.0</ele><time>2026-04-29T15:08:24Z</time></trkpt><trkpt lat="42.21882042042514" lon="12.193940084184888"><ele>353.0</ele><time>2026-04-29T15:08:25Z</time></trkpt><trkpt lat="42.218853007096804" lon="12.19401758412819"><ele>353.0</ele><time>2026-04-29T15:08:26Z</time></trkpt><trkpt lat="42.21889607649101" lon="12.194093151233503"><ele>353.0</ele><time>2026-04-29T15:08:28Z</time></trkpt><trkpt lat="42.21895826346838" lon="12.194211689209887"><ele>353.0</ele><time>2026-04-29T15:08:31Z</time></trkpt><trkpt lat="42.21906417594024" lon="12.194079139204844"><ele>352.1666666666667</ele><time>2026-04-29T15:08:32Z</time></trkpt><trkpt lat="42.219165790543364" lon="12.194037140015999"><ele>351.33333333333337</ele><time>2026-04-29T15:08:34Z</time></trkpt><trkpt lat="42.21923619782324" lon="12.19400861726195"><ele>350.5</ele><time>2026-04-29T15:08:36Z</time></trkpt><trkpt lat="42.21927855639511" lon="12.194109707185751"><ele>349.6666666666667</ele><time>2026-04-29T15:08:38Z</time></trkpt><trkpt lat="42.219300994740415" lon="12.19419776741828"><ele>348.8333333333333</ele><time>2026-04-29T15:08:40Z</time></trkpt><trkpt lat="42.2193410482376" lon="12.194275298382898"><ele>348.0</ele><time>2026-04-29T15:08:41.999Z</time></trkpt><trkpt lat="42.21938186308638" lon="12.194355109853369"><ele>348.0</ele><time>2026-04-29T15:08:44Z</time></trkpt><trkpt lat="42.21943120583987" lon="12.194459022848779"><ele>348.0</ele><time>2026-04-29T15:08:47Z</time></trkpt><trkpt lat="42.219481624319556" lon="12.19458486434724"><ele>348.0</ele><time>2026-04-29T15:08:50Z</time></trkpt><trkpt lat="42.21952330174931" lon="12.194691170723075"><ele>348.0</ele><time>2026-04-29T15:08:52Z</time></trkpt><trkpt lat="42.21957149335754" lon="12.194802842378412"><ele>348.0</ele><time>2026-04-29T15:08:54Z</time></trkpt><trkpt lat="42.21961689305063" lon="12.194906359358276"><ele>346.3333333333333</ele><time>2026-04-29T15:08:56Z</time></trkpt><trkpt lat="42.219654164826494" lon="12.194977387382604"><ele>344.6666666666667</ele><time>2026-04-29T15:08:58Z</time></trkpt><trkpt lat="42.21969563919624" lon="12.195049320527943"><ele>343.0</ele><time>2026-04-29T15:09:02Z</time></trkpt><trkpt lat="42.219742762113654" lon="12.1951076310997"><ele>341.33333333333337</ele><time>2026-04-29T15:11:03Z</time></trkpt><trkpt lat="42.21979081942173" lon="12.19516537159357"><ele>339.6666666666667</ele><time>2026-04-29T15:11:17Z</time></trkpt><trkpt lat="42.21976379312695" lon="12.195088105106976"><ele>338.0</ele><time>2026-04-29T15:12:31Z</time></trkpt><trkpt lat="42.2196407950381" lon="12.194860464126474"><ele>340.0</ele><time>2026-04-29T15:18:16Z</time></trkpt><trkpt lat="42.21959985321943" lon="12.194738874607951"><ele>342.0</ele><time>2026-04-29T15:18:18Z</time></trkpt><trkpt lat="42.219552913802424" lon="12.194626764912089"><ele>344.0</ele><time>2026-04-29T15:18:20Z</time></trkpt><trkpt lat="42.21950294589987" lon="12.194492390145374"><ele>346.0</ele><time>2026-04-29T15:18:22Z</time></trkpt><trkpt lat="42.219453486884625" lon="12.194365874041699"><ele>348.0</ele><time>2026-04-29T15:18:24Z</time></trkpt><trkpt lat="42.219409840300266" lon="12.194244513789043"><ele>348.0</ele><time>2026-04-29T15:18:26Z</time></trkpt><trkpt lat="42.21935559412581" lon="12.194113489100829"><ele>348.0</ele><time>2026-04-29T15:18:28Z</time></trkpt><trkpt lat="42.21932298099772" lon="12.193984903352241"><ele>348.0</ele><time>2026-04-29T15:18:30Z</time></trkpt><trkpt lat="42.21923080440859" lon="12.193940056446632"><ele>348.0</ele><time>2026-04-29T15:18:34Z</time></trkpt><trkpt lat="42.219156017944584" lon="12.193931258042536"><ele>348.0</ele><time>2026-04-29T15:18:36Z</time></trkpt><trkpt lat="42.21906587867432" lon="12.194011113703853"><ele>348.0</ele><time>2026-04-29T15:18:38Z</time></trkpt><trkpt lat="42.218995141507754" lon="12.194075970583107"><ele>348.0</ele><time>2026-04-29T15:18:40Z</time></trkpt><trkpt lat="42.21891644532559" lon="12.193986659628173"><ele>348.0</ele><time>2026-04-29T15:18:43Z</time></trkpt><trkpt lat="42.21885009827796" lon="12.193868108334538"><ele>348.0</ele><time>2026-04-29T15:18:45Z</time></trkpt><trkpt lat="42.21881034125605" lon="12.193790621566643"><ele>348.0</ele><time>2026-04-29T15:18:46Z</time></trkpt><trkpt lat="42.218753218255124" lon="12.193716944305729"><ele>348.0</ele><time>2026-04-29T15:18:47Z</time></trkpt><trkpt lat="42.21871348923666" lon="12.193611975977742"><ele>349.0</ele><time>2026-04-29T15:18:48Z</time></trkpt><trkpt lat="42.218661265236015" lon="12.19352152469927"><ele>350.0</ele><time>2026-04-29T15:18:49Z</time></trkpt><trkpt lat="42.21859964657945" lon="12.193422775684859"><ele>351.0</ele><time>2026-04-29T15:18:50Z</time></trkpt><trkpt lat="42.21852574572988" lon="12.193331237138146"><ele>352.0</ele><time>2026-04-29T15:18:51Z</time></trkpt><trkpt lat="42.218434855896405" lon="12.193265849938157"><ele>353.0</ele><time>2026-04-29T15:18:52Z</time></trkpt><trkpt lat="42.218349752517916" lon="12.193217553910854"><ele>353.0</ele><time>2026-04-29T15:18:53Z</time></trkpt><trkpt lat="42.218276885353625" lon="12.193170918458849"><ele>353.0</ele><time>2026-04-29T15:18:54Z</time></trkpt><trkpt lat="42.218218217100336" lon="12.19313121832813"><ele>353.0</ele><time>2026-04-29T15:18:55Z</time></trkpt><trkpt lat="42.21814703644094" lon="12.193036308823828"><ele>353.0</ele><time>2026-04-29T15:18:57Z</time></trkpt><trkpt lat="42.21810707620288" lon="12.19289528424704"><ele>353.0</ele><time>2026-04-29T15:18:59Z</time></trkpt><trkpt lat="42.21806975513151" lon="12.192750868527595"><ele>353.0</ele><time>2026-04-29T15:19:01Z</time></trkpt><trkpt lat="42.21802976553958" lon="12.192590959849221"><ele>353.0</ele><time>2026-04-29T15:19:03Z</time></trkpt><trkpt lat="42.21799182879038" lon="12.192500556996647"><ele>353.0</ele><time>2026-04-29T15:19:05Z</time></trkpt><trkpt lat="42.21802275523539" lon="12.192624110817153"><ele>353.0</ele><time>2026-04-29T15:19:11Z</time></trkpt><trkpt lat="42.21806778155745" lon="12.192780469298079"><ele>353.0</ele><time>2026-04-29T15:19:13Z</time></trkpt><trkpt lat="42.218098659840194" lon="12.192868494584808"><ele>354.5</ele><time>2026-04-29T15:19:15Z</time></trkpt><trkpt lat="42.21816403772782" lon="12.192862568071593"><ele>356.0</ele><time>2026-04-29T15:19:17Z</time></trkpt><trkpt lat="42.218241862841346" lon="12.19282740443971"><ele>357.5</ele><time>2026-04-29T15:19:19Z</time></trkpt><trkpt lat="42.218308473320285" lon="12.192788316088706"><ele>359.0</ele><time>2026-04-29T15:19:22Z</time></trkpt><trkpt lat="42.21832468951703" lon="12.19266059085557"><ele>360.5</ele><time>2026-04-29T15:20:02Z</time></trkpt><trkpt lat="42.218314744675574" lon="12.192572563625518"><ele>362.0</ele><time>2026-04-29T15:20:04Z</time></trkpt><trkpt lat="42.218238326200876" lon="12.19262017239548"><ele>362.0</ele><time>2026-04-29T15:21:35Z</time></trkpt><trkpt lat="42.21836204336071" lon="12.192795604122201"><ele>362.0</ele><time>2026-04-29T15:24:18Z</time></trkpt><trkpt lat="42.21840226339408" lon="12.192865653742126"><ele>362.0</ele><time>2026-04-29T15:27:36Z</time></trkpt><trkpt lat="42.21845842374558" lon="12.192949246661723"><ele>362.0</ele><time>2026-04-29T15:27:40Z</time></trkpt><trkpt lat="42.21853406740385" lon="12.193024119116044"><ele>362.0</ele><time>2026-04-29T15:27:43Z</time></trkpt><trkpt lat="42.21858408787631" lon="12.193102437873065"><ele>360.5</ele><time>2026-04-29T15:27:45Z</time></trkpt><trkpt lat="42.21863740464262" lon="12.193179259948751"><ele>359.0</ele><time>2026-04-29T15:27:47Z</time></trkpt><trkpt lat="42.21869934044574" lon="12.19324197440478"><ele>357.5</ele><time>2026-04-29T15:27:49Z</time></trkpt><trkpt lat="42.21873468887134" lon="12.193324890237431"><ele>356.0</ele><time>2026-04-29T15:28:30Z</time></trkpt><trkpt lat="42.21878390023021" lon="12.193409869994621"><ele>354.5</ele><time>2026-04-29T15:28:32Z</time></trkpt><trkpt lat="42.218811858712826" lon="12.193511903616159"><ele>353.0</ele><time>2026-04-29T15:28:34Z</time></trkpt><trkpt lat="42.218866545861616" lon="12.193584081401573"><ele>353.0</ele><time>2026-04-29T15:28:36Z</time></trkpt><trkpt lat="42.21889292709923" lon="12.19368232709179"><ele>353.0</ele><time>2026-04-29T15:28:38Z</time></trkpt><trkpt lat="42.21892358138141" lon="12.193778626772895"><ele>353.0</ele><time>2026-04-29T15:28:40Z</time></trkpt><trkpt lat="42.21897722121421" lon="12.193886087428748"><ele>353.0</ele><time>2026-04-29T15:28:43Z</time></trkpt><trkpt lat="42.21904084857599" lon="12.193944151083057"><ele>353.0</ele><time>2026-04-29T15:28:45Z</time></trkpt><trkpt lat="42.219115103591" lon="12.193933158403336"><ele>353.0</ele><time>2026-04-29T15:28:47Z</time></trkpt><trkpt lat="42.21918529893779" lon="12.193874748610005"><ele>352.79999999999995</ele><time>2026-04-29T15:28:49Z</time></trkpt><trkpt lat="42.21920400943328" lon="12.193990572176844"><ele>352.6</ele><time>2026-04-29T15:28:52Z</time></trkpt><trkpt lat="42.21911745214005" lon="12.193989316137069"><ele>352.4</ele><time>2026-04-29T15:28:54Z</time></trkpt><trkpt lat="42.219048766014936" lon="12.194018061179193"><ele>352.20000000000005</ele><time>2026-04-29T15:28:56Z</time></trkpt><trkpt lat="42.21896010513048" lon="12.194017194365166"><ele>352.0</ele><time>2026-04-29T15:28:59Z</time></trkpt><trkpt lat="42.21905503860221" lon="12.194410252926325"><ele>351.3333333333333</ele><time>2026-04-29T15:29:09Z</time></trkpt><trkpt lat="42.21912488081608" lon="12.1945033322593"><ele>350.66666666666663</ele><time>2026-04-29T15:29:10Z</time></trkpt><trkpt lat="42.21917639776653" lon="12.194582736716875"><ele>350.0</ele><time>2026-04-29T15:29:11Z</time></trkpt><trkpt lat="42.2191916952983" lon="12.194676789572549"><ele>349.3333333333333</ele><time>2026-04-29T15:29:12Z</time></trkpt><trkpt lat="42.21922013649876" lon="12.194765991470168"><ele>348.6666666666667</ele><time>2026-04-29T15:29:13Z</time></trkpt><trkpt lat="42.21924890450173" lon="12.194859297237187"><ele>348.0</ele><time>2026-04-29T15:29:14Z</time></trkpt><trkpt lat="42.219274730910115" lon="12.194946090919494"><ele>346.3333333333333</ele><time>2026-04-29T15:29:15Z</time></trkpt><trkpt lat="42.21931578836247" lon="12.195029115977732"><ele>344.6666666666667</ele><time>2026-04-29T15:29:16Z</time></trkpt><trkpt lat="42.21934544075094" lon="12.195115364478188"><ele>343.0</ele><time>2026-04-29T15:29:17Z</time></trkpt><trkpt lat="42.21937340122728" lon="12.19519633290427"><ele>341.33333333333337</ele><time>2026-04-29T15:29:18Z</time></trkpt><trkpt lat="42.21945712444694" lon="12.195304632759369"><ele>339.6666666666667</ele><time>2026-04-29T15:29:20Z</time></trkpt><trkpt lat="42.21950661466096" lon="12.195433243001066"><ele>338.0</ele><time>2026-04-29T15:29:22Z</time></trkpt><trkpt lat="42.21961823441538" lon="12.195410290995378"><ele>338.0</ele><time>2026-04-29T15:29:23Z</time></trkpt><trkpt lat="42.21967648553055" lon="12.195459094475583"><ele>338.0</ele><time>2026-04-29T15:29:24Z</time></trkpt><trkpt lat="42.219737606888266" lon="12.195517248936524"><ele>338.0</ele><time>2026-04-29T15:29:25Z</time></trkpt><trkpt lat="42.21978538336751" lon="12.195584770773237"><ele>338.0</ele><time>2026-04-29T15:29:26Z</time></trkpt><trkpt lat="42.21983353674829" lon="12.195651197064628"><ele>338.0</ele><time>2026-04-29T15:29:27Z</time></trkpt><trkpt lat="42.21987924528385" lon="12.195715387744475"><ele>338.0</ele><time>2026-04-29T15:29:28Z</time></trkpt><trkpt lat="42.21993170487275" lon="12.195787715348619"><ele>338.0</ele><time>2026-04-29T15:29:29Z</time></trkpt><trkpt lat="42.21999222697118" lon="12.195873941205907"><ele>336.33333333333337</ele><time>2026-04-29T15:29:30Z</time></trkpt><trkpt lat="42.22005590267575" lon="12.195965276598152"><ele>334.6666666666667</ele><time>2026-04-29T15:29:31Z</time></trkpt><trkpt lat="42.22011930522944" lon="12.196056454647493"><ele>333.0</ele><time>2026-04-29T15:29:32Z</time></trkpt><trkpt lat="42.22017815860332" lon="12.1961402865775"><ele>331.3333333333333</ele><time>2026-04-29T15:29:33Z</time></trkpt><trkpt lat="42.220229146262525" lon="12.196214257887824"><ele>329.66666666666663</ele><time>2026-04-29T15:29:34Z</time></trkpt><trkpt lat="42.22027532525638" lon="12.19628064184967"><ele>328.0</ele><time>2026-04-29T15:29:35Z</time></trkpt><trkpt lat="42.22032057847824" lon="12.196345193794212"><ele>328.0</ele><time>2026-04-29T15:29:36Z</time></trkpt><trkpt lat="42.22038552684477" lon="12.196471477140067"><ele>328.0</ele><time>2026-04-29T15:29:38Z</time></trkpt><trkpt lat="42.22042531577017" lon="12.196538018601103"><ele>328.0</ele><time>2026-04-29T15:29:41Z</time></trkpt><trkpt lat="42.22048519236333" lon="12.1966129011664"><ele>328.0</ele><time>2026-04-29T15:30:04Z</time></trkpt><trkpt lat="42.22052787500027" lon="12.19673840901472"><ele>328.0</ele><time>2026-04-29T15:30:06Z</time></trkpt><trkpt lat="42.220625293731445" lon="12.196845951276687"><ele>327.5</ele><time>2026-04-29T15:30:08Z</time></trkpt><trkpt lat="42.22068943478265" lon="12.19689266475759"><ele>327.0</ele><time>2026-04-29T15:30:09Z</time></trkpt><trkpt lat="42.220766200213454" lon="12.196920536497766"><ele>326.5</ele><time>2026-04-29T15:30:10Z</time></trkpt><trkpt lat="42.220848552589324" lon="12.19693995021065"><ele>326.0</ele><time>2026-04-29T15:30:11Z</time></trkpt><trkpt lat="42.22092145168924" lon="12.196956936861369"><ele>325.5</ele><time>2026-04-29T15:30:12Z</time></trkpt><trkpt lat="42.22100544018086" lon="12.196974661238492"><ele>325.0</ele><time>2026-04-29T15:30:13Z</time></trkpt><trkpt lat="42.22108810581149" lon="12.19699240886211"><ele>325.0</ele><time>2026-04-29T15:30:14Z</time></trkpt><trkpt lat="42.2211748254374" lon="12.197010936860876"><ele>325.0</ele><time>2026-04-29T15:30:15Z</time></trkpt><trkpt lat="42.221252085968445" lon="12.19702493365485"><ele>325.0</ele><time>2026-04-29T15:30:16Z</time></trkpt><trkpt lat="42.221330053713686" lon="12.19704258109705"><ele>325.0</ele><time>2026-04-29T15:30:18Z</time></trkpt><trkpt lat="42.221265024870156" lon="12.197007924297834"><ele>325.0</ele><time>2026-04-29T15:30:31Z</time></trkpt><trkpt lat="42.22136784875184" lon="12.19698412343597"><ele>325.0</ele><time>2026-04-29T15:31:55Z</time></trkpt><trkpt lat="42.22142896592559" lon="12.197053417376575"><ele>327.0</ele><time>2026-04-29T15:32:10Z</time></trkpt><trkpt lat="42.221554057170636" lon="12.19709136892898"><ele>329.0</ele><time>2026-04-29T15:32:12Z</time></trkpt><trkpt lat="42.22164855008743" lon="12.197135407443321"><ele>331.0</ele><time>2026-04-29T15:32:14Z</time></trkpt><trkpt lat="42.221738086401736" lon="12.197149577374553"><ele>333.0</ele><time>2026-04-29T15:32:16Z</time></trkpt><trkpt lat="42.22180126904575" lon="12.19716950978948"><ele>335.0</ele><time>2026-04-29T15:32:17Z</time></trkpt><trkpt lat="42.2218766308027" lon="12.19718276507855"><ele>335.0</ele><time>2026-04-29T15:32:19Z</time></trkpt><trkpt lat="42.221699696979016" lon="12.19709206132345"><ele>335.0</ele><time>2026-04-29T15:32:29Z</time></trkpt><trkpt lat="42.221614663571884" lon="12.197068992324937"><ele>335.0</ele><time>2026-04-29T15:32:30Z</time></trkpt><trkpt lat="42.221530998568326" lon="12.19704915845435"><ele>335.0</ele><time>2026-04-29T15:32:31Z</time></trkpt><trkpt lat="42.22145451067398" lon="12.197032589619704"><ele>335.0</ele><time>2026-04-29T15:32:32Z</time></trkpt><trkpt lat="42.221381325365556" lon="12.197024645637583"><ele>333.0</ele><time>2026-04-29T15:32:33Z</time></trkpt><trkpt lat="42.22127225722272" lon="12.197003770145049"><ele>331.0</ele><time>2026-04-29T15:32:35Z</time></trkpt><trkpt lat="42.221118926687346" lon="12.196993973495175"><ele>329.0</ele><time>2026-04-29T15:33:10Z</time></trkpt><trkpt lat="42.22105238656678" lon="12.196987795512928"><ele>327.0</ele><time>2026-04-29T15:33:11Z</time></trkpt><trkpt lat="42.22099023197588" lon="12.19693317950483"><ele>325.0</ele><time>2026-04-29T15:33:12Z</time></trkpt><trkpt lat="42.2209226108523" lon="12.196918724867478"><ele>325.0</ele><time>2026-04-29T15:33:13Z</time></trkpt><trkpt lat="42.22100166425418" lon="12.196997448777916"><ele>325.0</ele><time>2026-04-29T15:33:20Z</time></trkpt><trkpt lat="42.22111693503185" lon="12.197013877161798"><ele>325.0</ele><time>2026-04-29T15:33:22Z</time></trkpt><trkpt lat="42.22119380516636" lon="12.197026998447665"><ele>325.0</ele><time>2026-04-29T15:33:23Z</time></trkpt><trkpt lat="42.22128694351708" lon="12.197046709764349"><ele>325.0</ele><time>2026-04-29T15:33:24Z</time></trkpt><trkpt lat="42.221391247323524" lon="12.197068404292816"><ele>327.0</ele><time>2026-04-29T15:33:25Z</time></trkpt><trkpt lat="42.22149960616816" lon="12.197092349579766"><ele>329.0</ele><time>2026-04-29T15:33:26Z</time></trkpt><trkpt lat="42.22161055417887" lon="12.197115361936314"><ele>331.0</ele><time>2026-04-29T15:33:27Z</time></trkpt><trkpt lat="42.22171413895931" lon="12.197141367596172"><ele>333.0</ele><time>2026-04-29T15:33:28Z</time></trkpt><trkpt lat="42.22180918560074" lon="12.197163690548546"><ele>335.0</ele><time>2026-04-29T15:33:29Z</time></trkpt><trkpt lat="42.221889216291416" lon="12.197173995279593"><ele>335.0</ele><time>2026-04-29T15:33:30Z</time></trkpt><trkpt lat="42.22196744370495" lon="12.197168113074506"><ele>335.0</ele><time>2026-04-29T15:33:31Z</time></trkpt><trkpt lat="42.22205047829669" lon="12.197146666357005"><ele>335.0</ele><time>2026-04-29T15:33:32Z</time></trkpt><trkpt lat="42.222151278014415" lon="12.197115265389126"><ele>335.0</ele><time>2026-04-29T15:33:33Z</time></trkpt><trkpt lat="42.22223897140839" lon="12.19706825645007"><ele>335.0</ele><time>2026-04-29T15:33:34Z</time></trkpt><trkpt lat="42.2223182338007" lon="12.197034248726997"><ele>335.0</ele><time>2026-04-29T15:33:35Z</time></trkpt><trkpt lat="42.22241009761966" lon="12.197027924092295"><ele>334.2</ele><time>2026-04-29T15:33:36Z</time></trkpt><trkpt lat="42.22249690395338" lon="12.197056872964708"><ele>333.4</ele><time>2026-04-29T15:33:37Z</time></trkpt><trkpt lat="42.2225715447582" lon="12.197113340196761"><ele>332.6</ele><time>2026-04-29T15:33:38Z</time></trkpt><trkpt lat="42.22263742062109" lon="12.197209754896646"><ele>331.8</ele><time>2026-04-29T15:33:39Z</time></trkpt><trkpt lat="42.22270035547617" lon="12.197335570080917"><ele>331.0</ele><time>2026-04-29T15:33:40Z</time></trkpt><trkpt lat="42.222764062954774" lon="12.197471916439651"><ele>329.4</ele><time>2026-04-29T15:33:41Z</time></trkpt><trkpt lat="42.222821436336496" lon="12.197604325204146"><ele>327.8</ele><time>2026-04-29T15:33:42Z</time></trkpt><trkpt lat="42.22287885089536" lon="12.19771300632665"><ele>326.2</ele><time>2026-04-29T15:33:43Z</time></trkpt><trkpt lat="42.222941419458834" lon="12.197801840526855"><ele>324.59999999999997</ele><time>2026-04-29T15:33:44Z</time></trkpt><trkpt lat="42.22302276191398" lon="12.197867504053368"><ele>323.0</ele><time>2026-04-29T15:33:45Z</time></trkpt><trkpt lat="42.22311272932229" lon="12.197912543240713"><ele>325.4</ele><time>2026-04-29T15:33:46Z</time></trkpt><trkpt lat="42.223200461318136" lon="12.197926215658866"><ele>327.79999999999995</ele><time>2026-04-29T15:33:47Z</time></trkpt><trkpt lat="42.22329232513972" lon="12.19791268413608"><ele>330.2</ele><time>2026-04-29T15:33:48Z</time></trkpt><trkpt lat="42.22338860274011" lon="12.197872603333842"><ele>332.6</ele><time>2026-04-29T15:33:49Z</time></trkpt><trkpt lat="42.22348793685201" lon="12.197812427329673"><ele>335.0</ele><time>2026-04-29T15:33:50Z</time></trkpt><trkpt lat="42.22360411597199" lon="12.197748253700174"><ele>335.0</ele><time>2026-04-29T15:33:51Z</time></trkpt><trkpt lat="42.223737042031615" lon="12.19769820245424"><ele>335.0</ele><time>2026-04-29T15:33:52Z</time></trkpt><trkpt lat="42.22386679897136" lon="12.197665535314492"><ele>335.0</ele><time>2026-04-29T15:33:53Z</time></trkpt><trkpt lat="42.22398758896182" lon="12.197644340558785"><ele>335.0</ele><time>2026-04-29T15:33:54Z</time></trkpt><trkpt lat="42.22410314755423" lon="12.197630252620579"><ele>334.5</ele><time>2026-04-29T15:33:55Z</time></trkpt><trkpt lat="42.2242166891259" lon="12.1976194813914"><ele>334.0</ele><time>2026-04-29T15:33:56Z</time></trkpt><trkpt lat="42.22434259566132" lon="12.197615315401292"><ele>333.5</ele><time>2026-04-29T15:33:57Z</time></trkpt><trkpt lat="42.2244581622764" lon="12.197620598702883"><ele>333.0</ele><time>2026-04-29T15:33:58Z</time></trkpt><trkpt lat="42.22456956585491" lon="12.197629465551989"><ele>333.0</ele><time>2026-04-29T15:33:59Z</time></trkpt><trkpt lat="42.22468646188496" lon="12.197647859843261"><ele>333.0</ele><time>2026-04-29T15:34:00Z</time></trkpt><trkpt lat="42.22480733698275" lon="12.197673186607911"><ele>333.0</ele><time>2026-04-29T15:34:01Z</time></trkpt><trkpt lat="42.22492911325375" lon="12.197707787614476"><ele>333.0</ele><time>2026-04-29T15:34:02Z</time></trkpt><trkpt lat="42.225052065093" lon="12.197752365546549"><ele>331.75</ele><time>2026-04-29T15:34:03Z</time></trkpt><trkpt lat="42.22518397477597" lon="12.197797265497794"><ele>330.5</ele><time>2026-04-29T15:34:04Z</time></trkpt><trkpt lat="42.22530977085518" lon="12.197840462662505"><ele>329.25</ele><time>2026-04-29T15:34:05Z</time></trkpt><trkpt lat="42.225435657552104" lon="12.197881992448995"><ele>328.0</ele><time>2026-04-29T15:34:06Z</time></trkpt><trkpt lat="42.22554679524616" lon="12.197925576398672"><ele>327.59999999999997</ele><time>2026-04-29T15:34:07Z</time></trkpt><trkpt lat="42.22565531658113" lon="12.197964563657882"><ele>327.2</ele><time>2026-04-29T15:34:08Z</time></trkpt><trkpt lat="42.22575401499344" lon="12.198003031909114"><ele>326.8</ele><time>2026-04-29T15:34:09Z</time></trkpt><trkpt lat="42.22582479321059" lon="12.198048022311694"><ele>326.4</ele><time>2026-04-29T15:34:10Z</time></trkpt><trkpt lat="42.22588107137725" lon="12.198104807910303"><ele>326.0</ele><time>2026-04-29T15:34:11Z</time></trkpt><trkpt lat="42.225949047672394" lon="12.198209894686858"><ele>325.75</ele><time>2026-04-29T15:34:13Z</time></trkpt><trkpt lat="42.22594237347505" lon="12.198419940290567"><ele>325.5</ele><time>2026-04-29T15:34:15Z</time></trkpt><trkpt lat="42.22592894843632" lon="12.198574029576974"><ele>325.25</ele><time>2026-04-29T15:34:16Z</time></trkpt><trkpt lat="42.22590828314476" lon="12.198739478818812"><ele>325.0</ele><time>2026-04-29T15:34:17Z</time></trkpt><trkpt lat="42.2258878520331" lon="12.198931927159455"><ele>324.0</ele><time>2026-04-29T15:34:18Z</time></trkpt><trkpt lat="42.225865775369755" lon="12.19915082161187"><ele>323.0</ele><time>2026-04-29T15:34:19Z</time></trkpt><trkpt lat="42.225844024155435" lon="12.199379385317132"><ele>322.0</ele><time>2026-04-29T15:34:20Z</time></trkpt><trkpt lat="42.22583097582621" lon="12.199587402320113"><ele>322.0</ele><time>2026-04-29T15:34:21Z</time></trkpt><trkpt lat="42.22581164467996" lon="12.199783477647275"><ele>322.0</ele><time>2026-04-29T15:34:22Z</time></trkpt><trkpt lat="42.22580280423601" lon="12.199963409358626"><ele>322.0</ele><time>2026-04-29T15:34:23Z</time></trkpt><trkpt lat="42.225816894503424" lon="12.200129403985468"><ele>322.0</ele><time>2026-04-29T15:34:24Z</time></trkpt><trkpt lat="42.225850047615836" lon="12.200297683053208"><ele>321.75</ele><time>2026-04-29T15:34:25Z</time></trkpt><trkpt lat="42.225907307529305" lon="12.200462998931322"><ele>321.5</ele><time>2026-04-29T15:34:26Z</time></trkpt><trkpt lat="42.22598534701541" lon="12.200629879129819"><ele>321.25</ele><time>2026-04-29T15:34:27Z</time></trkpt><trkpt lat="42.22607506541238" lon="12.200806555041561"><ele>321.0</ele><time>2026-04-29T15:34:28Z</time></trkpt><trkpt lat="42.22617693352515" lon="12.201003890805964"><ele>318.6666666666667</ele><time>2026-04-29T15:34:29Z</time></trkpt><trkpt lat="42.22627960480379" lon="12.201213591891982"><ele>316.33333333333337</ele><time>2026-04-29T15:34:30Z</time></trkpt><trkpt lat="42.22638192912487" lon="12.201429231031135"><ele>314.0</ele><time>2026-04-29T15:34:31Z</time></trkpt><trkpt lat="42.22648391032047" lon="12.201648690650968"><ele>314.0</ele><time>2026-04-29T15:34:32Z</time></trkpt><trkpt lat="42.22659844671801" lon="12.201881981377165"><ele>314.0</ele><time>2026-04-29T15:34:33Z</time></trkpt><trkpt lat="42.226720538822455" lon="12.202123274116092"><ele>314.0</ele><time>2026-04-29T15:34:34Z</time></trkpt><trkpt lat="42.226843052100655" lon="12.20236704445092"><ele>312.6666666666667</ele><time>2026-04-29T15:34:35Z</time></trkpt><trkpt lat="42.22696511733004" lon="12.20261131729225"><ele>311.3333333333333</ele><time>2026-04-29T15:34:36Z</time></trkpt><trkpt lat="42.22708054349884" lon="12.202844093264133"><ele>310.0</ele><time>2026-04-29T15:34:37Z</time></trkpt><trkpt lat="42.227190880460775" lon="12.203061544966616"><ele>311.0</ele><time>2026-04-29T15:34:38Z</time></trkpt><trkpt lat="42.22730282419179" lon="12.203262012842455"><ele>312.0</ele><time>2026-04-29T15:34:39Z</time></trkpt><trkpt lat="42.22739850006517" lon="12.203436699628416"><ele>313.0</ele><time>2026-04-29T15:34:40Z</time></trkpt><trkpt lat="42.22747671149919" lon="12.203590799844735"><ele>313.0</ele><time>2026-04-29T15:34:41Z</time></trkpt><trkpt lat="42.22753891819115" lon="12.2037373247637"><ele>313.0</ele><time>2026-04-29T15:34:42Z</time></trkpt><trkpt lat="42.22758420367224" lon="12.203890114234508"><ele>313.0</ele><time>2026-04-29T15:34:43Z</time></trkpt><trkpt lat="42.22760427948298" lon="12.204048630368252"><ele>313.0</ele><time>2026-04-29T15:34:44Z</time></trkpt><trkpt lat="42.2276043467404" lon="12.204228969010291"><ele>313.0</ele><time>2026-04-29T15:34:45Z</time></trkpt><trkpt lat="42.22758805720789" lon="12.204434983425639"><ele>313.0</ele><time>2026-04-29T15:34:46Z</time></trkpt><trkpt lat="42.22756449814356" lon="12.204626674376255"><ele>313.0</ele><time>2026-04-29T15:34:47Z</time></trkpt><trkpt lat="42.22753876898753" lon="12.204794637930986"><ele>313.0</ele><time>2026-04-29T15:34:48Z</time></trkpt><trkpt lat="42.22752592411637" lon="12.204948527065383"><ele>312.75</ele><time>2026-04-29T15:34:49Z</time></trkpt><trkpt lat="42.22753168618617" lon="12.205099425512582"><ele>312.5</ele><time>2026-04-29T15:34:50Z</time></trkpt><trkpt lat="42.227568986976344" lon="12.205259383390082"><ele>312.25</ele><time>2026-04-29T15:34:51Z</time></trkpt><trkpt lat="42.22763244477073" lon="12.205417596707056"><ele>312.0</ele><time>2026-04-29T15:34:52Z</time></trkpt><trkpt lat="42.22772022574744" lon="12.205563726598664"><ele>312.75</ele><time>2026-04-29T15:34:53Z</time></trkpt><trkpt lat="42.22782233874478" lon="12.205676511340094"><ele>313.5</ele><time>2026-04-29T15:34:54Z</time></trkpt><trkpt lat="42.2279558798812" lon="12.205763543028246"><ele>314.25</ele><time>2026-04-29T15:34:55Z</time></trkpt><trkpt lat="42.22810501140184" lon="12.205858169550734"><ele>315.0</ele><time>2026-04-29T15:34:56Z</time></trkpt><trkpt lat="42.22824670316494" lon="12.205970623730664"><ele>310.3333333333333</ele><time>2026-04-29T15:34:57Z</time></trkpt><trkpt lat="42.22839128601675" lon="12.20610880775915"><ele>305.66666666666663</ele><time>2026-04-29T15:34:58Z</time></trkpt><trkpt lat="42.228526356150475" lon="12.206264460034747"><ele>301.0</ele><time>2026-04-29T15:34:59Z</time></trkpt><trkpt lat="42.22865986073922" lon="12.206433385535128"><ele>302.66666666666663</ele><time>2026-04-29T15:35:00Z</time></trkpt><trkpt lat="42.2287991680911" lon="12.206618938850859"><ele>304.3333333333333</ele><time>2026-04-29T15:35:01Z</time></trkpt><trkpt lat="42.22894269548654" lon="12.206811390010895"><ele>306.0</ele><time>2026-04-29T15:35:02Z</time></trkpt><trkpt lat="42.22908590283518" lon="12.207008244875427"><ele>306.3333333333333</ele><time>2026-04-29T15:35:03Z</time></trkpt><trkpt lat="42.229221682320436" lon="12.207204171829872"><ele>306.66666666666663</ele><time>2026-04-29T15:35:04Z</time></trkpt><trkpt lat="42.22934748565575" lon="12.207389618594698"><ele>307.0</ele><time>2026-04-29T15:35:05Z</time></trkpt><trkpt lat="42.22946540157564" lon="12.207562274428517"><ele>304.66666666666663</ele><time>2026-04-29T15:35:06Z</time></trkpt><trkpt lat="42.22957520011909" lon="12.20772728607059"><ele>302.3333333333333</ele><time>2026-04-29T15:35:07Z</time></trkpt><trkpt lat="42.229686532820736" lon="12.207899401819136"><ele>300.0</ele><time>2026-04-29T15:35:08Z</time></trkpt><trkpt lat="42.22979342942352" lon="12.20806005105066"><ele>299.3333333333333</ele><time>2026-04-29T15:35:09Z</time></trkpt><trkpt lat="42.229901898695026" lon="12.208195308348028"><ele>298.66666666666663</ele><time>2026-04-29T15:35:10Z</time></trkpt><trkpt lat="42.230018773395145" lon="12.20831038400338"><ele>298.0</ele><time>2026-04-29T15:35:11Z</time></trkpt><trkpt lat="42.23015750496716" lon="12.20841449454454"><ele>298.0</ele><time>2026-04-29T15:35:12Z</time></trkpt><trkpt lat="42.23030496848093" lon="12.208522221553627"><ele>298.0</ele><time>2026-04-29T15:35:13Z</time></trkpt><trkpt lat="42.230445529581075" lon="12.208651327550909"><ele>298.0</ele><time>2026-04-29T15:35:14Z</time></trkpt><trkpt lat="42.23056699071816" lon="12.208791178838842"><ele>297.66666666666663</ele><time>2026-04-29T15:35:15Z</time></trkpt><trkpt lat="42.23067843705819" lon="12.208954572478525"><ele>297.3333333333333</ele><time>2026-04-29T15:35:16Z</time></trkpt><trkpt lat="42.230782243773746" lon="12.209140548638702"><ele>297.0</ele><time>2026-04-29T15:35:17Z</time></trkpt><trkpt lat="42.23088944952967" lon="12.209341526440337"><ele>297.0</ele><time>2026-04-29T15:35:18Z</time></trkpt><trkpt lat="42.23100611792203" lon="12.209545972436498"><ele>297.0</ele><time>2026-04-29T15:35:19Z</time></trkpt><trkpt lat="42.23113534830183" lon="12.209749177748614"><ele>297.0</ele><time>2026-04-29T15:35:20Z</time></trkpt><trkpt lat="42.23127885054064" lon="12.209946923953211"><ele>297.0</ele><time>2026-04-29T15:35:21Z</time></trkpt><trkpt lat="42.231426020594206" lon="12.210144055941253"><ele>297.0</ele><time>2026-04-29T15:35:22Z</time></trkpt><trkpt lat="42.2315803953105" lon="12.21035013001516"><ele>297.0</ele><time>2026-04-29T15:35:23Z</time></trkpt><trkpt lat="42.23172028707533" lon="12.210534243070656"><ele>296.3333333333333</ele><time>2026-04-29T15:35:24Z</time></trkpt><trkpt lat="42.23184701937117" lon="12.210693434201017"><ele>295.66666666666663</ele><time>2026-04-29T15:35:25Z</time></trkpt><trkpt lat="42.2319660095982" lon="12.210833269835222"><ele>295.0</ele><time>2026-04-29T15:35:26Z</time></trkpt><trkpt lat="42.23207941158718" lon="12.210957804105114"><ele>295.0</ele><time>2026-04-29T15:35:27Z</time></trkpt><trkpt lat="42.23218862082472" lon="12.211073195091636"><ele>295.0</ele><time>2026-04-29T15:35:28Z</time></trkpt><trkpt lat="42.2322986875655" lon="12.211189231150893"><ele>295.0</ele><time>2026-04-29T15:35:29Z</time></trkpt><trkpt lat="42.23240506783031" lon="12.2113149170316"><ele>295.0</ele><time>2026-04-29T15:35:30Z</time></trkpt><trkpt lat="42.23250878857387" lon="12.211445703561157"><ele>294.3333333333333</ele><time>2026-04-29T15:35:31Z</time></trkpt><trkpt lat="42.23261346902074" lon="12.211582821475286"><ele>293.6666666666667</ele><time>2026-04-29T15:35:32Z</time></trkpt><trkpt lat="42.23271833741437" lon="12.211732288616258"><ele>293.0</ele><time>2026-04-29T15:35:33Z</time></trkpt><trkpt lat="42.23281439732096" lon="12.211897315043245"><ele>293.0</ele><time>2026-04-29T15:35:34Z</time></trkpt><trkpt lat="42.23289006886817" lon="12.212077649445337"><ele>293.0</ele><time>2026-04-29T15:35:35Z</time></trkpt><trkpt lat="42.23294738914669" lon="12.212270719226167"><ele>293.0</ele><time>2026-04-29T15:35:36Z</time></trkpt><trkpt lat="42.232986574319455" lon="12.21247359623141"><ele>294.0</ele><time>2026-04-29T15:35:37Z</time></trkpt><trkpt lat="42.233013637572206" lon="12.212681700652924"><ele>295.0</ele><time>2026-04-29T15:35:38Z</time></trkpt><trkpt lat="42.2330336831356" lon="12.212894327744351"><ele>296.0</ele><time>2026-04-29T15:35:39Z</time></trkpt><trkpt lat="42.233069071405666" lon="12.213104950124583"><ele>295.6666666666667</ele><time>2026-04-29T15:35:40Z</time></trkpt><trkpt lat="42.233127867897004" lon="12.213312700476157"><ele>295.3333333333333</ele><time>2026-04-29T15:35:41Z</time></trkpt><trkpt lat="42.233199876768985" lon="12.213522576067277"><ele>295.0</ele><time>2026-04-29T15:35:42Z</time></trkpt><trkpt lat="42.23327548001131" lon="12.213734345584427"><ele>295.0</ele><time>2026-04-29T15:35:43Z</time></trkpt><trkpt lat="42.233350875585536" lon="12.213946280039092"><ele>295.0</ele><time>2026-04-29T15:35:44Z</time></trkpt><trkpt lat="42.233423053164465" lon="12.214153057272469"><ele>295.0</ele><time>2026-04-29T15:35:45Z</time></trkpt><trkpt lat="42.23348099536398" lon="12.214337982800837"><ele>294.0</ele><time>2026-04-29T15:35:46Z</time></trkpt><trkpt lat="42.23352288982172" lon="12.214505824859867"><ele>293.0</ele><time>2026-04-29T15:35:47Z</time></trkpt><trkpt lat="42.233543125377274" lon="12.214667585517157"><ele>292.0</ele><time>2026-04-29T15:35:48Z</time></trkpt><trkpt lat="42.233530159615086" lon="12.214836652071735"><ele>291.0</ele><time>2026-04-29T15:35:49Z</time></trkpt><trkpt lat="42.23349365179789" lon="12.215022256085762"><ele>291.0</ele><time>2026-04-29T15:35:50Z</time></trkpt><trkpt lat="42.23343815099683" lon="12.215212089731471"><ele>291.0</ele><time>2026-04-29T15:35:51Z</time></trkpt><trkpt lat="42.233367005121664" lon="12.215378613951106"><ele>291.0</ele><time>2026-04-29T15:35:52Z</time></trkpt><trkpt lat="42.2332816925823" lon="12.215547359362038"><ele>291.0</ele><time>2026-04-29T15:35:53Z</time></trkpt><trkpt lat="42.233182622246396" lon="12.215703681657377"><ele>290.3333333333333</ele><time>2026-04-29T15:35:54Z</time></trkpt><trkpt lat="42.23306483224549" lon="12.215854204715445"><ele>289.66666666666663</ele><time>2026-04-29T15:35:55Z</time></trkpt><trkpt lat="42.23292649593793" lon="12.215997046015517"><ele>289.0</ele><time>2026-04-29T15:35:56Z</time></trkpt><trkpt lat="42.232781272825086" lon="12.216148738547691"><ele>289.0</ele><time>2026-04-29T15:35:57Z</time></trkpt><trkpt lat="42.23263814790271" lon="12.216327222503988"><ele>289.0</ele><time>2026-04-29T15:35:58Z</time></trkpt><trkpt lat="42.23251200905026" lon="12.21650875448404"><ele>289.0</ele><time>2026-04-29T15:35:59Z</time></trkpt><trkpt lat="42.23240982258805" lon="12.216671526654183"><ele>288.75</ele><time>2026-04-29T15:36:00Z</time></trkpt><trkpt lat="42.23233395666245" lon="12.21681816037905"><ele>288.5</ele><time>2026-04-29T15:36:01Z</time></trkpt><trkpt lat="42.2322729352704" lon="12.216984676869302"><ele>288.25</ele><time>2026-04-29T15:36:02Z</time></trkpt><trkpt lat="42.232220768144224" lon="12.217191970976904"><ele>288.0</ele><time>2026-04-29T15:36:03Z</time></trkpt><trkpt lat="42.23218586844583" lon="12.217420672204605"><ele>289.0</ele><time>2026-04-29T15:36:04Z</time></trkpt><trkpt lat="42.23216639055138" lon="12.21766519545093"><ele>290.0</ele><time>2026-04-29T15:36:05Z</time></trkpt><trkpt lat="42.2321615121561" lon="12.217905688264526"><ele>291.0</ele><time>2026-04-29T15:36:06Z</time></trkpt><trkpt lat="42.23216731591325" lon="12.218125939919103"><ele>291.0</ele><time>2026-04-29T15:36:07Z</time></trkpt><trkpt lat="42.232195901931675" lon="12.218339656450906"><ele>291.0</ele><time>2026-04-29T15:36:08Z</time></trkpt><trkpt lat="42.23224852908041" lon="12.218569491404583"><ele>291.0</ele><time>2026-04-29T15:36:09Z</time></trkpt><trkpt lat="42.23231915453433" lon="12.218810048089667"><ele>288.6666666666667</ele><time>2026-04-29T15:36:10Z</time></trkpt><trkpt lat="42.23239652216349" lon="12.219052211635141"><ele>286.33333333333337</ele><time>2026-04-29T15:36:11Z</time></trkpt><trkpt lat="42.232465041223385" lon="12.219258677085971"><ele>284.0</ele><time>2026-04-29T15:36:12Z</time></trkpt><trkpt lat="42.232511869289226" lon="12.219453890752268"><ele>284.0</ele><time>2026-04-29T15:36:13Z</time></trkpt><trkpt lat="42.232531021087325" lon="12.219642927293568"><ele>284.0</ele><time>2026-04-29T15:36:14Z</time></trkpt><trkpt lat="42.23252289274849" lon="12.21982610811909"><ele>284.0</ele><time>2026-04-29T15:36:15Z</time></trkpt><trkpt lat="42.23248981632157" lon="12.220011440867145"><ele>284.0</ele><time>2026-04-29T15:36:16Z</time></trkpt><trkpt lat="42.23240480698732" lon="12.220161753967222"><ele>284.0</ele><time>2026-04-29T15:36:17Z</time></trkpt><trkpt lat="42.232314156205696" lon="12.220324335392842"><ele>284.0</ele><time>2026-04-29T15:36:18Z</time></trkpt><trkpt lat="42.23221989378996" lon="12.22051122247202"><ele>284.0</ele><time>2026-04-29T15:36:19Z</time></trkpt><trkpt lat="42.23212687408149" lon="12.220669605287883"><ele>283.25</ele><time>2026-04-29T15:36:20Z</time></trkpt><trkpt lat="42.232071033883514" lon="12.22082374709505"><ele>282.5</ele><time>2026-04-29T15:36:21Z</time></trkpt><trkpt lat="42.23204191541599" lon="12.22099959226082"><ele>281.75</ele><time>2026-04-29T15:36:22Z</time></trkpt><trkpt lat="42.23202412092704" lon="12.221196087913704"><ele>281.0</ele><time>2026-04-29T15:36:23Z</time></trkpt><trkpt lat="42.23202454702252" lon="12.221399353842667"><ele>281.25</ele><time>2026-04-29T15:36:24Z</time></trkpt><trkpt lat="42.23204703192952" lon="12.221584853516552"><ele>281.5</ele><time>2026-04-29T15:36:25Z</time></trkpt><trkpt lat="42.23209001309417" lon="12.221756189341193"><ele>281.75</ele><time>2026-04-29T15:36:26Z</time></trkpt><trkpt lat="42.23215981956681" lon="12.221915510468852"><ele>282.0</ele><time>2026-04-29T15:36:27Z</time></trkpt><trkpt lat="42.23224720362677" lon="12.222062627344732"><ele>280.75</ele><time>2026-04-29T15:36:28Z</time></trkpt><trkpt lat="42.23235623846378" lon="12.22219029810027"><ele>279.5</ele><time>2026-04-29T15:36:29Z</time></trkpt><trkpt lat="42.23247704856195" lon="12.222311762796199"><ele>278.25</ele><time>2026-04-29T15:36:30Z</time></trkpt><trkpt lat="42.232594287194985" lon="12.222447289409896"><ele>277.0</ele><time>2026-04-29T15:36:31Z</time></trkpt><trkpt lat="42.23270451772957" lon="12.222613997570399"><ele>277.0</ele><time>2026-04-29T15:36:32Z</time></trkpt><trkpt lat="42.2328105164754" lon="12.222809409705901"><ele>277.0</ele><time>2026-04-29T15:36:33Z</time></trkpt><trkpt lat="42.23291349794334" lon="12.223023983807654"><ele>277.0</ele><time>2026-04-29T15:36:34Z</time></trkpt><trkpt lat="42.23300639460168" lon="12.223242725485083"><ele>278.66666666666663</ele><time>2026-04-29T15:36:35Z</time></trkpt><trkpt lat="42.233081585246495" lon="12.223469101380077"><ele>280.3333333333333</ele><time>2026-04-29T15:36:36Z</time></trkpt><trkpt lat="42.23314517070329" lon="12.223715673527472"><ele>282.0</ele><time>2026-04-29T15:36:37Z</time></trkpt><trkpt lat="42.23321666020172" lon="12.223976447503276"><ele>281.6666666666667</ele><time>2026-04-29T15:36:38Z</time></trkpt><trkpt lat="42.23330889523153" lon="12.22421070898298"><ele>281.33333333333337</ele><time>2026-04-29T15:36:39Z</time></trkpt><trkpt lat="42.233390129656996" lon="12.224412170501815"><ele>281.0</ele><time>2026-04-29T15:36:40Z</time></trkpt><trkpt lat="42.23344720607188" lon="12.224602887434955"><ele>281.0</ele><time>2026-04-29T15:36:41Z</time></trkpt><trkpt lat="42.23348100902491" lon="12.224791820818151"><ele>281.0</ele><time>2026-04-29T15:36:42Z</time></trkpt><trkpt lat="42.23351017020645" lon="12.22497294018233"><ele>281.0</ele><time>2026-04-29T15:36:43Z</time></trkpt><trkpt lat="42.23354971039957" lon="12.225134285368304"><ele>281.0</ele><time>2026-04-29T15:36:44Z</time></trkpt><trkpt lat="42.23362004214671" lon="12.225297334716641"><ele>281.0</ele><time>2026-04-29T15:36:45Z</time></trkpt><trkpt lat="42.23371969800889" lon="12.225459478172533"><ele>281.0</ele><time>2026-04-29T15:36:46Z</time></trkpt><trkpt lat="42.23382940735229" lon="12.225624569673741"><ele>281.0</ele><time>2026-04-29T15:36:47Z</time></trkpt><trkpt lat="42.23393965637537" lon="12.225791746094702"><ele>280.25</ele><time>2026-04-29T15:36:48Z</time></trkpt><trkpt lat="42.23403668719478" lon="12.22595522730905"><ele>279.5</ele><time>2026-04-29T15:36:49Z</time></trkpt><trkpt lat="42.23410976343002" lon="12.226106977745443"><ele>278.75</ele><time>2026-04-29T15:36:50Z</time></trkpt><trkpt lat="42.23415233010968" lon="12.22624786376403"><ele>278.0</ele><time>2026-04-29T15:36:51Z</time></trkpt><trkpt lat="42.23416281708357" lon="12.226408819206693"><ele>278.5</ele><time>2026-04-29T15:36:52Z</time></trkpt><trkpt lat="42.234138643272686" lon="12.226587215810508"><ele>279.0</ele><time>2026-04-29T15:36:53Z</time></trkpt><trkpt lat="42.23408784920046" lon="12.226777767122167"><ele>279.5</ele><time>2026-04-29T15:36:54Z</time></trkpt><trkpt lat="42.23403575725128" lon="12.226982955536482"><ele>280.0</ele><time>2026-04-29T15:36:55Z</time></trkpt><trkpt lat="42.23400844060175" lon="12.22721027594328"><ele>280.3333333333333</ele><time>2026-04-29T15:36:56Z</time></trkpt><trkpt lat="42.233999531128106" lon="12.227441471766335"><ele>280.6666666666667</ele><time>2026-04-29T15:36:57Z</time></trkpt><trkpt lat="42.23400663996408" lon="12.227679382196174"><ele>281.0</ele><time>2026-04-29T15:36:58Z</time></trkpt><trkpt lat="42.23403470559036" lon="12.22793009259037"><ele>280.6666666666667</ele><time>2026-04-29T15:36:59Z</time></trkpt><trkpt lat="42.23406682187995" lon="12.228192061514642"><ele>280.3333333333333</ele><time>2026-04-29T15:37:00Z</time></trkpt><trkpt lat="42.23409241552828" lon="12.228442733281105"><ele>280.0</ele><time>2026-04-29T15:37:01Z</time></trkpt><trkpt lat="42.23410817512677" lon="12.228654030736468"><ele>280.0</ele><time>2026-04-29T15:37:02Z</time></trkpt><trkpt lat="42.23408771125504" lon="12.22884040937038"><ele>280.0</ele><time>2026-04-29T15:37:03Z</time></trkpt><trkpt lat="42.23404554720154" lon="12.22900288036889"><ele>280.0</ele><time>2026-04-29T15:37:04Z</time></trkpt><trkpt lat="42.233985325655155" lon="12.229192643011094"><ele>280.0</ele><time>2026-04-29T15:37:05Z</time></trkpt><trkpt lat="42.23392327839599" lon="12.229405046124736"><ele>277.66666666666663</ele><time>2026-04-29T15:37:06Z</time></trkpt><trkpt lat="42.23386036774089" lon="12.229645076152124"><ele>275.3333333333333</ele><time>2026-04-29T15:37:07Z</time></trkpt><trkpt lat="42.23380411183794" lon="12.229898728160723"><ele>273.0</ele><time>2026-04-29T15:37:08Z</time></trkpt><trkpt lat="42.2337539040602" lon="12.2301419495101"><ele>273.0</ele><time>2026-04-29T15:37:09Z</time></trkpt><trkpt lat="42.233707160167434" lon="12.230344088735473"><ele>273.0</ele><time>2026-04-29T15:37:10Z</time></trkpt><trkpt lat="42.23366730990359" lon="12.23051003631242"><ele>273.0</ele><time>2026-04-29T15:37:11Z</time></trkpt><trkpt lat="42.23363671961917" lon="12.230663270024298"><ele>273.0</ele><time>2026-04-29T15:37:12Z</time></trkpt><trkpt lat="42.2336247445934" lon="12.230818942511837"><ele>272.75</ele><time>2026-04-29T15:37:13Z</time></trkpt><trkpt lat="42.233619748618786" lon="12.230973296334332"><ele>272.5</ele><time>2026-04-29T15:37:14Z</time></trkpt><trkpt lat="42.23359185596475" lon="12.231129857730282"><ele>272.25</ele><time>2026-04-29T15:37:15Z</time></trkpt><trkpt lat="42.23355557526481" lon="12.23126998320964"><ele>272.0</ele><time>2026-04-29T15:37:16Z</time></trkpt><trkpt lat="42.233529144845434" lon="12.231424723308125"><ele>271.75</ele><time>2026-04-29T15:37:17Z</time></trkpt><trkpt lat="42.233509787868044" lon="12.231572171025341"><ele>271.5</ele><time>2026-04-29T15:37:18Z</time></trkpt><trkpt lat="42.23351450305831" lon="12.231737594882206"><ele>271.25</ele><time>2026-04-29T15:37:19Z</time></trkpt><trkpt lat="42.23353568282207" lon="12.231912981841425"><ele>271.0</ele><time>2026-04-29T15:37:20Z</time></trkpt><trkpt lat="42.23356781814188" lon="12.232092981972311"><ele>271.0</ele><time>2026-04-29T15:37:21Z</time></trkpt><trkpt lat="42.233601551203385" lon="12.232274916541034"><ele>271.0</ele><time>2026-04-29T15:37:22Z</time></trkpt><trkpt lat="42.23363635663267" lon="12.232444640549994"><ele>271.0</ele><time>2026-04-29T15:37:23Z</time></trkpt><trkpt lat="42.23366083427736" lon="12.232597647020368"><ele>271.0</ele><time>2026-04-29T15:37:24Z</time></trkpt><trkpt lat="42.23367375701752" lon="12.232729986261917"><ele>271.0</ele><time>2026-04-29T15:37:25Z</time></trkpt><trkpt lat="42.23367065027491" lon="12.232865967313515"><ele>271.0</ele><time>2026-04-29T15:37:26Z</time></trkpt><trkpt lat="42.2336455479144" lon="12.233002462442881"><ele>271.0</ele><time>2026-04-29T15:37:27Z</time></trkpt><trkpt lat="42.23358893251568" lon="12.233127500997751"><ele>271.0</ele><time>2026-04-29T15:37:28Z</time></trkpt><trkpt lat="42.233523624268" lon="12.233263438085059"><ele>271.0</ele><time>2026-04-29T15:37:29Z</time></trkpt><trkpt lat="42.233449222810464" lon="12.233403886333354"><ele>271.25</ele><time>2026-04-29T15:37:30Z</time></trkpt><trkpt lat="42.233372520552564" lon="12.233547566494863"><ele>271.5</ele><time>2026-04-29T15:37:31Z</time></trkpt><trkpt lat="42.23329081649693" lon="12.233699829748794"><ele>271.75</ele><time>2026-04-29T15:37:32Z</time></trkpt><trkpt lat="42.23322219779136" lon="12.233872310633739"><ele>272.0</ele><time>2026-04-29T15:37:33Z</time></trkpt><trkpt lat="42.233144834164186" lon="12.23403027256961"><ele>270.75</ele><time>2026-04-29T15:37:34Z</time></trkpt><trkpt lat="42.23307912343547" lon="12.234189358640602"><ele>269.5</ele><time>2026-04-29T15:37:35Z</time></trkpt><trkpt lat="42.233024510449475" lon="12.234366184046541"><ele>268.25</ele><time>2026-04-29T15:37:36Z</time></trkpt><trkpt lat="42.23297941285951" lon="12.234559239471844"><ele>267.0</ele><time>2026-04-29T15:37:37Z</time></trkpt><trkpt lat="42.232936705152724" lon="12.234769802893926"><ele>267.6666666666667</ele><time>2026-04-29T15:37:38Z</time></trkpt><trkpt lat="42.23288936972467" lon="12.234990870406053"><ele>268.33333333333337</ele><time>2026-04-29T15:37:39Z</time></trkpt><trkpt lat="42.23284040477492" lon="12.235213118594494"><ele>269.0</ele><time>2026-04-29T15:37:40Z</time></trkpt><trkpt lat="42.232794032468256" lon="12.235411700075526"><ele>269.0</ele><time>2026-04-29T15:37:41Z</time></trkpt><trkpt lat="42.232750604295624" lon="12.235589398290365"><ele>269.0</ele><time>2026-04-29T15:37:42Z</time></trkpt><trkpt lat="42.23271910825986" lon="12.23579502854001"><ele>269.0</ele><time>2026-04-29T15:37:43Z</time></trkpt><trkpt lat="42.232707456620545" lon="12.236010425673893"><ele>269.33333333333337</ele><time>2026-04-29T15:37:44Z</time></trkpt><trkpt lat="42.23271367214375" lon="12.23625142196023"><ele>269.6666666666667</ele><time>2026-04-29T15:37:45Z</time></trkpt><trkpt lat="42.23272907635281" lon="12.236508599913755"><ele>270.0</ele><time>2026-04-29T15:37:46Z</time></trkpt><trkpt lat="42.232741164325944" lon="12.236720451559274"><ele>269.5</ele><time>2026-04-29T15:37:47Z</time></trkpt><trkpt lat="42.23275441734127" lon="12.236886814756875"><ele>269.0</ele><time>2026-04-29T15:37:48Z</time></trkpt><trkpt lat="42.232785832201614" lon="12.23703006456569"><ele>268.5</ele><time>2026-04-29T15:37:49Z</time></trkpt><trkpt lat="42.23284530787903" lon="12.237167485873137"><ele>268.0</ele><time>2026-04-29T15:37:50Z</time></trkpt><trkpt lat="42.232945715335475" lon="12.237282592425197"><ele>268.16666666666663</ele><time>2026-04-29T15:37:51Z</time></trkpt><trkpt lat="42.233042754087975" lon="12.237364240352598"><ele>268.3333333333333</ele><time>2026-04-29T15:37:52Z</time></trkpt><trkpt lat="42.23311582268877" lon="12.237419006907205"><ele>268.5</ele><time>2026-04-29T15:37:53Z</time></trkpt><trkpt lat="42.23317338667341" lon="12.237458018226212"><ele>268.6666666666667</ele><time>2026-04-29T15:37:54Z</time></trkpt><trkpt lat="42.23325569208776" lon="12.237510197279594"><ele>268.83333333333337</ele><time>2026-04-29T15:37:56Z</time></trkpt><trkpt lat="42.2333356382291" lon="12.23749042602911"><ele>269.0</ele><time>2026-04-29T15:37:59Z</time></trkpt><trkpt lat="42.23339756249979" lon="12.237393939423477"><ele>270.25</ele><time>2026-04-29T15:38:00Z</time></trkpt><trkpt lat="42.233426858628285" lon="12.237286157510823"><ele>271.5</ele><time>2026-04-29T15:38:01Z</time></trkpt><trkpt lat="42.23347053787109" lon="12.237149855204965"><ele>272.75</ele><time>2026-04-29T15:38:02Z</time></trkpt><trkpt lat="42.23353715433793" lon="12.237009044669866"><ele>274.0</ele><time>2026-04-29T15:38:03Z</time></trkpt><trkpt lat="42.23360169941521" lon="12.236847046347407"><ele>274.0</ele><time>2026-04-29T15:38:04Z</time></trkpt><trkpt lat="42.23367148750282" lon="12.236680161952728"><ele>274.0</ele><time>2026-04-29T15:38:05Z</time></trkpt><trkpt lat="42.233745636823485" lon="12.23650426311535"><ele>274.0</ele><time>2026-04-29T15:38:06Z</time></trkpt><trkpt lat="42.23382632289961" lon="12.23632119243162"><ele>274.0</ele><time>2026-04-29T15:38:07Z</time></trkpt><trkpt lat="42.23390851695777" lon="12.23612731129293"><ele>273.66666666666663</ele><time>2026-04-29T15:38:08Z</time></trkpt><trkpt lat="42.23399855896304" lon="12.235919305319639"><ele>273.3333333333333</ele><time>2026-04-29T15:38:09Z</time></trkpt><trkpt lat="42.2340923533509" lon="12.2356970862392"><ele>273.0</ele><time>2026-04-29T15:38:10Z</time></trkpt><trkpt lat="42.23418936001004" lon="12.235470219210026"><ele>274.0</ele><time>2026-04-29T15:38:11Z</time></trkpt><trkpt lat="42.2342959109755" lon="12.235229781752114"><ele>275.0</ele><time>2026-04-29T15:38:12Z</time></trkpt><trkpt lat="42.23440566103343" lon="12.23497840484373"><ele>276.0</ele><time>2026-04-29T15:38:13Z</time></trkpt><trkpt lat="42.23450663487678" lon="12.234734317989005"><ele>276.0</ele><time>2026-04-29T15:38:14Z</time></trkpt><trkpt lat="42.234604390877024" lon="12.23451967309186"><ele>276.0</ele><time>2026-04-29T15:38:15Z</time></trkpt><trkpt lat="42.234696744684435" lon="12.23431551545585"><ele>276.0</ele><time>2026-04-29T15:38:16Z</time></trkpt><trkpt lat="42.23477891620162" lon="12.234121079021019"><ele>276.0</ele><time>2026-04-29T15:38:17Z</time></trkpt><trkpt lat="42.23486057771145" lon="12.233924079854003"><ele>276.0</ele><time>2026-04-29T15:38:18Z</time></trkpt><trkpt lat="42.23495850750763" lon="12.233722883185587"><ele>276.0</ele><time>2026-04-29T15:38:19Z</time></trkpt><trkpt lat="42.23505685195309" lon="12.233517219763486"><ele>276.0</ele><time>2026-04-29T15:38:20Z</time></trkpt><trkpt lat="42.23515950033955" lon="12.23333738800587"><ele>276.0</ele><time>2026-04-29T15:38:21Z</time></trkpt><trkpt lat="42.23527129541267" lon="12.233191769990052"><ele>276.0</ele><time>2026-04-29T15:38:22Z</time></trkpt><trkpt lat="42.23539746965904" lon="12.23305912824247"><ele>276.3333333333333</ele><time>2026-04-29T15:38:23Z</time></trkpt><trkpt lat="42.23553758048184" lon="12.232938059257533"><ele>276.66666666666663</ele><time>2026-04-29T15:38:24Z</time></trkpt><trkpt lat="42.23568424753277" lon="12.232818683764377"><ele>277.0</ele><time>2026-04-29T15:38:25Z</time></trkpt><trkpt lat="42.235830452330084" lon="12.232708595852769"><ele>278.0</ele><time>2026-04-29T15:38:26Z</time></trkpt><trkpt lat="42.23597551807691" lon="12.232609833491297"><ele>279.0</ele><time>2026-04-29T15:38:27Z</time></trkpt><trkpt lat="42.23611749516302" lon="12.232512994766212"><ele>280.0</ele><time>2026-04-29T15:38:28Z</time></trkpt><trkpt lat="42.23625868187818" lon="12.232426196386553"><ele>280.0</ele><time>2026-04-29T15:38:29Z</time></trkpt><trkpt lat="42.236405507484534" lon="12.232357149437725"><ele>280.0</ele><time>2026-04-29T15:38:30Z</time></trkpt><trkpt lat="42.236554735907184" lon="12.232292542125743"><ele>280.0</ele><time>2026-04-29T15:38:31Z</time></trkpt><trkpt lat="42.236704066576145" lon="12.23223290231267"><ele>280.75</ele><time>2026-04-29T15:38:32Z</time></trkpt><trkpt lat="42.23684813043118" lon="12.232178103232838"><ele>281.5</ele><time>2026-04-29T15:38:33Z</time></trkpt><trkpt lat="42.23697088394828" lon="12.232127636058308"><ele>282.25</ele><time>2026-04-29T15:38:34Z</time></trkpt><trkpt lat="42.237068501540236" lon="12.23208312315204"><ele>283.0</ele><time>2026-04-29T15:38:35Z</time></trkpt><trkpt lat="42.23713486408724" lon="12.232047329006962"><ele>283.0</ele><time>2026-04-29T15:38:36Z</time></trkpt><trkpt lat="42.23720667936209" lon="12.231958283785488"><ele>283.0</ele><time>2026-04-29T15:38:38Z</time></trkpt><trkpt lat="42.2372641317418" lon="12.23188952870367"><ele>283.0</ele><time>2026-04-29T15:40:33Z</time></trkpt><trkpt lat="42.237327424556106" lon="12.231873463104101"><ele>283.0</ele><time>2026-04-29T15:40:35Z</time></trkpt><trkpt lat="42.23740364642902" lon="12.2318395801222"><ele>283.0</ele><time>2026-04-29T15:40:36Z</time></trkpt><trkpt lat="42.23748792534358" lon="12.23178495457339"><ele>283.0</ele><time>2026-04-29T15:40:37Z</time></trkpt><trkpt lat="42.237578976840645" lon="12.231707856488136"><ele>283.0</ele><time>2026-04-29T15:40:38Z</time></trkpt><trkpt lat="42.23768899285089" lon="12.23161867249005"><ele>283.0</ele><time>2026-04-29T15:40:39Z</time></trkpt><trkpt lat="42.23780580352183" lon="12.231519904298445"><ele>283.0</ele><time>2026-04-29T15:40:40Z</time></trkpt><trkpt lat="42.237923545438626" lon="12.231419625772224"><ele>283.0</ele><time>2026-04-29T15:40:41Z</time></trkpt><trkpt lat="42.23804152807759" lon="12.231312307736701"><ele>279.25</ele><time>2026-04-29T15:40:42Z</time></trkpt><trkpt lat="42.23815312870353" lon="12.231203209754163"><ele>275.5</ele><time>2026-04-29T15:40:43Z</time></trkpt><trkpt lat="42.23825311168646" lon="12.231103100951136"><ele>271.75</ele><time>2026-04-29T15:40:44Z</time></trkpt><trkpt lat="42.23834700087881" lon="12.231007272927439"><ele>268.0</ele><time>2026-04-29T15:40:45Z</time></trkpt><trkpt lat="42.23843751756413" lon="12.230915885255111"><ele>268.0</ele><time>2026-04-29T15:40:46Z</time></trkpt><trkpt lat="42.238521324741825" lon="12.230830703025449"><ele>268.0</ele><time>2026-04-29T15:40:47Z</time></trkpt><trkpt lat="42.23860241577632" lon="12.230746921392951"><ele>268.0</ele><time>2026-04-29T15:40:48Z</time></trkpt><trkpt lat="42.23868565880936" lon="12.230671318848078"><ele>268.0</ele><time>2026-04-29T15:40:49Z</time></trkpt><trkpt lat="42.238755020737884" lon="12.230582765191304"><ele>268.0</ele><time>2026-04-29T15:40:50Z</time></trkpt><trkpt lat="42.23882870810184" lon="12.23051981211436"><ele>267.8</ele><time>2026-04-29T15:40:51Z</time></trkpt><trkpt lat="42.23889364680949" lon="12.2304461929487"><ele>267.6</ele><time>2026-04-29T15:40:52Z</time></trkpt><trkpt lat="42.23896943861579" lon="12.230366222275387"><ele>267.4</ele><time>2026-04-29T15:40:53Z</time></trkpt><trkpt lat="42.239052753862" lon="12.230274280727206"><ele>267.2</ele><time>2026-04-29T15:40:54Z</time></trkpt><trkpt lat="42.23912669597623" lon="12.2301889420971"><ele>267.0</ele><time>2026-04-29T15:40:55Z</time></trkpt><trkpt lat="42.2391819457022" lon="12.230123324175153"><ele>267.0</ele><time>2026-04-29T15:40:56Z</time></trkpt><trkpt lat="42.23923292620616" lon="12.230066544656419"><ele>267.0</ele><time>2026-04-29T15:40:58Z</time></trkpt><trkpt lat="42.23909185956856" lon="12.229871801925503"><ele>267.0</ele><time>2026-04-29T15:41:24Z</time></trkpt><trkpt lat="42.239011472088755" lon="12.229802936014567"><ele>267.0</ele><time>2026-04-29T15:41:26Z</time></trkpt><trkpt lat="42.238935196892264" lon="12.229730166831567"><ele>267.8</ele><time>2026-04-29T15:41:28Z</time></trkpt><trkpt lat="42.23884916553787" lon="12.22965494488327"><ele>268.6</ele><time>2026-04-29T15:41:30Z</time></trkpt><trkpt lat="42.23876524536744" lon="12.229556570646457"><ele>269.40000000000003</ele><time>2026-04-29T15:41:32Z</time></trkpt><trkpt lat="42.238694939351134" lon="12.2294766676982"><ele>270.2</ele><time>2026-04-29T15:41:34Z</time></trkpt><trkpt lat="42.238623020929296" lon="12.229383590042872"><ele>271.0</ele><time>2026-04-29T15:41:36Z</time></trkpt><trkpt lat="42.23858560951676" lon="12.229294288338403"><ele>271.0</ele><time>2026-04-29T15:41:38Z</time></trkpt><trkpt lat="42.2385996695988" lon="12.229185960479194"><ele>271.0</ele><time>2026-04-29T15:41:41Z</time></trkpt><trkpt lat="42.23850659672409" lon="12.22911597814365"><ele>271.0</ele><time>2026-04-29T15:41:44Z</time></trkpt><trkpt lat="42.23840665611282" lon="12.229090935892659"><ele>271.0</ele><time>2026-04-29T15:41:46Z</time></trkpt><trkpt lat="42.23834151690257" lon="12.2290785417724"><ele>271.0</ele><time>2026-04-29T15:41:49Z</time></trkpt><trkpt lat="42.23826703128007" lon="12.229016319483405"><ele>271.0</ele><time>2026-04-29T15:41:52Z</time></trkpt><trkpt lat="42.23825157257949" lon="12.228881278245428"><ele>270.42857142857144</ele><time>2026-04-29T15:41:55Z</time></trkpt><trkpt lat="42.23824012259849" lon="12.228792348401495"><ele>269.8571428571429</ele><time>2026-04-29T15:41:57Z</time></trkpt><trkpt lat="42.238248606509046" lon="12.228677891524317"><ele>269.28571428571433</ele><time>2026-04-29T15:42:00Z</time></trkpt><trkpt lat="42.238261839574314" lon="12.228592744368509"><ele>268.7142857142857</ele><time>2026-04-29T15:42:02Z</time></trkpt><trkpt lat="42.23826612025342" lon="12.228499097397362"><ele>268.14285714285717</ele><time>2026-04-29T15:43:24Z</time></trkpt><trkpt lat="42.238312994688066" lon="12.228415810551502"><ele>267.5714285714286</ele><time>2026-04-29T15:43:26Z</time></trkpt><trkpt lat="42.238347689861676" lon="12.228338876965879"><ele>267.0</ele><time>2026-04-29T15:43:28Z</time></trkpt><trkpt lat="42.2383770711011" lon="12.228249453420633"><ele>267.0</ele><time>2026-04-29T15:43:30Z</time></trkpt><trkpt lat="42.23840747398009" lon="12.22814861420254"><ele>267.0</ele><time>2026-04-29T15:43:32Z</time></trkpt><trkpt lat="42.23845548436129" lon="12.228025897811396"><ele>267.0</ele><time>2026-04-29T15:49:26Z</time></trkpt><trkpt lat="42.238419939807706" lon="12.228133814587489"><ele>267.0</ele><time>2026-04-29T15:49:36Z</time></trkpt><trkpt lat="42.238384826285525" lon="12.228230149272443"><ele>267.0</ele><time>2026-04-29T15:49:39Z</time></trkpt><trkpt lat="42.23834987512437" lon="12.228333249768104"><ele>267.0</ele><time>2026-04-29T15:49:42Z</time></trkpt><trkpt lat="42.2383156252001" lon="12.228414319632645"><ele>267.0</ele><time>2026-04-29T15:49:44Z</time></trkpt><trkpt lat="42.23827582239286" lon="12.228511909368995"><ele>267.0</ele><time>2026-04-29T15:49:46Z</time></trkpt><trkpt lat="42.238240770165945" lon="12.228605100310961"><ele>267.0</ele><time>2026-04-29T15:49:49Z</time></trkpt><trkpt lat="42.238222374696065" lon="12.228713478531775"><ele>267.0</ele><time>2026-04-29T15:49:52Z</time></trkpt><trkpt lat="42.238217930816944" lon="12.2288005779407"><ele>267.0</ele><time>2026-04-29T15:49:54Z</time></trkpt><trkpt lat="42.23823472906394" lon="12.228901190532051"><ele>267.0</ele><time>2026-04-29T15:49:56Z</time></trkpt><trkpt lat="42.23825697011543" lon="12.229011646710294"><ele>267.6666666666667</ele><time>2026-04-29T15:49:59Z</time></trkpt><trkpt lat="42.23833382590075" lon="12.22905322140874"><ele>268.3333333333333</ele><time>2026-04-29T15:50:02Z</time></trkpt><trkpt lat="42.23840484858656" lon="12.22906754549544"><ele>269.0</ele><time>2026-04-29T15:50:04Z</time></trkpt><trkpt lat="42.23848610645642" lon="12.22909168625491"><ele>269.66666666666663</ele><time>2026-04-29T15:50:07Z</time></trkpt><trkpt lat="42.23855524073357" lon="12.22911372312946"><ele>270.3333333333333</ele><time>2026-04-29T15:50:09Z</time></trkpt><trkpt lat="42.23857828078278" lon="12.229192969659447"><ele>271.0</ele><time>2026-04-29T15:50:11Z</time></trkpt><trkpt lat="42.2385763877797" lon="12.22930222365632"><ele>271.0</ele><time>2026-04-29T15:50:13Z</time></trkpt><trkpt lat="42.23861605629877" lon="12.229373960316025"><ele>271.0</ele><time>2026-04-29T15:50:15Z</time></trkpt><trkpt lat="42.23867529847107" lon="12.229462101519456"><ele>271.0</ele><time>2026-04-29T15:50:16.999Z</time></trkpt><trkpt lat="42.2387535589029" lon="12.229557639008842"><ele>271.0</ele><time>2026-04-29T15:50:18.999Z</time></trkpt><trkpt lat="42.23884239641008" lon="12.22965966092835"><ele>271.0</ele><time>2026-04-29T15:50:20.999Z</time></trkpt><trkpt lat="42.23890149437077" lon="12.229728121848218"><ele>271.0</ele><time>2026-04-29T15:50:21.999Z</time></trkpt><trkpt lat="42.23896158399034" lon="12.229790313128285"><ele>271.0</ele><time>2026-04-29T15:50:22.999Z</time></trkpt><trkpt lat="42.23901440456302" lon="12.229847707842067"><ele>271.0</ele><time>2026-04-29T15:50:23.999Z</time></trkpt><trkpt lat="42.23909372841927" lon="12.2299229776422"><ele>271.0</ele><time>2026-04-29T15:50:25.999Z</time></trkpt><trkpt lat="42.23915170190046" lon="12.229968248836869"><ele>271.0</ele><time>2026-04-29T15:50:28.999Z</time></trkpt><trkpt lat="42.23919689831139" lon="12.229904636742438"><ele>271.0</ele><time>2026-04-29T15:50:32.999Z</time></trkpt><trkpt lat="42.23928021562595" lon="12.230018583789068"><ele>271.2</ele><time>2026-04-29T15:50:33.999Z</time></trkpt><trkpt lat="42.239341485055604" lon="12.229956442676851"><ele>271.40000000000003</ele><time>2026-04-29T15:50:37.999Z</time></trkpt><trkpt lat="42.23926432197911" lon="12.229747669914506"><ele>271.6</ele><time>2026-04-29T15:50:41Z</time></trkpt><trkpt lat="42.23924391638779" lon="12.229614536755633"><ele>271.8</ele><time>2026-04-29T15:50:43Z</time></trkpt><trkpt lat="42.23924614365993" lon="12.229521518974979"><ele>272.0</ele><time>2026-04-29T15:50:45Z</time></trkpt><trkpt lat="42.23926728945828" lon="12.229436245168795"><ele>272.0</ele><time>2026-04-29T15:50:48Z</time></trkpt><trkpt lat="42.23921071674814" lon="12.229381113159503"><ele>272.0</ele><time>2026-04-29T15:51:11Z</time></trkpt><trkpt lat="42.239166130644286" lon="12.22944492129287"><ele>272.0</ele><time>2026-04-29T15:53:57Z</time></trkpt><trkpt lat="42.239182533491935" lon="12.229542096186513"><ele>272.0</ele><time>2026-04-29T15:54:00Z</time></trkpt><trkpt lat="42.23927907143222" lon="12.229557171356255"><ele>272.0</ele><time>2026-04-29T15:55:37Z</time></trkpt><trkpt lat="42.23935630150345" lon="12.229563164314047"><ele>272.0</ele><time>2026-04-29T15:55:40.999Z</time></trkpt><trkpt lat="42.2393931000302" lon="12.229676539370343"><ele>272.0</ele><time>2026-04-29T15:55:42.999Z</time></trkpt><trkpt lat="42.23944984572856" lon="12.229776888643883"><ele>272.0</ele><time>2026-04-29T15:55:46.999Z</time></trkpt><trkpt lat="42.23953537993083" lon="12.229767590420568"><ele>272.0</ele><time>2026-04-29T15:55:51.999Z</time></trkpt><trkpt lat="42.23960319645877" lon="12.229703892144727"><ele>272.0</ele><time>2026-04-29T15:55:52.999Z</time></trkpt><trkpt lat="42.23967371204874" lon="12.229633481993123"><ele>272.0</ele><time>2026-04-29T15:55:53.999Z</time></trkpt><trkpt lat="42.23976144699516" lon="12.229546806623338"><ele>270.5</ele><time>2026-04-29T15:55:54.999Z</time></trkpt><trkpt lat="42.23985593052933" lon="12.229446190478988"><ele>269.0</ele><time>2026-04-29T15:55:55.999Z</time></trkpt><trkpt lat="42.23994762559972" lon="12.229344690913035"><ele>267.5</ele><time>2026-04-29T15:55:56.999Z</time></trkpt><trkpt lat="42.24004759802191" lon="12.22923499404812"><ele>266.0</ele><time>2026-04-29T15:55:57.999Z</time></trkpt><trkpt lat="42.24013187601613" lon="12.229125136296426"><ele>266.0</ele><time>2026-04-29T15:55:58.999Z</time></trkpt><trkpt lat="42.24020104406076" lon="12.229004107949558"><ele>266.0</ele><time>2026-04-29T15:55:59.999Z</time></trkpt><trkpt lat="42.24025147264332" lon="12.228888184733778"><ele>266.0</ele><time>2026-04-29T15:56:00.999Z</time></trkpt><trkpt lat="42.2402902541583" lon="12.228773540839612"><ele>266.0</ele><time>2026-04-29T15:56:01.999Z</time></trkpt><trkpt lat="42.24032275676779" lon="12.228656593112003"><ele>266.0</ele><time>2026-04-29T15:56:02.999Z</time></trkpt><trkpt lat="42.24035406426306" lon="12.228527377082651"><ele>267.6</ele><time>2026-04-29T15:56:03.999Z</time></trkpt><trkpt lat="42.240377936869336" lon="12.228381658679705"><ele>269.20000000000005</ele><time>2026-04-29T15:56:04.999Z</time></trkpt><trkpt lat="42.24039225466452" lon="12.228228165580246"><ele>270.79999999999995</ele><time>2026-04-29T15:56:05.999Z</time></trkpt><trkpt lat="42.240408864350314" lon="12.228091991129629"><ele>272.4</ele><time>2026-04-29T15:56:06.999Z</time></trkpt><trkpt lat="42.24042266286412" lon="12.227969551355924"><ele>274.0</ele><time>2026-04-29T15:56:07.999Z</time></trkpt><trkpt lat="42.24043812562767" lon="12.227854119576353"><ele>274.3333333333333</ele><time>2026-04-29T15:56:08.999Z</time></trkpt><trkpt lat="42.24045056160704" lon="12.227741620838652"><ele>274.66666666666663</ele><time>2026-04-29T15:56:09.999Z</time></trkpt><trkpt lat="42.24046080313129" lon="12.227622990842615"><ele>275.0</ele><time>2026-04-29T15:56:10.999Z</time></trkpt><trkpt lat="42.240474336479444" lon="12.227496522224197"><ele>275.3333333333333</ele><time>2026-04-29T15:56:11.999Z</time></trkpt><trkpt lat="42.240488826614516" lon="12.227376514898747"><ele>275.6666666666667</ele><time>2026-04-29T15:56:12.999Z</time></trkpt><trkpt lat="42.24049860164199" lon="12.227275148684999"><ele>276.0</ele><time>2026-04-29T15:56:13.999Z</time></trkpt><trkpt lat="42.240514062211474" lon="12.227141880261815"><ele>276.0</ele><time>2026-04-29T15:56:15.999Z</time></trkpt><trkpt lat="42.24051977168286" lon="12.22705418609127"><ele>276.0</ele><time>2026-04-29T15:56:18.999Z</time></trkpt><trkpt lat="42.24052446649143" lon="12.226964839592213"><ele>276.0</ele><time>2026-04-29T15:56:26.999Z</time></trkpt><trkpt lat="42.24046933809649" lon="12.226910541231236"><ele>276.0</ele><time>2026-04-29T15:56:29.999Z</time></trkpt><trkpt lat="42.240222330775744" lon="12.226950776156233"><ele>276.0</ele><time>2026-04-29T15:56:37.999Z</time></trkpt><trkpt lat="42.240132353450065" lon="12.226941418247751"><ele>276.0</ele><time>2026-04-29T15:56:40.999Z</time></trkpt><trkpt lat="42.24004030332004" lon="12.226927114084242"><ele>276.0</ele><time>2026-04-29T15:56:43.999Z</time></trkpt><trkpt lat="42.23997134903712" lon="12.226919594071722"><ele>276.0</ele><time>2026-04-29T15:56:45.999Z</time></trkpt><trkpt lat="42.239904386280266" lon="12.226906412540789"><ele>276.0</ele><time>2026-04-29T15:56:47.999Z</time></trkpt><trkpt lat="42.239835479959225" lon="12.226896824844461"><ele>276.0</ele><time>2026-04-29T15:56:49.999Z</time></trkpt><trkpt lat="42.239765523359424" lon="12.226891111281619"><ele>276.0</ele><time>2026-04-29T15:56:51.999Z</time></trkpt><trkpt lat="42.239696816649406" lon="12.22687135852803"><ele>276.0</ele><time>2026-04-29T15:56:53.999Z</time></trkpt><trkpt lat="42.239640336239766" lon="12.226825547840658"><ele>275.8571428571429</ele><time>2026-04-29T15:56:55.999Z</time></trkpt><trkpt lat="42.23961279002074" lon="12.226739619354813"><ele>275.7142857142857</ele><time>2026-04-29T15:56:57.999Z</time></trkpt><trkpt lat="42.23961551871284" lon="12.226646564965199"><ele>275.57142857142856</ele><time>2026-04-29T15:56:59.999Z</time></trkpt><trkpt lat="42.23964827960527" lon="12.226552271409412"><ele>275.42857142857144</ele><time>2026-04-29T15:57:01.999Z</time></trkpt><trkpt lat="42.239655069878914" lon="12.226458175663224"><ele>275.2857142857143</ele><time>2026-04-29T15:57:03.999Z</time></trkpt><trkpt lat="42.23964594257259" lon="12.226374001030985"><ele>275.14285714285717</ele><time>2026-04-29T15:57:05.999Z</time></trkpt><trkpt lat="42.23958231458376" lon="12.226371000535977"><ele>275.0</ele><time>2026-04-29T15:57:07.999Z</time></trkpt><trkpt lat="42.23955395981421" lon="12.226472191480093"><ele>276.14285714285717</ele><time>2026-04-29T15:57:09.999Z</time></trkpt><trkpt lat="42.239568535717595" lon="12.226597063154939"><ele>277.2857142857143</ele><time>2026-04-29T15:57:11.999Z</time></trkpt><trkpt lat="42.239543818427386" lon="12.226703031440884"><ele>278.42857142857144</ele><time>2026-04-29T15:57:13.999Z</time></trkpt><trkpt lat="42.2395267771409" lon="12.22679421639404"><ele>279.57142857142856</ele><time>2026-04-29T15:57:15.999Z</time></trkpt><trkpt lat="42.2394868251754" lon="12.226872661683956"><ele>280.7142857142857</ele><time>2026-04-29T15:57:18.999Z</time></trkpt><trkpt lat="42.239421892691006" lon="12.22685920596377"><ele>281.8571428571429</ele><time>2026-04-29T15:57:47.999Z</time></trkpt><trkpt lat="42.239375181280494" lon="12.226800093511228"><ele>283.0</ele><time>2026-04-29T15:58:09.999Z</time></trkpt><trkpt lat="42.2393105322192" lon="12.22677677969753"><ele>283.0</ele><time>2026-04-29T15:58:24.999Z</time></trkpt><trkpt lat="42.239244374746875" lon="12.226737234324872"><ele>283.0</ele><time>2026-04-29T15:58:50.999Z</time></trkpt><trkpt lat="42.239187752023504" lon="12.226806214881103"><ele>283.0</ele><time>2026-04-29T15:59:07.999Z</time></trkpt><trkpt lat="42.239121614895076" lon="12.226808148434076"><ele>283.0</ele><time>2026-04-29T15:59:13.999Z</time></trkpt><trkpt lat="42.23907240848693" lon="12.2268715952804"><ele>283.0</ele><time>2026-04-29T15:59:33.999Z</time></trkpt><trkpt lat="42.23912003865304" lon="12.226813940873953"><ele>283.0</ele><time>2026-04-29T16:01:08.999Z</time></trkpt><trkpt lat="42.239186643857906" lon="12.226783258353706"><ele>283.0</ele><time>2026-04-29T16:01:17Z</time></trkpt><trkpt lat="42.239251940097006" lon="12.226771084095688"><ele>283.0</ele><time>2026-04-29T16:01:30Z</time></trkpt><trkpt lat="42.239281900740444" lon="12.226695481180961"><ele>283.0</ele><time>2026-04-29T16:01:37Z</time></trkpt><trkpt lat="42.23929682923696" lon="12.226597902640691"><ele>283.0</ele><time>2026-04-29T16:01:44Z</time></trkpt><trkpt lat="42.23934912432417" lon="12.226547114713384"><ele>283.0</ele><time>2026-04-29T16:01:58Z</time></trkpt><trkpt lat="42.239386769409855" lon="12.226478251610887"><ele>283.0</ele><time>2026-04-29T16:02:34Z</time></trkpt><trkpt lat="42.23937582478084" lon="12.226571005363734"><ele>283.0</ele><time>2026-04-29T16:05:01Z</time></trkpt><trkpt lat="42.239411291917094" lon="12.22667983434954"><ele>283.0</ele><time>2026-04-29T16:05:45.999Z</time></trkpt><trkpt lat="42.23935561038226" lon="12.226731629249976"><ele>283.0</ele><time>2026-04-29T16:06:06.999Z</time></trkpt><trkpt lat="42.239288528093894" lon="12.22672624272533"><ele>283.0</ele><time>2026-04-29T16:06:11.999Z</time></trkpt><trkpt lat="42.23935073109822" lon="12.226769414970835"><ele>283.0</ele><time>2026-04-29T16:06:20.999Z</time></trkpt><trkpt lat="42.23941783796304" lon="12.226782743703875"><ele>283.0</ele><time>2026-04-29T16:06:47.999Z</time></trkpt><trkpt lat="42.2395002335321" lon="12.22680171178684"><ele>283.0</ele><time>2026-04-29T16:09:36.999Z</time></trkpt><trkpt lat="42.23952329294171" lon="12.226685287540544"><ele>283.0</ele><time>2026-04-29T16:09:39.999Z</time></trkpt><trkpt lat="42.23954242602112" lon="12.226572913677783"><ele>283.0</ele><time>2026-04-29T16:09:41.999Z</time></trkpt><trkpt lat="42.23955507779398" lon="12.226455904453253"><ele>283.0</ele><time>2026-04-29T16:09:43.999Z</time></trkpt><trkpt lat="42.239564277680024" lon="12.226344467392396"><ele>283.0</ele><time>2026-04-29T16:09:45.999Z</time></trkpt><trkpt lat="42.2396335770714" lon="12.226304417673894"><ele>283.0</ele><time>2026-04-29T16:09:48.999Z</time></trkpt><trkpt lat="42.23964948714895" lon="12.226392207680403"><ele>283.0</ele><time>2026-04-29T16:09:50.999Z</time></trkpt><trkpt lat="42.23962612638273" lon="12.226512011646488"><ele>283.0</ele><time>2026-04-29T16:09:53.999Z</time></trkpt><trkpt lat="42.23958815765643" lon="12.226619929896655"><ele>283.0</ele><time>2026-04-29T16:09:55.999Z</time></trkpt><trkpt lat="42.23958428800802" lon="12.226711984963234"><ele>283.0</ele><time>2026-04-29T16:09:57.999Z</time></trkpt><trkpt lat="42.23961069288998" lon="12.226794514305348"><ele>283.0</ele><time>2026-04-29T16:09:59.999Z</time></trkpt><trkpt lat="42.23966987951596" lon="12.226849352840613"><ele>283.0</ele><time>2026-04-29T16:10:01.999Z</time></trkpt><trkpt lat="42.23975175460971" lon="12.226871664478873"><ele>283.0</ele><time>2026-04-29T16:10:03.999Z</time></trkpt><trkpt lat="42.239839104382085" lon="12.226886793410994"><ele>283.0</ele><time>2026-04-29T16:10:05.999Z</time></trkpt><trkpt lat="42.239929244510215" lon="12.226896248362278"><ele>281.8333333333333</ele><time>2026-04-29T16:10:07.999Z</time></trkpt><trkpt lat="42.240013454760486" lon="12.226904743914398"><ele>280.66666666666663</ele><time>2026-04-29T16:10:09.999Z</time></trkpt><trkpt lat="42.24008963664269" lon="12.226909856355608"><ele>279.5</ele><time>2026-04-29T16:10:11.999Z</time></trkpt><trkpt lat="42.24016397548582" lon="12.226919538581946"><ele>278.3333333333333</ele><time>2026-04-29T16:10:13.999Z</time></trkpt><trkpt lat="42.240226909460105" lon="12.226939772323973"><ele>277.1666666666667</ele><time>2026-04-29T16:10:15.999Z</time></trkpt><trkpt lat="42.24030935365072" lon="12.226955611947425"><ele>276.0</ele><time>2026-04-29T16:10:19Z</time></trkpt><trkpt lat="42.24038399324934" lon="12.226953688091456"><ele>276.0</ele><time>2026-04-29T16:10:22Z</time></trkpt><trkpt lat="42.24045491016601" lon="12.226964886802985"><ele>276.0</ele><time>2026-04-29T16:10:27Z</time></trkpt><trkpt lat="42.2405297375739" lon="12.226941889281433"><ele>276.0</ele><time>2026-04-29T16:10:36Z</time></trkpt><trkpt lat="42.24056388340049" lon="12.226791064737142"><ele>276.0</ele><time>2026-04-29T16:10:38Z</time></trkpt><trkpt lat="42.24058332525013" lon="12.226630372940141"><ele>276.0</ele><time>2026-04-29T16:10:40Z</time></trkpt><trkpt lat="42.2405877253824" lon="12.226531839379591"><ele>275.40000000000003</ele><time>2026-04-29T16:10:41Z</time></trkpt><trkpt lat="42.24060529205799" lon="12.226425780866668"><ele>274.8</ele><time>2026-04-29T16:10:42Z</time></trkpt><trkpt lat="42.24062381146254" lon="12.226319331424436"><ele>274.20000000000005</ele><time>2026-04-29T16:10:43Z</time></trkpt><trkpt lat="42.24064184657269" lon="12.226210355183497"><ele>273.6</ele><time>2026-04-29T16:10:44Z</time></trkpt><trkpt lat="42.24065617950906" lon="12.226079658011129"><ele>273.0</ele><time>2026-04-29T16:10:45Z</time></trkpt><trkpt lat="42.24065164560238" lon="12.225932851003101"><ele>271.75</ele><time>2026-04-29T16:10:46Z</time></trkpt><trkpt lat="42.240638806564114" lon="12.225770021033945"><ele>270.5</ele><time>2026-04-29T16:10:47Z</time></trkpt><trkpt lat="42.24061537117381" lon="12.225596004444181"><ele>269.25</ele><time>2026-04-29T16:10:48Z</time></trkpt><trkpt lat="42.24058821365632" lon="12.22544358708733"><ele>268.0</ele><time>2026-04-29T16:10:49Z</time></trkpt><trkpt lat="42.24056248923549" lon="12.225277581663482"><ele>268.0</ele><time>2026-04-29T16:10:50Z</time></trkpt><trkpt lat="42.24055294745803" lon="12.225121304185837"><ele>268.0</ele><time>2026-04-29T16:10:51Z</time></trkpt><trkpt lat="42.24057240817833" lon="12.224979444775977"><ele>268.0</ele><time>2026-04-29T16:10:52Z</time></trkpt><trkpt lat="42.24060609992732" lon="12.224856095324993"><ele>268.0</ele><time>2026-04-29T16:10:53Z</time></trkpt><trkpt lat="42.240661717287466" lon="12.224741355696292"><ele>268.0</ele><time>2026-04-29T16:10:54Z</time></trkpt><trkpt lat="42.24069113621513" lon="12.224650018509458"><ele>269.5</ele><time>2026-04-29T16:10:55Z</time></trkpt><trkpt lat="42.2407048995014" lon="12.224546241616219"><ele>271.0</ele><time>2026-04-29T16:10:57Z</time></trkpt><trkpt lat="42.24066607515876" lon="12.224425592894487"><ele>272.5</ele><time>2026-04-29T16:11:01Z</time></trkpt><trkpt lat="42.24071625360651" lon="12.224302106402964"><ele>274.0</ele><time>2026-04-29T16:11:03Z</time></trkpt><trkpt lat="42.24073101273548" lon="12.22421677856703"><ele>275.5</ele><time>2026-04-29T16:11:04Z</time></trkpt><trkpt lat="42.24075225830247" lon="12.224115303766764"><ele>277.0</ele><time>2026-04-29T16:11:05Z</time></trkpt><trkpt lat="42.240767515853626" lon="12.224009561290705"><ele>276.3333333333333</ele><time>2026-04-29T16:11:06Z</time></trkpt><trkpt lat="42.24077700302824" lon="12.223888393046327"><ele>275.66666666666663</ele><time>2026-04-29T16:11:07Z</time></trkpt><trkpt lat="42.24078613506045" lon="12.223770429975191"><ele>275.0</ele><time>2026-04-29T16:11:08Z</time></trkpt><trkpt lat="42.240795962596124" lon="12.22366116103661"><ele>274.3333333333333</ele><time>2026-04-29T16:11:09Z</time></trkpt><trkpt lat="42.240799377203366" lon="12.22354100562731"><ele>273.6666666666667</ele><time>2026-04-29T16:11:10Z</time></trkpt><trkpt lat="42.24080300635306" lon="12.223434507528225"><ele>273.0</ele><time>2026-04-29T16:11:11Z</time></trkpt><trkpt lat="42.24080737228413" lon="12.223336979772375"><ele>273.0</ele><time>2026-04-29T16:11:12Z</time></trkpt><trkpt lat="42.24081415617267" lon="12.223194654935954"><ele>273.0</ele><time>2026-04-29T16:11:14Z</time></trkpt><trkpt lat="42.24079992482608" lon="12.22311020298045"><ele>273.0</ele><time>2026-04-29T16:11:15Z</time></trkpt><trkpt lat="42.24075303718181" lon="12.223035022176784"><ele>273.0</ele><time>2026-04-29T16:11:16Z</time></trkpt><trkpt lat="42.2406695112944" lon="12.222966419003152"><ele>273.0</ele><time>2026-04-29T16:11:18Z</time></trkpt><trkpt lat="42.2406015826996" lon="12.222866981646474"><ele>273.0</ele><time>2026-04-29T16:11:20Z</time></trkpt><trkpt lat="42.24052758433164" lon="12.222746712541147"><ele>272.25</ele><time>2026-04-29T16:11:22Z</time></trkpt><trkpt lat="42.240454722389394" lon="12.22262127713584"><ele>271.5</ele><time>2026-04-29T16:11:24Z</time></trkpt><trkpt lat="42.24038736842905" lon="12.222483656799774"><ele>270.75</ele><time>2026-04-29T16:11:26Z</time></trkpt><trkpt lat="42.24033101873731" lon="12.222338835787001"><ele>270.0</ele><time>2026-04-29T16:11:28Z</time></trkpt><trkpt lat="42.24027639865856" lon="12.222205696897738"><ele>270.0</ele><time>2026-04-29T16:11:30Z</time></trkpt><trkpt lat="42.2402158325498" lon="12.222109821347352"><ele>270.0</ele><time>2026-04-29T16:11:32Z</time></trkpt><trkpt lat="42.24014093481474" lon="12.222043108957003"><ele>270.0</ele><time>2026-04-29T16:11:34Z</time></trkpt><trkpt lat="42.240049822265604" lon="12.222014748356182"><ele>270.0</ele><time>2026-04-29T16:11:36Z</time></trkpt><trkpt lat="42.23997091904338" lon="12.222005184802216"><ele>270.0</ele><time>2026-04-29T16:11:38Z</time></trkpt><trkpt lat="42.239893046751384" lon="12.222009937078614"><ele>270.0</ele><time>2026-04-29T16:11:41Z</time></trkpt><trkpt lat="42.23983288543046" lon="12.221977468695648"><ele>270.0</ele><time>2026-04-29T16:11:45Z</time></trkpt><trkpt lat="42.23980637973462" lon="12.221879703986568"><ele>270.0</ele><time>2026-04-29T16:11:48Z</time></trkpt><trkpt lat="42.23982986413612" lon="12.221959847620134"><ele>270.0</ele><time>2026-04-29T16:12:51.001Z</time></trkpt><trkpt lat="42.239885356585546" lon="12.222010623597907"><ele>270.0</ele><time>2026-04-29T16:12:55.001Z</time></trkpt><trkpt lat="42.23993946321773" lon="12.222055626198323"><ele>270.0</ele><time>2026-04-29T16:13:36.001Z</time></trkpt><trkpt lat="42.24000664972057" lon="12.222038500434241"><ele>270.0</ele><time>2026-04-29T16:13:44.001Z</time></trkpt><trkpt lat="42.23994210773375" lon="12.222055993421272"><ele>270.0</ele><time>2026-04-29T16:14:44.001Z</time></trkpt><trkpt lat="42.24003186189728" lon="12.222089456331924"><ele>270.0</ele><time>2026-04-29T16:15:10.001Z</time></trkpt><trkpt lat="42.24010558831919" lon="12.222120021416949"><ele>270.0</ele><time>2026-04-29T16:15:12.001Z</time></trkpt><trkpt lat="42.24016648233583" lon="12.222173200361667"><ele>270.0</ele><time>2026-04-29T16:15:14.001Z</time></trkpt><trkpt lat="42.24023335998472" lon="12.222257194051473"><ele>270.0</ele><time>2026-04-29T16:15:16.001Z</time></trkpt><trkpt lat="42.24029464725962" lon="12.222377318990285"><ele>270.0</ele><time>2026-04-29T16:15:18.001Z</time></trkpt><trkpt lat="42.24035723703435" lon="12.222498719142925"><ele>269.8</ele><time>2026-04-29T16:15:20.001Z</time></trkpt><trkpt lat="42.240416187623026" lon="12.222613276043942"><ele>269.6</ele><time>2026-04-29T16:15:22.001Z</time></trkpt><trkpt lat="42.24047818887614" lon="12.222741961683779"><ele>269.4</ele><time>2026-04-29T16:15:24.001Z</time></trkpt><trkpt lat="42.24054036788999" lon="12.222871705189101"><ele>269.2</ele><time>2026-04-29T16:15:26.001Z</time></trkpt><trkpt lat="42.24058921181942" lon="12.222963760832789"><ele>269.0</ele><time>2026-04-29T16:15:28.001Z</time></trkpt><trkpt lat="42.240651939337745" lon="12.223045089622959"><ele>269.0</ele><time>2026-04-29T16:15:30.001Z</time></trkpt><trkpt lat="42.24072597738708" lon="12.22310980048255"><ele>269.0</ele><time>2026-04-29T16:15:32.001Z</time></trkpt><trkpt lat="42.24077503591162" lon="12.223188791856918"><ele>269.0</ele><time>2026-04-29T16:15:34.001Z</time></trkpt><trkpt lat="42.24078620996509" lon="12.22331005056414"><ele>269.0</ele><time>2026-04-29T16:15:36.001Z</time></trkpt><trkpt lat="42.24077673038114" lon="12.223503660419805"><ele>269.0</ele><time>2026-04-29T16:15:38.001Z</time></trkpt><trkpt lat="42.240776498899216" lon="12.223626542582814"><ele>269.6666666666667</ele><time>2026-04-29T16:15:39.001Z</time></trkpt><trkpt lat="42.24077154125113" lon="12.22374789285073"><ele>270.33333333333337</ele><time>2026-04-29T16:15:40.001Z</time></trkpt><trkpt lat="42.24074689167338" lon="12.223869770595275"><ele>271.0</ele><time>2026-04-29T16:15:41.001Z</time></trkpt><trkpt lat="42.24073010926989" lon="12.223980933351177"><ele>271.6666666666667</ele><time>2026-04-29T16:15:42.001Z</time></trkpt><trkpt lat="42.24070757626616" lon="12.224079803889845"><ele>272.3333333333333</ele><time>2026-04-29T16:15:43.001Z</time></trkpt><trkpt lat="42.240691136027465" lon="12.224175645747744"><ele>273.0</ele><time>2026-04-29T16:15:44.001Z</time></trkpt><trkpt lat="42.24064256103014" lon="12.224321969107423"><ele>272.0</ele><time>2026-04-29T16:15:46.001Z</time></trkpt><trkpt lat="42.24062466173176" lon="12.224416887044505"><ele>271.0</ele><time>2026-04-29T16:15:48.001Z</time></trkpt><trkpt lat="42.240627193804826" lon="12.224540360328861"><ele>270.0</ele><time>2026-04-29T16:15:58.001Z</time></trkpt><trkpt lat="42.240608492997694" lon="12.224670201294943"><ele>269.0</ele><time>2026-04-29T16:16:02.001Z</time></trkpt><trkpt lat="42.24057295322891" lon="12.224746185530927"><ele>268.0</ele><time>2026-04-29T16:16:03.001Z</time></trkpt><trkpt lat="42.240516105125536" lon="12.224927935286809"><ele>268.0</ele><time>2026-04-29T16:16:05.001Z</time></trkpt><trkpt lat="42.24049822219684" lon="12.225054886360398"><ele>268.0</ele><time>2026-04-29T16:16:06.001Z</time></trkpt><trkpt lat="42.24049589142994" lon="12.22518969423994"><ele>268.0</ele><time>2026-04-29T16:16:07.001Z</time></trkpt><trkpt lat="42.24051074069169" lon="12.225346652275396"><ele>268.0</ele><time>2026-04-29T16:16:08.001Z</time></trkpt><trkpt lat="42.24053906570552" lon="12.225510620600861"><ele>268.0</ele><time>2026-04-29T16:16:09.001Z</time></trkpt><trkpt lat="42.24056361235038" lon="12.22568416505265"><ele>269.25</ele><time>2026-04-29T16:16:10.001Z</time></trkpt><trkpt lat="42.24057247746375" lon="12.225877329599246"><ele>270.5</ele><time>2026-04-29T16:16:11.001Z</time></trkpt><trkpt lat="42.2405711127609" lon="12.226056661535727"><ele>271.75</ele><time>2026-04-29T16:16:12.001Z</time></trkpt><trkpt lat="42.24056061731863" lon="12.226205955709279"><ele>273.0</ele><time>2026-04-29T16:16:13.001Z</time></trkpt><trkpt lat="42.240546964882576" lon="12.2263401003118"><ele>273.0</ele><time>2026-04-29T16:16:14.001Z</time></trkpt><trkpt lat="42.24053312138409" lon="12.226466593989146"><ele>273.0</ele><time>2026-04-29T16:16:15.001Z</time></trkpt><trkpt lat="42.24052076636527" lon="12.226587384516685"><ele>273.0</ele><time>2026-04-29T16:16:16.001Z</time></trkpt><trkpt lat="42.24051226736952" lon="12.226694161334294"><ele>273.0</ele><time>2026-04-29T16:16:17.001Z</time></trkpt><trkpt lat="42.240503913656056" lon="12.22678249074026"><ele>273.0</ele><time>2026-04-29T16:16:18.001Z</time></trkpt><trkpt lat="42.24049309639232" lon="12.226894865923187"><ele>273.0</ele><time>2026-04-29T16:16:20.001Z</time></trkpt><trkpt lat="42.2404282009982" lon="12.226932303861519"><ele>273.0</ele><time>2026-04-29T16:16:23.001Z</time></trkpt><trkpt lat="42.24045766859006" lon="12.226823153485125"><ele>273.0</ele><time>2026-04-29T16:16:26.001Z</time></trkpt><trkpt lat="42.24044923334127" lon="12.226672313238291"><ele>273.0</ele><time>2026-04-29T16:16:28.001Z</time></trkpt><trkpt lat="42.24045771340567" lon="12.226567615819933"><ele>273.0</ele><time>2026-04-29T16:16:29.001Z</time></trkpt><trkpt lat="42.24047163867892" lon="12.226473026442081"><ele>273.0</ele><time>2026-04-29T16:16:30.001Z</time></trkpt><trkpt lat="42.24048119568614" lon="12.226337964613812"><ele>273.0</ele><time>2026-04-29T16:16:32.001Z</time></trkpt><trkpt lat="42.24050452864309" lon="12.226239896453308"><ele>273.0</ele><time>2026-04-29T16:16:35.001Z</time></trkpt><trkpt lat="42.24053731320849" lon="12.226153360476049"><ele>273.0</ele><time>2026-04-29T16:17:07.001Z</time></trkpt><trkpt lat="42.24063790694619" lon="12.226129862913208"><ele>273.0</ele><time>2026-04-29T16:17:12.001Z</time></trkpt><trkpt lat="42.24069639922778" lon="12.226068305239279"><ele>273.0</ele><time>2026-04-29T16:17:40.001Z</time></trkpt><trkpt lat="42.24069738374185" lon="12.225977628398729"><ele>273.0</ele><time>2026-04-29T16:17:46.001Z</time></trkpt><trkpt lat="42.24073042355761" lon="12.225904803309968"><ele>273.0</ele><time>2026-04-29T16:18:08.001Z</time></trkpt><trkpt lat="42.24069959725728" lon="12.225979496828282"><ele>273.0</ele><time>2026-04-29T16:19:11.001Z</time></trkpt><trkpt lat="42.24065615981318" lon="12.226043869048771"><ele>273.0</ele><time>2026-04-29T16:19:24.001Z</time></trkpt><trkpt lat="42.24065070434203" lon="12.226132409305063"><ele>273.0</ele><time>2026-04-29T16:19:30.001Z</time></trkpt><trkpt lat="42.24059658960252" lon="12.226187619842625"><ele>273.0</ele><time>2026-04-29T16:19:39.001Z</time></trkpt><trkpt lat="42.240536691348865" lon="12.226232206360967"><ele>273.0</ele><time>2026-04-29T16:19:45.001Z</time></trkpt><trkpt lat="42.240569174436324" lon="12.226144480118565"><ele>273.0</ele><time>2026-04-29T16:20:26Z</time></trkpt><trkpt lat="42.24062942355963" lon="12.226067494573902"><ele>273.0</ele><time>2026-04-29T16:20:29Z</time></trkpt><trkpt lat="42.24066457540942" lon="12.225984919865754"><ele>273.0</ele><time>2026-04-29T16:20:30Z</time></trkpt><trkpt lat="42.2407020133514" lon="12.22589303871646"><ele>274.4</ele><time>2026-04-29T16:20:31Z</time></trkpt><trkpt lat="42.24077643047417" lon="12.225789968961337"><ele>275.8</ele><time>2026-04-29T16:20:33Z</time></trkpt><trkpt lat="42.24082057065859" lon="12.225704056230475"><ele>277.2</ele><time>2026-04-29T16:20:36Z</time></trkpt><trkpt lat="42.24084510008983" lon="12.225600697277622"><ele>278.6</ele><time>2026-04-29T16:20:37Z</time></trkpt><trkpt lat="42.24084814520291" lon="12.225454625492121"><ele>280.0</ele><time>2026-04-29T16:20:39Z</time></trkpt><trkpt lat="42.24085312405685" lon="12.225297058155443"><ele>280.0</ele><time>2026-04-29T16:20:41Z</time></trkpt><trkpt lat="42.24087330401586" lon="12.225207996410964"><ele>280.0</ele><time>2026-04-29T16:20:42Z</time></trkpt><trkpt lat="42.240895635302635" lon="12.225121606927088"><ele>280.0</ele><time>2026-04-29T16:20:43Z</time></trkpt><trkpt lat="42.240920702037705" lon="12.225037484164657"><ele>280.0</ele><time>2026-04-29T16:20:44Z</time></trkpt><trkpt lat="42.240949425229076" lon="12.224960384328204"><ele>280.0</ele><time>2026-04-29T16:20:45Z</time></trkpt><trkpt lat="42.24098525228919" lon="12.224887805442208"><ele>280.0</ele><time>2026-04-29T16:20:46Z</time></trkpt><trkpt lat="42.241066083674376" lon="12.224738273008068"><ele>279.5</ele><time>2026-04-29T16:20:48Z</time></trkpt><trkpt lat="42.24112558423963" lon="12.224641798054765"><ele>279.0</ele><time>2026-04-29T16:20:50Z</time></trkpt><trkpt lat="42.24118111572071" lon="12.224516591474345"><ele>278.5</ele><time>2026-04-29T16:20:52Z</time></trkpt><trkpt lat="42.24126667932426" lon="12.224432768792559"><ele>278.0</ele><time>2026-04-29T16:20:54Z</time></trkpt><trkpt lat="42.241207528479954" lon="12.224398281837882"><ele>277.5</ele><time>2026-04-29T16:21:17Z</time></trkpt><trkpt lat="42.2411565393433" lon="12.224453771380094"><ele>277.0</ele><time>2026-04-29T16:21:39Z</time></trkpt><trkpt lat="42.24115532348212" lon="12.224543464668134"><ele>277.0</ele><time>2026-04-29T16:22:05Z</time></trkpt><trkpt lat="42.241113181795164" lon="12.224607033192695"><ele>277.0</ele><time>2026-04-29T16:22:12Z</time></trkpt><trkpt lat="42.24117821474417" lon="12.22459658411029"><ele>277.0</ele><time>2026-04-29T16:24:19.001Z</time></trkpt><trkpt lat="42.241236144963466" lon="12.224554995300787"><ele>277.0</ele><time>2026-04-29T16:24:40Z</time></trkpt><trkpt lat="42.24122123048503" lon="12.224469607023995"><ele>277.0</ele><time>2026-04-29T16:25:21.001Z</time></trkpt><trkpt lat="42.24118496776483" lon="12.224389199743028"><ele>277.0</ele><time>2026-04-29T16:25:58.001Z</time></trkpt><trkpt lat="42.24117420325858" lon="12.224475929481374"><ele>277.0</ele><time>2026-04-29T16:26:06.001Z</time></trkpt><trkpt lat="42.241148831933764" lon="12.224580210095695"><ele>277.0</ele><time>2026-04-29T16:26:09.001Z</time></trkpt><trkpt lat="42.241149795399664" lon="12.224672089443002"><ele>277.0</ele><time>2026-04-29T16:27:02Z</time></trkpt><trkpt lat="42.24112572152299" lon="12.224765241140888"><ele>277.0</ele><time>2026-04-29T16:27:04Z</time></trkpt><trkpt lat="42.24109236365263" lon="12.224873530567576"><ele>277.0</ele><time>2026-04-29T16:27:06Z</time></trkpt><trkpt lat="42.2411093601657" lon="12.224997081566011"><ele>277.0</ele><time>2026-04-29T16:27:08Z</time></trkpt><trkpt lat="42.241107694750006" lon="12.225151534275355"><ele>277.0</ele><time>2026-04-29T16:27:10Z</time></trkpt><trkpt lat="42.241113223080376" lon="12.225316177284702"><ele>277.5</ele><time>2026-04-29T16:27:12Z</time></trkpt><trkpt lat="42.24112139270778" lon="12.225432081737456"><ele>278.0</ele><time>2026-04-29T16:27:14Z</time></trkpt><trkpt lat="42.24110095723075" lon="12.225522495235255"><ele>278.5</ele><time>2026-04-29T16:27:16Z</time></trkpt><trkpt lat="42.2411158334059" lon="12.225619718103642"><ele>279.0</ele><time>2026-04-29T16:27:18Z</time></trkpt><trkpt lat="42.24112606319068" lon="12.225717370734532"><ele>279.5</ele><time>2026-04-29T16:27:20Z</time></trkpt><trkpt lat="42.24119071993496" lon="12.22580212589608"><ele>280.0</ele><time>2026-04-29T16:27:47Z</time></trkpt><trkpt lat="42.24115470373915" lon="12.225898440934342"><ele>280.3333333333333</ele><time>2026-04-29T16:27:50Z</time></trkpt><trkpt lat="42.24109233740924" lon="12.225945856730581"><ele>280.66666666666663</ele><time>2026-04-29T16:27:52Z</time></trkpt><trkpt lat="42.241017454394964" lon="12.225980714574007"><ele>281.0</ele><time>2026-04-29T16:27:55Z</time></trkpt><trkpt lat="42.24094836537575" lon="12.226038064568396"><ele>281.3333333333333</ele><time>2026-04-29T16:28:01Z</time></trkpt><trkpt lat="42.24093554895845" lon="12.22614843384657"><ele>281.6666666666667</ele><time>2026-04-29T16:28:03Z</time></trkpt><trkpt lat="42.24090369058453" lon="12.226257408049856"><ele>282.0</ele><time>2026-04-29T16:28:05Z</time></trkpt><trkpt lat="42.24089107407286" lon="12.226369497182898"><ele>282.0</ele><time>2026-04-29T16:28:08Z</time></trkpt><trkpt lat="42.24087009073576" lon="12.226469508032782"><ele>282.0</ele><time>2026-04-29T16:28:10Z</time></trkpt><trkpt lat="42.24084535552802" lon="12.226565822627938"><ele>282.0</ele><time>2026-04-29T16:28:12Z</time></trkpt><trkpt lat="42.24084113821487" lon="12.22667696789157"><ele>282.0</ele><time>2026-04-29T16:28:14Z</time></trkpt><trkpt lat="42.24084199226505" lon="12.226791652260683"><ele>282.0</ele><time>2026-04-29T16:28:16Z</time></trkpt><trkpt lat="42.24085681485052" lon="12.226944140350364"><ele>282.0</ele><time>2026-04-29T16:28:18Z</time></trkpt><trkpt lat="42.24086720368977" lon="12.227051773071196"><ele>282.1666666666667</ele><time>2026-04-29T16:28:20Z</time></trkpt><trkpt lat="42.24089959444374" lon="12.227171390110476"><ele>282.3333333333333</ele><time>2026-04-29T16:28:22Z</time></trkpt><trkpt lat="42.240951431972356" lon="12.22727865874358"><ele>282.5</ele><time>2026-04-29T16:28:24Z</time></trkpt><trkpt lat="42.24097672866586" lon="12.22738492356093"><ele>282.66666666666663</ele><time>2026-04-29T16:28:26Z</time></trkpt><trkpt lat="42.24101801269538" lon="12.227461690925127"><ele>282.8333333333333</ele><time>2026-04-29T16:28:28Z</time></trkpt><trkpt lat="42.24106692974136" lon="12.22753289494922"><ele>283.0</ele><time>2026-04-29T16:28:31Z</time></trkpt><trkpt lat="42.24111988411515" lon="12.227597221841059"><ele>282.16666666666663</ele><time>2026-04-29T16:28:39Z</time></trkpt><trkpt lat="42.24110097665375" lon="12.227690670480241"><ele>281.3333333333333</ele><time>2026-04-29T16:28:42Z</time></trkpt><trkpt lat="42.24109440485853" lon="12.227777238663709"><ele>280.5</ele><time>2026-04-29T16:28:44Z</time></trkpt><trkpt lat="42.241085200370065" lon="12.2279420578604"><ele>279.6666666666667</ele><time>2026-04-29T16:28:46Z</time></trkpt><trkpt lat="42.24106926670963" lon="12.228046905489194"><ele>278.83333333333337</ele><time>2026-04-29T16:28:47Z</time></trkpt><trkpt lat="42.24102823357133" lon="12.228151174481201"><ele>278.0</ele><time>2026-04-29T16:28:48Z</time></trkpt><trkpt lat="42.24094584803222" lon="12.228208846611661"><ele>277.2</ele><time>2026-04-29T16:28:49Z</time></trkpt><trkpt lat="42.240873182556186" lon="12.228295123292575"><ele>276.4</ele><time>2026-04-29T16:28:50Z</time></trkpt><trkpt lat="42.24080139209744" lon="12.228405445393156"><ele>275.59999999999997</ele><time>2026-04-29T16:28:51Z</time></trkpt><trkpt lat="42.24070563286437" lon="12.22850344597561"><ele>274.8</ele><time>2026-04-29T16:28:52Z</time></trkpt><trkpt lat="42.24062033472833" lon="12.22859471522059"><ele>274.0</ele><time>2026-04-29T16:28:53Z</time></trkpt><trkpt lat="42.2405425214108" lon="12.228645250544721"><ele>274.0</ele><time>2026-04-29T16:28:54Z</time></trkpt><trkpt lat="42.240491373998985" lon="12.228700734146742"><ele>274.0</ele><time>2026-04-29T16:28:55Z</time></trkpt><trkpt lat="42.2404082559894" lon="12.228802269440765"><ele>274.0</ele><time>2026-04-29T16:28:57Z</time></trkpt><trkpt lat="42.24033113027524" lon="12.22886833813047"><ele>274.0</ele><time>2026-04-29T16:28:59Z</time></trkpt><trkpt lat="42.240299789932486" lon="12.228724447396969"><ele>274.0</ele><time>2026-04-29T16:29:03Z</time></trkpt><trkpt lat="42.240329602159136" lon="12.228616442218984"><ele>274.0</ele><time>2026-04-29T16:29:04Z</time></trkpt><trkpt lat="42.24035517681129" lon="12.228487195836838"><ele>274.0</ele><time>2026-04-29T16:29:05Z</time></trkpt><trkpt lat="42.24037934971099" lon="12.228337511891356"><ele>274.0</ele><time>2026-04-29T16:29:06Z</time></trkpt><trkpt lat="42.24040005926612" lon="12.228170407908568"><ele>274.0</ele><time>2026-04-29T16:29:07Z</time></trkpt><trkpt lat="42.240419552269685" lon="12.227975012844583"><ele>275.3333333333333</ele><time>2026-04-29T16:29:08Z</time></trkpt><trkpt lat="42.24044175115974" lon="12.227767989652587"><ele>276.6666666666667</ele><time>2026-04-29T16:29:09Z</time></trkpt><trkpt lat="42.240466527871966" lon="12.227559108247238"><ele>278.0</ele><time>2026-04-29T16:29:10Z</time></trkpt><trkpt lat="42.24049420581028" lon="12.227333726016782"><ele>277.33333333333337</ele><time>2026-04-29T16:29:11Z</time></trkpt><trkpt lat="42.24052131645781" lon="12.227115330850145"><ele>276.6666666666667</ele><time>2026-04-29T16:29:12Z</time></trkpt><trkpt lat="42.24054179843617" lon="12.226914652667086"><ele>276.0</ele><time>2026-04-29T16:29:13Z</time></trkpt><trkpt lat="42.240558346452914" lon="12.226723735627289"><ele>276.0</ele><time>2026-04-29T16:29:14Z</time></trkpt><trkpt lat="42.24057322985038" lon="12.22655883073169"><ele>276.0</ele><time>2026-04-29T16:29:15Z</time></trkpt><trkpt lat="42.24059017743441" lon="12.226413166832232"><ele>276.0</ele><time>2026-04-29T16:29:16Z</time></trkpt><trkpt lat="42.240603820287994" lon="12.22628178544229"><ele>276.0</ele><time>2026-04-29T16:29:17Z</time></trkpt><trkpt lat="42.240614167908355" lon="12.226170470478044"><ele>276.0</ele><time>2026-04-29T16:29:18Z</time></trkpt><trkpt lat="42.24062719443333" lon="12.226083276295572"><ele>276.8</ele><time>2026-04-29T16:29:19Z</time></trkpt><trkpt lat="42.240671571142805" lon="12.225968748582254"><ele>277.6</ele><time>2026-04-29T16:29:21Z</time></trkpt><trkpt lat="42.24074293758071" lon="12.225874714970061"><ele>278.4</ele><time>2026-04-29T16:29:23Z</time></trkpt><trkpt lat="42.24082208609357" lon="12.225769542741359"><ele>279.2</ele><time>2026-04-29T16:29:25Z</time></trkpt><trkpt lat="42.24087867542528" lon="12.225654089758393"><ele>280.0</ele><time>2026-04-29T16:29:27Z</time></trkpt><trkpt lat="42.24087420987206" lon="12.225535010986203"><ele>280.0</ele><time>2026-04-29T16:29:29Z</time></trkpt><trkpt lat="42.240855714525495" lon="12.22539379015302"><ele>280.0</ele><time>2026-04-29T16:29:31Z</time></trkpt><trkpt lat="42.24086729564371" lon="12.225244896267425"><ele>280.0</ele><time>2026-04-29T16:29:33Z</time></trkpt><trkpt lat="42.240904625852124" lon="12.22510161287322"><ele>280.0</ele><time>2026-04-29T16:29:35Z</time></trkpt><trkpt lat="42.24095056893387" lon="12.224970122017934"><ele>280.0</ele><time>2026-04-29T16:29:37Z</time></trkpt><trkpt lat="42.24100129565791" lon="12.224832075479213"><ele>279.25</ele><time>2026-04-29T16:29:39Z</time></trkpt><trkpt lat="42.241068787845094" lon="12.224710372466939"><ele>278.5</ele><time>2026-04-29T16:29:41Z</time></trkpt><trkpt lat="42.24112464093609" lon="12.224568256602545"><ele>277.75</ele><time>2026-04-29T16:29:43Z</time></trkpt><trkpt lat="42.24120562117529" lon="12.224460700860591"><ele>277.0</ele><time>2026-04-29T16:29:45Z</time></trkpt><trkpt lat="42.241321860297965" lon="12.22443507219303"><ele>277.0</ele><time>2026-04-29T16:29:47Z</time></trkpt><trkpt lat="42.24142159787078" lon="12.224400742344654"><ele>277.0</ele><time>2026-04-29T16:29:49Z</time></trkpt><trkpt lat="42.24151631226923" lon="12.224341330766972"><ele>277.0</ele><time>2026-04-29T16:29:51Z</time></trkpt><trkpt lat="42.24161588914518" lon="12.224318954385867"><ele>277.0</ele><time>2026-04-29T16:29:53Z</time></trkpt><trkpt lat="42.24168526960713" lon="12.224270508093865"><ele>277.0</ele><time>2026-04-29T16:29:55Z</time></trkpt><trkpt lat="42.24177502179819" lon="12.224477803335708"><ele>280.3333333333333</ele><time>2026-04-29T16:29:56Z</time></trkpt><trkpt lat="42.241858851474774" lon="12.224539008303843"><ele>283.66666666666663</ele><time>2026-04-29T16:29:58Z</time></trkpt><trkpt lat="42.241932666340084" lon="12.224554641018958"><ele>287.0</ele><time>2026-04-29T16:34:46Z</time></trkpt><trkpt lat="42.24187623712429" lon="12.224596194258144"><ele>290.3333333333333</ele><time>2026-04-29T16:35:50Z</time></trkpt><trkpt lat="42.24194849343519" lon="12.224692043562246"><ele>293.6666666666667</ele><time>2026-04-29T16:36:15Z</time></trkpt><trkpt lat="42.24195704940296" lon="12.224595239928613"><ele>297.0</ele><time>2026-04-29T16:36:24Z</time></trkpt><trkpt lat="42.24194714906529" lon="12.22450433859934"><ele>297.0</ele><time>2026-04-29T16:36:45Z</time></trkpt><trkpt lat="42.242048795693016" lon="12.224489386986354"><ele>297.0</ele><time>2026-04-29T16:37:06Z</time></trkpt><trkpt lat="42.24211215248926" lon="12.224530563610564"><ele>297.0</ele><time>2026-04-29T16:37:13Z</time></trkpt><trkpt lat="42.24217393626167" lon="12.224560148828626"><ele>297.0</ele><time>2026-04-29T16:37:19Z</time></trkpt><trkpt lat="42.24222161754499" lon="12.224625487732377"><ele>297.0</ele><time>2026-04-29T16:37:26Z</time></trkpt><trkpt lat="42.2422861391212" lon="12.224637602292141"><ele>297.0</ele><time>2026-04-29T16:37:31Z</time></trkpt><trkpt lat="42.24235777294698" lon="12.224653506156068"><ele>297.0</ele><time>2026-04-29T16:37:36Z</time></trkpt><trkpt lat="42.24238988885497" lon="12.22472798759892"><ele>297.0</ele><time>2026-04-29T16:37:43Z</time></trkpt><trkpt lat="42.24239568244405" lon="12.22482326620883"><ele>297.0</ele><time>2026-04-29T16:38:33Z</time></trkpt><trkpt lat="42.24245742580784" lon="12.224922879179413"><ele>297.0</ele><time>2026-04-29T16:39:51Z</time></trkpt><trkpt lat="42.24243977994736" lon="12.224835760937935"><ele>297.0</ele><time>2026-04-29T16:40:29Z</time></trkpt><trkpt lat="42.242436551922644" lon="12.224716347374907"><ele>297.0</ele><time>2026-04-29T16:41:10Z</time></trkpt><trkpt lat="42.24250589157224" lon="12.224715941890677"><ele>297.0</ele><time>2026-04-29T16:42:40Z</time></trkpt><trkpt lat="42.24248623826285" lon="12.224803994935524"><ele>297.1666666666667</ele><time>2026-04-29T16:42:43Z</time></trkpt><trkpt lat="42.242426848514576" lon="12.224865936846344"><ele>297.3333333333333</ele><time>2026-04-29T16:42:45Z</time></trkpt><trkpt lat="42.24236175254596" lon="12.22494317689839"><ele>297.5</ele><time>2026-04-29T16:42:47Z</time></trkpt><trkpt lat="42.2423043687101" lon="12.225003648375026"><ele>297.66666666666663</ele><time>2026-04-29T16:42:50Z</time></trkpt><trkpt lat="42.24223465695253" lon="12.225072841572043"><ele>297.8333333333333</ele><time>2026-04-29T16:42:53Z</time></trkpt><trkpt lat="42.242151391361816" lon="12.225078296285856"><ele>298.0</ele><time>2026-04-29T16:42:55Z</time></trkpt><trkpt lat="42.242052308603455" lon="12.22503183214791"><ele>298.3333333333333</ele><time>2026-04-29T16:42:57Z</time></trkpt><trkpt lat="42.24197681336261" lon="12.225007563724429"><ele>298.66666666666663</ele><time>2026-04-29T16:42:59Z</time></trkpt><trkpt lat="42.241915816548456" lon="12.22497508577608"><ele>299.0</ele><time>2026-04-29T16:43:02Z</time></trkpt><trkpt lat="42.24185891177714" lon="12.225073373756622"><ele>299.3333333333333</ele><time>2026-04-29T16:43:04Z</time></trkpt><trkpt lat="42.241838567344246" lon="12.225206511526274"><ele>299.6666666666667</ele><time>2026-04-29T16:43:06Z</time></trkpt><trkpt lat="42.24180423565291" lon="12.225341682386592"><ele>300.0</ele><time>2026-04-29T16:43:08Z</time></trkpt><trkpt lat="42.24177707482175" lon="12.225459920602699"><ele>300.0</ele><time>2026-04-29T16:43:10Z</time></trkpt><trkpt lat="42.241765942782514" lon="12.225551777425846"><ele>300.0</ele><time>2026-04-29T16:43:12Z</time></trkpt><trkpt lat="42.24173434900223" lon="12.225648127033974"><ele>300.0</ele><time>2026-04-29T16:43:14Z</time></trkpt><trkpt lat="42.241702348269406" lon="12.225731361112084"><ele>300.0</ele><time>2026-04-29T16:43:16Z</time></trkpt><trkpt lat="42.24167952637329" lon="12.225867433984643"><ele>300.0</ele><time>2026-04-29T16:43:19Z</time></trkpt><trkpt lat="42.24164839358206" lon="12.22600778710653"><ele>300.0</ele><time>2026-04-29T16:43:21Z</time></trkpt><trkpt lat="42.241606901402385" lon="12.226115040438803"><ele>300.0</ele><time>2026-04-29T16:43:23Z</time></trkpt><trkpt lat="42.24158427542257" lon="12.226204415163249"><ele>300.0</ele><time>2026-04-29T16:43:26Z</time></trkpt><trkpt lat="42.24147497142609" lon="12.226164695059648"><ele>300.0</ele><time>2026-04-29T16:43:30Z</time></trkpt><trkpt lat="42.241416908496106" lon="12.226094274903152"><ele>300.0</ele><time>2026-04-29T16:43:33Z</time></trkpt><trkpt lat="42.241373005924025" lon="12.226022639451342"><ele>300.0</ele><time>2026-04-29T16:44:00Z</time></trkpt><trkpt lat="42.24125000017813" lon="12.22606233242776"><ele>299.99999999999994</ele><time>2026-04-29T16:44:22Z</time></trkpt><trkpt lat="42.241181594945886" lon="12.226096292888181"><ele>300.0</ele><time>2026-04-29T16:45:08Z</time></trkpt><trkpt lat="42.24123841265333" lon="12.226047870671279"><ele>300.0</ele><time>2026-04-29T16:45:25Z</time></trkpt><trkpt lat="42.24130246268983" lon="12.226078418782464"><ele>300.0</ele><time>2026-04-29T16:45:31Z</time></trkpt><trkpt lat="42.241364163940155" lon="12.226030837440547"><ele>300.0</ele><time>2026-04-29T16:46:08Z</time></trkpt><trkpt lat="42.24137196095242" lon="12.226117885978004"><ele>299.99999999999994</ele><time>2026-04-29T16:46:44Z</time></trkpt><trkpt lat="42.24143679185149" lon="12.226111565358114"><ele>300.0</ele><time>2026-04-29T16:47:14Z</time></trkpt><trkpt lat="42.24151095482257" lon="12.226124954831507"><ele>300.0</ele><time>2026-04-29T16:48:11Z</time></trkpt><trkpt lat="42.24157837447383" lon="12.226159851943626"><ele>300.0</ele><time>2026-04-29T16:48:14Z</time></trkpt><trkpt lat="42.24156228901931" lon="12.226269025737668"><ele>300.0</ele><time>2026-04-29T16:48:18Z</time></trkpt><trkpt lat="42.241536745522005" lon="12.226349206705448"><ele>300.0</ele><time>2026-04-29T16:48:20Z</time></trkpt><trkpt lat="42.2414934070639" lon="12.226445438640782"><ele>300.0</ele><time>2026-04-29T16:48:22Z</time></trkpt><trkpt lat="42.24144572266719" lon="12.226587906833354"><ele>300.0</ele><time>2026-04-29T16:48:24Z</time></trkpt><trkpt lat="42.241404984262616" lon="12.226661889170236"><ele>297.1666666666667</ele><time>2026-04-29T16:48:26Z</time></trkpt><trkpt lat="42.24137774217808" lon="12.226740903814848"><ele>294.3333333333333</ele><time>2026-04-29T16:48:28Z</time></trkpt><trkpt lat="42.241345140278526" lon="12.226835464159077"><ele>291.5</ele><time>2026-04-29T16:48:31Z</time></trkpt><trkpt lat="42.241375756517904" lon="12.226941096837344"><ele>288.66666666666663</ele><time>2026-04-29T16:50:01Z</time></trkpt><trkpt lat="42.241339137432135" lon="12.227047114333514"><ele>285.8333333333333</ele><time>2026-04-29T16:50:17Z</time></trkpt><trkpt lat="42.24129494102806" lon="12.227141223203015"><ele>283.0</ele><time>2026-04-29T16:50:19Z</time></trkpt><trkpt lat="42.2412668476905" lon="12.227223131495919"><ele>282.2857142857143</ele><time>2026-04-29T16:50:21Z</time></trkpt><trkpt lat="42.24121892265157" lon="12.227323633401818"><ele>281.5714285714286</ele><time>2026-04-29T16:50:24Z</time></trkpt><trkpt lat="42.241183373640325" lon="12.227401687990449"><ele>280.8571428571429</ele><time>2026-04-29T16:50:26Z</time></trkpt><trkpt lat="42.24115001366036" lon="12.227478625304943"><ele>280.14285714285717</ele><time>2026-04-29T16:50:28Z</time></trkpt><trkpt lat="42.241127488435744" lon="12.2275589791707"><ele>279.42857142857144</ele><time>2026-04-29T16:50:30Z</time></trkpt><trkpt lat="42.24110232716101" lon="12.22765800750779"><ele>278.7142857142857</ele><time>2026-04-29T16:50:33Z</time></trkpt><trkpt lat="42.241091419844" lon="12.227759673228952"><ele>278.0</ele><time>2026-04-29T16:51:29Z</time></trkpt><trkpt lat="42.241092969446655" lon="12.227879143114054"><ele>278.0</ele><time>2026-04-29T16:51:31Z</time></trkpt><trkpt lat="42.2410840171749" lon="12.228022687554269"><ele>278.0</ele><time>2026-04-29T16:51:33Z</time></trkpt><trkpt lat="42.24100946586931" lon="12.22813911301543"><ele>278.0</ele><time>2026-04-29T16:51:35Z</time></trkpt><trkpt lat="42.24092088084803" lon="12.228238826192865"><ele>278.0</ele><time>2026-04-29T16:51:37Z</time></trkpt><trkpt lat="42.24087186324536" lon="12.228296680442808"><ele>278.0</ele><time>2026-04-29T16:51:38Z</time></trkpt><trkpt lat="42.24082344568896" lon="12.228352237702584"><ele>277.33333333333337</ele><time>2026-04-29T16:51:39Z</time></trkpt><trkpt lat="42.240770933188095" lon="12.22841074804338"><ele>276.6666666666667</ele><time>2026-04-29T16:51:40Z</time></trkpt><trkpt lat="42.24071740686288" lon="12.22847038785968"><ele>276.0</ele><time>2026-04-29T16:51:41Z</time></trkpt><trkpt lat="42.240660402202984" lon="12.228527413003256"><ele>275.3333333333333</ele><time>2026-04-29T16:51:42Z</time></trkpt><trkpt lat="42.24060629776891" lon="12.22858181242984"><ele>274.66666666666663</ele><time>2026-04-29T16:51:43Z</time></trkpt><trkpt lat="42.24051731357704" lon="12.228672488509556"><ele>274.0</ele><time>2026-04-29T16:51:45Z</time></trkpt><trkpt lat="42.24045339138252" lon="12.228743504093913"><ele>274.0</ele><time>2026-04-29T16:51:47Z</time></trkpt><trkpt lat="42.240407833609694" lon="12.228802760762058"><ele>274.0</ele><time>2026-04-29T16:51:50Z</time></trkpt><trkpt lat="42.240399727624634" lon="12.228905837614512"><ele>274.0</ele><time>2026-04-29T16:53:40Z</time></trkpt><trkpt lat="42.24034798626354" lon="12.228978887583951"><ele>274.0</ele><time>2026-04-29T16:53:43Z</time></trkpt><trkpt lat="42.240295310385065" lon="12.229061387180897"><ele>274.0</ele><time>2026-04-29T16:53:45Z</time></trkpt><trkpt lat="42.24024576380005" lon="12.229127303481686"><ele>274.0</ele><time>2026-04-29T16:53:47Z</time></trkpt><trkpt lat="42.24033737692518" lon="12.22901889698948"><ele>274.00000000000006</ele><time>2026-04-29T16:54:14Z</time></trkpt><trkpt lat="42.240348922800905" lon="12.228929416013667"><ele>274.0</ele><time>2026-04-29T16:54:22Z</time></trkpt><trkpt lat="42.24033600511084" lon="12.228842500130625"><ele>274.0</ele><time>2026-04-29T16:54:33Z</time></trkpt><trkpt lat="42.24038235726279" lon="12.228900450571459"><ele>274.0</ele><time>2026-04-29T16:55:43Z</time></trkpt><trkpt lat="42.24032611328639" lon="12.228938650805622"><ele>274.0</ele><time>2026-04-29T16:55:48Z</time></trkpt><trkpt lat="42.24031507876972" lon="12.229023753783023"><ele>274.00000000000006</ele><time>2026-04-29T16:56:13Z</time></trkpt><trkpt lat="42.2402764950867" lon="12.229096605722921"><ele>274.0</ele><time>2026-04-29T16:56:18Z</time></trkpt><trkpt lat="42.240235969021505" lon="12.229169993266275"><ele>274.0</ele><time>2026-04-29T16:56:31Z</time></trkpt><trkpt lat="42.2401718518548" lon="12.22915287210235"><ele>274.0</ele><time>2026-04-29T16:56:50Z</time></trkpt><trkpt lat="42.24018839128266" lon="12.229023733231926"><ele>274.0</ele><time>2026-04-29T16:56:54Z</time></trkpt><trkpt lat="42.24025595798495" lon="12.228887609697237"><ele>274.0</ele><time>2026-04-29T16:56:56Z</time></trkpt><trkpt lat="42.2402908775233" lon="12.22880377669062"><ele>274.0</ele><time>2026-04-29T16:56:57Z</time></trkpt><trkpt lat="42.24032261728624" lon="12.228703464880185"><ele>274.0</ele><time>2026-04-29T16:56:58Z</time></trkpt><trkpt lat="42.24035136566659" lon="12.228591968335309"><ele>274.0</ele><time>2026-04-29T16:56:59Z</time></trkpt><trkpt lat="42.24037367221586" lon="12.228481838087582"><ele>274.0</ele><time>2026-04-29T16:57:00Z</time></trkpt><trkpt lat="42.24039172161659" lon="12.228371833364712"><ele>274.0</ele><time>2026-04-29T16:57:01Z</time></trkpt><trkpt lat="42.240406744263744" lon="12.228257426264118"><ele>274.0</ele><time>2026-04-29T16:57:02Z</time></trkpt><trkpt lat="42.24042195291368" lon="12.22813783499638"><ele>274.0</ele><time>2026-04-29T16:57:03Z</time></trkpt><trkpt lat="42.2404373165553" lon="12.228013375015765"><ele>274.0</ele><time>2026-04-29T16:57:04Z</time></trkpt><trkpt lat="42.24044954201897" lon="12.227879731342535"><ele>274.5</ele><time>2026-04-29T16:57:05Z</time></trkpt><trkpt lat="42.24046263595943" lon="12.227737671033918"><ele>275.0</ele><time>2026-04-29T16:57:06Z</time></trkpt><trkpt lat="42.240479692230444" lon="12.227583194408592"><ele>275.5</ele><time>2026-04-29T16:57:07Z</time></trkpt><trkpt lat="42.24049989215005" lon="12.227410916967079"><ele>276.0</ele><time>2026-04-29T16:57:08Z</time></trkpt><trkpt lat="42.24051951863836" lon="12.2272265058476"><ele>276.0</ele><time>2026-04-29T16:57:09Z</time></trkpt><trkpt lat="42.24054012762523" lon="12.227041007094861"><ele>276.0</ele><time>2026-04-29T16:57:10Z</time></trkpt><trkpt lat="42.240559667391175" lon="12.226841634621362"><ele>276.0</ele><time>2026-04-29T16:57:11Z</time></trkpt><trkpt lat="42.24057615022294" lon="12.22663718563956"><ele>276.0</ele><time>2026-04-29T16:57:12Z</time></trkpt><trkpt lat="42.24059489190315" lon="12.226436502449063"><ele>275.25</ele><time>2026-04-29T16:57:13Z</time></trkpt><trkpt lat="42.240616463359075" lon="12.226238366120356"><ele>274.5</ele><time>2026-04-29T16:57:14Z</time></trkpt><trkpt lat="42.240632238358344" lon="12.226045852067122"><ele>273.75</ele><time>2026-04-29T16:57:15Z</time></trkpt><trkpt lat="42.24063098607325" lon="12.225847323831623"><ele>273.0</ele><time>2026-04-29T16:57:16Z</time></trkpt><trkpt lat="42.24061227470132" lon="12.22563792288161"><ele>271.75</ele><time>2026-04-29T16:57:17Z</time></trkpt><trkpt lat="42.24058605423468" lon="12.225441348785282"><ele>270.5</ele><time>2026-04-29T16:57:18Z</time></trkpt><trkpt lat="42.24055363437644" lon="12.225253509057593"><ele>269.25</ele><time>2026-04-29T16:57:19Z</time></trkpt><trkpt lat="42.24054324834573" lon="12.225097717216904"><ele>268.0</ele><time>2026-04-29T16:57:20Z</time></trkpt><trkpt lat="42.24055643417999" lon="12.224977112649087"><ele>268.0</ele><time>2026-04-29T16:57:21Z</time></trkpt><trkpt lat="42.24057453515755" lon="12.224888815067475"><ele>268.0</ele><time>2026-04-29T16:57:22Z</time></trkpt><trkpt lat="42.240596026146754" lon="12.224799057673524"><ele>268.0</ele><time>2026-04-29T16:57:23Z</time></trkpt><trkpt lat="42.24063283796576" lon="12.224698820290236"><ele>268.0</ele><time>2026-04-29T16:57:24Z</time></trkpt><trkpt lat="42.24067445710323" lon="12.22458707479118"><ele>268.0</ele><time>2026-04-29T16:57:25Z</time></trkpt><trkpt lat="42.24072086630648" lon="12.22445893003928"><ele>268.0</ele><time>2026-04-29T16:57:26Z</time></trkpt><trkpt lat="42.24077147045766" lon="12.224318461229402"><ele>269.25</ele><time>2026-04-29T16:57:27Z</time></trkpt><trkpt lat="42.24082319586016" lon="12.224166864794903"><ele>270.5</ele><time>2026-04-29T16:57:28Z</time></trkpt><trkpt lat="42.24087920235559" lon="12.224010348879975"><ele>271.75</ele><time>2026-04-29T16:57:29Z</time></trkpt><trkpt lat="42.240930974060745" lon="12.223849968550027"><ele>273.0</ele><time>2026-04-29T16:57:30Z</time></trkpt><trkpt lat="42.2409847679371" lon="12.223677819986523"><ele>273.0</ele><time>2026-04-29T16:57:31Z</time></trkpt><trkpt lat="42.24104563283895" lon="12.223494564307279"><ele>273.0</ele><time>2026-04-29T16:57:32Z</time></trkpt><trkpt lat="42.24111142530864" lon="12.223316694800802"><ele>273.0</ele><time>2026-04-29T16:57:33Z</time></trkpt><trkpt lat="42.24118912854533" lon="12.223146447549263"><ele>273.0</ele><time>2026-04-29T16:57:34Z</time></trkpt><trkpt lat="42.24127549583291" lon="12.222972181340051"><ele>272.0</ele><time>2026-04-29T16:57:35Z</time></trkpt><trkpt lat="42.2413680893477" lon="12.222805918539422"><ele>271.0</ele><time>2026-04-29T16:57:36Z</time></trkpt><trkpt lat="42.24145615888128" lon="12.222666216134881"><ele>270.0</ele><time>2026-04-29T16:57:37Z</time></trkpt><trkpt lat="42.24153759218476" lon="12.222548083391844"><ele>269.0</ele><time>2026-04-29T16:57:38Z</time></trkpt><trkpt lat="42.24161506658235" lon="12.222452092173269"><ele>270.0</ele><time>2026-04-29T16:57:39Z</time></trkpt><trkpt lat="42.24168880211709" lon="12.222371248185475"><ele>271.0</ele><time>2026-04-29T16:57:40Z</time></trkpt><trkpt lat="42.241753432475015" lon="12.22229462326272"><ele>272.0</ele><time>2026-04-29T16:57:41Z</time></trkpt><trkpt lat="42.241807365740875" lon="12.222215313277088"><ele>273.0</ele><time>2026-04-29T16:57:42Z</time></trkpt><trkpt lat="42.24185599308605" lon="12.222142696399374"><ele>274.0</ele><time>2026-04-29T16:57:43Z</time></trkpt><trkpt lat="42.24190609590304" lon="12.222073263225365"><ele>275.0</ele><time>2026-04-29T16:57:44Z</time></trkpt><trkpt lat="42.241956930812556" lon="12.221999044342017"><ele>275.0</ele><time>2026-04-29T16:57:45Z</time></trkpt><trkpt lat="42.242006083072425" lon="12.221923110159866"><ele>275.0</ele><time>2026-04-29T16:57:46Z</time></trkpt><trkpt lat="42.24207973523913" lon="12.221802069350778"><ele>275.0</ele><time>2026-04-29T16:57:48Z</time></trkpt><trkpt lat="42.24214040740093" lon="12.221685727137691"><ele>275.0</ele><time>2026-04-29T16:57:50Z</time></trkpt><trkpt lat="42.2421765109298" lon="12.22160336131251"><ele>275.0</ele><time>2026-04-29T16:57:51Z</time></trkpt><trkpt lat="42.242212919011756" lon="12.221506865939066"><ele>275.0</ele><time>2026-04-29T16:57:52Z</time></trkpt><trkpt lat="42.24224829284817" lon="12.221392726551882"><ele>274.2</ele><time>2026-04-29T16:57:53Z</time></trkpt><trkpt lat="42.2422814877575" lon="12.221265474569446"><ele>273.4</ele><time>2026-04-29T16:57:54Z</time></trkpt><trkpt lat="42.24231524948905" lon="12.221150071669053"><ele>272.6</ele><time>2026-04-29T16:57:55Z</time></trkpt><trkpt lat="42.242350741382474" lon="12.221072369619225"><ele>271.8</ele><time>2026-04-29T16:57:56Z</time></trkpt><trkpt lat="42.24236886198188" lon="12.22098236865781"><ele>271.0</ele><time>2026-04-29T16:57:58Z</time></trkpt><trkpt lat="42.2425447801179" lon="12.22104437624967"><ele>274.8</ele><time>2026-04-29T16:57:59Z</time></trkpt><trkpt lat="42.24262582048213" lon="12.221090164323101"><ele>278.6</ele><time>2026-04-29T16:58:00Z</time></trkpt><trkpt lat="42.24271733204965" lon="12.221133089547713"><ele>282.4</ele><time>2026-04-29T16:58:01Z</time></trkpt><trkpt lat="42.242798024341845" lon="12.221156589949816"><ele>286.2</ele><time>2026-04-29T16:58:02Z</time></trkpt><trkpt lat="42.242889242377046" lon="12.221158522908999"><ele>290.0</ele><time>2026-04-29T16:58:03Z</time></trkpt><trkpt lat="42.24297947360884" lon="12.221141853626586"><ele>290.0</ele><time>2026-04-29T16:58:04Z</time></trkpt><trkpt lat="42.24307079164656" lon="12.221120620825907"><ele>290.0</ele><time>2026-04-29T16:58:05Z</time></trkpt><trkpt lat="42.243157448857175" lon="12.221087438022142"><ele>290.0</ele><time>2026-04-29T16:58:06Z</time></trkpt><trkpt lat="42.24322147655912" lon="12.22104278461383"><ele>290.0</ele><time>2026-04-29T16:58:07Z</time></trkpt><trkpt lat="42.24329723262006" lon="12.220937205422384"><ele>290.0</ele><time>2026-04-29T16:58:09Z</time></trkpt><trkpt lat="42.24313442323261" lon="12.221279949042067"><ele>290.0</ele><time>2026-04-29T16:58:15Z</time></trkpt><trkpt lat="42.24307193063313" lon="12.221381047453253"><ele>290.0</ele><time>2026-04-29T16:58:16Z</time></trkpt><trkpt lat="42.243017513288244" lon="12.221482484463042"><ele>290.0</ele><time>2026-04-29T16:58:17Z</time></trkpt><trkpt lat="42.24296145969545" lon="12.22159053443492"><ele>290.0</ele><time>2026-04-29T16:58:18Z</time></trkpt><trkpt lat="42.242903660697564" lon="12.221678589238282"><ele>290.0</ele><time>2026-04-29T16:58:19Z</time></trkpt><trkpt lat="42.242858095570526" lon="12.221755513565993"><ele>290.0</ele><time>2026-04-29T16:58:20Z</time></trkpt><trkpt lat="42.242818745973786" lon="12.221832595388802"><ele>290.5</ele><time>2026-04-29T16:58:21Z</time></trkpt><trkpt lat="42.24278521240117" lon="12.221911456797326"><ele>291.0</ele><time>2026-04-29T16:58:22Z</time></trkpt><trkpt lat="42.2427335851141" lon="12.22205902030048"><ele>291.5</ele><time>2026-04-29T16:58:24Z</time></trkpt><trkpt lat="42.24271814413607" lon="12.222205566968613"><ele>292.0</ele><time>2026-04-29T16:58:26Z</time></trkpt><trkpt lat="42.24270332833909" lon="12.222318387482797"><ele>292.5</ele><time>2026-04-29T16:58:28Z</time></trkpt><trkpt lat="42.24267375838426" lon="12.222395460671763"><ele>293.0</ele><time>2026-04-29T16:58:30Z</time></trkpt><trkpt lat="42.242621399180415" lon="12.222476602717949"><ele>293.85714285714283</ele><time>2026-04-29T16:58:32Z</time></trkpt><trkpt lat="42.24257471819249" lon="12.222589187979342"><ele>294.7142857142857</ele><time>2026-04-29T16:58:34Z</time></trkpt><trkpt lat="42.24255525236084" lon="12.22270136735647"><ele>295.57142857142856</ele><time>2026-04-29T16:58:36Z</time></trkpt><trkpt lat="42.24251150231066" lon="12.222770329412585"><ele>296.42857142857144</ele><time>2026-04-29T16:58:41Z</time></trkpt><trkpt lat="42.242446815500905" lon="12.22279955814406"><ele>297.2857142857143</ele><time>2026-04-29T16:58:46Z</time></trkpt><trkpt lat="42.242405242200576" lon="12.222864580637816"><ele>298.1428571428571</ele><time>2026-04-29T17:03:12Z</time></trkpt><trkpt lat="42.24237911718964" lon="12.222943696940812"><ele>299.0</ele><time>2026-04-29T17:03:23Z</time></trkpt><trkpt lat="42.242328347773544" lon="12.223017108338132"><ele>299.0</ele><time>2026-04-29T17:03:34Z</time></trkpt><trkpt lat="42.242383365617904" lon="12.223096596952612"><ele>299.0</ele><time>2026-04-29T17:03:44Z</time></trkpt><trkpt lat="42.24239331482681" lon="12.223010488516344"><ele>299.0</ele><time>2026-04-29T17:05:16Z</time></trkpt><trkpt lat="42.24244352952117" lon="12.22294896490992"><ele>299.0</ele><time>2026-04-29T17:05:20Z</time></trkpt><trkpt lat="42.242465574917794" lon="12.222863944455385"><ele>299.0</ele><time>2026-04-29T17:05:27Z</time></trkpt><trkpt lat="42.24238175218608" lon="12.22279463362331"><ele>299.0</ele><time>2026-04-29T17:05:54Z</time></trkpt><trkpt lat="42.24234259797343" lon="12.222862353066194"><ele>299.0</ele><time>2026-04-29T17:08:52Z</time></trkpt><trkpt lat="42.2423111848437" lon="12.222947637768051"><ele>298.0</ele><time>2026-04-29T17:08:55Z</time></trkpt><trkpt lat="42.24227551483786" lon="12.22303808555276"><ele>297.0</ele><time>2026-04-29T17:08:58Z</time></trkpt><trkpt lat="42.24224097329756" lon="12.223117304657915"><ele>296.0</ele><time>2026-04-29T17:09:01Z</time></trkpt><trkpt lat="42.24220708501357" lon="12.223191103194294"><ele>295.0</ele><time>2026-04-29T17:09:10Z</time></trkpt><trkpt lat="42.24226838709868" lon="12.223146072491105"><ele>294.0</ele><time>2026-04-29T17:12:44Z</time></trkpt><trkpt lat="42.24221320818655" lon="12.223213791192386"><ele>293.0</ele><time>2026-04-29T17:14:26Z</time></trkpt><trkpt lat="42.242173103753" lon="12.2233131184047"><ele>292.0</ele><time>2026-04-29T17:14:30Z</time></trkpt><trkpt lat="42.24214936215877" lon="12.22339936304783"><ele>292.0</ele><time>2026-04-29T17:14:32Z</time></trkpt><trkpt lat="42.24215633371172" lon="12.22348995095669"><ele>292.0</ele><time>2026-04-29T17:14:34Z</time></trkpt><trkpt lat="42.242156919487876" lon="12.223606008239988"><ele>292.0</ele><time>2026-04-29T17:14:36Z</time></trkpt><trkpt lat="42.242132160052996" lon="12.223695179499146"><ele>292.0</ele><time>2026-04-29T17:14:38Z</time></trkpt><trkpt lat="42.24214911072154" lon="12.223792101271071"><ele>292.0</ele><time>2026-04-29T17:14:42Z</time></trkpt><trkpt lat="42.24216538402539" lon="12.223901908821096"><ele>292.0</ele><time>2026-04-29T17:14:46Z</time></trkpt><trkpt lat="42.24218589614537" lon="12.223996362813939"><ele>292.7142857142857</ele><time>2026-04-29T17:14:49Z</time></trkpt><trkpt lat="42.24224325289536" lon="12.224069957723765"><ele>293.42857142857144</ele><time>2026-04-29T17:14:53Z</time></trkpt><trkpt lat="42.2422897822765" lon="12.224155953914664"><ele>294.14285714285717</ele><time>2026-04-29T17:14:57Z</time></trkpt><trkpt lat="42.2423303676562" lon="12.224229295404527"><ele>294.8571428571429</ele><time>2026-04-29T17:15:00Z</time></trkpt><trkpt lat="42.242371321825566" lon="12.224326038424053"><ele>295.5714285714286</ele><time>2026-04-29T17:15:03Z</time></trkpt><trkpt lat="42.24242122827172" lon="12.224390163547646"><ele>296.2857142857143</ele><time>2026-04-29T17:15:06Z</time></trkpt><trkpt lat="42.24246125324392" lon="12.224458616485823"><ele>297.0</ele><time>2026-04-29T17:15:09Z</time></trkpt><trkpt lat="42.2425078830373" lon="12.22454783122199"><ele>297.0</ele><time>2026-04-29T17:15:13Z</time></trkpt><trkpt lat="42.242472841364474" lon="12.22465796974127"><ele>297.0</ele><time>2026-04-29T17:15:15Z</time></trkpt><trkpt lat="42.24241830977511" lon="12.22475980695432"><ele>297.0</ele><time>2026-04-29T17:15:17Z</time></trkpt><trkpt lat="42.24237294714742" lon="12.224825730296995"><ele>297.0</ele><time>2026-04-29T17:15:19Z</time></trkpt><trkpt lat="42.24233818447563" lon="12.224903447440656"><ele>297.0</ele><time>2026-04-29T17:15:21Z</time></trkpt><trkpt lat="42.2422763664185" lon="12.224984985830941"><ele>297.0</ele><time>2026-04-29T17:15:24Z</time></trkpt><trkpt lat="42.24221881689866" lon="12.225064885283315"><ele>297.5</ele><time>2026-04-29T17:15:27Z</time></trkpt><trkpt lat="42.24212375209452" lon="12.225050746606327"><ele>298.0</ele><time>2026-04-29T17:15:32Z</time></trkpt><trkpt lat="42.242055904342294" lon="12.225018952756844"><ele>298.5</ele><time>2026-04-29T17:15:34Z</time></trkpt><trkpt lat="42.24198435962598" lon="12.224986613788218"><ele>299.0</ele><time>2026-04-29T17:15:38Z</time></trkpt><trkpt lat="42.24191271019333" lon="12.224992485883496"><ele>299.5</ele><time>2026-04-29T17:15:42Z</time></trkpt><trkpt lat="42.241849143310176" lon="12.225056133933313"><ele>300.0</ele><time>2026-04-29T17:15:47Z</time></trkpt><trkpt lat="42.24184891009119" lon="12.22516222780635"><ele>300.0</ele><time>2026-04-29T17:15:49Z</time></trkpt><trkpt lat="42.241814325827704" lon="12.2252778632987"><ele>300.0</ele><time>2026-04-29T17:15:52Z</time></trkpt><trkpt lat="42.24178021204393" lon="12.225390481081424"><ele>300.0</ele><time>2026-04-29T17:15:55Z</time></trkpt><trkpt lat="42.241769863606144" lon="12.22552411070683"><ele>300.0</ele><time>2026-04-29T17:15:58Z</time></trkpt><trkpt lat="42.241737560187964" lon="12.225634919908641"><ele>300.0</ele><time>2026-04-29T17:16:00Z</time></trkpt><trkpt lat="42.241701683975776" lon="12.225719935514709"><ele>300.0</ele><time>2026-04-29T17:16:02Z</time></trkpt><trkpt lat="42.241683427021705" lon="12.22581212170679"><ele>300.0</ele><time>2026-04-29T17:16:04Z</time></trkpt><trkpt lat="42.24167411861958" lon="12.225908498380942"><ele>300.0</ele><time>2026-04-29T17:16:06Z</time></trkpt><trkpt lat="42.24165045541192" lon="12.226014084469023"><ele>300.0</ele><time>2026-04-29T17:16:09Z</time></trkpt><trkpt lat="42.241610412727404" lon="12.226108506465883"><ele>300.0</ele><time>2026-04-29T17:16:11Z</time></trkpt><trkpt lat="42.24158460595156" lon="12.22622784168179"><ele>300.0</ele><time>2026-04-29T17:16:14Z</time></trkpt><trkpt lat="42.241528973940085" lon="12.226372977437292"><ele>300.0</ele><time>2026-04-29T17:16:16Z</time></trkpt><trkpt lat="42.24149220947241" lon="12.226467594495107"><ele>296.6</ele><time>2026-04-29T17:16:17Z</time></trkpt><trkpt lat="42.241462984576536" lon="12.226559633060821"><ele>293.2</ele><time>2026-04-29T17:16:18Z</time></trkpt><trkpt lat="42.241415508821454" lon="12.226631362757393"><ele>289.8</ele><time>2026-04-29T17:16:19Z</time></trkpt><trkpt lat="42.241370367735826" lon="12.226762292321068"><ele>286.4</ele><time>2026-04-29T17:16:21Z</time></trkpt><trkpt lat="42.241322424339224" lon="12.226901352042631"><ele>283.0</ele><time>2026-04-29T17:16:23Z</time></trkpt><trkpt lat="42.24127631541583" lon="12.227036650690737"><ele>283.0</ele><time>2026-04-29T17:16:25Z</time></trkpt><trkpt lat="42.2412295708405" lon="12.22716310401116"><ele>283.0</ele><time>2026-04-29T17:16:27Z</time></trkpt><trkpt lat="42.24118539704388" lon="12.227266606125749"><ele>283.0</ele><time>2026-04-29T17:16:29Z</time></trkpt><trkpt lat="42.241147642794076" lon="12.2273642218818"><ele>283.0</ele><time>2026-04-29T17:16:31Z</time></trkpt><trkpt lat="42.24112492154282" lon="12.227448395898078"><ele>283.0</ele><time>2026-04-29T17:16:33Z</time></trkpt><trkpt lat="42.2411032936185" lon="12.227595080101482"><ele>282.16666666666663</ele><time>2026-04-29T17:16:35Z</time></trkpt><trkpt lat="42.24109324219598" lon="12.227694631025187"><ele>281.3333333333333</ele><time>2026-04-29T17:16:36Z</time></trkpt><trkpt lat="42.24108252957375" lon="12.22779926169835"><ele>280.5</ele><time>2026-04-29T17:16:37Z</time></trkpt><trkpt lat="42.241077260521486" lon="12.227894763077"><ele>279.6666666666667</ele><time>2026-04-29T17:16:38Z</time></trkpt><trkpt lat="42.2410645438326" lon="12.22805801539939"><ele>278.83333333333337</ele><time>2026-04-29T17:16:40Z</time></trkpt><trkpt lat="42.241025880800585" lon="12.228128789554743"><ele>278.0</ele><time>2026-04-29T17:16:41Z</time></trkpt><trkpt lat="42.2409763315737" lon="12.228193515208904"><ele>277.33333333333337</ele><time>2026-04-29T17:16:42Z</time></trkpt><trkpt lat="42.24092441479244" lon="12.228255614936527"><ele>276.6666666666667</ele><time>2026-04-29T17:16:43Z</time></trkpt><trkpt lat="42.240864386562755" lon="12.228322956511205"><ele>276.0</ele><time>2026-04-29T17:16:44Z</time></trkpt><trkpt lat="42.240788481172835" lon="12.228402185412563"><ele>275.3333333333333</ele><time>2026-04-29T17:16:45Z</time></trkpt><trkpt lat="42.24071027923956" lon="12.22848965225634"><ele>274.66666666666663</ele><time>2026-04-29T17:16:46Z</time></trkpt><trkpt lat="42.24063477346236" lon="12.228572145731452"><ele>274.0</ele><time>2026-04-29T17:16:47Z</time></trkpt><trkpt lat="42.240563523814124" lon="12.228645485797212"><ele>274.00000000000006</ele><time>2026-04-29T17:16:48Z</time></trkpt><trkpt lat="42.240498258130856" lon="12.228713051340469"><ele>274.0</ele><time>2026-04-29T17:16:49Z</time></trkpt><trkpt lat="42.2404386199651" lon="12.228777224570356"><ele>274.0</ele><time>2026-04-29T17:16:50Z</time></trkpt><trkpt lat="42.24038700431674" lon="12.228831835542596"><ele>274.0</ele><time>2026-04-29T17:16:51Z</time></trkpt><trkpt lat="42.24032284026844" lon="12.228896077162256"><ele>274.0</ele><time>2026-04-29T17:16:53Z</time></trkpt><trkpt lat="42.2402624811374" lon="12.228930066841544"><ele>274.00000000000006</ele><time>2026-04-29T17:16:58Z</time></trkpt><trkpt lat="42.24018786765322" lon="12.228961022688868"><ele>274.0</ele><time>2026-04-29T17:17:00Z</time></trkpt><trkpt lat="42.240122738683304" lon="12.228960735365575"><ele>273.5</ele><time>2026-04-29T17:17:01Z</time></trkpt><trkpt lat="42.240084073186736" lon="12.229104483017517"><ele>273.0</ele><time>2026-04-29T17:17:02Z</time></trkpt><trkpt lat="42.2400059686694" lon="12.229207421560368"><ele>272.5</ele><time>2026-04-29T17:17:03Z</time></trkpt><trkpt lat="42.23990635708845" lon="12.229323814177995"><ele>272.0</ele><time>2026-04-29T17:17:04Z</time></trkpt><trkpt lat="42.23977285597922" lon="12.229463107637663"><ele>272.0</ele><time>2026-04-29T17:17:05Z</time></trkpt><trkpt lat="42.239628475083755" lon="12.229612959280042"><ele>272.0</ele><time>2026-04-29T17:17:06Z</time></trkpt><trkpt lat="42.239473577366695" lon="12.22977813505056"><ele>272.0</ele><time>2026-04-29T17:17:07Z</time></trkpt><trkpt lat="42.23931851600459" lon="12.229940828474136"><ele>270.33333333333337</ele><time>2026-04-29T17:17:08Z</time></trkpt><trkpt lat="42.23916550075979" lon="12.23009752241395"><ele>268.6666666666667</ele><time>2026-04-29T17:17:09Z</time></trkpt><trkpt lat="42.23902487781287" lon="12.230238029857354"><ele>267.0</ele><time>2026-04-29T17:17:10Z</time></trkpt><trkpt lat="42.23890015540603" lon="12.230367693483572"><ele>267.25</ele><time>2026-04-29T17:17:11Z</time></trkpt><trkpt lat="42.23878461220536" lon="12.230491082080986"><ele>267.5</ele><time>2026-04-29T17:17:12Z</time></trkpt><trkpt lat="42.238675369460196" lon="12.230606236063924"><ele>267.75</ele><time>2026-04-29T17:17:13Z</time></trkpt><trkpt lat="42.2385707850645" lon="12.230713527332044"><ele>268.0</ele><time>2026-04-29T17:17:14Z</time></trkpt><trkpt lat="42.238471180344284" lon="12.230811415595975"><ele>268.0</ele><time>2026-04-29T17:17:15Z</time></trkpt><trkpt lat="42.23837187527126" lon="12.23091585394895"><ele>268.0</ele><time>2026-04-29T17:17:16Z</time></trkpt><trkpt lat="42.23827146512618" lon="12.231020058118473"><ele>268.0</ele><time>2026-04-29T17:17:17Z</time></trkpt><trkpt lat="42.23816871961711" lon="12.231122787437013"><ele>268.0</ele><time>2026-04-29T17:17:18Z</time></trkpt><trkpt lat="42.238066844169055" lon="12.231227057112077"><ele>269.25</ele><time>2026-04-29T17:17:19Z</time></trkpt><trkpt lat="42.23796034217855" lon="12.231333653799098"><ele>270.5</ele><time>2026-04-29T17:17:20Z</time></trkpt><trkpt lat="42.237847727776376" lon="12.231442496436623"><ele>271.75</ele><time>2026-04-29T17:17:21Z</time></trkpt><trkpt lat="42.237731657194864" lon="12.231548697074896"><ele>273.0</ele><time>2026-04-29T17:17:22Z</time></trkpt><trkpt lat="42.237613175199506" lon="12.23165065900713"><ele>273.0</ele><time>2026-04-29T17:17:23Z</time></trkpt><trkpt lat="42.23749855272205" lon="12.231750555865176"><ele>273.0</ele><time>2026-04-29T17:17:24Z</time></trkpt><trkpt lat="42.237393579228275" lon="12.23182818085069"><ele>273.0</ele><time>2026-04-29T17:17:25Z</time></trkpt><trkpt lat="42.23730425378791" lon="12.231895717139361"><ele>273.0</ele><time>2026-04-29T17:17:26Z</time></trkpt><trkpt lat="42.237227534229845" lon="12.231940759077496"><ele>273.0</ele><time>2026-04-29T17:17:27Z</time></trkpt><trkpt lat="42.237159800271165" lon="12.231979213785095"><ele>273.0</ele><time>2026-04-29T17:17:28Z</time></trkpt><trkpt lat="42.237062500910355" lon="12.232021436867772"><ele>273.0</ele><time>2026-04-29T17:17:30Z</time></trkpt><trkpt lat="42.237123766095024" lon="12.231990646067073"><ele>273.0</ele><time>2026-04-29T17:17:41Z</time></trkpt><trkpt lat="42.23725899303098" lon="12.232004691879348"><ele>273.0</ele><time>2026-04-29T17:17:42Z</time></trkpt><trkpt lat="42.237368591551686" lon="12.231922255636169"><ele>273.0</ele><time>2026-04-29T17:17:43Z</time></trkpt><trkpt lat="42.23748378898008" lon="12.231831007341047"><ele>273.0</ele><time>2026-04-29T17:17:44Z</time></trkpt><trkpt lat="42.237616028644034" lon="12.231720352989303"><ele>273.0</ele><time>2026-04-29T17:17:45Z</time></trkpt><trkpt lat="42.23775343115843" lon="12.231594908056556"><ele>273.0</ele><time>2026-04-29T17:17:46Z</time></trkpt><trkpt lat="42.23788493957954" lon="12.231477177022127"><ele>271.75</ele><time>2026-04-29T17:17:47Z</time></trkpt><trkpt lat="42.2380051845624" lon="12.231364741192737"><ele>270.5</ele><time>2026-04-29T17:17:48Z</time></trkpt><trkpt lat="42.238118379428656" lon="12.231251074169174"><ele>269.25</ele><time>2026-04-29T17:17:49Z</time></trkpt><trkpt lat="42.23822477991539" lon="12.231140440441337"><ele>268.0</ele><time>2026-04-29T17:17:50Z</time></trkpt><trkpt lat="42.23831983310146" lon="12.231047811953646"><ele>268.0</ele><time>2026-04-29T17:17:51Z</time></trkpt><trkpt lat="42.23840825745001" lon="12.230956956026446"><ele>268.0</ele><time>2026-04-29T17:17:52Z</time></trkpt><trkpt lat="42.23849001756005" lon="12.230871854996504"><ele>268.0</ele><time>2026-04-29T17:17:53Z</time></trkpt><trkpt lat="42.23857331748932" lon="12.230787333759451"><ele>268.0</ele><time>2026-04-29T17:17:54Z</time></trkpt><trkpt lat="42.23865733408406" lon="12.230700396372514"><ele>268.0</ele><time>2026-04-29T17:17:55Z</time></trkpt><trkpt lat="42.238738971770836" lon="12.230617357059604"><ele>267.8</ele><time>2026-04-29T17:17:56Z</time></trkpt><trkpt lat="42.2388243660602" lon="12.230531655939636"><ele>267.6</ele><time>2026-04-29T17:17:57Z</time></trkpt><trkpt lat="42.23890533249496" lon="12.230446746310323"><ele>267.4</ele><time>2026-04-29T17:17:58Z</time></trkpt><trkpt lat="42.23898245729058" lon="12.230368280356931"><ele>267.2</ele><time>2026-04-29T17:17:59Z</time></trkpt><trkpt lat="42.23905693075797" lon="12.230292223230839"><ele>267.0</ele><time>2026-04-29T17:18:00Z</time></trkpt><trkpt lat="42.23912563076343" lon="12.230219388326313"><ele>267.0</ele><time>2026-04-29T17:18:01Z</time></trkpt><trkpt lat="42.239191604362134" lon="12.23015651954552"><ele>267.0</ele><time>2026-04-29T17:18:02Z</time></trkpt><trkpt lat="42.23924920635121" lon="12.230105320332632"><ele>267.0</ele><time>2026-04-29T17:18:03Z</time></trkpt><trkpt lat="42.23931746055111" lon="12.230040109686454"><ele>267.0</ele><time>2026-04-29T17:18:05Z</time></trkpt><trkpt lat="42.2392551383663" lon="12.230023073750996"><ele>267.0</ele><time>2026-04-29T17:19:11Z</time></trkpt><trkpt lat="42.23920492357283" lon="12.230094920449954"><ele>267.0</ele><time>2026-04-29T17:19:12Z</time></trkpt><trkpt lat="42.239131222694745" lon="12.230169163782914"><ele>267.0</ele><time>2026-04-29T17:19:13Z</time></trkpt><trkpt lat="42.23903447775261" lon="12.230212808769204"><ele>267.0</ele><time>2026-04-29T17:19:14Z</time></trkpt><trkpt lat="42.23894794971743" lon="12.230303403668817"><ele>267.0</ele><time>2026-04-29T17:19:15Z</time></trkpt><trkpt lat="42.238841638739075" lon="12.230414711156039"><ele>267.0</ele><time>2026-04-29T17:19:16Z</time></trkpt><trkpt lat="42.23872663883203" lon="12.230535760805052"><ele>267.3333333333333</ele><time>2026-04-29T17:19:17Z</time></trkpt><trkpt lat="42.23861101968691" lon="12.230657533501683"><ele>267.66666666666663</ele><time>2026-04-29T17:19:18Z</time></trkpt><trkpt lat="42.23849031093101" lon="12.230784666569193"><ele>268.0</ele><time>2026-04-29T17:19:19Z</time></trkpt><trkpt lat="42.23836547169312" lon="12.230914217236046"><ele>268.0</ele><time>2026-04-29T17:19:20Z</time></trkpt><trkpt lat="42.23823318814939" lon="12.231050405393791"><ele>268.0</ele><time>2026-04-29T17:19:21Z</time></trkpt><trkpt lat="42.23809903357389" lon="12.231186685087872"><ele>268.0</ele><time>2026-04-29T17:19:22Z</time></trkpt><trkpt lat="42.23796280903472" lon="12.231321155120284"><ele>269.66666666666663</ele><time>2026-04-29T17:19:23Z</time></trkpt><trkpt lat="42.23782741817843" lon="12.231448818845882"><ele>271.3333333333333</ele><time>2026-04-29T17:19:24Z</time></trkpt><trkpt lat="42.23768507734287" lon="12.23157470488279"><ele>273.0</ele><time>2026-04-29T17:19:25Z</time></trkpt><trkpt lat="42.23754305069964" lon="12.231696396782764"><ele>273.0</ele><time>2026-04-29T17:19:26Z</time></trkpt><trkpt lat="42.23739313004934" lon="12.231818630681351"><ele>273.0</ele><time>2026-04-29T17:19:27Z</time></trkpt><trkpt lat="42.23724001398239" lon="12.231942583785361"><ele>273.0</ele><time>2026-04-29T17:19:28Z</time></trkpt><trkpt lat="42.23707637976311" lon="12.232031942390579"><ele>276.3333333333333</ele><time>2026-04-29T17:19:29Z</time></trkpt><trkpt lat="42.236909105502846" lon="12.232108390359688"><ele>279.66666666666663</ele><time>2026-04-29T17:19:30Z</time></trkpt><trkpt lat="42.23673543564516" lon="12.23215458850467"><ele>283.0</ele><time>2026-04-29T17:19:31Z</time></trkpt><trkpt lat="42.2365700413266" lon="12.232218187731622"><ele>282.0</ele><time>2026-04-29T17:19:32Z</time></trkpt><trkpt lat="42.23641595420625" lon="12.232313691019618"><ele>281.0</ele><time>2026-04-29T17:19:33Z</time></trkpt><trkpt lat="42.236260157974066" lon="12.232392329239364"><ele>280.0</ele><time>2026-04-29T17:19:34Z</time></trkpt><trkpt lat="42.23610463915945" lon="12.232484550171737"><ele>280.0</ele><time>2026-04-29T17:19:35Z</time></trkpt><trkpt lat="42.235946263081736" lon="12.232588720204948"><ele>280.0</ele><time>2026-04-29T17:19:36Z</time></trkpt><trkpt lat="42.23577048087359" lon="12.232669270412861"><ele>280.0</ele><time>2026-04-29T17:19:37Z</time></trkpt><trkpt lat="42.23560840198741" lon="12.232792082692168"><ele>279.0</ele><time>2026-04-29T17:19:38Z</time></trkpt><trkpt lat="42.23545531404497" lon="12.23292345226444"><ele>278.0</ele><time>2026-04-29T17:19:39Z</time></trkpt><trkpt lat="42.235317728943066" lon="12.233057075743092"><ele>277.0</ele><time>2026-04-29T17:19:40Z</time></trkpt><trkpt lat="42.235191920060736" lon="12.233197025958738"><ele>276.66666666666663</ele><time>2026-04-29T17:19:41Z</time></trkpt><trkpt lat="42.235077929156475" lon="12.23336709414322"><ele>276.3333333333333</ele><time>2026-04-29T17:19:42Z</time></trkpt><trkpt lat="42.234983676694746" lon="12.233563427856614"><ele>276.0</ele><time>2026-04-29T17:19:43Z</time></trkpt><trkpt lat="42.23488877229161" lon="12.233780905195802"><ele>276.0</ele><time>2026-04-29T17:19:44Z</time></trkpt><trkpt lat="42.234787056464214" lon="12.234018114093617"><ele>276.0</ele><time>2026-04-29T17:19:45Z</time></trkpt><trkpt lat="42.234678895094696" lon="12.234270611134036"><ele>276.0</ele><time>2026-04-29T17:19:46Z</time></trkpt><trkpt lat="42.23457182934738" lon="12.234520550783497"><ele>276.0</ele><time>2026-04-29T17:19:47Z</time></trkpt><trkpt lat="42.23446382000389" lon="12.234773369287952"><ele>276.0</ele><time>2026-04-29T17:19:48Z</time></trkpt><trkpt lat="42.23435617556417" lon="12.235025844897843"><ele>276.0</ele><time>2026-04-29T17:19:49Z</time></trkpt><trkpt lat="42.23424819378502" lon="12.235279041595433"><ele>276.0</ele><time>2026-04-29T17:19:50Z</time></trkpt><trkpt lat="42.234141856539765" lon="12.235527575388335"><ele>276.0</ele><time>2026-04-29T17:19:51Z</time></trkpt><trkpt lat="42.23403610353386" lon="12.23577236360429"><ele>276.0</ele><time>2026-04-29T17:19:52Z</time></trkpt><trkpt lat="42.23393677164231" lon="12.236002288687418"><ele>276.6666666666667</ele><time>2026-04-29T17:19:53Z</time></trkpt><trkpt lat="42.23384190681566" lon="12.23622122748535"><ele>277.33333333333337</ele><time>2026-04-29T17:19:54Z</time></trkpt><trkpt lat="42.23375079376732" lon="12.23642490061774"><ele>278.0</ele><time>2026-04-29T17:19:55Z</time></trkpt><trkpt lat="42.233662959781405" lon="12.236621243514426"><ele>276.6666666666667</ele><time>2026-04-29T17:19:56Z</time></trkpt><trkpt lat="42.23357521190693" lon="12.23682080627853"><ele>275.3333333333333</ele><time>2026-04-29T17:19:57Z</time></trkpt><trkpt lat="42.233490830529355" lon="12.237020421504615"><ele>274.0</ele><time>2026-04-29T17:19:58Z</time></trkpt><trkpt lat="42.233412439433415" lon="12.237217443182823"><ele>272.75</ele><time>2026-04-29T17:19:59Z</time></trkpt><trkpt lat="42.233345793742984" lon="12.237402807460219"><ele>271.5</ele><time>2026-04-29T17:20:00Z</time></trkpt><trkpt lat="42.233287344381765" lon="12.23758198180191"><ele>270.25</ele><time>2026-04-29T17:20:01Z</time></trkpt><trkpt lat="42.23324334150514" lon="12.23776907723919"><ele>269.0</ele><time>2026-04-29T17:20:02Z</time></trkpt><trkpt lat="42.23320360136181" lon="12.237959563777812"><ele>267.6666666666667</ele><time>2026-04-29T17:20:03Z</time></trkpt><trkpt lat="42.23317324980374" lon="12.238159188210272"><ele>266.3333333333333</ele><time>2026-04-29T17:20:04Z</time></trkpt><trkpt lat="42.23314641470132" lon="12.238360166255301"><ele>265.0</ele><time>2026-04-29T17:20:05Z</time></trkpt><trkpt lat="42.233162058374155" lon="12.238571909658186"><ele>265.0</ele><time>2026-04-29T17:20:06Z</time></trkpt><trkpt lat="42.23315601616654" lon="12.23878287935363"><ele>265.0</ele><time>2026-04-29T17:20:07Z</time></trkpt><trkpt lat="42.233198640266046" lon="12.239005234634565"><ele>265.0</ele><time>2026-04-29T17:20:08Z</time></trkpt><trkpt lat="42.23321854415925" lon="12.239247657034271"><ele>265.3333333333333</ele><time>2026-04-29T17:20:09Z</time></trkpt><trkpt lat="42.233255097204854" lon="12.239496734253576"><ele>265.6666666666667</ele><time>2026-04-29T17:20:10Z</time></trkpt><trkpt lat="42.23329324123241" lon="12.239754289593352"><ele>266.0</ele><time>2026-04-29T17:20:11Z</time></trkpt><trkpt lat="42.23333144348331" lon="12.240012237798949"><ele>266.0</ele><time>2026-04-29T17:20:12Z</time></trkpt><trkpt lat="42.23336779056873" lon="12.240265324071817"><ele>266.0</ele><time>2026-04-29T17:20:13Z</time></trkpt><trkpt lat="42.23339761749143" lon="12.240501649889547"><ele>266.0</ele><time>2026-04-29T17:20:14Z</time></trkpt><trkpt lat="42.233429779610766" lon="12.240736823220482"><ele>266.0</ele><time>2026-04-29T17:20:15Z</time></trkpt><trkpt lat="42.23342759643427" lon="12.240982135869382"><ele>266.0</ele><time>2026-04-29T17:20:16Z</time></trkpt><trkpt lat="42.23341059401901" lon="12.241232845545795"><ele>266.0</ele><time>2026-04-29T17:20:17Z</time></trkpt><trkpt lat="42.23338254330619" lon="12.241493813169832"><ele>266.6666666666667</ele><time>2026-04-29T17:20:18Z</time></trkpt><trkpt lat="42.233324687390926" lon="12.241755578654587"><ele>267.3333333333333</ele><time>2026-04-29T17:20:19Z</time></trkpt><trkpt lat="42.23329369103575" lon="12.242027329905259"><ele>268.0</ele><time>2026-04-29T17:20:20Z</time></trkpt><trkpt lat="42.23322685355031" lon="12.2422945527951"><ele>268.0</ele><time>2026-04-29T17:20:21Z</time></trkpt><trkpt lat="42.233192770816146" lon="12.24257959788073"><ele>268.0</ele><time>2026-04-29T17:20:22Z</time></trkpt><trkpt lat="42.23314203790877" lon="12.242860022333252"><ele>268.0</ele><time>2026-04-29T17:20:23Z</time></trkpt><trkpt lat="42.2330903725774" lon="12.243143955856588"><ele>267.66666666666663</ele><time>2026-04-29T17:20:24Z</time></trkpt><trkpt lat="42.23304326043644" lon="12.243431715129477"><ele>267.3333333333333</ele><time>2026-04-29T17:20:25Z</time></trkpt><trkpt lat="42.232976704101134" lon="12.243714344337597"><ele>267.0</ele><time>2026-04-29T17:20:26Z</time></trkpt><trkpt lat="42.2329466351866" lon="12.24399791032017"><ele>268.0</ele><time>2026-04-29T17:20:27Z</time></trkpt><trkpt lat="42.23292224079593" lon="12.244272838540127"><ele>269.0</ele><time>2026-04-29T17:20:28Z</time></trkpt><trkpt lat="42.23289839463068" lon="12.244551423008858"><ele>270.0</ele><time>2026-04-29T17:20:29Z</time></trkpt><trkpt lat="42.232878353601336" lon="12.24482619390886"><ele>271.0</ele><time>2026-04-29T17:20:30Z</time></trkpt><trkpt lat="42.23286166949332" lon="12.245098369054304"><ele>272.0</ele><time>2026-04-29T17:20:31Z</time></trkpt><trkpt lat="42.23284492486933" lon="12.245371527308198"><ele>273.0</ele><time>2026-04-29T17:20:32Z</time></trkpt><trkpt lat="42.23282556775884" lon="12.245641465752309"><ele>274.3333333333333</ele><time>2026-04-29T17:20:33Z</time></trkpt><trkpt lat="42.232822522478166" lon="12.245911679819946"><ele>275.66666666666663</ele><time>2026-04-29T17:20:34Z</time></trkpt><trkpt lat="42.23280092668219" lon="12.246180934225702"><ele>277.0</ele><time>2026-04-29T17:20:35Z</time></trkpt><trkpt lat="42.23278009224839" lon="12.246449959986315"><ele>276.66666666666663</ele><time>2026-04-29T17:20:36Z</time></trkpt><trkpt lat="42.23275924998719" lon="12.2467158631794"><ele>276.3333333333333</ele><time>2026-04-29T17:20:37Z</time></trkpt><trkpt lat="42.23273792222436" lon="12.246981690833083"><ele>276.0</ele><time>2026-04-29T17:20:38Z</time></trkpt><trkpt lat="42.232718325399254" lon="12.247253566010318"><ele>275.0</ele><time>2026-04-29T17:20:39Z</time></trkpt><trkpt lat="42.23270046689044" lon="12.247520143493444"><ele>274.0</ele><time>2026-04-29T17:20:40Z</time></trkpt><trkpt lat="42.23266571868007" lon="12.24775972177278"><ele>273.0</ele><time>2026-04-29T17:20:41Z</time></trkpt><trkpt lat="42.2326453457687" lon="12.247996127948312"><ele>272.6666666666667</ele><time>2026-04-29T17:20:42Z</time></trkpt><trkpt lat="42.23262721751522" lon="12.24823966506439"><ele>272.33333333333337</ele><time>2026-04-29T17:20:43Z</time></trkpt><trkpt lat="42.23257890243105" lon="12.248481639953326"><ele>272.0</ele><time>2026-04-29T17:20:44Z</time></trkpt><trkpt lat="42.23251664996175" lon="12.24872398679391"><ele>272.0</ele><time>2026-04-29T17:20:45Z</time></trkpt><trkpt lat="42.23242623679936" lon="12.248955464496357"><ele>272.0</ele><time>2026-04-29T17:20:46Z</time></trkpt><trkpt lat="42.23234731113369" lon="12.2491936178609"><ele>272.0</ele><time>2026-04-29T17:20:47Z</time></trkpt><trkpt lat="42.23226498179953" lon="12.249441903043644"><ele>271.6666666666667</ele><time>2026-04-29T17:20:48Z</time></trkpt><trkpt lat="42.23218048628893" lon="12.249696721075383"><ele>271.3333333333333</ele><time>2026-04-29T17:20:49Z</time></trkpt><trkpt lat="42.232095091890606" lon="12.249958070335296"><ele>271.0</ele><time>2026-04-29T17:20:50Z</time></trkpt><trkpt lat="42.23200738543838" lon="12.250223856540105"><ele>272.3333333333333</ele><time>2026-04-29T17:20:51Z</time></trkpt><trkpt lat="42.23191860075468" lon="12.250496000757126"><ele>273.6666666666667</ele><time>2026-04-29T17:20:52Z</time></trkpt><trkpt lat="42.23183011099518" lon="12.250770541985187"><ele>275.0</ele><time>2026-04-29T17:20:53Z</time></trkpt><trkpt lat="42.23174105205157" lon="12.251048782630848"><ele>275.0</ele><time>2026-04-29T17:20:54Z</time></trkpt><trkpt lat="42.2316498598433" lon="12.251333688123442"><ele>275.0</ele><time>2026-04-29T17:20:55Z</time></trkpt><trkpt lat="42.23156017607067" lon="12.251613880872375"><ele>275.0</ele><time>2026-04-29T17:20:56Z</time></trkpt><trkpt lat="42.2314723287569" lon="12.25188211932824"><ele>275.0</ele><time>2026-04-29T17:20:57Z</time></trkpt><trkpt lat="42.231392020384966" lon="12.252137982400573"><ele>275.0</ele><time>2026-04-29T17:20:58Z</time></trkpt><trkpt lat="42.23131586237473" lon="12.252377225724619"><ele>275.33333333333337</ele><time>2026-04-29T17:20:59Z</time></trkpt><trkpt lat="42.23125153145673" lon="12.252608216161885"><ele>275.6666666666667</ele><time>2026-04-29T17:21:00Z</time></trkpt><trkpt lat="42.23120196394222" lon="12.25283497717596"><ele>276.0</ele><time>2026-04-29T17:21:01Z</time></trkpt><trkpt lat="42.23116297316892" lon="12.25307134319409"><ele>276.0</ele><time>2026-04-29T17:21:02Z</time></trkpt><trkpt lat="42.231128873676674" lon="12.25331179755952"><ele>276.0</ele><time>2026-04-29T17:21:03Z</time></trkpt><trkpt lat="42.23109845216722" lon="12.253564109305266"><ele>276.0</ele><time>2026-04-29T17:21:04Z</time></trkpt><trkpt lat="42.23106759748401" lon="12.253822142349575"><ele>276.0</ele><time>2026-04-29T17:21:05Z</time></trkpt><trkpt lat="42.23104775836926" lon="12.254087721765838"><ele>276.0</ele><time>2026-04-29T17:21:06Z</time></trkpt><trkpt lat="42.231034855100006" lon="12.254358463640916"><ele>276.0</ele><time>2026-04-29T17:21:07Z</time></trkpt><trkpt lat="42.23104234308105" lon="12.25463293085405"><ele>275.6666666666667</ele><time>2026-04-29T17:21:08Z</time></trkpt><trkpt lat="42.23103580039016" lon="12.2549107290946"><ele>275.33333333333337</ele><time>2026-04-29T17:21:09Z</time></trkpt><trkpt lat="42.23103249827923" lon="12.255193987079394"><ele>275.0</ele><time>2026-04-29T17:21:10Z</time></trkpt><trkpt lat="42.23102987763283" lon="12.25548216807684"><ele>274.6666666666667</ele><time>2026-04-29T17:21:11Z</time></trkpt><trkpt lat="42.23102762423872" lon="12.255775363092724"><ele>274.3333333333333</ele><time>2026-04-29T17:21:12Z</time></trkpt><trkpt lat="42.23102749198331" lon="12.256072185088286"><ele>274.0</ele><time>2026-04-29T17:21:13Z</time></trkpt><trkpt lat="42.231026186647085" lon="12.256369816456136"><ele>274.0</ele><time>2026-04-29T17:21:14Z</time></trkpt><trkpt lat="42.23102381364038" lon="12.256659742713405"><ele>274.0</ele><time>2026-04-29T17:21:15Z</time></trkpt><trkpt lat="42.23101790577392" lon="12.256948537315953"><ele>274.0</ele><time>2026-04-29T17:21:16Z</time></trkpt><trkpt lat="42.23100725370948" lon="12.2572332582323"><ele>273.3333333333333</ele><time>2026-04-29T17:21:17Z</time></trkpt><trkpt lat="42.23098876300931" lon="12.257499822311667"><ele>272.6666666666667</ele><time>2026-04-29T17:21:18Z</time></trkpt><trkpt lat="42.230955568088596" lon="12.257753786851099"><ele>272.0</ele><time>2026-04-29T17:21:19Z</time></trkpt><trkpt lat="42.23090621002857" lon="12.257998981210354"><ele>271.0</ele><time>2026-04-29T17:21:20Z</time></trkpt><trkpt lat="42.23084310168802" lon="12.258243343080697"><ele>270.0</ele><time>2026-04-29T17:21:21Z</time></trkpt><trkpt lat="42.23076544637493" lon="12.258496758359303"><ele>269.0</ele><time>2026-04-29T17:21:22Z</time></trkpt><trkpt lat="42.230679792548194" lon="12.258758821643264"><ele>268.6666666666667</ele><time>2026-04-29T17:21:23Z</time></trkpt><trkpt lat="42.2305927726596" lon="12.259023443233563"><ele>268.3333333333333</ele><time>2026-04-29T17:21:24Z</time></trkpt><trkpt lat="42.23050815354514" lon="12.259288090422325"><ele>268.0</ele><time>2026-04-29T17:21:25Z</time></trkpt><trkpt lat="42.23042461731739" lon="12.259555273192525"><ele>269.3333333333333</ele><time>2026-04-29T17:21:26Z</time></trkpt><trkpt lat="42.23034499698913" lon="12.259804911076015"><ele>270.6666666666667</ele><time>2026-04-29T17:21:27Z</time></trkpt><trkpt lat="42.23026542818158" lon="12.260047852534285"><ele>272.0</ele><time>2026-04-29T17:21:28Z</time></trkpt><trkpt lat="42.23018876559883" lon="12.260280836530589"><ele>272.0</ele><time>2026-04-29T17:21:29Z</time></trkpt><trkpt lat="42.23011878502436" lon="12.260503387760144"><ele>272.0</ele><time>2026-04-29T17:21:30Z</time></trkpt><trkpt lat="42.230046774276026" lon="12.260727177685247"><ele>272.0</ele><time>2026-04-29T17:21:31Z</time></trkpt><trkpt lat="42.22997403389356" lon="12.260954003293724"><ele>272.0</ele><time>2026-04-29T17:21:32Z</time></trkpt><trkpt lat="42.22990237487955" lon="12.26118203922163"><ele>272.0</ele><time>2026-04-29T17:21:33Z</time></trkpt><trkpt lat="42.229830187965405" lon="12.261409909345792"><ele>272.0</ele><time>2026-04-29T17:21:34Z</time></trkpt><trkpt lat="42.22975545525178" lon="12.26163748891457"><ele>272.0</ele><time>2026-04-29T17:21:35Z</time></trkpt><trkpt lat="42.22968148732115" lon="12.261864825582567"><ele>272.0</ele><time>2026-04-29T17:21:36Z</time></trkpt><trkpt lat="42.229611084293836" lon="12.262077633749252"><ele>272.0</ele><time>2026-04-29T17:21:37Z</time></trkpt><trkpt lat="42.22954388098652" lon="12.26228116648195"><ele>271.33333333333337</ele><time>2026-04-29T17:21:38Z</time></trkpt><trkpt lat="42.22947572334495" lon="12.262488088616873"><ele>270.6666666666667</ele><time>2026-04-29T17:21:39Z</time></trkpt><trkpt lat="42.22940720767234" lon="12.262696699960276"><ele>270.0</ele><time>2026-04-29T17:21:40Z</time></trkpt><trkpt lat="42.22933864147235" lon="12.26291004052988"><ele>270.0</ele><time>2026-04-29T17:21:41Z</time></trkpt><trkpt lat="42.22926696034338" lon="12.263141005659277"><ele>270.0</ele><time>2026-04-29T17:21:42Z</time></trkpt><trkpt lat="42.22919420054313" lon="12.26337539360579"><ele>270.0</ele><time>2026-04-29T17:21:43Z</time></trkpt><trkpt lat="42.22911894608929" lon="12.26360768807327"><ele>270.0</ele><time>2026-04-29T17:21:44Z</time></trkpt><trkpt lat="42.22904285779457" lon="12.2638407236486"><ele>270.0</ele><time>2026-04-29T17:21:45Z</time></trkpt><trkpt lat="42.22896755745703" lon="12.264067971146494"><ele>270.0</ele><time>2026-04-29T17:21:46Z</time></trkpt><trkpt lat="42.22888632330108" lon="12.264318998884443"><ele>267.6666666666667</ele><time>2026-04-29T17:21:47Z</time></trkpt><trkpt lat="42.22880010524868" lon="12.264590442051723"><ele>265.33333333333337</ele><time>2026-04-29T17:21:48Z</time></trkpt><trkpt lat="42.228708959604276" lon="12.26485979521582"><ele>263.0</ele><time>2026-04-29T17:21:49Z</time></trkpt><trkpt lat="42.22861419473879" lon="12.265121718442995"><ele>263.0</ele><time>2026-04-29T17:21:50Z</time></trkpt><trkpt lat="42.22851623872311" lon="12.265375017184667"><ele>263.0</ele><time>2026-04-29T17:21:51Z</time></trkpt><trkpt lat="42.22842074717701" lon="12.265628102564921"><ele>263.0</ele><time>2026-04-29T17:21:52Z</time></trkpt><trkpt lat="42.228331160121755" lon="12.265866715080207"><ele>263.0</ele><time>2026-04-29T17:21:53Z</time></trkpt><trkpt lat="42.22824753968272" lon="12.266092926525731"><ele>263.0</ele><time>2026-04-29T17:21:54Z</time></trkpt><trkpt lat="42.22816406467455" lon="12.266312300953137"><ele>263.0</ele><time>2026-04-29T17:21:55Z</time></trkpt><trkpt lat="42.22807284509489" lon="12.266519580740859"><ele>260.33333333333337</ele><time>2026-04-29T17:21:56Z</time></trkpt><trkpt lat="42.227961448902086" lon="12.26671361315202"><ele>257.6666666666667</ele><time>2026-04-29T17:21:57Z</time></trkpt><trkpt lat="42.227841211382234" lon="12.266892975524483"><ele>255.0</ele><time>2026-04-29T17:21:58Z</time></trkpt><trkpt lat="42.22770975631916" lon="12.267047211993194"><ele>255.0</ele><time>2026-04-29T17:21:59Z</time></trkpt><trkpt lat="42.22755589844308" lon="12.26719260459125"><ele>255.0</ele><time>2026-04-29T17:22:00Z</time></trkpt><trkpt lat="42.22738595272255" lon="12.267342434651683"><ele>255.0</ele><time>2026-04-29T17:22:01Z</time></trkpt><trkpt lat="42.22720690406291" lon="12.267502695415665"><ele>253.5</ele><time>2026-04-29T17:22:02Z</time></trkpt><trkpt lat="42.22701950284966" lon="12.267670604542813"><ele>252.0</ele><time>2026-04-29T17:22:03Z</time></trkpt><trkpt lat="42.22683201129688" lon="12.267841161358499"><ele>252.0</ele><time>2026-04-29T17:22:04Z</time></trkpt><trkpt lat="42.22663837315848" lon="12.26801822821373"><ele>252.0</ele><time>2026-04-29T17:22:05Z</time></trkpt><trkpt lat="42.226441107637314" lon="12.268196098717892"><ele>251.0</ele><time>2026-04-29T17:22:06Z</time></trkpt><trkpt lat="42.22624164807156" lon="12.268374038454178"><ele>250.0</ele><time>2026-04-29T17:22:07Z</time></trkpt><trkpt lat="42.22604523256062" lon="12.26855143708798"><ele>250.0</ele><time>2026-04-29T17:22:08Z</time></trkpt><trkpt lat="42.22584856337254" lon="12.268732429852028"><ele>250.0</ele><time>2026-04-29T17:22:09Z</time></trkpt><trkpt lat="42.225649765119634" lon="12.268911954750838"><ele>250.0</ele><time>2026-04-29T17:22:10Z</time></trkpt><trkpt lat="42.225451968758314" lon="12.26909525939415"><ele>250.0</ele><time>2026-04-29T17:22:11Z</time></trkpt><trkpt lat="42.22525329045132" lon="12.269278406460536"><ele>250.0</ele><time>2026-04-29T17:22:12Z</time></trkpt><trkpt lat="42.22504947149605" lon="12.269462528475493"><ele>250.0</ele><time>2026-04-29T17:22:13Z</time></trkpt><trkpt lat="42.22484393734321" lon="12.2696445304091"><ele>249.5</ele><time>2026-04-29T17:22:14Z</time></trkpt><trkpt lat="42.22463644011089" lon="12.269829669022169"><ele>249.0</ele><time>2026-04-29T17:22:15Z</time></trkpt><trkpt lat="42.22442672168088" lon="12.270017919762957"><ele>249.0</ele><time>2026-04-29T17:22:16Z</time></trkpt><trkpt lat="42.22421607834777" lon="12.270208794149498"><ele>249.0</ele><time>2026-04-29T17:22:17Z</time></trkpt><trkpt lat="42.22400391708059" lon="12.270400224192182"><ele>249.0</ele><time>2026-04-29T17:22:18Z</time></trkpt><trkpt lat="42.22378951859436" lon="12.270591452270802"><ele>249.0</ele><time>2026-04-29T17:22:19Z</time></trkpt><trkpt lat="42.223575692971345" lon="12.270783730990525"><ele>249.0</ele><time>2026-04-29T17:22:20Z</time></trkpt><trkpt lat="42.22336108949524" lon="12.270974712489789"><ele>249.0</ele><time>2026-04-29T17:22:21Z</time></trkpt><trkpt lat="42.22314482238293" lon="12.271168477847718"><ele>248.0</ele><time>2026-04-29T17:22:22Z</time></trkpt><trkpt lat="42.22292851789714" lon="12.271363881290249"><ele>247.0</ele><time>2026-04-29T17:22:23Z</time></trkpt><trkpt lat="42.22271232506328" lon="12.27155850643523"><ele>247.0</ele><time>2026-04-29T17:22:24Z</time></trkpt><trkpt lat="42.22249568992092" lon="12.271754311683209"><ele>247.0</ele><time>2026-04-29T17:22:25Z</time></trkpt><trkpt lat="42.222279221306756" lon="12.271948197292415"><ele>247.0</ele><time>2026-04-29T17:22:26Z</time></trkpt><trkpt lat="42.222063634413566" lon="12.272135663063777"><ele>247.0</ele><time>2026-04-29T17:22:27Z</time></trkpt><trkpt lat="42.22185332890495" lon="12.272317369725453"><ele>246.5</ele><time>2026-04-29T17:22:28Z</time></trkpt><trkpt lat="42.221654927012416" lon="12.272497731313754"><ele>246.0</ele><time>2026-04-29T17:22:29Z</time></trkpt><trkpt lat="42.22144600411707" lon="12.272684142736727"><ele>245.5</ele><time>2026-04-29T17:22:30Z</time></trkpt><trkpt lat="42.221219476320854" lon="12.272850801680574"><ele>245.0</ele><time>2026-04-29T17:22:31Z</time></trkpt><trkpt lat="42.221003159807275" lon="12.273040036642316"><ele>245.0</ele><time>2026-04-29T17:22:32Z</time></trkpt><trkpt lat="42.220786965745745" lon="12.27323166697085"><ele>245.0</ele><time>2026-04-29T17:22:33Z</time></trkpt><trkpt lat="42.22057059414194" lon="12.27342521423533"><ele>244.0</ele><time>2026-04-29T17:22:34Z</time></trkpt><trkpt lat="42.22035148540409" lon="12.273621360136016"><ele>243.0</ele><time>2026-04-29T17:22:35Z</time></trkpt><trkpt lat="42.220133179962076" lon="12.273818193934863"><ele>244.0</ele><time>2026-04-29T17:22:36Z</time></trkpt><trkpt lat="42.219917412998754" lon="12.274014410582312"><ele>245.0</ele><time>2026-04-29T17:22:37Z</time></trkpt><trkpt lat="42.21970254084027" lon="12.274210323654296"><ele>245.0</ele><time>2026-04-29T17:22:38Z</time></trkpt><trkpt lat="42.21949217100577" lon="12.274400331272982"><ele>245.0</ele><time>2026-04-29T17:22:39Z</time></trkpt><trkpt lat="42.2192836782835" lon="12.27458688678048"><ele>245.0</ele><time>2026-04-29T17:22:40Z</time></trkpt><trkpt lat="42.21907607347782" lon="12.274774416778552"><ele>245.0</ele><time>2026-04-29T17:22:41Z</time></trkpt><trkpt lat="42.2188694453703" lon="12.27496175439492"><ele>245.0</ele><time>2026-04-29T17:22:42Z</time></trkpt><trkpt lat="42.2186621336895" lon="12.27514856590523"><ele>245.0</ele><time>2026-04-29T17:22:43Z</time></trkpt><trkpt lat="42.218454560389105" lon="12.275335061437074"><ele>245.0</ele><time>2026-04-29T17:22:44Z</time></trkpt><trkpt lat="42.21824506565169" lon="12.275520678360602"><ele>245.0</ele><time>2026-04-29T17:22:45Z</time></trkpt><trkpt lat="42.21803565285897" lon="12.275706597260571"><ele>244.0</ele><time>2026-04-29T17:22:46Z</time></trkpt><trkpt lat="42.217823931386214" lon="12.27589666081778"><ele>243.0</ele><time>2026-04-29T17:22:47Z</time></trkpt><trkpt lat="42.21761406130869" lon="12.276088922616912"><ele>243.0</ele><time>2026-04-29T17:22:48Z</time></trkpt><trkpt lat="42.21741326868522" lon="12.27627697797516"><ele>243.0</ele><time>2026-04-29T17:22:49Z</time></trkpt><trkpt lat="42.21722520170998" lon="12.2764544603966"><ele>242.5</ele><time>2026-04-29T17:22:50Z</time></trkpt><trkpt lat="42.21702975009264" lon="12.276641017547725"><ele>242.0</ele><time>2026-04-29T17:22:51Z</time></trkpt><trkpt lat="42.216828235558175" lon="12.276835307921946"><ele>242.0</ele><time>2026-04-29T17:22:52Z</time></trkpt><trkpt lat="42.21662510377188" lon="12.277034986210825"><ele>242.0</ele><time>2026-04-29T17:22:53Z</time></trkpt><trkpt lat="42.21642770945235" lon="12.277231039413909"><ele>242.0</ele><time>2026-04-29T17:22:54Z</time></trkpt><trkpt lat="42.21624866409571" lon="12.277410051983631"><ele>242.0</ele><time>2026-04-29T17:22:55Z</time></trkpt><trkpt lat="42.2160885560855" lon="12.277587682334948"><ele>242.0</ele><time>2026-04-29T17:22:56Z</time></trkpt><trkpt lat="42.215953285827275" lon="12.277783233397225"><ele>242.0</ele><time>2026-04-29T17:22:57Z</time></trkpt><trkpt lat="42.21581039358974" lon="12.277981222011276"><ele>242.0</ele><time>2026-04-29T17:22:58Z</time></trkpt><trkpt lat="42.21567409122659" lon="12.27819505121618"><ele>242.0</ele><time>2026-04-29T17:22:59Z</time></trkpt><trkpt lat="42.21554546381741" lon="12.278422000463278"><ele>242.0</ele><time>2026-04-29T17:23:00Z</time></trkpt><trkpt lat="42.21542426886582" lon="12.278661751059294"><ele>242.0</ele><time>2026-04-29T17:23:01Z</time></trkpt><trkpt lat="42.215294473660315" lon="12.278905162993924"><ele>242.0</ele><time>2026-04-29T17:23:02Z</time></trkpt><trkpt lat="42.21518602747511" lon="12.279175901996712"><ele>242.0</ele><time>2026-04-29T17:23:03Z</time></trkpt><trkpt lat="42.215087404999764" lon="12.279456570513107"><ele>242.0</ele><time>2026-04-29T17:23:04Z</time></trkpt><trkpt lat="42.21499692572226" lon="12.27975221408133"><ele>241.5</ele><time>2026-04-29T17:23:05Z</time></trkpt><trkpt lat="42.21492405835375" lon="12.28006028631688"><ele>241.0</ele><time>2026-04-29T17:23:06Z</time></trkpt><trkpt lat="42.214863489968174" lon="12.280384813241268"><ele>241.5</ele><time>2026-04-29T17:23:07Z</time></trkpt><trkpt lat="42.21481170598437" lon="12.280721233624346"><ele>242.0</ele><time>2026-04-29T17:23:08Z</time></trkpt><trkpt lat="42.214776791416" lon="12.281062879997604"><ele>242.0</ele><time>2026-04-29T17:23:09Z</time></trkpt><trkpt lat="42.21475439046643" lon="12.28141258540211"><ele>242.0</ele><time>2026-04-29T17:23:10Z</time></trkpt><trkpt lat="42.21474874561771" lon="12.281771377930951"><ele>242.0</ele><time>2026-04-29T17:23:11Z</time></trkpt><trkpt lat="42.21476260015252" lon="12.282130112077905"><ele>242.0</ele><time>2026-04-29T17:23:12Z</time></trkpt><trkpt lat="42.21478252914235" lon="12.28249948212517"><ele>242.5</ele><time>2026-04-29T17:23:13Z</time></trkpt><trkpt lat="42.214807172987705" lon="12.282880673637822"><ele>243.0</ele><time>2026-04-29T17:23:14Z</time></trkpt><trkpt lat="42.21483277002801" lon="12.28325794903031"><ele>242.5</ele><time>2026-04-29T17:23:15Z</time></trkpt><trkpt lat="42.21487527954539" lon="12.28364659029889"><ele>242.0</ele><time>2026-04-29T17:23:16Z</time></trkpt><trkpt lat="42.21490025315304" lon="12.28403624343868"><ele>242.0</ele><time>2026-04-29T17:23:17Z</time></trkpt><trkpt lat="42.214910777839854" lon="12.284422089458122"><ele>242.0</ele><time>2026-04-29T17:23:18Z</time></trkpt><trkpt lat="42.214936523028925" lon="12.284796841621366"><ele>241.5</ele><time>2026-04-29T17:23:19Z</time></trkpt><trkpt lat="42.21496042170627" lon="12.28517025983243"><ele>241.0</ele><time>2026-04-29T17:23:20Z</time></trkpt><trkpt lat="42.21498364273038" lon="12.28553827412018"><ele>241.5</ele><time>2026-04-29T17:23:21Z</time></trkpt><trkpt lat="42.21500749393173" lon="12.2859023861107"><ele>242.0</ele><time>2026-04-29T17:23:22Z</time></trkpt><trkpt lat="42.21503143549061" lon="12.286259729766991"><ele>242.5</ele><time>2026-04-29T17:23:23Z</time></trkpt><trkpt lat="42.215053705435054" lon="12.286609825752414"><ele>243.0</ele><time>2026-04-29T17:23:24Z</time></trkpt><trkpt lat="42.21507581613047" lon="12.286954583995188"><ele>243.0</ele><time>2026-04-29T17:23:25Z</time></trkpt><trkpt lat="42.215098119664994" lon="12.287296774706732"><ele>243.0</ele><time>2026-04-29T17:23:26Z</time></trkpt><trkpt lat="42.215120187236" lon="12.287635345230319"><ele>243.0</ele><time>2026-04-29T17:23:27Z</time></trkpt><trkpt lat="42.2151410841998" lon="12.287974135474617"><ele>243.0</ele><time>2026-04-29T17:23:28Z</time></trkpt><trkpt lat="42.21516173095171" lon="12.288313157841682"><ele>243.0</ele><time>2026-04-29T17:23:29Z</time></trkpt><trkpt lat="42.21518316291565" lon="12.2886494452101"><ele>243.0</ele><time>2026-04-29T17:23:30Z</time></trkpt><trkpt lat="42.21520400390786" lon="12.288976459779493"><ele>243.66666666666669</ele><time>2026-04-29T17:23:31Z</time></trkpt><trkpt lat="42.215223807639696" lon="12.28928719843376"><ele>244.33333333333334</ele><time>2026-04-29T17:23:32Z</time></trkpt><trkpt lat="42.215242494997604" lon="12.28958042038495"><ele>245.0</ele><time>2026-04-29T17:23:33Z</time></trkpt><trkpt lat="42.215259652907406" lon="12.289849643615883"><ele>246.0</ele><time>2026-04-29T17:23:34Z</time></trkpt><trkpt lat="42.215272535690964" lon="12.29010731189226"><ele>247.0</ele><time>2026-04-29T17:23:35Z</time></trkpt><trkpt lat="42.21527775217111" lon="12.290357125197122"><ele>248.0</ele><time>2026-04-29T17:23:36Z</time></trkpt><trkpt lat="42.21528294144494" lon="12.290612225153156"><ele>248.0</ele><time>2026-04-29T17:23:37Z</time></trkpt><trkpt lat="42.215257198032916" lon="12.290864996041936"><ele>248.0</ele><time>2026-04-29T17:23:38Z</time></trkpt><trkpt lat="42.21520214718834" lon="12.291108643459733"><ele>248.0</ele><time>2026-04-29T17:23:39Z</time></trkpt><trkpt lat="42.21514672145666" lon="12.29134656665688"><ele>247.0</ele><time>2026-04-29T17:23:40Z</time></trkpt><trkpt lat="42.2150790948241" lon="12.291574063840516"><ele>246.0</ele><time>2026-04-29T17:23:41Z</time></trkpt><trkpt lat="42.21500558170357" lon="12.291781670851806"><ele>245.0</ele><time>2026-04-29T17:23:42Z</time></trkpt><trkpt lat="42.21491905345889" lon="12.291980141552054"><ele>245.66666666666669</ele><time>2026-04-29T17:23:43Z</time></trkpt><trkpt lat="42.21481981294906" lon="12.292172591829527"><ele>246.33333333333331</ele><time>2026-04-29T17:23:44Z</time></trkpt><trkpt lat="42.21471371313916" lon="12.292354704669554"><ele>247.0</ele><time>2026-04-29T17:23:45Z</time></trkpt><trkpt lat="42.214595238129284" lon="12.292522869278233"><ele>247.0</ele><time>2026-04-29T17:23:46Z</time></trkpt><trkpt lat="42.214462594917904" lon="12.292692912878952"><ele>247.0</ele><time>2026-04-29T17:23:47Z</time></trkpt><trkpt lat="42.214316041200114" lon="12.292870218459605"><ele>247.0</ele><time>2026-04-29T17:23:48Z</time></trkpt><trkpt lat="42.21416647226062" lon="12.293046338466484"><ele>246.0</ele><time>2026-04-29T17:23:49Z</time></trkpt><trkpt lat="42.21400675801868" lon="12.293226274221599"><ele>245.0</ele><time>2026-04-29T17:23:50Z</time></trkpt><trkpt lat="42.21383388600446" lon="12.293419859605349"><ele>244.0</ele><time>2026-04-29T17:23:51Z</time></trkpt><trkpt lat="42.21365464710945" lon="12.293620565453246"><ele>242.5</ele><time>2026-04-29T17:23:52Z</time></trkpt><trkpt lat="42.213469272187496" lon="12.293828142481019"><ele>241.0</ele><time>2026-04-29T17:23:53Z</time></trkpt><trkpt lat="42.213308927107974" lon="12.294077435895064"><ele>239.0</ele><time>2026-04-29T17:23:54Z</time></trkpt><trkpt lat="42.213118237093994" lon="12.29428933861506"><ele>237.0</ele><time>2026-04-29T17:23:55Z</time></trkpt><trkpt lat="42.21292864058303" lon="12.2945018094679"><ele>237.0</ele><time>2026-04-29T17:23:56Z</time></trkpt><trkpt lat="42.212739981004766" lon="12.294713116227765"><ele>237.0</ele><time>2026-04-29T17:23:57Z</time></trkpt><trkpt lat="42.21255421306464" lon="12.294923883435494"><ele>236.5</ele><time>2026-04-29T17:23:58Z</time></trkpt><trkpt lat="42.2123745647063" lon="12.295130699152097"><ele>236.0</ele><time>2026-04-29T17:23:59Z</time></trkpt><trkpt lat="42.21220737586111" lon="12.295327256070474"><ele>237.0</ele><time>2026-04-29T17:24:00Z</time></trkpt><trkpt lat="42.212046236392666" lon="12.29553057165313"><ele>238.0</ele><time>2026-04-29T17:24:01Z</time></trkpt><trkpt lat="42.2118953723496" lon="12.295739967464078"><ele>239.0</ele><time>2026-04-29T17:24:02Z</time></trkpt><trkpt lat="42.211753816267276" lon="12.295955666578175"><ele>239.0</ele><time>2026-04-29T17:24:03Z</time></trkpt><trkpt lat="42.21162298256693" lon="12.29617994024326"><ele>239.0</ele><time>2026-04-29T17:24:04Z</time></trkpt><trkpt lat="42.21149921432437" lon="12.296413188523996"><ele>239.0</ele><time>2026-04-29T17:24:05Z</time></trkpt><trkpt lat="42.21138388038397" lon="12.29665412158723"><ele>240.66666666666669</ele><time>2026-04-29T17:24:06Z</time></trkpt><trkpt lat="42.211278101823375" lon="12.296903096730114"><ele>242.33333333333331</ele><time>2026-04-29T17:24:07Z</time></trkpt><trkpt lat="42.211181221785594" lon="12.29716562655922"><ele>244.0</ele><time>2026-04-29T17:24:08Z</time></trkpt><trkpt lat="42.211091606665015" lon="12.297443401849096"><ele>244.0</ele><time>2026-04-29T17:24:09Z</time></trkpt><trkpt lat="42.21100678145624" lon="12.29773423096712"><ele>244.0</ele><time>2026-04-29T17:24:10Z</time></trkpt><trkpt lat="42.21092670919769" lon="12.298036766532318"><ele>242.5</ele><time>2026-04-29T17:24:11Z</time></trkpt><trkpt lat="42.210850253468934" lon="12.29834503687155"><ele>241.0</ele><time>2026-04-29T17:24:12Z</time></trkpt><trkpt lat="42.210782592381975" lon="12.298660818330985"><ele>240.0</ele><time>2026-04-29T17:24:13Z</time></trkpt><trkpt lat="42.21071352374718" lon="12.29897658903327"><ele>239.0</ele><time>2026-04-29T17:24:14Z</time></trkpt><trkpt lat="42.21063907530952" lon="12.299282139942079"><ele>242.0</ele><time>2026-04-29T17:24:15Z</time></trkpt><trkpt lat="42.21056334697228" lon="12.299579090988017"><ele>245.0</ele><time>2026-04-29T17:24:16Z</time></trkpt><trkpt lat="42.210480261405216" lon="12.299867218062456"><ele>246.0</ele><time>2026-04-29T17:24:17Z</time></trkpt><trkpt lat="42.210392651229526" lon="12.300148055060543"><ele>247.0</ele><time>2026-04-29T17:24:18Z</time></trkpt><trkpt lat="42.21029834492936" lon="12.30041677472089"><ele>248.0</ele><time>2026-04-29T17:24:19Z</time></trkpt><trkpt lat="42.21019901439569" lon="12.300670437139006"><ele>248.0</ele><time>2026-04-29T17:24:20Z</time></trkpt><trkpt lat="42.210087850316675" lon="12.300915063207364"><ele>248.0</ele><time>2026-04-29T17:24:21Z</time></trkpt><trkpt lat="42.209964645659056" lon="12.301159829687771"><ele>248.0</ele><time>2026-04-29T17:24:22Z</time></trkpt><trkpt lat="42.20983138181494" lon="12.301405520401985"><ele>245.5</ele><time>2026-04-29T17:24:23Z</time></trkpt><trkpt lat="42.209689616081555" lon="12.301652827610635"><ele>243.0</ele><time>2026-04-29T17:24:24Z</time></trkpt><trkpt lat="42.20954668377953" lon="12.301909312312516"><ele>243.0</ele><time>2026-04-29T17:24:25Z</time></trkpt><trkpt lat="42.20940190842743" lon="12.302166148479412"><ele>243.0</ele><time>2026-04-29T17:24:26Z</time></trkpt><trkpt lat="42.20925614362014" lon="12.302431968209387"><ele>244.0</ele><time>2026-04-29T17:24:27Z</time></trkpt><trkpt lat="42.209110249763235" lon="12.302697960660323"><ele>245.0</ele><time>2026-04-29T17:24:28Z</time></trkpt><trkpt lat="42.208965882543055" lon="12.302959887059902"><ele>242.5</ele><time>2026-04-29T17:24:29Z</time></trkpt><trkpt lat="42.20882554541986" lon="12.303214516265628"><ele>240.0</ele><time>2026-04-29T17:24:30Z</time></trkpt><trkpt lat="42.20869160779898" lon="12.30345812643934"><ele>240.0</ele><time>2026-04-29T17:24:31Z</time></trkpt><trkpt lat="42.20856561768435" lon="12.303690621697811"><ele>240.0</ele><time>2026-04-29T17:24:32Z</time></trkpt><trkpt lat="42.208437344391974" lon="12.303922634337516"><ele>240.0</ele><time>2026-04-29T17:24:33Z</time></trkpt><trkpt lat="42.20831079385326" lon="12.30415283971281"><ele>239.33333333333331</ele><time>2026-04-29T17:24:34Z</time></trkpt><trkpt lat="42.2081855264924" lon="12.304380915789487"><ele>238.66666666666666</ele><time>2026-04-29T17:24:35Z</time></trkpt><trkpt lat="42.20806281463718" lon="12.304607156861467"><ele>238.0</ele><time>2026-04-29T17:24:36Z</time></trkpt><trkpt lat="42.20794227108282" lon="12.30482840650567"><ele>240.66666666666666</ele><time>2026-04-29T17:24:37Z</time></trkpt><trkpt lat="42.207824709652236" lon="12.305035324045285"><ele>243.33333333333331</ele><time>2026-04-29T17:24:38Z</time></trkpt><trkpt lat="42.20771820825129" lon="12.305218732840341"><ele>246.0</ele><time>2026-04-29T17:24:39Z</time></trkpt><trkpt lat="42.20762344735298" lon="12.305388760095218"><ele>246.0</ele><time>2026-04-29T17:24:40Z</time></trkpt><trkpt lat="42.207534439640895" lon="12.305545350013041"><ele>246.0</ele><time>2026-04-29T17:24:41Z</time></trkpt><trkpt lat="42.20744436924831" lon="12.305693315326565"><ele>246.0</ele><time>2026-04-29T17:24:42Z</time></trkpt><trkpt lat="42.20734824466396" lon="12.305833595347115"><ele>246.0</ele><time>2026-04-29T17:24:43Z</time></trkpt><trkpt lat="42.20725578505219" lon="12.305969693589756"><ele>246.0</ele><time>2026-04-29T17:24:44Z</time></trkpt><trkpt lat="42.20717957996281" lon="12.306112860058379"><ele>246.0</ele><time>2026-04-29T17:24:45Z</time></trkpt><trkpt lat="42.207109241421534" lon="12.306261356052419"><ele>246.0</ele><time>2026-04-29T17:24:46Z</time></trkpt><trkpt lat="42.207014250613156" lon="12.30640163418224"><ele>246.0</ele><time>2026-04-29T17:24:47Z</time></trkpt><trkpt lat="42.206897004502636" lon="12.306523123582734"><ele>246.0</ele><time>2026-04-29T17:24:48Z</time></trkpt><trkpt lat="42.20676036381584" lon="12.306648161216762"><ele>246.0</ele><time>2026-04-29T17:24:49Z</time></trkpt><trkpt lat="42.20660549112504" lon="12.306782428833628"><ele>246.0</ele><time>2026-04-29T17:24:50Z</time></trkpt><trkpt lat="42.20643340621259" lon="12.306927674035506"><ele>245.0</ele><time>2026-04-29T17:24:51Z</time></trkpt><trkpt lat="42.20624382406227" lon="12.30707840077932"><ele>244.0</ele><time>2026-04-29T17:24:52Z</time></trkpt><trkpt lat="42.20604314048739" lon="12.307222155660293"><ele>243.0</ele><time>2026-04-29T17:24:53Z</time></trkpt><trkpt lat="42.20582405142141" lon="12.307365829787708"><ele>241.0</ele><time>2026-04-29T17:24:54Z</time></trkpt><trkpt lat="42.20559082771209" lon="12.307509970122815"><ele>239.0</ele><time>2026-04-29T17:24:55Z</time></trkpt><trkpt lat="42.20534966384954" lon="12.307655014858431"><ele>239.0</ele><time>2026-04-29T17:24:56Z</time></trkpt><trkpt lat="42.205110115532314" lon="12.307797921234371"><ele>239.0</ele><time>2026-04-29T17:24:57Z</time></trkpt><trkpt lat="42.20486997099073" lon="12.30794259301628"><ele>237.5</ele><time>2026-04-29T17:24:58Z</time></trkpt><trkpt lat="42.20462792975177" lon="12.30808683028629"><ele>236.0</ele><time>2026-04-29T17:24:59Z</time></trkpt><trkpt lat="42.20438713021528" lon="12.308234277118263"><ele>236.0</ele><time>2026-04-29T17:25:00Z</time></trkpt><trkpt lat="42.20414748500468" lon="12.308379642532335"><ele>236.0</ele><time>2026-04-29T17:25:01Z</time></trkpt><trkpt lat="42.20390879554658" lon="12.308522525094748"><ele>238.5</ele><time>2026-04-29T17:25:02Z</time></trkpt><trkpt lat="42.20367284374008" lon="12.30866323735171"><ele>241.0</ele><time>2026-04-29T17:25:03Z</time></trkpt><trkpt lat="42.20344033113537" lon="12.308804582662201"><ele>240.5</ele><time>2026-04-29T17:25:04Z</time></trkpt><trkpt lat="42.2032121167296" lon="12.30894933346794"><ele>240.0</ele><time>2026-04-29T17:25:05Z</time></trkpt><trkpt lat="42.202986428194976" lon="12.309092475246004"><ele>240.0</ele><time>2026-04-29T17:25:06Z</time></trkpt><trkpt lat="42.202762556564146" lon="12.309239905022757"><ele>240.0</ele><time>2026-04-29T17:25:07Z</time></trkpt><trkpt lat="42.202542629610036" lon="12.30939175130449"><ele>241.0</ele><time>2026-04-29T17:25:08Z</time></trkpt><trkpt lat="42.20232961331328" lon="12.309549613304913"><ele>242.0</ele><time>2026-04-29T17:25:09Z</time></trkpt><trkpt lat="42.202120226158726" lon="12.3097130065701"><ele>242.5</ele><time>2026-04-29T17:25:10Z</time></trkpt><trkpt lat="42.20191101368567" lon="12.309882699767307"><ele>243.0</ele><time>2026-04-29T17:25:11Z</time></trkpt><trkpt lat="42.20170358233223" lon="12.31006006947612"><ele>243.5</ele><time>2026-04-29T17:25:12Z</time></trkpt><trkpt lat="42.20149460436612" lon="12.31024193698882"><ele>244.0</ele><time>2026-04-29T17:25:13Z</time></trkpt><trkpt lat="42.20128433786382" lon="12.31042904817476"><ele>245.5</ele><time>2026-04-29T17:25:14Z</time></trkpt><trkpt lat="42.20107133262546" lon="12.31062064537219"><ele>247.0</ele><time>2026-04-29T17:25:15Z</time></trkpt><trkpt lat="42.20085421196119" lon="12.310816096294277"><ele>249.0</ele><time>2026-04-29T17:25:16Z</time></trkpt><trkpt lat="42.20063559215987" lon="12.311012431017387"><ele>251.0</ele><time>2026-04-29T17:25:17Z</time></trkpt><trkpt lat="42.200420925830876" lon="12.311203329381382"><ele>251.0</ele><time>2026-04-29T17:25:18Z</time></trkpt><trkpt lat="42.20021157465957" lon="12.311390419441267"><ele>251.0</ele><time>2026-04-29T17:25:19Z</time></trkpt><trkpt lat="42.2000085437239" lon="12.311568312003455"><ele>253.5</ele><time>2026-04-29T17:25:20Z</time></trkpt><trkpt lat="42.19980936427865" lon="12.311734433903851"><ele>256.0</ele><time>2026-04-29T17:25:21Z</time></trkpt><trkpt lat="42.19960826058319" lon="12.311893577007762"><ele>256.0</ele><time>2026-04-29T17:25:22Z</time></trkpt><trkpt lat="42.199404500011156" lon="12.312035855336292"><ele>256.0</ele><time>2026-04-29T17:25:23Z</time></trkpt><trkpt lat="42.19919549486124" lon="12.312164261527547"><ele>255.5</ele><time>2026-04-29T17:25:24Z</time></trkpt><trkpt lat="42.198981084489816" lon="12.312280933777807"><ele>255.0</ele><time>2026-04-29T17:25:25Z</time></trkpt><trkpt lat="42.19875856532095" lon="12.312383651436633"><ele>255.0</ele><time>2026-04-29T17:25:26Z</time></trkpt><trkpt lat="42.198528425140886" lon="12.312471392538333"><ele>255.0</ele><time>2026-04-29T17:25:27Z</time></trkpt><trkpt lat="42.19829344205537" lon="12.312548319391887"><ele>255.5</ele><time>2026-04-29T17:25:28Z</time></trkpt><trkpt lat="42.19805131485288" lon="12.312615728308613"><ele>256.0</ele><time>2026-04-29T17:25:29Z</time></trkpt><trkpt lat="42.19780456285138" lon="12.312679589808369"><ele>256.0</ele><time>2026-04-29T17:25:30Z</time></trkpt><trkpt lat="42.1975535230442" lon="12.312744769347578"><ele>256.0</ele><time>2026-04-29T17:25:31Z</time></trkpt><trkpt lat="42.197300413873975" lon="12.31280820056549"><ele>257.0</ele><time>2026-04-29T17:25:32Z</time></trkpt><trkpt lat="42.19704498926423" lon="12.312870709288372"><ele>258.0</ele><time>2026-04-29T17:25:33Z</time></trkpt><trkpt lat="42.196785822987714" lon="12.312932111180945"><ele>258.0</ele><time>2026-04-29T17:25:34Z</time></trkpt><trkpt lat="42.19652673057896" lon="12.312994648586661"><ele>258.0</ele><time>2026-04-29T17:25:35Z</time></trkpt><trkpt lat="42.19626571043196" lon="12.313058205858853"><ele>257.0</ele><time>2026-04-29T17:25:36Z</time></trkpt><trkpt lat="42.19600492076874" lon="12.313123333070386"><ele>256.0</ele><time>2026-04-29T17:25:37Z</time></trkpt><trkpt lat="42.19574264706068" lon="12.313188020830072"><ele>258.0</ele><time>2026-04-29T17:25:38Z</time></trkpt><trkpt lat="42.19547804702903" lon="12.31325190416592"><ele>260.0</ele><time>2026-04-29T17:25:39Z</time></trkpt><trkpt lat="42.19521255546232" lon="12.313318506258462"><ele>260.0</ele><time>2026-04-29T17:25:40Z</time></trkpt><trkpt lat="42.19495143026748" lon="12.313382284659502"><ele>260.0</ele><time>2026-04-29T17:25:41Z</time></trkpt><trkpt lat="42.194699449711194" lon="12.313443670491091"><ele>260.0</ele><time>2026-04-29T17:25:42Z</time></trkpt><trkpt lat="42.19445461134274" lon="12.313504766516694"><ele>260.0</ele><time>2026-04-29T17:25:43Z</time></trkpt><trkpt lat="42.19421382859752" lon="12.313567439785281"><ele>260.0</ele><time>2026-04-29T17:25:44Z</time></trkpt><trkpt lat="42.19397777452293" lon="12.313633602699749"><ele>260.0</ele><time>2026-04-29T17:25:45Z</time></trkpt><trkpt lat="42.1937469300948" lon="12.313708647292442"><ele>260.0</ele><time>2026-04-29T17:25:46Z</time></trkpt><trkpt lat="42.19352190241876" lon="12.313798337770326"><ele>260.0</ele><time>2026-04-29T17:25:47Z</time></trkpt><trkpt lat="42.19330078746769" lon="12.31389816022916"><ele>259.0</ele><time>2026-04-29T17:25:48Z</time></trkpt><trkpt lat="42.1930851229407" lon="12.314010356821525"><ele>258.0</ele><time>2026-04-29T17:25:49Z</time></trkpt><trkpt lat="42.192878875732546" lon="12.314134744103264"><ele>258.0</ele><time>2026-04-29T17:25:50Z</time></trkpt><trkpt lat="42.19268214155765" lon="12.31426797298034"><ele>258.0</ele><time>2026-04-29T17:25:51Z</time></trkpt><trkpt lat="42.19249026343978" lon="12.314409782124363"><ele>258.0</ele><time>2026-04-29T17:25:52Z</time></trkpt><trkpt lat="42.19230224505288" lon="12.314563541424732"><ele>258.0</ele><time>2026-04-29T17:25:53Z</time></trkpt><trkpt lat="42.19211895374596" lon="12.31472741531924"><ele>258.0</ele><time>2026-04-29T17:25:54Z</time></trkpt><trkpt lat="42.191942634629434" lon="12.314900727060948"><ele>258.0</ele><time>2026-04-29T17:25:55Z</time></trkpt><trkpt lat="42.1917758700218" lon="12.315088436063958"><ele>257.0</ele><time>2026-04-29T17:25:56Z</time></trkpt><trkpt lat="42.191610552256016" lon="12.315291745494953"><ele>256.0</ele><time>2026-04-29T17:25:57Z</time></trkpt><trkpt lat="42.19144166022296" lon="12.315509473815432"><ele>253.5</ele><time>2026-04-29T17:25:58Z</time></trkpt><trkpt lat="42.19127079315034" lon="12.315737412810432"><ele>251.0</ele><time>2026-04-29T17:25:59Z</time></trkpt><trkpt lat="42.19109891427966" lon="12.315976431821195"><ele>251.0</ele><time>2026-04-29T17:26:00Z</time></trkpt><trkpt lat="42.190926133109315" lon="12.316224386182892"><ele>251.0</ele><time>2026-04-29T17:26:01Z</time></trkpt><trkpt lat="42.190752395272" lon="12.316474571442818"><ele>248.5</ele><time>2026-04-29T17:26:02Z</time></trkpt><trkpt lat="42.19058394815334" lon="12.316716624290137"><ele>246.0</ele><time>2026-04-29T17:26:03Z</time></trkpt><trkpt lat="42.19042416174316" lon="12.316945523007842"><ele>246.0</ele><time>2026-04-29T17:26:04Z</time></trkpt><trkpt lat="42.19027124833573" lon="12.31716715858523"><ele>246.0</ele><time>2026-04-29T17:26:05Z</time></trkpt><trkpt lat="42.19012288717336" lon="12.317378726922646"><ele>246.0</ele><time>2026-04-29T17:26:06Z</time></trkpt><trkpt lat="42.189977998883776" lon="12.317581271410587"><ele>245.33333333333331</ele><time>2026-04-29T17:26:07Z</time></trkpt><trkpt lat="42.189839223316014" lon="12.317776277946107"><ele>244.66666666666666</ele><time>2026-04-29T17:26:08Z</time></trkpt><trkpt lat="42.18969643781577" lon="12.317981787727295"><ele>244.0</ele><time>2026-04-29T17:26:09Z</time></trkpt><trkpt lat="42.18954769085944" lon="12.318197764803125"><ele>243.66666666666666</ele><time>2026-04-29T17:26:10Z</time></trkpt><trkpt lat="42.18939249718316" lon="12.318411341058091"><ele>243.33333333333331</ele><time>2026-04-29T17:26:11Z</time></trkpt><trkpt lat="42.18922825455846" lon="12.31861893673365"><ele>243.0</ele><time>2026-04-29T17:26:12Z</time></trkpt><trkpt lat="42.189057754355176" lon="12.318823548233965"><ele>241.5</ele><time>2026-04-29T17:26:13Z</time></trkpt><trkpt lat="42.18888389401608" lon="12.319014584277594"><ele>240.0</ele><time>2026-04-29T17:26:14Z</time></trkpt><trkpt lat="42.188702005495394" lon="12.319195847699774"><ele>240.0</ele><time>2026-04-29T17:26:15Z</time></trkpt><trkpt lat="42.18851618267935" lon="12.3193693669086"><ele>240.0</ele><time>2026-04-29T17:26:16Z</time></trkpt><trkpt lat="42.18832548730098" lon="12.319527515122658"><ele>240.0</ele><time>2026-04-29T17:26:17Z</time></trkpt><trkpt lat="42.18812553643894" lon="12.319673453703356"><ele>240.0</ele><time>2026-04-29T17:26:18Z</time></trkpt><trkpt lat="42.18792064431782" lon="12.319803563603283"><ele>240.0</ele><time>2026-04-29T17:26:19Z</time></trkpt><trkpt lat="42.187711188932106" lon="12.319915623121004"><ele>240.0</ele><time>2026-04-29T17:26:20Z</time></trkpt><trkpt lat="42.18749410097814" lon="12.320014165934074"><ele>240.0</ele><time>2026-04-29T17:26:21Z</time></trkpt><trkpt lat="42.187265881318254" lon="12.320107873081485"><ele>240.0</ele><time>2026-04-29T17:26:22Z</time></trkpt><trkpt lat="42.187025469215826" lon="12.320198331010944"><ele>240.0</ele><time>2026-04-29T17:26:23Z</time></trkpt><trkpt lat="42.18677671790498" lon="12.32028904093258"><ele>240.0</ele><time>2026-04-29T17:26:24Z</time></trkpt><trkpt lat="42.18652120509947" lon="12.320379631755706"><ele>241.5</ele><time>2026-04-29T17:26:25Z</time></trkpt><trkpt lat="42.18626936329388" lon="12.320464757485134"><ele>243.0</ele><time>2026-04-29T17:26:26Z</time></trkpt><trkpt lat="42.1860079567872" lon="12.32054853491805"><ele>242.5</ele><time>2026-04-29T17:26:27Z</time></trkpt><trkpt lat="42.185741489269226" lon="12.320635128347433"><ele>242.0</ele><time>2026-04-29T17:26:28Z</time></trkpt><trkpt lat="42.18547545697151" lon="12.320728513009477"><ele>242.0</ele><time>2026-04-29T17:26:29Z</time></trkpt><trkpt lat="42.185206490993835" lon="12.320824159728774"><ele>242.0</ele><time>2026-04-29T17:26:30Z</time></trkpt><trkpt lat="42.18493108137088" lon="12.320925308656983"><ele>242.0</ele><time>2026-04-29T17:26:31Z</time></trkpt><trkpt lat="42.18465584458529" lon="12.321026156123736"><ele>242.0</ele><time>2026-04-29T17:26:32Z</time></trkpt><trkpt lat="42.18437794588179" lon="12.321125281646143"><ele>242.0</ele><time>2026-04-29T17:26:33Z</time></trkpt><trkpt lat="42.184098805869624" lon="12.321223270645055"><ele>242.0</ele><time>2026-04-29T17:26:34Z</time></trkpt><trkpt lat="42.18382113812504" lon="12.321322929342482"><ele>244.5</ele><time>2026-04-29T17:26:35Z</time></trkpt><trkpt lat="42.18354307622832" lon="12.321422554204057"><ele>247.0</ele><time>2026-04-29T17:26:36Z</time></trkpt><trkpt lat="42.183265889420625" lon="12.321525093488924"><ele>248.5</ele><time>2026-04-29T17:26:37Z</time></trkpt><trkpt lat="42.182990939778605" lon="12.32162530236992"><ele>250.0</ele><time>2026-04-29T17:26:38Z</time></trkpt><trkpt lat="42.182713910933764" lon="12.321724542122963"><ele>250.0</ele><time>2026-04-29T17:26:39Z</time></trkpt><trkpt lat="42.182442739685044" lon="12.321824252802545"><ele>250.0</ele><time>2026-04-29T17:26:40Z</time></trkpt><trkpt lat="42.18216912563223" lon="12.321921185017779"><ele>253.0</ele><time>2026-04-29T17:26:41Z</time></trkpt><trkpt lat="42.18189874193475" lon="12.322018105485569"><ele>256.0</ele><time>2026-04-29T17:26:42Z</time></trkpt><trkpt lat="42.181629410224446" lon="12.322116283493662"><ele>259.0</ele><time>2026-04-29T17:26:43Z</time></trkpt><trkpt lat="42.18136138289475" lon="12.322215871031448"><ele>262.0</ele><time>2026-04-29T17:26:44Z</time></trkpt><trkpt lat="42.18109383657589" lon="12.322312461399992"><ele>262.0</ele><time>2026-04-29T17:26:45Z</time></trkpt><trkpt lat="42.18083006086762" lon="12.322407608691764"><ele>262.0</ele><time>2026-04-29T17:26:46Z</time></trkpt><trkpt lat="42.1805718975816" lon="12.32250165811231"><ele>263.0</ele><time>2026-04-29T17:26:47Z</time></trkpt><trkpt lat="42.180319932268475" lon="12.322598996955232"><ele>264.0</ele><time>2026-04-29T17:26:48Z</time></trkpt><trkpt lat="42.18007111547413" lon="12.322700603225956"><ele>263.5</ele><time>2026-04-29T17:26:49Z</time></trkpt><trkpt lat="42.17982196826766" lon="12.32280893608785"><ele>263.0</ele><time>2026-04-29T17:26:50Z</time></trkpt><trkpt lat="42.17956873184886" lon="12.322921270874605"><ele>263.0</ele><time>2026-04-29T17:26:51Z</time></trkpt><trkpt lat="42.17931104345702" lon="12.323039421639255"><ele>263.0</ele><time>2026-04-29T17:26:52Z</time></trkpt><trkpt lat="42.17905050503233" lon="12.323162440420353"><ele>261.5</ele><time>2026-04-29T17:26:53Z</time></trkpt><trkpt lat="42.17879601947141" lon="12.32328834350525"><ele>260.0</ele><time>2026-04-29T17:26:54Z</time></trkpt><trkpt lat="42.17854515877369" lon="12.323421574395473"><ele>260.0</ele><time>2026-04-29T17:26:55Z</time></trkpt><trkpt lat="42.178295091071746" lon="12.323563036570318"><ele>260.0</ele><time>2026-04-29T17:26:56Z</time></trkpt><trkpt lat="42.17804559730623" lon="12.32370898398676"><ele>258.5</ele><time>2026-04-29T17:26:57Z</time></trkpt><trkpt lat="42.17779675090663" lon="12.323858373982109"><ele>257.0</ele><time>2026-04-29T17:26:58Z</time></trkpt><trkpt lat="42.177546064845956" lon="12.324011889515855"><ele>257.5</ele><time>2026-04-29T17:26:59Z</time></trkpt><trkpt lat="42.177293533422095" lon="12.324167109088402"><ele>258.0</ele><time>2026-04-29T17:27:00Z</time></trkpt><trkpt lat="42.17704081311555" lon="12.324321310141762"><ele>258.0</ele><time>2026-04-29T17:27:01Z</time></trkpt><trkpt lat="42.176787785227745" lon="12.324476846003188"><ele>258.0</ele><time>2026-04-29T17:27:02Z</time></trkpt><trkpt lat="42.176535933260105" lon="12.324634150311528"><ele>258.5</ele><time>2026-04-29T17:27:03Z</time></trkpt><trkpt lat="42.17628571501025" lon="12.324792775893714"><ele>259.0</ele><time>2026-04-29T17:27:04Z</time></trkpt><trkpt lat="42.17603501500177" lon="12.324953951934098"><ele>259.0</ele><time>2026-04-29T17:27:05Z</time></trkpt><trkpt lat="42.175787330907795" lon="12.325117206852987"><ele>259.0</ele><time>2026-04-29T17:27:06Z</time></trkpt><trkpt lat="42.175540836621224" lon="12.325279568558217"><ele>258.0</ele><time>2026-04-29T17:27:07Z</time></trkpt><trkpt lat="42.17529691077022" lon="12.3254483184639"><ele>257.0</ele><time>2026-04-29T17:27:08Z</time></trkpt><trkpt lat="42.17505850066238" lon="12.325622627776605"><ele>255.0</ele><time>2026-04-29T17:27:09Z</time></trkpt><trkpt lat="42.17482819081087" lon="12.325801611405698"><ele>253.0</ele><time>2026-04-29T17:27:10Z</time></trkpt><trkpt lat="42.17460226144907" lon="12.325990203698652"><ele>253.0</ele><time>2026-04-29T17:27:11Z</time></trkpt><trkpt lat="42.174378357031806" lon="12.326186116608682"><ele>253.0</ele><time>2026-04-29T17:27:12Z</time></trkpt><trkpt lat="42.17416004353812" lon="12.326387770643642"><ele>251.0</ele><time>2026-04-29T17:27:13Z</time></trkpt><trkpt lat="42.17395074679943" lon="12.32659967315815"><ele>249.0</ele><time>2026-04-29T17:27:14Z</time></trkpt><trkpt lat="42.17374676573764" lon="12.326816749963017"><ele>249.0</ele><time>2026-04-29T17:27:15Z</time></trkpt><trkpt lat="42.173549062357836" lon="12.327041142273227"><ele>249.0</ele><time>2026-04-29T17:27:16Z</time></trkpt><trkpt lat="42.17335847564874" lon="12.327272856952497"><ele>247.0</ele><time>2026-04-29T17:27:17Z</time></trkpt><trkpt lat="42.1731711872079" lon="12.3275126583321"><ele>245.0</ele><time>2026-04-29T17:27:18Z</time></trkpt><trkpt lat="42.17298684406893" lon="12.327762891078025"><ele>245.0</ele><time>2026-04-29T17:27:19Z</time></trkpt><trkpt lat="42.17280380485167" lon="12.328024869691303"><ele>245.0</ele><time>2026-04-29T17:27:20Z</time></trkpt><trkpt lat="42.172622222370755" lon="12.328295982893628"><ele>245.5</ele><time>2026-04-29T17:27:21Z</time></trkpt><trkpt lat="42.17244120285917" lon="12.328575371548542"><ele>246.0</ele><time>2026-04-29T17:27:22Z</time></trkpt><trkpt lat="42.17226665996242" lon="12.328852850548442"><ele>242.5</ele><time>2026-04-29T17:27:23Z</time></trkpt><trkpt lat="42.172092376718595" lon="12.329138774288989"><ele>239.0</ele><time>2026-04-29T17:27:24Z</time></trkpt><trkpt lat="42.17191671972883" lon="12.329428589544635"><ele>239.0</ele><time>2026-04-29T17:27:25Z</time></trkpt><trkpt lat="42.171743631205395" lon="12.329722387144045"><ele>239.0</ele><time>2026-04-29T17:27:26Z</time></trkpt><trkpt lat="42.17157179766953" lon="12.330011822833512"><ele>234.5</ele><time>2026-04-29T17:27:27Z</time></trkpt><trkpt lat="42.17140767424688" lon="12.330288549844846"><ele>230.0</ele><time>2026-04-29T17:27:28Z</time></trkpt><trkpt lat="42.171250112245815" lon="12.330551385460856"><ele>229.5</ele><time>2026-04-29T17:27:29Z</time></trkpt><trkpt lat="42.1710944125891" lon="12.330810014625493"><ele>229.0</ele><time>2026-04-29T17:27:30Z</time></trkpt><trkpt lat="42.170939688660226" lon="12.331063138401701"><ele>229.0</ele><time>2026-04-29T17:27:31Z</time></trkpt><trkpt lat="42.170788029583704" lon="12.33131031871573"><ele>229.0</ele><time>2026-04-29T17:27:32Z</time></trkpt><trkpt lat="42.170637370971605" lon="12.331554862688323"><ele>227.0</ele><time>2026-04-29T17:27:33Z</time></trkpt><trkpt lat="42.17048868892861" lon="12.331795181826468"><ele>225.0</ele><time>2026-04-29T17:27:34Z</time></trkpt><trkpt lat="42.170346574408775" lon="12.332028323843577"><ele>224.66666666666669</ele><time>2026-04-29T17:27:35Z</time></trkpt><trkpt lat="42.170209876474665" lon="12.332249391810628"><ele>224.33333333333334</ele><time>2026-04-29T17:27:36Z</time></trkpt><trkpt lat="42.17007738522289" lon="12.332460931245155"><ele>224.0</ele><time>2026-04-29T17:27:37Z</time></trkpt><trkpt lat="42.169941907890276" lon="12.332657023144806"><ele>222.66666666666669</ele><time>2026-04-29T17:27:38Z</time></trkpt><trkpt lat="42.16979859384426" lon="12.332832785943939"><ele>221.33333333333331</ele><time>2026-04-29T17:27:39Z</time></trkpt><trkpt lat="42.16964261145536" lon="12.33299903644952"><ele>220.0</ele><time>2026-04-29T17:27:40Z</time></trkpt><trkpt lat="42.16947851925827" lon="12.333154600621748"><ele>219.66666666666666</ele><time>2026-04-29T17:27:41Z</time></trkpt><trkpt lat="42.16930386982958" lon="12.333296637594659"><ele>219.33333333333331</ele><time>2026-04-29T17:27:42Z</time></trkpt><trkpt lat="42.1691196895412" lon="12.333424207643123"><ele>219.0</ele><time>2026-04-29T17:27:43Z</time></trkpt><trkpt lat="42.168923915004434" lon="12.333540286440192"><ele>219.0</ele><time>2026-04-29T17:27:44Z</time></trkpt><trkpt lat="42.168717992658614" lon="12.333648323240558"><ele>219.0</ele><time>2026-04-29T17:27:45Z</time></trkpt><trkpt lat="42.168501782071246" lon="12.33374607738535"><ele>219.0</ele><time>2026-04-29T17:27:46Z</time></trkpt><trkpt lat="42.16827458659023" lon="12.333836768133656"><ele>218.0</ele><time>2026-04-29T17:27:47Z</time></trkpt><trkpt lat="42.16804084856074" lon="12.333919677119336"><ele>217.0</ele><time>2026-04-29T17:27:48Z</time></trkpt><trkpt lat="42.167798996629394" lon="12.333998950414612"><ele>217.0</ele><time>2026-04-29T17:27:49Z</time></trkpt><trkpt lat="42.167551956085646" lon="12.33408173224512"><ele>217.0</ele><time>2026-04-29T17:27:50Z</time></trkpt><trkpt lat="42.16730052618466" lon="12.334169263274047"><ele>216.0</ele><time>2026-04-29T17:27:51Z</time></trkpt><trkpt lat="42.16704575382874" lon="12.33425810938169"><ele>215.0</ele><time>2026-04-29T17:27:52Z</time></trkpt><trkpt lat="42.16678809854722" lon="12.334346772881082"><ele>215.5</ele><time>2026-04-29T17:27:53Z</time></trkpt><trkpt lat="42.166525587176096" lon="12.33443851428248"><ele>216.0</ele><time>2026-04-29T17:27:54Z</time></trkpt><trkpt lat="42.16625854107475" lon="12.334529909855835"><ele>216.0</ele><time>2026-04-29T17:27:55Z</time></trkpt><trkpt lat="42.16599026375413" lon="12.334621758301875"><ele>216.0</ele><time>2026-04-29T17:27:56Z</time></trkpt><trkpt lat="42.165720561973984" lon="12.334711356428672"><ele>213.5</ele><time>2026-04-29T17:27:57Z</time></trkpt><trkpt lat="42.165452485503664" lon="12.334800215637014"><ele>211.0</ele><time>2026-04-29T17:27:58Z</time></trkpt><trkpt lat="42.16518925195698" lon="12.334888522667358"><ele>211.0</ele><time>2026-04-29T17:27:59Z</time></trkpt><trkpt lat="42.164933046847885" lon="12.334975223581862"><ele>211.0</ele><time>2026-04-29T17:28:00Z</time></trkpt><trkpt lat="42.16468780494862" lon="12.335060091976464"><ele>210.0</ele><time>2026-04-29T17:28:01Z</time></trkpt><trkpt lat="42.164452790386726" lon="12.335143376529528"><ele>209.0</ele><time>2026-04-29T17:28:02Z</time></trkpt><trkpt lat="42.1642192930052" lon="12.335230753212763"><ele>209.5</ele><time>2026-04-29T17:28:03Z</time></trkpt><trkpt lat="42.16399671823482" lon="12.335332532204227"><ele>210.0</ele><time>2026-04-29T17:28:04Z</time></trkpt><trkpt lat="42.163782476517554" lon="12.335449717593882"><ele>209.5</ele><time>2026-04-29T17:28:05Z</time></trkpt><trkpt lat="42.163575280947164" lon="12.335588375717144"><ele>209.0</ele><time>2026-04-29T17:28:06Z</time></trkpt><trkpt lat="42.16336562061312" lon="12.335746032927945"><ele>208.5</ele><time>2026-04-29T17:28:07Z</time></trkpt><trkpt lat="42.16315218852147" lon="12.335919906126854"><ele>208.0</ele><time>2026-04-29T17:28:08Z</time></trkpt><trkpt lat="42.162932719860436" lon="12.336103989599765"><ele>208.0</ele><time>2026-04-29T17:28:09Z</time></trkpt><trkpt lat="42.162709169587565" lon="12.33629221151625"><ele>208.0</ele><time>2026-04-29T17:28:10Z</time></trkpt><trkpt lat="42.16247874525886" lon="12.336480354920067"><ele>206.0</ele><time>2026-04-29T17:28:11Z</time></trkpt><trkpt lat="42.16224779965875" lon="12.336668179712765"><ele>204.0</ele><time>2026-04-29T17:28:12Z</time></trkpt><trkpt lat="42.16202066659242" lon="12.336849800392395"><ele>204.0</ele><time>2026-04-29T17:28:13Z</time></trkpt><trkpt lat="42.16179716973802" lon="12.337032096122847"><ele>204.0</ele><time>2026-04-29T17:28:14Z</time></trkpt><trkpt lat="42.161578595133385" lon="12.337220835687775"><ele>205.0</ele><time>2026-04-29T17:28:15Z</time></trkpt><trkpt lat="42.16136399116187" lon="12.337421153562508"><ele>206.0</ele><time>2026-04-29T17:28:16Z</time></trkpt><trkpt lat="42.16115383875509" lon="12.337632655762167"><ele>206.0</ele><time>2026-04-29T17:28:17Z</time></trkpt><trkpt lat="42.16094344105583" lon="12.337849056549215"><ele>206.0</ele><time>2026-04-29T17:28:18Z</time></trkpt><trkpt lat="42.16072951350551" lon="12.338075710760608"><ele>208.5</ele><time>2026-04-29T17:28:19Z</time></trkpt><trkpt lat="42.16051069657262" lon="12.338313035520583"><ele>211.0</ele><time>2026-04-29T17:28:20Z</time></trkpt><trkpt lat="42.160285009049325" lon="12.338555911958936"><ele>211.0</ele><time>2026-04-29T17:28:21Z</time></trkpt><trkpt lat="42.16005186601392" lon="12.338804419409426"><ele>211.0</ele><time>2026-04-29T17:28:22Z</time></trkpt><trkpt lat="42.159814208196345" lon="12.339053792797667"><ele>211.0</ele><time>2026-04-29T17:28:23Z</time></trkpt><trkpt lat="42.15957419766345" lon="12.339298946968325"><ele>211.0</ele><time>2026-04-29T17:28:24Z</time></trkpt><trkpt lat="42.159338380689476" lon="12.339533248156448"><ele>210.5</ele><time>2026-04-29T17:28:25Z</time></trkpt><trkpt lat="42.159101333050984" lon="12.339766972750638"><ele>210.0</ele><time>2026-04-29T17:28:26Z</time></trkpt><trkpt lat="42.15885996411384" lon="12.340002837025258"><ele>208.0</ele><time>2026-04-29T17:28:27Z</time></trkpt><trkpt lat="42.15862118977892" lon="12.34023848396306"><ele>206.0</ele><time>2026-04-29T17:28:28Z</time></trkpt><trkpt lat="42.15838819460261" lon="12.340471181362737"><ele>206.5</ele><time>2026-04-29T17:28:29Z</time></trkpt><trkpt lat="42.15816138881349" lon="12.340710481437696"><ele>207.0</ele><time>2026-04-29T17:28:30Z</time></trkpt><trkpt lat="42.157933349789865" lon="12.34095380978679"><ele>207.0</ele><time>2026-04-29T17:28:31Z</time></trkpt><trkpt lat="42.157708611646" lon="12.341205456080463"><ele>207.0</ele><time>2026-04-29T17:28:32Z</time></trkpt><trkpt lat="42.15748551962899" lon="12.341469359176601"><ele>206.5</ele><time>2026-04-29T17:28:33Z</time></trkpt><trkpt lat="42.15726140833469" lon="12.341739522169526"><ele>206.0</ele><time>2026-04-29T17:28:34Z</time></trkpt><trkpt lat="42.157037227832845" lon="12.342009913041782"><ele>204.0</ele><time>2026-04-29T17:28:35Z</time></trkpt><trkpt lat="42.15681376904147" lon="12.342279009657222"><ele>202.0</ele><time>2026-04-29T17:28:36Z</time></trkpt><trkpt lat="42.156590856730574" lon="12.3425447157311"><ele>201.5</ele><time>2026-04-29T17:28:37Z</time></trkpt><trkpt lat="42.15636835456889" lon="12.342810862562777"><ele>201.0</ele><time>2026-04-29T17:28:38Z</time></trkpt><trkpt lat="42.156146139759024" lon="12.343077241430098"><ele>200.0</ele><time>2026-04-29T17:28:39Z</time></trkpt><trkpt lat="42.15592987526713" lon="12.343337067973337"><ele>199.0</ele><time>2026-04-29T17:28:40Z</time></trkpt><trkpt lat="42.15571867546266" lon="12.34359113738025"><ele>197.5</ele><time>2026-04-29T17:28:41Z</time></trkpt><trkpt lat="42.15551078189794" lon="12.343841567684786"><ele>196.0</ele><time>2026-04-29T17:28:42Z</time></trkpt><trkpt lat="42.15530071046093" lon="12.344090798512115"><ele>196.0</ele><time>2026-04-29T17:28:43Z</time></trkpt><trkpt lat="42.15508826036543" lon="12.34435051877335"><ele>196.0</ele><time>2026-04-29T17:28:44Z</time></trkpt><trkpt lat="42.15487492589098" lon="12.344616288736063"><ele>198.0</ele><time>2026-04-29T17:28:45Z</time></trkpt><trkpt lat="42.15466001219168" lon="12.34488595987292"><ele>200.0</ele><time>2026-04-29T17:28:46Z</time></trkpt><trkpt lat="42.154441442492896" lon="12.345157395205831"><ele>200.0</ele><time>2026-04-29T17:28:47Z</time></trkpt><trkpt lat="42.15421913796061" lon="12.345432920719905"><ele>200.0</ele><time>2026-04-29T17:28:48Z</time></trkpt><trkpt lat="42.1539949860953" lon="12.345707115958202"><ele>198.5</ele><time>2026-04-29T17:28:49Z</time></trkpt><trkpt lat="42.15377341701561" lon="12.345975927062018"><ele>197.0</ele><time>2026-04-29T17:28:50Z</time></trkpt><trkpt lat="42.15355390063919" lon="12.346238488479223"><ele>198.0</ele><time>2026-04-29T17:28:51Z</time></trkpt><trkpt lat="42.15333677235942" lon="12.346496611975152"><ele>199.0</ele><time>2026-04-29T17:28:52Z</time></trkpt><trkpt lat="42.15311883800324" lon="12.34674560985753"><ele>200.5</ele><time>2026-04-29T17:28:53Z</time></trkpt><trkpt lat="42.15289750526592" lon="12.346984454179902"><ele>202.0</ele><time>2026-04-29T17:28:54Z</time></trkpt><trkpt lat="42.15267481308182" lon="12.347213201584314"><ele>202.0</ele><time>2026-04-29T17:28:55Z</time></trkpt><trkpt lat="42.15244650293286" lon="12.34742759056083"><ele>202.0</ele><time>2026-04-29T17:28:56Z</time></trkpt><trkpt lat="42.152213116882194" lon="12.347632480007315"><ele>203.0</ele><time>2026-04-29T17:28:57Z</time></trkpt><trkpt lat="42.15197914205646" lon="12.347829604353588"><ele>204.0</ele><time>2026-04-29T17:28:58Z</time></trkpt><trkpt lat="42.1517442256753" lon="12.348018580853388"><ele>205.0</ele><time>2026-04-29T17:28:59Z</time></trkpt><trkpt lat="42.15150863029265" lon="12.348198228102872"><ele>206.0</ele><time>2026-04-29T17:29:00Z</time></trkpt><trkpt lat="42.1512692337242" lon="12.348364940241288"><ele>206.0</ele><time>2026-04-29T17:29:01Z</time></trkpt><trkpt lat="42.151022599677205" lon="12.348516865888392"><ele>206.0</ele><time>2026-04-29T17:29:02Z</time></trkpt><trkpt lat="42.15077043216423" lon="12.348661644776838"><ele>207.5</ele><time>2026-04-29T17:29:03Z</time></trkpt><trkpt lat="42.15051636759406" lon="12.348798665401986"><ele>209.0</ele><time>2026-04-29T17:29:04Z</time></trkpt><trkpt lat="42.150260763708125" lon="12.348923898953355"><ele>209.0</ele><time>2026-04-29T17:29:05Z</time></trkpt><trkpt lat="42.15000844720946" lon="12.349034365879795"><ele>209.0</ele><time>2026-04-29T17:29:06Z</time></trkpt><trkpt lat="42.149802331816396" lon="12.349116567557562"><ele>209.33333333333334</ele><time>2026-04-29T17:29:07Z</time></trkpt><trkpt lat="42.14962548446862" lon="12.349184339786927"><ele>209.66666666666669</ele><time>2026-04-29T17:29:08Z</time></trkpt><trkpt lat="42.149465846772344" lon="12.349239628196404"><ele>210.0</ele><time>2026-04-29T17:29:09Z</time></trkpt><trkpt lat="42.14930193429231" lon="12.34929120350915"><ele>210.0</ele><time>2026-04-29T17:29:10Z</time></trkpt><trkpt lat="42.14913477500111" lon="12.349335141034576"><ele>210.0</ele><time>2026-04-29T17:29:11Z</time></trkpt><trkpt lat="42.14897530171079" lon="12.349371833522197"><ele>210.0</ele><time>2026-04-29T17:29:12Z</time></trkpt><trkpt lat="42.14881447101731" lon="12.34940822571468"><ele>211.33333333333331</ele><time>2026-04-29T17:29:13Z</time></trkpt><trkpt lat="42.148651221934166" lon="12.349445401129216"><ele>212.66666666666666</ele><time>2026-04-29T17:29:14Z</time></trkpt><trkpt lat="42.148484346988106" lon="12.349482480612256"><ele>214.0</ele><time>2026-04-29T17:29:15Z</time></trkpt><trkpt lat="42.148312629027295" lon="12.349522410483498"><ele>214.0</ele><time>2026-04-29T17:29:16Z</time></trkpt><trkpt lat="42.14813523809393" lon="12.34956457001487"><ele>214.0</ele><time>2026-04-29T17:29:17Z</time></trkpt><trkpt lat="42.14795146353089" lon="12.349612112674281"><ele>214.0</ele><time>2026-04-29T17:29:18Z</time></trkpt><trkpt lat="42.14776279910788" lon="12.34966487916188"><ele>214.33333333333331</ele><time>2026-04-29T17:29:19Z</time></trkpt><trkpt lat="42.14756790463071" lon="12.349716455043602"><ele>214.66666666666669</ele><time>2026-04-29T17:29:20Z</time></trkpt><trkpt lat="42.147366205473894" lon="12.349762872473654"><ele>215.0</ele><time>2026-04-29T17:29:21Z</time></trkpt><trkpt lat="42.147161296438334" lon="12.349814568278312"><ele>216.0</ele><time>2026-04-29T17:29:22Z</time></trkpt><trkpt lat="42.14695329582888" lon="12.34986656570194"><ele>217.0</ele><time>2026-04-29T17:29:23Z</time></trkpt><trkpt lat="42.14674165183309" lon="12.349922106279994"><ele>218.0</ele><time>2026-04-29T17:29:24Z</time></trkpt><trkpt lat="42.14652483621988" lon="12.34997634784007"><ele>219.0</ele><time>2026-04-29T17:29:25Z</time></trkpt><trkpt lat="42.14630594864699" lon="12.350032601329147"><ele>220.0</ele><time>2026-04-29T17:29:26Z</time></trkpt><trkpt lat="42.14608141146055" lon="12.350092374478232"><ele>220.0</ele><time>2026-04-29T17:29:27Z</time></trkpt><trkpt lat="42.14585769309426" lon="12.3501538394374"><ele>220.0</ele><time>2026-04-29T17:29:28Z</time></trkpt><trkpt lat="42.145630339852566" lon="12.350213771555886"><ele>220.33333333333331</ele><time>2026-04-29T17:29:29Z</time></trkpt><trkpt lat="42.14541114000806" lon="12.350269387393102"><ele>220.66666666666669</ele><time>2026-04-29T17:29:30Z</time></trkpt><trkpt lat="42.145219730093366" lon="12.350316346488652"><ele>221.0</ele><time>2026-04-29T17:29:31Z</time></trkpt><trkpt lat="42.14503944766331" lon="12.350360360121945"><ele>222.0</ele><time>2026-04-29T17:29:32Z</time></trkpt><trkpt lat="42.14485426938603" lon="12.350404700435474"><ele>223.0</ele><time>2026-04-29T17:29:33Z</time></trkpt><trkpt lat="42.14466734183286" lon="12.350449398399435"><ele>224.0</ele><time>2026-04-29T17:29:34Z</time></trkpt><trkpt lat="42.144478995392035" lon="12.35049364271194"><ele>224.33333333333334</ele><time>2026-04-29T17:29:35Z</time></trkpt><trkpt lat="42.14428645060734" lon="12.35054239633637"><ele>224.66666666666669</ele><time>2026-04-29T17:29:36Z</time></trkpt><trkpt lat="42.14409002736969" lon="12.350592795816336"><ele>225.0</ele><time>2026-04-29T17:29:37Z</time></trkpt><trkpt lat="42.14389051213335" lon="12.350642401736764"><ele>225.66666666666669</ele><time>2026-04-29T17:29:38Z</time></trkpt><trkpt lat="42.14369662352834" lon="12.350691558134882"><ele>226.33333333333334</ele><time>2026-04-29T17:29:39Z</time></trkpt><trkpt lat="42.14350808331048" lon="12.350737886861962"><ele>227.0</ele><time>2026-04-29T17:29:40Z</time></trkpt><trkpt lat="42.1433266045525" lon="12.350782434950618"><ele>229.0</ele><time>2026-04-29T17:29:41Z</time></trkpt><trkpt lat="42.14314905212766" lon="12.350826771899738"><ele>231.0</ele><time>2026-04-29T17:29:42Z</time></trkpt><trkpt lat="42.14297385574979" lon="12.350872659273941"><ele>233.0</ele><time>2026-04-29T17:29:43Z</time></trkpt><trkpt lat="42.14279870779405" lon="12.35092009020502"><ele>233.0</ele><time>2026-04-29T17:29:44Z</time></trkpt><trkpt lat="42.14262343021073" lon="12.350968340640339"><ele>233.0</ele><time>2026-04-29T17:29:45Z</time></trkpt><trkpt lat="42.14244790222841" lon="12.351017327772718"><ele>233.0</ele><time>2026-04-29T17:29:46Z</time></trkpt><trkpt lat="42.1422709217653" lon="12.35106291476799"><ele>233.66666666666669</ele><time>2026-04-29T17:29:47Z</time></trkpt><trkpt lat="42.14209238384327" lon="12.35110883866968"><ele>234.33333333333331</ele><time>2026-04-29T17:29:48Z</time></trkpt><trkpt lat="42.141909990117455" lon="12.35115429944255"><ele>235.0</ele><time>2026-04-29T17:29:49Z</time></trkpt><trkpt lat="42.141723360013394" lon="12.351201823745754"><ele>236.33333333333331</ele><time>2026-04-29T17:29:50Z</time></trkpt><trkpt lat="42.141535189140036" lon="12.351249514695702"><ele>237.66666666666669</ele><time>2026-04-29T17:29:51Z</time></trkpt><trkpt lat="42.14134084010567" lon="12.351298616367057"><ele>239.0</ele><time>2026-04-29T17:29:52Z</time></trkpt><trkpt lat="42.14113920753523" lon="12.351349673388365"><ele>240.66666666666669</ele><time>2026-04-29T17:29:53Z</time></trkpt><trkpt lat="42.14093038024544" lon="12.351404895316938"><ele>242.33333333333331</ele><time>2026-04-29T17:29:54Z</time></trkpt><trkpt lat="42.14071432870037" lon="12.351459837303038"><ele>244.0</ele><time>2026-04-29T17:29:55Z</time></trkpt><trkpt lat="42.140492428350214" lon="12.35151782343027"><ele>244.5</ele><time>2026-04-29T17:29:56Z</time></trkpt><trkpt lat="42.14026483071989" lon="12.35157793009632"><ele>245.0</ele><time>2026-04-29T17:29:57Z</time></trkpt><trkpt lat="42.14003164837361" lon="12.351637291383932"><ele>247.0</ele><time>2026-04-29T17:29:58Z</time></trkpt><trkpt lat="42.13979258772847" lon="12.351699342780163"><ele>249.0</ele><time>2026-04-29T17:29:59Z</time></trkpt><trkpt lat="42.13955909834335" lon="12.351756296161568"><ele>249.0</ele><time>2026-04-29T17:30:00Z</time></trkpt><trkpt lat="42.13932896554716" lon="12.351814161124684"><ele>249.0</ele><time>2026-04-29T17:30:01Z</time></trkpt><trkpt lat="42.13909125718375" lon="12.351881846760254"><ele>253.0</ele><time>2026-04-29T17:30:02Z</time></trkpt><trkpt lat="42.13884996695507" lon="12.35195161443234"><ele>257.0</ele><time>2026-04-29T17:30:03Z</time></trkpt><trkpt lat="42.1386032546558" lon="12.35202210963689"><ele>257.0</ele><time>2026-04-29T17:30:04Z</time></trkpt><trkpt lat="42.13835352986745" lon="12.352089179237868"><ele>257.0</ele><time>2026-04-29T17:30:05Z</time></trkpt><trkpt lat="42.13810103622401" lon="12.35215310732038"><ele>262.0</ele><time>2026-04-29T17:30:06Z</time></trkpt><trkpt lat="42.137850738171466" lon="12.352214274037966"><ele>267.0</ele><time>2026-04-29T17:30:07Z</time></trkpt><trkpt lat="42.137604870085895" lon="12.352275979039838"><ele>272.0</ele><time>2026-04-29T17:30:08Z</time></trkpt><trkpt lat="42.137360084109396" lon="12.352340888751938"><ele>277.0</ele><time>2026-04-29T17:30:09Z</time></trkpt><trkpt lat="42.13711764815362" lon="12.352405686487396"><ele>277.0</ele><time>2026-04-29T17:30:10Z</time></trkpt><trkpt lat="42.1368795589275" lon="12.352484794145486"><ele>277.0</ele><time>2026-04-29T17:30:11Z</time></trkpt><trkpt lat="42.13664466508635" lon="12.35258038680351"><ele>279.5</ele><time>2026-04-29T17:30:12Z</time></trkpt><trkpt lat="42.13642019177785" lon="12.352693052197475"><ele>282.0</ele><time>2026-04-29T17:30:13Z</time></trkpt><trkpt lat="42.13620211807339" lon="12.35282243991218"><ele>282.0</ele><time>2026-04-29T17:30:14Z</time></trkpt><trkpt lat="42.13598903605035" lon="12.352970094765956"><ele>282.0</ele><time>2026-04-29T17:30:15Z</time></trkpt><trkpt lat="42.135771960315395" lon="12.35313467844316"><ele>282.0</ele><time>2026-04-29T17:30:16Z</time></trkpt><trkpt lat="42.135549789181205" lon="12.353309103943364"><ele>282.0</ele><time>2026-04-29T17:30:17Z</time></trkpt><trkpt lat="42.1353206784138" lon="12.35348548226192"><ele>282.0</ele><time>2026-04-29T17:30:18Z</time></trkpt><trkpt lat="42.13508826973416" lon="12.353661793074991"><ele>282.0</ele><time>2026-04-29T17:30:19Z</time></trkpt><trkpt lat="42.1348558288269" lon="12.353840876758053"><ele>276.0</ele><time>2026-04-29T17:30:20Z</time></trkpt><trkpt lat="42.13462697301789" lon="12.35401687533043"><ele>270.0</ele><time>2026-04-29T17:30:21Z</time></trkpt><trkpt lat="42.13440259638479" lon="12.354190116647398"><ele>270.0</ele><time>2026-04-29T17:30:22Z</time></trkpt><trkpt lat="42.13417690396161" lon="12.354364120533514"><ele>270.0</ele><time>2026-04-29T17:30:23Z</time></trkpt><trkpt lat="42.133947522305434" lon="12.354540066571614"><ele>267.5</ele><time>2026-04-29T17:30:24Z</time></trkpt><trkpt lat="42.13372825071958" lon="12.354708692483296"><ele>265.0</ele><time>2026-04-29T17:30:25Z</time></trkpt><trkpt lat="42.133515124659645" lon="12.354871243061273"><ele>265.0</ele><time>2026-04-29T17:30:26Z</time></trkpt><trkpt lat="42.133293251943506" lon="12.355043645365859"><ele>265.0</ele><time>2026-04-29T17:30:27Z</time></trkpt><trkpt lat="42.133064850246704" lon="12.355220039135311"><ele>263.5</ele><time>2026-04-29T17:30:28Z</time></trkpt><trkpt lat="42.13283244635209" lon="12.35539956225453"><ele>262.0</ele><time>2026-04-29T17:30:29Z</time></trkpt><trkpt lat="42.1325967597772" lon="12.355584553618561"><ele>256.5</ele><time>2026-04-29T17:30:30Z</time></trkpt><trkpt lat="42.1323592407716" lon="12.355767342259677"><ele>251.0</ele><time>2026-04-29T17:30:31Z</time></trkpt><trkpt lat="42.132115689072236" lon="12.355948344975697"><ele>251.0</ele><time>2026-04-29T17:30:32Z</time></trkpt><trkpt lat="42.131873682785034" lon="12.356132938918037"><ele>251.0</ele><time>2026-04-29T17:30:33Z</time></trkpt><trkpt lat="42.13163950002232" lon="12.35631306284502"><ele>247.0</ele><time>2026-04-29T17:30:34Z</time></trkpt><trkpt lat="42.13140823218909" lon="12.356491478841727"><ele>243.0</ele><time>2026-04-29T17:30:35Z</time></trkpt><trkpt lat="42.13117511980431" lon="12.356668048159733"><ele>243.0</ele><time>2026-04-29T17:30:36Z</time></trkpt><trkpt lat="42.13094542621073" lon="12.356840825274576"><ele>243.0</ele><time>2026-04-29T17:30:37Z</time></trkpt><trkpt lat="42.1307287779847" lon="12.357003063838702"><ele>241.0</ele><time>2026-04-29T17:30:38Z</time></trkpt><trkpt lat="42.1305207935078" lon="12.357164897018635"><ele>239.0</ele><time>2026-04-29T17:30:39Z</time></trkpt><trkpt lat="42.13032240475035" lon="12.357325598809389"><ele>239.0</ele><time>2026-04-29T17:30:40Z</time></trkpt><trkpt lat="42.1301333958699" lon="12.357489450769346"><ele>239.0</ele><time>2026-04-29T17:30:41Z</time></trkpt><trkpt lat="42.12995356422237" lon="12.35766336611714"><ele>239.0</ele><time>2026-04-29T17:30:42Z</time></trkpt><trkpt lat="42.12977896308736" lon="12.35785540905956"><ele>236.5</ele><time>2026-04-29T17:30:43Z</time></trkpt><trkpt lat="42.129604080119904" lon="12.358059491067959"><ele>234.0</ele><time>2026-04-29T17:30:44Z</time></trkpt><trkpt lat="42.129429839988184" lon="12.358275742365366"><ele>234.0</ele><time>2026-04-29T17:30:45Z</time></trkpt><trkpt lat="42.129260002249815" lon="12.358504272958415"><ele>234.0</ele><time>2026-04-29T17:30:46Z</time></trkpt><trkpt lat="42.12909881833197" lon="12.358743712906179"><ele>232.0</ele><time>2026-04-29T17:30:47Z</time></trkpt><trkpt lat="42.12894282214015" lon="12.358994660054519"><ele>230.0</ele><time>2026-04-29T17:30:48Z</time></trkpt><trkpt lat="42.12879014731821" lon="12.359252828852998"><ele>230.0</ele><time>2026-04-29T17:30:49Z</time></trkpt><trkpt lat="42.12864166424947" lon="12.359517132974286"><ele>230.0</ele><time>2026-04-29T17:30:50Z</time></trkpt><trkpt lat="42.12849292941697" lon="12.359784438004965"><ele>230.5</ele><time>2026-04-29T17:30:51Z</time></trkpt><trkpt lat="42.128340087024675" lon="12.360053944398071"><ele>231.0</ele><time>2026-04-29T17:30:52Z</time></trkpt><trkpt lat="42.12818043860332" lon="12.360312195317029"><ele>229.0</ele><time>2026-04-29T17:30:53Z</time></trkpt><trkpt lat="42.12801216773006" lon="12.360554979434262"><ele>227.0</ele><time>2026-04-29T17:30:54Z</time></trkpt><trkpt lat="42.127834981028485" lon="12.360785911506877"><ele>227.0</ele><time>2026-04-29T17:30:55Z</time></trkpt><trkpt lat="42.12765133431345" lon="12.36100339029059"><ele>227.0</ele><time>2026-04-29T17:30:56Z</time></trkpt><trkpt lat="42.12746192275999" lon="12.361209243564039"><ele>228.0</ele><time>2026-04-29T17:30:57Z</time></trkpt><trkpt lat="42.12726244729453" lon="12.361398144965193"><ele>229.0</ele><time>2026-04-29T17:30:58Z</time></trkpt><trkpt lat="42.12705347117579" lon="12.361574078613184"><ele>229.0</ele><time>2026-04-29T17:30:59Z</time></trkpt><trkpt lat="42.12683755176341" lon="12.361736774152604"><ele>229.0</ele><time>2026-04-29T17:31:00Z</time></trkpt><trkpt lat="42.126611935408526" lon="12.36188291348237"><ele>226.5</ele><time>2026-04-29T17:31:01Z</time></trkpt><trkpt lat="42.12637655368502" lon="12.362019934380626"><ele>224.0</ele><time>2026-04-29T17:31:02Z</time></trkpt><trkpt lat="42.12612985344394" lon="12.362147955032265"><ele>225.5</ele><time>2026-04-29T17:31:03Z</time></trkpt><trkpt lat="42.12587666323647" lon="12.362280258540238"><ele>227.0</ele><time>2026-04-29T17:31:04Z</time></trkpt><trkpt lat="42.12561710583076" lon="12.362417949445302"><ele>227.0</ele><time>2026-04-29T17:31:05Z</time></trkpt><trkpt lat="42.12535330164369" lon="12.362553000477092"><ele>227.0</ele><time>2026-04-29T17:31:06Z</time></trkpt><trkpt lat="42.12508864198896" lon="12.362689302332159"><ele>226.0</ele><time>2026-04-29T17:31:07Z</time></trkpt><trkpt lat="42.12482397514605" lon="12.3628233131831"><ele>225.0</ele><time>2026-04-29T17:31:08Z</time></trkpt><trkpt lat="42.124560785358135" lon="12.362957298096577"><ele>226.0</ele><time>2026-04-29T17:31:09Z</time></trkpt><trkpt lat="42.124298201043224" lon="12.363086127220242"><ele>227.0</ele><time>2026-04-29T17:31:10Z</time></trkpt><trkpt lat="42.12403777632755" lon="12.363210341433458"><ele>225.0</ele><time>2026-04-29T17:31:11Z</time></trkpt><trkpt lat="42.12377760632287" lon="12.363331203390954"><ele>223.0</ele><time>2026-04-29T17:31:12Z</time></trkpt><trkpt lat="42.12352204133144" lon="12.363447007782236"><ele>223.0</ele><time>2026-04-29T17:31:13Z</time></trkpt><trkpt lat="42.123270319631885" lon="12.363549388166428"><ele>223.0</ele><time>2026-04-29T17:31:14Z</time></trkpt><trkpt lat="42.12301707451206" lon="12.363637481040447"><ele>221.5</ele><time>2026-04-29T17:31:15Z</time></trkpt><trkpt lat="42.1227616947395" lon="12.363714936450702"><ele>220.0</ele><time>2026-04-29T17:31:16Z</time></trkpt><trkpt lat="42.122506022510656" lon="12.36378019851569"><ele>220.0</ele><time>2026-04-29T17:31:17Z</time></trkpt><trkpt lat="42.122247620825235" lon="12.363832542606906"><ele>220.0</ele><time>2026-04-29T17:31:18Z</time></trkpt><trkpt lat="42.121984446626044" lon="12.363869998768577"><ele>220.0</ele><time>2026-04-29T17:31:19Z</time></trkpt><trkpt lat="42.12171676125376" lon="12.363895722976082"><ele>220.0</ele><time>2026-04-29T17:31:20Z</time></trkpt><trkpt lat="42.12144296093982" lon="12.363909045322213"><ele>218.5</ele><time>2026-04-29T17:31:21Z</time></trkpt><trkpt lat="42.12116695071701" lon="12.363913171132209"><ele>217.0</ele><time>2026-04-29T17:31:22Z</time></trkpt><trkpt lat="42.12088686367371" lon="12.363908409938196"><ele>217.5</ele><time>2026-04-29T17:31:23Z</time></trkpt><trkpt lat="42.120596322492794" lon="12.36389799433535"><ele>218.0</ele><time>2026-04-29T17:31:24Z</time></trkpt><trkpt lat="42.12029895144494" lon="12.363887459714597"><ele>218.0</ele><time>2026-04-29T17:31:25Z</time></trkpt><trkpt lat="42.12000919159623" lon="12.363879194551854"><ele>218.0</ele><time>2026-04-29T17:31:26Z</time></trkpt><trkpt lat="42.119712914896766" lon="12.363872151592972"><ele>216.0</ele><time>2026-04-29T17:31:27Z</time></trkpt><trkpt lat="42.11942229995786" lon="12.363865397846611"><ele>214.0</ele><time>2026-04-29T17:31:28Z</time></trkpt><trkpt lat="42.11913543433156" lon="12.363859414471879"><ele>213.5</ele><time>2026-04-29T17:31:29Z</time></trkpt><trkpt lat="42.11885021339624" lon="12.363852197200949"><ele>213.0</ele><time>2026-04-29T17:31:30Z</time></trkpt><trkpt lat="42.11856656080123" lon="12.363845640387304"><ele>213.0</ele><time>2026-04-29T17:31:31Z</time></trkpt><trkpt lat="42.1182866460751" lon="12.363842126717566"><ele>213.0</ele><time>2026-04-29T17:31:32Z</time></trkpt><trkpt lat="42.11800638330436" lon="12.363840517985889"><ele>212.0</ele><time>2026-04-29T17:31:33Z</time></trkpt><trkpt lat="42.11772332314873" lon="12.363840182627449"><ele>211.0</ele><time>2026-04-29T17:31:34Z</time></trkpt><trkpt lat="42.117437511571836" lon="12.363838362873997"><ele>211.5</ele><time>2026-04-29T17:31:35Z</time></trkpt><trkpt lat="42.11714471766344" lon="12.363838147681339"><ele>212.0</ele><time>2026-04-29T17:31:36Z</time></trkpt><trkpt lat="42.116845663211976" lon="12.363838705835542"><ele>213.0</ele><time>2026-04-29T17:31:37Z</time></trkpt><trkpt lat="42.11653980206615" lon="12.36383644645079"><ele>214.0</ele><time>2026-04-29T17:31:38Z</time></trkpt><trkpt lat="42.116228412718876" lon="12.363833600110432"><ele>214.0</ele><time>2026-04-29T17:31:39Z</time></trkpt><trkpt lat="42.11591591472929" lon="12.36382911898307"><ele>214.0</ele><time>2026-04-29T17:31:40Z</time></trkpt><trkpt lat="42.11560644195105" lon="12.363822885626618"><ele>214.0</ele><time>2026-04-29T17:31:41Z</time></trkpt><trkpt lat="42.11529783190318" lon="12.363818762340815"><ele>214.0</ele><time>2026-04-29T17:31:42Z</time></trkpt><trkpt lat="42.114988271070416" lon="12.363812939200631"><ele>214.0</ele><time>2026-04-29T17:31:43Z</time></trkpt><trkpt lat="42.11467428293469" lon="12.36380257043062"><ele>214.0</ele><time>2026-04-29T17:31:44Z</time></trkpt><trkpt lat="42.11436730699885" lon="12.363794416876075"><ele>215.5</ele><time>2026-04-29T17:31:45Z</time></trkpt><trkpt lat="42.11406964795931" lon="12.363789936390653"><ele>217.0</ele><time>2026-04-29T17:31:46Z</time></trkpt><trkpt lat="42.11377458914538" lon="12.363788170994836"><ele>217.0</ele><time>2026-04-29T17:31:47Z</time></trkpt><trkpt lat="42.11348449725394" lon="12.363783991574884"><ele>217.0</ele><time>2026-04-29T17:31:48Z</time></trkpt><trkpt lat="42.11319898731854" lon="12.363779334346425"><ele>218.0</ele><time>2026-04-29T17:31:49Z</time></trkpt><trkpt lat="42.112913895983354" lon="12.36377319891083"><ele>219.0</ele><time>2026-04-29T17:31:50Z</time></trkpt><trkpt lat="42.112625874524944" lon="12.363765464841354"><ele>220.0</ele><time>2026-04-29T17:31:51Z</time></trkpt><trkpt lat="42.11233759243485" lon="12.363759264850017"><ele>221.0</ele><time>2026-04-29T17:31:52Z</time></trkpt><trkpt lat="42.11205507293548" lon="12.3637539346999"><ele>221.0</ele><time>2026-04-29T17:31:53Z</time></trkpt><trkpt lat="42.1117914292597" lon="12.363749820524252"><ele>221.0</ele><time>2026-04-29T17:31:54Z</time></trkpt><trkpt lat="42.111524961464916" lon="12.363743317395711"><ele>223.5</ele><time>2026-04-29T17:31:55Z</time></trkpt><trkpt lat="42.11125252488004" lon="12.363735015208182"><ele>226.0</ele><time>2026-04-29T17:31:56Z</time></trkpt><trkpt lat="42.110973735111116" lon="12.363728317325382"><ele>229.0</ele><time>2026-04-29T17:31:57Z</time></trkpt><trkpt lat="42.11068894966457" lon="12.363720961112383"><ele>232.0</ele><time>2026-04-29T17:31:58Z</time></trkpt><trkpt lat="42.11040118476475" lon="12.363714047536762"><ele>232.0</ele><time>2026-04-29T17:31:59Z</time></trkpt><trkpt lat="42.11010946671905" lon="12.363707901892543"><ele>232.0</ele><time>2026-04-29T17:32:00Z</time></trkpt><trkpt lat="42.10981615649964" lon="12.363695630116803"><ele>233.5</ele><time>2026-04-29T17:32:01Z</time></trkpt><trkpt lat="42.10952542767876" lon="12.363677889981286"><ele>235.0</ele><time>2026-04-29T17:32:02Z</time></trkpt><trkpt lat="42.1092318854135" lon="12.363658492897468"><ele>237.0</ele><time>2026-04-29T17:32:03Z</time></trkpt><trkpt lat="42.10894589807882" lon="12.363644672689736"><ele>239.0</ele><time>2026-04-29T17:32:04Z</time></trkpt><trkpt lat="42.108683795359774" lon="12.363635320125642"><ele>239.0</ele><time>2026-04-29T17:32:05Z</time></trkpt><trkpt lat="42.10844021726478" lon="12.363626796406924"><ele>239.0</ele><time>2026-04-29T17:32:06Z</time></trkpt><trkpt lat="42.10820593763335" lon="12.363622517205904"><ele>240.5</ele><time>2026-04-29T17:32:07Z</time></trkpt><trkpt lat="42.107972584528184" lon="12.363619373644168"><ele>242.0</ele><time>2026-04-29T17:32:08Z</time></trkpt><trkpt lat="42.10773530030579" lon="12.363621477652503"><ele>242.0</ele><time>2026-04-29T17:32:09Z</time></trkpt><trkpt lat="42.10749449172492" lon="12.363627011498673"><ele>242.0</ele><time>2026-04-29T17:32:10Z</time></trkpt><trkpt lat="42.107248445218474" lon="12.363632091454685"><ele>244.5</ele><time>2026-04-29T17:32:11Z</time></trkpt><trkpt lat="42.10699921931183" lon="12.36363284017891"><ele>247.0</ele><time>2026-04-29T17:32:12Z</time></trkpt><trkpt lat="42.106752491665645" lon="12.363638649493678"><ele>249.0</ele><time>2026-04-29T17:32:13Z</time></trkpt><trkpt lat="42.10651009325361" lon="12.363662491647217"><ele>251.0</ele><time>2026-04-29T17:32:14Z</time></trkpt><trkpt lat="42.10626464948132" lon="12.363700776607919"><ele>251.0</ele><time>2026-04-29T17:32:15Z</time></trkpt><trkpt lat="42.106019454613254" lon="12.363757594443946"><ele>251.0</ele><time>2026-04-29T17:32:16Z</time></trkpt><trkpt lat="42.10577163886011" lon="12.363832102915836"><ele>253.0</ele><time>2026-04-29T17:32:17Z</time></trkpt><trkpt lat="42.105524943079025" lon="12.363920397256024"><ele>255.0</ele><time>2026-04-29T17:32:18Z</time></trkpt><trkpt lat="42.10528136430339" lon="12.364025808008384"><ele>255.0</ele><time>2026-04-29T17:32:19Z</time></trkpt><trkpt lat="42.10504060212987" lon="12.364144984895649"><ele>255.0</ele><time>2026-04-29T17:32:20Z</time></trkpt><trkpt lat="42.10479781385417" lon="12.364281615685867"><ele>257.5</ele><time>2026-04-29T17:32:21Z</time></trkpt><trkpt lat="42.10455115329475" lon="12.364423134847225"><ele>260.0</ele><time>2026-04-29T17:32:22Z</time></trkpt><trkpt lat="42.10429824319079" lon="12.364566526518514"><ele>264.0</ele><time>2026-04-29T17:32:23Z</time></trkpt><trkpt lat="42.10404061425949" lon="12.36470965809234"><ele>268.0</ele><time>2026-04-29T17:32:24Z</time></trkpt><trkpt lat="42.103779337582196" lon="12.36485704708722"><ele>268.0</ele><time>2026-04-29T17:32:25Z</time></trkpt><trkpt lat="42.10351656221592" lon="12.365007102586981"><ele>268.0</ele><time>2026-04-29T17:32:26Z</time></trkpt><trkpt lat="42.10325353829283" lon="12.365156437901666"><ele>270.5</ele><time>2026-04-29T17:32:27Z</time></trkpt><trkpt lat="42.102991305494946" lon="12.365305081986902"><ele>273.0</ele><time>2026-04-29T17:32:28Z</time></trkpt><trkpt lat="42.10272688139853" lon="12.365455870685363"><ele>273.0</ele><time>2026-04-29T17:32:29Z</time></trkpt><trkpt lat="42.102461883260844" lon="12.36560653948197"><ele>273.0</ele><time>2026-04-29T17:32:30Z</time></trkpt><trkpt lat="42.10219670851993" lon="12.365754882849762"><ele>273.0</ele><time>2026-04-29T17:32:31Z</time></trkpt><trkpt lat="42.10193272529901" lon="12.365902403894204"><ele>273.0</ele><time>2026-04-29T17:32:32Z</time></trkpt><trkpt lat="42.10166693610288" lon="12.366049511187727"><ele>272.5</ele><time>2026-04-29T17:32:33Z</time></trkpt><trkpt lat="42.10140203100942" lon="12.36619684983895"><ele>272.0</ele><time>2026-04-29T17:32:34Z</time></trkpt><trkpt lat="42.10113898718325" lon="12.366346627741024"><ele>277.0</ele><time>2026-04-29T17:32:35Z</time></trkpt><trkpt lat="42.100878199249834" lon="12.366497017356293"><ele>282.0</ele><time>2026-04-29T17:32:36Z</time></trkpt><trkpt lat="42.10062136838058" lon="12.366652801155125"><ele>282.0</ele><time>2026-04-29T17:32:37Z</time></trkpt><trkpt lat="42.10036843774531" lon="12.366809473084729"><ele>282.0</ele><time>2026-04-29T17:32:38Z</time></trkpt><trkpt lat="42.10012292621623" lon="12.366963569145035"><ele>284.5</ele><time>2026-04-29T17:32:39Z</time></trkpt><trkpt lat="42.09988117529634" lon="12.367106648012149"><ele>287.0</ele><time>2026-04-29T17:32:40Z</time></trkpt><trkpt lat="42.09964177274856" lon="12.367242859465303"><ele>287.0</ele><time>2026-04-29T17:32:41Z</time></trkpt><trkpt lat="42.099404876331654" lon="12.367370425760566"><ele>287.0</ele><time>2026-04-29T17:32:42Z</time></trkpt><trkpt lat="42.09917002221241" lon="12.367490187060968"><ele>286.5</ele><time>2026-04-29T17:32:43Z</time></trkpt><trkpt lat="42.09893379338209" lon="12.367594042881814"><ele>286.0</ele><time>2026-04-29T17:32:44Z</time></trkpt><trkpt lat="42.09869653363576" lon="12.367673941236113"><ele>286.0</ele><time>2026-04-29T17:32:45Z</time></trkpt><trkpt lat="42.09845970939737" lon="12.367731174677617"><ele>286.0</ele><time>2026-04-29T17:32:46Z</time></trkpt><trkpt lat="42.09822169425714" lon="12.367767536088122"><ele>289.0</ele><time>2026-04-29T17:32:47Z</time></trkpt><trkpt lat="42.09798481784375" lon="12.367786014998023"><ele>292.0</ele><time>2026-04-29T17:32:48Z</time></trkpt><trkpt lat="42.09775991198432" lon="12.367789918423442"><ele>292.0</ele><time>2026-04-29T17:32:49Z</time></trkpt><trkpt lat="42.097546039277084" lon="12.367772379290319"><ele>292.0</ele><time>2026-04-29T17:32:50Z</time></trkpt><trkpt lat="42.09733849562727" lon="12.367733312904837"><ele>292.0</ele><time>2026-04-29T17:32:51Z</time></trkpt><trkpt lat="42.09712288095272" lon="12.36767517919076"><ele>294.5</ele><time>2026-04-29T17:32:52Z</time></trkpt><trkpt lat="42.09689714212638" lon="12.367611267232387"><ele>297.0</ele><time>2026-04-29T17:32:53Z</time></trkpt><trkpt lat="42.09666451335792" lon="12.367545344631186"><ele>302.0</ele><time>2026-04-29T17:32:54Z</time></trkpt><trkpt lat="42.09643360489205" lon="12.367485862634771"><ele>307.0</ele><time>2026-04-29T17:32:55Z</time></trkpt><trkpt lat="42.09621416761011" lon="12.36743315543866"><ele>307.0</ele><time>2026-04-29T17:32:56Z</time></trkpt><trkpt lat="42.095990081401" lon="12.36738673814031"><ele>307.0</ele><time>2026-04-29T17:32:57Z</time></trkpt><trkpt lat="42.09576746433835" lon="12.367343013227948"><ele>306.0</ele><time>2026-04-29T17:32:58Z</time></trkpt><trkpt lat="42.095543119643466" lon="12.367303885840709"><ele>305.0</ele><time>2026-04-29T17:32:59Z</time></trkpt><trkpt lat="42.09531746070445" lon="12.367277326707363"><ele>305.0</ele><time>2026-04-29T17:33:00Z</time></trkpt><trkpt lat="42.095091750800194" lon="12.3672668773273"><ele>305.0</ele><time>2026-04-29T17:33:01Z</time></trkpt><trkpt lat="42.09486502854174" lon="12.36727498496241"><ele>302.5</ele><time>2026-04-29T17:33:02Z</time></trkpt><trkpt lat="42.09464018066515" lon="12.367302921983937"><ele>300.0</ele><time>2026-04-29T17:33:03Z</time></trkpt><trkpt lat="42.094413632403764" lon="12.36734966741663"><ele>300.0</ele><time>2026-04-29T17:33:04Z</time></trkpt><trkpt lat="42.09418785884203" lon="12.367415026726343"><ele>300.0</ele><time>2026-04-29T17:33:05Z</time></trkpt><trkpt lat="42.093965227185464" lon="12.367499283515103"><ele>296.5</ele><time>2026-04-29T17:33:06Z</time></trkpt><trkpt lat="42.093745334353045" lon="12.367601064173419"><ele>293.0</ele><time>2026-04-29T17:33:07Z</time></trkpt><trkpt lat="42.09352897993471" lon="12.367721078627012"><ele>293.0</ele><time>2026-04-29T17:33:08Z</time></trkpt><trkpt lat="42.093316456814556" lon="12.367856695202398"><ele>293.0</ele><time>2026-04-29T17:33:09Z</time></trkpt><trkpt lat="42.09311174425896" lon="12.368006712096113"><ele>289.5</ele><time>2026-04-29T17:33:10Z</time></trkpt><trkpt lat="42.0929133181896" lon="12.368174786914846"><ele>286.0</ele><time>2026-04-29T17:33:11Z</time></trkpt><trkpt lat="42.09272274141061" lon="12.368363019996409"><ele>286.0</ele><time>2026-04-29T17:33:12Z</time></trkpt><trkpt lat="42.092539772416345" lon="12.36856846202228"><ele>286.0</ele><time>2026-04-29T17:33:13Z</time></trkpt><trkpt lat="42.09235836589345" lon="12.368799561549634"><ele>281.0</ele><time>2026-04-29T17:33:14Z</time></trkpt><trkpt lat="42.09216890268707" lon="12.369049505021358"><ele>276.0</ele><time>2026-04-29T17:33:15Z</time></trkpt><trkpt lat="42.09197433700308" lon="12.369312130857404"><ele>276.0</ele><time>2026-04-29T17:33:16Z</time></trkpt><trkpt lat="42.091771373348166" lon="12.369589797658971"><ele>276.0</ele><time>2026-04-29T17:33:17Z</time></trkpt><trkpt lat="42.09155813254692" lon="12.369877040322017"><ele>274.5</ele><time>2026-04-29T17:33:18Z</time></trkpt><trkpt lat="42.09133879348065" lon="12.370171010701517"><ele>273.0</ele><time>2026-04-29T17:33:19Z</time></trkpt><trkpt lat="42.09112183444889" lon="12.370464572995227"><ele>273.5</ele><time>2026-04-29T17:33:20Z</time></trkpt><trkpt lat="42.09090276376415" lon="12.370761964386531"><ele>274.0</ele><time>2026-04-29T17:33:21Z</time></trkpt><trkpt lat="42.09067801419391" lon="12.37107027949861"><ele>272.0</ele><time>2026-04-29T17:33:22Z</time></trkpt><trkpt lat="42.09044422858701" lon="12.371386409041763"><ele>270.0</ele><time>2026-04-29T17:33:23Z</time></trkpt><trkpt lat="42.09020762111603" lon="12.37170430814556"><ele>270.0</ele><time>2026-04-29T17:33:24Z</time></trkpt><trkpt lat="42.0899860465458" lon="12.37199948962333"><ele>270.0</ele><time>2026-04-29T17:33:25Z</time></trkpt><trkpt lat="42.089776143411186" lon="12.372273723277374"><ele>268.0</ele><time>2026-04-29T17:33:26Z</time></trkpt><trkpt lat="42.08957572055414" lon="12.37253443926316"><ele>266.0</ele><time>2026-04-29T17:33:27Z</time></trkpt><trkpt lat="42.089375771425416" lon="12.372785834475335"><ele>266.0</ele><time>2026-04-29T17:33:28Z</time></trkpt><trkpt lat="42.08918345378421" lon="12.373017323321486"><ele>266.0</ele><time>2026-04-29T17:33:29Z</time></trkpt><trkpt lat="42.08900637181135" lon="12.373211074486795"><ele>267.6666666666667</ele><time>2026-04-29T17:33:30Z</time></trkpt><trkpt lat="42.08883394809759" lon="12.373370641237395"><ele>269.3333333333333</ele><time>2026-04-29T17:33:31Z</time></trkpt><trkpt lat="42.088660444519384" lon="12.373505967335767"><ele>271.0</ele><time>2026-04-29T17:33:32Z</time></trkpt><trkpt lat="42.08847845937605" lon="12.37362821216922"><ele>271.0</ele><time>2026-04-29T17:33:33Z</time></trkpt><trkpt lat="42.08828746058526" lon="12.373732951450481"><ele>271.0</ele><time>2026-04-29T17:33:34Z</time></trkpt><trkpt lat="42.088093133355216" lon="12.373823777525367"><ele>271.0</ele><time>2026-04-29T17:33:35Z</time></trkpt><trkpt lat="42.08788993253053" lon="12.373904933498332"><ele>272.0</ele><time>2026-04-29T17:33:36Z</time></trkpt><trkpt lat="42.08768174935549" lon="12.373973043774539"><ele>273.0</ele><time>2026-04-29T17:33:37Z</time></trkpt><trkpt lat="42.08746610700794" lon="12.374021740147084"><ele>274.0</ele><time>2026-04-29T17:33:38Z</time></trkpt><trkpt lat="42.087246316163885" lon="12.374055134534467"><ele>271.0</ele><time>2026-04-29T17:33:39Z</time></trkpt><trkpt lat="42.08702155413296" lon="12.374068380821809"><ele>268.0</ele><time>2026-04-29T17:33:40Z</time></trkpt><trkpt lat="42.08679409399622" lon="12.374058177925424"><ele>268.5</ele><time>2026-04-29T17:33:41Z</time></trkpt><trkpt lat="42.086562040949545" lon="12.374031316603519"><ele>269.0</ele><time>2026-04-29T17:33:42Z</time></trkpt><trkpt lat="42.08632057873849" lon="12.373999288818128"><ele>269.0</ele><time>2026-04-29T17:33:43Z</time></trkpt><trkpt lat="42.086071469408964" lon="12.373967308181506"><ele>269.0</ele><time>2026-04-29T17:33:44Z</time></trkpt><trkpt lat="42.085819834369154" lon="12.373934898110038"><ele>273.0</ele><time>2026-04-29T17:33:45Z</time></trkpt><trkpt lat="42.08557151601632" lon="12.373903682934477"><ele>277.0</ele><time>2026-04-29T17:33:46Z</time></trkpt><trkpt lat="42.08532141112761" lon="12.373873638021264"><ele>278.0</ele><time>2026-04-29T17:33:47Z</time></trkpt><trkpt lat="42.08507151259672" lon="12.3738453497378"><ele>279.0</ele><time>2026-04-29T17:33:48Z</time></trkpt><trkpt lat="42.084821872224815" lon="12.373815085987182"><ele>275.5</ele><time>2026-04-29T17:33:49Z</time></trkpt><trkpt lat="42.0845676645095" lon="12.373786231448374"><ele>272.0</ele><time>2026-04-29T17:33:50Z</time></trkpt><trkpt lat="42.08431129049136" lon="12.373758233694906"><ele>272.0</ele><time>2026-04-29T17:33:51Z</time></trkpt><trkpt lat="42.08405477588229" lon="12.37373486598117"><ele>272.0</ele><time>2026-04-29T17:33:52Z</time></trkpt><trkpt lat="42.08379057779816" lon="12.373711283149277"><ele>272.0</ele><time>2026-04-29T17:33:53Z</time></trkpt><trkpt lat="42.083517733438256" lon="12.37368106499614"><ele>272.0</ele><time>2026-04-29T17:33:54Z</time></trkpt><trkpt lat="42.08323649986377" lon="12.373649916048521"><ele>272.0</ele><time>2026-04-29T17:33:55Z</time></trkpt><trkpt lat="42.08294921798225" lon="12.373615068476152"><ele>272.0</ele><time>2026-04-29T17:33:56Z</time></trkpt><trkpt lat="42.08265528765902" lon="12.37358399636698"><ele>268.5</ele><time>2026-04-29T17:33:57Z</time></trkpt><trkpt lat="42.082355603533074" lon="12.373549968751679"><ele>265.0</ele><time>2026-04-29T17:33:58Z</time></trkpt><trkpt lat="42.082051682220936" lon="12.373515101545394"><ele>265.0</ele><time>2026-04-29T17:33:59Z</time></trkpt><trkpt lat="42.081747066607434" lon="12.373478249118238"><ele>265.0</ele><time>2026-04-29T17:34:00Z</time></trkpt><trkpt lat="42.08144410750596" lon="12.37343930168938"><ele>262.0</ele><time>2026-04-29T17:34:01Z</time></trkpt><trkpt lat="42.08114266008096" lon="12.373399813833254"><ele>259.0</ele><time>2026-04-29T17:34:02Z</time></trkpt><trkpt lat="42.08084287834356" lon="12.37336061723069"><ele>257.5</ele><time>2026-04-29T17:34:03Z</time></trkpt><trkpt lat="42.080548293526235" lon="12.373321289724895"><ele>256.0</ele><time>2026-04-29T17:34:04Z</time></trkpt><trkpt lat="42.08025559245281" lon="12.373283906732494"><ele>256.0</ele><time>2026-04-29T17:34:05Z</time></trkpt><trkpt lat="42.079964125523055" lon="12.373248551111057"><ele>256.0</ele><time>2026-04-29T17:34:06Z</time></trkpt><trkpt lat="42.07967428003774" lon="12.3732135953023"><ele>251.0</ele><time>2026-04-29T17:34:07Z</time></trkpt><trkpt lat="42.079384843527684" lon="12.373178830914318"><ele>246.0</ele><time>2026-04-29T17:34:08Z</time></trkpt><trkpt lat="42.079093505572665" lon="12.373145083079015"><ele>243.5</ele><time>2026-04-29T17:34:09Z</time></trkpt><trkpt lat="42.07880180791423" lon="12.373109350568884"><ele>241.0</ele><time>2026-04-29T17:34:10Z</time></trkpt><trkpt lat="42.07851195500311" lon="12.373073694021244"><ele>239.0</ele><time>2026-04-29T17:34:11Z</time></trkpt><trkpt lat="42.07822377118913" lon="12.373039596022648"><ele>237.0</ele><time>2026-04-29T17:34:12Z</time></trkpt><trkpt lat="42.07793585753576" lon="12.37300680216703"><ele>234.5</ele><time>2026-04-29T17:34:13Z</time></trkpt><trkpt lat="42.077648492153266" lon="12.372975441988794"><ele>232.0</ele><time>2026-04-29T17:34:14Z</time></trkpt><trkpt lat="42.077362039417594" lon="12.37294422527642"><ele>229.0</ele><time>2026-04-29T17:34:15Z</time></trkpt><trkpt lat="42.07707705483587" lon="12.372913831799027"><ele>226.0</ele><time>2026-04-29T17:34:16Z</time></trkpt><trkpt lat="42.07679335182538" lon="12.372884693420845"><ele>225.0</ele><time>2026-04-29T17:34:17Z</time></trkpt><trkpt lat="42.07651185412692" lon="12.37285302104533"><ele>224.0</ele><time>2026-04-29T17:34:18Z</time></trkpt><trkpt lat="42.07623177193873" lon="12.372820482922378"><ele>224.0</ele><time>2026-04-29T17:34:19Z</time></trkpt><trkpt lat="42.07595312613577" lon="12.372786390874559"><ele>224.0</ele><time>2026-04-29T17:34:20Z</time></trkpt><trkpt lat="42.0756757327281" lon="12.372751809871353"><ele>221.5</ele><time>2026-04-29T17:34:21Z</time></trkpt><trkpt lat="42.07540239887859" lon="12.372719266826433"><ele>219.0</ele><time>2026-04-29T17:34:22Z</time></trkpt><trkpt lat="42.075137040397166" lon="12.372691422872835"><ele>217.5</ele><time>2026-04-29T17:34:23Z</time></trkpt><trkpt lat="42.07487789861809" lon="12.372663336337308"><ele>216.0</ele><time>2026-04-29T17:34:24Z</time></trkpt><trkpt lat="42.074621024051666" lon="12.372635355620595"><ele>216.0</ele><time>2026-04-29T17:34:25Z</time></trkpt><trkpt lat="42.074367097469775" lon="12.372615188127714"><ele>216.0</ele><time>2026-04-29T17:34:26Z</time></trkpt><trkpt lat="42.07411642964574" lon="12.372601517023822"><ele>215.0</ele><time>2026-04-29T17:34:27Z</time></trkpt><trkpt lat="42.07386215024684" lon="12.37259420471255"><ele>214.0</ele><time>2026-04-29T17:34:28Z</time></trkpt><trkpt lat="42.073609437934735" lon="12.372592163564976"><ele>214.0</ele><time>2026-04-29T17:34:29Z</time></trkpt><trkpt lat="42.07334690913544" lon="12.372591971503061"><ele>214.0</ele><time>2026-04-29T17:34:30Z</time></trkpt><trkpt lat="42.07307437037179" lon="12.372594712922776"><ele>213.5</ele><time>2026-04-29T17:34:31Z</time></trkpt><trkpt lat="42.07279025184452" lon="12.372596446514669"><ele>213.0</ele><time>2026-04-29T17:34:32Z</time></trkpt><trkpt lat="42.072496618989376" lon="12.372596446723477"><ele>211.0</ele><time>2026-04-29T17:34:33Z</time></trkpt><trkpt lat="42.072194938831466" lon="12.372596633057562"><ele>209.0</ele><time>2026-04-29T17:34:34Z</time></trkpt><trkpt lat="42.07189081021678" lon="12.372593731764413"><ele>205.0</ele><time>2026-04-29T17:34:35Z</time></trkpt><trkpt lat="42.071591606559565" lon="12.372591948670978"><ele>201.0</ele><time>2026-04-29T17:34:36Z</time></trkpt><trkpt lat="42.07130925812286" lon="12.372586928636435"><ele>201.0</ele><time>2026-04-29T17:34:37Z</time></trkpt><trkpt lat="42.07103555980751" lon="12.372587269179656"><ele>201.0</ele><time>2026-04-29T17:34:38Z</time></trkpt><trkpt lat="42.07077369734562" lon="12.372583604081576"><ele>198.0</ele><time>2026-04-29T17:34:39Z</time></trkpt><trkpt lat="42.07052144736541" lon="12.37258146750576"><ele>195.0</ele><time>2026-04-29T17:34:40Z</time></trkpt><trkpt lat="42.07027907523885" lon="12.372580535333505"><ele>195.0</ele><time>2026-04-29T17:34:41Z</time></trkpt><trkpt lat="42.07004039045119" lon="12.372580488714991"><ele>195.0</ele><time>2026-04-29T17:34:42Z</time></trkpt><trkpt lat="42.06980394301789" lon="12.372580008509253"><ele>193.0</ele><time>2026-04-29T17:34:43Z</time></trkpt><trkpt lat="42.06956802210735" lon="12.37257822373932"><ele>191.0</ele><time>2026-04-29T17:34:44Z</time></trkpt><trkpt lat="42.06931966606557" lon="12.372578669483598"><ele>189.5</ele><time>2026-04-29T17:34:45Z</time></trkpt><trkpt lat="42.06906167321591" lon="12.372580384426042"><ele>188.0</ele><time>2026-04-29T17:34:46Z</time></trkpt><trkpt lat="42.068796123212984" lon="12.372580193956669"><ele>188.0</ele><time>2026-04-29T17:34:47Z</time></trkpt><trkpt lat="42.06852643058207" lon="12.372582927144991"><ele>188.0</ele><time>2026-04-29T17:34:48Z</time></trkpt><trkpt lat="42.06825667395924" lon="12.372586192393761"><ele>186.5</ele><time>2026-04-29T17:34:49Z</time></trkpt><trkpt lat="42.06798410236404" lon="12.372589674618942"><ele>185.0</ele><time>2026-04-29T17:34:50Z</time></trkpt><trkpt lat="42.067710756211476" lon="12.372593156803239"><ele>183.0</ele><time>2026-04-29T17:34:51Z</time></trkpt><trkpt lat="42.067436803430105" lon="12.372598665778325"><ele>181.0</ele><time>2026-04-29T17:34:52Z</time></trkpt><trkpt lat="42.06716508271398" lon="12.372605783452396"><ele>181.0</ele><time>2026-04-29T17:34:53Z</time></trkpt><trkpt lat="42.066911413927286" lon="12.372612711317336"><ele>181.0</ele><time>2026-04-29T17:34:54Z</time></trkpt><trkpt lat="42.06667328297018" lon="12.372626219144214"><ele>180.0</ele><time>2026-04-29T17:34:55Z</time></trkpt><trkpt lat="42.06644599984425" lon="12.372640785532518"><ele>179.0</ele><time>2026-04-29T17:34:56Z</time></trkpt><trkpt lat="42.06622624930874" lon="12.372655416927921"><ele>178.0</ele><time>2026-04-29T17:34:57Z</time></trkpt><trkpt lat="42.06601450662065" lon="12.372674437668659"><ele>178.0</ele><time>2026-04-29T17:34:58Z</time></trkpt><trkpt lat="42.06580932542771" lon="12.372688216974966"><ele>178.0</ele><time>2026-04-29T17:34:59Z</time></trkpt><trkpt lat="42.06560987553576" lon="12.372696911910031"><ele>178.0</ele><time>2026-04-29T17:35:00Z</time></trkpt><trkpt lat="42.06541638780188" lon="12.372704929751832"><ele>177.33333333333334</ele><time>2026-04-29T17:35:01Z</time></trkpt><trkpt lat="42.06523036461926" lon="12.37271535563196"><ele>176.66666666666666</ele><time>2026-04-29T17:35:02Z</time></trkpt><trkpt lat="42.065041344045135" lon="12.372724760816217"><ele>176.0</ele><time>2026-04-29T17:35:03Z</time></trkpt><trkpt lat="42.06485248794461" lon="12.37273587594981"><ele>174.0</ele><time>2026-04-29T17:35:04Z</time></trkpt><trkpt lat="42.06466636797842" lon="12.372748336573855"><ele>172.0</ele><time>2026-04-29T17:35:05Z</time></trkpt><trkpt lat="42.06448220736427" lon="12.372758517543298"><ele>170.0</ele><time>2026-04-29T17:35:06Z</time></trkpt><trkpt lat="42.064298604704085" lon="12.37276569120659"><ele>170.0</ele><time>2026-04-29T17:35:07Z</time></trkpt><trkpt lat="42.06412059428861" lon="12.372775144147845"><ele>170.0</ele><time>2026-04-29T17:35:08Z</time></trkpt><trkpt lat="42.06394624930541" lon="12.372786345665796"><ele>170.0</ele><time>2026-04-29T17:35:09Z</time></trkpt><trkpt lat="42.06376904680555" lon="12.372799071770807"><ele>170.0</ele><time>2026-04-29T17:35:10Z</time></trkpt><trkpt lat="42.063595367145524" lon="12.372810657332536"><ele>170.0</ele><time>2026-04-29T17:35:11Z</time></trkpt><trkpt lat="42.063427849848544" lon="12.372820197261008"><ele>170.0</ele><time>2026-04-29T17:35:12Z</time></trkpt><trkpt lat="42.0632550792517" lon="12.37283075518465"><ele>169.33333333333331</ele><time>2026-04-29T17:35:13Z</time></trkpt><trkpt lat="42.06308085567068" lon="12.372843488280953"><ele>168.66666666666666</ele><time>2026-04-29T17:35:14Z</time></trkpt><trkpt lat="42.06291103065752" lon="12.372855092376208"><ele>168.0</ele><time>2026-04-29T17:35:15Z</time></trkpt><trkpt lat="42.06274526585783" lon="12.372864170265478"><ele>168.0</ele><time>2026-04-29T17:35:16Z</time></trkpt><trkpt lat="42.06257526857856" lon="12.372874013517805"><ele>168.0</ele><time>2026-04-29T17:35:17Z</time></trkpt><trkpt lat="42.062399956775565" lon="12.37288505549237"><ele>168.0</ele><time>2026-04-29T17:35:18Z</time></trkpt><trkpt lat="42.062217765408406" lon="12.372895590699367"><ele>167.33333333333334</ele><time>2026-04-29T17:35:19Z</time></trkpt><trkpt lat="42.06203105151584" lon="12.372908509961178"><ele>166.66666666666669</ele><time>2026-04-29T17:35:20Z</time></trkpt><trkpt lat="42.06184118043278" lon="12.372919416864237"><ele>166.0</ele><time>2026-04-29T17:35:21Z</time></trkpt><trkpt lat="42.06164527401224" lon="12.37292874053433"><ele>166.33333333333334</ele><time>2026-04-29T17:35:22Z</time></trkpt><trkpt lat="42.061440571338565" lon="12.372939237179146"><ele>166.66666666666666</ele><time>2026-04-29T17:35:23Z</time></trkpt><trkpt lat="42.06123193589001" lon="12.372945876025996"><ele>167.0</ele><time>2026-04-29T17:35:24Z</time></trkpt><trkpt lat="42.06100845314569" lon="12.372945651413326"><ele>167.0</ele><time>2026-04-29T17:35:25Z</time></trkpt><trkpt lat="42.0607779028542" lon="12.37294070166455"><ele>167.0</ele><time>2026-04-29T17:35:26Z</time></trkpt><trkpt lat="42.06054031077258" lon="12.372927003126538"><ele>167.0</ele><time>2026-04-29T17:35:27Z</time></trkpt><trkpt lat="42.060294045677445" lon="12.372905366653645"><ele>167.0</ele><time>2026-04-29T17:35:28Z</time></trkpt><trkpt lat="42.060039873593226" lon="12.372879218328476"><ele>165.5</ele><time>2026-04-29T17:35:29Z</time></trkpt><trkpt lat="42.05977988777109" lon="12.372853504384942"><ele>164.0</ele><time>2026-04-29T17:35:30Z</time></trkpt><trkpt lat="42.0595169044594" lon="12.372826909248507"><ele>164.0</ele><time>2026-04-29T17:35:31Z</time></trkpt><trkpt lat="42.05925895204586" lon="12.372803628378554"><ele>164.0</ele><time>2026-04-29T17:35:32Z</time></trkpt><trkpt lat="42.058986308013715" lon="12.372777979339228"><ele>161.5</ele><time>2026-04-29T17:35:33Z</time></trkpt><trkpt lat="42.05871192459751" lon="12.372750899535806"><ele>159.0</ele><time>2026-04-29T17:35:34Z</time></trkpt><trkpt lat="42.05844146321333" lon="12.372723978604885"><ele>158.5</ele><time>2026-04-29T17:35:35Z</time></trkpt><trkpt lat="42.058178597587336" lon="12.372699130115365"><ele>158.0</ele><time>2026-04-29T17:35:36Z</time></trkpt><trkpt lat="42.05793104412706" lon="12.372672327103373"><ele>158.0</ele><time>2026-04-29T17:35:37Z</time></trkpt><trkpt lat="42.05769549167884" lon="12.3726473325488"><ele>158.0</ele><time>2026-04-29T17:35:38Z</time></trkpt><trkpt lat="42.057486785316485" lon="12.372623166715575"><ele>158.0</ele><time>2026-04-29T17:35:39Z</time></trkpt><trkpt lat="42.0572921135764" lon="12.372593339897817"><ele>157.33333333333331</ele><time>2026-04-29T17:35:40Z</time></trkpt><trkpt lat="42.057104391750364" lon="12.372559799305284"><ele>156.66666666666666</ele><time>2026-04-29T17:35:41Z</time></trkpt><trkpt lat="42.05692401921844" lon="12.37253039959959"><ele>156.0</ele><time>2026-04-29T17:35:42Z</time></trkpt><trkpt lat="42.05675127353071" lon="12.372504799793672"><ele>155.33333333333334</ele><time>2026-04-29T17:35:43Z</time></trkpt><trkpt lat="42.05658411596639" lon="12.372479891552262"><ele>154.66666666666669</ele><time>2026-04-29T17:35:44Z</time></trkpt><trkpt lat="42.05642473113829" lon="12.37246221458572"><ele>154.0</ele><time>2026-04-29T17:35:45Z</time></trkpt><trkpt lat="42.056257595577385" lon="12.372442141853986"><ele>154.0</ele><time>2026-04-29T17:35:46Z</time></trkpt><trkpt lat="42.056101027667225" lon="12.372425608729921"><ele>154.0</ele><time>2026-04-29T17:35:47Z</time></trkpt><trkpt lat="42.0559497283923" lon="12.372417828994134"><ele>154.0</ele><time>2026-04-29T17:35:48Z</time></trkpt><trkpt lat="42.05580313031678" lon="12.372439102612033"><ele>153.25</ele><time>2026-04-29T17:35:49Z</time></trkpt><trkpt lat="42.05565589814287" lon="12.372485832903578"><ele>152.5</ele><time>2026-04-29T17:35:50Z</time></trkpt><trkpt lat="42.05550655067095" lon="12.372550779718226"><ele>151.75</ele><time>2026-04-29T17:35:51Z</time></trkpt><trkpt lat="42.055373603226315" lon="12.372603660670146"><ele>151.0</ele><time>2026-04-29T17:35:52Z</time></trkpt><trkpt lat="42.05524505619904" lon="12.372637100837709"><ele>151.0</ele><time>2026-04-29T17:35:53Z</time></trkpt><trkpt lat="42.055110797160594" lon="12.372649947036033"><ele>151.0</ele><time>2026-04-29T17:35:54Z</time></trkpt><trkpt lat="42.05497438241706" lon="12.372642977084896"><ele>151.0</ele><time>2026-04-29T17:35:55Z</time></trkpt><trkpt lat="42.05483582076884" lon="12.372633909453281"><ele>151.0</ele><time>2026-04-29T17:35:56Z</time></trkpt><trkpt lat="42.05469539468787" lon="12.372642774849375"><ele>150.75</ele><time>2026-04-29T17:35:57Z</time></trkpt><trkpt lat="42.05455656533578" lon="12.372682103074062"><ele>150.5</ele><time>2026-04-29T17:35:58Z</time></trkpt><trkpt lat="42.0544245335688" lon="12.372745652877914"><ele>150.25</ele><time>2026-04-29T17:35:59Z</time></trkpt><trkpt lat="42.05429549781062" lon="12.37283136468414"><ele>150.0</ele><time>2026-04-29T17:36:00Z</time></trkpt><trkpt lat="42.05416443967482" lon="12.372928159845145"><ele>150.66666666666666</ele><time>2026-04-29T17:36:01Z</time></trkpt><trkpt lat="42.054028620887024" lon="12.373031088570034"><ele>151.33333333333331</ele><time>2026-04-29T17:36:02Z</time></trkpt><trkpt lat="42.05389205585266" lon="12.373144472577652"><ele>152.0</ele><time>2026-04-29T17:36:03Z</time></trkpt><trkpt lat="42.05375749334516" lon="12.373270459378269"><ele>152.0</ele><time>2026-04-29T17:36:04Z</time></trkpt><trkpt lat="42.053627835219565" lon="12.373410818991006"><ele>152.0</ele><time>2026-04-29T17:36:05Z</time></trkpt><trkpt lat="42.05350893396197" lon="12.373566031203174"><ele>152.0</ele><time>2026-04-29T17:36:06Z</time></trkpt><trkpt lat="42.05340023409401" lon="12.373732300458846"><ele>151.5</ele><time>2026-04-29T17:36:07Z</time></trkpt><trkpt lat="42.05330619028947" lon="12.373895222403863"><ele>151.0</ele><time>2026-04-29T17:36:08Z</time></trkpt><trkpt lat="42.05321373512844" lon="12.374047586569024"><ele>150.5</ele><time>2026-04-29T17:36:09Z</time></trkpt><trkpt lat="42.053103146482826" lon="12.374182115798742"><ele>150.0</ele><time>2026-04-29T17:36:10Z</time></trkpt><trkpt lat="42.05297323946301" lon="12.374296998565358"><ele>149.66666666666666</ele><time>2026-04-29T17:36:11Z</time></trkpt><trkpt lat="42.05283044096083" lon="12.374384759855085"><ele>149.33333333333331</ele><time>2026-04-29T17:36:12Z</time></trkpt><trkpt lat="42.05266946481176" lon="12.374446506181027"><ele>149.0</ele><time>2026-04-29T17:36:13Z</time></trkpt><trkpt lat="42.05248960640516" lon="12.374497544366701"><ele>148.33333333333331</ele><time>2026-04-29T17:36:14Z</time></trkpt><trkpt lat="42.052312557187896" lon="12.37455062287264"><ele>147.66666666666666</ele><time>2026-04-29T17:36:15Z</time></trkpt><trkpt lat="42.05214406322548" lon="12.37457956862416"><ele>147.0</ele><time>2026-04-29T17:36:16Z</time></trkpt><trkpt lat="42.0519796279568" lon="12.374631261380257"><ele>147.0</ele><time>2026-04-29T17:36:17Z</time></trkpt><trkpt lat="42.05181687699293" lon="12.374682323755282"><ele>147.0</ele><time>2026-04-29T17:36:18Z</time></trkpt><trkpt lat="42.05164330851183" lon="12.374736541172062"><ele>147.0</ele><time>2026-04-29T17:36:19Z</time></trkpt><trkpt lat="42.05145535140809" lon="12.374795253140599"><ele>146.66666666666666</ele><time>2026-04-29T17:36:20Z</time></trkpt><trkpt lat="42.05125889286681" lon="12.374857377952772"><ele>146.33333333333331</ele><time>2026-04-29T17:36:21Z</time></trkpt><trkpt lat="42.05106138834361" lon="12.374921212550403"><ele>146.0</ele><time>2026-04-29T17:36:22Z</time></trkpt><trkpt lat="42.05086046493778" lon="12.37498828089729"><ele>144.66666666666666</ele><time>2026-04-29T17:36:23Z</time></trkpt><trkpt lat="42.05065474042554" lon="12.37505695186775"><ele>143.33333333333334</ele><time>2026-04-29T17:36:24Z</time></trkpt><trkpt lat="42.050447512295264" lon="12.375127403289278"><ele>142.0</ele><time>2026-04-29T17:36:25Z</time></trkpt><trkpt lat="42.05023911532289" lon="12.37520082488323"><ele>142.0</ele><time>2026-04-29T17:36:26Z</time></trkpt><trkpt lat="42.05003121124533" lon="12.375274512407982"><ele>142.0</ele><time>2026-04-29T17:36:27Z</time></trkpt><trkpt lat="42.049822786708" lon="12.37534838439315"><ele>142.0</ele><time>2026-04-29T17:36:28Z</time></trkpt><trkpt lat="42.04961953343036" lon="12.375420423534651"><ele>142.0</ele><time>2026-04-29T17:36:29Z</time></trkpt><trkpt lat="42.04942219779125" lon="12.375489247911046"><ele>142.0</ele><time>2026-04-29T17:36:30Z</time></trkpt><trkpt lat="42.04922063136257" lon="12.375558923076586"><ele>142.0</ele><time>2026-04-29T17:36:31Z</time></trkpt><trkpt lat="42.04901815096701" lon="12.375623080694844"><ele>141.0</ele><time>2026-04-29T17:36:32Z</time></trkpt><trkpt lat="42.04881356513821" lon="12.375680665956851"><ele>140.0</ele><time>2026-04-29T17:36:33Z</time></trkpt><trkpt lat="42.04860335208104" lon="12.375726803942621"><ele>139.0</ele><time>2026-04-29T17:36:34Z</time></trkpt><trkpt lat="42.04839028126032" lon="12.375764149144548"><ele>138.0</ele><time>2026-04-29T17:36:35Z</time></trkpt><trkpt lat="42.04818806013262" lon="12.375797983262029"><ele>137.0</ele><time>2026-04-29T17:36:36Z</time></trkpt><trkpt lat="42.047995770829125" lon="12.375829467644996"><ele>136.0</ele><time>2026-04-29T17:36:37Z</time></trkpt><trkpt lat="42.04780720967522" lon="12.37585907541901"><ele>136.0</ele><time>2026-04-29T17:36:38Z</time></trkpt><trkpt lat="42.04762115665741" lon="12.375887007140932"><ele>136.0</ele><time>2026-04-29T17:36:39Z</time></trkpt><trkpt lat="42.0474337837198" lon="12.3759151370084"><ele>136.0</ele><time>2026-04-29T17:36:40Z</time></trkpt><trkpt lat="42.047246516410716" lon="12.375943180543716"><ele>136.33333333333334</ele><time>2026-04-29T17:36:41Z</time></trkpt><trkpt lat="42.04705997495893" lon="12.37597109487251"><ele>136.66666666666666</ele><time>2026-04-29T17:36:42Z</time></trkpt><trkpt lat="42.04687343819805" lon="12.37599900850207"><ele>137.0</ele><time>2026-04-29T17:36:43Z</time></trkpt><trkpt lat="42.04668963830543" lon="12.37602651250608"><ele>137.33333333333331</ele><time>2026-04-29T17:36:44Z</time></trkpt><trkpt lat="42.04651490604659" lon="12.376076359009518"><ele>137.66666666666666</ele><time>2026-04-29T17:36:45Z</time></trkpt><trkpt lat="42.04634499098243" lon="12.376101593357356"><ele>138.0</ele><time>2026-04-29T17:36:46Z</time></trkpt><trkpt lat="42.04616674166596" lon="12.376132529408995"><ele>138.0</ele><time>2026-04-29T17:36:47Z</time></trkpt><trkpt lat="42.045991790170646" lon="12.376156900560861"><ele>138.0</ele><time>2026-04-29T17:36:48Z</time></trkpt><trkpt lat="42.045813549498725" lon="12.376154030498835"><ele>138.0</ele><time>2026-04-29T17:36:49Z</time></trkpt><trkpt lat="42.04563442856474" lon="12.376180369509377"><ele>137.66666666666666</ele><time>2026-04-29T17:36:50Z</time></trkpt><trkpt lat="42.04545368172864" lon="12.376206938087192"><ele>137.33333333333331</ele><time>2026-04-29T17:36:51Z</time></trkpt><trkpt lat="42.04527278575809" lon="12.376233528587328"><ele>137.0</ele><time>2026-04-29T17:36:52Z</time></trkpt><trkpt lat="42.045092565954455" lon="12.376258425758694"><ele>136.0</ele><time>2026-04-29T17:36:53Z</time></trkpt><trkpt lat="42.044910832430304" lon="12.376275157780356"><ele>135.0</ele><time>2026-04-29T17:36:54Z</time></trkpt><trkpt lat="42.0447257245525" lon="12.37628046902957"><ele>134.0</ele><time>2026-04-29T17:36:55Z</time></trkpt><trkpt lat="42.04452572005717" lon="12.376277812376978"><ele>134.0</ele><time>2026-04-29T17:36:56Z</time></trkpt><trkpt lat="42.04433136646678" lon="12.376270875802726"><ele>134.0</ele><time>2026-04-29T17:36:57Z</time></trkpt><trkpt lat="42.04414535909126" lon="12.376266784299894"><ele>134.0</ele><time>2026-04-29T17:36:58Z</time></trkpt><trkpt lat="42.043965916204634" lon="12.376263891545232"><ele>133.0</ele><time>2026-04-29T17:36:59Z</time></trkpt><trkpt lat="42.04379361696444" lon="12.376260814959487"><ele>132.0</ele><time>2026-04-29T17:37:00Z</time></trkpt><trkpt lat="42.04362812805841" lon="12.376257800588943"><ele>131.0</ele><time>2026-04-29T17:37:01Z</time></trkpt><trkpt lat="42.04346454611836" lon="12.376254507148667"><ele>131.0</ele><time>2026-04-29T17:37:02Z</time></trkpt><trkpt lat="42.04329960127223" lon="12.37624975081812"><ele>131.0</ele><time>2026-04-29T17:37:03Z</time></trkpt><trkpt lat="42.0431351773831" lon="12.376247255870618"><ele>131.0</ele><time>2026-04-29T17:37:04Z</time></trkpt><trkpt lat="42.04296226397392" lon="12.376251038079841"><ele>131.66666666666666</ele><time>2026-04-29T17:37:04.999Z</time></trkpt><trkpt lat="42.04277593504206" lon="12.376257469941041"><ele>132.33333333333334</ele><time>2026-04-29T17:37:05.999Z</time></trkpt><trkpt lat="42.04257491955624" lon="12.376274378788994"><ele>133.0</ele><time>2026-04-29T17:37:06.999Z</time></trkpt><trkpt lat="42.04236817823446" lon="12.376298971001665"><ele>133.33333333333334</ele><time>2026-04-29T17:37:07.999Z</time></trkpt><trkpt lat="42.042166742715494" lon="12.376326280033213"><ele>133.66666666666666</ele><time>2026-04-29T17:37:08.999Z</time></trkpt><trkpt lat="42.04198027615992" lon="12.376352069764232"><ele>134.0</ele><time>2026-04-29T17:37:10Z</time></trkpt><trkpt lat="42.0417967519796" lon="12.376379617041882"><ele>134.0</ele><time>2026-04-29T17:37:11Z</time></trkpt><trkpt lat="42.04160820489766" lon="12.376407588541188"><ele>134.0</ele><time>2026-04-29T17:37:12Z</time></trkpt><trkpt lat="42.04141219399995" lon="12.37643662162742"><ele>134.0</ele><time>2026-04-29T17:37:13Z</time></trkpt><trkpt lat="42.04120502376463" lon="12.376467148717238"><ele>134.0</ele><time>2026-04-29T17:37:14Z</time></trkpt><trkpt lat="42.04100483099176" lon="12.376497827864084"><ele>134.0</ele><time>2026-04-29T17:37:15Z</time></trkpt><trkpt lat="42.04081399617583" lon="12.37652574647439"><ele>134.0</ele><time>2026-04-29T17:37:16Z</time></trkpt><trkpt lat="42.040619500828996" lon="12.37655335213536"><ele>133.0</ele><time>2026-04-29T17:37:17Z</time></trkpt><trkpt lat="42.040421238270575" lon="12.376582395416879"><ele>132.0</ele><time>2026-04-29T17:37:18Z</time></trkpt><trkpt lat="42.040215096038274" lon="12.376611612133722"><ele>131.0</ele><time>2026-04-29T17:37:19Z</time></trkpt><trkpt lat="42.04002258940806" lon="12.376638967262334"><ele>131.0</ele><time>2026-04-29T17:37:20Z</time></trkpt><trkpt lat="42.03983938643102" lon="12.376709440242525"><ele>131.0</ele><time>2026-04-29T17:37:21Z</time></trkpt><trkpt lat="42.039655261157385" lon="12.376736913023612"><ele>131.0</ele><time>2026-04-29T17:37:22Z</time></trkpt><trkpt lat="42.03948089962513" lon="12.376764009467777"><ele>131.0</ele><time>2026-04-29T17:37:23Z</time></trkpt><trkpt lat="42.039313137402175" lon="12.376786977225299"><ele>131.0</ele><time>2026-04-29T17:37:24Z</time></trkpt><trkpt lat="42.03914136126102" lon="12.376769278001643"><ele>131.0</ele><time>2026-04-29T17:37:25Z</time></trkpt><trkpt lat="42.03897098312325" lon="12.376793658327061"><ele>129.66666666666666</ele><time>2026-04-29T17:37:26Z</time></trkpt><trkpt lat="42.03878330843926" lon="12.376819405473414"><ele>128.33333333333334</ele><time>2026-04-29T17:37:27Z</time></trkpt><trkpt lat="42.03858143039465" lon="12.376846988470133"><ele>127.0</ele><time>2026-04-29T17:37:28Z</time></trkpt><trkpt lat="42.038370669739344" lon="12.376876507201066"><ele>127.5</ele><time>2026-04-29T17:37:29Z</time></trkpt><trkpt lat="42.03814045108963" lon="12.37690974997586"><ele>128.0</ele><time>2026-04-29T17:37:30Z</time></trkpt><trkpt lat="42.03790199094328" lon="12.376942607933037"><ele>128.0</ele><time>2026-04-29T17:37:31Z</time></trkpt><trkpt lat="42.03765529893126" lon="12.376976589239824"><ele>128.0</ele><time>2026-04-29T17:37:32Z</time></trkpt><trkpt lat="42.0374048917023" lon="12.37705139817881"><ele>129.5</ele><time>2026-04-29T17:37:33Z</time></trkpt><trkpt lat="42.03715318640905" lon="12.3770808975051"><ele>131.0</ele><time>2026-04-29T17:37:34Z</time></trkpt><trkpt lat="42.03691040681133" lon="12.377110788457813"><ele>131.0</ele><time>2026-04-29T17:37:35Z</time></trkpt><trkpt lat="42.03668103629931" lon="12.377140024688172"><ele>131.0</ele><time>2026-04-29T17:37:36Z</time></trkpt><trkpt lat="42.036453185285474" lon="12.377135364105705"><ele>130.0</ele><time>2026-04-29T17:37:37Z</time></trkpt><trkpt lat="42.0362392957188" lon="12.377159537796368"><ele>129.0</ele><time>2026-04-29T17:37:38Z</time></trkpt><trkpt lat="42.03603570626952" lon="12.377178917886207"><ele>128.0</ele><time>2026-04-29T17:37:39Z</time></trkpt><trkpt lat="42.035841277832056" lon="12.37722250667678"><ele>127.66666666666666</ele><time>2026-04-29T17:37:40Z</time></trkpt><trkpt lat="42.03565181773185" lon="12.377231952500372"><ele>127.33333333333334</ele><time>2026-04-29T17:37:41Z</time></trkpt><trkpt lat="42.03546524641564" lon="12.377236708222767"><ele>127.0</ele><time>2026-04-29T17:37:42Z</time></trkpt><trkpt lat="42.0352807041568" lon="12.37722786599895"><ele>127.0</ele><time>2026-04-29T17:37:43Z</time></trkpt><trkpt lat="42.03509565908577" lon="12.37720169072743"><ele>127.0</ele><time>2026-04-29T17:37:44Z</time></trkpt><trkpt lat="42.03490040897759" lon="12.377153253320174"><ele>127.0</ele><time>2026-04-29T17:37:45Z</time></trkpt><trkpt lat="42.034695510409605" lon="12.377084445212276"><ele>125.33333333333334</ele><time>2026-04-29T17:37:46Z</time></trkpt><trkpt lat="42.03448621386561" lon="12.37700695356203"><ele>123.66666666666666</ele><time>2026-04-29T17:37:47Z</time></trkpt><trkpt lat="42.034287817808085" lon="12.37693142971374"><ele>122.0</ele><time>2026-04-29T17:37:48Z</time></trkpt><trkpt lat="42.03409831975457" lon="12.376856955053167"><ele>122.0</ele><time>2026-04-29T17:37:49Z</time></trkpt><trkpt lat="42.03390732087105" lon="12.376781438332666"><ele>122.0</ele><time>2026-04-29T17:37:50Z</time></trkpt><trkpt lat="42.03372509761659" lon="12.376686310105967"><ele>122.0</ele><time>2026-04-29T17:37:51Z</time></trkpt><trkpt lat="42.033535803515626" lon="12.376608422399288"><ele>122.0</ele><time>2026-04-29T17:37:52Z</time></trkpt><trkpt lat="42.033338766823256" lon="12.376560925441703"><ele>122.0</ele><time>2026-04-29T17:37:53Z</time></trkpt><trkpt lat="42.033160951967616" lon="12.376485460135921"><ele>122.0</ele><time>2026-04-29T17:37:54Z</time></trkpt><trkpt lat="42.03298909334362" lon="12.376411568417778"><ele>119.66666666666666</ele><time>2026-04-29T17:37:55Z</time></trkpt><trkpt lat="42.03282279875224" lon="12.376345330211944"><ele>117.33333333333334</ele><time>2026-04-29T17:37:56Z</time></trkpt><trkpt lat="42.03266229020426" lon="12.37624982586832"><ele>115.0</ele><time>2026-04-29T17:37:57Z</time></trkpt><trkpt lat="42.03249846366196" lon="12.376183364475942"><ele>114.66666666666667</ele><time>2026-04-29T17:37:58Z</time></trkpt><trkpt lat="42.03233791741656" lon="12.376116707827043"><ele>114.33333333333334</ele><time>2026-04-29T17:37:59Z</time></trkpt><trkpt lat="42.03217029536238" lon="12.37604711339531"><ele>114.0</ele><time>2026-04-29T17:38:00Z</time></trkpt><trkpt lat="42.031998409246896" lon="12.37597574858114"><ele>114.0</ele><time>2026-04-29T17:38:01Z</time></trkpt><trkpt lat="42.03182235844888" lon="12.375902654025515"><ele>114.0</ele><time>2026-04-29T17:38:02Z</time></trkpt><trkpt lat="42.03164506802244" lon="12.37582868452529"><ele>114.0</ele><time>2026-04-29T17:38:03Z</time></trkpt><trkpt lat="42.03146342542426" lon="12.375775514750199"><ele>113.66666666666666</ele><time>2026-04-29T17:38:04Z</time></trkpt><trkpt lat="42.03129041603363" lon="12.375702983611065"><ele>113.33333333333333</ele><time>2026-04-29T17:38:05Z</time></trkpt><trkpt lat="42.031123853643095" lon="12.375634196381815"><ele>113.0</ele><time>2026-04-29T17:38:06Z</time></trkpt><trkpt lat="42.03095490023659" lon="12.375566783131989"><ele>111.33333333333333</ele><time>2026-04-29T17:38:07Z</time></trkpt><trkpt lat="42.03078441617479" lon="12.375493699381305"><ele>109.66666666666666</ele><time>2026-04-29T17:38:08Z</time></trkpt><trkpt lat="42.03061407494392" lon="12.375421758585283"><ele>108.0</ele><time>2026-04-29T17:38:09Z</time></trkpt><trkpt lat="42.030443552857285" lon="12.375351964271449"><ele>108.0</ele><time>2026-04-29T17:38:10Z</time></trkpt><trkpt lat="42.030278082849776" lon="12.375286491701585"><ele>108.0</ele><time>2026-04-29T17:38:11Z</time></trkpt><trkpt lat="42.03011496187064" lon="12.375232427680027"><ele>108.0</ele><time>2026-04-29T17:38:12Z</time></trkpt><trkpt lat="42.02995080759336" lon="12.375168070545731"><ele>107.33333333333334</ele><time>2026-04-29T17:38:13Z</time></trkpt><trkpt lat="42.029772499053514" lon="12.375158829900514"><ele>106.66666666666667</ele><time>2026-04-29T17:38:14Z</time></trkpt><trkpt lat="42.02959174812225" lon="12.375171267088879"><ele>106.0</ele><time>2026-04-29T17:38:15Z</time></trkpt><trkpt lat="42.02941128063723" lon="12.375191616535806"><ele>106.0</ele><time>2026-04-29T17:38:16Z</time></trkpt><trkpt lat="42.029242977841484" lon="12.375212832829977"><ele>106.0</ele><time>2026-04-29T17:38:17Z</time></trkpt><trkpt lat="42.02908287120634" lon="12.375234530968225"><ele>106.0</ele><time>2026-04-29T17:38:18Z</time></trkpt><trkpt lat="42.02893200659993" lon="12.375254657158465"><ele>106.0</ele><time>2026-04-29T17:38:19Z</time></trkpt><trkpt lat="42.02879402820713" lon="12.375273042564082"><ele>106.0</ele><time>2026-04-29T17:38:20Z</time></trkpt><trkpt lat="42.02866481171463" lon="12.375290255027942"><ele>106.0</ele><time>2026-04-29T17:38:21Z</time></trkpt><trkpt lat="42.02852880485807" lon="12.375308346947998"><ele>106.0</ele><time>2026-04-29T17:38:22Z</time></trkpt><trkpt lat="42.02837629409738" lon="12.37532799352573"><ele>106.66666666666667</ele><time>2026-04-29T17:38:23Z</time></trkpt><trkpt lat="42.02819673036137" lon="12.375351356446078"><ele>107.33333333333334</ele><time>2026-04-29T17:38:24Z</time></trkpt><trkpt lat="42.02800299600902" lon="12.375379742067391"><ele>108.0</ele><time>2026-04-29T17:38:25Z</time></trkpt><trkpt lat="42.027812599885095" lon="12.375407424770668"><ele>108.0</ele><time>2026-04-29T17:38:26Z</time></trkpt><trkpt lat="42.027624055634625" lon="12.37544161001947"><ele>108.0</ele><time>2026-04-29T17:38:27Z</time></trkpt><trkpt lat="42.027441722849225" lon="12.375487013218144"><ele>108.0</ele><time>2026-04-29T17:38:28Z</time></trkpt><trkpt lat="42.027277300835706" lon="12.375564040374917"><ele>106.66666666666666</ele><time>2026-04-29T17:38:29Z</time></trkpt><trkpt lat="42.02709629731227" lon="12.375618245419329"><ele>105.33333333333333</ele><time>2026-04-29T17:38:30Z</time></trkpt><trkpt lat="42.026914038314516" lon="12.375700835055666"><ele>104.0</ele><time>2026-04-29T17:38:31Z</time></trkpt><trkpt lat="42.026730783387826" lon="12.37578575502621"><ele>106.33333333333333</ele><time>2026-04-29T17:38:32Z</time></trkpt><trkpt lat="42.02654472397587" lon="12.375876631718628"><ele>108.66666666666666</ele><time>2026-04-29T17:38:33Z</time></trkpt><trkpt lat="42.026358369592266" lon="12.375970115713809"><ele>111.0</ele><time>2026-04-29T17:38:34Z</time></trkpt><trkpt lat="42.02616911279457" lon="12.376062305165563"><ele>111.0</ele><time>2026-04-29T17:38:35Z</time></trkpt><trkpt lat="42.02597879312537" lon="12.376154933042384"><ele>111.0</ele><time>2026-04-29T17:38:36Z</time></trkpt><trkpt lat="42.025789237494536" lon="12.37624492139559"><ele>111.0</ele><time>2026-04-29T17:38:37Z</time></trkpt><trkpt lat="42.025603981791896" lon="12.376326953055862"><ele>109.33333333333334</ele><time>2026-04-29T17:38:38Z</time></trkpt><trkpt lat="42.02542023635585" lon="12.376387947595243"><ele>107.66666666666667</ele><time>2026-04-29T17:38:39Z</time></trkpt><trkpt lat="42.025238823265404" lon="12.37643636990284"><ele>106.0</ele><time>2026-04-29T17:38:40Z</time></trkpt><trkpt lat="42.025055979858756" lon="12.376479560196215"><ele>106.66666666666667</ele><time>2026-04-29T17:38:41Z</time></trkpt><trkpt lat="42.02487713515294" lon="12.37652109723597"><ele>107.33333333333334</ele><time>2026-04-29T17:38:42Z</time></trkpt><trkpt lat="42.024701406935904" lon="12.376559640286061"><ele>108.0</ele><time>2026-04-29T17:38:43Z</time></trkpt><trkpt lat="42.02453629628523" lon="12.376595352285204"><ele>108.0</ele><time>2026-04-29T17:38:44Z</time></trkpt><trkpt lat="42.024376432961304" lon="12.376628800394364"><ele>108.0</ele><time>2026-04-29T17:38:45Z</time></trkpt><trkpt lat="42.02421918198862" lon="12.376659603139025"><ele>108.0</ele><time>2026-04-29T17:38:46Z</time></trkpt><trkpt lat="42.02407668612947" lon="12.3766976809549"><ele>109.0</ele><time>2026-04-29T17:38:47Z</time></trkpt><trkpt lat="42.02394335275928" lon="12.376701268616918"><ele>110.0</ele><time>2026-04-29T17:38:48Z</time></trkpt><trkpt lat="42.02382046072689" lon="12.3767027539894"><ele>111.0</ele><time>2026-04-29T17:38:49Z</time></trkpt><trkpt lat="42.02370839222529" lon="12.376704671696599"><ele>112.0</ele><time>2026-04-29T17:38:50Z</time></trkpt><trkpt lat="42.023604967189236" lon="12.376710748508446"><ele>112.0</ele><time>2026-04-29T17:38:51Z</time></trkpt><trkpt lat="42.02350223933156" lon="12.376714247867579"><ele>112.0</ele><time>2026-04-29T17:38:52Z</time></trkpt><trkpt lat="42.02338887727395" lon="12.376714675939464"><ele>112.0</ele><time>2026-04-29T17:38:52.999Z</time></trkpt><trkpt lat="42.023272529044725" lon="12.37671829567454"><ele>112.0</ele><time>2026-04-29T17:38:53.999Z</time></trkpt><trkpt lat="42.02315101628527" lon="12.376726499825354"><ele>113.5</ele><time>2026-04-29T17:38:54.999Z</time></trkpt><trkpt lat="42.02301820062406" lon="12.376731574580285"><ele>115.0</ele><time>2026-04-29T17:38:55.999Z</time></trkpt><trkpt lat="42.022867457796245" lon="12.376736631911145"><ele>116.5</ele><time>2026-04-29T17:38:56.999Z</time></trkpt><trkpt lat="42.022717121332875" lon="12.376743070437202"><ele>118.0</ele><time>2026-04-29T17:38:57.999Z</time></trkpt><trkpt lat="42.02259252277696" lon="12.376751518340818"><ele>118.75</ele><time>2026-04-29T17:38:58.999Z</time></trkpt><trkpt lat="42.02248127741954" lon="12.376763032187851"><ele>119.5</ele><time>2026-04-29T17:38:59.999Z</time></trkpt><trkpt lat="42.02237592614642" lon="12.37676595739371"><ele>120.25</ele><time>2026-04-29T17:39:00.999Z</time></trkpt><trkpt lat="42.02226167989194" lon="12.376763413255793"><ele>121.0</ele><time>2026-04-29T17:39:01.999Z</time></trkpt><trkpt lat="42.022143329029944" lon="12.376767419262967"><ele>121.0</ele><time>2026-04-29T17:39:02.999Z</time></trkpt><trkpt lat="42.022026700186935" lon="12.37677132296116"><ele>121.0</ele><time>2026-04-29T17:39:03.999Z</time></trkpt><trkpt lat="42.021914164559185" lon="12.37677309953139"><ele>121.0</ele><time>2026-04-29T17:39:04.999Z</time></trkpt><trkpt lat="42.02180193122868" lon="12.376772473754118"><ele>121.0</ele><time>2026-04-29T17:39:05.999Z</time></trkpt><trkpt lat="42.02169385046596" lon="12.376772777482778"><ele>122.00000000000001</ele><time>2026-04-29T17:39:06.999Z</time></trkpt><trkpt lat="42.021593871459956" lon="12.37676920846888"><ele>123.0</ele><time>2026-04-29T17:39:07.999Z</time></trkpt><trkpt lat="42.021495445954834" lon="12.376773426419577"><ele>124.0</ele><time>2026-04-29T17:39:08.999Z</time></trkpt><trkpt lat="42.021412724637415" lon="12.376779791133014"><ele>125.0</ele><time>2026-04-29T17:39:09.999Z</time></trkpt><trkpt lat="42.0213499585702" lon="12.376789367337215"><ele>126.00000000000001</ele><time>2026-04-29T17:39:10.999Z</time></trkpt><trkpt lat="42.021286618913194" lon="12.376813065257817"><ele>127.0</ele><time>2026-04-29T17:39:12.999Z</time></trkpt><trkpt lat="42.02122055756407" lon="12.376798272716645"><ele>127.0</ele><time>2026-04-29T17:39:14.999Z</time></trkpt><trkpt lat="42.021129746988095" lon="12.376802345765572"><ele>126.99999999999999</ele><time>2026-04-29T17:39:17Z</time></trkpt><trkpt lat="42.021048567834235" lon="12.376779309870079"><ele>126.99999999999999</ele><time>2026-04-29T17:39:20Z</time></trkpt><trkpt lat="42.0209654875307" lon="12.376805416584096"><ele>127.0</ele><time>2026-04-29T17:39:21Z</time></trkpt><trkpt lat="42.020875564201646" lon="12.376820422518445"><ele>127.0</ele><time>2026-04-29T17:39:22Z</time></trkpt><trkpt lat="42.02077185260185" lon="12.376826483201134"><ele>128.2</ele><time>2026-04-29T17:39:23Z</time></trkpt><trkpt lat="42.02065314620318" lon="12.376833604163252"><ele>129.39999999999998</ele><time>2026-04-29T17:39:24Z</time></trkpt><trkpt lat="42.020539717404354" lon="12.376827655276603"><ele>130.60000000000002</ele><time>2026-04-29T17:39:25Z</time></trkpt><trkpt lat="42.020431007676265" lon="12.376825261663521"><ele>131.8</ele><time>2026-04-29T17:39:26Z</time></trkpt><trkpt lat="42.020340863821396" lon="12.376826629465379"><ele>133.0</ele><time>2026-04-29T17:39:27Z</time></trkpt><trkpt lat="42.02024962888912" lon="12.37683135657816"><ele>133.0</ele><time>2026-04-29T17:39:28Z</time></trkpt><trkpt lat="42.02015924160134" lon="12.376835801480167"><ele>133.0</ele><time>2026-04-29T17:39:29Z</time></trkpt><trkpt lat="42.02008692724143" lon="12.376839526820811"><ele>133.0</ele><time>2026-04-29T17:39:30Z</time></trkpt><trkpt lat="42.01998360103195" lon="12.376841052888377"><ele>133.0</ele><time>2026-04-29T17:39:32Z</time></trkpt><trkpt lat="42.01990898408265" lon="12.37684304493943"><ele>133.0</ele><time>2026-04-29T17:39:34Z</time></trkpt><trkpt lat="42.01980471283829" lon="12.376851310602582"><ele>133.0</ele><time>2026-04-29T17:40:12Z</time></trkpt><trkpt lat="42.0197301036059" lon="12.376855329619715"><ele>134.20000000000002</ele><time>2026-04-29T17:40:13Z</time></trkpt><trkpt lat="42.01964963071068" lon="12.376855498412887"><ele>135.4</ele><time>2026-04-29T17:40:14Z</time></trkpt><trkpt lat="42.0195496557666" lon="12.376847006904505"><ele>136.60000000000002</ele><time>2026-04-29T17:40:15Z</time></trkpt><trkpt lat="42.01942537102191" lon="12.376838094419595"><ele>137.8</ele><time>2026-04-29T17:40:16Z</time></trkpt><trkpt lat="42.01930021081089" lon="12.37683310130792"><ele>139.0</ele><time>2026-04-29T17:40:17Z</time></trkpt><trkpt lat="42.01917075419359" lon="12.376826069352056"><ele>140.0</ele><time>2026-04-29T17:40:18Z</time></trkpt><trkpt lat="42.01903103098309" lon="12.376809326787814"><ele>141.0</ele><time>2026-04-29T17:40:19Z</time></trkpt><trkpt lat="42.018884503610344" lon="12.376789966534266"><ele>142.0</ele><time>2026-04-29T17:40:20Z</time></trkpt><trkpt lat="42.018734813509475" lon="12.37677034334365"><ele>143.0</ele><time>2026-04-29T17:40:21Z</time></trkpt><trkpt lat="42.01859347306171" lon="12.376752319896106"><ele>143.0</ele><time>2026-04-29T17:40:22Z</time></trkpt><trkpt lat="42.0184502833614" lon="12.376727368389195"><ele>143.0</ele><time>2026-04-29T17:40:23Z</time></trkpt><trkpt lat="42.01830949441602" lon="12.376707906711793"><ele>143.0</ele><time>2026-04-29T17:40:24Z</time></trkpt><trkpt lat="42.018170099016764" lon="12.376691474791716"><ele>143.0</ele><time>2026-04-29T17:40:25Z</time></trkpt><trkpt lat="42.01802651978367" lon="12.376677178568059"><ele>144.0</ele><time>2026-04-29T17:40:26Z</time></trkpt><trkpt lat="42.017883501808655" lon="12.37666345655126"><ele>145.0</ele><time>2026-04-29T17:40:27Z</time></trkpt><trkpt lat="42.01773829232497" lon="12.3766537513431"><ele>146.0</ele><time>2026-04-29T17:40:28Z</time></trkpt><trkpt lat="42.01759164047487" lon="12.37664540268756"><ele>147.0</ele><time>2026-04-29T17:40:29Z</time></trkpt><trkpt lat="42.01744556376178" lon="12.376641068466"><ele>148.0</ele><time>2026-04-29T17:40:30Z</time></trkpt><trkpt lat="42.017300210986505" lon="12.376638360500309"><ele>149.0</ele><time>2026-04-29T17:40:31Z</time></trkpt><trkpt lat="42.01715235427783" lon="12.376638849572402"><ele>150.0</ele><time>2026-04-29T17:40:32Z</time></trkpt><trkpt lat="42.017004705863435" lon="12.376638212747837"><ele>151.0</ele><time>2026-04-29T17:40:33Z</time></trkpt><trkpt lat="42.01685465017398" lon="12.376642872267556"><ele>151.0</ele><time>2026-04-29T17:40:34Z</time></trkpt><trkpt lat="42.01670323995057" lon="12.376654052509565"><ele>151.0</ele><time>2026-04-29T17:40:35Z</time></trkpt><trkpt lat="42.01655131852308" lon="12.376664011887707"><ele>151.0</ele><time>2026-04-29T17:40:36Z</time></trkpt><trkpt lat="42.01639865800549" lon="12.37667648297391"><ele>151.33333333333334</ele><time>2026-04-29T17:40:37Z</time></trkpt><trkpt lat="42.01624862233048" lon="12.376692691537"><ele>151.66666666666666</ele><time>2026-04-29T17:40:38Z</time></trkpt><trkpt lat="42.01609398730332" lon="12.376712936781914"><ele>152.0</ele><time>2026-04-29T17:40:39Z</time></trkpt><trkpt lat="42.01593782292641" lon="12.376739455038463"><ele>151.66666666666666</ele><time>2026-04-29T17:40:40Z</time></trkpt><trkpt lat="42.015791444761646" lon="12.37675952817509"><ele>151.33333333333334</ele><time>2026-04-29T17:40:40.999Z</time></trkpt><trkpt lat="42.0156414176326" lon="12.376794154410856"><ele>151.0</ele><time>2026-04-29T17:40:41.999Z</time></trkpt><trkpt lat="42.01547941807827" lon="12.376833783873769"><ele>151.0</ele><time>2026-04-29T17:40:42.999Z</time></trkpt><trkpt lat="42.015309948277114" lon="12.376870933672597"><ele>151.0</ele><time>2026-04-29T17:40:43.999Z</time></trkpt><trkpt lat="42.01513605478504" lon="12.376907115819389"><ele>151.0</ele><time>2026-04-29T17:40:44.999Z</time></trkpt><trkpt lat="42.01496108400138" lon="12.376946197921015"><ele>150.66666666666669</ele><time>2026-04-29T17:40:45.999Z</time></trkpt><trkpt lat="42.014777637939844" lon="12.376988041300743"><ele>150.33333333333334</ele><time>2026-04-29T17:40:46.999Z</time></trkpt><trkpt lat="42.014580035676545" lon="12.377031870543284"><ele>150.0</ele><time>2026-04-29T17:40:47.999Z</time></trkpt><trkpt lat="42.01437535523316" lon="12.377063655021436"><ele>150.0</ele><time>2026-04-29T17:40:48.999Z</time></trkpt><trkpt lat="42.01417285846782" lon="12.377085302947673"><ele>150.0</ele><time>2026-04-29T17:40:49.999Z</time></trkpt><trkpt lat="42.01398302375965" lon="12.377096195534966"><ele>150.0</ele><time>2026-04-29T17:40:50.999Z</time></trkpt><trkpt lat="42.01380509783829" lon="12.377079457658905"><ele>151.0</ele><time>2026-04-29T17:40:51.999Z</time></trkpt><trkpt lat="42.013638268053334" lon="12.377083681803269"><ele>152.0</ele><time>2026-04-29T17:40:52.999Z</time></trkpt><trkpt lat="42.01347959797561" lon="12.37709484872987"><ele>153.0</ele><time>2026-04-29T17:40:53.999Z</time></trkpt><trkpt lat="42.01333177199668" lon="12.377108403330027"><ele>153.5</ele><time>2026-04-29T17:40:54.999Z</time></trkpt><trkpt lat="42.01319262642813" lon="12.377121550036673"><ele>154.0</ele><time>2026-04-29T17:40:55.999Z</time></trkpt><trkpt lat="42.013067193594495" lon="12.3771566841824"><ele>154.5</ele><time>2026-04-29T17:40:56.999Z</time></trkpt><trkpt lat="42.012940090825595" lon="12.37716591910163"><ele>155.0</ele><time>2026-04-29T17:40:57.999Z</time></trkpt><trkpt lat="42.01282638887899" lon="12.377182658387017"><ele>155.5</ele><time>2026-04-29T17:40:58.999Z</time></trkpt><trkpt lat="42.01273730142511" lon="12.377199045789597"><ele>156.0</ele><time>2026-04-29T17:40:59.999Z</time></trkpt><trkpt lat="42.01266061133437" lon="12.377214015639755"><ele>156.5</ele><time>2026-04-29T17:41:00.999Z</time></trkpt><trkpt lat="42.01258447957649" lon="12.377227801411372"><ele>157.0</ele><time>2026-04-29T17:41:01.999Z</time></trkpt><trkpt lat="42.01250409684917" lon="12.377243083196769"><ele>157.5</ele><time>2026-04-29T17:41:02.999Z</time></trkpt><trkpt lat="42.01242179755702" lon="12.377267192779424"><ele>158.0</ele><time>2026-04-29T17:41:03.999Z</time></trkpt><trkpt lat="42.01233185910586" lon="12.377293107986564"><ele>159.0</ele><time>2026-04-29T17:41:04.999Z</time></trkpt><trkpt lat="42.012226308187806" lon="12.37731052624058"><ele>160.0</ele><time>2026-04-29T17:41:05.999Z</time></trkpt><trkpt lat="42.0121072629612" lon="12.377345949150284"><ele>161.0</ele><time>2026-04-29T17:41:06.999Z</time></trkpt><trkpt lat="42.01197487227349" lon="12.377353261916957"><ele>162.0</ele><time>2026-04-29T17:41:07.999Z</time></trkpt><trkpt lat="42.01184369933062" lon="12.377380994997857"><ele>162.0</ele><time>2026-04-29T17:41:08.999Z</time></trkpt><trkpt lat="42.01171297279556" lon="12.377444619766484"><ele>162.0</ele><time>2026-04-29T17:41:09.999Z</time></trkpt><trkpt lat="42.011580002475704" lon="12.377476558306928"><ele>162.0</ele><time>2026-04-29T17:41:10.999Z</time></trkpt><trkpt lat="42.011478036908976" lon="12.377501470864155"><ele>162.0</ele><time>2026-04-29T17:41:11.999Z</time></trkpt><trkpt lat="42.01138519315147" lon="12.377528652708083"><ele>162.0</ele><time>2026-04-29T17:41:12.999Z</time></trkpt><trkpt lat="42.01127919843017" lon="12.377521514762005"><ele>162.0</ele><time>2026-04-29T17:41:13.999Z</time></trkpt><trkpt lat="42.01117980459254" lon="12.377553002841129"><ele>162.0</ele><time>2026-04-29T17:41:14.999Z</time></trkpt><trkpt lat="42.01107917235112" lon="12.377602680149224"><ele>162.0</ele><time>2026-04-29T17:41:15.999Z</time></trkpt><trkpt lat="42.01098835228524" lon="12.37770348764351"><ele>162.0</ele><time>2026-04-29T17:41:16.999Z</time></trkpt><trkpt lat="42.01088065844775" lon="12.377788399644302"><ele>162.0</ele><time>2026-04-29T17:41:17.999Z</time></trkpt><trkpt lat="42.01076408709485" lon="12.377888282902074"><ele>162.0</ele><time>2026-04-29T17:41:18.999Z</time></trkpt><trkpt lat="42.01063923433285" lon="12.377994824897456"><ele>162.0</ele><time>2026-04-29T17:41:19.999Z</time></trkpt><trkpt lat="42.01048803814264" lon="12.3780613669579"><ele>162.0</ele><time>2026-04-29T17:41:21Z</time></trkpt><trkpt lat="42.010356540051575" lon="12.378168433664815"><ele>162.66666666666666</ele><time>2026-04-29T17:41:22Z</time></trkpt><trkpt lat="42.010217235356976" lon="12.378267840251251"><ele>163.33333333333331</ele><time>2026-04-29T17:41:23Z</time></trkpt><trkpt lat="42.01007755959301" lon="12.378356908293249"><ele>164.0</ele><time>2026-04-29T17:41:24Z</time></trkpt><trkpt lat="42.00994212385149" lon="12.378435623200021"><ele>163.0</ele><time>2026-04-29T17:41:25Z</time></trkpt><trkpt lat="42.00981581428726" lon="12.378507276706065"><ele>162.0</ele><time>2026-04-29T17:41:26Z</time></trkpt><trkpt lat="42.00970735626449" lon="12.378567410328909"><ele>161.0</ele><time>2026-04-29T17:41:27Z</time></trkpt><trkpt lat="42.00961856290144" lon="12.37861663319886"><ele>160.0</ele><time>2026-04-29T17:41:28Z</time></trkpt><trkpt lat="42.0095386887088" lon="12.378660206245838"><ele>159.0</ele><time>2026-04-29T17:41:29Z</time></trkpt><trkpt lat="42.009461778287175" lon="12.378701377184056"><ele>159.0</ele><time>2026-04-29T17:41:30Z</time></trkpt><trkpt lat="42.00939312282144" lon="12.37873872649647"><ele>159.0</ele><time>2026-04-29T17:41:31Z</time></trkpt><trkpt lat="42.009327144056506" lon="12.378774618705055"><ele>159.0</ele><time>2026-04-29T17:41:32Z</time></trkpt><trkpt lat="42.00925373156653" lon="12.378814855183816"><ele>159.0</ele><time>2026-04-29T17:41:33Z</time></trkpt><trkpt lat="42.00917934316735" lon="12.378874177381638"><ele>159.0</ele><time>2026-04-29T17:41:34Z</time></trkpt><trkpt lat="42.00908919609327" lon="12.378926847597889"><ele>159.0</ele><time>2026-04-29T17:41:35Z</time></trkpt><trkpt lat="42.00898500022411" lon="12.378959989916918"><ele>160.0</ele><time>2026-04-29T17:41:36Z</time></trkpt><trkpt lat="42.00887099569056" lon="12.379020082107608"><ele>161.0</ele><time>2026-04-29T17:41:37Z</time></trkpt><trkpt lat="42.00874294320866" lon="12.379089267609887"><ele>162.0</ele><time>2026-04-29T17:41:38Z</time></trkpt><trkpt lat="42.008604889196874" lon="12.379163469511136"><ele>163.0</ele><time>2026-04-29T17:41:39Z</time></trkpt><trkpt lat="42.008471212076955" lon="12.379235398764365"><ele>163.0</ele><time>2026-04-29T17:41:40Z</time></trkpt><trkpt lat="42.008336020080556" lon="12.379308034782897"><ele>163.0</ele><time>2026-04-29T17:41:41Z</time></trkpt><trkpt lat="42.008204685042415" lon="12.379378852304669"><ele>163.0</ele><time>2026-04-29T17:41:42Z</time></trkpt><trkpt lat="42.00807870498681" lon="12.379446871507884"><ele>163.0</ele><time>2026-04-29T17:41:43Z</time></trkpt><trkpt lat="42.00796353228061" lon="12.37953310399179"><ele>163.60000000000002</ele><time>2026-04-29T17:41:44Z</time></trkpt><trkpt lat="42.00784080641889" lon="12.379570126695928"><ele>164.20000000000002</ele><time>2026-04-29T17:41:45Z</time></trkpt><trkpt lat="42.00774256369538" lon="12.37964380419447"><ele>164.8</ele><time>2026-04-29T17:41:46Z</time></trkpt><trkpt lat="42.007644563152894" lon="12.379684544582865"><ele>165.4</ele><time>2026-04-29T17:41:47Z</time></trkpt><trkpt lat="42.00755003329805" lon="12.379710857536619"><ele>166.0</ele><time>2026-04-29T17:41:48Z</time></trkpt><trkpt lat="42.00745925805875" lon="12.379729930606418"><ele>167.5</ele><time>2026-04-29T17:41:49Z</time></trkpt><trkpt lat="42.00736863364172" lon="12.379708474854155"><ele>169.0</ele><time>2026-04-29T17:41:50Z</time></trkpt><trkpt lat="42.00727349600672" lon="12.379713167750205"><ele>170.5</ele><time>2026-04-29T17:41:51Z</time></trkpt><trkpt lat="42.007190343758666" lon="12.379713167750436"><ele>172.0</ele><time>2026-04-29T17:41:52Z</time></trkpt><trkpt lat="42.00710312631867" lon="12.37971230223236"><ele>173.5</ele><time>2026-04-29T17:41:53Z</time></trkpt><trkpt lat="42.007012415057126" lon="12.379710319456008"><ele>175.0</ele><time>2026-04-29T17:41:54Z</time></trkpt><trkpt lat="42.00692844515757" lon="12.379706916423459"><ele>175.0</ele><time>2026-04-29T17:41:55Z</time></trkpt><trkpt lat="42.00685084420106" lon="12.379703771500706"><ele>175.0</ele><time>2026-04-29T17:41:56Z</time></trkpt><trkpt lat="42.00676728664551" lon="12.37974527017128"><ele>175.0</ele><time>2026-04-29T17:41:57Z</time></trkpt><trkpt lat="42.00667468548016" lon="12.379743467802067"><ele>175.0</ele><time>2026-04-29T17:41:58Z</time></trkpt><trkpt lat="42.0065717182043" lon="12.379752218114314"><ele>175.0</ele><time>2026-04-29T17:41:59Z</time></trkpt><trkpt lat="42.00646235043246" lon="12.379776058661092"><ele>173.75</ele><time>2026-04-29T17:42:00Z</time></trkpt><trkpt lat="42.00634500465864" lon="12.379759781891734"><ele>172.5</ele><time>2026-04-29T17:42:01Z</time></trkpt><trkpt lat="42.00622958649464" lon="12.379810124260645"><ele>171.25</ele><time>2026-04-29T17:42:02Z</time></trkpt><trkpt lat="42.00611448039585" lon="12.379869122866012"><ele>170.0</ele><time>2026-04-29T17:42:03Z</time></trkpt><trkpt lat="42.00602003530986" lon="12.37998340339596"><ele>170.0</ele><time>2026-04-29T17:42:04Z</time></trkpt><trkpt lat="42.00590649835534" lon="12.380054458109386"><ele>170.0</ele><time>2026-04-29T17:42:05Z</time></trkpt><trkpt lat="42.0057889342355" lon="12.380124123273816"><ele>170.0</ele><time>2026-04-29T17:42:06Z</time></trkpt><trkpt lat="42.00567424249785" lon="12.380192303650885"><ele>170.0</ele><time>2026-04-29T17:42:07Z</time></trkpt><trkpt lat="42.00556041756122" lon="12.380259279785337"><ele>169.5</ele><time>2026-04-29T17:42:08Z</time></trkpt><trkpt lat="42.00544191353679" lon="12.380328765408263"><ele>169.0</ele><time>2026-04-29T17:42:09Z</time></trkpt><trkpt lat="42.00531695150953" lon="12.380404739398841"><ele>168.5</ele><time>2026-04-29T17:42:10Z</time></trkpt><trkpt lat="42.00516700735802" lon="12.380423193457114"><ele>168.0</ele><time>2026-04-29T17:42:11Z</time></trkpt><trkpt lat="42.005050698481654" lon="12.380567064553546"><ele>166.33333333333334</ele><time>2026-04-29T17:42:12Z</time></trkpt><trkpt lat="42.00491214987789" lon="12.380647932775243"><ele>164.66666666666669</ele><time>2026-04-29T17:42:13Z</time></trkpt><trkpt lat="42.004752715991614" lon="12.380739763610224"><ele>163.0</ele><time>2026-04-29T17:42:14Z</time></trkpt><trkpt lat="42.00460563064196" lon="12.380816199724254"><ele>163.0</ele><time>2026-04-29T17:42:15Z</time></trkpt><trkpt lat="42.00446567457592" lon="12.38088935589491"><ele>163.0</ele><time>2026-04-29T17:42:16Z</time></trkpt><trkpt lat="42.00431866134461" lon="12.380906182631028"><ele>163.0</ele><time>2026-04-29T17:42:17Z</time></trkpt><trkpt lat="42.00419937453721" lon="12.38098278735867"><ele>163.0</ele><time>2026-04-29T17:42:18Z</time></trkpt><trkpt lat="42.00409157786545" lon="12.381082572425472"><ele>162.75</ele><time>2026-04-29T17:42:19Z</time></trkpt><trkpt lat="42.00400011700134" lon="12.381192208224844"><ele>162.5</ele><time>2026-04-29T17:42:20Z</time></trkpt><trkpt lat="42.00391026253053" lon="12.381311342961201"><ele>162.25</ele><time>2026-04-29T17:42:21Z</time></trkpt><trkpt lat="42.00381975614587" lon="12.381435716240638"><ele>162.0</ele><time>2026-04-29T17:42:22Z</time></trkpt><trkpt lat="42.00373166870854" lon="12.381561123964044"><ele>161.6</ele><time>2026-04-29T17:42:23Z</time></trkpt><trkpt lat="42.00364613936141" lon="12.38168359773384"><ele>161.2</ele><time>2026-04-29T17:42:24Z</time></trkpt><trkpt lat="42.00356870053796" lon="12.381794785739263"><ele>160.8</ele><time>2026-04-29T17:42:25Z</time></trkpt><trkpt lat="42.00349858651326" lon="12.381894750457572"><ele>160.4</ele><time>2026-04-29T17:42:26Z</time></trkpt><trkpt lat="42.00343892815474" lon="12.381980915390912"><ele>160.0</ele><time>2026-04-29T17:42:27Z</time></trkpt><trkpt lat="42.003419450992276" lon="12.382095478445223"><ele>160.0</ele><time>2026-04-29T17:42:28Z</time></trkpt><trkpt lat="42.00336727242168" lon="12.382164550092043"><ele>160.0</ele><time>2026-04-29T17:42:29Z</time></trkpt><trkpt lat="42.0033106985268" lon="12.382239118810778"><ele>160.0</ele><time>2026-04-29T17:42:30Z</time></trkpt><trkpt lat="42.00325408342304" lon="12.38231899547506"><ele>160.0</ele><time>2026-04-29T17:42:31Z</time></trkpt><trkpt lat="42.00318507136883" lon="12.382417940532962"><ele>160.0</ele><time>2026-04-29T17:42:32Z</time></trkpt><trkpt lat="42.00310981105486" lon="12.382523822337735"><ele>160.0</ele><time>2026-04-29T17:42:33Z</time></trkpt><trkpt lat="42.003010904377945" lon="12.38257688610326"><ele>160.66666666666669</ele><time>2026-04-29T17:42:34Z</time></trkpt><trkpt lat="42.002951368441224" lon="12.38265969717466"><ele>161.33333333333334</ele><time>2026-04-29T17:42:35Z</time></trkpt><trkpt lat="42.002897978964306" lon="12.382733783008737"><ele>162.0</ele><time>2026-04-29T17:42:36Z</time></trkpt><trkpt lat="42.002848591231405" lon="12.382802273182733"><ele>162.66666666666666</ele><time>2026-04-29T17:42:37Z</time></trkpt><trkpt lat="42.002792036581354" lon="12.382881150631516"><ele>163.33333333333331</ele><time>2026-04-29T17:42:38Z</time></trkpt><trkpt lat="42.00273632194632" lon="12.38295880847553"><ele>164.0</ele><time>2026-04-29T17:42:39Z</time></trkpt><trkpt lat="42.00268810194579" lon="12.383026122119155"><ele>164.6</ele><time>2026-04-29T17:42:40Z</time></trkpt><trkpt lat="42.00263786347731" lon="12.383095344322884"><ele>165.2</ele><time>2026-04-29T17:42:41Z</time></trkpt><trkpt lat="42.00258045963283" lon="12.38317470413168"><ele>165.79999999999998</ele><time>2026-04-29T17:42:41.999Z</time></trkpt><trkpt lat="42.00251146379606" lon="12.383270089104261"><ele>166.39999999999998</ele><time>2026-04-29T17:42:42.999Z</time></trkpt><trkpt lat="42.00243075821236" lon="12.383383589152047"><ele>167.0</ele><time>2026-04-29T17:42:43.999Z</time></trkpt><trkpt lat="42.002342909807915" lon="12.383506562813022"><ele>166.75</ele><time>2026-04-29T17:42:44.999Z</time></trkpt><trkpt lat="42.00224933816939" lon="12.383637548104955"><ele>166.5</ele><time>2026-04-29T17:42:45.999Z</time></trkpt><trkpt lat="42.00215647278741" lon="12.38376751290323"><ele>166.25</ele><time>2026-04-29T17:42:46.999Z</time></trkpt><trkpt lat="42.00205873048685" lon="12.383903183219516"><ele>166.0</ele><time>2026-04-29T17:42:47.999Z</time></trkpt><trkpt lat="42.001956264217874" lon="12.384040440391372"><ele>166.0</ele><time>2026-04-29T17:42:48.999Z</time></trkpt><trkpt lat="42.00184589130795" lon="12.384178234515037"><ele>166.0</ele><time>2026-04-29T17:42:49.999Z</time></trkpt><trkpt lat="42.0017247717839" lon="12.384307878555886"><ele>166.0</ele><time>2026-04-29T17:42:50.999Z</time></trkpt><trkpt lat="42.00159880950928" lon="12.384447403548519"><ele>165.66666666666669</ele><time>2026-04-29T17:42:51.999Z</time></trkpt><trkpt lat="42.00145264065071" lon="12.384564154849283"><ele>165.33333333333334</ele><time>2026-04-29T17:42:52.999Z</time></trkpt><trkpt lat="42.00131093510845" lon="12.384679881058268"><ele>165.0</ele><time>2026-04-29T17:42:53.999Z</time></trkpt><trkpt lat="42.00115160010698" lon="12.384779231018637"><ele>162.66666666666666</ele><time>2026-04-29T17:42:54.999Z</time></trkpt><trkpt lat="42.000997349728465" lon="12.384897035522023"><ele>160.33333333333331</ele><time>2026-04-29T17:42:55.999Z</time></trkpt><trkpt lat="42.00084266543198" lon="12.385015023023685"><ele>158.0</ele><time>2026-04-29T17:42:56.999Z</time></trkpt><trkpt lat="42.000684472523744" lon="12.385138130582355"><ele>158.0</ele><time>2026-04-29T17:42:57.999Z</time></trkpt><trkpt lat="42.000520681003444" lon="12.385266151898625"><ele>158.0</ele><time>2026-04-29T17:42:58.999Z</time></trkpt><trkpt lat="42.00036022546518" lon="12.385391906506774"><ele>158.0</ele><time>2026-04-29T17:42:59.999Z</time></trkpt><trkpt lat="42.000210471918926" lon="12.385518425016189"><ele>155.66666666666666</ele><time>2026-04-29T17:43:00.999Z</time></trkpt><trkpt lat="42.00007086818735" lon="12.385653136661057"><ele>153.33333333333334</ele><time>2026-04-29T17:43:01.999Z</time></trkpt><trkpt lat="41.9999459877626" lon="12.385805365049476"><ele>151.0</ele><time>2026-04-29T17:43:02.999Z</time></trkpt><trkpt lat="41.99983680285956" lon="12.385975192362787"><ele>151.0</ele><time>2026-04-29T17:43:03.999Z</time></trkpt><trkpt lat="41.99974340860681" lon="12.386165292267066"><ele>151.0</ele><time>2026-04-29T17:43:04.999Z</time></trkpt><trkpt lat="41.99965365248726" lon="12.38635883201183"><ele>151.0</ele><time>2026-04-29T17:43:05.999Z</time></trkpt><trkpt lat="41.99956550406951" lon="12.3865584671825"><ele>152.33333333333334</ele><time>2026-04-29T17:43:06.999Z</time></trkpt><trkpt lat="41.999475914989965" lon="12.386757023934356"><ele>153.66666666666666</ele><time>2026-04-29T17:43:07.999Z</time></trkpt><trkpt lat="41.99938426026581" lon="12.386955861436691"><ele>155.0</ele><time>2026-04-29T17:43:08.999Z</time></trkpt><trkpt lat="41.999291473645215" lon="12.38714526681713"><ele>156.33333333333331</ele><time>2026-04-29T17:43:09.999Z</time></trkpt><trkpt lat="41.99918828038999" lon="12.387308050817001"><ele>157.66666666666666</ele><time>2026-04-29T17:43:10.999Z</time></trkpt><trkpt lat="41.999068801580286" lon="12.387455298086428"><ele>159.0</ele><time>2026-04-29T17:43:11.999Z</time></trkpt><trkpt lat="41.998935125009865" lon="12.387588389364728"><ele>159.0</ele><time>2026-04-29T17:43:12.999Z</time></trkpt><trkpt lat="41.99878526645647" lon="12.387727229939049"><ele>159.0</ele><time>2026-04-29T17:43:13.999Z</time></trkpt><trkpt lat="41.99862722799588" lon="12.387875354225525"><ele>159.0</ele><time>2026-04-29T17:43:14.999Z</time></trkpt><trkpt lat="41.998460253334024" lon="12.388031852830396"><ele>157.66666666666666</ele><time>2026-04-29T17:43:15.999Z</time></trkpt><trkpt lat="41.99828808350051" lon="12.388187280610222"><ele>156.33333333333331</ele><time>2026-04-29T17:43:16.999Z</time></trkpt><trkpt lat="41.99811514258566" lon="12.388345335337696"><ele>155.0</ele><time>2026-04-29T17:43:17.999Z</time></trkpt><trkpt lat="41.99793476011321" lon="12.388512680870686"><ele>155.0</ele><time>2026-04-29T17:43:18.999Z</time></trkpt><trkpt lat="41.99775192646225" lon="12.388685495773219"><ele>155.0</ele><time>2026-04-29T17:43:19.999Z</time></trkpt><trkpt lat="41.99757866354582" lon="12.388849548239385"><ele>155.0</ele><time>2026-04-29T17:43:20.999Z</time></trkpt><trkpt lat="41.99742101789663" lon="12.388999194794007"><ele>155.0</ele><time>2026-04-29T17:43:21.999Z</time></trkpt><trkpt lat="41.99726185388918" lon="12.38915251777633"><ele>155.0</ele><time>2026-04-29T17:43:22.999Z</time></trkpt><trkpt lat="41.99710372651605" lon="12.389306996686733"><ele>155.0</ele><time>2026-04-29T17:43:23.999Z</time></trkpt><trkpt lat="41.99695218123445" lon="12.38945814336404"><ele>155.0</ele><time>2026-04-29T17:43:24.999Z</time></trkpt><trkpt lat="41.996815491284174" lon="12.389605908681421"><ele>155.0</ele><time>2026-04-29T17:43:25.999Z</time></trkpt><trkpt lat="41.99670476231832" lon="12.389769694149738"><ele>155.0</ele><time>2026-04-29T17:43:27Z</time></trkpt><trkpt lat="41.99657997592963" lon="12.389878766467124"><ele>156.25</ele><time>2026-04-29T17:43:28Z</time></trkpt><trkpt lat="41.99645273404335" lon="12.389967180125927"><ele>157.5</ele><time>2026-04-29T17:43:29Z</time></trkpt><trkpt lat="41.99631391410825" lon="12.390028847321021"><ele>158.75</ele><time>2026-04-29T17:43:30Z</time></trkpt><trkpt lat="41.99617137420202" lon="12.390058348276037"><ele>160.0</ele><time>2026-04-29T17:43:31Z</time></trkpt><trkpt lat="41.99602448687918" lon="12.39007670068205"><ele>160.0</ele><time>2026-04-29T17:43:32Z</time></trkpt><trkpt lat="41.995883397949264" lon="12.390103472945768"><ele>160.0</ele><time>2026-04-29T17:43:33Z</time></trkpt><trkpt lat="41.995756520995855" lon="12.390147207854454"><ele>160.0</ele><time>2026-04-29T17:43:34Z</time></trkpt><trkpt lat="41.99564301657859" lon="12.39021119386426"><ele>160.0</ele><time>2026-04-29T17:43:35Z</time></trkpt><trkpt lat="41.99553264747023" lon="12.390303796651374"><ele>158.75</ele><time>2026-04-29T17:43:36Z</time></trkpt><trkpt lat="41.99543138684375" lon="12.390418894949262"><ele>157.5</ele><time>2026-04-29T17:43:37Z</time></trkpt><trkpt lat="41.995335454152105" lon="12.390556571469359"><ele>156.25</ele><time>2026-04-29T17:43:38Z</time></trkpt><trkpt lat="41.99523622047217" lon="12.390731580602006"><ele>155.0</ele><time>2026-04-29T17:43:39Z</time></trkpt><trkpt lat="41.99513197835688" lon="12.390912679063717"><ele>155.0</ele><time>2026-04-29T17:43:40Z</time></trkpt><trkpt lat="41.99501681257271" lon="12.391110091776214"><ele>155.0</ele><time>2026-04-29T17:43:41Z</time></trkpt><trkpt lat="41.99488731511572" lon="12.391323289750689"><ele>155.0</ele><time>2026-04-29T17:43:42Z</time></trkpt><trkpt lat="41.99475478795625" lon="12.391538878743013"><ele>153.66666666666666</ele><time>2026-04-29T17:43:43Z</time></trkpt><trkpt lat="41.99462696472167" lon="12.391737795306561"><ele>152.33333333333334</ele><time>2026-04-29T17:43:44Z</time></trkpt><trkpt lat="41.994501740976425" lon="12.391929813840058"><ele>151.0</ele><time>2026-04-29T17:43:45Z</time></trkpt><trkpt lat="41.99438367658618" lon="12.392115503179284"><ele>150.0</ele><time>2026-04-29T17:43:46Z</time></trkpt><trkpt lat="41.99424078305006" lon="12.392255262484419"><ele>149.0</ele><time>2026-04-29T17:43:47Z</time></trkpt><trkpt lat="41.99413288157802" lon="12.39242148888242"><ele>148.0</ele><time>2026-04-29T17:43:48Z</time></trkpt><trkpt lat="41.99403082043302" lon="12.392578344788527"><ele>147.75</ele><time>2026-04-29T17:43:49Z</time></trkpt><trkpt lat="41.99393282762127" lon="12.39272564130642"><ele>147.5</ele><time>2026-04-29T17:43:50Z</time></trkpt><trkpt lat="41.99383709382816" lon="12.392865318944464"><ele>147.25</ele><time>2026-04-29T17:43:51Z</time></trkpt><trkpt lat="41.993734000599474" lon="12.393013510262763"><ele>147.0</ele><time>2026-04-29T17:43:52Z</time></trkpt><trkpt lat="41.99362750087217" lon="12.393164543932393"><ele>145.0</ele><time>2026-04-29T17:43:53Z</time></trkpt><trkpt lat="41.99352234337849" lon="12.39331394377723"><ele>143.0</ele><time>2026-04-29T17:43:54Z</time></trkpt><trkpt lat="41.99341662276296" lon="12.393464113803109"><ele>141.0</ele><time>2026-04-29T17:43:55Z</time></trkpt><trkpt lat="41.99331089522734" lon="12.393614389852713"><ele>141.0</ele><time>2026-04-29T17:43:56Z</time></trkpt><trkpt lat="41.993209585086845" lon="12.393762464207235"><ele>141.0</ele><time>2026-04-29T17:43:57Z</time></trkpt><trkpt lat="41.99311556967204" lon="12.393899147346191"><ele>141.0</ele><time>2026-04-29T17:43:58Z</time></trkpt><trkpt lat="41.99302083272223" lon="12.394038019932966"><ele>141.0</ele><time>2026-04-29T17:43:59Z</time></trkpt><trkpt lat="41.99291768068406" lon="12.394190020363318"><ele>140.33333333333334</ele><time>2026-04-29T17:44:00Z</time></trkpt><trkpt lat="41.992807298240436" lon="12.394355479446638"><ele>139.66666666666669</ele><time>2026-04-29T17:44:01Z</time></trkpt><trkpt lat="41.99269273915539" lon="12.394533217523787"><ele>139.0</ele><time>2026-04-29T17:44:02Z</time></trkpt><trkpt lat="41.992581684778436" lon="12.39472057490096"><ele>141.66666666666669</ele><time>2026-04-29T17:44:03Z</time></trkpt><trkpt lat="41.99247619444984" lon="12.394901279856942"><ele>144.33333333333334</ele><time>2026-04-29T17:44:04Z</time></trkpt><trkpt lat="41.992380526680236" lon="12.395059222690094"><ele>147.0</ele><time>2026-04-29T17:44:05Z</time></trkpt><trkpt lat="41.99229334220868" lon="12.395201074397495"><ele>147.0</ele><time>2026-04-29T17:44:06Z</time></trkpt><trkpt lat="41.99220083195093" lon="12.395351525286083"><ele>147.0</ele><time>2026-04-29T17:44:07Z</time></trkpt><trkpt lat="41.99210620598533" lon="12.395503304211237"><ele>147.0</ele><time>2026-04-29T17:44:08Z</time></trkpt><trkpt lat="41.99201079788707" lon="12.395653174827142"><ele>147.0</ele><time>2026-04-29T17:44:09Z</time></trkpt><trkpt lat="41.99192045919447" lon="12.395793081284994"><ele>147.25</ele><time>2026-04-29T17:44:10Z</time></trkpt><trkpt lat="41.99182675431766" lon="12.395939741949483"><ele>147.5</ele><time>2026-04-29T17:44:11Z</time></trkpt><trkpt lat="41.99173078921936" lon="12.39609399458934"><ele>147.75</ele><time>2026-04-29T17:44:12Z</time></trkpt><trkpt lat="41.991635654412214" lon="12.396251471872276"><ele>148.0</ele><time>2026-04-29T17:44:13Z</time></trkpt><trkpt lat="41.99157687362055" lon="12.396440489686247"><ele>147.0</ele><time>2026-04-29T17:44:14Z</time></trkpt><trkpt lat="41.99148795044179" lon="12.396583701864001"><ele>146.0</ele><time>2026-04-29T17:44:15Z</time></trkpt><trkpt lat="41.99140526140206" lon="12.39671839501372"><ele>145.0</ele><time>2026-04-29T17:44:16Z</time></trkpt><trkpt lat="41.99132965630751" lon="12.396841821880939"><ele>144.0</ele><time>2026-04-29T17:44:17Z</time></trkpt><trkpt lat="41.99122830350148" lon="12.396929463025002"><ele>144.0</ele><time>2026-04-29T17:44:18Z</time></trkpt><trkpt lat="41.99116056805799" lon="12.3970421092157"><ele>144.0</ele><time>2026-04-29T17:44:19Z</time></trkpt><trkpt lat="41.99109419812865" lon="12.397151856354329"><ele>144.0</ele><time>2026-04-29T17:44:20Z</time></trkpt><trkpt lat="41.991028558240195" lon="12.397262340259228"><ele>144.0</ele><time>2026-04-29T17:44:21Z</time></trkpt><trkpt lat="41.99095928570911" lon="12.397377901427655"><ele>144.0</ele><time>2026-04-29T17:44:22Z</time></trkpt><trkpt lat="41.99087822792566" lon="12.397513121270084"><ele>143.75</ele><time>2026-04-29T17:44:23Z</time></trkpt><trkpt lat="41.990788707092925" lon="12.397660015947327"><ele>143.5</ele><time>2026-04-29T17:44:24Z</time></trkpt><trkpt lat="41.990691320890825" lon="12.397815099528609"><ele>143.25</ele><time>2026-04-29T17:44:25Z</time></trkpt><trkpt lat="41.99059323056072" lon="12.397964730644844"><ele>143.0</ele><time>2026-04-29T17:44:26Z</time></trkpt><trkpt lat="41.99048745344585" lon="12.398119694800164"><ele>145.0</ele><time>2026-04-29T17:44:27Z</time></trkpt><trkpt lat="41.99037776495516" lon="12.39826857331972"><ele>147.0</ele><time>2026-04-29T17:44:28Z</time></trkpt><trkpt lat="41.99027157632139" lon="12.398400111010439"><ele>149.0</ele><time>2026-04-29T17:44:29Z</time></trkpt><trkpt lat="41.99017275171311" lon="12.398520272267792"><ele>151.0</ele><time>2026-04-29T17:44:30Z</time></trkpt><trkpt lat="41.990076486886196" lon="12.398634527541088"><ele>150.5</ele><time>2026-04-29T17:44:31Z</time></trkpt><trkpt lat="41.989982746732146" lon="12.398745321012148"><ele>150.0</ele><time>2026-04-29T17:44:32Z</time></trkpt><trkpt lat="41.98988929310997" lon="12.398855538637926"><ele>149.5</ele><time>2026-04-29T17:44:33Z</time></trkpt><trkpt lat="41.98980268888659" lon="12.398957678251907"><ele>149.0</ele><time>2026-04-29T17:44:34Z</time></trkpt><trkpt lat="41.9897203638794" lon="12.39905477105033"><ele>149.0</ele><time>2026-04-29T17:44:35Z</time></trkpt><trkpt lat="41.989643147621116" lon="12.39914582492621"><ele>149.0</ele><time>2026-04-29T17:44:36Z</time></trkpt><trkpt lat="41.98957203139729" lon="12.399229532430807"><ele>149.0</ele><time>2026-04-29T17:44:37Z</time></trkpt><trkpt lat="41.98950645620566" lon="12.399306717810193"><ele>149.0</ele><time>2026-04-29T17:44:38Z</time></trkpt><trkpt lat="41.989443623254765" lon="12.399380675408457"><ele>149.0</ele><time>2026-04-29T17:44:39Z</time></trkpt><trkpt lat="41.98938410839799" lon="12.399450774995193"><ele>149.0</ele><time>2026-04-29T17:44:40Z</time></trkpt><trkpt lat="41.98932527605138" lon="12.399521742106923"><ele>149.0</ele><time>2026-04-29T17:44:41Z</time></trkpt><trkpt lat="41.98926764618901" lon="12.399591258699362"><ele>149.0</ele><time>2026-04-29T17:44:42Z</time></trkpt><trkpt lat="41.989212412735405" lon="12.399659962148261"><ele>149.0</ele><time>2026-04-29T17:44:42.999Z</time></trkpt><trkpt lat="41.989155513776794" lon="12.399731032447967"><ele>149.0</ele><time>2026-04-29T17:44:43.999Z</time></trkpt><trkpt lat="41.98909731650613" lon="12.399803724486937"><ele>149.0</ele><time>2026-04-29T17:44:44.999Z</time></trkpt><trkpt lat="41.98903759150182" lon="12.399878324639005"><ele>149.0</ele><time>2026-04-29T17:44:45.999Z</time></trkpt><trkpt lat="41.98897717789547" lon="12.399953784927932"><ele>148.0</ele><time>2026-04-29T17:44:46.999Z</time></trkpt><trkpt lat="41.9889273020261" lon="12.400015311852119"><ele>147.0</ele><time>2026-04-29T17:44:47.999Z</time></trkpt><trkpt lat="41.98887699698524" lon="12.40007718782233"><ele>146.0</ele><time>2026-04-29T17:44:48.999Z</time></trkpt><trkpt lat="41.988817507204864" lon="12.400150361205442"><ele>145.0</ele><time>2026-04-29T17:44:49.999Z</time></trkpt><trkpt lat="41.98874769465197" lon="12.400236231714157"><ele>144.0</ele><time>2026-04-29T17:44:50.999Z</time></trkpt><trkpt lat="41.98866895110652" lon="12.400333086857179"><ele>143.0</ele><time>2026-04-29T17:44:51.999Z</time></trkpt><trkpt lat="41.98858395385046" lon="12.400434678013815"><ele>143.25</ele><time>2026-04-29T17:44:52.999Z</time></trkpt><trkpt lat="41.98849415356621" lon="12.40054307086015"><ele>143.5</ele><time>2026-04-29T17:44:53.999Z</time></trkpt><trkpt lat="41.98839814587077" lon="12.40065895585076"><ele>143.75</ele><time>2026-04-29T17:44:54.999Z</time></trkpt><trkpt lat="41.988332306111296" lon="12.400818054252401"><ele>144.0</ele><time>2026-04-29T17:44:55.999Z</time></trkpt><trkpt lat="41.98823710296695" lon="12.400933142875472"><ele>143.25</ele><time>2026-04-29T17:44:56.999Z</time></trkpt><trkpt lat="41.98813433398446" lon="12.401054288572933"><ele>142.5</ele><time>2026-04-29T17:44:57.999Z</time></trkpt><trkpt lat="41.988028313147744" lon="12.401179018756476"><ele>141.75</ele><time>2026-04-29T17:44:58.999Z</time></trkpt><trkpt lat="41.98788649220471" lon="12.401257221866075"><ele>141.0</ele><time>2026-04-29T17:44:59.999Z</time></trkpt><trkpt lat="41.98777141407959" lon="12.401382099813631"><ele>141.0</ele><time>2026-04-29T17:45:00.999Z</time></trkpt><trkpt lat="41.98765298877579" lon="12.401509197756559"><ele>141.0</ele><time>2026-04-29T17:45:01.999Z</time></trkpt><trkpt lat="41.98753207641949" lon="12.401636613446218"><ele>141.0</ele><time>2026-04-29T17:45:02.999Z</time></trkpt><trkpt lat="41.987413434647564" lon="12.401761232376623"><ele>141.0</ele><time>2026-04-29T17:45:03.999Z</time></trkpt><trkpt lat="41.9873070892653" lon="12.40187367827959"><ele>141.0</ele><time>2026-04-29T17:45:04.999Z</time></trkpt><trkpt lat="41.987206327523815" lon="12.401980220210278"><ele>141.0</ele><time>2026-04-29T17:45:05.999Z</time></trkpt><trkpt lat="41.98709898086061" lon="12.402105908729734"><ele>141.0</ele><time>2026-04-29T17:45:06.999Z</time></trkpt><trkpt lat="41.98698475888275" lon="12.402267537647894"><ele>141.25</ele><time>2026-04-29T17:45:07.999Z</time></trkpt><trkpt lat="41.98688744486906" lon="12.402422115632879"><ele>141.5</ele><time>2026-04-29T17:45:08.999Z</time></trkpt><trkpt lat="41.986804237675315" lon="12.402565433636893"><ele>141.75</ele><time>2026-04-29T17:45:09.999Z</time></trkpt><trkpt lat="41.98672930983539" lon="12.402704520432039"><ele>142.0</ele><time>2026-04-29T17:45:10.999Z</time></trkpt><trkpt lat="41.98665659035372" lon="12.402853768699837"><ele>143.25</ele><time>2026-04-29T17:45:11.999Z</time></trkpt><trkpt lat="41.986583883577794" lon="12.4030183488937"><ele>144.5</ele><time>2026-04-29T17:45:12.999Z</time></trkpt><trkpt lat="41.98651379003669" lon="12.403184873666302"><ele>145.75</ele><time>2026-04-29T17:45:13.999Z</time></trkpt><trkpt lat="41.9864522093152" lon="12.40333485733351"><ele>147.0</ele><time>2026-04-29T17:45:14.999Z</time></trkpt><trkpt lat="41.986398062827064" lon="12.403475383319229"><ele>147.0</ele><time>2026-04-29T17:45:15.999Z</time></trkpt><trkpt lat="41.986348371806145" lon="12.403605582599914"><ele>147.0</ele><time>2026-04-29T17:45:16.999Z</time></trkpt><trkpt lat="41.986301864225474" lon="12.403725357939166"><ele>147.0</ele><time>2026-04-29T17:45:17.999Z</time></trkpt><trkpt lat="41.98625943171293" lon="12.403834638033828"><ele>147.0</ele><time>2026-04-29T17:45:18.999Z</time></trkpt><trkpt lat="41.98622099710836" lon="12.403931561209014"><ele>147.0</ele><time>2026-04-29T17:45:19.999Z</time></trkpt><trkpt lat="41.98617865928026" lon="12.404023567454555"><ele>147.5</ele><time>2026-04-29T17:45:20.999Z</time></trkpt><trkpt lat="41.98612940460581" lon="12.40412656299818"><ele>148.0</ele><time>2026-04-29T17:45:21.999Z</time></trkpt><trkpt lat="41.98608054861973" lon="12.40422911035851"><ele>148.5</ele><time>2026-04-29T17:45:22.999Z</time></trkpt><trkpt lat="41.98602336874548" lon="12.404294384142153"><ele>149.0</ele><time>2026-04-29T17:45:23.999Z</time></trkpt><trkpt lat="41.98595546081049" lon="12.40434602199626"><ele>149.5</ele><time>2026-04-29T17:45:24.999Z</time></trkpt><trkpt lat="41.98590409495205" lon="12.404398045425348"><ele>150.0</ele><time>2026-04-29T17:45:25.999Z</time></trkpt><trkpt lat="41.985862396834804" lon="12.404474286794011"><ele>150.0</ele><time>2026-04-29T17:45:26.999Z</time></trkpt><trkpt lat="41.985779811939494" lon="12.404555728343901"><ele>150.0</ele><time>2026-04-29T17:45:27.999Z</time></trkpt><trkpt lat="41.98571496239409" lon="12.404689357995212"><ele>150.0</ele><time>2026-04-29T17:45:28.999Z</time></trkpt><trkpt lat="41.9856601132313" lon="12.404825947202971"><ele>150.0</ele><time>2026-04-29T17:45:29.999Z</time></trkpt><trkpt lat="41.985610219539225" lon="12.404941153827226"><ele>150.0</ele><time>2026-04-29T17:45:30.999Z</time></trkpt><trkpt lat="41.985617500296996" lon="12.405073610490428"><ele>150.0</ele><time>2026-04-29T17:45:31.999Z</time></trkpt><trkpt lat="41.985625970837155" lon="12.405195414401566"><ele>150.0</ele><time>2026-04-29T17:45:33Z</time></trkpt><trkpt lat="41.98564692602206" lon="12.405319637413603"><ele>150.0</ele><time>2026-04-29T17:45:34Z</time></trkpt><trkpt lat="41.9856485236369" lon="12.405449717126583"><ele>150.0</ele><time>2026-04-29T17:45:35Z</time></trkpt><trkpt lat="41.985622955612676" lon="12.405572051629488"><ele>150.0</ele><time>2026-04-29T17:45:36Z</time></trkpt><trkpt lat="41.98555803125247" lon="12.405687565552993"><ele>149.8</ele><time>2026-04-29T17:45:37Z</time></trkpt><trkpt lat="41.98550137896911" lon="12.40583543915631"><ele>149.6</ele><time>2026-04-29T17:45:38Z</time></trkpt><trkpt lat="41.985446538933246" lon="12.405970257560803"><ele>149.4</ele><time>2026-04-29T17:45:39Z</time></trkpt><trkpt lat="41.985394243188125" lon="12.40609531990002"><ele>149.2</ele><time>2026-04-29T17:45:40Z</time></trkpt><trkpt lat="41.98534593703818" lon="12.406208304278463"><ele>149.0</ele><time>2026-04-29T17:45:41Z</time></trkpt><trkpt lat="41.98528448768145" lon="12.406343766890991"><ele>149.0</ele><time>2026-04-29T17:45:42Z</time></trkpt><trkpt lat="41.98521134341026" lon="12.406506162730551"><ele>149.0</ele><time>2026-04-29T17:45:43Z</time></trkpt><trkpt lat="41.985149882187436" lon="12.406660151425319"><ele>149.0</ele><time>2026-04-29T17:45:44Z</time></trkpt><trkpt lat="41.985074739004126" lon="12.406777336587558"><ele>149.0</ele><time>2026-04-29T17:45:45Z</time></trkpt><trkpt lat="41.98500154480883" lon="12.406870387726471"><ele>148.5</ele><time>2026-04-29T17:45:46Z</time></trkpt><trkpt lat="41.98490530078097" lon="12.406938764188322"><ele>148.0</ele><time>2026-04-29T17:45:47Z</time></trkpt><trkpt lat="41.984799109891334" lon="12.406983494451213"><ele>147.5</ele><time>2026-04-29T17:45:48Z</time></trkpt><trkpt lat="41.98467392788451" lon="12.40704089454935"><ele>147.0</ele><time>2026-04-29T17:45:49Z</time></trkpt><trkpt lat="41.9845387180307" lon="12.40707311999702"><ele>147.0</ele><time>2026-04-29T17:45:50Z</time></trkpt><trkpt lat="41.984398214672844" lon="12.407113740523641"><ele>147.0</ele><time>2026-04-29T17:45:51Z</time></trkpt><trkpt lat="41.98426524486393" lon="12.407154697234743"><ele>147.0</ele><time>2026-04-29T17:45:52Z</time></trkpt><trkpt lat="41.98412333650535" lon="12.40719769901679"><ele>147.0</ele><time>2026-04-29T17:45:53Z</time></trkpt><trkpt lat="41.98398017007089" lon="12.407245610055865"><ele>146.5</ele><time>2026-04-29T17:45:54Z</time></trkpt><trkpt lat="41.98383762368633" lon="12.407303182915648"><ele>146.0</ele><time>2026-04-29T17:45:55Z</time></trkpt><trkpt lat="41.983705756355754" lon="12.407348345870991"><ele>145.5</ele><time>2026-04-29T17:45:56Z</time></trkpt><trkpt lat="41.98357983672659" lon="12.407375138921168"><ele>145.0</ele><time>2026-04-29T17:45:57Z</time></trkpt><trkpt lat="41.98346409168369" lon="12.40740412663493"><ele>145.0</ele><time>2026-04-29T17:45:58Z</time></trkpt><trkpt lat="41.98336119267405" lon="12.40742693525293"><ele>145.0</ele><time>2026-04-29T17:45:59Z</time></trkpt><trkpt lat="41.98326504490069" lon="12.407456059841708"><ele>145.0</ele><time>2026-04-29T17:46:00Z</time></trkpt><trkpt lat="41.98317030693789" lon="12.407483063814324"><ele>145.0</ele><time>2026-04-29T17:46:01Z</time></trkpt><trkpt lat="41.98306840103246" lon="12.407517743456143"><ele>145.0</ele><time>2026-04-29T17:46:02Z</time></trkpt><trkpt lat="41.98296598155752" lon="12.407557479109323"><ele>144.2</ele><time>2026-04-29T17:46:03Z</time></trkpt><trkpt lat="41.98286307769698" lon="12.407588703329724"><ele>143.4</ele><time>2026-04-29T17:46:04Z</time></trkpt><trkpt lat="41.98276928441029" lon="12.407620094322366"><ele>142.6</ele><time>2026-04-29T17:46:05Z</time></trkpt><trkpt lat="41.98268044768179" lon="12.40764865156146"><ele>141.8</ele><time>2026-04-29T17:46:06Z</time></trkpt><trkpt lat="41.98259579593049" lon="12.407676044636528"><ele>141.0</ele><time>2026-04-29T17:46:07Z</time></trkpt><trkpt lat="41.982510714639034" lon="12.40770266942386"><ele>140.5</ele><time>2026-04-29T17:46:08Z</time></trkpt><trkpt lat="41.982446690262705" lon="12.407721686758423"><ele>140.0</ele><time>2026-04-29T17:46:09Z</time></trkpt><trkpt lat="41.98234721872373" lon="12.407740640050086"><ele>139.5</ele><time>2026-04-29T17:46:11Z</time></trkpt><trkpt lat="41.98227850961634" lon="12.407740155542042"><ele>139.0</ele><time>2026-04-29T17:46:12Z</time></trkpt><trkpt lat="41.98217041960818" lon="12.407747499468025"><ele>138.5</ele><time>2026-04-29T17:46:14Z</time></trkpt><trkpt lat="41.98207557748546" lon="12.407748236341735"><ele>138.0</ele><time>2026-04-29T17:46:16Z</time></trkpt><trkpt lat="41.98196962569365" lon="12.40768709111786"><ele>138.0</ele><time>2026-04-29T17:46:18Z</time></trkpt><trkpt lat="41.981925569181804" lon="12.407599571935956"><ele>138.0</ele><time>2026-04-29T17:46:19Z</time></trkpt><trkpt lat="41.98189486090227" lon="12.407502343719214"><ele>138.0</ele><time>2026-04-29T17:46:20Z</time></trkpt><trkpt lat="41.98181928635828" lon="12.40734454673988"><ele>138.0</ele><time>2026-04-29T17:46:22Z</time></trkpt><trkpt lat="41.981766211489436" lon="12.407259437640427"><ele>138.0</ele><time>2026-04-29T17:46:23Z</time></trkpt><trkpt lat="41.98169428142638" lon="12.407199554345064"><ele>137.6</ele><time>2026-04-29T17:46:24Z</time></trkpt><trkpt lat="41.981616919121045" lon="12.407175927556608"><ele>137.20000000000002</ele><time>2026-04-29T17:46:25Z</time></trkpt><trkpt lat="41.98153204971307" lon="12.407151681668369"><ele>136.8</ele><time>2026-04-29T17:46:26Z</time></trkpt><trkpt lat="41.981441851293766" lon="12.407205690640128"><ele>136.4</ele><time>2026-04-29T17:46:27Z</time></trkpt><trkpt lat="41.98135470895752" lon="12.40727896326291"><ele>136.0</ele><time>2026-04-29T17:46:28Z</time></trkpt><trkpt lat="41.98126468938163" lon="12.407361873481053"><ele>136.0</ele><time>2026-04-29T17:46:29Z</time></trkpt><trkpt lat="41.98117700834492" lon="12.407442287336771"><ele>136.0</ele><time>2026-04-29T17:46:30Z</time></trkpt><trkpt lat="41.98108379006069" lon="12.407516359434473"><ele>136.0</ele><time>2026-04-29T17:46:31Z</time></trkpt><trkpt lat="41.9809799550943" lon="12.407589790833445"><ele>136.0</ele><time>2026-04-29T17:46:32Z</time></trkpt><trkpt lat="41.9808648797688" lon="12.407652249415538"><ele>136.75</ele><time>2026-04-29T17:46:33Z</time></trkpt><trkpt lat="41.98074678504861" lon="12.407682687307522"><ele>137.5</ele><time>2026-04-29T17:46:34Z</time></trkpt><trkpt lat="41.9806195546089" lon="12.407696162033341"><ele>138.25</ele><time>2026-04-29T17:46:35Z</time></trkpt><trkpt lat="41.980474246372836" lon="12.407700061089178"><ele>139.0</ele><time>2026-04-29T17:46:36Z</time></trkpt><trkpt lat="41.98031460061447" lon="12.407697598295906"><ele>139.0</ele><time>2026-04-29T17:46:37Z</time></trkpt><trkpt lat="41.98013916786535" lon="12.40770949820194"><ele>139.0</ele><time>2026-04-29T17:46:38Z</time></trkpt><trkpt lat="41.979949761351016" lon="12.407696417618384"><ele>139.0</ele><time>2026-04-29T17:46:39Z</time></trkpt><trkpt lat="41.97974812819201" lon="12.407685801819525"><ele>139.0</ele><time>2026-04-29T17:46:40Z</time></trkpt><trkpt lat="41.979535332280335" lon="12.407679165922032"><ele>139.0</ele><time>2026-04-29T17:46:41Z</time></trkpt><trkpt lat="41.97931975449873" lon="12.407639804832304"><ele>139.0</ele><time>2026-04-29T17:46:42Z</time></trkpt><trkpt lat="41.97908854946295" lon="12.407625692333902"><ele>139.0</ele><time>2026-04-29T17:46:42.999Z</time></trkpt><trkpt lat="41.978849020206695" lon="12.407634577359882"><ele>139.0</ele><time>2026-04-29T17:46:43.999Z</time></trkpt><trkpt lat="41.97860242510191" lon="12.407615985366474"><ele>139.0</ele><time>2026-04-29T17:46:44.999Z</time></trkpt><trkpt lat="41.97835507168671" lon="12.40759800229144"><ele>139.0</ele><time>2026-04-29T17:46:45.999Z</time></trkpt><trkpt lat="41.97811250063421" lon="12.4075732524933"><ele>138.0</ele><time>2026-04-29T17:46:46.999Z</time></trkpt><trkpt lat="41.977878129112135" lon="12.407538300512185"><ele>137.0</ele><time>2026-04-29T17:46:47.999Z</time></trkpt><trkpt lat="41.977660821687834" lon="12.407492495392896"><ele>137.33333333333331</ele><time>2026-04-29T17:46:48.999Z</time></trkpt><trkpt lat="41.97744815261444" lon="12.407451485659726"><ele>137.66666666666666</ele><time>2026-04-29T17:46:49.999Z</time></trkpt><trkpt lat="41.97723023667703" lon="12.407426307463423"><ele>138.0</ele><time>2026-04-29T17:46:50.999Z</time></trkpt><trkpt lat="41.97701245331826" lon="12.40741333801064"><ele>138.0</ele><time>2026-04-29T17:46:51.999Z</time></trkpt><trkpt lat="41.97679860902698" lon="12.407410387609767"><ele>138.0</ele><time>2026-04-29T17:46:52.999Z</time></trkpt><trkpt lat="41.976573533097266" lon="12.407411877463625"><ele>138.0</ele><time>2026-04-29T17:46:53.999Z</time></trkpt><trkpt lat="41.976351583120724" lon="12.407421268526397"><ele>138.66666666666666</ele><time>2026-04-29T17:46:54.999Z</time></trkpt><trkpt lat="41.97612978326721" lon="12.40743719918456"><ele>139.33333333333331</ele><time>2026-04-29T17:46:55.999Z</time></trkpt><trkpt lat="41.97590786377251" lon="12.407455895470953"><ele>140.0</ele><time>2026-04-29T17:46:56.999Z</time></trkpt><trkpt lat="41.975682231303416" lon="12.407464605938173"><ele>140.0</ele><time>2026-04-29T17:46:57.999Z</time></trkpt><trkpt lat="41.97545607167425" lon="12.40746189577457"><ele>140.0</ele><time>2026-04-29T17:46:58.999Z</time></trkpt><trkpt lat="41.97523372690544" lon="12.407449883466686"><ele>140.0</ele><time>2026-04-29T17:46:59.999Z</time></trkpt><trkpt lat="41.97501454890395" lon="12.40743340185607"><ele>141.0</ele><time>2026-04-29T17:47:00.999Z</time></trkpt><trkpt lat="41.97480921680601" lon="12.407417953772898"><ele>142.0</ele><time>2026-04-29T17:47:01.999Z</time></trkpt><trkpt lat="41.97461462102951" lon="12.407406589428263"><ele>143.0</ele><time>2026-04-29T17:47:02.999Z</time></trkpt><trkpt lat="41.97442881490412" lon="12.40739919456415"><ele>143.0</ele><time>2026-04-29T17:47:03.999Z</time></trkpt><trkpt lat="41.97425274105795" lon="12.407392033008403"><ele>143.0</ele><time>2026-04-29T17:47:04.999Z</time></trkpt><trkpt lat="41.97408677866903" lon="12.407384829521256"><ele>143.0</ele><time>2026-04-29T17:47:05.999Z</time></trkpt><trkpt lat="41.973926334005455" lon="12.407382947216272"><ele>143.5</ele><time>2026-04-29T17:47:06.999Z</time></trkpt><trkpt lat="41.97377265179229" lon="12.407379603553647"><ele>144.0</ele><time>2026-04-29T17:47:07.999Z</time></trkpt><trkpt lat="41.973629688379646" lon="12.407361316325103"><ele>144.5</ele><time>2026-04-29T17:47:08.999Z</time></trkpt><trkpt lat="41.97349962180511" lon="12.407327900487235"><ele>145.0</ele><time>2026-04-29T17:47:09.999Z</time></trkpt><trkpt lat="41.97337812241432" lon="12.40730001258412"><ele>144.4</ele><time>2026-04-29T17:47:10.999Z</time></trkpt><trkpt lat="41.97327948470991" lon="12.407210394202107"><ele>143.8</ele><time>2026-04-29T17:47:11.999Z</time></trkpt><trkpt lat="41.97318227722012" lon="12.407130365560313"><ele>143.2</ele><time>2026-04-29T17:47:12.999Z</time></trkpt><trkpt lat="41.973085141399906" lon="12.407077662774187"><ele>142.6</ele><time>2026-04-29T17:47:13.999Z</time></trkpt><trkpt lat="41.97300395306405" lon="12.40699505481002"><ele>142.0</ele><time>2026-04-29T17:47:14.999Z</time></trkpt><trkpt lat="41.972920646328205" lon="12.406952657663304"><ele>141.5</ele><time>2026-04-29T17:47:15.999Z</time></trkpt><trkpt lat="41.97281193606129" lon="12.406964883195501"><ele>141.0</ele><time>2026-04-29T17:47:16.999Z</time></trkpt><trkpt lat="41.97268076427394" lon="12.407007875393727"><ele>140.5</ele><time>2026-04-29T17:47:17.999Z</time></trkpt><trkpt lat="41.972527883780685" lon="12.407033081505293"><ele>140.0</ele><time>2026-04-29T17:47:18.999Z</time></trkpt><trkpt lat="41.97237567424087" lon="12.40707730804207"><ele>141.0</ele><time>2026-04-29T17:47:19.999Z</time></trkpt><trkpt lat="41.972224914214685" lon="12.40714176330721"><ele>142.0</ele><time>2026-04-29T17:47:20.999Z</time></trkpt><trkpt lat="41.97207650848046" lon="12.407165754144867"><ele>143.0</ele><time>2026-04-29T17:47:21.999Z</time></trkpt><trkpt lat="41.97191458523355" lon="12.407177832857432"><ele>143.0</ele><time>2026-04-29T17:47:22.999Z</time></trkpt><trkpt lat="41.97174667908221" lon="12.407174549614565"><ele>143.0</ele><time>2026-04-29T17:47:23.999Z</time></trkpt><trkpt lat="41.97157816801311" lon="12.407159747809752"><ele>143.0</ele><time>2026-04-29T17:47:24.999Z</time></trkpt><trkpt lat="41.97140900955881" lon="12.40711897938367"><ele>137.66666666666666</ele><time>2026-04-29T17:47:25.999Z</time></trkpt><trkpt lat="41.97124766904471" lon="12.407122902572855"><ele>132.33333333333334</ele><time>2026-04-29T17:47:26.999Z</time></trkpt><trkpt lat="41.971101405267966" lon="12.407105986244918"><ele>127.0</ele><time>2026-04-29T17:47:27.999Z</time></trkpt><trkpt lat="41.97096083800643" lon="12.407082133879763"><ele>125.0</ele><time>2026-04-29T17:47:28.999Z</time></trkpt><trkpt lat="41.97083228836033" lon="12.407034643920364"><ele>123.0</ele><time>2026-04-29T17:47:29.999Z</time></trkpt><trkpt lat="41.9707060201511" lon="12.406959218235802"><ele>121.0</ele><time>2026-04-29T17:47:30.999Z</time></trkpt><trkpt lat="41.970577947381486" lon="12.406856509221361"><ele>119.0</ele><time>2026-04-29T17:47:31.999Z</time></trkpt><trkpt lat="41.97045470282424" lon="12.406734397468725"><ele>119.0</ele><time>2026-04-29T17:47:32.999Z</time></trkpt><trkpt lat="41.97033708997608" lon="12.406587975397269"><ele>119.0</ele><time>2026-04-29T17:47:33.999Z</time></trkpt><trkpt lat="41.97023007810756" lon="12.406424064426682"><ele>119.0</ele><time>2026-04-29T17:47:34.999Z</time></trkpt><trkpt lat="41.97012511421639" lon="12.40624160399277"><ele>119.0</ele><time>2026-04-29T17:47:35.999Z</time></trkpt><trkpt lat="41.9700224163073" lon="12.406042101606454"><ele>119.0</ele><time>2026-04-29T17:47:36.999Z</time></trkpt><trkpt lat="41.969922956933196" lon="12.40582755794021"><ele>119.0</ele><time>2026-04-29T17:47:37.999Z</time></trkpt><trkpt lat="41.96980684897405" lon="12.405617212920184"><ele>117.0</ele><time>2026-04-29T17:47:39Z</time></trkpt><trkpt lat="41.969705609905375" lon="12.405387861570995"><ele>115.0</ele><time>2026-04-29T17:47:40Z</time></trkpt><trkpt lat="41.969608095209985" lon="12.405162364536876"><ele>113.0</ele><time>2026-04-29T17:47:41Z</time></trkpt><trkpt lat="41.969519957357456" lon="12.404923145744158"><ele>113.0</ele><time>2026-04-29T17:47:42Z</time></trkpt><trkpt lat="41.969411564643224" lon="12.40469984116339"><ele>113.0</ele><time>2026-04-29T17:47:43Z</time></trkpt><trkpt lat="41.96929955885397" lon="12.404479655787206"><ele>113.0</ele><time>2026-04-29T17:47:44Z</time></trkpt><trkpt lat="41.969183104464214" lon="12.404260895467015"><ele>116.66666666666666</ele><time>2026-04-29T17:47:45Z</time></trkpt><trkpt lat="41.96906046304193" lon="12.404045698956981"><ele>120.33333333333334</ele><time>2026-04-29T17:47:46Z</time></trkpt><trkpt lat="41.96893185335511" lon="12.403826581306475"><ele>124.0</ele><time>2026-04-29T17:47:47Z</time></trkpt><trkpt lat="41.96879503234243" lon="12.403601066615446"><ele>126.0</ele><time>2026-04-29T17:47:48Z</time></trkpt><trkpt lat="41.96865645326344" lon="12.403379213396244"><ele>128.0</ele><time>2026-04-29T17:47:49Z</time></trkpt><trkpt lat="41.968514797365074" lon="12.403159295502727"><ele>130.0</ele><time>2026-04-29T17:47:50Z</time></trkpt><trkpt lat="41.9683697767896" lon="12.402936590188547"><ele>131.66666666666669</ele><time>2026-04-29T17:47:51Z</time></trkpt><trkpt lat="41.96821877835305" lon="12.402715657978673"><ele>133.33333333333334</ele><time>2026-04-29T17:47:52Z</time></trkpt><trkpt lat="41.96806542253718" lon="12.402493056243143"><ele>135.0</ele><time>2026-04-29T17:47:53Z</time></trkpt><trkpt lat="41.96791210954594" lon="12.402263586450832"><ele>132.0</ele><time>2026-04-29T17:47:54Z</time></trkpt><trkpt lat="41.96775834391439" lon="12.402027500157232"><ele>129.0</ele><time>2026-04-29T17:47:55Z</time></trkpt><trkpt lat="41.96760188597487" lon="12.401789152473302"><ele>128.33333333333334</ele><time>2026-04-29T17:47:56Z</time></trkpt><trkpt lat="41.96744540013991" lon="12.401552557334822"><ele>127.66666666666667</ele><time>2026-04-29T17:47:57Z</time></trkpt><trkpt lat="41.96730426460188" lon="12.401337066137753"><ele>127.0</ele><time>2026-04-29T17:47:58Z</time></trkpt><trkpt lat="41.96713702402298" lon="12.401093607448077"><ele>127.0</ele><time>2026-04-29T17:47:59Z</time></trkpt><trkpt lat="41.96698321036076" lon="12.400861243662273"><ele>127.0</ele><time>2026-04-29T17:48:00Z</time></trkpt><trkpt lat="41.966830023601865" lon="12.400628551873584"><ele>129.0</ele><time>2026-04-29T17:48:01Z</time></trkpt><trkpt lat="41.966664958103806" lon="12.400378780290643"><ele>131.0</ele><time>2026-04-29T17:48:02Z</time></trkpt><trkpt lat="41.96649553218185" lon="12.400118536015025"><ele>131.0</ele><time>2026-04-29T17:48:03Z</time></trkpt><trkpt lat="41.96632239658566" lon="12.399849101156436"><ele>131.0</ele><time>2026-04-29T17:48:04Z</time></trkpt><trkpt lat="41.96614210466293" lon="12.399573109581778"><ele>131.5</ele><time>2026-04-29T17:48:05Z</time></trkpt><trkpt lat="41.96596114271395" lon="12.399288586655345"><ele>132.0</ele><time>2026-04-29T17:48:06Z</time></trkpt><trkpt lat="41.9657841283998" lon="12.399001440030752"><ele>131.5</ele><time>2026-04-29T17:48:07Z</time></trkpt><trkpt lat="41.96560245648665" lon="12.398707649802517"><ele>131.0</ele><time>2026-04-29T17:48:08Z</time></trkpt><trkpt lat="41.96541877670869" lon="12.398409030724913"><ele>131.0</ele><time>2026-04-29T17:48:09Z</time></trkpt><trkpt lat="41.96523220761336" lon="12.398107638037757"><ele>131.0</ele><time>2026-04-29T17:48:10Z</time></trkpt><trkpt lat="41.965042749179844" lon="12.397803064467517"><ele>130.0</ele><time>2026-04-29T17:48:11Z</time></trkpt><trkpt lat="41.96484928271911" lon="12.397493524032942"><ele>129.0</ele><time>2026-04-29T17:48:12Z</time></trkpt><trkpt lat="41.96465376821228" lon="12.397179304401114"><ele>126.5</ele><time>2026-04-29T17:48:13Z</time></trkpt><trkpt lat="41.96445848121656" lon="12.39686140543107"><ele>124.0</ele><time>2026-04-29T17:48:14Z</time></trkpt><trkpt lat="41.964261342517005" lon="12.396542554487594"><ele>123.5</ele><time>2026-04-29T17:48:15Z</time></trkpt><trkpt lat="41.96407203144677" lon="12.396222394616"><ele>123.0</ele><time>2026-04-29T17:48:16Z</time></trkpt><trkpt lat="41.963883020460216" lon="12.395903453033505"><ele>123.0</ele><time>2026-04-29T17:48:17Z</time></trkpt><trkpt lat="41.963697677208025" lon="12.395581973489179"><ele>123.0</ele><time>2026-04-29T17:48:18Z</time></trkpt><trkpt lat="41.96352168377959" lon="12.395277855018378"><ele>121.5</ele><time>2026-04-29T17:48:19Z</time></trkpt><trkpt lat="41.963341896719335" lon="12.394977350641646"><ele>120.0</ele><time>2026-04-29T17:48:20Z</time></trkpt><trkpt lat="41.9631605831336" lon="12.394676766150253"><ele>115.0</ele><time>2026-04-29T17:48:21Z</time></trkpt><trkpt lat="41.962974480814346" lon="12.394376659953744"><ele>110.0</ele><time>2026-04-29T17:48:22Z</time></trkpt><trkpt lat="41.96278648693063" lon="12.394072644156857"><ele>108.0</ele><time>2026-04-29T17:48:23Z</time></trkpt><trkpt lat="41.962597603293176" lon="12.393760925830524"><ele>106.0</ele><time>2026-04-29T17:48:24Z</time></trkpt><trkpt lat="41.96240589836161" lon="12.393445148642034"><ele>111.5</ele><time>2026-04-29T17:48:25Z</time></trkpt><trkpt lat="41.96221204137763" lon="12.393129056582737"><ele>117.0</ele><time>2026-04-29T17:48:26Z</time></trkpt><trkpt lat="41.962025414393814" lon="12.392826251651307"><ele>118.0</ele><time>2026-04-29T17:48:27Z</time></trkpt><trkpt lat="41.961841083935134" lon="12.392527551477487"><ele>119.0</ele><time>2026-04-29T17:48:28Z</time></trkpt><trkpt lat="41.96165644914775" lon="12.39222899061975"><ele>118.0</ele><time>2026-04-29T17:48:29Z</time></trkpt><trkpt lat="41.96148126256412" lon="12.391948052667532"><ele>117.0</ele><time>2026-04-29T17:48:30Z</time></trkpt><trkpt lat="41.9613159180773" lon="12.391689628710738"><ele>117.0</ele><time>2026-04-29T17:48:31Z</time></trkpt><trkpt lat="41.96115410761025" lon="12.391441669545614"><ele>117.0</ele><time>2026-04-29T17:48:32Z</time></trkpt><trkpt lat="41.96098131866269" lon="12.391177345984708"><ele>117.5</ele><time>2026-04-29T17:48:33Z</time></trkpt><trkpt lat="41.96080712377463" lon="12.390902937809102"><ele>118.0</ele><time>2026-04-29T17:48:34Z</time></trkpt><trkpt lat="41.960632157008384" lon="12.390621385867197"><ele>116.5</ele><time>2026-04-29T17:48:35Z</time></trkpt><trkpt lat="41.96045601841077" lon="12.390334488794341"><ele>115.0</ele><time>2026-04-29T17:48:36Z</time></trkpt><trkpt lat="41.960274775640826" lon="12.390035746649813"><ele>115.0</ele><time>2026-04-29T17:48:37Z</time></trkpt><trkpt lat="41.96008886348344" lon="12.389730534433705"><ele>115.0</ele><time>2026-04-29T17:48:38Z</time></trkpt><trkpt lat="41.959899020978106" lon="12.389423071518571"><ele>113.0</ele><time>2026-04-29T17:48:39Z</time></trkpt><trkpt lat="41.95971041702262" lon="12.389115233322377"><ele>111.0</ele><time>2026-04-29T17:48:40Z</time></trkpt><trkpt lat="41.959517888929994" lon="12.388804156215715"><ele>110.5</ele><time>2026-04-29T17:48:41Z</time></trkpt><trkpt lat="41.95932190782031" lon="12.388489993746814"><ele>110.0</ele><time>2026-04-29T17:48:42Z</time></trkpt><trkpt lat="41.959124977072634" lon="12.388172499510373"><ele>109.5</ele><time>2026-04-29T17:48:43Z</time></trkpt><trkpt lat="41.9589283806417" lon="12.387856788172442"><ele>109.0</ele><time>2026-04-29T17:48:44Z</time></trkpt><trkpt lat="41.95873315180995" lon="12.38753831729904"><ele>109.0</ele><time>2026-04-29T17:48:45Z</time></trkpt><trkpt lat="41.95853829416575" lon="12.38722020756925"><ele>109.0</ele><time>2026-04-29T17:48:46Z</time></trkpt><trkpt lat="41.95834490977827" lon="12.386907201046817"><ele>109.5</ele><time>2026-04-29T17:48:47Z</time></trkpt><trkpt lat="41.95816143990325" lon="12.386618568828878"><ele>110.0</ele><time>2026-04-29T17:48:48Z</time></trkpt><trkpt lat="41.95797917610038" lon="12.386339814126504"><ele>110.0</ele><time>2026-04-29T17:48:48.999Z</time></trkpt><trkpt lat="41.95779621231624" lon="12.386071615512565"><ele>110.0</ele><time>2026-04-29T17:48:49.999Z</time></trkpt><trkpt lat="41.95760698034221" lon="12.385809653557978"><ele>110.5</ele><time>2026-04-29T17:48:50.999Z</time></trkpt><trkpt lat="41.95741475294549" lon="12.385561094614825"><ele>111.0</ele><time>2026-04-29T17:48:51.999Z</time></trkpt><trkpt lat="41.95721878964325" lon="12.38532498166962"><ele>111.0</ele><time>2026-04-29T17:48:52.999Z</time></trkpt><trkpt lat="41.957012188956256" lon="12.385100620782032"><ele>111.0</ele><time>2026-04-29T17:48:53.999Z</time></trkpt><trkpt lat="41.95679529990215" lon="12.384886290969975"><ele>110.5</ele><time>2026-04-29T17:48:54.999Z</time></trkpt><trkpt lat="41.95656909997906" lon="12.38467856753129"><ele>110.0</ele><time>2026-04-29T17:48:55.999Z</time></trkpt><trkpt lat="41.95633721694978" lon="12.3844822458865"><ele>110.0</ele><time>2026-04-29T17:48:56.999Z</time></trkpt><trkpt lat="41.95610126509131" lon="12.384301934210603"><ele>110.0</ele><time>2026-04-29T17:48:57.999Z</time></trkpt><trkpt lat="41.95585627911233" lon="12.384136633585612"><ele>109.0</ele><time>2026-04-29T17:48:58.999Z</time></trkpt><trkpt lat="41.95560329674256" lon="12.383982310796847"><ele>108.0</ele><time>2026-04-29T17:48:59.999Z</time></trkpt><trkpt lat="41.95534512188086" lon="12.38384330995598"><ele>108.0</ele><time>2026-04-29T17:49:00.999Z</time></trkpt><trkpt lat="41.95508033549635" lon="12.383716142318699"><ele>108.0</ele><time>2026-04-29T17:49:01.999Z</time></trkpt><trkpt lat="41.95481220629552" lon="12.383603259768332"><ele>106.0</ele><time>2026-04-29T17:49:02.999Z</time></trkpt><trkpt lat="41.95453675710531" lon="12.383507935693352"><ele>104.0</ele><time>2026-04-29T17:49:03.999Z</time></trkpt><trkpt lat="41.95425802308179" lon="12.383430689392908"><ele>104.5</ele><time>2026-04-29T17:49:04.999Z</time></trkpt><trkpt lat="41.95397205042567" lon="12.38336754651473"><ele>105.0</ele><time>2026-04-29T17:49:05.999Z</time></trkpt><trkpt lat="41.95367882286156" lon="12.383315251973258"><ele>105.0</ele><time>2026-04-29T17:49:06.999Z</time></trkpt><trkpt lat="41.95338023099324" lon="12.38326905887072"><ele>105.0</ele><time>2026-04-29T17:49:07.999Z</time></trkpt><trkpt lat="41.95307563446476" lon="12.383227990979238"><ele>104.0</ele><time>2026-04-29T17:49:08.999Z</time></trkpt><trkpt lat="41.95276719795023" lon="12.383187438523018"><ele>103.0</ele><time>2026-04-29T17:49:09.999Z</time></trkpt><trkpt lat="41.95245229725075" lon="12.383147415585182"><ele>101.0</ele><time>2026-04-29T17:49:10.999Z</time></trkpt><trkpt lat="41.95213541641374" lon="12.38310738294293"><ele>99.0</ele><time>2026-04-29T17:49:11.999Z</time></trkpt><trkpt lat="41.95181812483821" lon="12.383069544074083"><ele>100.5</ele><time>2026-04-29T17:49:12.999Z</time></trkpt><trkpt lat="41.951515976343224" lon="12.38303584959653"><ele>102.0</ele><time>2026-04-29T17:49:13.999Z</time></trkpt><trkpt lat="41.9512209661682" lon="12.383001502423767"><ele>102.5</ele><time>2026-04-29T17:49:14.999Z</time></trkpt><trkpt lat="41.950928537968075" lon="12.382967996570732"><ele>103.0</ele><time>2026-04-29T17:49:15.999Z</time></trkpt><trkpt lat="41.950632529083826" lon="12.382934661905011"><ele>103.0</ele><time>2026-04-29T17:49:16.999Z</time></trkpt><trkpt lat="41.950334889652595" lon="12.382900760230415"><ele>103.0</ele><time>2026-04-29T17:49:17.999Z</time></trkpt><trkpt lat="41.950036284004504" lon="12.382867091107741"><ele>101.5</ele><time>2026-04-29T17:49:18.999Z</time></trkpt><trkpt lat="41.94973486396449" lon="12.38283209302833"><ele>100.0</ele><time>2026-04-29T17:49:19.999Z</time></trkpt><trkpt lat="41.949430173677804" lon="12.382794673061237"><ele>99.0</ele><time>2026-04-29T17:49:20.999Z</time></trkpt><trkpt lat="41.94911979881892" lon="12.38275378245288"><ele>98.0</ele><time>2026-04-29T17:49:21.999Z</time></trkpt><trkpt lat="41.94880585513379" lon="12.38271391791215"><ele>98.0</ele><time>2026-04-29T17:49:22.999Z</time></trkpt><trkpt lat="41.9484898244869" lon="12.382674975819143"><ele>98.0</ele><time>2026-04-29T17:49:23.999Z</time></trkpt><trkpt lat="41.94817291944185" lon="12.382640454889323"><ele>98.5</ele><time>2026-04-29T17:49:24.999Z</time></trkpt><trkpt lat="41.947856268017325" lon="12.38260456187582"><ele>99.0</ele><time>2026-04-29T17:49:25.999Z</time></trkpt><trkpt lat="41.94753708640711" lon="12.382562032873425"><ele>99.5</ele><time>2026-04-29T17:49:26.999Z</time></trkpt><trkpt lat="41.9472153366022" lon="12.382518289351268"><ele>100.0</ele><time>2026-04-29T17:49:27.999Z</time></trkpt><trkpt lat="41.946890170133855" lon="12.382476426761029"><ele>100.0</ele><time>2026-04-29T17:49:28.999Z</time></trkpt><trkpt lat="41.946563566060945" lon="12.382435989943522"><ele>100.0</ele><time>2026-04-29T17:49:29.999Z</time></trkpt><trkpt lat="41.94623684067553" lon="12.382395986943848"><ele>100.0</ele><time>2026-04-29T17:49:30.999Z</time></trkpt><trkpt lat="41.94591332890629" lon="12.3823590839004"><ele>100.0</ele><time>2026-04-29T17:49:31.999Z</time></trkpt><trkpt lat="41.9455900828847" lon="12.382321739544741"><ele>100.0</ele><time>2026-04-29T17:49:32.999Z</time></trkpt><trkpt lat="41.94527008029475" lon="12.38228314532797"><ele>100.0</ele><time>2026-04-29T17:49:33.999Z</time></trkpt><trkpt lat="41.94495688584272" lon="12.382245598894672"><ele>100.5</ele><time>2026-04-29T17:49:34.999Z</time></trkpt><trkpt lat="41.94464879599536" lon="12.382213251416234"><ele>101.0</ele><time>2026-04-29T17:49:35.999Z</time></trkpt><trkpt lat="41.94434748565622" lon="12.382180159495052"><ele>100.0</ele><time>2026-04-29T17:49:36.999Z</time></trkpt><trkpt lat="41.944049463850064" lon="12.382149939934205"><ele>99.0</ele><time>2026-04-29T17:49:37.999Z</time></trkpt><trkpt lat="41.943752952484694" lon="12.382119429373223"><ele>99.0</ele><time>2026-04-29T17:49:38.999Z</time></trkpt><trkpt lat="41.94343509949308" lon="12.382087008473516"><ele>99.0</ele><time>2026-04-29T17:49:40.068Z</time></trkpt><trkpt lat="41.93651151432507" lon="12.381438312280464"><ele>90.5</ele><time>2026-04-29T17:50:00.999Z</time></trkpt><trkpt lat="41.936613961095354" lon="12.381216403314765"><ele>82.0</ele><time>2026-04-29T17:50:01.999Z</time></trkpt><trkpt lat="41.93626965258387" lon="12.38119833331221"><ele>82.0</ele><time>2026-04-29T17:50:02.999Z</time></trkpt><trkpt lat="41.935959552018666" lon="12.381169490097218"><ele>82.0</ele><time>2026-04-29T17:50:03.999Z</time></trkpt><trkpt lat="41.93564664873626" lon="12.381130990904081"><ele>81.0</ele><time>2026-04-29T17:50:04.999Z</time></trkpt><trkpt lat="41.93533413735639" lon="12.381097775698139"><ele>80.0</ele><time>2026-04-29T17:50:06Z</time></trkpt><trkpt lat="41.935024761173366" lon="12.38105482639536"><ele>78.0</ele><time>2026-04-29T17:50:07Z</time></trkpt><trkpt lat="41.93471305005498" lon="12.381013200980668"><ele>76.0</ele><time>2026-04-29T17:50:08Z</time></trkpt><trkpt lat="41.93440188723102" lon="12.380975686719248"><ele>73.0</ele><time>2026-04-29T17:50:09Z</time></trkpt><trkpt lat="41.93409064953591" lon="12.380937579485618"><ele>70.0</ele><time>2026-04-29T17:50:10Z</time></trkpt><trkpt lat="41.933784404236" lon="12.380895610664503"><ele>70.0</ele><time>2026-04-29T17:50:11Z</time></trkpt><trkpt lat="41.93347545388592" lon="12.380856333732146"><ele>70.0</ele><time>2026-04-29T17:50:12Z</time></trkpt><trkpt lat="41.9331657610867" lon="12.380820332505845"><ele>70.5</ele><time>2026-04-29T17:50:13Z</time></trkpt><trkpt lat="41.93286066844937" lon="12.380787957123733"><ele>71.0</ele><time>2026-04-29T17:50:14Z</time></trkpt><trkpt lat="41.932557525360316" lon="12.38076214256744"><ele>71.0</ele><time>2026-04-29T17:50:15Z</time></trkpt><trkpt lat="41.93225461046746" lon="12.380745905011933"><ele>71.0</ele><time>2026-04-29T17:50:16Z</time></trkpt><trkpt lat="41.93195427570158" lon="12.380736181966146"><ele>70.5</ele><time>2026-04-29T17:50:17Z</time></trkpt><trkpt lat="41.93165191635355" lon="12.380732359429473"><ele>70.0</ele><time>2026-04-29T17:50:18Z</time></trkpt><trkpt lat="41.9313502262223" lon="12.3807384030538"><ele>70.0</ele><time>2026-04-29T17:50:19Z</time></trkpt><trkpt lat="41.93104854743247" lon="12.380751801690003"><ele>70.0</ele><time>2026-04-29T17:50:20Z</time></trkpt><trkpt lat="41.930749912544066" lon="12.380774709872695"><ele>71.5</ele><time>2026-04-29T17:50:21Z</time></trkpt><trkpt lat="41.93045927875205" lon="12.380795862862717"><ele>73.0</ele><time>2026-04-29T17:50:22Z</time></trkpt><trkpt lat="41.93016651962732" lon="12.380820056796972"><ele>71.5</ele><time>2026-04-29T17:50:23Z</time></trkpt><trkpt lat="41.92987725494418" lon="12.38084235346072"><ele>70.0</ele><time>2026-04-29T17:50:24Z</time></trkpt><trkpt lat="41.92958874194978" lon="12.380867086618611"><ele>70.0</ele><time>2026-04-29T17:50:25Z</time></trkpt><trkpt lat="41.92930115845643" lon="12.380892926140373"><ele>70.0</ele><time>2026-04-29T17:50:26Z</time></trkpt><trkpt lat="41.92901470626781" lon="12.38091819196925"><ele>67.5</ele><time>2026-04-29T17:50:27Z</time></trkpt><trkpt lat="41.9287311737316" lon="12.380944231099747"><ele>65.0</ele><time>2026-04-29T17:50:28Z</time></trkpt><trkpt lat="41.92845348812451" lon="12.380969643405546"><ele>64.0</ele><time>2026-04-29T17:50:29Z</time></trkpt><trkpt lat="41.92817736072228" lon="12.380993234655676"><ele>63.0</ele><time>2026-04-29T17:50:30Z</time></trkpt><trkpt lat="41.92790043445709" lon="12.381018673451743"><ele>63.0</ele><time>2026-04-29T17:50:31Z</time></trkpt><trkpt lat="41.9276227483798" lon="12.381046759768417"><ele>63.0</ele><time>2026-04-29T17:50:32Z</time></trkpt><trkpt lat="41.92734326361231" lon="12.381072672566335"><ele>65.0</ele><time>2026-04-29T17:50:33Z</time></trkpt><trkpt lat="41.92706151246055" lon="12.381098079781731"><ele>67.0</ele><time>2026-04-29T17:50:34Z</time></trkpt><trkpt lat="41.926779698727046" lon="12.381123081869143"><ele>66.5</ele><time>2026-04-29T17:50:35Z</time></trkpt><trkpt lat="41.92650022100787" lon="12.381147280134064"><ele>66.0</ele><time>2026-04-29T17:50:36Z</time></trkpt><trkpt lat="41.92622030158323" lon="12.381170265476973"><ele>66.0</ele><time>2026-04-29T17:50:37Z</time></trkpt><trkpt lat="41.925940682625715" lon="12.381192444826901"><ele>66.0</ele><time>2026-04-29T17:50:38Z</time></trkpt><trkpt lat="41.92566026669321" lon="12.381214833893626"><ele>65.0</ele><time>2026-04-29T17:50:39Z</time></trkpt><trkpt lat="41.92538368810415" lon="12.381240446816086"><ele>64.0</ele><time>2026-04-29T17:50:40Z</time></trkpt><trkpt lat="41.925106293289325" lon="12.381267646142172"><ele>63.0</ele><time>2026-04-29T17:50:41Z</time></trkpt><trkpt lat="41.924832695947465" lon="12.381294293043387"><ele>62.0</ele><time>2026-04-29T17:50:42Z</time></trkpt><trkpt lat="41.92456196041659" lon="12.38132152279467"><ele>69.5</ele><time>2026-04-29T17:50:43Z</time></trkpt><trkpt lat="41.924292658603626" lon="12.381352707436958"><ele>77.0</ele><time>2026-04-29T17:50:44Z</time></trkpt><trkpt lat="41.9240300959842" lon="12.381390120813313"><ele>77.0</ele><time>2026-04-29T17:50:45Z</time></trkpt><trkpt lat="41.92377214158079" lon="12.381435325042418"><ele>77.0</ele><time>2026-04-29T17:50:46Z</time></trkpt><trkpt lat="41.923518984246044" lon="12.38149069549225"><ele>74.5</ele><time>2026-04-29T17:50:47Z</time></trkpt><trkpt lat="41.92327004999314" lon="12.381557328001277"><ele>72.0</ele><time>2026-04-29T17:50:48Z</time></trkpt><trkpt lat="41.92302571221578" lon="12.381628134133983"><ele>72.0</ele><time>2026-04-29T17:50:49Z</time></trkpt><trkpt lat="41.92278510701285" lon="12.381707721069159"><ele>72.0</ele><time>2026-04-29T17:50:50Z</time></trkpt><trkpt lat="41.9225474104036" lon="12.381797928722273"><ele>70.0</ele><time>2026-04-29T17:50:51Z</time></trkpt><trkpt lat="41.92231369210078" lon="12.381893697390318"><ele>68.0</ele><time>2026-04-29T17:50:52Z</time></trkpt><trkpt lat="41.92208234932601" lon="12.381995910386664"><ele>68.0</ele><time>2026-04-29T17:50:53Z</time></trkpt><trkpt lat="41.92185363545925" lon="12.38210517421821"><ele>68.0</ele><time>2026-04-29T17:50:54Z</time></trkpt><trkpt lat="41.92162826780918" lon="12.382221383281234"><ele>71.5</ele><time>2026-04-29T17:50:55Z</time></trkpt><trkpt lat="41.92140219685481" lon="12.382348599606932"><ele>75.0</ele><time>2026-04-29T17:50:56Z</time></trkpt><trkpt lat="41.921175671837204" lon="12.382479908523887"><ele>75.0</ele><time>2026-04-29T17:50:57Z</time></trkpt><trkpt lat="41.92094865483395" lon="12.382613565917985"><ele>75.0</ele><time>2026-04-29T17:50:58Z</time></trkpt><trkpt lat="41.92071988207952" lon="12.382749102769456"><ele>74.5</ele><time>2026-04-29T17:50:59Z</time></trkpt><trkpt lat="41.920487876301536" lon="12.38288831941018"><ele>74.0</ele><time>2026-04-29T17:51:00Z</time></trkpt><trkpt lat="41.92025431299765" lon="12.383028698180714"><ele>69.0</ele><time>2026-04-29T17:51:01Z</time></trkpt><trkpt lat="41.92001828470973" lon="12.383166909832983"><ele>64.0</ele><time>2026-04-29T17:51:02Z</time></trkpt><trkpt lat="41.919775995647505" lon="12.383298732067136"><ele>64.0</ele><time>2026-04-29T17:51:03Z</time></trkpt><trkpt lat="41.91952566636378" lon="12.383427977763906"><ele>64.0</ele><time>2026-04-29T17:51:04Z</time></trkpt><trkpt lat="41.919270556338475" lon="12.38355245081173"><ele>62.5</ele><time>2026-04-29T17:51:05Z</time></trkpt><trkpt lat="41.91901173446197" lon="12.383669663466849"><ele>61.0</ele><time>2026-04-29T17:51:06Z</time></trkpt><trkpt lat="41.91875181370875" lon="12.383775762971034"><ele>62.0</ele><time>2026-04-29T17:51:07Z</time></trkpt><trkpt lat="41.918491912332634" lon="12.383870686217053"><ele>63.0</ele><time>2026-04-29T17:51:08Z</time></trkpt><trkpt lat="41.918230890446374" lon="12.383954246472252"><ele>63.0</ele><time>2026-04-29T17:51:09Z</time></trkpt><trkpt lat="41.917969191236914" lon="12.384033594771397"><ele>63.0</ele><time>2026-04-29T17:51:10Z</time></trkpt><trkpt lat="41.91771565286523" lon="12.384108285283784"><ele>62.0</ele><time>2026-04-29T17:51:11Z</time></trkpt><trkpt lat="41.917464078113" lon="12.384174443031048"><ele>61.0</ele><time>2026-04-29T17:51:12Z</time></trkpt><trkpt lat="41.91720725655571" lon="12.384242900314494"><ele>61.0</ele><time>2026-04-29T17:51:13Z</time></trkpt><trkpt lat="41.91694946353032" lon="12.384311260252593"><ele>61.0</ele><time>2026-04-29T17:51:14Z</time></trkpt><trkpt lat="41.91670095333585" lon="12.384374749247515"><ele>60.5</ele><time>2026-04-29T17:51:15Z</time></trkpt><trkpt lat="41.91645954099587" lon="12.384434599854737"><ele>60.0</ele><time>2026-04-29T17:51:16Z</time></trkpt><trkpt lat="41.91621848851994" lon="12.384495837969753"><ele>60.0</ele><time>2026-04-29T17:51:17Z</time></trkpt><trkpt lat="41.91597750117916" lon="12.384558828091455"><ele>60.0</ele><time>2026-04-29T17:51:18Z</time></trkpt><trkpt lat="41.915735050952044" lon="12.384617494556853"><ele>58.0</ele><time>2026-04-29T17:51:19Z</time></trkpt><trkpt lat="41.91549479190165" lon="12.3846775790058"><ele>56.0</ele><time>2026-04-29T17:51:20Z</time></trkpt><trkpt lat="41.91525814397526" lon="12.384738920707825"><ele>57.0</ele><time>2026-04-29T17:51:20.999Z</time></trkpt><trkpt lat="41.91503218284446" lon="12.38479753622973"><ele>58.0</ele><time>2026-04-29T17:51:21.999Z</time></trkpt><trkpt lat="41.91481010874252" lon="12.384853360310096"><ele>58.0</ele><time>2026-04-29T17:51:22.999Z</time></trkpt><trkpt lat="41.914587346719976" lon="12.384907212552713"><ele>58.0</ele><time>2026-04-29T17:51:23.999Z</time></trkpt><trkpt lat="41.91436418268947" lon="12.384963048026172"><ele>57.0</ele><time>2026-04-29T17:51:24.999Z</time></trkpt><trkpt lat="41.91413659188989" lon="12.385018146636655"><ele>56.0</ele><time>2026-04-29T17:51:25.999Z</time></trkpt><trkpt lat="41.91390729850147" lon="12.385078099226352"><ele>56.0</ele><time>2026-04-29T17:51:26.999Z</time></trkpt><trkpt lat="41.91367434584162" lon="12.38513881288293"><ele>56.0</ele><time>2026-04-29T17:51:27.999Z</time></trkpt><trkpt lat="41.91343981613145" lon="12.385198600517699"><ele>57.0</ele><time>2026-04-29T17:51:28.999Z</time></trkpt><trkpt lat="41.913207031042184" lon="12.385252722644507"><ele>58.0</ele><time>2026-04-29T17:51:29.999Z</time></trkpt><trkpt lat="41.912972323528095" lon="12.385299166259268"><ele>58.0</ele><time>2026-04-29T17:51:30.999Z</time></trkpt><trkpt lat="41.91273573773392" lon="12.385335468756063"><ele>58.0</ele><time>2026-04-29T17:51:31.999Z</time></trkpt><trkpt lat="41.91249848654656" lon="12.385359975378094"><ele>56.5</ele><time>2026-04-29T17:51:32.999Z</time></trkpt><trkpt lat="41.912261512649685" lon="12.385369811082786"><ele>55.0</ele><time>2026-04-29T17:51:33.999Z</time></trkpt><trkpt lat="41.91202384275625" lon="12.385366867085246"><ele>55.0</ele><time>2026-04-29T17:51:34.999Z</time></trkpt><trkpt lat="41.91178533217442" lon="12.385350180233818"><ele>55.0</ele><time>2026-04-29T17:51:35.999Z</time></trkpt><trkpt lat="41.91154680165237" lon="12.3853229276526"><ele>52.0</ele><time>2026-04-29T17:51:36.999Z</time></trkpt><trkpt lat="41.91130721359789" lon="12.385289312287824"><ele>49.0</ele><time>2026-04-29T17:51:37.999Z</time></trkpt><trkpt lat="41.911067032540885" lon="12.385246703364418"><ele>49.0</ele><time>2026-04-29T17:51:38.999Z</time></trkpt><trkpt lat="41.91082485786735" lon="12.385199218448406"><ele>49.0</ele><time>2026-04-29T17:51:39.999Z</time></trkpt><trkpt lat="41.910579670187445" lon="12.385152082719525"><ele>49.0</ele><time>2026-04-29T17:51:40.999Z</time></trkpt><trkpt lat="41.91033334449701" lon="12.385105661894473"><ele>49.0</ele><time>2026-04-29T17:51:41.999Z</time></trkpt><trkpt lat="41.91008520862023" lon="12.385061854975184"><ele>52.0</ele><time>2026-04-29T17:51:42.999Z</time></trkpt><trkpt lat="41.909841229956704" lon="12.385018650772295"><ele>55.0</ele><time>2026-04-29T17:51:43.999Z</time></trkpt><trkpt lat="41.909600461874305" lon="12.384975877734144"><ele>55.0</ele><time>2026-04-29T17:51:44.999Z</time></trkpt><trkpt lat="41.90935921831467" lon="12.384930835011057"><ele>55.0</ele><time>2026-04-29T17:51:45.999Z</time></trkpt><trkpt lat="41.909118024818525" lon="12.384884971812983"><ele>55.0</ele><time>2026-04-29T17:51:46.999Z</time></trkpt><trkpt lat="41.90887920088729" lon="12.38483591874761"><ele>55.0</ele><time>2026-04-29T17:51:47.999Z</time></trkpt><trkpt lat="41.90864197601728" lon="12.384789254129153"><ele>56.0</ele><time>2026-04-29T17:51:48.999Z</time></trkpt><trkpt lat="41.90840516617445" lon="12.384746089309496"><ele>57.0</ele><time>2026-04-29T17:51:49.999Z</time></trkpt><trkpt lat="41.9081663567466" lon="12.38470236277536"><ele>53.0</ele><time>2026-04-29T17:51:50.999Z</time></trkpt><trkpt lat="41.90792590939722" lon="12.384654500169711"><ele>49.0</ele><time>2026-04-29T17:51:51.999Z</time></trkpt><trkpt lat="41.90768586791563" lon="12.384606529357976"><ele>49.5</ele><time>2026-04-29T17:51:52.999Z</time></trkpt><trkpt lat="41.90745238445739" lon="12.38456138257125"><ele>50.0</ele><time>2026-04-29T17:51:53.999Z</time></trkpt><trkpt lat="41.90722459091453" lon="12.384517967914306"><ele>50.0</ele><time>2026-04-29T17:51:54.999Z</time></trkpt><trkpt lat="41.906997535231305" lon="12.384472713322975"><ele>50.0</ele><time>2026-04-29T17:51:55.999Z</time></trkpt><trkpt lat="41.90677160255677" lon="12.38442426211705"><ele>50.5</ele><time>2026-04-29T17:51:56.999Z</time></trkpt><trkpt lat="41.906536249534724" lon="12.384369496801392"><ele>51.0</ele><time>2026-04-29T17:51:57.999Z</time></trkpt><trkpt lat="41.90629017898819" lon="12.384313996921652"><ele>51.0</ele><time>2026-04-29T17:51:58.999Z</time></trkpt><trkpt lat="41.906033742268725" lon="12.384258189332005"><ele>51.0</ele><time>2026-04-29T17:51:59.999Z</time></trkpt><trkpt lat="41.90576778223895" lon="12.384203858176987"><ele>51.0</ele><time>2026-04-29T17:52:00.999Z</time></trkpt><trkpt lat="41.90549881652346" lon="12.38415291920814"><ele>51.0</ele><time>2026-04-29T17:52:01.999Z</time></trkpt><trkpt lat="41.905225461429986" lon="12.38410183644023"><ele>50.5</ele><time>2026-04-29T17:52:02.999Z</time></trkpt><trkpt lat="41.904946616619306" lon="12.384047532837357"><ele>50.0</ele><time>2026-04-29T17:52:03.999Z</time></trkpt><trkpt lat="41.90466945042141" lon="12.38399486853929"><ele>50.0</ele><time>2026-04-29T17:52:04.999Z</time></trkpt><trkpt lat="41.90439594401225" lon="12.383945148511721"><ele>50.0</ele><time>2026-04-29T17:52:05.999Z</time></trkpt><trkpt lat="41.90412574334949" lon="12.38389925650694"><ele>50.0</ele><time>2026-04-29T17:52:06.999Z</time></trkpt><trkpt lat="41.90385627016027" lon="12.383859914373517"><ele>50.0</ele><time>2026-04-29T17:52:07.999Z</time></trkpt><trkpt lat="41.90358703096603" lon="12.383815469474051"><ele>49.0</ele><time>2026-04-29T17:52:08.999Z</time></trkpt><trkpt lat="41.9033170963866" lon="12.383768018178317"><ele>48.0</ele><time>2026-04-29T17:52:09.999Z</time></trkpt><trkpt lat="41.90304714089903" lon="12.38371779354243"><ele>48.0</ele><time>2026-04-29T17:52:11Z</time></trkpt><trkpt lat="41.9027757319863" lon="12.383662742271289"><ele>48.0</ele><time>2026-04-29T17:52:12Z</time></trkpt><trkpt lat="41.902516203810286" lon="12.383607027965413"><ele>53.0</ele><time>2026-04-29T17:52:13Z</time></trkpt><trkpt lat="41.90226095055636" lon="12.383547603347308"><ele>58.0</ele><time>2026-04-29T17:52:14Z</time></trkpt><trkpt lat="41.9020065880554" lon="12.38348489367888"><ele>58.0</ele><time>2026-04-29T17:52:15Z</time></trkpt><trkpt lat="41.90175957669215" lon="12.383416841473965"><ele>58.0</ele><time>2026-04-29T17:52:16Z</time></trkpt><trkpt lat="41.901519010909674" lon="12.38334300402668"><ele>61.0</ele><time>2026-04-29T17:52:17Z</time></trkpt><trkpt lat="41.90128655767972" lon="12.383268601849743"><ele>64.0</ele><time>2026-04-29T17:52:18Z</time></trkpt><trkpt lat="41.901061613069515" lon="12.383192895269975"><ele>60.0</ele><time>2026-04-29T17:52:19Z</time></trkpt><trkpt lat="41.90083141343247" lon="12.38311142312737"><ele>56.0</ele><time>2026-04-29T17:52:20Z</time></trkpt><trkpt lat="41.90059759587658" lon="12.383030480021947"><ele>62.0</ele><time>2026-04-29T17:52:21Z</time></trkpt><trkpt lat="41.900365138851505" lon="12.38294480534446"><ele>68.0</ele><time>2026-04-29T17:52:22Z</time></trkpt><trkpt lat="41.900135208131836" lon="12.382852939801555"><ele>65.5</ele><time>2026-04-29T17:52:23Z</time></trkpt><trkpt lat="41.89989496621984" lon="12.382760741146896"><ele>63.0</ele><time>2026-04-29T17:52:24Z</time></trkpt><trkpt lat="41.899643628520224" lon="12.382666092585891"><ele>63.0</ele><time>2026-04-29T17:52:25Z</time></trkpt><trkpt lat="41.89938346529764" lon="12.382571639610488"><ele>63.0</ele><time>2026-04-29T17:52:26Z</time></trkpt><trkpt lat="41.89912130089221" lon="12.382478634019076"><ele>60.0</ele><time>2026-04-29T17:52:27Z</time></trkpt><trkpt lat="41.89885598940714" lon="12.382388729954304"><ele>57.0</ele><time>2026-04-29T17:52:28Z</time></trkpt><trkpt lat="41.89858334969904" lon="12.382294544166015"><ele>54.5</ele><time>2026-04-29T17:52:29Z</time></trkpt><trkpt lat="41.898307668507854" lon="12.38219590744658"><ele>52.0</ele><time>2026-04-29T17:52:30Z</time></trkpt><trkpt lat="41.89803018892178" lon="12.382093278792695"><ele>58.0</ele><time>2026-04-29T17:52:31Z</time></trkpt><trkpt lat="41.89775165236159" lon="12.381990047054892"><ele>64.0</ele><time>2026-04-29T17:52:32Z</time></trkpt><trkpt lat="41.897469860717685" lon="12.38189135090974"><ele>64.0</ele><time>2026-04-29T17:52:33Z</time></trkpt><trkpt lat="41.89718734095142" lon="12.38179749492863"><ele>64.0</ele><time>2026-04-29T17:52:34Z</time></trkpt><trkpt lat="41.89690399593579" lon="12.381710197886242"><ele>58.5</ele><time>2026-04-29T17:52:35Z</time></trkpt><trkpt lat="41.89662198301217" lon="12.381632692156309"><ele>53.0</ele><time>2026-04-29T17:52:36Z</time></trkpt><trkpt lat="41.89634684073745" lon="12.381564213978548"><ele>53.0</ele><time>2026-04-29T17:52:37Z</time></trkpt><trkpt lat="41.89608613495094" lon="12.381508451482285"><ele>53.0</ele><time>2026-04-29T17:52:38Z</time></trkpt><trkpt lat="41.895826315797464" lon="12.381462419550457"><ele>50.5</ele><time>2026-04-29T17:52:39Z</time></trkpt><trkpt lat="41.89556600259591" lon="12.381424474891562"><ele>48.0</ele><time>2026-04-29T17:52:40Z</time></trkpt><trkpt lat="41.89531111706673" lon="12.381393848204445"><ele>48.0</ele><time>2026-04-29T17:52:41Z</time></trkpt><trkpt lat="41.89506213894937" lon="12.38136900841135"><ele>48.0</ele><time>2026-04-29T17:52:42Z</time></trkpt><trkpt lat="41.894813638576586" lon="12.381348735441607"><ele>48.0</ele><time>2026-04-29T17:52:43Z</time></trkpt><trkpt lat="41.89456663499462" lon="12.3813286538701"><ele>48.0</ele><time>2026-04-29T17:52:44Z</time></trkpt><trkpt lat="41.89432431770747" lon="12.381312488698352"><ele>45.0</ele><time>2026-04-29T17:52:45Z</time></trkpt><trkpt lat="41.89408417982659" lon="12.381302063598218"><ele>42.0</ele><time>2026-04-29T17:52:46Z</time></trkpt><trkpt lat="41.89383924896432" lon="12.381288540695408"><ele>42.0</ele><time>2026-04-29T17:52:47Z</time></trkpt><trkpt lat="41.89359298412343" lon="12.381273490233037"><ele>42.0</ele><time>2026-04-29T17:52:48Z</time></trkpt><trkpt lat="41.893346110433654" lon="12.381259817585649"><ele>41.5</ele><time>2026-04-29T17:52:49Z</time></trkpt><trkpt lat="41.89310057335628" lon="12.381242323028486"><ele>41.0</ele><time>2026-04-29T17:52:50Z</time></trkpt><trkpt lat="41.89285548967748" lon="12.381223241132737"><ele>41.0</ele><time>2026-04-29T17:52:51Z</time></trkpt><trkpt lat="41.89259973322965" lon="12.381205551251066"><ele>41.0</ele><time>2026-04-29T17:52:52Z</time></trkpt><trkpt lat="41.89234691584981" lon="12.381190196180297"><ele>43.0</ele><time>2026-04-29T17:52:53Z</time></trkpt><trkpt lat="41.89209426685832" lon="12.381173254662327"><ele>45.0</ele><time>2026-04-29T17:52:54Z</time></trkpt><trkpt lat="41.89184212016202" lon="12.381156238740427"><ele>44.5</ele><time>2026-04-29T17:52:55Z</time></trkpt><trkpt lat="41.89158660146041" lon="12.381137374808429"><ele>44.0</ele><time>2026-04-29T17:52:56Z</time></trkpt><trkpt lat="41.89133985024385" lon="12.38112466001004"><ele>44.0</ele><time>2026-04-29T17:52:57Z</time></trkpt><trkpt lat="41.891080465831735" lon="12.381108453157768"><ele>44.0</ele><time>2026-04-29T17:52:58Z</time></trkpt><trkpt lat="41.89082743375523" lon="12.381091495807063"><ele>42.0</ele><time>2026-04-29T17:52:59Z</time></trkpt><trkpt lat="41.8905731630011" lon="12.381073200781971"><ele>40.0</ele><time>2026-04-29T17:53:00Z</time></trkpt><trkpt lat="41.89031472859984" lon="12.381055641761854"><ele>39.0</ele><time>2026-04-29T17:53:01Z</time></trkpt><trkpt lat="41.89005547386698" lon="12.38103798625075"><ele>38.0</ele><time>2026-04-29T17:53:02Z</time></trkpt><trkpt lat="41.8897960262193" lon="12.381019635027279"><ele>38.0</ele><time>2026-04-29T17:53:03Z</time></trkpt><trkpt lat="41.88953450901433" lon="12.380999071961465"><ele>38.0</ele><time>2026-04-29T17:53:04Z</time></trkpt><trkpt lat="41.8892708945371" lon="12.380980953236502"><ele>37.0</ele><time>2026-04-29T17:53:05Z</time></trkpt><trkpt lat="41.889003748996565" lon="12.380961622997953"><ele>36.0</ele><time>2026-04-29T17:53:06Z</time></trkpt><trkpt lat="41.88873119688066" lon="12.380945320402134"><ele>36.0</ele><time>2026-04-29T17:53:07Z</time></trkpt><trkpt lat="41.88845845739532" lon="12.380932992300874"><ele>36.0</ele><time>2026-04-29T17:53:08Z</time></trkpt><trkpt lat="41.888190138113245" lon="12.380919167622373"><ele>37.0</ele><time>2026-04-29T17:53:09Z</time></trkpt><trkpt lat="41.88792957164192" lon="12.380909599723838"><ele>38.0</ele><time>2026-04-29T17:53:10Z</time></trkpt><trkpt lat="41.88768506486894" lon="12.380901860706688"><ele>37.0</ele><time>2026-04-29T17:53:11Z</time></trkpt><trkpt lat="41.88745212214632" lon="12.38089583214731"><ele>36.0</ele><time>2026-04-29T17:53:12Z</time></trkpt><trkpt lat="41.88722904818828" lon="12.380889392340874"><ele>36.0</ele><time>2026-04-29T17:53:13Z</time></trkpt><trkpt lat="41.88701764059998" lon="12.380882557859305"><ele>36.0</ele><time>2026-04-29T17:53:14Z</time></trkpt><trkpt lat="41.88681282870836" lon="12.380876659915993"><ele>36.0</ele><time>2026-04-29T17:53:15Z</time></trkpt><trkpt lat="41.88660588722658" lon="12.380873199875616"><ele>36.333333333333336</ele><time>2026-04-29T17:53:16Z</time></trkpt><trkpt lat="41.88639583727665" lon="12.380867051942186"><ele>36.66666666666667</ele><time>2026-04-29T17:53:17Z</time></trkpt><trkpt lat="41.886184700760055" lon="12.38086249378064"><ele>37.0</ele><time>2026-04-29T17:53:18Z</time></trkpt><trkpt lat="41.88597124872549" lon="12.380856403961438"><ele>38.333333333333336</ele><time>2026-04-29T17:53:19Z</time></trkpt><trkpt lat="41.88575701502585" lon="12.380850773459795"><ele>39.666666666666664</ele><time>2026-04-29T17:53:19.999Z</time></trkpt><trkpt lat="41.88554243107493" lon="12.380845119457303"><ele>41.0</ele><time>2026-04-29T17:53:20.999Z</time></trkpt><trkpt lat="41.88532882273414" lon="12.38083930824215"><ele>41.0</ele><time>2026-04-29T17:53:21.999Z</time></trkpt><trkpt lat="41.88511719417256" lon="12.380831585480049"><ele>41.0</ele><time>2026-04-29T17:53:22.999Z</time></trkpt><trkpt lat="41.884906492562706" lon="12.380827559877815"><ele>41.0</ele><time>2026-04-29T17:53:23.999Z</time></trkpt><trkpt lat="41.8846960837908" lon="12.380823551124852"><ele>39.666666666666664</ele><time>2026-04-29T17:53:24.999Z</time></trkpt><trkpt lat="41.8844863140019" lon="12.380818512167442"><ele>38.333333333333336</ele><time>2026-04-29T17:53:25.999Z</time></trkpt><trkpt lat="41.884276434174886" lon="12.380813127335957"><ele>37.0</ele><time>2026-04-29T17:53:26.999Z</time></trkpt><trkpt lat="41.88406859030614" lon="12.380806842918117"><ele>36.0</ele><time>2026-04-29T17:53:27.999Z</time></trkpt><trkpt lat="41.88386403152138" lon="12.380801678715132"><ele>35.0</ele><time>2026-04-29T17:53:28.999Z</time></trkpt><trkpt lat="41.88365528506983" lon="12.380799094421613"><ele>34.0</ele><time>2026-04-29T17:53:29.999Z</time></trkpt><trkpt lat="41.88345294474111" lon="12.380796598927818"><ele>34.66666666666667</ele><time>2026-04-29T17:53:30.999Z</time></trkpt><trkpt lat="41.88325076315995" lon="12.380790317352567"><ele>35.333333333333336</ele><time>2026-04-29T17:53:31.999Z</time></trkpt><trkpt lat="41.88305248217488" lon="12.380783277930876"><ele>36.0</ele><time>2026-04-29T17:53:32.999Z</time></trkpt><trkpt lat="41.882850134487214" lon="12.38077373065094"><ele>36.0</ele><time>2026-04-29T17:53:33.999Z</time></trkpt><trkpt lat="41.8826456922299" lon="12.380762068446014"><ele>36.0</ele><time>2026-04-29T17:53:34.999Z</time></trkpt><trkpt lat="41.88243828477588" lon="12.380747892899457"><ele>36.0</ele><time>2026-04-29T17:53:35.999Z</time></trkpt><trkpt lat="41.882227330085435" lon="12.38073279281954"><ele>36.333333333333336</ele><time>2026-04-29T17:53:36.999Z</time></trkpt><trkpt lat="41.882012652174694" lon="12.380714670360277"><ele>36.66666666666667</ele><time>2026-04-29T17:53:37.999Z</time></trkpt><trkpt lat="41.88179519156718" lon="12.380693456708618"><ele>37.0</ele><time>2026-04-29T17:53:38.999Z</time></trkpt><trkpt lat="41.88158025375898" lon="12.38066885372924"><ele>37.0</ele><time>2026-04-29T17:53:39.999Z</time></trkpt><trkpt lat="41.881372143601105" lon="12.380639779840664"><ele>37.0</ele><time>2026-04-29T17:53:40.999Z</time></trkpt><trkpt lat="41.8811584576691" lon="12.380605037683555"><ele>37.0</ele><time>2026-04-29T17:53:41.999Z</time></trkpt><trkpt lat="41.880943404665686" lon="12.3805645975112"><ele>37.0</ele><time>2026-04-29T17:53:42.999Z</time></trkpt><trkpt lat="41.880723872950924" lon="12.380520731553917"><ele>37.0</ele><time>2026-04-29T17:53:43.999Z</time></trkpt><trkpt lat="41.880502631041466" lon="12.380472121326166"><ele>37.0</ele><time>2026-04-29T17:53:44.999Z</time></trkpt><trkpt lat="41.88028003895573" lon="12.38042052216182"><ele>34.5</ele><time>2026-04-29T17:53:45.999Z</time></trkpt><trkpt lat="41.88005970203962" lon="12.380362492436563"><ele>32.0</ele><time>2026-04-29T17:53:46.999Z</time></trkpt><trkpt lat="41.87983944053513" lon="12.380295561507705"><ele>32.0</ele><time>2026-04-29T17:53:47.999Z</time></trkpt><trkpt lat="41.879618641909765" lon="12.380218293105887"><ele>32.0</ele><time>2026-04-29T17:53:48.999Z</time></trkpt><trkpt lat="41.879398857848564" lon="12.380137549991668"><ele>32.33333333333333</ele><time>2026-04-29T17:53:49.999Z</time></trkpt><trkpt lat="41.87918169567808" lon="12.380058953520377"><ele>32.666666666666664</ele><time>2026-04-29T17:53:50.999Z</time></trkpt><trkpt lat="41.87896930103639" lon="12.379979935061913"><ele>33.0</ele><time>2026-04-29T17:53:51.999Z</time></trkpt><trkpt lat="41.87875695301701" lon="12.37989611039604"><ele>33.0</ele><time>2026-04-29T17:53:52.999Z</time></trkpt><trkpt lat="41.87854862951904" lon="12.379806906584003"><ele>33.0</ele><time>2026-04-29T17:53:53.999Z</time></trkpt><trkpt lat="41.87833864875611" lon="12.379710104293753"><ele>33.0</ele><time>2026-04-29T17:53:54.999Z</time></trkpt><trkpt lat="41.8781288921389" lon="12.379606979374717"><ele>32.0</ele><time>2026-04-29T17:53:55.999Z</time></trkpt><trkpt lat="41.87791894387537" lon="12.379499722205674"><ele>31.0</ele><time>2026-04-29T17:53:56.999Z</time></trkpt><trkpt lat="41.877708111910486" lon="12.379389028816616"><ele>32.66666666666667</ele><time>2026-04-29T17:53:57.999Z</time></trkpt><trkpt lat="41.877499364462615" lon="12.37927689114271"><ele>34.333333333333336</ele><time>2026-04-29T17:53:58.999Z</time></trkpt><trkpt lat="41.8773002207864" lon="12.37916626415274"><ele>36.0</ele><time>2026-04-29T17:53:59.999Z</time></trkpt><trkpt lat="41.877105382268965" lon="12.379058356484732"><ele>36.0</ele><time>2026-04-29T17:54:00.999Z</time></trkpt><trkpt lat="41.87690882630263" lon="12.378950568242526"><ele>36.0</ele><time>2026-04-29T17:54:01.999Z</time></trkpt><trkpt lat="41.876708979667704" lon="12.378844702453252"><ele>36.0</ele><time>2026-04-29T17:54:02.999Z</time></trkpt><trkpt lat="41.87650821150785" lon="12.378737535739116"><ele>35.333333333333336</ele><time>2026-04-29T17:54:03.999Z</time></trkpt><trkpt lat="41.87630772818305" lon="12.378627836678577"><ele>34.66666666666667</ele><time>2026-04-29T17:54:04.999Z</time></trkpt><trkpt lat="41.87611353962416" lon="12.378519500250285"><ele>34.0</ele><time>2026-04-29T17:54:05.999Z</time></trkpt><trkpt lat="41.875919641065835" lon="12.37841178289219"><ele>32.333333333333336</ele><time>2026-04-29T17:54:06.999Z</time></trkpt><trkpt lat="41.8757248607318" lon="12.378304326731985"><ele>30.666666666666664</ele><time>2026-04-29T17:54:07.999Z</time></trkpt><trkpt lat="41.875530314968806" lon="12.378198071204489"><ele>29.0</ele><time>2026-04-29T17:54:08.999Z</time></trkpt><trkpt lat="41.87533266730888" lon="12.378090401203929"><ele>30.0</ele><time>2026-04-29T17:54:09.999Z</time></trkpt><trkpt lat="41.87512513254568" lon="12.37797591389051"><ele>31.0</ele><time>2026-04-29T17:54:10.999Z</time></trkpt><trkpt lat="41.874912270584446" lon="12.377855156589364"><ele>31.0</ele><time>2026-04-29T17:54:11.999Z</time></trkpt><trkpt lat="41.87468947994778" lon="12.377727318495369"><ele>31.0</ele><time>2026-04-29T17:54:12.999Z</time></trkpt><trkpt lat="41.87445527210197" lon="12.37759997388812"><ele>32.0</ele><time>2026-04-29T17:54:13.999Z</time></trkpt><trkpt lat="41.87421445162179" lon="12.377471402194256"><ele>33.0</ele><time>2026-04-29T17:54:14.999Z</time></trkpt><trkpt lat="41.87397245298686" lon="12.377342672212105"><ele>33.0</ele><time>2026-04-29T17:54:15.999Z</time></trkpt><trkpt lat="41.87373347051649" lon="12.37721380182769"><ele>33.0</ele><time>2026-04-29T17:54:17Z</time></trkpt><trkpt lat="41.8734958594739" lon="12.377085418032328"><ele>35.5</ele><time>2026-04-29T17:54:18Z</time></trkpt><trkpt lat="41.87326059602939" lon="12.376956707313543"><ele>38.0</ele><time>2026-04-29T17:54:19Z</time></trkpt><trkpt lat="41.87302910856279" lon="12.376830948298226"><ele>38.0</ele><time>2026-04-29T17:54:20Z</time></trkpt><trkpt lat="41.87280134090338" lon="12.376707432515564"><ele>38.0</ele><time>2026-04-29T17:54:21Z</time></trkpt><trkpt lat="41.87257770089805" lon="12.37658660685932"><ele>39.0</ele><time>2026-04-29T17:54:22Z</time></trkpt><trkpt lat="41.872356188319856" lon="12.37646830396966"><ele>40.0</ele><time>2026-04-29T17:54:23Z</time></trkpt><trkpt lat="41.87213540495291" lon="12.376349019741697"><ele>44.0</ele><time>2026-04-29T17:54:24Z</time></trkpt><trkpt lat="41.87191200579155" lon="12.376226593672266"><ele>48.0</ele><time>2026-04-29T17:54:25Z</time></trkpt><trkpt lat="41.87168768540244" lon="12.376102611012668"><ele>48.0</ele><time>2026-04-29T17:54:26Z</time></trkpt><trkpt lat="41.87146232187489" lon="12.375979542014141"><ele>48.0</ele><time>2026-04-29T17:54:27Z</time></trkpt><trkpt lat="41.87123640671892" lon="12.375857039906323"><ele>48.0</ele><time>2026-04-29T17:54:28Z</time></trkpt><trkpt lat="41.87101175763228" lon="12.375737684336169"><ele>48.0</ele><time>2026-04-29T17:54:29Z</time></trkpt><trkpt lat="41.87078903915196" lon="12.375618931953127"><ele>50.5</ele><time>2026-04-29T17:54:30Z</time></trkpt><trkpt lat="41.87057002716893" lon="12.375501333777555"><ele>53.0</ele><time>2026-04-29T17:54:31Z</time></trkpt><trkpt lat="41.87035521711627" lon="12.37538517903994"><ele>53.0</ele><time>2026-04-29T17:54:32Z</time></trkpt><trkpt lat="41.87015112596663" lon="12.375272195653006"><ele>53.0</ele><time>2026-04-29T17:54:33Z</time></trkpt><trkpt lat="41.86994482959086" lon="12.375159195568717"><ele>53.0</ele><time>2026-04-29T17:54:34Z</time></trkpt><trkpt lat="41.86973683918041" lon="12.375044774757674"><ele>51.0</ele><time>2026-04-29T17:54:35Z</time></trkpt><trkpt lat="41.86952993929666" lon="12.374928013314678"><ele>49.0</ele><time>2026-04-29T17:54:36Z</time></trkpt><trkpt lat="41.86932405313725" lon="12.374812336650976"><ele>47.0</ele><time>2026-04-29T17:54:37Z</time></trkpt><trkpt lat="41.86911987856757" lon="12.374701255568185"><ele>44.666666666666664</ele><time>2026-04-29T17:54:38Z</time></trkpt><trkpt lat="41.86891680694355" lon="12.374594976766707"><ele>42.333333333333336</ele><time>2026-04-29T17:54:39Z</time></trkpt><trkpt lat="41.868715646336526" lon="12.374492744740992"><ele>40.0</ele><time>2026-04-29T17:54:40Z</time></trkpt><trkpt lat="41.86851198992341" lon="12.374390813605181"><ele>42.333333333333336</ele><time>2026-04-29T17:54:41Z</time></trkpt><trkpt lat="41.86830839429797" lon="12.374295597401218"><ele>44.666666666666664</ele><time>2026-04-29T17:54:42Z</time></trkpt><trkpt lat="41.868104263554976" lon="12.374207658870072"><ele>47.0</ele><time>2026-04-29T17:54:43Z</time></trkpt><trkpt lat="41.86789878737474" lon="12.374124304818652"><ele>47.0</ele><time>2026-04-29T17:54:44Z</time></trkpt><trkpt lat="41.86769051797431" lon="12.374048748927164"><ele>47.0</ele><time>2026-04-29T17:54:45Z</time></trkpt><trkpt lat="41.86747732118852" lon="12.373980862855321"><ele>47.0</ele><time>2026-04-29T17:54:46Z</time></trkpt><trkpt lat="41.86725951476894" lon="12.373914731728316"><ele>52.0</ele><time>2026-04-29T17:54:47Z</time></trkpt><trkpt lat="41.86703986967796" lon="12.37385512003962"><ele>57.0</ele><time>2026-04-29T17:54:48Z</time></trkpt><trkpt lat="41.86681556378425" lon="12.37380263213131"><ele>59.5</ele><time>2026-04-29T17:54:49Z</time></trkpt><trkpt lat="41.86658878900039" lon="12.37375803676231"><ele>62.0</ele><time>2026-04-29T17:54:50Z</time></trkpt><trkpt lat="41.86635929752623" lon="12.373724312478661"><ele>62.0</ele><time>2026-04-29T17:54:51Z</time></trkpt><trkpt lat="41.866127036986654" lon="12.373698605221685"><ele>62.0</ele><time>2026-04-29T17:54:52Z</time></trkpt><trkpt lat="41.8658924426169" lon="12.37367661549218"><ele>62.0</ele><time>2026-04-29T17:54:53Z</time></trkpt><trkpt lat="41.86565454838494" lon="12.373661075314043"><ele>62.0</ele><time>2026-04-29T17:54:54Z</time></trkpt><trkpt lat="41.86541968592042" lon="12.373653475840484"><ele>62.0</ele><time>2026-04-29T17:54:55Z</time></trkpt><trkpt lat="41.86518169841049" lon="12.373656650331188"><ele>62.0</ele><time>2026-04-29T17:54:56Z</time></trkpt><trkpt lat="41.8649469130787" lon="12.373671045168706"><ele>61.0</ele><time>2026-04-29T17:54:57Z</time></trkpt><trkpt lat="41.86470967654803" lon="12.37369419618051"><ele>60.0</ele><time>2026-04-29T17:54:58Z</time></trkpt><trkpt lat="41.864471986464416" lon="12.373721864406198"><ele>61.0</ele><time>2026-04-29T17:54:59Z</time></trkpt><trkpt lat="41.86423299609285" lon="12.37375950477535"><ele>62.0</ele><time>2026-04-29T17:55:00Z</time></trkpt><trkpt lat="41.86399337414151" lon="12.373807171118518"><ele>60.5</ele><time>2026-04-29T17:55:01Z</time></trkpt><trkpt lat="41.863754101472054" lon="12.37386358452385"><ele>59.0</ele><time>2026-04-29T17:55:02Z</time></trkpt><trkpt lat="41.86351681336787" lon="12.373928648502078"><ele>59.0</ele><time>2026-04-29T17:55:03Z</time></trkpt><trkpt lat="41.863283909980936" lon="12.373993629891586"><ele>59.0</ele><time>2026-04-29T17:55:04Z</time></trkpt><trkpt lat="41.86304165084852" lon="12.374067683451909"><ele>59.0</ele><time>2026-04-29T17:55:05Z</time></trkpt><trkpt lat="41.86277010421144" lon="12.373946496729937"><ele>59.0</ele><time>2026-04-29T17:55:06Z</time></trkpt><trkpt lat="41.862511859121604" lon="12.374003759459521"><ele>60.0</ele><time>2026-04-29T17:55:07Z</time></trkpt><trkpt lat="41.86227749040128" lon="12.374356247342982"><ele>61.0</ele><time>2026-04-29T17:55:08Z</time></trkpt><trkpt lat="41.86201512608851" lon="12.374466518935261"><ele>61.5</ele><time>2026-04-29T17:55:09Z</time></trkpt><trkpt lat="41.86174700274518" lon="12.374580472082597"><ele>62.0</ele><time>2026-04-29T17:55:10Z</time></trkpt><trkpt lat="41.8614760917353" lon="12.374700063566541"><ele>62.0</ele><time>2026-04-29T17:55:11Z</time></trkpt><trkpt lat="41.86120228607873" lon="12.374820463297485"><ele>62.0</ele><time>2026-04-29T17:55:12Z</time></trkpt><trkpt lat="41.86092731058404" lon="12.37494150547413"><ele>63.5</ele><time>2026-04-29T17:55:13Z</time></trkpt><trkpt lat="41.86064891028353" lon="12.375062384625894"><ele>65.0</ele><time>2026-04-29T17:55:14Z</time></trkpt><trkpt lat="41.86037099671963" lon="12.375182085787085"><ele>65.0</ele><time>2026-04-29T17:55:15Z</time></trkpt><trkpt lat="41.86009281636564" lon="12.37529885382985"><ele>65.0</ele><time>2026-04-29T17:55:16Z</time></trkpt><trkpt lat="41.85981555468283" lon="12.375418289220802"><ele>65.0</ele><time>2026-04-29T17:55:17Z</time></trkpt><trkpt lat="41.85953532635407" lon="12.375540435044812"><ele>65.0</ele><time>2026-04-29T17:55:18Z</time></trkpt><trkpt lat="41.85925345416284" lon="12.37566534123345"><ele>65.0</ele><time>2026-04-29T17:55:19Z</time></trkpt><trkpt lat="41.85897289485277" lon="12.375789100812767"><ele>65.0</ele><time>2026-04-29T17:55:20Z</time></trkpt><trkpt lat="41.85869604605279" lon="12.375908425984681"><ele>65.5</ele><time>2026-04-29T17:55:21Z</time></trkpt><trkpt lat="41.8584190643179" lon="12.376026629121464"><ele>66.0</ele><time>2026-04-29T17:55:21.999Z</time></trkpt><trkpt lat="41.858143400506144" lon="12.376143288804434"><ele>66.0</ele><time>2026-04-29T17:55:22.999Z</time></trkpt><trkpt lat="41.85786802852221" lon="12.37625933153911"><ele>66.0</ele><time>2026-04-29T17:55:23.999Z</time></trkpt><trkpt lat="41.85758959851198" lon="12.376379683722325"><ele>68.0</ele><time>2026-04-29T17:55:24.999Z</time></trkpt><trkpt lat="41.85731061637735" lon="12.376500902783466"><ele>70.0</ele><time>2026-04-29T17:55:25.999Z</time></trkpt><trkpt lat="41.85703161690852" lon="12.376621704555326"><ele>69.0</ele><time>2026-04-29T17:55:26.999Z</time></trkpt><trkpt lat="41.8567548260846" lon="12.376739427957691"><ele>68.0</ele><time>2026-04-29T17:55:27.999Z</time></trkpt><trkpt lat="41.85647890168924" lon="12.376855291918654"><ele>68.0</ele><time>2026-04-29T17:55:28.999Z</time></trkpt><trkpt lat="41.85620275949634" lon="12.376973242208372"><ele>68.0</ele><time>2026-04-29T17:55:29.999Z</time></trkpt><trkpt lat="41.8559260264085" lon="12.377089110425015"><ele>68.0</ele><time>2026-04-29T17:55:30.999Z</time></trkpt><trkpt lat="41.85565076254526" lon="12.377205587884387"><ele>68.0</ele><time>2026-04-29T17:55:31.999Z</time></trkpt><trkpt lat="41.85538025715573" lon="12.377323041789756"><ele>68.5</ele><time>2026-04-29T17:55:32.999Z</time></trkpt><trkpt lat="41.855112449056385" lon="12.37743704468246"><ele>69.0</ele><time>2026-04-29T17:55:33.999Z</time></trkpt><trkpt lat="41.85484664238274" lon="12.37754409843543"><ele>69.0</ele><time>2026-04-29T17:55:34.999Z</time></trkpt><trkpt lat="41.85458513142562" lon="12.377649781006589"><ele>69.0</ele><time>2026-04-29T17:55:35.999Z</time></trkpt><trkpt lat="41.85432570057661" lon="12.377754916433247"><ele>67.0</ele><time>2026-04-29T17:55:36.999Z</time></trkpt><trkpt lat="41.85405455373837" lon="12.377864467489921"><ele>65.0</ele><time>2026-04-29T17:55:37.999Z</time></trkpt><trkpt lat="41.853774511454716" lon="12.377980507089788"><ele>66.5</ele><time>2026-04-29T17:55:38.999Z</time></trkpt><trkpt lat="41.85349281092056" lon="12.378096452493454"><ele>68.0</ele><time>2026-04-29T17:55:39.999Z</time></trkpt><trkpt lat="41.85322044645174" lon="12.3782053073703"><ele>68.0</ele><time>2026-04-29T17:55:40.999Z</time></trkpt><trkpt lat="41.85296304090708" lon="12.378310786501379"><ele>68.0</ele><time>2026-04-29T17:55:41.999Z</time></trkpt><trkpt lat="41.85270675114889" lon="12.378418333353531"><ele>68.0</ele><time>2026-04-29T17:55:42.999Z</time></trkpt><trkpt lat="41.852449990380435" lon="12.378529467928047"><ele>68.0</ele><time>2026-04-29T17:55:43.999Z</time></trkpt><trkpt lat="41.85219539840508" lon="12.378640890577156"><ele>68.0</ele><time>2026-04-29T17:55:44.999Z</time></trkpt><trkpt lat="41.8519436384154" lon="12.378753939521534"><ele>68.0</ele><time>2026-04-29T17:55:45.999Z</time></trkpt><trkpt lat="41.85168674315463" lon="12.378869305240707"><ele>67.0</ele><time>2026-04-29T17:55:46.999Z</time></trkpt><trkpt lat="41.85142401805665" lon="12.37898689911915"><ele>66.0</ele><time>2026-04-29T17:55:47.999Z</time></trkpt><trkpt lat="41.85115439421035" lon="12.379109353983507"><ele>66.0</ele><time>2026-04-29T17:55:48.999Z</time></trkpt><trkpt lat="41.85087668870874" lon="12.37923341647111"><ele>66.0</ele><time>2026-04-29T17:55:49.999Z</time></trkpt><trkpt lat="41.85059126171281" lon="12.379358946254545"><ele>66.0</ele><time>2026-04-29T17:55:50.999Z</time></trkpt><trkpt lat="41.850304513825925" lon="12.379488248483218"><ele>66.0</ele><time>2026-04-29T17:55:51.999Z</time></trkpt><trkpt lat="41.85001636999214" lon="12.379618290487187"><ele>62.0</ele><time>2026-04-29T17:55:52.999Z</time></trkpt><trkpt lat="41.849729616034686" lon="12.379749371101331"><ele>58.0</ele><time>2026-04-29T17:55:53.999Z</time></trkpt><trkpt lat="41.849442128861995" lon="12.379878209613652"><ele>57.0</ele><time>2026-04-29T17:55:54.999Z</time></trkpt><trkpt lat="41.84915773007582" lon="12.380002184613419"><ele>56.0</ele><time>2026-04-29T17:55:55.999Z</time></trkpt><trkpt lat="41.84887739088198" lon="12.380122526072588"><ele>56.0</ele><time>2026-04-29T17:55:56.999Z</time></trkpt><trkpt lat="41.84859989316975" lon="12.380240955517278"><ele>56.0</ele><time>2026-04-29T17:55:57.999Z</time></trkpt><trkpt lat="41.84832469842845" lon="12.380359072559154"><ele>55.5</ele><time>2026-04-29T17:55:58.999Z</time></trkpt><trkpt lat="41.848051257549685" lon="12.380478381317884"><ele>55.0</ele><time>2026-04-29T17:55:59.999Z</time></trkpt><trkpt lat="41.847779585310036" lon="12.380595072076945"><ele>55.0</ele><time>2026-04-29T17:56:00.999Z</time></trkpt><trkpt lat="41.84750975088875" lon="12.380710464500556"><ele>55.0</ele><time>2026-04-29T17:56:01.999Z</time></trkpt><trkpt lat="41.847242795268336" lon="12.380827988171996"><ele>55.0</ele><time>2026-04-29T17:56:02.999Z</time></trkpt><trkpt lat="41.84697736660383" lon="12.380943868160825"><ele>55.0</ele><time>2026-04-29T17:56:03.999Z</time></trkpt><trkpt lat="41.84671254129379" lon="12.381056716576676"><ele>55.5</ele><time>2026-04-29T17:56:04.999Z</time></trkpt><trkpt lat="41.84644718090046" lon="12.381172651380517"><ele>56.0</ele><time>2026-04-29T17:56:05.999Z</time></trkpt><trkpt lat="41.84617933464008" lon="12.381288940230128"><ele>57.0</ele><time>2026-04-29T17:56:06.999Z</time></trkpt><trkpt lat="41.84590793114345" lon="12.381407585660783"><ele>58.0</ele><time>2026-04-29T17:56:07.999Z</time></trkpt><trkpt lat="41.8456337204402" lon="12.381529497162"><ele>58.0</ele><time>2026-04-29T17:56:08.999Z</time></trkpt><trkpt lat="41.845356565206956" lon="12.381650692754167"><ele>58.0</ele><time>2026-04-29T17:56:09.999Z</time></trkpt><trkpt lat="41.84507545409939" lon="12.381772440386625"><ele>57.5</ele><time>2026-04-29T17:56:10.999Z</time></trkpt><trkpt lat="41.84479181895303" lon="12.381893343200687"><ele>57.0</ele><time>2026-04-29T17:56:11.999Z</time></trkpt><trkpt lat="41.84450785543837" lon="12.382015453074466"><ele>55.5</ele><time>2026-04-29T17:56:12.999Z</time></trkpt><trkpt lat="41.844223867688605" lon="12.382137461285387"><ele>54.0</ele><time>2026-04-29T17:56:13.999Z</time></trkpt><trkpt lat="41.84393693331811" lon="12.382258003290099"><ele>54.0</ele><time>2026-04-29T17:56:14.999Z</time></trkpt><trkpt lat="41.84364913244451" lon="12.38237885373146"><ele>54.0</ele><time>2026-04-29T17:56:15.999Z</time></trkpt><trkpt lat="41.84336358363568" lon="12.382495976216836"><ele>53.0</ele><time>2026-04-29T17:56:16.999Z</time></trkpt><trkpt lat="41.843080268106" lon="12.382611585778214"><ele>52.0</ele><time>2026-04-29T17:56:17.999Z</time></trkpt><trkpt lat="41.8427933039078" lon="12.382727084750227"><ele>51.5</ele><time>2026-04-29T17:56:18.999Z</time></trkpt><trkpt lat="41.84250586930431" lon="12.382842302339588"><ele>51.0</ele><time>2026-04-29T17:56:19.999Z</time></trkpt><trkpt lat="41.842223771310145" lon="12.382958901520979"><ele>51.5</ele><time>2026-04-29T17:56:20.999Z</time></trkpt><trkpt lat="41.841937345156396" lon="12.383075030311"><ele>52.0</ele><time>2026-04-29T17:56:21.999Z</time></trkpt><trkpt lat="41.84165097758031" lon="12.383192592354717"><ele>52.0</ele><time>2026-04-29T17:56:23Z</time></trkpt><trkpt lat="41.84136662121882" lon="12.383307222412792"><ele>52.0</ele><time>2026-04-29T17:56:24Z</time></trkpt><trkpt lat="41.84108373090823" lon="12.383417947624064"><ele>53.5</ele><time>2026-04-29T17:56:25Z</time></trkpt><trkpt lat="41.840798566215376" lon="12.383524064951764"><ele>55.0</ele><time>2026-04-29T17:56:26Z</time></trkpt><trkpt lat="41.84051219350343" lon="12.383632502049696"><ele>55.0</ele><time>2026-04-29T17:56:27Z</time></trkpt><trkpt lat="41.840223312496285" lon="12.383739234398556"><ele>55.0</ele><time>2026-04-29T17:56:28Z</time></trkpt><trkpt lat="41.83993296787718" lon="12.383842088345176"><ele>52.5</ele><time>2026-04-29T17:56:29Z</time></trkpt><trkpt lat="41.839640987162305" lon="12.383946735569973"><ele>50.0</ele><time>2026-04-29T17:56:30Z</time></trkpt><trkpt lat="41.83934784859922" lon="12.384052705082741"><ele>50.5</ele><time>2026-04-29T17:56:31Z</time></trkpt><trkpt lat="41.839053609222184" lon="12.384156195233576"><ele>51.0</ele><time>2026-04-29T17:56:32Z</time></trkpt><trkpt lat="41.83875865042929" lon="12.38425832305521"><ele>52.0</ele><time>2026-04-29T17:56:33Z</time></trkpt><trkpt lat="41.838463638204615" lon="12.38435705727668"><ele>53.0</ele><time>2026-04-29T17:56:34Z</time></trkpt><trkpt lat="41.838167556882524" lon="12.384454345582622"><ele>53.0</ele><time>2026-04-29T17:56:35Z</time></trkpt><trkpt lat="41.83787331438784" lon="12.38454917020052"><ele>53.0</ele><time>2026-04-29T17:56:36Z</time></trkpt><trkpt lat="41.83758157704615" lon="12.384644476722082"><ele>50.0</ele><time>2026-04-29T17:56:37Z</time></trkpt><trkpt lat="41.837292069423114" lon="12.384737389551459"><ele>47.0</ele><time>2026-04-29T17:56:38Z</time></trkpt><trkpt lat="41.83700275792926" lon="12.384827969017032"><ele>45.5</ele><time>2026-04-29T17:56:39Z</time></trkpt><trkpt lat="41.83670059310698" lon="12.384916304274459"><ele>44.0</ele><time>2026-04-29T17:56:40Z</time></trkpt><trkpt lat="41.836393236369624" lon="12.385004057431928"><ele>44.0</ele><time>2026-04-29T17:56:41Z</time></trkpt><trkpt lat="41.83608158000256" lon="12.385089607082996"><ele>44.0</ele><time>2026-04-29T17:56:42Z</time></trkpt><trkpt lat="41.83576802448917" lon="12.385181586188768"><ele>44.0</ele><time>2026-04-29T17:56:43Z</time></trkpt><trkpt lat="41.83545407934088" lon="12.385279957229738"><ele>44.0</ele><time>2026-04-29T17:56:44Z</time></trkpt><trkpt lat="41.83514210548431" lon="12.385378979783926"><ele>44.5</ele><time>2026-04-29T17:56:45Z</time></trkpt><trkpt lat="41.83482838345785" lon="12.385478111252842"><ele>45.0</ele><time>2026-04-29T17:56:46Z</time></trkpt><trkpt lat="41.834515531149734" lon="12.385574004385226"><ele>47.0</ele><time>2026-04-29T17:56:47Z</time></trkpt><trkpt lat="41.83420601036071" lon="12.385671019308718"><ele>49.0</ele><time>2026-04-29T17:56:48Z</time></trkpt><trkpt lat="41.833897400085505" lon="12.385767621727084"><ele>49.0</ele><time>2026-04-29T17:56:49Z</time></trkpt><trkpt lat="41.83359178300845" lon="12.385863984496789"><ele>49.0</ele><time>2026-04-29T17:56:50Z</time></trkpt><trkpt lat="41.83328693346095" lon="12.385958931642499"><ele>47.0</ele><time>2026-04-29T17:56:51Z</time></trkpt><trkpt lat="41.83298680521678" lon="12.38604964819224"><ele>45.0</ele><time>2026-04-29T17:56:52Z</time></trkpt><trkpt lat="41.83269136274967" lon="12.386136503550452"><ele>44.0</ele><time>2026-04-29T17:56:53Z</time></trkpt><trkpt lat="41.83239967852386" lon="12.386218382646144"><ele>43.0</ele><time>2026-04-29T17:56:54Z</time></trkpt><trkpt lat="41.83212045997075" lon="12.386296463823625"><ele>44.0</ele><time>2026-04-29T17:56:55Z</time></trkpt><trkpt lat="41.831855121748184" lon="12.386369102293171"><ele>45.0</ele><time>2026-04-29T17:56:56Z</time></trkpt><trkpt lat="41.831591914139885" lon="12.38644446608983"><ele>45.0</ele><time>2026-04-29T17:56:57Z</time></trkpt><trkpt lat="41.8313282673344" lon="12.386519488991457"><ele>45.0</ele><time>2026-04-29T17:56:58Z</time></trkpt><trkpt lat="41.831069217599186" lon="12.386593300531722"><ele>44.0</ele><time>2026-04-29T17:56:59Z</time></trkpt><trkpt lat="41.83080699252675" lon="12.386667997402796"><ele>43.0</ele><time>2026-04-29T17:57:00Z</time></trkpt><trkpt lat="41.830540578292016" lon="12.386745704908247"><ele>43.0</ele><time>2026-04-29T17:57:01Z</time></trkpt><trkpt lat="41.830273081589034" lon="12.386822208116438"><ele>43.0</ele><time>2026-04-29T17:57:02Z</time></trkpt><trkpt lat="41.83000585019402" lon="12.386896934132908"><ele>42.0</ele><time>2026-04-29T17:57:03Z</time></trkpt><trkpt lat="41.82974777205937" lon="12.386963355921402"><ele>41.0</ele><time>2026-04-29T17:57:04Z</time></trkpt><trkpt lat="41.82949874145774" lon="12.3870300892941"><ele>39.5</ele><time>2026-04-29T17:57:05Z</time></trkpt><trkpt lat="41.829248727724654" lon="12.387099016692195"><ele>38.0</ele><time>2026-04-29T17:57:06Z</time></trkpt><trkpt lat="41.82900062981989" lon="12.387169214089287"><ele>39.5</ele><time>2026-04-29T17:57:07Z</time></trkpt><trkpt lat="41.82876293729995" lon="12.387236326292161"><ele>41.0</ele><time>2026-04-29T17:57:08Z</time></trkpt><trkpt lat="41.82853585920894" lon="12.38729898163678"><ele>38.0</ele><time>2026-04-29T17:57:09Z</time></trkpt><trkpt lat="41.828310489041" lon="12.387356639470198"><ele>35.0</ele><time>2026-04-29T17:57:10Z</time></trkpt><trkpt lat="41.82807024041695" lon="12.387414171765137"><ele>35.0</ele><time>2026-04-29T17:57:11Z</time></trkpt><trkpt lat="41.82782176217316" lon="12.387467980120803"><ele>35.0</ele><time>2026-04-29T17:57:12Z</time></trkpt><trkpt lat="41.82758398902669" lon="12.387511623128136"><ele>32.0</ele><time>2026-04-29T17:57:13Z</time></trkpt><trkpt lat="41.82734507736579" lon="12.387559308975076"><ele>29.0</ele><time>2026-04-29T17:57:14Z</time></trkpt><trkpt lat="41.827107878925226" lon="12.38761890097586"><ele>29.0</ele><time>2026-04-29T17:57:15Z</time></trkpt><trkpt lat="41.82687270871941" lon="12.387688094706284"><ele>29.0</ele><time>2026-04-29T17:57:16Z</time></trkpt><trkpt lat="41.82663873644418" lon="12.387763000942002"><ele>30.5</ele><time>2026-04-29T17:57:17Z</time></trkpt><trkpt lat="41.82640679437433" lon="12.387839967877438"><ele>32.0</ele><time>2026-04-29T17:57:18Z</time></trkpt><trkpt lat="41.82616015532636" lon="12.387923379348013"><ele>29.0</ele><time>2026-04-29T17:57:19Z</time></trkpt><trkpt lat="41.8259019129627" lon="12.388015366469551"><ele>26.0</ele><time>2026-04-29T17:57:20Z</time></trkpt><trkpt lat="41.82563722436471" lon="12.38810430298488"><ele>26.0</ele><time>2026-04-29T17:57:21Z</time></trkpt><trkpt lat="41.825371071655404" lon="12.388188560799028"><ele>26.0</ele><time>2026-04-29T17:57:22Z</time></trkpt><trkpt lat="41.825104864260844" lon="12.388267656824173"><ele>23.5</ele><time>2026-04-29T17:57:23Z</time></trkpt><trkpt lat="41.82483498690717" lon="12.388341793777819"><ele>21.0</ele><time>2026-04-29T17:57:24Z</time></trkpt><trkpt lat="41.8245681154031" lon="12.38841599257044"><ele>21.0</ele><time>2026-04-29T17:57:25Z</time></trkpt><trkpt lat="41.82431316438897" lon="12.388489030174894"><ele>21.0</ele><time>2026-04-29T17:57:26Z</time></trkpt><trkpt lat="41.82406273596298" lon="12.38856402651945"><ele>19.5</ele><time>2026-04-29T17:57:27Z</time></trkpt><trkpt lat="41.82381378793174" lon="12.388644702145067"><ele>18.0</ele><time>2026-04-29T17:57:28Z</time></trkpt><trkpt lat="41.823563605853195" lon="12.38872258337769"><ele>19.0</ele><time>2026-04-29T17:57:29Z</time></trkpt><trkpt lat="41.823313989021244" lon="12.388797712676126"><ele>20.0</ele><time>2026-04-29T17:57:30Z</time></trkpt><trkpt lat="41.823066452477526" lon="12.388873261616867"><ele>20.0</ele><time>2026-04-29T17:57:30.999Z</time></trkpt><trkpt lat="41.82282656527594" lon="12.38894716221227"><ele>20.0</ele><time>2026-04-29T17:57:31.999Z</time></trkpt><trkpt lat="41.822591610756376" lon="12.389017718337447"><ele>16.0</ele><time>2026-04-29T17:57:32.999Z</time></trkpt><trkpt lat="41.82236853074989" lon="12.389084126316765"><ele>12.0</ele><time>2026-04-29T17:57:33.999Z</time></trkpt><trkpt lat="41.82215026585807" lon="12.389150397879826"><ele>12.0</ele><time>2026-04-29T17:57:34.999Z</time></trkpt><trkpt lat="41.82193725361364" lon="12.389210963251381"><ele>12.0</ele><time>2026-04-29T17:57:35.999Z</time></trkpt><trkpt lat="41.82173260414673" lon="12.389267199959011"><ele>12.0</ele><time>2026-04-29T17:57:36.999Z</time></trkpt><trkpt lat="41.82153455945718" lon="12.38932108702985"><ele>11.333333333333334</ele><time>2026-04-29T17:57:37.999Z</time></trkpt><trkpt lat="41.821346295421726" lon="12.389370557301142"><ele>10.666666666666668</ele><time>2026-04-29T17:57:38.999Z</time></trkpt><trkpt lat="41.82117126401012" lon="12.389407079839547"><ele>10.0</ele><time>2026-04-29T17:57:39.999Z</time></trkpt><trkpt lat="41.82099183340563" lon="12.389423887848217"><ele>9.666666666666668</ele><time>2026-04-29T17:57:40.999Z</time></trkpt><trkpt lat="41.820808116338384" lon="12.389419141555004"><ele>9.333333333333334</ele><time>2026-04-29T17:57:41.999Z</time></trkpt><trkpt lat="41.82062368529477" lon="12.389391616165122"><ele>9.0</ele><time>2026-04-29T17:57:42.999Z</time></trkpt><trkpt lat="41.820437119809334" lon="12.389336413305713"><ele>9.0</ele><time>2026-04-29T17:57:43.999Z</time></trkpt><trkpt lat="41.82025183678141" lon="12.389254625805698"><ele>9.0</ele><time>2026-04-29T17:57:44.999Z</time></trkpt><trkpt lat="41.82007191949324" lon="12.389147177021902"><ele>9.0</ele><time>2026-04-29T17:57:45.999Z</time></trkpt><trkpt lat="41.8198990099088" lon="12.389013042985484"><ele>8.666666666666666</ele><time>2026-04-29T17:57:46.999Z</time></trkpt><trkpt lat="41.819726870630355" lon="12.388850240871276"><ele>8.333333333333332</ele><time>2026-04-29T17:57:47.999Z</time></trkpt><trkpt lat="41.81955153020042" lon="12.388668830788873"><ele>8.0</ele><time>2026-04-29T17:57:48.999Z</time></trkpt><trkpt lat="41.819381515468976" lon="12.388486930912567"><ele>7.333333333333333</ele><time>2026-04-29T17:57:49.999Z</time></trkpt><trkpt lat="41.81921740682645" lon="12.388319611786061"><ele>6.666666666666666</ele><time>2026-04-29T17:57:50.999Z</time></trkpt><trkpt lat="41.81906574302887" lon="12.388155150085572"><ele>6.0</ele><time>2026-04-29T17:57:51.999Z</time></trkpt><trkpt lat="41.81892056875727" lon="12.387963954438352"><ele>6.0</ele><time>2026-04-29T17:57:52.999Z</time></trkpt><trkpt lat="41.81878833142029" lon="12.387753948594506"><ele>6.0</ele><time>2026-04-29T17:57:53.999Z</time></trkpt><trkpt lat="41.81867749300701" lon="12.387524985699923"><ele>6.0</ele><time>2026-04-29T17:57:54.999Z</time></trkpt><trkpt lat="41.81858456941862" lon="12.387279386960351"><ele>6.0</ele><time>2026-04-29T17:57:55.999Z</time></trkpt><trkpt lat="41.81851017504482" lon="12.38701963009389"><ele>6.0</ele><time>2026-04-29T17:57:56.999Z</time></trkpt><trkpt lat="41.81845378563447" lon="12.38675013876467"><ele>6.0</ele><time>2026-04-29T17:57:57.999Z</time></trkpt><trkpt lat="41.81841574815375" lon="12.386476951538993"><ele>6.333333333333334</ele><time>2026-04-29T17:57:58.999Z</time></trkpt><trkpt lat="41.81839275581013" lon="12.386193268147082"><ele>6.666666666666667</ele><time>2026-04-29T17:57:59.999Z</time></trkpt><trkpt lat="41.818368912385324" lon="12.385896288847817"><ele>7.0</ele><time>2026-04-29T17:58:00.999Z</time></trkpt><trkpt lat="41.81834023113835" lon="12.385588175298997"><ele>7.0</ele><time>2026-04-29T17:58:01.999Z</time></trkpt><trkpt lat="41.81830500947118" lon="12.385271149726119"><ele>7.0</ele><time>2026-04-29T17:58:02.999Z</time></trkpt><trkpt lat="41.81826698036389" lon="12.384942696956244"><ele>7.5</ele><time>2026-04-29T17:58:03.999Z</time></trkpt><trkpt lat="41.818228022040145" lon="12.384612177323842"><ele>8.0</ele><time>2026-04-29T17:58:04.999Z</time></trkpt><trkpt lat="41.818191796037965" lon="12.384289362552774"><ele>8.0</ele><time>2026-04-29T17:58:05.999Z</time></trkpt><trkpt lat="41.818160968293675" lon="12.383988482653729"><ele>8.0</ele><time>2026-04-29T17:58:06.999Z</time></trkpt><trkpt lat="41.818130934834194" lon="12.383701834553428"><ele>8.0</ele><time>2026-04-29T17:58:07.999Z</time></trkpt><trkpt lat="41.81809891418617" lon="12.383407473061437"><ele>7.333333333333333</ele><time>2026-04-29T17:58:08.999Z</time></trkpt><trkpt lat="41.818067106771785" lon="12.383110316469162"><ele>6.666666666666666</ele><time>2026-04-29T17:58:09.999Z</time></trkpt><trkpt lat="41.81804075251708" lon="12.382811228776049"><ele>6.0</ele><time>2026-04-29T17:58:10.999Z</time></trkpt><trkpt lat="41.81801573930904" lon="12.382511682537436"><ele>6.0</ele><time>2026-04-29T17:58:11.999Z</time></trkpt><trkpt lat="41.81798788579088" lon="12.382215340433666"><ele>6.0</ele><time>2026-04-29T17:58:12.999Z</time></trkpt><trkpt lat="41.81796216266383" lon="12.381926342771447"><ele>6.0</ele><time>2026-04-29T17:58:13.999Z</time></trkpt><trkpt lat="41.81793683950084" lon="12.381651330260395"><ele>6.333333333333334</ele><time>2026-04-29T17:58:14.999Z</time></trkpt><trkpt lat="41.817912416012824" lon="12.381384409758818"><ele>6.666666666666667</ele><time>2026-04-29T17:58:15.999Z</time></trkpt><trkpt lat="41.817891421064495" lon="12.381114472765917"><ele>7.0</ele><time>2026-04-29T17:58:16.999Z</time></trkpt><trkpt lat="41.81787053660614" lon="12.380827945416483"><ele>5.5</ele><time>2026-04-29T17:58:17.999Z</time></trkpt><trkpt lat="41.8178477425004" lon="12.380526274369169"><ele>4.0</ele><time>2026-04-29T17:58:18.999Z</time></trkpt><trkpt lat="41.81782237908287" lon="12.380215880659456"><ele>4.0</ele><time>2026-04-29T17:58:19.999Z</time></trkpt><trkpt lat="41.817794868208246" lon="12.379893320704594"><ele>4.0</ele><time>2026-04-29T17:58:20.999Z</time></trkpt><trkpt lat="41.81776715796024" lon="12.379563394733728"><ele>4.5</ele><time>2026-04-29T17:58:21.999Z</time></trkpt><trkpt lat="41.81773799466642" lon="12.379227088742736"><ele>5.0</ele><time>2026-04-29T17:58:22.999Z</time></trkpt><trkpt lat="41.817709207563034" lon="12.378887186560762"><ele>4.0</ele><time>2026-04-29T17:58:23.999Z</time></trkpt><trkpt lat="41.81768128763114" lon="12.378543436410983"><ele>3.0</ele><time>2026-04-29T17:58:24.999Z</time></trkpt><trkpt lat="41.8176551198494" lon="12.378195824213911"><ele>4.5</ele><time>2026-04-29T17:58:25.999Z</time></trkpt><trkpt lat="41.81763381723585" lon="12.377840761467366"><ele>6.0</ele><time>2026-04-29T17:58:26.999Z</time></trkpt><trkpt lat="41.81759976283244" lon="12.377490788264192"><ele>5.5</ele><time>2026-04-29T17:58:27.999Z</time></trkpt><trkpt lat="41.81758074191613" lon="12.377127835093539"><ele>5.0</ele><time>2026-04-29T17:58:29Z</time></trkpt><trkpt lat="41.81756409026511" lon="12.376753627475594"><ele>5.0</ele><time>2026-04-29T17:58:30Z</time></trkpt><trkpt lat="41.81755408363212" lon="12.376372918944787"><ele>5.0</ele><time>2026-04-29T17:58:31Z</time></trkpt><trkpt lat="41.81754828702285" lon="12.375995849519036"><ele>5.0</ele><time>2026-04-29T17:58:32Z</time></trkpt><trkpt lat="41.817543562804694" lon="12.375618760851761"><ele>5.0</ele><time>2026-04-29T17:58:33Z</time></trkpt><trkpt lat="41.81754220763723" lon="12.37524500429227"><ele>4.0</ele><time>2026-04-29T17:58:34Z</time></trkpt><trkpt lat="41.81753472909315" lon="12.374874129874618"><ele>3.0</ele><time>2026-04-29T17:58:35Z</time></trkpt><trkpt lat="41.81752096899804" lon="12.374504569006296"><ele>3.0</ele><time>2026-04-29T17:58:36Z</time></trkpt><trkpt lat="41.817502476811754" lon="12.374137770544099"><ele>3.0</ele><time>2026-04-29T17:58:37Z</time></trkpt><trkpt lat="41.81747430286345" lon="12.373776336348293"><ele>3.0</ele><time>2026-04-29T17:58:38Z</time></trkpt><trkpt lat="41.81743918863646" lon="12.373417857065542"><ele>3.0</ele><time>2026-04-29T17:58:39Z</time></trkpt><trkpt lat="41.817398828192644" lon="12.373054616122094"><ele>3.5</ele><time>2026-04-29T17:58:40Z</time></trkpt><trkpt lat="41.81736655891043" lon="12.372682047946277"><ele>4.0</ele><time>2026-04-29T17:58:41Z</time></trkpt><trkpt lat="41.81731436264421" lon="12.3723060362409"><ele>3.5</ele><time>2026-04-29T17:58:42Z</time></trkpt><trkpt lat="41.817262331064484" lon="12.371924668855872"><ele>3.0</ele><time>2026-04-29T17:58:43Z</time></trkpt><trkpt lat="41.817210466931" lon="12.371536764227804"><ele>3.5</ele><time>2026-04-29T17:58:44Z</time></trkpt><trkpt lat="41.81715823996656" lon="12.371138905801667"><ele>4.0</ele><time>2026-04-29T17:58:45Z</time></trkpt><trkpt lat="41.81710617801696" lon="12.370742481863207"><ele>4.0</ele><time>2026-04-29T17:58:46Z</time></trkpt><trkpt lat="41.81705503951558" lon="12.370345075337786"><ele>4.0</ele><time>2026-04-29T17:58:47Z</time></trkpt><trkpt lat="41.817004345213896" lon="12.369946320017798"><ele>4.0</ele><time>2026-04-29T17:58:48Z</time></trkpt><trkpt lat="41.81695509631908" lon="12.36954981752215"><ele>4.0</ele><time>2026-04-29T17:58:49Z</time></trkpt><trkpt lat="41.816908511431734" lon="12.369162288160528"><ele>4.0</ele><time>2026-04-29T17:58:50Z</time></trkpt><trkpt lat="41.81686102897709" lon="12.368770770086623"><ele>4.0</ele><time>2026-04-29T17:58:51Z</time></trkpt><trkpt lat="41.81681508847024" lon="12.368384302213112"><ele>4.5</ele><time>2026-04-29T17:58:52Z</time></trkpt><trkpt lat="41.81677100117562" lon="12.368000915329533"><ele>5.0</ele><time>2026-04-29T17:58:53Z</time></trkpt><trkpt lat="41.8167308049246" lon="12.367611662328672"><ele>5.0</ele><time>2026-04-29T17:58:54Z</time></trkpt><trkpt lat="41.816691601200894" lon="12.367223963927115"><ele>5.0</ele><time>2026-04-29T17:58:55Z</time></trkpt><trkpt lat="41.81665242803618" lon="12.366837190802904"><ele>5.0</ele><time>2026-04-29T17:58:56Z</time></trkpt><trkpt lat="41.8166139294872" lon="12.366448167756797"><ele>5.0</ele><time>2026-04-29T17:58:57Z</time></trkpt><trkpt lat="41.816575704572124" lon="12.36605971875374"><ele>5.5</ele><time>2026-04-29T17:58:58Z</time></trkpt><trkpt lat="41.81653917385226" lon="12.365670566042795"><ele>6.0</ele><time>2026-04-29T17:58:59Z</time></trkpt><trkpt lat="41.81650348813099" lon="12.365280056766126"><ele>6.5</ele><time>2026-04-29T17:59:00Z</time></trkpt><trkpt lat="41.81646796085913" lon="12.364888338827942"><ele>7.0</ele><time>2026-04-29T17:59:01Z</time></trkpt><trkpt lat="41.816432958254865" lon="12.364496880639017"><ele>7.0</ele><time>2026-04-29T17:59:02Z</time></trkpt><trkpt lat="41.81639716480934" lon="12.364108533119508"><ele>7.0</ele><time>2026-04-29T17:59:03Z</time></trkpt><trkpt lat="41.81636024631788" lon="12.363721265018103"><ele>7.0</ele><time>2026-04-29T17:59:04Z</time></trkpt><trkpt lat="41.81632460059903" lon="12.36333674163145"><ele>7.0</ele><time>2026-04-29T17:59:05Z</time></trkpt><trkpt lat="41.8162896825237" lon="12.362956775550737"><ele>7.0</ele><time>2026-04-29T17:59:06Z</time></trkpt><trkpt lat="41.81625679241461" lon="12.36257854483841"><ele>7.0</ele><time>2026-04-29T17:59:07Z</time></trkpt><trkpt lat="41.81622248208716" lon="12.362204721293239"><ele>6.5</ele><time>2026-04-29T17:59:08Z</time></trkpt><trkpt lat="41.816186984560744" lon="12.361829804450531"><ele>6.0</ele><time>2026-04-29T17:59:09Z</time></trkpt><trkpt lat="41.8161510722811" lon="12.361445342964174"><ele>6.0</ele><time>2026-04-29T17:59:10Z</time></trkpt><trkpt lat="41.8161144117522" lon="12.361047192384973"><ele>6.0</ele><time>2026-04-29T17:59:11Z</time></trkpt><trkpt lat="41.81607933389968" lon="12.360642771598961"><ele>6.5</ele><time>2026-04-29T17:59:12Z</time></trkpt><trkpt lat="41.816042934099166" lon="12.360239904026947"><ele>7.0</ele><time>2026-04-29T17:59:13Z</time></trkpt><trkpt lat="41.81600581679459" lon="12.35982872216206"><ele>5.5</ele><time>2026-04-29T17:59:14Z</time></trkpt><trkpt lat="41.81596682263813" lon="12.35941350926323"><ele>4.0</ele><time>2026-04-29T17:59:15Z</time></trkpt><trkpt lat="41.815927434810476" lon="12.358995521047564"><ele>4.5</ele><time>2026-04-29T17:59:16Z</time></trkpt><trkpt lat="41.8158899235587" lon="12.358587202078512"><ele>5.0</ele><time>2026-04-29T17:59:17Z</time></trkpt><trkpt lat="41.815852824744276" lon="12.358169091688403"><ele>5.5</ele><time>2026-04-29T17:59:18Z</time></trkpt><trkpt lat="41.81581454865496" lon="12.357740594378711"><ele>6.0</ele><time>2026-04-29T17:59:19Z</time></trkpt><trkpt lat="41.815777187503514" lon="12.357306825985733"><ele>5.0</ele><time>2026-04-29T17:59:20Z</time></trkpt><trkpt lat="41.8157406980124" lon="12.356869117915808"><ele>4.0</ele><time>2026-04-29T17:59:21Z</time></trkpt><trkpt lat="41.81570381632431" lon="12.356423285895012"><ele>3.5</ele><time>2026-04-29T17:59:22Z</time></trkpt><trkpt lat="41.815662240551895" lon="12.355977171972727"><ele>3.0</ele><time>2026-04-29T17:59:23Z</time></trkpt><trkpt lat="41.815619259547425" lon="12.355526379867529"><ele>3.0</ele><time>2026-04-29T17:59:24Z</time></trkpt><trkpt lat="41.815578150379714" lon="12.355068171332944"><ele>3.0</ele><time>2026-04-29T17:59:25Z</time></trkpt><trkpt lat="41.81553698036765" lon="12.354604203412615"><ele>4.0</ele><time>2026-04-29T17:59:26Z</time></trkpt><trkpt lat="41.815494476651835" lon="12.354135441977562"><ele>5.0</ele><time>2026-04-29T17:59:27Z</time></trkpt><trkpt lat="41.815456440451264" lon="12.353680044947394"><ele>5.0</ele><time>2026-04-29T17:59:28Z</time></trkpt><trkpt lat="41.81541647087529" lon="12.353261971874419"><ele>5.0</ele><time>2026-04-29T17:59:29Z</time></trkpt><trkpt lat="41.815379366164514" lon="12.352869128089129"><ele>5.0</ele><time>2026-04-29T17:59:30Z</time></trkpt><trkpt lat="41.81534158117508" lon="12.35248506929812"><ele>5.0</ele><time>2026-04-29T17:59:31Z</time></trkpt><trkpt lat="41.81530551388447" lon="12.35210403568416"><ele>5.0</ele><time>2026-04-29T17:59:32Z</time></trkpt><trkpt lat="41.815271154635944" lon="12.351719495204291"><ele>5.0</ele><time>2026-04-29T17:59:32.999Z</time></trkpt><trkpt lat="41.81523754930994" lon="12.35133933419415"><ele>4.5</ele><time>2026-04-29T17:59:33.999Z</time></trkpt><trkpt lat="41.815206059705766" lon="12.350959159612824"><ele>4.0</ele><time>2026-04-29T17:59:34.999Z</time></trkpt><trkpt lat="41.81517593481511" lon="12.350580402818384"><ele>5.0</ele><time>2026-04-29T17:59:35.999Z</time></trkpt><trkpt lat="41.815144879531054" lon="12.350202212232272"><ele>6.0</ele><time>2026-04-29T17:59:36.999Z</time></trkpt><trkpt lat="41.81511245955521" lon="12.349825038046154"><ele>5.5</ele><time>2026-04-29T17:59:37.999Z</time></trkpt><trkpt lat="41.81507850149171" lon="12.349449762448481"><ele>5.0</ele><time>2026-04-29T17:59:38.999Z</time></trkpt><trkpt lat="41.81504328711617" lon="12.349078035095545"><ele>5.0</ele><time>2026-04-29T17:59:39.999Z</time></trkpt><trkpt lat="41.815007268030946" lon="12.348703219907923"><ele>5.0</ele><time>2026-04-29T17:59:40.999Z</time></trkpt><trkpt lat="41.81497383548949" lon="12.34832838653694"><ele>6.0</ele><time>2026-04-29T17:59:41.999Z</time></trkpt><trkpt lat="41.8149415036382" lon="12.347953174109545"><ele>7.0</ele><time>2026-04-29T17:59:42.999Z</time></trkpt><trkpt lat="41.81490709348776" lon="12.347577401924788"><ele>6.5</ele><time>2026-04-29T17:59:43.999Z</time></trkpt><trkpt lat="41.81487315115678" lon="12.347202886862979"><ele>6.0</ele><time>2026-04-29T17:59:44.999Z</time></trkpt><trkpt lat="41.814838388339616" lon="12.346829474699078"><ele>6.0</ele><time>2026-04-29T17:59:45.999Z</time></trkpt><trkpt lat="41.81480363286879" lon="12.346475048548358"><ele>6.0</ele><time>2026-04-29T17:59:46.999Z</time></trkpt><trkpt lat="41.81476973711035" lon="12.346145838351985"><ele>6.0</ele><time>2026-04-29T17:59:47.999Z</time></trkpt><trkpt lat="41.814738266640596" lon="12.345823675156915"><ele>6.0</ele><time>2026-04-29T17:59:48.999Z</time></trkpt><trkpt lat="41.81471101991316" lon="12.345498802647215"><ele>6.0</ele><time>2026-04-29T17:59:49.999Z</time></trkpt><trkpt lat="41.81468037867191" lon="12.345170365558754"><ele>6.0</ele><time>2026-04-29T17:59:50.999Z</time></trkpt><trkpt lat="41.814651637492865" lon="12.344838888070898"><ele>6.5</ele><time>2026-04-29T17:59:51.999Z</time></trkpt><trkpt lat="41.81462317954223" lon="12.344508757833784"><ele>7.0</ele><time>2026-04-29T17:59:52.999Z</time></trkpt><trkpt lat="41.814595518422244" lon="12.344183463855211"><ele>6.5</ele><time>2026-04-29T17:59:53.999Z</time></trkpt><trkpt lat="41.814566001136946" lon="12.343860703546728"><ele>6.0</ele><time>2026-04-29T17:59:54.999Z</time></trkpt><trkpt lat="41.81453635863309" lon="12.343539907937185"><ele>6.0</ele><time>2026-04-29T17:59:55.999Z</time></trkpt><trkpt lat="41.8145084559647" lon="12.343235457247765"><ele>6.0</ele><time>2026-04-29T17:59:56.999Z</time></trkpt><trkpt lat="41.81448258993232" lon="12.342954235030726"><ele>6.0</ele><time>2026-04-29T17:59:57.999Z</time></trkpt><trkpt lat="41.814459625134475" lon="12.342686284988734"><ele>5.333333333333333</ele><time>2026-04-29T17:59:58.999Z</time></trkpt><trkpt lat="41.81443568437098" lon="12.342409619536998"><ele>4.666666666666666</ele><time>2026-04-29T17:59:59.999Z</time></trkpt><trkpt lat="41.81440939351027" lon="12.342129764165726"><ele>4.0</ele><time>2026-04-29T18:00:00.999Z</time></trkpt><trkpt lat="41.81438462915139" lon="12.341845623066218"><ele>4.0</ele><time>2026-04-29T18:00:01.999Z</time></trkpt><trkpt lat="41.81435987812677" lon="12.34155366872266"><ele>4.0</ele><time>2026-04-29T18:00:02.999Z</time></trkpt><trkpt lat="41.81433332640187" lon="12.341256361053581"><ele>4.0</ele><time>2026-04-29T18:00:03.999Z</time></trkpt><trkpt lat="41.81430302265768" lon="12.340948491621544"><ele>6.0</ele><time>2026-04-29T18:00:04.999Z</time></trkpt><trkpt lat="41.81427090782467" lon="12.340632131846244"><ele>8.0</ele><time>2026-04-29T18:00:05.999Z</time></trkpt><trkpt lat="41.814238297251556" lon="12.340313721529984"><ele>8.0</ele><time>2026-04-29T18:00:06.999Z</time></trkpt><trkpt lat="41.81419746906532" lon="12.339995216935495"><ele>8.0</ele><time>2026-04-29T18:00:07.999Z</time></trkpt><trkpt lat="41.81414672560725" lon="12.339680371917591"><ele>8.0</ele><time>2026-04-29T18:00:08.999Z</time></trkpt><trkpt lat="41.814089045802945" lon="12.339367768232202"><ele>8.0</ele><time>2026-04-29T18:00:09.999Z</time></trkpt><trkpt lat="41.814032011086816" lon="12.339056870338878"><ele>8.0</ele><time>2026-04-29T18:00:10.999Z</time></trkpt><trkpt lat="41.8139776544858" lon="12.338745713887763"><ele>8.0</ele><time>2026-04-29T18:00:11.999Z</time></trkpt><trkpt lat="41.81392900759365" lon="12.338430624139283"><ele>8.0</ele><time>2026-04-29T18:00:12.999Z</time></trkpt><trkpt lat="41.81388932176817" lon="12.338114139033156"><ele>8.0</ele><time>2026-04-29T18:00:13.999Z</time></trkpt><trkpt lat="41.813860195783974" lon="12.337796064308929"><ele>7.0</ele><time>2026-04-29T18:00:14.999Z</time></trkpt><trkpt lat="41.8138357679282" lon="12.33747202492747"><ele>6.0</ele><time>2026-04-29T18:00:15.999Z</time></trkpt><trkpt lat="41.81381013190564" lon="12.337149657542097"><ele>6.0</ele><time>2026-04-29T18:00:16.999Z</time></trkpt><trkpt lat="41.8137854928739" lon="12.336830144796702"><ele>6.0</ele><time>2026-04-29T18:00:17.999Z</time></trkpt><trkpt lat="41.813764855582434" lon="12.336513878967148"><ele>6.0</ele><time>2026-04-29T18:00:18.999Z</time></trkpt><trkpt lat="41.81374846257557" lon="12.336203966172615"><ele>6.0</ele><time>2026-04-29T18:00:19.999Z</time></trkpt><trkpt lat="41.81373715466317" lon="12.335896509982025"><ele>6.0</ele><time>2026-04-29T18:00:20.999Z</time></trkpt><trkpt lat="41.81373057432657" lon="12.335592946129387"><ele>6.0</ele><time>2026-04-29T18:00:21.999Z</time></trkpt><trkpt lat="41.81368385915387" lon="12.33530189216242"><ele>6.0</ele><time>2026-04-29T18:00:22.999Z</time></trkpt><trkpt lat="41.813680022676586" lon="12.33505339579729"><ele>5.333333333333333</ele><time>2026-04-29T18:00:23.999Z</time></trkpt><trkpt lat="41.813669011550104" lon="12.334829887207409"><ele>4.666666666666666</ele><time>2026-04-29T18:00:24.999Z</time></trkpt><trkpt lat="41.813650780437335" lon="12.334608854481562"><ele>4.0</ele><time>2026-04-29T18:00:25.999Z</time></trkpt><trkpt lat="41.81362690031448" lon="12.334377220860855"><ele>4.0</ele><time>2026-04-29T18:00:26.999Z</time></trkpt><trkpt lat="41.813593177625805" lon="12.334148532502455"><ele>4.0</ele><time>2026-04-29T18:00:27.999Z</time></trkpt><trkpt lat="41.813553909220175" lon="12.333908346250794"><ele>4.0</ele><time>2026-04-29T18:00:28.999Z</time></trkpt><trkpt lat="41.81351472524655" lon="12.333658839347779"><ele>4.333333333333333</ele><time>2026-04-29T18:00:29.999Z</time></trkpt><trkpt lat="41.8134779031276" lon="12.33339872444966"><ele>4.666666666666667</ele><time>2026-04-29T18:00:30.999Z</time></trkpt><trkpt lat="41.81345400725107" lon="12.333126088245212"><ele>5.0</ele><time>2026-04-29T18:00:31.999Z</time></trkpt><trkpt lat="41.81343768668814" lon="12.332857621525234"><ele>5.0</ele><time>2026-04-29T18:00:32.999Z</time></trkpt><trkpt lat="41.81342379151165" lon="12.332599970273936"><ele>5.0</ele><time>2026-04-29T18:00:33.999Z</time></trkpt><trkpt lat="41.81349743400047" lon="12.332319621173028"><ele>5.0</ele><time>2026-04-29T18:00:35Z</time></trkpt><trkpt lat="41.81353122594596" lon="12.332042338044824"><ele>4.0</ele><time>2026-04-29T18:00:36Z</time></trkpt><trkpt lat="41.81352698907436" lon="12.331753196314413"><ele>3.0</ele><time>2026-04-29T18:00:37Z</time></trkpt><trkpt lat="41.81351775281477" lon="12.331453404330373"><ele>2.0</ele><time>2026-04-29T18:00:38Z</time></trkpt><trkpt lat="41.81350477352272" lon="12.331144519965466"><ele>3.0</ele><time>2026-04-29T18:00:39Z</time></trkpt><trkpt lat="41.81348843024695" lon="12.330836617127202"><ele>4.0</ele><time>2026-04-29T18:00:40Z</time></trkpt><trkpt lat="41.81346939526576" lon="12.330513857862929"><ele>4.0</ele><time>2026-04-29T18:00:41Z</time></trkpt><trkpt lat="41.81342420894876" lon="12.330185044785095"><ele>4.0</ele><time>2026-04-29T18:00:42Z</time></trkpt><trkpt lat="41.81338957750336" lon="12.329845795728156"><ele>3.0</ele><time>2026-04-29T18:00:43Z</time></trkpt><trkpt lat="41.81335491327288" lon="12.329501672445978"><ele>2.0</ele><time>2026-04-29T18:00:44Z</time></trkpt><trkpt lat="41.81332070288295" lon="12.329157888140195"><ele>1.5</ele><time>2026-04-29T18:00:45Z</time></trkpt><trkpt lat="41.813287715245124" lon="12.328820879002048"><ele>1.0</ele><time>2026-04-29T18:00:46Z</time></trkpt><trkpt lat="41.813256871171426" lon="12.328497608195525"><ele>1.0</ele><time>2026-04-29T18:00:47Z</time></trkpt><trkpt lat="41.8132296871156" lon="12.328204587675776"><ele>1.0</ele><time>2026-04-29T18:00:48Z</time></trkpt><trkpt lat="41.81320573114674" lon="12.327939124767074"><ele>1.0</ele><time>2026-04-29T18:00:49Z</time></trkpt><trkpt lat="41.813207573228254" lon="12.327693116437748"><ele>1.0</ele><time>2026-04-29T18:00:50Z</time></trkpt><trkpt lat="41.81318484593333" lon="12.327479434756043"><ele>1.0</ele><time>2026-04-29T18:00:51Z</time></trkpt><trkpt lat="41.81315628429998" lon="12.3273038318333"><ele>1.0</ele><time>2026-04-29T18:00:52Z</time></trkpt><trkpt lat="41.81310077488234" lon="12.327142598672019"><ele>1.0</ele><time>2026-04-29T18:00:53Z</time></trkpt><trkpt lat="41.813001205941674" lon="12.327005502757109"><ele>2.0</ele><time>2026-04-29T18:00:54Z</time></trkpt><trkpt lat="41.812909592404765" lon="12.326846190628935"><ele>3.0</ele><time>2026-04-29T18:00:55Z</time></trkpt><trkpt lat="41.81282125347741" lon="12.326675674712353"><ele>4.0</ele><time>2026-04-29T18:00:56Z</time></trkpt><trkpt lat="41.812743053516144" lon="12.326501140094809"><ele>4.0</ele><time>2026-04-29T18:00:57Z</time></trkpt><trkpt lat="41.81269572056832" lon="12.326252827293171"><ele>4.0</ele><time>2026-04-29T18:00:58Z</time></trkpt><trkpt lat="41.81267390813499" lon="12.326012959864538"><ele>4.0</ele><time>2026-04-29T18:00:59Z</time></trkpt><trkpt lat="41.81265086791423" lon="12.325757288627045"><ele>4.666666666666666</ele><time>2026-04-29T18:01:00Z</time></trkpt><trkpt lat="41.8126264966845" lon="12.325487363707534"><ele>5.333333333333333</ele><time>2026-04-29T18:01:01Z</time></trkpt><trkpt lat="41.81260104788952" lon="12.325206911187857"><ele>6.0</ele><time>2026-04-29T18:01:02Z</time></trkpt><trkpt lat="41.81257542778768" lon="12.324924570825894"><ele>6.0</ele><time>2026-04-29T18:01:03Z</time></trkpt><trkpt lat="41.81254880424937" lon="12.324627176397113"><ele>6.0</ele><time>2026-04-29T18:01:04Z</time></trkpt><trkpt lat="41.81252014865843" lon="12.324315294938852"><ele>6.0</ele><time>2026-04-29T18:01:05Z</time></trkpt><trkpt lat="41.81248987459452" lon="12.32398648482091"><ele>6.0</ele><time>2026-04-29T18:01:06Z</time></trkpt><trkpt lat="41.81245849533444" lon="12.323646983922945"><ele>5.5</ele><time>2026-04-29T18:01:07Z</time></trkpt><trkpt lat="41.81242625632111" lon="12.323299523180898"><ele>5.0</ele><time>2026-04-29T18:01:08Z</time></trkpt><trkpt lat="41.812393076366384" lon="12.322941921329372"><ele>5.0</ele><time>2026-04-29T18:01:09Z</time></trkpt><trkpt lat="41.81235917568377" lon="12.322575826534749"><ele>5.0</ele><time>2026-04-29T18:01:10Z</time></trkpt><trkpt lat="41.812339769947265" lon="12.322200305700267"><ele>4.5</ele><time>2026-04-29T18:01:11Z</time></trkpt><trkpt lat="41.81230286371583" lon="12.321820506806882"><ele>4.0</ele><time>2026-04-29T18:01:12Z</time></trkpt><trkpt lat="41.81226706589997" lon="12.321433968603026"><ele>3.5</ele><time>2026-04-29T18:01:13Z</time></trkpt><trkpt lat="41.81223248510779" lon="12.321051387410352"><ele>3.0</ele><time>2026-04-29T18:01:14Z</time></trkpt><trkpt lat="41.81219789515951" lon="12.320661962695171"><ele>2.5</ele><time>2026-04-29T18:01:15Z</time></trkpt><trkpt lat="41.81216218876594" lon="12.320270291109924"><ele>2.0</ele><time>2026-04-29T18:01:16Z</time></trkpt><trkpt lat="41.81212666822225" lon="12.319873495027782"><ele>2.5</ele><time>2026-04-29T18:01:17Z</time></trkpt><trkpt lat="41.81208973219931" lon="12.319474034575807"><ele>3.0</ele><time>2026-04-29T18:01:18Z</time></trkpt><trkpt lat="41.81205215792278" lon="12.319072940000991"><ele>3.0</ele><time>2026-04-29T18:01:19Z</time></trkpt><trkpt lat="41.81201368995572" lon="12.318674380601216"><ele>3.0</ele><time>2026-04-29T18:01:20Z</time></trkpt><trkpt lat="41.81197471320742" lon="12.318283411135354"><ele>1.5</ele><time>2026-04-29T18:01:21Z</time></trkpt><trkpt lat="41.811931396472666" lon="12.317894622392911"><ele>0.0</ele><time>2026-04-29T18:01:22Z</time></trkpt><trkpt lat="41.811886423418684" lon="12.31750770481618"><ele>0.5</ele><time>2026-04-29T18:01:23Z</time></trkpt><trkpt lat="41.81183720107707" lon="12.317130251571337"><ele>1.0</ele><time>2026-04-29T18:01:24Z</time></trkpt><trkpt lat="41.81178535593922" lon="12.31675530836663"><ele>1.5</ele><time>2026-04-29T18:01:25Z</time></trkpt><trkpt lat="41.811733983769514" lon="12.316380023118542"><ele>2.0</ele><time>2026-04-29T18:01:26Z</time></trkpt><trkpt lat="41.811677456487025" lon="12.316006605595296"><ele>2.0</ele><time>2026-04-29T18:01:27Z</time></trkpt><trkpt lat="41.81161682528135" lon="12.315631058046606"><ele>2.0</ele><time>2026-04-29T18:01:28Z</time></trkpt><trkpt lat="41.81155096486599" lon="12.3152493131575"><ele>1.5</ele><time>2026-04-29T18:01:29Z</time></trkpt><trkpt lat="41.8114817172327" lon="12.314869981610782"><ele>1.0</ele><time>2026-04-29T18:01:30Z</time></trkpt><trkpt lat="41.81140898151906" lon="12.314496706817053"><ele>2.5</ele><time>2026-04-29T18:01:31Z</time></trkpt><trkpt lat="41.811328727270045" lon="12.314125291011736"><ele>4.0</ele><time>2026-04-29T18:01:32Z</time></trkpt><trkpt lat="41.81124508617776" lon="12.313759628203066"><ele>4.0</ele><time>2026-04-29T18:01:33Z</time></trkpt><trkpt lat="41.811161630164094" lon="12.313400987627347"><ele>4.0</ele><time>2026-04-29T18:01:34Z</time></trkpt><trkpt lat="41.81107585799036" lon="12.313046339163368"><ele>2.5</ele><time>2026-04-29T18:01:35Z</time></trkpt><trkpt lat="41.810985279064035" lon="12.312691554975714"><ele>1.0</ele><time>2026-04-29T18:01:35.999Z</time></trkpt><trkpt lat="41.81088848126198" lon="12.312334931711915"><ele>2.0</ele><time>2026-04-29T18:01:36.999Z</time></trkpt><trkpt lat="41.81078658179791" lon="12.311972428845989"><ele>3.0</ele><time>2026-04-29T18:01:37.999Z</time></trkpt><trkpt lat="41.810677745105494" lon="12.31160514401414"><ele>4.0</ele><time>2026-04-29T18:01:38.999Z</time></trkpt><trkpt lat="41.810562881625195" lon="12.31123302944362"><ele>5.0</ele><time>2026-04-29T18:01:39.999Z</time></trkpt><trkpt lat="41.8104428605935" lon="12.31086128203632"><ele>4.5</ele><time>2026-04-29T18:01:40.999Z</time></trkpt><trkpt lat="41.810319553711096" lon="12.310482579139407"><ele>4.0</ele><time>2026-04-29T18:01:41.999Z</time></trkpt><trkpt lat="41.81019730568232" lon="12.310105985847967"><ele>4.5</ele><time>2026-04-29T18:01:42.999Z</time></trkpt><trkpt lat="41.81007391453859" lon="12.309738807902574"><ele>5.0</ele><time>2026-04-29T18:01:43.999Z</time></trkpt><trkpt lat="41.809948751181885" lon="12.309379950313943"><ele>5.0</ele><time>2026-04-29T18:01:44.999Z</time></trkpt><trkpt lat="41.80982225459015" lon="12.309021704962719"><ele>5.0</ele><time>2026-04-29T18:01:45.999Z</time></trkpt><trkpt lat="41.80969225630602" lon="12.308671610835633"><ele>5.0</ele><time>2026-04-29T18:01:46.999Z</time></trkpt><trkpt lat="41.80955732138167" lon="12.308328986709327"><ele>5.0</ele><time>2026-04-29T18:01:47.999Z</time></trkpt><trkpt lat="41.80942125465669" lon="12.307981623477886"><ele>4.0</ele><time>2026-04-29T18:01:48.999Z</time></trkpt><trkpt lat="41.80928410266083" lon="12.307640800940362"><ele>3.0</ele><time>2026-04-29T18:01:49.999Z</time></trkpt><trkpt lat="41.80914900930735" lon="12.307320796747735"><ele>2.5</ele><time>2026-04-29T18:01:50.999Z</time></trkpt><trkpt lat="41.809010244034916" lon="12.307002364917688"><ele>2.0</ele><time>2026-04-29T18:01:51.999Z</time></trkpt><trkpt lat="41.808866337242385" lon="12.306687681797642"><ele>2.0</ele><time>2026-04-29T18:01:52.999Z</time></trkpt><trkpt lat="41.808719325660284" lon="12.306374867800058"><ele>2.0</ele><time>2026-04-29T18:01:53.999Z</time></trkpt><trkpt lat="41.80856905220861" lon="12.306060038408527"><ele>2.5</ele><time>2026-04-29T18:01:54.999Z</time></trkpt><trkpt lat="41.80841260965314" lon="12.305744310303075"><ele>3.0</ele><time>2026-04-29T18:01:55.999Z</time></trkpt><trkpt lat="41.808253884584374" lon="12.305430263716879"><ele>3.0</ele><time>2026-04-29T18:01:56.999Z</time></trkpt><trkpt lat="41.80809294966198" lon="12.305116137112156"><ele>3.0</ele><time>2026-04-29T18:01:57.999Z</time></trkpt><trkpt lat="41.807927127126774" lon="12.30480322161139"><ele>3.0</ele><time>2026-04-29T18:01:58.999Z</time></trkpt><trkpt lat="41.80775918192048" lon="12.304488348654932"><ele>3.0</ele><time>2026-04-29T18:01:59.999Z</time></trkpt><trkpt lat="41.807586904980305" lon="12.304175469103932"><ele>3.0</ele><time>2026-04-29T18:02:00.999Z</time></trkpt><trkpt lat="41.807414210072814" lon="12.303871960466473"><ele>3.0</ele><time>2026-04-29T18:02:01.999Z</time></trkpt><trkpt lat="41.807245342885295" lon="12.303573111390682"><ele>3.0</ele><time>2026-04-29T18:02:02.999Z</time></trkpt><trkpt lat="41.80707795697453" lon="12.303278077301252"><ele>3.0</ele><time>2026-04-29T18:02:03.999Z</time></trkpt><trkpt lat="41.806914138355346" lon="12.302986234623294"><ele>3.5</ele><time>2026-04-29T18:02:04.999Z</time></trkpt><trkpt lat="41.80675030834928" lon="12.302694550748274"><ele>4.0</ele><time>2026-04-29T18:02:05.999Z</time></trkpt><trkpt lat="41.806580325658004" lon="12.302395599626594"><ele>3.5</ele><time>2026-04-29T18:02:06.999Z</time></trkpt><trkpt lat="41.80640404672367" lon="12.302089995991382"><ele>3.0</ele><time>2026-04-29T18:02:07.999Z</time></trkpt><trkpt lat="41.806219506231216" lon="12.301775801947684"><ele>3.0</ele><time>2026-04-29T18:02:08.999Z</time></trkpt><trkpt lat="41.80603066398808" lon="12.301454553396747"><ele>3.0</ele><time>2026-04-29T18:02:09.999Z</time></trkpt><trkpt lat="41.80584020306488" lon="12.30112328821079"><ele>3.0</ele><time>2026-04-29T18:02:10.999Z</time></trkpt><trkpt lat="41.80565264044661" lon="12.300786930979344"><ele>3.0</ele><time>2026-04-29T18:02:11.999Z</time></trkpt><trkpt lat="41.805465265250156" lon="12.300445141059187"><ele>3.0</ele><time>2026-04-29T18:02:12.999Z</time></trkpt><trkpt lat="41.80527297487881" lon="12.300096580584654"><ele>3.0</ele><time>2026-04-29T18:02:13.999Z</time></trkpt><trkpt lat="41.80508016289521" lon="12.299749801512789"><ele>3.0</ele><time>2026-04-29T18:02:14.999Z</time></trkpt><trkpt lat="41.80488842652791" lon="12.299405636994583"><ele>3.0</ele><time>2026-04-29T18:02:15.999Z</time></trkpt><trkpt lat="41.804695710585946" lon="12.299065818178276"><ele>3.0</ele><time>2026-04-29T18:02:16.999Z</time></trkpt><trkpt lat="41.804497391637994" lon="12.298720539749315"><ele>3.0</ele><time>2026-04-29T18:02:17.999Z</time></trkpt><trkpt lat="41.804302441910046" lon="12.298374182723327"><ele>3.0</ele><time>2026-04-29T18:02:18.999Z</time></trkpt><trkpt lat="41.80411392459278" lon="12.298032953005489"><ele>3.0</ele><time>2026-04-29T18:02:19.999Z</time></trkpt><trkpt lat="41.803923478858444" lon="12.297688038559036"><ele>3.0</ele><time>2026-04-29T18:02:20.999Z</time></trkpt><trkpt lat="41.80372976986307" lon="12.297346550603999"><ele>3.0</ele><time>2026-04-29T18:02:21.999Z</time></trkpt><trkpt lat="41.80353387893758" lon="12.296998962618282"><ele>3.0</ele><time>2026-04-29T18:02:22.999Z</time></trkpt><trkpt lat="41.80333673983794" lon="12.296650310325612"><ele>3.0</ele><time>2026-04-29T18:02:23.999Z</time></trkpt><trkpt lat="41.80313847911088" lon="12.296301476939222"><ele>2.5</ele><time>2026-04-29T18:02:24.999Z</time></trkpt><trkpt lat="41.80294065039123" lon="12.295953307479747"><ele>2.0</ele><time>2026-04-29T18:02:25.999Z</time></trkpt><trkpt lat="41.80274429567963" lon="12.29560506346955"><ele>3.0</ele><time>2026-04-29T18:02:26.999Z</time></trkpt><trkpt lat="41.80255024482401" lon="12.295253781979564"><ele>4.0</ele><time>2026-04-29T18:02:27.999Z</time></trkpt><trkpt lat="41.80235337952785" lon="12.294898157166683"><ele>3.0</ele><time>2026-04-29T18:02:28.999Z</time></trkpt><trkpt lat="41.80215751215777" lon="12.294544238030754"><ele>2.0</ele><time>2026-04-29T18:02:29.999Z</time></trkpt><trkpt lat="41.801961015616534" lon="12.294192446334558"><ele>2.5</ele><time>2026-04-29T18:02:30.999Z</time></trkpt><trkpt lat="41.80176514250004" lon="12.293846958520723"><ele>3.0</ele><time>2026-04-29T18:02:31.999Z</time></trkpt><trkpt lat="41.801570029107424" lon="12.293497775509332"><ele>3.0</ele><time>2026-04-29T18:02:32.999Z</time></trkpt><trkpt lat="41.80137565119218" lon="12.293150015421563"><ele>3.0</ele><time>2026-04-29T18:02:33.999Z</time></trkpt><trkpt lat="41.80118132886416" lon="12.292804807050887"><ele>3.0</ele><time>2026-04-29T18:02:34.999Z</time></trkpt><trkpt lat="41.80098651783821" lon="12.292460431434883"><ele>3.0</ele><time>2026-04-29T18:02:35.999Z</time></trkpt><trkpt lat="41.80079414038856" lon="12.292122249382208"><ele>3.0</ele><time>2026-04-29T18:02:36.999Z</time></trkpt><trkpt lat="41.80060341563794" lon="12.291781242130684"><ele>3.0</ele><time>2026-04-29T18:02:37.999Z</time></trkpt><trkpt lat="41.800414264674785" lon="12.291440585196193"><ele>3.0</ele><time>2026-04-29T18:02:38.999Z</time></trkpt><trkpt lat="41.80022745284429" lon="12.291103181177046"><ele>3.0</ele><time>2026-04-29T18:02:39.999Z</time></trkpt><trkpt lat="41.80004032502336" lon="12.290768336741841"><ele>2.5</ele><time>2026-04-29T18:02:41Z</time></trkpt><trkpt lat="41.7998558192844" lon="12.290438544007515"><ele>2.0</ele><time>2026-04-29T18:02:42Z</time></trkpt><trkpt lat="41.79967159889451" lon="12.290111364846315"><ele>2.0</ele><time>2026-04-29T18:02:43Z</time></trkpt><trkpt lat="41.79948669645303" lon="12.289786284013843"><ele>2.0</ele><time>2026-04-29T18:02:44Z</time></trkpt><trkpt lat="41.79930116410345" lon="12.289460182649236"><ele>2.0</ele><time>2026-04-29T18:02:45Z</time></trkpt><trkpt lat="41.79911568154301" lon="12.289129112532652"><ele>2.0</ele><time>2026-04-29T18:02:46Z</time></trkpt><trkpt lat="41.79892920719927" lon="12.288801261355783"><ele>2.0</ele><time>2026-04-29T18:02:47Z</time></trkpt><trkpt lat="41.798741526785626" lon="12.288468201621919"><ele>2.0</ele><time>2026-04-29T18:02:48Z</time></trkpt><trkpt lat="41.7985532291136" lon="12.288134593737958"><ele>2.5</ele><time>2026-04-29T18:02:49Z</time></trkpt><trkpt lat="41.79836481161331" lon="12.287800413500811"><ele>3.0</ele><time>2026-04-29T18:02:50Z</time></trkpt><trkpt lat="41.79817574800356" lon="12.287460398401358"><ele>3.5</ele><time>2026-04-29T18:02:51Z</time></trkpt><trkpt lat="41.79798386378224" lon="12.287117413930453"><ele>4.0</ele><time>2026-04-29T18:02:52Z</time></trkpt><trkpt lat="41.79778748225321" lon="12.286767942660338"><ele>3.0</ele><time>2026-04-29T18:02:53Z</time></trkpt><trkpt lat="41.79759171288956" lon="12.286418887782935"><ele>2.0</ele><time>2026-04-29T18:02:54Z</time></trkpt><trkpt lat="41.797398159789594" lon="12.286069064496148"><ele>2.0</ele><time>2026-04-29T18:02:55Z</time></trkpt><trkpt lat="41.797201939412375" lon="12.285716839540306"><ele>2.0</ele><time>2026-04-29T18:02:56Z</time></trkpt><trkpt lat="41.79700274149902" lon="12.285361463466359"><ele>2.5</ele><time>2026-04-29T18:02:57Z</time></trkpt><trkpt lat="41.79680352003657" lon="12.285000931671242"><ele>3.0</ele><time>2026-04-29T18:02:58Z</time></trkpt><trkpt lat="41.796616002800974" lon="12.284661539601798"><ele>3.0</ele><time>2026-04-29T18:02:59Z</time></trkpt><trkpt lat="41.79643137562413" lon="12.284330787506647"><ele>3.0</ele><time>2026-04-29T18:03:00Z</time></trkpt><trkpt lat="41.79624277156202" lon="12.283991173161361"><ele>2.5</ele><time>2026-04-29T18:03:01Z</time></trkpt><trkpt lat="41.79605010811886" lon="12.283647959753747"><ele>2.0</ele><time>2026-04-29T18:03:02Z</time></trkpt><trkpt lat="41.79585589710153" lon="12.283304478034653"><ele>2.0</ele><time>2026-04-29T18:03:03Z</time></trkpt><trkpt lat="41.795659827197966" lon="12.282956129719164"><ele>2.0</ele><time>2026-04-29T18:03:04Z</time></trkpt><trkpt lat="41.795465992117336" lon="12.282608837466583"><ele>2.0</ele><time>2026-04-29T18:03:05Z</time></trkpt><trkpt lat="41.795276225864946" lon="12.282264737685871"><ele>2.0</ele><time>2026-04-29T18:03:06Z</time></trkpt><trkpt lat="41.79508921444465" lon="12.281928443647304"><ele>2.0</ele><time>2026-04-29T18:03:07Z</time></trkpt><trkpt lat="41.79490522562054" lon="12.281599117223191"><ele>2.0</ele><time>2026-04-29T18:03:08Z</time></trkpt><trkpt lat="41.7947223095484" lon="12.281270959559532"><ele>2.0</ele><time>2026-04-29T18:03:09Z</time></trkpt><trkpt lat="41.7945399683348" lon="12.280944247612979"><ele>2.0</ele><time>2026-04-29T18:03:10Z</time></trkpt><trkpt lat="41.794357482862665" lon="12.280615685393455"><ele>3.0</ele><time>2026-04-29T18:03:11Z</time></trkpt><trkpt lat="41.79417293273432" lon="12.280286178136022"><ele>4.0</ele><time>2026-04-29T18:03:12Z</time></trkpt><trkpt lat="41.79398536575106" lon="12.27995273729952"><ele>3.5</ele><time>2026-04-29T18:03:13Z</time></trkpt><trkpt lat="41.793795263150386" lon="12.279617192477781"><ele>3.0</ele><time>2026-04-29T18:03:14Z</time></trkpt><trkpt lat="41.79360262337307" lon="12.279276565272703"><ele>3.0</ele><time>2026-04-29T18:03:15Z</time></trkpt><trkpt lat="41.79340961777509" lon="12.278933621041524"><ele>3.0</ele><time>2026-04-29T18:03:16Z</time></trkpt><trkpt lat="41.79321658578866" lon="12.278589960845627"><ele>3.0</ele><time>2026-04-29T18:03:17Z</time></trkpt><trkpt lat="41.7930236916748" lon="12.27824650857598"><ele>3.0</ele><time>2026-04-29T18:03:18Z</time></trkpt><trkpt lat="41.79283271806334" lon="12.277902629338858"><ele>2.5</ele><time>2026-04-29T18:03:19Z</time></trkpt><trkpt lat="41.79264208294862" lon="12.277562454691747"><ele>2.0</ele><time>2026-04-29T18:03:20Z</time></trkpt><trkpt lat="41.79245233962698" lon="12.277224599434346"><ele>2.0</ele><time>2026-04-29T18:03:21Z</time></trkpt><trkpt lat="41.79226533216034" lon="12.2768863898309"><ele>2.0</ele><time>2026-04-29T18:03:22Z</time></trkpt><trkpt lat="41.792078466431086" lon="12.276548225133663"><ele>2.0</ele><time>2026-04-29T18:03:23Z</time></trkpt><trkpt lat="41.79189385055997" lon="12.276210332534978"><ele>2.0</ele><time>2026-04-29T18:03:24Z</time></trkpt><trkpt lat="41.79170832805724" lon="12.275872202674469"><ele>1.5</ele><time>2026-04-29T18:03:25Z</time></trkpt><trkpt lat="41.79152544809492" lon="12.275533972698984"><ele>1.0</ele><time>2026-04-29T18:03:26Z</time></trkpt><trkpt lat="41.79134233622509" lon="12.275203824003402"><ele>1.0</ele><time>2026-04-29T18:03:27Z</time></trkpt><trkpt lat="41.79116353091959" lon="12.274875053921138"><ele>1.0</ele><time>2026-04-29T18:03:28Z</time></trkpt><trkpt lat="41.79098599492936" lon="12.274552407900213"><ele>1.5</ele><time>2026-04-29T18:03:29Z</time></trkpt><trkpt lat="41.79080774047531" lon="12.274230478542151"><ele>2.0</ele><time>2026-04-29T18:03:30Z</time></trkpt><trkpt lat="41.790630004997055" lon="12.273907829325651"><ele>2.0</ele><time>2026-04-29T18:03:31Z</time></trkpt><trkpt lat="41.790455602868285" lon="12.273584680095897"><ele>2.0</ele><time>2026-04-29T18:03:32Z</time></trkpt><trkpt lat="41.79028594121577" lon="12.273255497783612"><ele>2.0</ele><time>2026-04-29T18:03:33Z</time></trkpt><trkpt lat="41.79012103391069" lon="12.27291944311056"><ele>2.0</ele><time>2026-04-29T18:03:34Z</time></trkpt><trkpt lat="41.78995942098155" lon="12.272575710495786"><ele>3.0</ele><time>2026-04-29T18:03:35Z</time></trkpt><trkpt lat="41.78980197527381" lon="12.272229373239554"><ele>4.0</ele><time>2026-04-29T18:03:36Z</time></trkpt><trkpt lat="41.789649599061704" lon="12.271881463430047"><ele>4.0</ele><time>2026-04-29T18:03:37Z</time></trkpt><trkpt lat="41.789497156262854" lon="12.271530547655665"><ele>4.0</ele><time>2026-04-29T18:03:38Z</time></trkpt><trkpt lat="41.78934613152202" lon="12.271181156541045"><ele>3.0</ele><time>2026-04-29T18:03:38.999Z</time></trkpt><trkpt lat="41.7891943863152" lon="12.270839949041173"><ele>2.0</ele><time>2026-04-29T18:03:39.999Z</time></trkpt><trkpt lat="41.78903969776879" lon="12.270498743063312"><ele>2.0</ele><time>2026-04-29T18:03:40.999Z</time></trkpt><trkpt lat="41.78888534149382" lon="12.270154812991512"><ele>2.0</ele><time>2026-04-29T18:03:41.999Z</time></trkpt><trkpt lat="41.78872849607908" lon="12.269810258811173"><ele>1.5</ele><time>2026-04-29T18:03:42.999Z</time></trkpt><trkpt lat="41.788571011292795" lon="12.269461819980934"><ele>1.0</ele><time>2026-04-29T18:03:43.999Z</time></trkpt><trkpt lat="41.788414590006205" lon="12.269112941965941"><ele>3.0</ele><time>2026-04-29T18:03:44.999Z</time></trkpt><trkpt lat="41.78826098188948" lon="12.268767386870975"><ele>5.0</ele><time>2026-04-29T18:03:45.999Z</time></trkpt><trkpt lat="41.78810967849648" lon="12.268430667815776"><ele>5.0</ele><time>2026-04-29T18:03:46.999Z</time></trkpt><trkpt lat="41.787971153848574" lon="12.268115709676778"><ele>5.0</ele><time>2026-04-29T18:03:47.999Z</time></trkpt><trkpt lat="41.78783631587235" lon="12.267808997512722"><ele>5.0</ele><time>2026-04-29T18:03:48.999Z</time></trkpt><trkpt lat="41.78770130231849" lon="12.267504051848697"><ele>5.0</ele><time>2026-04-29T18:03:49.999Z</time></trkpt><trkpt lat="41.78756680523986" lon="12.267208360364602"><ele>5.0</ele><time>2026-04-29T18:03:50.999Z</time></trkpt><trkpt lat="41.787435099147785" lon="12.266915144100308"><ele>5.0</ele><time>2026-04-29T18:03:51.999Z</time></trkpt><trkpt lat="41.78730401703939" lon="12.266623090762273"><ele>4.5</ele><time>2026-04-29T18:03:52.999Z</time></trkpt><trkpt lat="41.787176196676455" lon="12.266328708130331"><ele>4.0</ele><time>2026-04-29T18:03:53.999Z</time></trkpt><trkpt lat="41.78704691999102" lon="12.266033569790242"><ele>4.0</ele><time>2026-04-29T18:03:54.999Z</time></trkpt><trkpt lat="41.78691692141651" lon="12.26573695380218"><ele>4.0</ele><time>2026-04-29T18:03:55.999Z</time></trkpt><trkpt lat="41.78678745940643" lon="12.265435348920587"><ele>3.5</ele><time>2026-04-29T18:03:56.999Z</time></trkpt><trkpt lat="41.78666273855231" lon="12.265134465792922"><ele>3.0</ele><time>2026-04-29T18:03:57.999Z</time></trkpt><trkpt lat="41.78654792796034" lon="12.264836236665364"><ele>2.5</ele><time>2026-04-29T18:03:58.999Z</time></trkpt><trkpt lat="41.78644044382872" lon="12.264532358026944"><ele>2.0</ele><time>2026-04-29T18:03:59.999Z</time></trkpt><trkpt lat="41.78634556494786" lon="12.264226704403713"><ele>2.5</ele><time>2026-04-29T18:04:00.999Z</time></trkpt><trkpt lat="41.78626342209587" lon="12.263918902164054"><ele>3.0</ele><time>2026-04-29T18:04:01.999Z</time></trkpt><trkpt lat="41.786190914351906" lon="12.263601351663349"><ele>3.0</ele><time>2026-04-29T18:04:02.999Z</time></trkpt><trkpt lat="41.78613044409518" lon="12.263276198643569"><ele>3.0</ele><time>2026-04-29T18:04:03.999Z</time></trkpt><trkpt lat="41.786081020578294" lon="12.262946484771984"><ele>3.5</ele><time>2026-04-29T18:04:04.999Z</time></trkpt><trkpt lat="41.78604001825467" lon="12.262606548499658"><ele>4.0</ele><time>2026-04-29T18:04:05.999Z</time></trkpt><trkpt lat="41.78601680004372" lon="12.262282982449506"><ele>3.5</ele><time>2026-04-29T18:04:06.999Z</time></trkpt><trkpt lat="41.78601059631903" lon="12.261954738122348"><ele>3.0</ele><time>2026-04-29T18:04:07.999Z</time></trkpt><trkpt lat="41.78601553677647" lon="12.261632157699554"><ele>2.0</ele><time>2026-04-29T18:04:08.999Z</time></trkpt><trkpt lat="41.7860337243663" lon="12.261315301975902"><ele>1.0</ele><time>2026-04-29T18:04:09.999Z</time></trkpt><trkpt lat="41.78606458049114" lon="12.261013699727949"><ele>1.0</ele><time>2026-04-29T18:04:10.999Z</time></trkpt><trkpt lat="41.786103961102505" lon="12.260734534218845"><ele>1.0</ele><time>2026-04-29T18:04:11.999Z</time></trkpt><trkpt lat="41.78615347282207" lon="12.2604688997903"><ele>1.0</ele><time>2026-04-29T18:04:12.999Z</time></trkpt><trkpt lat="41.78621120135371" lon="12.26022155590799"><ele>1.0</ele><time>2026-04-29T18:04:13.999Z</time></trkpt><trkpt lat="41.7862792663907" lon="12.259979236632642"><ele>1.0</ele><time>2026-04-29T18:04:14.999Z</time></trkpt><trkpt lat="41.78636009653164" lon="12.259742481128436"><ele>1.0</ele><time>2026-04-29T18:04:15.999Z</time></trkpt><trkpt lat="41.786455958274765" lon="12.25950852094068"><ele>1.6666666666666665</ele><time>2026-04-29T18:04:16.999Z</time></trkpt><trkpt lat="41.78656563482229" lon="12.259281272368359"><ele>2.3333333333333335</ele><time>2026-04-29T18:04:17.999Z</time></trkpt><trkpt lat="41.78668406387404" lon="12.259071787580849"><ele>3.0</ele><time>2026-04-29T18:04:18.999Z</time></trkpt><trkpt lat="41.786817710945" lon="12.258885773699076"><ele>3.0</ele><time>2026-04-29T18:04:19.999Z</time></trkpt><trkpt lat="41.786967291683005" lon="12.258704185648098"><ele>3.0</ele><time>2026-04-29T18:04:20.999Z</time></trkpt><trkpt lat="41.78713222997122" lon="12.258529234840342"><ele>3.0</ele><time>2026-04-29T18:04:21.999Z</time></trkpt><trkpt lat="41.78731223174389" lon="12.258348177097034"><ele>3.0</ele><time>2026-04-29T18:04:22.999Z</time></trkpt><trkpt lat="41.787483595119895" lon="12.258183556108643"><ele>3.0</ele><time>2026-04-29T18:04:23.999Z</time></trkpt><trkpt lat="41.78764307523611" lon="12.258034374319875"><ele>3.0</ele><time>2026-04-29T18:04:24.999Z</time></trkpt><trkpt lat="41.78779956254233" lon="12.257901012104742"><ele>3.333333333333333</ele><time>2026-04-29T18:04:25.999Z</time></trkpt><trkpt lat="41.7879702158403" lon="12.257788866521263"><ele>3.6666666666666665</ele><time>2026-04-29T18:04:26.999Z</time></trkpt><trkpt lat="41.788138325561285" lon="12.257704792562985"><ele>4.0</ele><time>2026-04-29T18:04:27.999Z</time></trkpt><trkpt lat="41.788286798916914" lon="12.257626163651832"><ele>4.0</ele><time>2026-04-29T18:04:28.999Z</time></trkpt><trkpt lat="41.78840511343271" lon="12.257527954858853"><ele>4.0</ele><time>2026-04-29T18:04:29.999Z</time></trkpt><trkpt lat="41.78850325917637" lon="12.257397316837672"><ele>4.0</ele><time>2026-04-29T18:04:30.999Z</time></trkpt><trkpt lat="41.788573719256696" lon="12.257243198195262"><ele>4.0</ele><time>2026-04-29T18:04:31.999Z</time></trkpt><trkpt lat="41.78862205837678" lon="12.257076394487065"><ele>4.0</ele><time>2026-04-29T18:04:32.999Z</time></trkpt><trkpt lat="41.78863464548913" lon="12.25692362772617"><ele>4.0</ele><time>2026-04-29T18:04:33.999Z</time></trkpt><trkpt lat="41.78861990665483" lon="12.256778789919252"><ele>4.0</ele><time>2026-04-29T18:04:34.999Z</time></trkpt><trkpt lat="41.78856868032096" lon="12.256646257072292"><ele>4.0</ele><time>2026-04-29T18:04:35.999Z</time></trkpt><trkpt lat="41.788490375285704" lon="12.256537363138158"><ele>4.0</ele><time>2026-04-29T18:04:36.999Z</time></trkpt><trkpt lat="41.78838339316601" lon="12.25647231633339"><ele>3.25</ele><time>2026-04-29T18:04:37.999Z</time></trkpt><trkpt lat="41.78825506938093" lon="12.256441006770608"><ele>2.5</ele><time>2026-04-29T18:04:38.999Z</time></trkpt><trkpt lat="41.788117691397765" lon="12.25642604260062"><ele>1.75</ele><time>2026-04-29T18:04:39.999Z</time></trkpt><trkpt lat="41.787981168252884" lon="12.25637793314203"><ele>1.0</ele><time>2026-04-29T18:04:40.999Z</time></trkpt><trkpt lat="41.78784756600655" lon="12.256288208919466"><ele>1.0</ele><time>2026-04-29T18:04:41.999Z</time></trkpt><trkpt lat="41.787724689162" lon="12.256163647834205"><ele>1.0</ele><time>2026-04-29T18:04:42.999Z</time></trkpt><trkpt lat="41.787616290389614" lon="12.256009505293292"><ele>1.0</ele><time>2026-04-29T18:04:43.999Z</time></trkpt><trkpt lat="41.78750475039141" lon="12.255806277390516"><ele>1.3333333333333333</ele><time>2026-04-29T18:04:44.999Z</time></trkpt><trkpt lat="41.78738411318026" lon="12.255576599253072"><ele>1.6666666666666665</ele><time>2026-04-29T18:04:45.999Z</time></trkpt><trkpt lat="41.7872463229757" lon="12.255325258788904"><ele>2.0</ele><time>2026-04-29T18:04:47Z</time></trkpt><trkpt lat="41.78710624450382" lon="12.255067989217858"><ele>2.0</ele><time>2026-04-29T18:04:48Z</time></trkpt><trkpt lat="41.78695825678016" lon="12.254795657807458"><ele>2.0</ele><time>2026-04-29T18:04:49Z</time></trkpt><trkpt lat="41.78680852482294" lon="12.254521481627584"><ele>2.0</ele><time>2026-04-29T18:04:50Z</time></trkpt><trkpt lat="41.78666782792914" lon="12.254270310699795"><ele>2.0</ele><time>2026-04-29T18:04:51Z</time></trkpt><trkpt lat="41.7865381628145" lon="12.254032718492176"><ele>1.3333333333333333</ele><time>2026-04-29T18:04:52Z</time></trkpt><trkpt lat="41.78641784298835" lon="12.253806780218447"><ele>0.6666666666666666</ele><time>2026-04-29T18:04:53Z</time></trkpt><trkpt lat="41.78630153232963" lon="12.253594287713977"><ele>0.0</ele><time>2026-04-29T18:04:54Z</time></trkpt><trkpt lat="41.78618506942953" lon="12.25338433026201"><ele>0.0</ele><time>2026-04-29T18:04:55Z</time></trkpt><trkpt lat="41.78608272558207" lon="12.25319569442357"><ele>0.0</ele><time>2026-04-29T18:04:56Z</time></trkpt><trkpt lat="41.785990400798994" lon="12.25301739173242"><ele>0.0</ele><time>2026-04-29T18:04:57Z</time></trkpt><trkpt lat="41.785905294201896" lon="12.252855528444575"><ele>0.0</ele><time>2026-04-29T18:04:58Z</time></trkpt><trkpt lat="41.78582674002711" lon="12.252707576740244"><ele>0.0</ele><time>2026-04-29T18:04:59Z</time></trkpt><trkpt lat="41.78576534031298" lon="12.25258029266725"><ele>0.0</ele><time>2026-04-29T18:05:00Z</time></trkpt><trkpt lat="41.78571399201354" lon="12.252473751676892"><ele>0.0</ele><time>2026-04-29T18:05:01Z</time></trkpt><trkpt lat="41.78567267286447" lon="12.252394968954986"><ele>0.0</ele><time>2026-04-29T18:05:02Z</time></trkpt><trkpt lat="41.78563488628158" lon="12.252322086459092"><ele>-0.4</ele><time>2026-04-29T18:05:03Z</time></trkpt><trkpt lat="41.785596225830275" lon="12.252246632118725"><ele>-0.8</ele><time>2026-04-29T18:05:05Z</time></trkpt><trkpt lat="41.7855600151276" lon="12.252068040863962"><ele>-1.2000000000000002</ele><time>2026-04-29T18:05:16Z</time></trkpt><trkpt lat="41.78555717614675" lon="12.251960066347323"><ele>-1.6</ele><time>2026-04-29T18:05:17Z</time></trkpt><trkpt lat="41.785531880987534" lon="12.251876766271103"><ele>-2.0</ele><time>2026-04-29T18:05:18Z</time></trkpt><trkpt lat="41.78543554714969" lon="12.2517655591938"><ele>-1.9999999999999998</ele><time>2026-04-29T18:05:20Z</time></trkpt><trkpt lat="41.785366970577584" lon="12.251746088681495"><ele>-2.0</ele><time>2026-04-29T18:05:21Z</time></trkpt><trkpt lat="41.78528736586838" lon="12.251748477932894"><ele>-2.0</ele><time>2026-04-29T18:05:22Z</time></trkpt><trkpt lat="41.78520480728243" lon="12.251749361036168"><ele>-2.0</ele><time>2026-04-29T18:05:23Z</time></trkpt><trkpt lat="41.785134197342515" lon="12.251725259649"><ele>-1.9999999999999998</ele><time>2026-04-29T18:05:24Z</time></trkpt><trkpt lat="41.78505461449983" lon="12.251680375105307"><ele>-2.0</ele><time>2026-04-29T18:05:25Z</time></trkpt><trkpt lat="41.78496629826133" lon="12.251623963342395"><ele>-1.8</ele><time>2026-04-29T18:05:26Z</time></trkpt><trkpt lat="41.78487556231972" lon="12.251562935707332"><ele>-1.6</ele><time>2026-04-29T18:05:27Z</time></trkpt><trkpt lat="41.78478942029203" lon="12.25149758041739"><ele>-1.4000000000000001</ele><time>2026-04-29T18:05:28Z</time></trkpt><trkpt lat="41.78472638063839" lon="12.251419815547916"><ele>-1.2000000000000002</ele><time>2026-04-29T18:05:29Z</time></trkpt><trkpt lat="41.78468412732917" lon="12.251323346508988"><ele>-1.0</ele><time>2026-04-29T18:05:30Z</time></trkpt><trkpt lat="41.784640089205794" lon="12.251195842022762"><ele>-1.0</ele><time>2026-04-29T18:05:31Z</time></trkpt><trkpt lat="41.784576330081336" lon="12.251092744056225"><ele>-1.0</ele><time>2026-04-29T18:05:32Z</time></trkpt><trkpt lat="41.78448642360776" lon="12.251028558879566"><ele>-1.0</ele><time>2026-04-29T18:05:33Z</time></trkpt><trkpt lat="41.784373920655305" lon="12.251006433449335"><ele>-1.0</ele><time>2026-04-29T18:05:34Z</time></trkpt><trkpt lat="41.784236678253585" lon="12.251019892012014"><ele>-0.6666666666666666</ele><time>2026-04-29T18:05:35Z</time></trkpt><trkpt lat="41.784072285993894" lon="12.251041075528315"><ele>-0.3333333333333333</ele><time>2026-04-29T18:05:36Z</time></trkpt><trkpt lat="41.78389320176413" lon="12.251056954176137"><ele>0.0</ele><time>2026-04-29T18:05:37Z</time></trkpt><trkpt lat="41.7836864253061" lon="12.251068075442825"><ele>0.0</ele><time>2026-04-29T18:05:37.999Z</time></trkpt><trkpt lat="41.78345986042529" lon="12.251079067486518"><ele>0.0</ele><time>2026-04-29T18:05:38.999Z</time></trkpt><trkpt lat="41.78321672058273" lon="12.251089950151504"><ele>0.0</ele><time>2026-04-29T18:05:39.999Z</time></trkpt><trkpt lat="41.78299318511372" lon="12.25110135165892"><ele>0.0</ele><time>2026-04-29T18:05:40.999Z</time></trkpt><trkpt lat="41.78278867510785" lon="12.25111324366507"><ele>0.0</ele><time>2026-04-29T18:05:41.999Z</time></trkpt><trkpt lat="41.782597474057205" lon="12.251118425845378"><ele>0.3333333333333333</ele><time>2026-04-29T18:05:42.999Z</time></trkpt><trkpt lat="41.782417399714724" lon="12.251114112829544"><ele>0.6666666666666666</ele><time>2026-04-29T18:05:43.999Z</time></trkpt><trkpt lat="41.782247406428745" lon="12.251093761042558"><ele>1.0</ele><time>2026-04-29T18:05:44.999Z</time></trkpt><trkpt lat="41.782088205189744" lon="12.251084780670539"><ele>1.0</ele><time>2026-04-29T18:05:45.999Z</time></trkpt><trkpt lat="41.78194051064898" lon="12.25102799784732"><ele>1.0</ele><time>2026-04-29T18:05:46.999Z</time></trkpt><trkpt lat="41.78180467594313" lon="12.250925084754535"><ele>1.0</ele><time>2026-04-29T18:05:47.999Z</time></trkpt><trkpt lat="41.78169049979522" lon="12.250778829193493"><ele>1.3333333333333333</ele><time>2026-04-29T18:05:48.999Z</time></trkpt><trkpt lat="41.781605214985106" lon="12.250590129823577"><ele>1.6666666666666665</ele><time>2026-04-29T18:05:49.999Z</time></trkpt><trkpt lat="41.7815422018613" lon="12.250395605145005"><ele>2.0</ele><time>2026-04-29T18:05:50.999Z</time></trkpt><trkpt lat="41.781487472340196" lon="12.250196937951875"><ele>2.0</ele><time>2026-04-29T18:05:51.999Z</time></trkpt><trkpt lat="41.78144105721755" lon="12.249999996845341"><ele>2.0</ele><time>2026-04-29T18:05:52.999Z</time></trkpt><trkpt lat="41.78135264342641" lon="12.24983466483944"><ele>2.0</ele><time>2026-04-29T18:05:53.999Z</time></trkpt><trkpt lat="41.78124185420015" lon="12.249701101771578"><ele>1.6666666666666665</ele><time>2026-04-29T18:05:54.999Z</time></trkpt><trkpt lat="41.7811089829693" lon="12.249608441098289"><ele>1.3333333333333333</ele><time>2026-04-29T18:05:55.999Z</time></trkpt><trkpt lat="41.78095674346532" lon="12.249554668360268"><ele>1.0</ele><time>2026-04-29T18:05:56.999Z</time></trkpt><trkpt lat="41.78078679779454" lon="12.24953456359825"><ele>1.0</ele><time>2026-04-29T18:05:57.999Z</time></trkpt><trkpt lat="41.78059735243693" lon="12.249537406001362"><ele>1.0</ele><time>2026-04-29T18:05:58.999Z</time></trkpt><trkpt lat="41.78039394857473" lon="12.24955094454705"><ele>1.0</ele><time>2026-04-29T18:05:59.999Z</time></trkpt><trkpt lat="41.78021526572574" lon="12.249556825119754"><ele>0.5</ele><time>2026-04-29T18:06:00.999Z</time></trkpt><trkpt lat="41.780058564374386" lon="12.249559043492184"><ele>0.0</ele><time>2026-04-29T18:06:01.999Z</time></trkpt><trkpt lat="41.77991889171362" lon="12.2495546751843"><ele>-0.5</ele><time>2026-04-29T18:06:02.999Z</time></trkpt><trkpt lat="41.77979564828063" lon="12.249544423351507"><ele>-1.0</ele><time>2026-04-29T18:06:03.999Z</time></trkpt><trkpt lat="41.77969636536096" lon="12.249562094902675"><ele>-1.0</ele><time>2026-04-29T18:06:04.999Z</time></trkpt><trkpt lat="41.77961781482249" lon="12.249570440899411"><ele>-1.0</ele><time>2026-04-29T18:06:05.999Z</time></trkpt><trkpt lat="41.77954821497284" lon="12.249577835883871"><ele>-1.0</ele><time>2026-04-29T18:06:06.999Z</time></trkpt><trkpt lat="41.7794474558206" lon="12.249446413118864"><ele>-1.0</ele><time>2026-04-29T18:06:07.999Z</time></trkpt><trkpt lat="41.77940559296847" lon="12.249335006864648"><ele>-1.0</ele><time>2026-04-29T18:06:08.999Z</time></trkpt><trkpt lat="41.779342126318426" lon="12.249208440891431"><ele>-0.3333333333333333</ele><time>2026-04-29T18:06:09.999Z</time></trkpt><trkpt lat="41.779271664335496" lon="12.2490501669025"><ele>0.3333333333333333</ele><time>2026-04-29T18:06:10.999Z</time></trkpt><trkpt lat="41.77919333919918" lon="12.24887367285073"><ele>1.0</ele><time>2026-04-29T18:06:11.999Z</time></trkpt><trkpt lat="41.77910023362879" lon="12.248674375822786"><ele>1.0</ele><time>2026-04-29T18:06:12.999Z</time></trkpt><trkpt lat="41.779000629138" lon="12.248445008381491"><ele>1.0</ele><time>2026-04-29T18:06:13.999Z</time></trkpt><trkpt lat="41.778906361324026" lon="12.248220152989633"><ele>1.0</ele><time>2026-04-29T18:06:14.999Z</time></trkpt><trkpt lat="41.77881405414985" lon="12.247991005824767"><ele>1.0</ele><time>2026-04-29T18:06:15.999Z</time></trkpt><trkpt lat="41.7787048359509" lon="12.247774012255736"><ele>1.0</ele><time>2026-04-29T18:06:16.999Z</time></trkpt><trkpt lat="41.778630135817295" lon="12.247526366878258"><ele>1.0</ele><time>2026-04-29T18:06:17.999Z</time></trkpt><trkpt lat="41.778536133039914" lon="12.247291126442438"><ele>2.0</ele><time>2026-04-29T18:06:18.999Z</time></trkpt><trkpt lat="41.778447002284516" lon="12.247051780918891"><ele>3.0</ele><time>2026-04-29T18:06:19.999Z</time></trkpt><trkpt lat="41.77835910536624" lon="12.246808299380861"><ele>4.0</ele><time>2026-04-29T18:06:20.999Z</time></trkpt><trkpt lat="41.77824212310667" lon="12.246582801931709"><ele>4.0</ele><time>2026-04-29T18:06:21.999Z</time></trkpt><trkpt lat="41.77815561662256" lon="12.246341633211234"><ele>4.0</ele><time>2026-04-29T18:06:22.999Z</time></trkpt><trkpt lat="41.778061807560974" lon="12.246117901637923"><ele>4.0</ele><time>2026-04-29T18:06:23.999Z</time></trkpt><trkpt lat="41.77795587240231" lon="12.245907573244233"><ele>4.0</ele><time>2026-04-29T18:06:24.999Z</time></trkpt><trkpt lat="41.777829191688895" lon="12.245700589857233"><ele>4.0</ele><time>2026-04-29T18:06:25.999Z</time></trkpt><trkpt lat="41.77769230156566" lon="12.245483919803956"><ele>4.0</ele><time>2026-04-29T18:06:26.999Z</time></trkpt><trkpt lat="41.77755698760028" lon="12.245248263280372"><ele>3.5</ele><time>2026-04-29T18:06:27.999Z</time></trkpt><trkpt lat="41.777427856739614" lon="12.24500055467505"><ele>3.0</ele><time>2026-04-29T18:06:28.999Z</time></trkpt><trkpt lat="41.77730527377176" lon="12.244743899615683"><ele>3.0</ele><time>2026-04-29T18:06:29.999Z</time></trkpt><trkpt lat="41.77718586855013" lon="12.244484305651664"><ele>3.0</ele><time>2026-04-29T18:06:30.999Z</time></trkpt><trkpt lat="41.777067678636364" lon="12.24422638066907"><ele>3.0</ele><time>2026-04-29T18:06:31.999Z</time></trkpt><trkpt lat="41.77695028687464" lon="12.243968599336766"><ele>3.0</ele><time>2026-04-29T18:06:32.999Z</time></trkpt><trkpt lat="41.776836037569495" lon="12.243711499238861"><ele>3.0</ele><time>2026-04-29T18:06:33.999Z</time></trkpt><trkpt lat="41.776723689549875" lon="12.243458164383753"><ele>2.3333333333333335</ele><time>2026-04-29T18:06:34.999Z</time></trkpt><trkpt lat="41.77661403341637" lon="12.24321089949699"><ele>1.6666666666666665</ele><time>2026-04-29T18:06:35.999Z</time></trkpt><trkpt lat="41.77650599153459" lon="12.242967222905069"><ele>1.0</ele><time>2026-04-29T18:06:36.999Z</time></trkpt><trkpt lat="41.776397796046325" lon="12.242723084069468"><ele>0.3333333333333333</ele><time>2026-04-29T18:06:37.999Z</time></trkpt><trkpt lat="41.77629552418935" lon="12.242491322363197"><ele>-0.3333333333333333</ele><time>2026-04-29T18:06:38.999Z</time></trkpt><trkpt lat="41.77620432349772" lon="12.242283203231251"><ele>-1.0</ele><time>2026-04-29T18:06:39.999Z</time></trkpt><trkpt lat="41.77612102913646" lon="12.242093146885093"><ele>-1.0</ele><time>2026-04-29T18:06:40.999Z</time></trkpt><trkpt lat="41.77604875536535" lon="12.241928878928324"><ele>-1.0</ele><time>2026-04-29T18:06:41.999Z</time></trkpt><trkpt lat="41.77598276357184" lon="12.241778889070952"><ele>-1.0</ele><time>2026-04-29T18:06:42.999Z</time></trkpt><trkpt lat="41.77592461579449" lon="12.241646727486309"><ele>-1.0</ele><time>2026-04-29T18:06:43.999Z</time></trkpt><trkpt lat="41.77587194994056" lon="12.241527025552251"><ele>-1.0</ele><time>2026-04-29T18:06:44.999Z</time></trkpt><trkpt lat="41.7758276449227" lon="12.241426326514995"><ele>-1.0</ele><time>2026-04-29T18:06:45.999Z</time></trkpt><trkpt lat="41.77579044793408" lon="12.241341783168638"><ele>-1.0</ele><time>2026-04-29T18:06:46.999Z</time></trkpt><trkpt lat="41.77575774406748" lon="12.241264339279258"><ele>-1.0</ele><time>2026-04-29T18:06:47.999Z</time></trkpt><trkpt lat="41.77571120191647" lon="12.241148894889186"><ele>-1.0</ele><time>2026-04-29T18:06:49.999Z</time></trkpt><trkpt lat="41.77576665071947" lon="12.240969862251506"><ele>-0.9999999999999999</ele><time>2026-04-29T18:06:51.999Z</time></trkpt><trkpt lat="41.775833951022214" lon="12.240902469926771"><ele>-1.0</ele><time>2026-04-29T18:06:54Z</time></trkpt><trkpt lat="41.77588430459135" lon="12.240745570098984"><ele>-1.0</ele><time>2026-04-29T18:06:56Z</time></trkpt><trkpt lat="41.77584114427446" lon="12.240642274902076"><ele>-1.0</ele><time>2026-04-29T18:06:57Z</time></trkpt><trkpt lat="41.77582172255642" lon="12.240552950476355"><ele>-0.9999999999999999</ele><time>2026-04-29T18:06:58Z</time></trkpt><trkpt lat="41.775796025494664" lon="12.240467625831217"><ele>-1.0</ele><time>2026-04-29T18:06:59Z</time></trkpt><trkpt lat="41.77575917583646" lon="12.240375350298342"><ele>-1.3333333333333333</ele><time>2026-04-29T18:07:00Z</time></trkpt><trkpt lat="41.775713730734466" lon="12.24030656497132"><ele>-1.6666666666666665</ele><time>2026-04-29T18:07:01Z</time></trkpt><trkpt lat="41.77565579115264" lon="12.24024449476838"><ele>-2.0</ele><time>2026-04-29T18:07:02Z</time></trkpt><trkpt lat="41.77557689651064" lon="12.240226285007338"><ele>-2.3333333333333335</ele><time>2026-04-29T18:07:03Z</time></trkpt><trkpt lat="41.77549834160369" lon="12.24023449652734"><ele>-2.6666666666666665</ele><time>2026-04-29T18:07:04Z</time></trkpt><trkpt lat="41.77542321384454" lon="12.240268136214905"><ele>-3.0</ele><time>2026-04-29T18:07:05Z</time></trkpt><trkpt lat="41.77534984363386" lon="12.24030555535541"><ele>-3.0</ele><time>2026-04-29T18:07:06Z</time></trkpt><trkpt lat="41.77527306019635" lon="12.240329835943138"><ele>-3.0</ele><time>2026-04-29T18:07:07Z</time></trkpt><trkpt lat="41.775105623300554" lon="12.240341100354966"><ele>-3.0</ele><time>2026-04-29T18:07:09Z</time></trkpt><trkpt lat="41.7750337070624" lon="12.240258681820588"><ele>-3.0</ele><time>2026-04-29T18:07:10Z</time></trkpt><trkpt lat="41.7749693562327" lon="12.240146666865833"><ele>-3.0</ele><time>2026-04-29T18:07:11Z</time></trkpt><trkpt lat="41.77490950155814" lon="12.24002001630694"><ele>-2.4</ele><time>2026-04-29T18:07:12Z</time></trkpt><trkpt lat="41.77485493141647" lon="12.239892794311388"><ele>-1.7999999999999998</ele><time>2026-04-29T18:07:13Z</time></trkpt><trkpt lat="41.77480089883767" lon="12.239766300975658"><ele>-1.2</ele><time>2026-04-29T18:07:14Z</time></trkpt><trkpt lat="41.77475061463744" lon="12.239651400025434"><ele>-0.6</ele><time>2026-04-29T18:07:15Z</time></trkpt><trkpt lat="41.774702324752674" lon="12.239546723164493"><ele>0.0</ele><time>2026-04-29T18:07:16Z</time></trkpt><trkpt lat="41.77465738132017" lon="12.23944604255827"><ele>0.2</ele><time>2026-04-29T18:07:17Z</time></trkpt><trkpt lat="41.77462238946893" lon="12.239342789723944"><ele>0.4</ele><time>2026-04-29T18:07:18Z</time></trkpt><trkpt lat="41.774605752837786" lon="12.23921685228489"><ele>0.6000000000000001</ele><time>2026-04-29T18:07:19Z</time></trkpt><trkpt lat="41.77461177424893" lon="12.239087077291236"><ele>0.8</ele><time>2026-04-29T18:07:20Z</time></trkpt><trkpt lat="41.77464907123643" lon="12.238962446791783"><ele>1.0</ele><time>2026-04-29T18:07:21Z</time></trkpt><trkpt lat="41.77469299719223" lon="12.238854416262617"><ele>1.0</ele><time>2026-04-29T18:07:22Z</time></trkpt><trkpt lat="41.77475578700475" lon="12.238755431098555"><ele>1.0</ele><time>2026-04-29T18:07:23Z</time></trkpt><trkpt lat="41.77483537419162" lon="12.23867742069609"><ele>1.0</ele><time>2026-04-29T18:07:24Z</time></trkpt><trkpt lat="41.77492865907893" lon="12.238652711743669"><ele>1.0</ele><time>2026-04-29T18:07:25Z</time></trkpt><trkpt lat="41.775011735974495" lon="12.238652211799499"><ele>1.0</ele><time>2026-04-29T18:07:26Z</time></trkpt><trkpt lat="41.77508826053271" lon="12.238671145337474"><ele>0.9999999999999999</ele><time>2026-04-29T18:07:27Z</time></trkpt><trkpt lat="41.77516471526916" lon="12.238702934491144"><ele>1.0</ele><time>2026-04-29T18:07:28Z</time></trkpt><trkpt lat="41.77522529427169" lon="12.23878669230489"><ele>1.0</ele><time>2026-04-29T18:07:29Z</time></trkpt><trkpt lat="41.775295704355344" lon="12.23882936839766"><ele>1.0</ele><time>2026-04-29T18:07:30Z</time></trkpt><trkpt lat="41.775367021377726" lon="12.238837156429435"><ele>0.9999999999999999</ele><time>2026-04-29T18:07:31Z</time></trkpt><trkpt lat="41.77542910362045" lon="12.238747563944946"><ele>1.0</ele><time>2026-04-29T18:07:32Z</time></trkpt><trkpt lat="41.775465112320056" lon="12.23865547695774"><ele>1.0</ele><time>2026-04-29T18:07:33Z</time></trkpt><trkpt lat="41.775456087339435" lon="12.23849036971417"><ele>1.0</ele><time>2026-04-29T18:07:35Z</time></trkpt><trkpt lat="41.77541861201426" lon="12.238399944278951"><ele>1.0</ele><time>2026-04-29T18:07:36Z</time></trkpt><trkpt lat="41.775398316213206" lon="12.238291574364323"><ele>1.0</ele><time>2026-04-29T18:07:37Z</time></trkpt><trkpt lat="41.77538966186678" lon="12.238170075292755"><ele>1.0</ele><time>2026-04-29T18:07:38Z</time></trkpt><trkpt lat="41.77536577870506" lon="12.2380497248433"><ele>1.0</ele><time>2026-04-29T18:07:39Z</time></trkpt><trkpt lat="41.775342901273966" lon="12.237924505995162"><ele>1.0</ele><time>2026-04-29T18:07:40Z</time></trkpt><trkpt lat="41.77533614728476" lon="12.237803721015592"><ele>1.0</ele><time>2026-04-29T18:07:41Z</time></trkpt><trkpt lat="41.77533226823939" lon="12.237688105019089"><ele>1.0</ele><time>2026-04-29T18:07:42Z</time></trkpt><trkpt lat="41.77532154987769" lon="12.237553029719727"><ele>1.0</ele><time>2026-04-29T18:07:43Z</time></trkpt><trkpt lat="41.77531231093875" lon="12.237419033306704"><ele>1.1666666666666665</ele><time>2026-04-29T18:07:44Z</time></trkpt><trkpt lat="41.77530474271028" lon="12.237292238283628"><ele>1.3333333333333333</ele><time>2026-04-29T18:07:45Z</time></trkpt><trkpt lat="41.775299671270155" lon="12.237175303005097"><ele>1.5</ele><time>2026-04-29T18:07:46Z</time></trkpt><trkpt lat="41.77529299193437" lon="12.237065141728005"><ele>1.6666666666666665</ele><time>2026-04-29T18:07:46.999Z</time></trkpt><trkpt lat="41.775288136522654" lon="12.236948016250519"><ele>1.8333333333333333</ele><time>2026-04-29T18:07:47.999Z</time></trkpt><trkpt lat="41.77528287155325" lon="12.236824461102875"><ele>2.0</ele><time>2026-04-29T18:07:48.999Z</time></trkpt><trkpt lat="41.77527627936529" lon="12.236701557162739"><ele>2.0</ele><time>2026-04-29T18:07:49.999Z</time></trkpt><trkpt lat="41.77526876223951" lon="12.236570344851517"><ele>2.0</ele><time>2026-04-29T18:07:50.999Z</time></trkpt><trkpt lat="41.77526500643334" lon="12.236439635864732"><ele>2.0</ele><time>2026-04-29T18:07:51.999Z</time></trkpt><trkpt lat="41.77525493552919" lon="12.236320090369142"><ele>2.0</ele><time>2026-04-29T18:07:52.999Z</time></trkpt><trkpt lat="41.77524856407664" lon="12.236179341135527"><ele>2.0</ele><time>2026-04-29T18:07:53.999Z</time></trkpt><trkpt lat="41.77524235347986" lon="12.236042614790733"><ele>2.0</ele><time>2026-04-29T18:07:54.999Z</time></trkpt><trkpt lat="41.775239418092426" lon="12.235923419914052"><ele>2.0</ele><time>2026-04-29T18:07:55.999Z</time></trkpt><trkpt lat="41.775234230330796" lon="12.235792858059208"><ele>2.0</ele><time>2026-04-29T18:07:56.999Z</time></trkpt><trkpt lat="41.7752377028385" lon="12.235658487676199"><ele>2.0</ele><time>2026-04-29T18:07:57.999Z</time></trkpt><trkpt lat="41.775221860020274" lon="12.235529274628972"><ele>2.0</ele><time>2026-04-29T18:07:58.999Z</time></trkpt><trkpt lat="41.775215254558795" lon="12.23540039665178"><ele>2.0</ele><time>2026-04-29T18:07:59.999Z</time></trkpt><trkpt lat="41.77520870526806" lon="12.235269959374122"><ele>2.0</ele><time>2026-04-29T18:08:00.999Z</time></trkpt><trkpt lat="41.77520130240246" lon="12.235121885936945"><ele>2.0</ele><time>2026-04-29T18:08:01.999Z</time></trkpt><trkpt lat="41.77519288590359" lon="12.234953537747053"><ele>2.0</ele><time>2026-04-29T18:08:02.999Z</time></trkpt><trkpt lat="41.77518417949272" lon="12.234779390486567"><ele>2.0</ele><time>2026-04-29T18:08:03.999Z</time></trkpt><trkpt lat="41.775174983919136" lon="12.23459545907991"><ele>2.0</ele><time>2026-04-29T18:08:04.999Z</time></trkpt><trkpt lat="41.77516527938853" lon="12.234404194388453"><ele>2.0</ele><time>2026-04-29T18:08:05.999Z</time></trkpt><trkpt lat="41.77515614027162" lon="12.234230588401491"><ele>2.0</ele><time>2026-04-29T18:08:06.999Z</time></trkpt><trkpt lat="41.775148534963066" lon="12.234086118536053"><ele>2.25</ele><time>2026-04-29T18:08:07.999Z</time></trkpt><trkpt lat="41.77513996034189" lon="12.233923235813545"><ele>2.5</ele><time>2026-04-29T18:08:08.999Z</time></trkpt><trkpt lat="41.77513125137569" lon="12.233757800954923"><ele>2.75</ele><time>2026-04-29T18:08:09.999Z</time></trkpt><trkpt lat="41.77512248974268" lon="12.233591365676972"><ele>3.0</ele><time>2026-04-29T18:08:10.999Z</time></trkpt><trkpt lat="41.77511380662889" lon="12.233423272395337"><ele>3.0</ele><time>2026-04-29T18:08:11.999Z</time></trkpt><trkpt lat="41.775104991227344" lon="12.233250577316841"><ele>3.0</ele><time>2026-04-29T18:08:12.999Z</time></trkpt><trkpt lat="41.77507759067102" lon="12.233071331576017"><ele>3.0</ele><time>2026-04-29T18:08:13.999Z</time></trkpt><trkpt lat="41.77506892394604" lon="12.23290891252562"><ele>3.0</ele><time>2026-04-29T18:08:14.999Z</time></trkpt><trkpt lat="41.775061538558354" lon="12.232770506318175"><ele>2.75</ele><time>2026-04-29T18:08:15.999Z</time></trkpt><trkpt lat="41.77505577336531" lon="12.232662463507635"><ele>2.5</ele><time>2026-04-29T18:08:16.999Z</time></trkpt><trkpt lat="41.77504829006034" lon="12.232522222419263"><ele>2.25</ele><time>2026-04-29T18:08:18.999Z</time></trkpt><trkpt lat="41.77524093253129" lon="12.232464092911146"><ele>2.0</ele><time>2026-04-29T18:08:20.999Z</time></trkpt><trkpt lat="41.77531715501041" lon="12.232467243048358"><ele>1.8</ele><time>2026-04-29T18:08:21.999Z</time></trkpt><trkpt lat="41.775398821454175" lon="12.232464183644623"><ele>1.6</ele><time>2026-04-29T18:08:22.999Z</time></trkpt><trkpt lat="41.77549464091743" lon="12.232461829531546"><ele>1.4000000000000001</ele><time>2026-04-29T18:08:23.999Z</time></trkpt><trkpt lat="41.775598565191196" lon="12.232457045844763"><ele>1.2000000000000002</ele><time>2026-04-29T18:08:24.999Z</time></trkpt><trkpt lat="41.77570705506044" lon="12.232444598711753"><ele>1.0</ele><time>2026-04-29T18:08:25.999Z</time></trkpt><trkpt lat="41.775813550028076" lon="12.232442639529793"><ele>1.0</ele><time>2026-04-29T18:08:26.999Z</time></trkpt><trkpt lat="41.77592457513794" lon="12.23243827186082"><ele>1.0</ele><time>2026-04-29T18:08:27.999Z</time></trkpt><trkpt lat="41.77603583637593" lon="12.232425293715815"><ele>1.0</ele><time>2026-04-29T18:08:28.999Z</time></trkpt><trkpt lat="41.77614782162786" lon="12.232420216288764"><ele>1.0</ele><time>2026-04-29T18:08:29.999Z</time></trkpt><trkpt lat="41.776257807421615" lon="12.232412184443806"><ele>1.0</ele><time>2026-04-29T18:08:30.999Z</time></trkpt><trkpt lat="41.776360776331146" lon="12.232402484955552"><ele>1.1666666666666665</ele><time>2026-04-29T18:08:31.999Z</time></trkpt><trkpt lat="41.776455292419456" lon="12.232401581211953"><ele>1.3333333333333333</ele><time>2026-04-29T18:08:32.999Z</time></trkpt><trkpt lat="41.77654417719944" lon="12.232400695978958"><ele>1.5</ele><time>2026-04-29T18:08:33.999Z</time></trkpt><trkpt lat="41.776624928996135" lon="12.232394307646988"><ele>1.6666666666666665</ele><time>2026-04-29T18:08:34.999Z</time></trkpt><trkpt lat="41.77670359754527" lon="12.232387372310814"><ele>1.8333333333333333</ele><time>2026-04-29T18:08:35.999Z</time></trkpt><trkpt lat="41.77677329700444" lon="12.23237914990984"><ele>2.0</ele><time>2026-04-29T18:08:36.999Z</time></trkpt><trkpt lat="41.77684614926798" lon="12.232381147351482"><ele>1.9999999999999998</ele><time>2026-04-29T18:08:37.999Z</time></trkpt><trkpt lat="41.776922741577486" lon="12.232377259495973"><ele>2.0</ele><time>2026-04-29T18:08:38.999Z</time></trkpt><trkpt lat="41.77699106053635" lon="12.232367439465923"><ele>2.0</ele><time>2026-04-29T18:08:39.999Z</time></trkpt><trkpt lat="41.77710655708741" lon="12.232341637276761"><ele>2.0</ele><time>2026-04-29T18:08:41.999Z</time></trkpt><trkpt lat="41.77716623809059" lon="12.23223345791008"><ele>1.9999999999999998</ele><time>2026-04-29T18:08:43.999Z</time></trkpt><trkpt lat="41.77713644457613" lon="12.23214474620662"><ele>2.0</ele><time>2026-04-29T18:08:45.999Z</time></trkpt><trkpt lat="41.777273853449934" lon="12.232124653807428"><ele>1.9999999999999998</ele><time>2026-04-29T18:08:46.999Z</time></trkpt><trkpt lat="41.777382735167414" lon="12.232097107938916"><ele>2.0</ele><time>2026-04-29T18:08:48.999Z</time></trkpt><trkpt lat="41.77745262714127" lon="12.232080367222249"><ele>2.0</ele><time>2026-04-29T18:08:50.999Z</time></trkpt><trkpt lat="41.77752264138438" lon="12.23205525761276"><ele>2.0</ele><time>2026-04-29T18:08:57.999Z</time></trkpt><trkpt lat="41.77748062772264" lon="12.231986787406106"><ele>1.9999999999999998</ele><time>2026-04-29T18:12:51.999Z</time></trkpt><trkpt lat="41.77742290235979" lon="12.232020694905117"><ele>2.0</ele><time>2026-04-29T18:13:00.999Z</time></trkpt><trkpt lat="41.77736463756312" lon="12.232066145376118"><ele>1.9999999999999998</ele><time>2026-04-29T18:13:12Z</time></trkpt><trkpt lat="41.777296336471395" lon="12.232087309610426"><ele>2.0</ele><time>2026-04-29T18:13:20Z</time></trkpt><trkpt lat="41.77726526784501" lon="12.232011445459612"><ele>2.0</ele><time>2026-04-29T18:13:34Z</time></trkpt><trkpt lat="41.77731836537871" lon="12.231881045922009"><ele>2.0</ele><time>2026-04-30T04:57:51Z</time></trkpt><trkpt lat="41.77733008900726" lon="12.231969390975673"><ele>1.9999999999999998</ele><time>2026-04-30T05:41:49Z</time></trkpt><trkpt lat="41.77721148420354" lon="12.231979657051308"><ele>2.0</ele><time>2026-04-30T06:18:18Z</time></trkpt><trkpt lat="41.777312741931304" lon="12.231910111363971"><ele>2.0</ele><time>2026-04-30T06:21:38Z</time></trkpt></trkseg></trk></gpx>